<?xml version="1.0" encoding="UTF-8" standalone="no" ?>
<gpx xmlns="http://www.topografix.com/GPX/1/1" xmlns:xsi="http://www.w3.org/2001/XMLSchema-instance" xsi:schemaLocation="http://www.topografix.com/GPX/1/1 http://www.topografix.com/GPX/1/1/gpx.xsd" version="1.1" creator="VisuGPX - https://www.visugpx.com">
  <metadata>
    <name>Sortie dans les Monts d Or</name>
  </metadata>
  <trk>
    <name><![CDATA[Sortie dans les Monts d Or]]></name>
    <trkseg>
      <trkpt lat="45.88275" lon="4.8739">
        <ele>297.5</ele>
        <time>2020-06-07T05:59:00.000Z</time>
      </trkpt>
      <trkpt lat="45.88275" lon="4.8739">
        <ele>297.5</ele>
        <time>2020-06-07T05:59:01.000Z</time>
      </trkpt>
      <trkpt lat="45.88273" lon="4.87381">
        <ele>297.3</ele>
        <time>2020-06-07T05:59:19.000Z</time>
      </trkpt>
      <trkpt lat="45.88272" lon="4.87378">
        <ele>297.3</ele>
        <time>2020-06-07T05:59:20.000Z</time>
      </trkpt>
      <trkpt lat="45.88271" lon="4.87375">
        <ele>297.3</ele>
        <time>2020-06-07T05:59:21.000Z</time>
      </trkpt>
      <trkpt lat="45.8827" lon="4.87372">
        <ele>297.3</ele>
        <time>2020-06-07T05:59:22.000Z</time>
      </trkpt>
      <trkpt lat="45.88268" lon="4.8737">
        <ele>297.2</ele>
        <time>2020-06-07T05:59:23.000Z</time>
      </trkpt>
      <trkpt lat="45.88267" lon="4.87367">
        <ele>297.2</ele>
        <time>2020-06-07T05:59:24.000Z</time>
      </trkpt>
      <trkpt lat="45.88266" lon="4.87365">
        <ele>297.2</ele>
        <time>2020-06-07T05:59:25.000Z</time>
      </trkpt>
      <trkpt lat="45.88264" lon="4.87363">
        <ele>297.2</ele>
        <time>2020-06-07T05:59:26.000Z</time>
      </trkpt>
      <trkpt lat="45.88262" lon="4.87361">
        <ele>297.2</ele>
        <time>2020-06-07T05:59:27.000Z</time>
      </trkpt>
      <trkpt lat="45.88261" lon="4.87359">
        <ele>297.1</ele>
        <time>2020-06-07T05:59:28.000Z</time>
      </trkpt>
      <trkpt lat="45.88259" lon="4.87358">
        <ele>297.1</ele>
        <time>2020-06-07T05:59:29.000Z</time>
      </trkpt>
      <trkpt lat="45.88257" lon="4.87357">
        <ele>297.1</ele>
        <time>2020-06-07T05:59:30.000Z</time>
      </trkpt>
      <trkpt lat="45.88254" lon="4.87356">
        <ele>297</ele>
        <time>2020-06-07T05:59:31.000Z</time>
      </trkpt>
      <trkpt lat="45.88251" lon="4.87355">
        <ele>297</ele>
        <time>2020-06-07T05:59:32.000Z</time>
      </trkpt>
      <trkpt lat="45.88249" lon="4.87354">
        <ele>296.9</ele>
        <time>2020-06-07T05:59:33.000Z</time>
      </trkpt>
      <trkpt lat="45.88246" lon="4.87353">
        <ele>296.9</ele>
        <time>2020-06-07T05:59:34.000Z</time>
      </trkpt>
      <trkpt lat="45.88242" lon="4.87352">
        <ele>296.8</ele>
        <time>2020-06-07T05:59:35.000Z</time>
      </trkpt>
      <trkpt lat="45.88239" lon="4.87351">
        <ele>296.8</ele>
        <time>2020-06-07T05:59:36.000Z</time>
      </trkpt>
      <trkpt lat="45.88236" lon="4.87351">
        <ele>296.7</ele>
        <time>2020-06-07T05:59:37.000Z</time>
      </trkpt>
      <trkpt lat="45.88233" lon="4.8735">
        <ele>296.7</ele>
        <time>2020-06-07T05:59:38.000Z</time>
      </trkpt>
      <trkpt lat="45.88231" lon="4.87348">
        <ele>296.6</ele>
        <time>2020-06-07T05:59:39.000Z</time>
      </trkpt>
      <trkpt lat="45.88228" lon="4.87346">
        <ele>296.6</ele>
        <time>2020-06-07T05:59:40.000Z</time>
      </trkpt>
      <trkpt lat="45.88225" lon="4.87344">
        <ele>296.6</ele>
        <time>2020-06-07T05:59:41.000Z</time>
      </trkpt>
      <trkpt lat="45.88223" lon="4.87341">
        <ele>296.7</ele>
        <time>2020-06-07T05:59:42.000Z</time>
      </trkpt>
      <trkpt lat="45.8822" lon="4.87338">
        <ele>296.7</ele>
        <time>2020-06-07T05:59:43.000Z</time>
      </trkpt>
      <trkpt lat="45.88218" lon="4.87334">
        <ele>296.7</ele>
        <time>2020-06-07T05:59:44.000Z</time>
      </trkpt>
      <trkpt lat="45.88217" lon="4.8733">
        <ele>296.7</ele>
        <time>2020-06-07T05:59:45.000Z</time>
      </trkpt>
      <trkpt lat="45.88216" lon="4.87326">
        <ele>296.7</ele>
        <time>2020-06-07T05:59:46.000Z</time>
      </trkpt>
      <trkpt lat="45.88215" lon="4.87322">
        <ele>296.7</ele>
        <time>2020-06-07T05:59:47.000Z</time>
      </trkpt>
      <trkpt lat="45.88215" lon="4.87317">
        <ele>296.7</ele>
        <time>2020-06-07T05:59:48.000Z</time>
      </trkpt>
      <trkpt lat="45.88214" lon="4.87312">
        <ele>296.7</ele>
        <time>2020-06-07T05:59:49.000Z</time>
      </trkpt>
      <trkpt lat="45.88214" lon="4.87308">
        <ele>296.7</ele>
        <time>2020-06-07T05:59:50.000Z</time>
      </trkpt>
      <trkpt lat="45.88214" lon="4.87302">
        <ele>296.7</ele>
        <time>2020-06-07T05:59:51.000Z</time>
      </trkpt>
      <trkpt lat="45.88214" lon="4.87297">
        <ele>296.7</ele>
        <time>2020-06-07T05:59:52.000Z</time>
      </trkpt>
      <trkpt lat="45.88213" lon="4.87292">
        <ele>296.7</ele>
        <time>2020-06-07T05:59:53.000Z</time>
      </trkpt>
      <trkpt lat="45.88213" lon="4.87287">
        <ele>296.8</ele>
        <time>2020-06-07T05:59:54.000Z</time>
      </trkpt>
      <trkpt lat="45.88213" lon="4.87282">
        <ele>296.8</ele>
        <time>2020-06-07T05:59:55.000Z</time>
      </trkpt>
      <trkpt lat="45.88213" lon="4.87277">
        <ele>296.9</ele>
        <time>2020-06-07T05:59:56.000Z</time>
      </trkpt>
      <trkpt lat="45.88212" lon="4.87273">
        <ele>296.9</ele>
        <time>2020-06-07T05:59:57.000Z</time>
      </trkpt>
      <trkpt lat="45.88212" lon="4.87268">
        <ele>297</ele>
        <time>2020-06-07T05:59:58.000Z</time>
      </trkpt>
      <trkpt lat="45.88212" lon="4.87263">
        <ele>297</ele>
        <time>2020-06-07T05:59:59.000Z</time>
      </trkpt>
      <trkpt lat="45.88211" lon="4.87257">
        <ele>297</ele>
        <time>2020-06-07T06:00:00.000Z</time>
      </trkpt>
      <trkpt lat="45.88211" lon="4.87252">
        <ele>297.1</ele>
        <time>2020-06-07T06:00:01.000Z</time>
      </trkpt>
      <trkpt lat="45.88211" lon="4.87246">
        <ele>297.1</ele>
        <time>2020-06-07T06:00:02.000Z</time>
      </trkpt>
      <trkpt lat="45.88211" lon="4.8724">
        <ele>297.1</ele>
        <time>2020-06-07T06:00:03.000Z</time>
      </trkpt>
      <trkpt lat="45.88211" lon="4.87235">
        <ele>297.2</ele>
        <time>2020-06-07T06:00:04.000Z</time>
      </trkpt>
      <trkpt lat="45.8821" lon="4.87229">
        <ele>297.2</ele>
        <time>2020-06-07T06:00:05.000Z</time>
      </trkpt>
      <trkpt lat="45.8821" lon="4.87223">
        <ele>297.3</ele>
        <time>2020-06-07T06:00:06.000Z</time>
      </trkpt>
      <trkpt lat="45.8821" lon="4.87217">
        <ele>297.3</ele>
        <time>2020-06-07T06:00:07.000Z</time>
      </trkpt>
      <trkpt lat="45.8821" lon="4.8721">
        <ele>297.3</ele>
        <time>2020-06-07T06:00:08.000Z</time>
      </trkpt>
      <trkpt lat="45.8821" lon="4.87204">
        <ele>297.4</ele>
        <time>2020-06-07T06:00:09.000Z</time>
      </trkpt>
      <trkpt lat="45.8821" lon="4.87197">
        <ele>297.5</ele>
        <time>2020-06-07T06:00:10.000Z</time>
      </trkpt>
      <trkpt lat="45.8821" lon="4.87191">
        <ele>297.5</ele>
        <time>2020-06-07T06:00:11.000Z</time>
      </trkpt>
      <trkpt lat="45.88209" lon="4.87184">
        <ele>297.6</ele>
        <time>2020-06-07T06:00:12.000Z</time>
      </trkpt>
      <trkpt lat="45.88209" lon="4.87177">
        <ele>297.6</ele>
        <time>2020-06-07T06:00:13.000Z</time>
      </trkpt>
      <trkpt lat="45.88209" lon="4.87171">
        <ele>297.7</ele>
        <time>2020-06-07T06:00:14.000Z</time>
      </trkpt>
      <trkpt lat="45.88209" lon="4.87164">
        <ele>297.7</ele>
        <time>2020-06-07T06:00:15.000Z</time>
      </trkpt>
      <trkpt lat="45.88209" lon="4.87156">
        <ele>297.8</ele>
        <time>2020-06-07T06:00:16.000Z</time>
      </trkpt>
      <trkpt lat="45.88208" lon="4.87149">
        <ele>297.9</ele>
        <time>2020-06-07T06:00:17.000Z</time>
      </trkpt>
      <trkpt lat="45.88208" lon="4.87142">
        <ele>297.9</ele>
        <time>2020-06-07T06:00:18.000Z</time>
      </trkpt>
      <trkpt lat="45.88208" lon="4.87134">
        <ele>297.9</ele>
        <time>2020-06-07T06:00:19.000Z</time>
      </trkpt>
      <trkpt lat="45.88207" lon="4.87127">
        <ele>297.9</ele>
        <time>2020-06-07T06:00:20.000Z</time>
      </trkpt>
      <trkpt lat="45.88207" lon="4.87119">
        <ele>298</ele>
        <time>2020-06-07T06:00:21.000Z</time>
      </trkpt>
      <trkpt lat="45.88206" lon="4.87112">
        <ele>298</ele>
        <time>2020-06-07T06:00:22.000Z</time>
      </trkpt>
      <trkpt lat="45.88206" lon="4.87104">
        <ele>298</ele>
        <time>2020-06-07T06:00:23.000Z</time>
      </trkpt>
      <trkpt lat="45.88205" lon="4.87098">
        <ele>298.1</ele>
        <time>2020-06-07T06:00:24.000Z</time>
      </trkpt>
      <trkpt lat="45.88205" lon="4.87091">
        <ele>298.1</ele>
        <time>2020-06-07T06:00:25.000Z</time>
      </trkpt>
      <trkpt lat="45.88204" lon="4.87084">
        <ele>298.1</ele>
        <time>2020-06-07T06:00:26.000Z</time>
      </trkpt>
      <trkpt lat="45.88204" lon="4.87078">
        <ele>298.1</ele>
        <time>2020-06-07T06:00:27.000Z</time>
      </trkpt>
      <trkpt lat="45.88203" lon="4.87072">
        <ele>298.2</ele>
        <time>2020-06-07T06:00:28.000Z</time>
      </trkpt>
      <trkpt lat="45.88204" lon="4.87067">
        <ele>298.2</ele>
        <time>2020-06-07T06:00:29.000Z</time>
      </trkpt>
      <trkpt lat="45.88204" lon="4.87061">
        <ele>298.2</ele>
        <time>2020-06-07T06:00:30.000Z</time>
      </trkpt>
      <trkpt lat="45.88204" lon="4.87056">
        <ele>298.3</ele>
        <time>2020-06-07T06:00:31.000Z</time>
      </trkpt>
      <trkpt lat="45.88204" lon="4.8705">
        <ele>298.3</ele>
        <time>2020-06-07T06:00:32.000Z</time>
      </trkpt>
      <trkpt lat="45.88203" lon="4.87044">
        <ele>298.4</ele>
        <time>2020-06-07T06:00:33.000Z</time>
      </trkpt>
      <trkpt lat="45.88203" lon="4.87038">
        <ele>298.4</ele>
        <time>2020-06-07T06:00:34.000Z</time>
      </trkpt>
      <trkpt lat="45.88203" lon="4.87031">
        <ele>298.5</ele>
        <time>2020-06-07T06:00:35.000Z</time>
      </trkpt>
      <trkpt lat="45.88202" lon="4.87024">
        <ele>298.6</ele>
        <time>2020-06-07T06:00:36.000Z</time>
      </trkpt>
      <trkpt lat="45.88202" lon="4.87018">
        <ele>298.6</ele>
        <time>2020-06-07T06:00:37.000Z</time>
      </trkpt>
      <trkpt lat="45.88201" lon="4.87011">
        <ele>298.7</ele>
        <time>2020-06-07T06:00:38.000Z</time>
      </trkpt>
      <trkpt lat="45.88201" lon="4.87004">
        <ele>298.8</ele>
        <time>2020-06-07T06:00:39.000Z</time>
      </trkpt>
      <trkpt lat="45.88201" lon="4.86996">
        <ele>298.8</ele>
        <time>2020-06-07T06:00:40.000Z</time>
      </trkpt>
      <trkpt lat="45.88201" lon="4.86989">
        <ele>298.9</ele>
        <time>2020-06-07T06:00:41.000Z</time>
      </trkpt>
      <trkpt lat="45.88201" lon="4.86982">
        <ele>299</ele>
        <time>2020-06-07T06:00:42.000Z</time>
      </trkpt>
      <trkpt lat="45.882" lon="4.86975">
        <ele>298.9</ele>
        <time>2020-06-07T06:00:43.000Z</time>
      </trkpt>
      <trkpt lat="45.88199" lon="4.86967">
        <ele>298.9</ele>
        <time>2020-06-07T06:00:44.000Z</time>
      </trkpt>
      <trkpt lat="45.88199" lon="4.8696">
        <ele>298.9</ele>
        <time>2020-06-07T06:00:45.000Z</time>
      </trkpt>
      <trkpt lat="45.88199" lon="4.86953">
        <ele>298.9</ele>
        <time>2020-06-07T06:00:46.000Z</time>
      </trkpt>
      <trkpt lat="45.88198" lon="4.86945">
        <ele>299</ele>
        <time>2020-06-07T06:00:47.000Z</time>
      </trkpt>
      <trkpt lat="45.88198" lon="4.86938">
        <ele>299</ele>
        <time>2020-06-07T06:00:48.000Z</time>
      </trkpt>
      <trkpt lat="45.88197" lon="4.8693">
        <ele>299</ele>
        <time>2020-06-07T06:00:49.000Z</time>
      </trkpt>
      <trkpt lat="45.88197" lon="4.86922">
        <ele>299</ele>
        <time>2020-06-07T06:00:50.000Z</time>
      </trkpt>
      <trkpt lat="45.88197" lon="4.86914">
        <ele>299</ele>
        <time>2020-06-07T06:00:51.000Z</time>
      </trkpt>
      <trkpt lat="45.88196" lon="4.86906">
        <ele>299.1</ele>
        <time>2020-06-07T06:00:52.000Z</time>
      </trkpt>
      <trkpt lat="45.88196" lon="4.86898">
        <ele>299.1</ele>
        <time>2020-06-07T06:00:53.000Z</time>
      </trkpt>
      <trkpt lat="45.88196" lon="4.86892">
        <ele>299.1</ele>
        <time>2020-06-07T06:00:54.000Z</time>
      </trkpt>
      <trkpt lat="45.88196" lon="4.86886">
        <ele>299.1</ele>
        <time>2020-06-07T06:00:55.000Z</time>
      </trkpt>
      <trkpt lat="45.88196" lon="4.8688">
        <ele>299.1</ele>
        <time>2020-06-07T06:00:56.000Z</time>
      </trkpt>
      <trkpt lat="45.88196" lon="4.86874">
        <ele>299.2</ele>
        <time>2020-06-07T06:00:57.000Z</time>
      </trkpt>
      <trkpt lat="45.88195" lon="4.86867">
        <ele>299.2</ele>
        <time>2020-06-07T06:00:58.000Z</time>
      </trkpt>
      <trkpt lat="45.88195" lon="4.86861">
        <ele>299.2</ele>
        <time>2020-06-07T06:00:59.000Z</time>
      </trkpt>
      <trkpt lat="45.88194" lon="4.86854">
        <ele>299.2</ele>
        <time>2020-06-07T06:01:00.000Z</time>
      </trkpt>
      <trkpt lat="45.88194" lon="4.86848">
        <ele>299.2</ele>
        <time>2020-06-07T06:01:01.000Z</time>
      </trkpt>
      <trkpt lat="45.88193" lon="4.86841">
        <ele>299.3</ele>
        <time>2020-06-07T06:01:02.000Z</time>
      </trkpt>
      <trkpt lat="45.88192" lon="4.86834">
        <ele>299.3</ele>
        <time>2020-06-07T06:01:03.000Z</time>
      </trkpt>
      <trkpt lat="45.88191" lon="4.86827">
        <ele>299.3</ele>
        <time>2020-06-07T06:01:04.000Z</time>
      </trkpt>
      <trkpt lat="45.8819" lon="4.86819">
        <ele>299.3</ele>
        <time>2020-06-07T06:01:05.000Z</time>
      </trkpt>
      <trkpt lat="45.88189" lon="4.86812">
        <ele>299.3</ele>
        <time>2020-06-07T06:01:06.000Z</time>
      </trkpt>
      <trkpt lat="45.88188" lon="4.86804">
        <ele>299.3</ele>
        <time>2020-06-07T06:01:07.000Z</time>
      </trkpt>
      <trkpt lat="45.88187" lon="4.86796">
        <ele>299.3</ele>
        <time>2020-06-07T06:01:08.000Z</time>
      </trkpt>
      <trkpt lat="45.88185" lon="4.86788">
        <ele>299.3</ele>
        <time>2020-06-07T06:01:09.000Z</time>
      </trkpt>
      <trkpt lat="45.88184" lon="4.8678">
        <ele>299.3</ele>
        <time>2020-06-07T06:01:10.000Z</time>
      </trkpt>
      <trkpt lat="45.88183" lon="4.86773">
        <ele>299.2</ele>
        <time>2020-06-07T06:01:11.000Z</time>
      </trkpt>
      <trkpt lat="45.88182" lon="4.86765">
        <ele>299.2</ele>
        <time>2020-06-07T06:01:12.000Z</time>
      </trkpt>
      <trkpt lat="45.88181" lon="4.86757">
        <ele>299.2</ele>
        <time>2020-06-07T06:01:13.000Z</time>
      </trkpt>
      <trkpt lat="45.88179" lon="4.86749">
        <ele>299.2</ele>
        <time>2020-06-07T06:01:14.000Z</time>
      </trkpt>
      <trkpt lat="45.88178" lon="4.86742">
        <ele>299.1</ele>
        <time>2020-06-07T06:01:15.000Z</time>
      </trkpt>
      <trkpt lat="45.88177" lon="4.86734">
        <ele>299.1</ele>
        <time>2020-06-07T06:01:16.000Z</time>
      </trkpt>
      <trkpt lat="45.88176" lon="4.86727">
        <ele>299.1</ele>
        <time>2020-06-07T06:01:17.000Z</time>
      </trkpt>
      <trkpt lat="45.88174" lon="4.86719">
        <ele>299.1</ele>
        <time>2020-06-07T06:01:18.000Z</time>
      </trkpt>
      <trkpt lat="45.88173" lon="4.86712">
        <ele>299.1</ele>
        <time>2020-06-07T06:01:19.000Z</time>
      </trkpt>
      <trkpt lat="45.88172" lon="4.86705">
        <ele>299.1</ele>
        <time>2020-06-07T06:01:20.000Z</time>
      </trkpt>
      <trkpt lat="45.88172" lon="4.86699">
        <ele>299.1</ele>
        <time>2020-06-07T06:01:21.000Z</time>
      </trkpt>
      <trkpt lat="45.88174" lon="4.86694">
        <ele>299.2</ele>
        <time>2020-06-07T06:01:22.000Z</time>
      </trkpt>
      <trkpt lat="45.88177" lon="4.8669">
        <ele>299.3</ele>
        <time>2020-06-07T06:01:23.000Z</time>
      </trkpt>
      <trkpt lat="45.8818" lon="4.86689">
        <ele>299.3</ele>
        <time>2020-06-07T06:01:24.000Z</time>
      </trkpt>
      <trkpt lat="45.88184" lon="4.86688">
        <ele>299.3</ele>
        <time>2020-06-07T06:01:25.000Z</time>
      </trkpt>
      <trkpt lat="45.88188" lon="4.86688">
        <ele>299.3</ele>
        <time>2020-06-07T06:01:26.000Z</time>
      </trkpt>
      <trkpt lat="45.88192" lon="4.86687">
        <ele>299.3</ele>
        <time>2020-06-07T06:01:27.000Z</time>
      </trkpt>
      <trkpt lat="45.88196" lon="4.86686">
        <ele>299.3</ele>
        <time>2020-06-07T06:01:28.000Z</time>
      </trkpt>
      <trkpt lat="45.88201" lon="4.86685">
        <ele>299.4</ele>
        <time>2020-06-07T06:01:29.000Z</time>
      </trkpt>
      <trkpt lat="45.88205" lon="4.86685">
        <ele>299.4</ele>
        <time>2020-06-07T06:01:30.000Z</time>
      </trkpt>
      <trkpt lat="45.8821" lon="4.86684">
        <ele>299.4</ele>
        <time>2020-06-07T06:01:31.000Z</time>
      </trkpt>
      <trkpt lat="45.88215" lon="4.86683">
        <ele>299.4</ele>
        <time>2020-06-07T06:01:32.000Z</time>
      </trkpt>
      <trkpt lat="45.8822" lon="4.86682">
        <ele>299.5</ele>
        <time>2020-06-07T06:01:33.000Z</time>
      </trkpt>
      <trkpt lat="45.88225" lon="4.86681">
        <ele>299.5</ele>
        <time>2020-06-07T06:01:34.000Z</time>
      </trkpt>
      <trkpt lat="45.8823" lon="4.8668">
        <ele>299.6</ele>
        <time>2020-06-07T06:01:35.000Z</time>
      </trkpt>
      <trkpt lat="45.88235" lon="4.86679">
        <ele>299.6</ele>
        <time>2020-06-07T06:01:36.000Z</time>
      </trkpt>
      <trkpt lat="45.8824" lon="4.86678">
        <ele>299.7</ele>
        <time>2020-06-07T06:01:37.000Z</time>
      </trkpt>
      <trkpt lat="45.88245" lon="4.86677">
        <ele>299.8</ele>
        <time>2020-06-07T06:01:38.000Z</time>
      </trkpt>
      <trkpt lat="45.88249" lon="4.86677">
        <ele>299.8</ele>
        <time>2020-06-07T06:01:39.000Z</time>
      </trkpt>
      <trkpt lat="45.88254" lon="4.86676">
        <ele>299.8</ele>
        <time>2020-06-07T06:01:40.000Z</time>
      </trkpt>
      <trkpt lat="45.88258" lon="4.86674">
        <ele>299.8</ele>
        <time>2020-06-07T06:01:41.000Z</time>
      </trkpt>
      <trkpt lat="45.88262" lon="4.8667">
        <ele>299.8</ele>
        <time>2020-06-07T06:01:42.000Z</time>
      </trkpt>
      <trkpt lat="45.88265" lon="4.86665">
        <ele>299.8</ele>
        <time>2020-06-07T06:01:43.000Z</time>
      </trkpt>
      <trkpt lat="45.88267" lon="4.86659">
        <ele>299.8</ele>
        <time>2020-06-07T06:01:44.000Z</time>
      </trkpt>
      <trkpt lat="45.88268" lon="4.86652">
        <ele>299.8</ele>
        <time>2020-06-07T06:01:45.000Z</time>
      </trkpt>
      <trkpt lat="45.88269" lon="4.86645">
        <ele>299.8</ele>
        <time>2020-06-07T06:01:46.000Z</time>
      </trkpt>
      <trkpt lat="45.8827" lon="4.86638">
        <ele>299.9</ele>
        <time>2020-06-07T06:01:47.000Z</time>
      </trkpt>
      <trkpt lat="45.8827" lon="4.86631">
        <ele>299.9</ele>
        <time>2020-06-07T06:01:48.000Z</time>
      </trkpt>
      <trkpt lat="45.88271" lon="4.86624">
        <ele>299.9</ele>
        <time>2020-06-07T06:01:49.000Z</time>
      </trkpt>
      <trkpt lat="45.88271" lon="4.86617">
        <ele>299.9</ele>
        <time>2020-06-07T06:01:50.000Z</time>
      </trkpt>
      <trkpt lat="45.88272" lon="4.8661">
        <ele>300</ele>
        <time>2020-06-07T06:01:51.000Z</time>
      </trkpt>
      <trkpt lat="45.88272" lon="4.86603">
        <ele>300</ele>
        <time>2020-06-07T06:01:52.000Z</time>
      </trkpt>
      <trkpt lat="45.88273" lon="4.86597">
        <ele>300</ele>
        <time>2020-06-07T06:01:53.000Z</time>
      </trkpt>
      <trkpt lat="45.88273" lon="4.8659">
        <ele>300.1</ele>
        <time>2020-06-07T06:01:54.000Z</time>
      </trkpt>
      <trkpt lat="45.88274" lon="4.86583">
        <ele>300.1</ele>
        <time>2020-06-07T06:01:55.000Z</time>
      </trkpt>
      <trkpt lat="45.88274" lon="4.86577">
        <ele>300.2</ele>
        <time>2020-06-07T06:01:56.000Z</time>
      </trkpt>
      <trkpt lat="45.88275" lon="4.8657">
        <ele>300.3</ele>
        <time>2020-06-07T06:01:57.000Z</time>
      </trkpt>
      <trkpt lat="45.88275" lon="4.86564">
        <ele>300.3</ele>
        <time>2020-06-07T06:01:58.000Z</time>
      </trkpt>
      <trkpt lat="45.88276" lon="4.86557">
        <ele>300.4</ele>
        <time>2020-06-07T06:01:59.000Z</time>
      </trkpt>
      <trkpt lat="45.88276" lon="4.86551">
        <ele>300.5</ele>
        <time>2020-06-07T06:02:00.000Z</time>
      </trkpt>
      <trkpt lat="45.88276" lon="4.86545">
        <ele>300.5</ele>
        <time>2020-06-07T06:02:01.000Z</time>
      </trkpt>
      <trkpt lat="45.88277" lon="4.86538">
        <ele>300.6</ele>
        <time>2020-06-07T06:02:02.000Z</time>
      </trkpt>
      <trkpt lat="45.88277" lon="4.86532">
        <ele>300.7</ele>
        <time>2020-06-07T06:02:03.000Z</time>
      </trkpt>
      <trkpt lat="45.88277" lon="4.86526">
        <ele>300.7</ele>
        <time>2020-06-07T06:02:04.000Z</time>
      </trkpt>
      <trkpt lat="45.88278" lon="4.8652">
        <ele>300.8</ele>
        <time>2020-06-07T06:02:05.000Z</time>
      </trkpt>
      <trkpt lat="45.88279" lon="4.86515">
        <ele>300.8</ele>
        <time>2020-06-07T06:02:06.000Z</time>
      </trkpt>
      <trkpt lat="45.8828" lon="4.86509">
        <ele>301.1</ele>
        <time>2020-06-07T06:02:07.000Z</time>
      </trkpt>
      <trkpt lat="45.88282" lon="4.86505">
        <ele>301.3</ele>
        <time>2020-06-07T06:02:08.000Z</time>
      </trkpt>
      <trkpt lat="45.88284" lon="4.86501">
        <ele>301.4</ele>
        <time>2020-06-07T06:02:09.000Z</time>
      </trkpt>
      <trkpt lat="45.88286" lon="4.86496">
        <ele>301.7</ele>
        <time>2020-06-07T06:02:10.000Z</time>
      </trkpt>
      <trkpt lat="45.88288" lon="4.86491">
        <ele>301.9</ele>
        <time>2020-06-07T06:02:11.000Z</time>
      </trkpt>
      <trkpt lat="45.88289" lon="4.86485">
        <ele>302.2</ele>
        <time>2020-06-07T06:02:12.000Z</time>
      </trkpt>
      <trkpt lat="45.88289" lon="4.8648">
        <ele>302.4</ele>
        <time>2020-06-07T06:02:13.000Z</time>
      </trkpt>
      <trkpt lat="45.8829" lon="4.86475">
        <ele>302.7</ele>
        <time>2020-06-07T06:02:14.000Z</time>
      </trkpt>
      <trkpt lat="45.8829" lon="4.86471">
        <ele>302.9</ele>
        <time>2020-06-07T06:02:15.000Z</time>
      </trkpt>
      <trkpt lat="45.8829" lon="4.86466">
        <ele>303.2</ele>
        <time>2020-06-07T06:02:16.000Z</time>
      </trkpt>
      <trkpt lat="45.8829" lon="4.86461">
        <ele>303.4</ele>
        <time>2020-06-07T06:02:17.000Z</time>
      </trkpt>
      <trkpt lat="45.88291" lon="4.86456">
        <ele>303.7</ele>
        <time>2020-06-07T06:02:18.000Z</time>
      </trkpt>
      <trkpt lat="45.88291" lon="4.86451">
        <ele>303.9</ele>
        <time>2020-06-07T06:02:19.000Z</time>
      </trkpt>
      <trkpt lat="45.88291" lon="4.86446">
        <ele>304.2</ele>
        <time>2020-06-07T06:02:20.000Z</time>
      </trkpt>
      <trkpt lat="45.88291" lon="4.86441">
        <ele>304.4</ele>
        <time>2020-06-07T06:02:21.000Z</time>
      </trkpt>
      <trkpt lat="45.88291" lon="4.86436">
        <ele>304.6</ele>
        <time>2020-06-07T06:02:22.000Z</time>
      </trkpt>
      <trkpt lat="45.88292" lon="4.86431">
        <ele>304.8</ele>
        <time>2020-06-07T06:02:23.000Z</time>
      </trkpt>
      <trkpt lat="45.88292" lon="4.86425">
        <ele>305.1</ele>
        <time>2020-06-07T06:02:24.000Z</time>
      </trkpt>
      <trkpt lat="45.88292" lon="4.8642">
        <ele>305.3</ele>
        <time>2020-06-07T06:02:25.000Z</time>
      </trkpt>
      <trkpt lat="45.88293" lon="4.86414">
        <ele>305.5</ele>
        <time>2020-06-07T06:02:26.000Z</time>
      </trkpt>
      <trkpt lat="45.88293" lon="4.86409">
        <ele>305.7</ele>
        <time>2020-06-07T06:02:27.000Z</time>
      </trkpt>
      <trkpt lat="45.88294" lon="4.86403">
        <ele>305.9</ele>
        <time>2020-06-07T06:02:28.000Z</time>
      </trkpt>
      <trkpt lat="45.88294" lon="4.86398">
        <ele>306.1</ele>
        <time>2020-06-07T06:02:29.000Z</time>
      </trkpt>
      <trkpt lat="45.88295" lon="4.86392">
        <ele>306.3</ele>
        <time>2020-06-07T06:02:30.000Z</time>
      </trkpt>
      <trkpt lat="45.88295" lon="4.86386">
        <ele>306.5</ele>
        <time>2020-06-07T06:02:31.000Z</time>
      </trkpt>
      <trkpt lat="45.88296" lon="4.86381">
        <ele>306.6</ele>
        <time>2020-06-07T06:02:32.000Z</time>
      </trkpt>
      <trkpt lat="45.88296" lon="4.86375">
        <ele>306.8</ele>
        <time>2020-06-07T06:02:33.000Z</time>
      </trkpt>
      <trkpt lat="45.88297" lon="4.86369">
        <ele>306.9</ele>
        <time>2020-06-07T06:02:34.000Z</time>
      </trkpt>
      <trkpt lat="45.88297" lon="4.86364">
        <ele>307.1</ele>
        <time>2020-06-07T06:02:35.000Z</time>
      </trkpt>
      <trkpt lat="45.88298" lon="4.86358">
        <ele>307.2</ele>
        <time>2020-06-07T06:02:36.000Z</time>
      </trkpt>
      <trkpt lat="45.88299" lon="4.86352">
        <ele>307.3</ele>
        <time>2020-06-07T06:02:37.000Z</time>
      </trkpt>
      <trkpt lat="45.883" lon="4.86347">
        <ele>307.3</ele>
        <time>2020-06-07T06:02:38.000Z</time>
      </trkpt>
      <trkpt lat="45.88301" lon="4.86341">
        <ele>307.4</ele>
        <time>2020-06-07T06:02:39.000Z</time>
      </trkpt>
      <trkpt lat="45.88302" lon="4.86335">
        <ele>307.4</ele>
        <time>2020-06-07T06:02:40.000Z</time>
      </trkpt>
      <trkpt lat="45.88302" lon="4.86329">
        <ele>307.5</ele>
        <time>2020-06-07T06:02:41.000Z</time>
      </trkpt>
      <trkpt lat="45.88303" lon="4.86323">
        <ele>307.5</ele>
        <time>2020-06-07T06:02:42.000Z</time>
      </trkpt>
      <trkpt lat="45.88304" lon="4.86317">
        <ele>307.5</ele>
        <time>2020-06-07T06:02:43.000Z</time>
      </trkpt>
      <trkpt lat="45.88305" lon="4.86311">
        <ele>307.5</ele>
        <time>2020-06-07T06:02:44.000Z</time>
      </trkpt>
      <trkpt lat="45.88306" lon="4.86305">
        <ele>307.6</ele>
        <time>2020-06-07T06:02:45.000Z</time>
      </trkpt>
      <trkpt lat="45.88307" lon="4.86298">
        <ele>307.7</ele>
        <time>2020-06-07T06:02:46.000Z</time>
      </trkpt>
      <trkpt lat="45.88307" lon="4.86292">
        <ele>307.7</ele>
        <time>2020-06-07T06:02:47.000Z</time>
      </trkpt>
      <trkpt lat="45.88308" lon="4.86286">
        <ele>307.7</ele>
        <time>2020-06-07T06:02:48.000Z</time>
      </trkpt>
      <trkpt lat="45.88309" lon="4.86279">
        <ele>307.8</ele>
        <time>2020-06-07T06:02:49.000Z</time>
      </trkpt>
      <trkpt lat="45.8831" lon="4.86273">
        <ele>307.8</ele>
        <time>2020-06-07T06:02:50.000Z</time>
      </trkpt>
      <trkpt lat="45.88311" lon="4.86267">
        <ele>307.9</ele>
        <time>2020-06-07T06:02:51.000Z</time>
      </trkpt>
      <trkpt lat="45.88312" lon="4.8626">
        <ele>307.9</ele>
        <time>2020-06-07T06:02:52.000Z</time>
      </trkpt>
      <trkpt lat="45.88314" lon="4.86254">
        <ele>307.9</ele>
        <time>2020-06-07T06:02:53.000Z</time>
      </trkpt>
      <trkpt lat="45.88315" lon="4.86247">
        <ele>308</ele>
        <time>2020-06-07T06:02:54.000Z</time>
      </trkpt>
      <trkpt lat="45.88316" lon="4.8624">
        <ele>308</ele>
        <time>2020-06-07T06:02:55.000Z</time>
      </trkpt>
      <trkpt lat="45.88318" lon="4.86234">
        <ele>308.1</ele>
        <time>2020-06-07T06:02:56.000Z</time>
      </trkpt>
      <trkpt lat="45.88319" lon="4.86227">
        <ele>308.2</ele>
        <time>2020-06-07T06:02:57.000Z</time>
      </trkpt>
      <trkpt lat="45.88321" lon="4.86221">
        <ele>308.3</ele>
        <time>2020-06-07T06:02:58.000Z</time>
      </trkpt>
      <trkpt lat="45.88322" lon="4.86215">
        <ele>308.3</ele>
        <time>2020-06-07T06:02:59.000Z</time>
      </trkpt>
      <trkpt lat="45.88323" lon="4.86209">
        <ele>308.4</ele>
        <time>2020-06-07T06:03:00.000Z</time>
      </trkpt>
      <trkpt lat="45.88324" lon="4.86202">
        <ele>308.5</ele>
        <time>2020-06-07T06:03:01.000Z</time>
      </trkpt>
      <trkpt lat="45.88325" lon="4.86196">
        <ele>308.6</ele>
        <time>2020-06-07T06:03:02.000Z</time>
      </trkpt>
      <trkpt lat="45.88327" lon="4.86189">
        <ele>308.6</ele>
        <time>2020-06-07T06:03:03.000Z</time>
      </trkpt>
      <trkpt lat="45.88328" lon="4.86183">
        <ele>308.7</ele>
        <time>2020-06-07T06:03:04.000Z</time>
      </trkpt>
      <trkpt lat="45.88329" lon="4.86176">
        <ele>308.7</ele>
        <time>2020-06-07T06:03:05.000Z</time>
      </trkpt>
      <trkpt lat="45.8833" lon="4.8617">
        <ele>308.7</ele>
        <time>2020-06-07T06:03:06.000Z</time>
      </trkpt>
      <trkpt lat="45.88331" lon="4.86164">
        <ele>308.8</ele>
        <time>2020-06-07T06:03:07.000Z</time>
      </trkpt>
      <trkpt lat="45.88332" lon="4.86157">
        <ele>308.8</ele>
        <time>2020-06-07T06:03:08.000Z</time>
      </trkpt>
      <trkpt lat="45.88333" lon="4.86151">
        <ele>308.8</ele>
        <time>2020-06-07T06:03:09.000Z</time>
      </trkpt>
      <trkpt lat="45.88334" lon="4.86145">
        <ele>308.8</ele>
        <time>2020-06-07T06:03:10.000Z</time>
      </trkpt>
      <trkpt lat="45.88334" lon="4.86138">
        <ele>308.8</ele>
        <time>2020-06-07T06:03:11.000Z</time>
      </trkpt>
      <trkpt lat="45.88334" lon="4.86132">
        <ele>308.8</ele>
        <time>2020-06-07T06:03:12.000Z</time>
      </trkpt>
      <trkpt lat="45.88334" lon="4.86125">
        <ele>308.8</ele>
        <time>2020-06-07T06:03:13.000Z</time>
      </trkpt>
      <trkpt lat="45.88334" lon="4.86118">
        <ele>308.8</ele>
        <time>2020-06-07T06:03:14.000Z</time>
      </trkpt>
      <trkpt lat="45.88334" lon="4.86111">
        <ele>308.7</ele>
        <time>2020-06-07T06:03:15.000Z</time>
      </trkpt>
      <trkpt lat="45.88333" lon="4.86105">
        <ele>308.5</ele>
        <time>2020-06-07T06:03:16.000Z</time>
      </trkpt>
      <trkpt lat="45.88332" lon="4.86097">
        <ele>308.3</ele>
        <time>2020-06-07T06:03:17.000Z</time>
      </trkpt>
      <trkpt lat="45.88331" lon="4.86089">
        <ele>308.1</ele>
        <time>2020-06-07T06:03:18.000Z</time>
      </trkpt>
      <trkpt lat="45.88329" lon="4.86081">
        <ele>307.7</ele>
        <time>2020-06-07T06:03:19.000Z</time>
      </trkpt>
      <trkpt lat="45.88327" lon="4.86072">
        <ele>307.3</ele>
        <time>2020-06-07T06:03:20.000Z</time>
      </trkpt>
      <trkpt lat="45.88326" lon="4.86062">
        <ele>306.8</ele>
        <time>2020-06-07T06:03:21.000Z</time>
      </trkpt>
      <trkpt lat="45.88324" lon="4.86052">
        <ele>306.2</ele>
        <time>2020-06-07T06:03:22.000Z</time>
      </trkpt>
      <trkpt lat="45.88323" lon="4.86042">
        <ele>305.7</ele>
        <time>2020-06-07T06:03:23.000Z</time>
      </trkpt>
      <trkpt lat="45.88321" lon="4.86033">
        <ele>305.2</ele>
        <time>2020-06-07T06:03:24.000Z</time>
      </trkpt>
      <trkpt lat="45.8832" lon="4.86025">
        <ele>304.7</ele>
        <time>2020-06-07T06:03:25.000Z</time>
      </trkpt>
      <trkpt lat="45.8832" lon="4.86019">
        <ele>304.4</ele>
        <time>2020-06-07T06:03:26.000Z</time>
      </trkpt>
      <trkpt lat="45.88321" lon="4.86014">
        <ele>303.3</ele>
        <time>2020-06-07T06:03:27.000Z</time>
      </trkpt>
      <trkpt lat="45.88324" lon="4.8601">
        <ele>303.4</ele>
        <time>2020-06-07T06:03:28.000Z</time>
      </trkpt>
      <trkpt lat="45.88327" lon="4.86008">
        <ele>303.4</ele>
        <time>2020-06-07T06:03:29.000Z</time>
      </trkpt>
      <trkpt lat="45.88331" lon="4.86007">
        <ele>303.4</ele>
        <time>2020-06-07T06:03:30.000Z</time>
      </trkpt>
      <trkpt lat="45.88334" lon="4.86007">
        <ele>303.4</ele>
        <time>2020-06-07T06:03:31.000Z</time>
      </trkpt>
      <trkpt lat="45.88339" lon="4.86008">
        <ele>303.4</ele>
        <time>2020-06-07T06:03:32.000Z</time>
      </trkpt>
      <trkpt lat="45.88343" lon="4.86008">
        <ele>303.4</ele>
        <time>2020-06-07T06:03:33.000Z</time>
      </trkpt>
      <trkpt lat="45.88347" lon="4.86009">
        <ele>303.4</ele>
        <time>2020-06-07T06:03:34.000Z</time>
      </trkpt>
      <trkpt lat="45.88352" lon="4.86009">
        <ele>303.5</ele>
        <time>2020-06-07T06:03:35.000Z</time>
      </trkpt>
      <trkpt lat="45.88357" lon="4.86008">
        <ele>303.6</ele>
        <time>2020-06-07T06:03:36.000Z</time>
      </trkpt>
      <trkpt lat="45.88362" lon="4.86008">
        <ele>303.7</ele>
        <time>2020-06-07T06:03:37.000Z</time>
      </trkpt>
      <trkpt lat="45.88366" lon="4.86008">
        <ele>303.7</ele>
        <time>2020-06-07T06:03:38.000Z</time>
      </trkpt>
      <trkpt lat="45.8837" lon="4.86008">
        <ele>303.8</ele>
        <time>2020-06-07T06:03:39.000Z</time>
      </trkpt>
      <trkpt lat="45.88375" lon="4.86007">
        <ele>303.9</ele>
        <time>2020-06-07T06:03:40.000Z</time>
      </trkpt>
      <trkpt lat="45.88379" lon="4.86006">
        <ele>304</ele>
        <time>2020-06-07T06:03:41.000Z</time>
      </trkpt>
      <trkpt lat="45.88384" lon="4.86005">
        <ele>304.2</ele>
        <time>2020-06-07T06:03:42.000Z</time>
      </trkpt>
      <trkpt lat="45.88388" lon="4.86005">
        <ele>304.3</ele>
        <time>2020-06-07T06:03:43.000Z</time>
      </trkpt>
      <trkpt lat="45.88393" lon="4.86004">
        <ele>304.4</ele>
        <time>2020-06-07T06:03:44.000Z</time>
      </trkpt>
      <trkpt lat="45.88397" lon="4.86003">
        <ele>304.5</ele>
        <time>2020-06-07T06:03:45.000Z</time>
      </trkpt>
      <trkpt lat="45.88401" lon="4.86002">
        <ele>304.6</ele>
        <time>2020-06-07T06:03:46.000Z</time>
      </trkpt>
      <trkpt lat="45.88405" lon="4.86001">
        <ele>304.7</ele>
        <time>2020-06-07T06:03:47.000Z</time>
      </trkpt>
      <trkpt lat="45.8841" lon="4.86">
        <ele>304.8</ele>
        <time>2020-06-07T06:03:48.000Z</time>
      </trkpt>
      <trkpt lat="45.88414" lon="4.85999">
        <ele>304.8</ele>
        <time>2020-06-07T06:03:49.000Z</time>
      </trkpt>
      <trkpt lat="45.88418" lon="4.85999">
        <ele>304.9</ele>
        <time>2020-06-07T06:03:50.000Z</time>
      </trkpt>
      <trkpt lat="45.88423" lon="4.85998">
        <ele>305</ele>
        <time>2020-06-07T06:03:51.000Z</time>
      </trkpt>
      <trkpt lat="45.88427" lon="4.85996">
        <ele>305</ele>
        <time>2020-06-07T06:03:52.000Z</time>
      </trkpt>
      <trkpt lat="45.88431" lon="4.85995">
        <ele>305</ele>
        <time>2020-06-07T06:03:53.000Z</time>
      </trkpt>
      <trkpt lat="45.88435" lon="4.85993">
        <ele>305.1</ele>
        <time>2020-06-07T06:03:54.000Z</time>
      </trkpt>
      <trkpt lat="45.88438" lon="4.85989">
        <ele>305.1</ele>
        <time>2020-06-07T06:03:55.000Z</time>
      </trkpt>
      <trkpt lat="45.88441" lon="4.85984">
        <ele>305.1</ele>
        <time>2020-06-07T06:03:56.000Z</time>
      </trkpt>
      <trkpt lat="45.88443" lon="4.85977">
        <ele>305</ele>
        <time>2020-06-07T06:03:57.000Z</time>
      </trkpt>
      <trkpt lat="45.88444" lon="4.8597">
        <ele>305</ele>
        <time>2020-06-07T06:03:58.000Z</time>
      </trkpt>
      <trkpt lat="45.88445" lon="4.85962">
        <ele>305</ele>
        <time>2020-06-07T06:03:59.000Z</time>
      </trkpt>
      <trkpt lat="45.88446" lon="4.85955">
        <ele>304.9</ele>
        <time>2020-06-07T06:04:00.000Z</time>
      </trkpt>
      <trkpt lat="45.88447" lon="4.85947">
        <ele>304.9</ele>
        <time>2020-06-07T06:04:01.000Z</time>
      </trkpt>
      <trkpt lat="45.88448" lon="4.85939">
        <ele>304.8</ele>
        <time>2020-06-07T06:04:02.000Z</time>
      </trkpt>
      <trkpt lat="45.88449" lon="4.85931">
        <ele>304.7</ele>
        <time>2020-06-07T06:04:03.000Z</time>
      </trkpt>
      <trkpt lat="45.8845" lon="4.85923">
        <ele>304.7</ele>
        <time>2020-06-07T06:04:04.000Z</time>
      </trkpt>
      <trkpt lat="45.88451" lon="4.85915">
        <ele>304.6</ele>
        <time>2020-06-07T06:04:05.000Z</time>
      </trkpt>
      <trkpt lat="45.88452" lon="4.85907">
        <ele>304.6</ele>
        <time>2020-06-07T06:04:06.000Z</time>
      </trkpt>
      <trkpt lat="45.88453" lon="4.85899">
        <ele>304.5</ele>
        <time>2020-06-07T06:04:07.000Z</time>
      </trkpt>
      <trkpt lat="45.88454" lon="4.85891">
        <ele>304.5</ele>
        <time>2020-06-07T06:04:08.000Z</time>
      </trkpt>
      <trkpt lat="45.88455" lon="4.85884">
        <ele>304.5</ele>
        <time>2020-06-07T06:04:09.000Z</time>
      </trkpt>
      <trkpt lat="45.88456" lon="4.85877">
        <ele>304.5</ele>
        <time>2020-06-07T06:04:10.000Z</time>
      </trkpt>
      <trkpt lat="45.88457" lon="4.85869">
        <ele>304.4</ele>
        <time>2020-06-07T06:04:11.000Z</time>
      </trkpt>
      <trkpt lat="45.88457" lon="4.85862">
        <ele>304.4</ele>
        <time>2020-06-07T06:04:12.000Z</time>
      </trkpt>
      <trkpt lat="45.88458" lon="4.85855">
        <ele>304.3</ele>
        <time>2020-06-07T06:04:13.000Z</time>
      </trkpt>
      <trkpt lat="45.88459" lon="4.85848">
        <ele>304</ele>
        <time>2020-06-07T06:04:14.000Z</time>
      </trkpt>
      <trkpt lat="45.8846" lon="4.8584">
        <ele>303.7</ele>
        <time>2020-06-07T06:04:15.000Z</time>
      </trkpt>
      <trkpt lat="45.88461" lon="4.85834">
        <ele>303.4</ele>
        <time>2020-06-07T06:04:16.000Z</time>
      </trkpt>
      <trkpt lat="45.88462" lon="4.85827">
        <ele>303.1</ele>
        <time>2020-06-07T06:04:17.000Z</time>
      </trkpt>
      <trkpt lat="45.88464" lon="4.85822">
        <ele>302.8</ele>
        <time>2020-06-07T06:04:18.000Z</time>
      </trkpt>
      <trkpt lat="45.88467" lon="4.85818">
        <ele>303.2</ele>
        <time>2020-06-07T06:04:19.000Z</time>
      </trkpt>
      <trkpt lat="45.88471" lon="4.85815">
        <ele>303.3</ele>
        <time>2020-06-07T06:04:20.000Z</time>
      </trkpt>
      <trkpt lat="45.88476" lon="4.85814">
        <ele>303.5</ele>
        <time>2020-06-07T06:04:21.000Z</time>
      </trkpt>
      <trkpt lat="45.8848" lon="4.85812">
        <ele>303.7</ele>
        <time>2020-06-07T06:04:22.000Z</time>
      </trkpt>
      <trkpt lat="45.88484" lon="4.85811">
        <ele>303.9</ele>
        <time>2020-06-07T06:04:23.000Z</time>
      </trkpt>
      <trkpt lat="45.88488" lon="4.8581">
        <ele>303.9</ele>
        <time>2020-06-07T06:04:24.000Z</time>
      </trkpt>
      <trkpt lat="45.88491" lon="4.85809">
        <ele>304.1</ele>
        <time>2020-06-07T06:04:25.000Z</time>
      </trkpt>
      <trkpt lat="45.88494" lon="4.85809">
        <ele>304.3</ele>
        <time>2020-06-07T06:04:26.000Z</time>
      </trkpt>
      <trkpt lat="45.88496" lon="4.85808">
        <ele>304.6</ele>
        <time>2020-06-07T06:04:27.000Z</time>
      </trkpt>
      <trkpt lat="45.88498" lon="4.85808">
        <ele>304.6</ele>
        <time>2020-06-07T06:04:28.000Z</time>
      </trkpt>
      <trkpt lat="45.885" lon="4.85807">
        <ele>304.6</ele>
        <time>2020-06-07T06:04:29.000Z</time>
      </trkpt>
      <trkpt lat="45.88501" lon="4.85806">
        <ele>304.6</ele>
        <time>2020-06-07T06:04:30.000Z</time>
      </trkpt>
      <trkpt lat="45.88502" lon="4.85805">
        <ele>304.6</ele>
        <time>2020-06-07T06:04:31.000Z</time>
      </trkpt>
      <trkpt lat="45.88503" lon="4.85803">
        <ele>304.6</ele>
        <time>2020-06-07T06:04:32.000Z</time>
      </trkpt>
      <trkpt lat="45.88505" lon="4.85801">
        <ele>304.6</ele>
        <time>2020-06-07T06:04:33.000Z</time>
      </trkpt>
      <trkpt lat="45.88507" lon="4.858">
        <ele>304.5</ele>
        <time>2020-06-07T06:04:34.000Z</time>
      </trkpt>
      <trkpt lat="45.88509" lon="4.858">
        <ele>304.5</ele>
        <time>2020-06-07T06:04:35.000Z</time>
      </trkpt>
      <trkpt lat="45.88511" lon="4.85801">
        <ele>304.5</ele>
        <time>2020-06-07T06:04:36.000Z</time>
      </trkpt>
      <trkpt lat="45.88514" lon="4.85803">
        <ele>304.4</ele>
        <time>2020-06-07T06:04:37.000Z</time>
      </trkpt>
      <trkpt lat="45.88516" lon="4.85804">
        <ele>304.4</ele>
        <time>2020-06-07T06:04:38.000Z</time>
      </trkpt>
      <trkpt lat="45.88518" lon="4.85805">
        <ele>304.3</ele>
        <time>2020-06-07T06:04:39.000Z</time>
      </trkpt>
      <trkpt lat="45.8852" lon="4.85804">
        <ele>304.3</ele>
        <time>2020-06-07T06:04:40.000Z</time>
      </trkpt>
      <trkpt lat="45.88522" lon="4.85802">
        <ele>304.2</ele>
        <time>2020-06-07T06:04:41.000Z</time>
      </trkpt>
      <trkpt lat="45.88524" lon="4.85799">
        <ele>304.1</ele>
        <time>2020-06-07T06:04:42.000Z</time>
      </trkpt>
      <trkpt lat="45.88525" lon="4.85795">
        <ele>303.9</ele>
        <time>2020-06-07T06:04:43.000Z</time>
      </trkpt>
      <trkpt lat="45.88526" lon="4.85789">
        <ele>303.7</ele>
        <time>2020-06-07T06:04:44.000Z</time>
      </trkpt>
      <trkpt lat="45.88527" lon="4.85784">
        <ele>303.5</ele>
        <time>2020-06-07T06:04:45.000Z</time>
      </trkpt>
      <trkpt lat="45.88528" lon="4.85778">
        <ele>303.3</ele>
        <time>2020-06-07T06:04:46.000Z</time>
      </trkpt>
      <trkpt lat="45.88528" lon="4.85772">
        <ele>303.1</ele>
        <time>2020-06-07T06:04:47.000Z</time>
      </trkpt>
      <trkpt lat="45.88529" lon="4.85767">
        <ele>302.9</ele>
        <time>2020-06-07T06:04:48.000Z</time>
      </trkpt>
      <trkpt lat="45.8853" lon="4.85761">
        <ele>302.7</ele>
        <time>2020-06-07T06:04:49.000Z</time>
      </trkpt>
      <trkpt lat="45.88531" lon="4.85755">
        <ele>302.5</ele>
        <time>2020-06-07T06:04:50.000Z</time>
      </trkpt>
      <trkpt lat="45.88532" lon="4.85749">
        <ele>302.2</ele>
        <time>2020-06-07T06:04:51.000Z</time>
      </trkpt>
      <trkpt lat="45.88533" lon="4.85742">
        <ele>301.9</ele>
        <time>2020-06-07T06:04:52.000Z</time>
      </trkpt>
      <trkpt lat="45.88535" lon="4.85734">
        <ele>301.5</ele>
        <time>2020-06-07T06:04:53.000Z</time>
      </trkpt>
      <trkpt lat="45.88537" lon="4.85726">
        <ele>301.1</ele>
        <time>2020-06-07T06:04:54.000Z</time>
      </trkpt>
      <trkpt lat="45.88539" lon="4.85718">
        <ele>300.7</ele>
        <time>2020-06-07T06:04:55.000Z</time>
      </trkpt>
      <trkpt lat="45.8854" lon="4.8571">
        <ele>300.3</ele>
        <time>2020-06-07T06:04:56.000Z</time>
      </trkpt>
      <trkpt lat="45.88542" lon="4.85701">
        <ele>299.8</ele>
        <time>2020-06-07T06:04:57.000Z</time>
      </trkpt>
      <trkpt lat="45.88544" lon="4.85692">
        <ele>299.3</ele>
        <time>2020-06-07T06:04:58.000Z</time>
      </trkpt>
      <trkpt lat="45.88545" lon="4.85682">
        <ele>298.8</ele>
        <time>2020-06-07T06:04:59.000Z</time>
      </trkpt>
      <trkpt lat="45.88547" lon="4.85674">
        <ele>298.3</ele>
        <time>2020-06-07T06:05:00.000Z</time>
      </trkpt>
      <trkpt lat="45.88549" lon="4.85665">
        <ele>297.9</ele>
        <time>2020-06-07T06:05:01.000Z</time>
      </trkpt>
      <trkpt lat="45.8855" lon="4.85657">
        <ele>297.5</ele>
        <time>2020-06-07T06:05:02.000Z</time>
      </trkpt>
      <trkpt lat="45.88552" lon="4.85649">
        <ele>297.1</ele>
        <time>2020-06-07T06:05:03.000Z</time>
      </trkpt>
      <trkpt lat="45.88555" lon="4.85641">
        <ele>296.6</ele>
        <time>2020-06-07T06:05:04.000Z</time>
      </trkpt>
      <trkpt lat="45.88556" lon="4.85635">
        <ele>296.2</ele>
        <time>2020-06-07T06:05:05.000Z</time>
      </trkpt>
      <trkpt lat="45.88558" lon="4.8563">
        <ele>295.9</ele>
        <time>2020-06-07T06:05:06.000Z</time>
      </trkpt>
      <trkpt lat="45.88559" lon="4.85625">
        <ele>295.5</ele>
        <time>2020-06-07T06:05:07.000Z</time>
      </trkpt>
      <trkpt lat="45.88559" lon="4.8562">
        <ele>295.2</ele>
        <time>2020-06-07T06:05:08.000Z</time>
      </trkpt>
      <trkpt lat="45.88559" lon="4.85614">
        <ele>294.8</ele>
        <time>2020-06-07T06:05:09.000Z</time>
      </trkpt>
      <trkpt lat="45.88559" lon="4.85609">
        <ele>294.5</ele>
        <time>2020-06-07T06:05:10.000Z</time>
      </trkpt>
      <trkpt lat="45.88559" lon="4.85603">
        <ele>294.1</ele>
        <time>2020-06-07T06:05:11.000Z</time>
      </trkpt>
      <trkpt lat="45.88558" lon="4.85596">
        <ele>293.5</ele>
        <time>2020-06-07T06:05:12.000Z</time>
      </trkpt>
      <trkpt lat="45.88557" lon="4.8559">
        <ele>290.7</ele>
        <time>2020-06-07T06:05:13.000Z</time>
      </trkpt>
      <trkpt lat="45.88556" lon="4.85584">
        <ele>290.2</ele>
        <time>2020-06-07T06:05:14.000Z</time>
      </trkpt>
      <trkpt lat="45.88554" lon="4.85578">
        <ele>289.7</ele>
        <time>2020-06-07T06:05:15.000Z</time>
      </trkpt>
      <trkpt lat="45.88552" lon="4.85572">
        <ele>289.1</ele>
        <time>2020-06-07T06:05:16.000Z</time>
      </trkpt>
      <trkpt lat="45.8855" lon="4.85567">
        <ele>288.6</ele>
        <time>2020-06-07T06:05:17.000Z</time>
      </trkpt>
      <trkpt lat="45.88547" lon="4.85563">
        <ele>288.1</ele>
        <time>2020-06-07T06:05:18.000Z</time>
      </trkpt>
      <trkpt lat="45.88543" lon="4.85558">
        <ele>287.4</ele>
        <time>2020-06-07T06:05:19.000Z</time>
      </trkpt>
      <trkpt lat="45.88539" lon="4.85552">
        <ele>286.5</ele>
        <time>2020-06-07T06:05:20.000Z</time>
      </trkpt>
      <trkpt lat="45.88535" lon="4.85544">
        <ele>285.5</ele>
        <time>2020-06-07T06:05:21.000Z</time>
      </trkpt>
      <trkpt lat="45.88531" lon="4.85537">
        <ele>284.6</ele>
        <time>2020-06-07T06:05:22.000Z</time>
      </trkpt>
      <trkpt lat="45.88527" lon="4.85531">
        <ele>283.7</ele>
        <time>2020-06-07T06:05:23.000Z</time>
      </trkpt>
      <trkpt lat="45.88522" lon="4.85523">
        <ele>282.5</ele>
        <time>2020-06-07T06:05:24.000Z</time>
      </trkpt>
      <trkpt lat="45.88517" lon="4.85513">
        <ele>281.4</ele>
        <time>2020-06-07T06:05:25.000Z</time>
      </trkpt>
      <trkpt lat="45.88513" lon="4.85504">
        <ele>280.2</ele>
        <time>2020-06-07T06:05:26.000Z</time>
      </trkpt>
      <trkpt lat="45.88508" lon="4.85495">
        <ele>278.9</ele>
        <time>2020-06-07T06:05:27.000Z</time>
      </trkpt>
      <trkpt lat="45.88503" lon="4.85484">
        <ele>277.1</ele>
        <time>2020-06-07T06:05:28.000Z</time>
      </trkpt>
      <trkpt lat="45.88498" lon="4.85475">
        <ele>276.3</ele>
        <time>2020-06-07T06:05:29.000Z</time>
      </trkpt>
      <trkpt lat="45.88492" lon="4.85465">
        <ele>275.5</ele>
        <time>2020-06-07T06:05:30.000Z</time>
      </trkpt>
      <trkpt lat="45.88487" lon="4.85456">
        <ele>274.8</ele>
        <time>2020-06-07T06:05:31.000Z</time>
      </trkpt>
      <trkpt lat="45.88482" lon="4.85446">
        <ele>272.9</ele>
        <time>2020-06-07T06:05:32.000Z</time>
      </trkpt>
      <trkpt lat="45.88477" lon="4.85436">
        <ele>271.8</ele>
        <time>2020-06-07T06:05:33.000Z</time>
      </trkpt>
      <trkpt lat="45.88473" lon="4.85428">
        <ele>270.8</ele>
        <time>2020-06-07T06:05:34.000Z</time>
      </trkpt>
      <trkpt lat="45.88467" lon="4.85418">
        <ele>269.6</ele>
        <time>2020-06-07T06:05:35.000Z</time>
      </trkpt>
      <trkpt lat="45.88463" lon="4.8541">
        <ele>268.5</ele>
        <time>2020-06-07T06:05:36.000Z</time>
      </trkpt>
      <trkpt lat="45.88458" lon="4.85399">
        <ele>267.1</ele>
        <time>2020-06-07T06:05:37.000Z</time>
      </trkpt>
      <trkpt lat="45.88452" lon="4.85388">
        <ele>265.8</ele>
        <time>2020-06-07T06:05:38.000Z</time>
      </trkpt>
      <trkpt lat="45.88446" lon="4.85377">
        <ele>264.4</ele>
        <time>2020-06-07T06:05:39.000Z</time>
      </trkpt>
      <trkpt lat="45.88441" lon="4.85367">
        <ele>262.7</ele>
        <time>2020-06-07T06:05:40.000Z</time>
      </trkpt>
      <trkpt lat="45.88435" lon="4.85359">
        <ele>261.7</ele>
        <time>2020-06-07T06:05:41.000Z</time>
      </trkpt>
      <trkpt lat="45.8843" lon="4.85352">
        <ele>260.8</ele>
        <time>2020-06-07T06:05:42.000Z</time>
      </trkpt>
      <trkpt lat="45.88425" lon="4.85348">
        <ele>260.1</ele>
        <time>2020-06-07T06:05:43.000Z</time>
      </trkpt>
      <trkpt lat="45.88421" lon="4.85347">
        <ele>259.6</ele>
        <time>2020-06-07T06:05:44.000Z</time>
      </trkpt>
      <trkpt lat="45.88418" lon="4.85347">
        <ele>259.2</ele>
        <time>2020-06-07T06:05:45.000Z</time>
      </trkpt>
      <trkpt lat="45.88415" lon="4.85349">
        <ele>258.7</ele>
        <time>2020-06-07T06:05:46.000Z</time>
      </trkpt>
      <trkpt lat="45.88412" lon="4.85353">
        <ele>258.1</ele>
        <time>2020-06-07T06:05:47.000Z</time>
      </trkpt>
      <trkpt lat="45.88408" lon="4.85358">
        <ele>257.3</ele>
        <time>2020-06-07T06:05:48.000Z</time>
      </trkpt>
      <trkpt lat="45.88404" lon="4.85364">
        <ele>256.4</ele>
        <time>2020-06-07T06:05:49.000Z</time>
      </trkpt>
      <trkpt lat="45.884" lon="4.8537">
        <ele>255.5</ele>
        <time>2020-06-07T06:05:50.000Z</time>
      </trkpt>
      <trkpt lat="45.88395" lon="4.85377">
        <ele>254.6</ele>
        <time>2020-06-07T06:05:51.000Z</time>
      </trkpt>
      <trkpt lat="45.88391" lon="4.85385">
        <ele>253.7</ele>
        <time>2020-06-07T06:05:52.000Z</time>
      </trkpt>
      <trkpt lat="45.88387" lon="4.85393">
        <ele>252.7</ele>
        <time>2020-06-07T06:05:53.000Z</time>
      </trkpt>
      <trkpt lat="45.88384" lon="4.85401">
        <ele>252</ele>
        <time>2020-06-07T06:05:54.000Z</time>
      </trkpt>
      <trkpt lat="45.88381" lon="4.85407">
        <ele>251.3</ele>
        <time>2020-06-07T06:05:55.000Z</time>
      </trkpt>
      <trkpt lat="45.88377" lon="4.85413">
        <ele>250.7</ele>
        <time>2020-06-07T06:05:56.000Z</time>
      </trkpt>
      <trkpt lat="45.88373" lon="4.85417">
        <ele>250</ele>
        <time>2020-06-07T06:05:57.000Z</time>
      </trkpt>
      <trkpt lat="45.88369" lon="4.85419">
        <ele>249.5</ele>
        <time>2020-06-07T06:05:58.000Z</time>
      </trkpt>
      <trkpt lat="45.88364" lon="4.85419">
        <ele>248.8</ele>
        <time>2020-06-07T06:05:59.000Z</time>
      </trkpt>
      <trkpt lat="45.88359" lon="4.85418">
        <ele>248</ele>
        <time>2020-06-07T06:06:00.000Z</time>
      </trkpt>
      <trkpt lat="45.88353" lon="4.85414">
        <ele>247.1</ele>
        <time>2020-06-07T06:06:01.000Z</time>
      </trkpt>
      <trkpt lat="45.88347" lon="4.8541">
        <ele>245.7</ele>
        <time>2020-06-07T06:06:02.000Z</time>
      </trkpt>
      <trkpt lat="45.88341" lon="4.85406">
        <ele>244.8</ele>
        <time>2020-06-07T06:06:03.000Z</time>
      </trkpt>
      <trkpt lat="45.88333" lon="4.85401">
        <ele>243.6</ele>
        <time>2020-06-07T06:06:04.000Z</time>
      </trkpt>
      <trkpt lat="45.88325" lon="4.85396">
        <ele>242.6</ele>
        <time>2020-06-07T06:06:05.000Z</time>
      </trkpt>
      <trkpt lat="45.88318" lon="4.85391">
        <ele>241.6</ele>
        <time>2020-06-07T06:06:06.000Z</time>
      </trkpt>
      <trkpt lat="45.88312" lon="4.85387">
        <ele>240.8</ele>
        <time>2020-06-07T06:06:07.000Z</time>
      </trkpt>
      <trkpt lat="45.88306" lon="4.85381">
        <ele>239.9</ele>
        <time>2020-06-07T06:06:08.000Z</time>
      </trkpt>
      <trkpt lat="45.88301" lon="4.85375">
        <ele>239.1</ele>
        <time>2020-06-07T06:06:09.000Z</time>
      </trkpt>
      <trkpt lat="45.88295" lon="4.85368">
        <ele>238.1</ele>
        <time>2020-06-07T06:06:10.000Z</time>
      </trkpt>
      <trkpt lat="45.88292" lon="4.85361">
        <ele>237.2</ele>
        <time>2020-06-07T06:06:11.000Z</time>
      </trkpt>
      <trkpt lat="45.88289" lon="4.85352">
        <ele>236.4</ele>
        <time>2020-06-07T06:06:12.000Z</time>
      </trkpt>
      <trkpt lat="45.88288" lon="4.85343">
        <ele>235.4</ele>
        <time>2020-06-07T06:06:13.000Z</time>
      </trkpt>
      <trkpt lat="45.88288" lon="4.8533">
        <ele>233.8</ele>
        <time>2020-06-07T06:06:14.000Z</time>
      </trkpt>
      <trkpt lat="45.8829" lon="4.85316">
        <ele>232.4</ele>
        <time>2020-06-07T06:06:15.000Z</time>
      </trkpt>
      <trkpt lat="45.88292" lon="4.85302">
        <ele>230.9</ele>
        <time>2020-06-07T06:06:16.000Z</time>
      </trkpt>
      <trkpt lat="45.88295" lon="4.85287">
        <ele>229.3</ele>
        <time>2020-06-07T06:06:17.000Z</time>
      </trkpt>
      <trkpt lat="45.88297" lon="4.85271">
        <ele>227.8</ele>
        <time>2020-06-07T06:06:18.000Z</time>
      </trkpt>
      <trkpt lat="45.88304" lon="4.85253">
        <ele>225.9</ele>
        <time>2020-06-07T06:06:19.000Z</time>
      </trkpt>
      <trkpt lat="45.88309" lon="4.85237">
        <ele>224.3</ele>
        <time>2020-06-07T06:06:20.000Z</time>
      </trkpt>
      <trkpt lat="45.88315" lon="4.8522">
        <ele>222.4</ele>
        <time>2020-06-07T06:06:21.000Z</time>
      </trkpt>
      <trkpt lat="45.8832" lon="4.85203">
        <ele>220.5</ele>
        <time>2020-06-07T06:06:22.000Z</time>
      </trkpt>
      <trkpt lat="45.88325" lon="4.85187">
        <ele>218.6</ele>
        <time>2020-06-07T06:06:23.000Z</time>
      </trkpt>
      <trkpt lat="45.88329" lon="4.85174">
        <ele>216.9</ele>
        <time>2020-06-07T06:06:24.000Z</time>
      </trkpt>
      <trkpt lat="45.88332" lon="4.85164">
        <ele>215.7</ele>
        <time>2020-06-07T06:06:25.000Z</time>
      </trkpt>
      <trkpt lat="45.88334" lon="4.85156">
        <ele>214.7</ele>
        <time>2020-06-07T06:06:26.000Z</time>
      </trkpt>
      <trkpt lat="45.88335" lon="4.85151">
        <ele>214.1</ele>
        <time>2020-06-07T06:06:27.000Z</time>
      </trkpt>
      <trkpt lat="45.88336" lon="4.85147">
        <ele>212.4</ele>
        <time>2020-06-07T06:06:28.000Z</time>
      </trkpt>
      <trkpt lat="45.88336" lon="4.85144">
        <ele>212.3</ele>
        <time>2020-06-07T06:06:29.000Z</time>
      </trkpt>
      <trkpt lat="45.88336" lon="4.85141">
        <ele>212.3</ele>
        <time>2020-06-07T06:06:30.000Z</time>
      </trkpt>
      <trkpt lat="45.88334" lon="4.85141">
        <ele>212.2</ele>
        <time>2020-06-07T06:06:31.000Z</time>
      </trkpt>
      <trkpt lat="45.88332" lon="4.85142">
        <ele>212.1</ele>
        <time>2020-06-07T06:06:32.000Z</time>
      </trkpt>
      <trkpt lat="45.88331" lon="4.85144">
        <ele>212.1</ele>
        <time>2020-06-07T06:06:33.000Z</time>
      </trkpt>
      <trkpt lat="45.88329" lon="4.85147">
        <ele>212</ele>
        <time>2020-06-07T06:06:34.000Z</time>
      </trkpt>
      <trkpt lat="45.88326" lon="4.85152">
        <ele>211.9</ele>
        <time>2020-06-07T06:06:35.000Z</time>
      </trkpt>
      <trkpt lat="45.88323" lon="4.85156">
        <ele>211.9</ele>
        <time>2020-06-07T06:06:36.000Z</time>
      </trkpt>
      <trkpt lat="45.88321" lon="4.85161">
        <ele>211.8</ele>
        <time>2020-06-07T06:06:37.000Z</time>
      </trkpt>
      <trkpt lat="45.88318" lon="4.85166">
        <ele>211.7</ele>
        <time>2020-06-07T06:06:38.000Z</time>
      </trkpt>
      <trkpt lat="45.88315" lon="4.85171">
        <ele>211.7</ele>
        <time>2020-06-07T06:06:39.000Z</time>
      </trkpt>
      <trkpt lat="45.88313" lon="4.85176">
        <ele>211.6</ele>
        <time>2020-06-07T06:06:40.000Z</time>
      </trkpt>
      <trkpt lat="45.8831" lon="4.85182">
        <ele>211.5</ele>
        <time>2020-06-07T06:06:41.000Z</time>
      </trkpt>
      <trkpt lat="45.88307" lon="4.85187">
        <ele>211.5</ele>
        <time>2020-06-07T06:06:42.000Z</time>
      </trkpt>
      <trkpt lat="45.88305" lon="4.85192">
        <ele>211.4</ele>
        <time>2020-06-07T06:06:43.000Z</time>
      </trkpt>
      <trkpt lat="45.88302" lon="4.85196">
        <ele>211.4</ele>
        <time>2020-06-07T06:06:44.000Z</time>
      </trkpt>
      <trkpt lat="45.88299" lon="4.852">
        <ele>211.3</ele>
        <time>2020-06-07T06:06:45.000Z</time>
      </trkpt>
      <trkpt lat="45.88297" lon="4.85204">
        <ele>211.2</ele>
        <time>2020-06-07T06:06:46.000Z</time>
      </trkpt>
      <trkpt lat="45.88294" lon="4.85207">
        <ele>211.2</ele>
        <time>2020-06-07T06:06:47.000Z</time>
      </trkpt>
      <trkpt lat="45.88292" lon="4.8521">
        <ele>211.1</ele>
        <time>2020-06-07T06:06:48.000Z</time>
      </trkpt>
      <trkpt lat="45.88289" lon="4.85212">
        <ele>210.9</ele>
        <time>2020-06-07T06:06:49.000Z</time>
      </trkpt>
      <trkpt lat="45.88285" lon="4.85214">
        <ele>210.8</ele>
        <time>2020-06-07T06:06:50.000Z</time>
      </trkpt>
      <trkpt lat="45.88282" lon="4.85216">
        <ele>210.6</ele>
        <time>2020-06-07T06:06:51.000Z</time>
      </trkpt>
      <trkpt lat="45.88279" lon="4.85218">
        <ele>210.4</ele>
        <time>2020-06-07T06:06:52.000Z</time>
      </trkpt>
      <trkpt lat="45.88275" lon="4.85218">
        <ele>210.2</ele>
        <time>2020-06-07T06:06:53.000Z</time>
      </trkpt>
      <trkpt lat="45.88271" lon="4.85219">
        <ele>209.9</ele>
        <time>2020-06-07T06:06:54.000Z</time>
      </trkpt>
      <trkpt lat="45.88266" lon="4.85219">
        <ele>209.6</ele>
        <time>2020-06-07T06:06:55.000Z</time>
      </trkpt>
      <trkpt lat="45.8826" lon="4.85219">
        <ele>209.2</ele>
        <time>2020-06-07T06:06:56.000Z</time>
      </trkpt>
      <trkpt lat="45.88255" lon="4.85218">
        <ele>208.8</ele>
        <time>2020-06-07T06:06:57.000Z</time>
      </trkpt>
      <trkpt lat="45.88249" lon="4.85217">
        <ele>208.4</ele>
        <time>2020-06-07T06:06:58.000Z</time>
      </trkpt>
      <trkpt lat="45.88242" lon="4.85215">
        <ele>208</ele>
        <time>2020-06-07T06:06:59.000Z</time>
      </trkpt>
      <trkpt lat="45.88236" lon="4.85213">
        <ele>207.6</ele>
        <time>2020-06-07T06:07:00.000Z</time>
      </trkpt>
      <trkpt lat="45.88229" lon="4.85212">
        <ele>207.2</ele>
        <time>2020-06-07T06:07:01.000Z</time>
      </trkpt>
      <trkpt lat="45.88223" lon="4.85209">
        <ele>206.7</ele>
        <time>2020-06-07T06:07:02.000Z</time>
      </trkpt>
      <trkpt lat="45.88216" lon="4.85207">
        <ele>206.4</ele>
        <time>2020-06-07T06:07:03.000Z</time>
      </trkpt>
      <trkpt lat="45.88209" lon="4.85206">
        <ele>206.1</ele>
        <time>2020-06-07T06:07:04.000Z</time>
      </trkpt>
      <trkpt lat="45.88203" lon="4.85204">
        <ele>205.8</ele>
        <time>2020-06-07T06:07:05.000Z</time>
      </trkpt>
      <trkpt lat="45.88196" lon="4.85202">
        <ele>205.5</ele>
        <time>2020-06-07T06:07:06.000Z</time>
      </trkpt>
      <trkpt lat="45.8819" lon="4.852">
        <ele>205.2</ele>
        <time>2020-06-07T06:07:07.000Z</time>
      </trkpt>
      <trkpt lat="45.88183" lon="4.85198">
        <ele>205</ele>
        <time>2020-06-07T06:07:08.000Z</time>
      </trkpt>
      <trkpt lat="45.88176" lon="4.85196">
        <ele>204.6</ele>
        <time>2020-06-07T06:07:09.000Z</time>
      </trkpt>
      <trkpt lat="45.88169" lon="4.85194">
        <ele>204.4</ele>
        <time>2020-06-07T06:07:10.000Z</time>
      </trkpt>
      <trkpt lat="45.88162" lon="4.85194">
        <ele>204.1</ele>
        <time>2020-06-07T06:07:11.000Z</time>
      </trkpt>
      <trkpt lat="45.88156" lon="4.85193">
        <ele>203.9</ele>
        <time>2020-06-07T06:07:12.000Z</time>
      </trkpt>
      <trkpt lat="45.8815" lon="4.8519">
        <ele>203.7</ele>
        <time>2020-06-07T06:07:13.000Z</time>
      </trkpt>
      <trkpt lat="45.88143" lon="4.85184">
        <ele>203.5</ele>
        <time>2020-06-07T06:07:14.000Z</time>
      </trkpt>
      <trkpt lat="45.88137" lon="4.85177">
        <ele>203.3</ele>
        <time>2020-06-07T06:07:15.000Z</time>
      </trkpt>
      <trkpt lat="45.88132" lon="4.8517">
        <ele>203.1</ele>
        <time>2020-06-07T06:07:16.000Z</time>
      </trkpt>
      <trkpt lat="45.88128" lon="4.85161">
        <ele>203</ele>
        <time>2020-06-07T06:07:17.000Z</time>
      </trkpt>
      <trkpt lat="45.88124" lon="4.85153">
        <ele>202.8</ele>
        <time>2020-06-07T06:07:18.000Z</time>
      </trkpt>
      <trkpt lat="45.8812" lon="4.85146">
        <ele>202.6</ele>
        <time>2020-06-07T06:07:19.000Z</time>
      </trkpt>
      <trkpt lat="45.88117" lon="4.8514">
        <ele>202.5</ele>
        <time>2020-06-07T06:07:20.000Z</time>
      </trkpt>
      <trkpt lat="45.88113" lon="4.85134">
        <ele>202.4</ele>
        <time>2020-06-07T06:07:21.000Z</time>
      </trkpt>
      <trkpt lat="45.8811" lon="4.85128">
        <ele>202.3</ele>
        <time>2020-06-07T06:07:22.000Z</time>
      </trkpt>
      <trkpt lat="45.88107" lon="4.85123">
        <ele>202.2</ele>
        <time>2020-06-07T06:07:23.000Z</time>
      </trkpt>
      <trkpt lat="45.88104" lon="4.85117">
        <ele>202.1</ele>
        <time>2020-06-07T06:07:24.000Z</time>
      </trkpt>
      <trkpt lat="45.881" lon="4.85111">
        <ele>202</ele>
        <time>2020-06-07T06:07:25.000Z</time>
      </trkpt>
      <trkpt lat="45.88097" lon="4.85106">
        <ele>201.8</ele>
        <time>2020-06-07T06:07:26.000Z</time>
      </trkpt>
      <trkpt lat="45.88094" lon="4.851">
        <ele>201.8</ele>
        <time>2020-06-07T06:07:27.000Z</time>
      </trkpt>
      <trkpt lat="45.88091" lon="4.85094">
        <ele>201.8</ele>
        <time>2020-06-07T06:07:28.000Z</time>
      </trkpt>
      <trkpt lat="45.88089" lon="4.85088">
        <ele>201.7</ele>
        <time>2020-06-07T06:07:29.000Z</time>
      </trkpt>
      <trkpt lat="45.88086" lon="4.85082">
        <ele>201.7</ele>
        <time>2020-06-07T06:07:30.000Z</time>
      </trkpt>
      <trkpt lat="45.88082" lon="4.85076">
        <ele>201.6</ele>
        <time>2020-06-07T06:07:31.000Z</time>
      </trkpt>
      <trkpt lat="45.88079" lon="4.8507">
        <ele>201.5</ele>
        <time>2020-06-07T06:07:32.000Z</time>
      </trkpt>
      <trkpt lat="45.88076" lon="4.85063">
        <ele>201.4</ele>
        <time>2020-06-07T06:07:33.000Z</time>
      </trkpt>
      <trkpt lat="45.88072" lon="4.85056">
        <ele>201.3</ele>
        <time>2020-06-07T06:07:34.000Z</time>
      </trkpt>
      <trkpt lat="45.8807" lon="4.85049">
        <ele>201.2</ele>
        <time>2020-06-07T06:07:35.000Z</time>
      </trkpt>
      <trkpt lat="45.88067" lon="4.85042">
        <ele>201.1</ele>
        <time>2020-06-07T06:07:36.000Z</time>
      </trkpt>
      <trkpt lat="45.88064" lon="4.85035">
        <ele>200.9</ele>
        <time>2020-06-07T06:07:37.000Z</time>
      </trkpt>
      <trkpt lat="45.88062" lon="4.85028">
        <ele>200.7</ele>
        <time>2020-06-07T06:07:38.000Z</time>
      </trkpt>
      <trkpt lat="45.88059" lon="4.85021">
        <ele>200.5</ele>
        <time>2020-06-07T06:07:39.000Z</time>
      </trkpt>
      <trkpt lat="45.88056" lon="4.85014">
        <ele>200.3</ele>
        <time>2020-06-07T06:07:40.000Z</time>
      </trkpt>
      <trkpt lat="45.88051" lon="4.85009">
        <ele>200.1</ele>
        <time>2020-06-07T06:07:41.000Z</time>
      </trkpt>
      <trkpt lat="45.88046" lon="4.85004">
        <ele>200</ele>
        <time>2020-06-07T06:07:42.000Z</time>
      </trkpt>
      <trkpt lat="45.88044" lon="4.84999">
        <ele>199.8</ele>
        <time>2020-06-07T06:07:43.000Z</time>
      </trkpt>
      <trkpt lat="45.88041" lon="4.84993">
        <ele>199.7</ele>
        <time>2020-06-07T06:07:44.000Z</time>
      </trkpt>
      <trkpt lat="45.88038" lon="4.84987">
        <ele>199.5</ele>
        <time>2020-06-07T06:07:45.000Z</time>
      </trkpt>
      <trkpt lat="45.88036" lon="4.8498">
        <ele>199.3</ele>
        <time>2020-06-07T06:07:46.000Z</time>
      </trkpt>
      <trkpt lat="45.88033" lon="4.84973">
        <ele>199.2</ele>
        <time>2020-06-07T06:07:47.000Z</time>
      </trkpt>
      <trkpt lat="45.8803" lon="4.84967">
        <ele>199</ele>
        <time>2020-06-07T06:07:48.000Z</time>
      </trkpt>
      <trkpt lat="45.88027" lon="4.8496">
        <ele>198.9</ele>
        <time>2020-06-07T06:07:49.000Z</time>
      </trkpt>
      <trkpt lat="45.88022" lon="4.84955">
        <ele>198.8</ele>
        <time>2020-06-07T06:07:50.000Z</time>
      </trkpt>
      <trkpt lat="45.88019" lon="4.84949">
        <ele>198.6</ele>
        <time>2020-06-07T06:07:51.000Z</time>
      </trkpt>
      <trkpt lat="45.88016" lon="4.84943">
        <ele>198.6</ele>
        <time>2020-06-07T06:07:52.000Z</time>
      </trkpt>
      <trkpt lat="45.88013" lon="4.84939">
        <ele>198.5</ele>
        <time>2020-06-07T06:07:53.000Z</time>
      </trkpt>
      <trkpt lat="45.88009" lon="4.84935">
        <ele>198.4</ele>
        <time>2020-06-07T06:07:54.000Z</time>
      </trkpt>
      <trkpt lat="45.88006" lon="4.84931">
        <ele>198.3</ele>
        <time>2020-06-07T06:07:55.000Z</time>
      </trkpt>
      <trkpt lat="45.88" lon="4.8493">
        <ele>198.3</ele>
        <time>2020-06-07T06:07:56.000Z</time>
      </trkpt>
      <trkpt lat="45.87994" lon="4.8493">
        <ele>198.4</ele>
        <time>2020-06-07T06:07:57.000Z</time>
      </trkpt>
      <trkpt lat="45.87988" lon="4.8493">
        <ele>198.6</ele>
        <time>2020-06-07T06:07:58.000Z</time>
      </trkpt>
      <trkpt lat="45.87982" lon="4.8493">
        <ele>198.7</ele>
        <time>2020-06-07T06:07:59.000Z</time>
      </trkpt>
      <trkpt lat="45.87977" lon="4.84931">
        <ele>198.8</ele>
        <time>2020-06-07T06:08:00.000Z</time>
      </trkpt>
      <trkpt lat="45.87971" lon="4.84931">
        <ele>198.9</ele>
        <time>2020-06-07T06:08:01.000Z</time>
      </trkpt>
      <trkpt lat="45.87965" lon="4.84931">
        <ele>199.1</ele>
        <time>2020-06-07T06:08:02.000Z</time>
      </trkpt>
      <trkpt lat="45.87959" lon="4.8493">
        <ele>199.2</ele>
        <time>2020-06-07T06:08:03.000Z</time>
      </trkpt>
      <trkpt lat="45.87953" lon="4.8493">
        <ele>199.4</ele>
        <time>2020-06-07T06:08:04.000Z</time>
      </trkpt>
      <trkpt lat="45.87948" lon="4.84929">
        <ele>199.6</ele>
        <time>2020-06-07T06:08:05.000Z</time>
      </trkpt>
      <trkpt lat="45.87942" lon="4.84928">
        <ele>199.8</ele>
        <time>2020-06-07T06:08:06.000Z</time>
      </trkpt>
      <trkpt lat="45.87938" lon="4.84927">
        <ele>199.9</ele>
        <time>2020-06-07T06:08:07.000Z</time>
      </trkpt>
      <trkpt lat="45.87933" lon="4.84927">
        <ele>200.1</ele>
        <time>2020-06-07T06:08:08.000Z</time>
      </trkpt>
      <trkpt lat="45.87928" lon="4.84926">
        <ele>200.2</ele>
        <time>2020-06-07T06:08:09.000Z</time>
      </trkpt>
      <trkpt lat="45.87924" lon="4.84924">
        <ele>200.3</ele>
        <time>2020-06-07T06:08:10.000Z</time>
      </trkpt>
      <trkpt lat="45.87919" lon="4.84923">
        <ele>200.4</ele>
        <time>2020-06-07T06:08:11.000Z</time>
      </trkpt>
      <trkpt lat="45.87915" lon="4.84922">
        <ele>200.5</ele>
        <time>2020-06-07T06:08:12.000Z</time>
      </trkpt>
      <trkpt lat="45.8791" lon="4.8492">
        <ele>200.6</ele>
        <time>2020-06-07T06:08:13.000Z</time>
      </trkpt>
      <trkpt lat="45.87906" lon="4.84918">
        <ele>200.6</ele>
        <time>2020-06-07T06:08:14.000Z</time>
      </trkpt>
      <trkpt lat="45.87902" lon="4.84915">
        <ele>200.7</ele>
        <time>2020-06-07T06:08:15.000Z</time>
      </trkpt>
      <trkpt lat="45.87897" lon="4.84913">
        <ele>200.7</ele>
        <time>2020-06-07T06:08:16.000Z</time>
      </trkpt>
      <trkpt lat="45.87893" lon="4.84911">
        <ele>200.8</ele>
        <time>2020-06-07T06:08:17.000Z</time>
      </trkpt>
      <trkpt lat="45.87888" lon="4.84909">
        <ele>200.8</ele>
        <time>2020-06-07T06:08:18.000Z</time>
      </trkpt>
      <trkpt lat="45.87884" lon="4.84908">
        <ele>200.9</ele>
        <time>2020-06-07T06:08:19.000Z</time>
      </trkpt>
      <trkpt lat="45.87879" lon="4.84906">
        <ele>200.9</ele>
        <time>2020-06-07T06:08:20.000Z</time>
      </trkpt>
      <trkpt lat="45.87875" lon="4.84904">
        <ele>201</ele>
        <time>2020-06-07T06:08:21.000Z</time>
      </trkpt>
      <trkpt lat="45.8787" lon="4.84902">
        <ele>201.1</ele>
        <time>2020-06-07T06:08:22.000Z</time>
      </trkpt>
      <trkpt lat="45.87865" lon="4.84901">
        <ele>201.1</ele>
        <time>2020-06-07T06:08:23.000Z</time>
      </trkpt>
      <trkpt lat="45.87861" lon="4.84898">
        <ele>201.2</ele>
        <time>2020-06-07T06:08:24.000Z</time>
      </trkpt>
      <trkpt lat="45.87856" lon="4.84896">
        <ele>201.3</ele>
        <time>2020-06-07T06:08:25.000Z</time>
      </trkpt>
      <trkpt lat="45.87851" lon="4.84895">
        <ele>201.3</ele>
        <time>2020-06-07T06:08:26.000Z</time>
      </trkpt>
      <trkpt lat="45.87845" lon="4.84893">
        <ele>201.4</ele>
        <time>2020-06-07T06:08:27.000Z</time>
      </trkpt>
      <trkpt lat="45.8784" lon="4.84892">
        <ele>201.5</ele>
        <time>2020-06-07T06:08:28.000Z</time>
      </trkpt>
      <trkpt lat="45.87835" lon="4.8489">
        <ele>201.5</ele>
        <time>2020-06-07T06:08:29.000Z</time>
      </trkpt>
      <trkpt lat="45.8783" lon="4.84888">
        <ele>201.6</ele>
        <time>2020-06-07T06:08:30.000Z</time>
      </trkpt>
      <trkpt lat="45.87825" lon="4.84886">
        <ele>201.7</ele>
        <time>2020-06-07T06:08:31.000Z</time>
      </trkpt>
      <trkpt lat="45.8782" lon="4.84884">
        <ele>201.9</ele>
        <time>2020-06-07T06:08:32.000Z</time>
      </trkpt>
      <trkpt lat="45.87815" lon="4.84882">
        <ele>202</ele>
        <time>2020-06-07T06:08:33.000Z</time>
      </trkpt>
      <trkpt lat="45.87811" lon="4.8488">
        <ele>202.1</ele>
        <time>2020-06-07T06:08:34.000Z</time>
      </trkpt>
      <trkpt lat="45.87806" lon="4.84878">
        <ele>202.2</ele>
        <time>2020-06-07T06:08:35.000Z</time>
      </trkpt>
      <trkpt lat="45.87802" lon="4.84876">
        <ele>202.3</ele>
        <time>2020-06-07T06:08:36.000Z</time>
      </trkpt>
      <trkpt lat="45.87797" lon="4.84875">
        <ele>202.4</ele>
        <time>2020-06-07T06:08:37.000Z</time>
      </trkpt>
      <trkpt lat="45.87793" lon="4.84874">
        <ele>202.4</ele>
        <time>2020-06-07T06:08:38.000Z</time>
      </trkpt>
      <trkpt lat="45.87788" lon="4.84874">
        <ele>202.5</ele>
        <time>2020-06-07T06:08:39.000Z</time>
      </trkpt>
      <trkpt lat="45.87784" lon="4.84872">
        <ele>202.5</ele>
        <time>2020-06-07T06:08:40.000Z</time>
      </trkpt>
      <trkpt lat="45.8778" lon="4.84872">
        <ele>202.6</ele>
        <time>2020-06-07T06:08:41.000Z</time>
      </trkpt>
      <trkpt lat="45.87775" lon="4.84871">
        <ele>202.6</ele>
        <time>2020-06-07T06:08:42.000Z</time>
      </trkpt>
      <trkpt lat="45.87771" lon="4.8487">
        <ele>202.7</ele>
        <time>2020-06-07T06:08:43.000Z</time>
      </trkpt>
      <trkpt lat="45.87766" lon="4.84869">
        <ele>202.7</ele>
        <time>2020-06-07T06:08:44.000Z</time>
      </trkpt>
      <trkpt lat="45.87762" lon="4.84868">
        <ele>202.7</ele>
        <time>2020-06-07T06:08:45.000Z</time>
      </trkpt>
      <trkpt lat="45.87757" lon="4.84867">
        <ele>202.8</ele>
        <time>2020-06-07T06:08:46.000Z</time>
      </trkpt>
      <trkpt lat="45.87753" lon="4.84866">
        <ele>202.8</ele>
        <time>2020-06-07T06:08:47.000Z</time>
      </trkpt>
      <trkpt lat="45.87748" lon="4.84865">
        <ele>202.8</ele>
        <time>2020-06-07T06:08:48.000Z</time>
      </trkpt>
      <trkpt lat="45.87744" lon="4.84864">
        <ele>202.7</ele>
        <time>2020-06-07T06:08:49.000Z</time>
      </trkpt>
      <trkpt lat="45.87739" lon="4.84863">
        <ele>202.7</ele>
        <time>2020-06-07T06:08:50.000Z</time>
      </trkpt>
      <trkpt lat="45.87735" lon="4.84862">
        <ele>202.7</ele>
        <time>2020-06-07T06:08:51.000Z</time>
      </trkpt>
      <trkpt lat="45.8773" lon="4.84861">
        <ele>202.7</ele>
        <time>2020-06-07T06:08:52.000Z</time>
      </trkpt>
      <trkpt lat="45.87725" lon="4.84861">
        <ele>202.7</ele>
        <time>2020-06-07T06:08:53.000Z</time>
      </trkpt>
      <trkpt lat="45.8772" lon="4.84861">
        <ele>202.6</ele>
        <time>2020-06-07T06:08:54.000Z</time>
      </trkpt>
      <trkpt lat="45.87715" lon="4.8486">
        <ele>202.6</ele>
        <time>2020-06-07T06:08:55.000Z</time>
      </trkpt>
      <trkpt lat="45.8771" lon="4.84859">
        <ele>202.6</ele>
        <time>2020-06-07T06:08:56.000Z</time>
      </trkpt>
      <trkpt lat="45.87704" lon="4.84858">
        <ele>202.6</ele>
        <time>2020-06-07T06:08:57.000Z</time>
      </trkpt>
      <trkpt lat="45.87699" lon="4.84857">
        <ele>202.6</ele>
        <time>2020-06-07T06:08:58.000Z</time>
      </trkpt>
      <trkpt lat="45.87693" lon="4.84856">
        <ele>202.6</ele>
        <time>2020-06-07T06:08:59.000Z</time>
      </trkpt>
      <trkpt lat="45.87687" lon="4.84855">
        <ele>202.5</ele>
        <time>2020-06-07T06:09:00.000Z</time>
      </trkpt>
      <trkpt lat="45.87681" lon="4.84853">
        <ele>202.5</ele>
        <time>2020-06-07T06:09:01.000Z</time>
      </trkpt>
      <trkpt lat="45.87676" lon="4.84851">
        <ele>202.5</ele>
        <time>2020-06-07T06:09:02.000Z</time>
      </trkpt>
      <trkpt lat="45.87671" lon="4.8485">
        <ele>202.6</ele>
        <time>2020-06-07T06:09:03.000Z</time>
      </trkpt>
      <trkpt lat="45.87666" lon="4.84849">
        <ele>202.8</ele>
        <time>2020-06-07T06:09:04.000Z</time>
      </trkpt>
      <trkpt lat="45.87661" lon="4.84849">
        <ele>202.9</ele>
        <time>2020-06-07T06:09:05.000Z</time>
      </trkpt>
      <trkpt lat="45.87656" lon="4.84849">
        <ele>203.1</ele>
        <time>2020-06-07T06:09:06.000Z</time>
      </trkpt>
      <trkpt lat="45.87652" lon="4.84849">
        <ele>203.2</ele>
        <time>2020-06-07T06:09:07.000Z</time>
      </trkpt>
      <trkpt lat="45.87647" lon="4.84849">
        <ele>203.4</ele>
        <time>2020-06-07T06:09:08.000Z</time>
      </trkpt>
      <trkpt lat="45.87643" lon="4.84847">
        <ele>203.6</ele>
        <time>2020-06-07T06:09:09.000Z</time>
      </trkpt>
      <trkpt lat="45.8764" lon="4.84843">
        <ele>203.5</ele>
        <time>2020-06-07T06:09:10.000Z</time>
      </trkpt>
      <trkpt lat="45.87637" lon="4.84837">
        <ele>203.4</ele>
        <time>2020-06-07T06:09:11.000Z</time>
      </trkpt>
      <trkpt lat="45.87634" lon="4.84829">
        <ele>201.9</ele>
        <time>2020-06-07T06:09:12.000Z</time>
      </trkpt>
      <trkpt lat="45.87633" lon="4.84821">
        <ele>201.4</ele>
        <time>2020-06-07T06:09:13.000Z</time>
      </trkpt>
      <trkpt lat="45.87633" lon="4.84811">
        <ele>200.9</ele>
        <time>2020-06-07T06:09:14.000Z</time>
      </trkpt>
      <trkpt lat="45.87634" lon="4.84801">
        <ele>200</ele>
        <time>2020-06-07T06:09:15.000Z</time>
      </trkpt>
      <trkpt lat="45.87635" lon="4.8479">
        <ele>199.3</ele>
        <time>2020-06-07T06:09:16.000Z</time>
      </trkpt>
      <trkpt lat="45.87637" lon="4.84779">
        <ele>198.6</ele>
        <time>2020-06-07T06:09:17.000Z</time>
      </trkpt>
      <trkpt lat="45.87638" lon="4.84767">
        <ele>197.8</ele>
        <time>2020-06-07T06:09:18.000Z</time>
      </trkpt>
      <trkpt lat="45.87639" lon="4.84755">
        <ele>197.1</ele>
        <time>2020-06-07T06:09:19.000Z</time>
      </trkpt>
      <trkpt lat="45.8764" lon="4.84743">
        <ele>196.4</ele>
        <time>2020-06-07T06:09:20.000Z</time>
      </trkpt>
      <trkpt lat="45.87642" lon="4.8473">
        <ele>195.6</ele>
        <time>2020-06-07T06:09:21.000Z</time>
      </trkpt>
      <trkpt lat="45.87643" lon="4.84717">
        <ele>195.2</ele>
        <time>2020-06-07T06:09:22.000Z</time>
      </trkpt>
      <trkpt lat="45.87645" lon="4.84704">
        <ele>194.2</ele>
        <time>2020-06-07T06:09:23.000Z</time>
      </trkpt>
      <trkpt lat="45.87646" lon="4.84691">
        <ele>193.3</ele>
        <time>2020-06-07T06:09:24.000Z</time>
      </trkpt>
      <trkpt lat="45.87648" lon="4.84678">
        <ele>192.9</ele>
        <time>2020-06-07T06:09:25.000Z</time>
      </trkpt>
      <trkpt lat="45.87649" lon="4.84665">
        <ele>192.8</ele>
        <time>2020-06-07T06:09:26.000Z</time>
      </trkpt>
      <trkpt lat="45.87651" lon="4.84652">
        <ele>192.8</ele>
        <time>2020-06-07T06:09:27.000Z</time>
      </trkpt>
      <trkpt lat="45.87652" lon="4.84639">
        <ele>191.5</ele>
        <time>2020-06-07T06:09:28.000Z</time>
      </trkpt>
      <trkpt lat="45.87653" lon="4.84627">
        <ele>191.2</ele>
        <time>2020-06-07T06:09:29.000Z</time>
      </trkpt>
      <trkpt lat="45.87654" lon="4.84615">
        <ele>190.8</ele>
        <time>2020-06-07T06:09:30.000Z</time>
      </trkpt>
      <trkpt lat="45.87655" lon="4.84602">
        <ele>190.4</ele>
        <time>2020-06-07T06:09:31.000Z</time>
      </trkpt>
      <trkpt lat="45.87656" lon="4.8459">
        <ele>190</ele>
        <time>2020-06-07T06:09:32.000Z</time>
      </trkpt>
      <trkpt lat="45.87657" lon="4.84578">
        <ele>189.6</ele>
        <time>2020-06-07T06:09:33.000Z</time>
      </trkpt>
      <trkpt lat="45.87659" lon="4.84565">
        <ele>188.8</ele>
        <time>2020-06-07T06:09:34.000Z</time>
      </trkpt>
      <trkpt lat="45.87661" lon="4.84553">
        <ele>188.8</ele>
        <time>2020-06-07T06:09:35.000Z</time>
      </trkpt>
      <trkpt lat="45.87662" lon="4.84541">
        <ele>188</ele>
        <time>2020-06-07T06:09:36.000Z</time>
      </trkpt>
      <trkpt lat="45.87664" lon="4.84529">
        <ele>187.6</ele>
        <time>2020-06-07T06:09:37.000Z</time>
      </trkpt>
      <trkpt lat="45.87665" lon="4.84516">
        <ele>187.3</ele>
        <time>2020-06-07T06:09:38.000Z</time>
      </trkpt>
      <trkpt lat="45.87664" lon="4.84504">
        <ele>186.9</ele>
        <time>2020-06-07T06:09:39.000Z</time>
      </trkpt>
      <trkpt lat="45.87663" lon="4.84492">
        <ele>186.6</ele>
        <time>2020-06-07T06:09:40.000Z</time>
      </trkpt>
      <trkpt lat="45.87661" lon="4.8448">
        <ele>186.2</ele>
        <time>2020-06-07T06:09:41.000Z</time>
      </trkpt>
      <trkpt lat="45.87659" lon="4.84467">
        <ele>185.8</ele>
        <time>2020-06-07T06:09:42.000Z</time>
      </trkpt>
      <trkpt lat="45.87658" lon="4.84455">
        <ele>185.6</ele>
        <time>2020-06-07T06:09:43.000Z</time>
      </trkpt>
      <trkpt lat="45.87658" lon="4.84444">
        <ele>185.3</ele>
        <time>2020-06-07T06:09:44.000Z</time>
      </trkpt>
      <trkpt lat="45.87657" lon="4.84432">
        <ele>185</ele>
        <time>2020-06-07T06:09:45.000Z</time>
      </trkpt>
      <trkpt lat="45.87656" lon="4.84421">
        <ele>184.7</ele>
        <time>2020-06-07T06:09:46.000Z</time>
      </trkpt>
      <trkpt lat="45.87656" lon="4.84409">
        <ele>184</ele>
        <time>2020-06-07T06:09:47.000Z</time>
      </trkpt>
      <trkpt lat="45.87655" lon="4.84397">
        <ele>183.6</ele>
        <time>2020-06-07T06:09:48.000Z</time>
      </trkpt>
      <trkpt lat="45.87654" lon="4.84385">
        <ele>183.2</ele>
        <time>2020-06-07T06:09:49.000Z</time>
      </trkpt>
      <trkpt lat="45.87653" lon="4.84373">
        <ele>182.9</ele>
        <time>2020-06-07T06:09:50.000Z</time>
      </trkpt>
      <trkpt lat="45.87652" lon="4.84362">
        <ele>182.6</ele>
        <time>2020-06-07T06:09:51.000Z</time>
      </trkpt>
      <trkpt lat="45.87651" lon="4.84351">
        <ele>182.4</ele>
        <time>2020-06-07T06:09:52.000Z</time>
      </trkpt>
      <trkpt lat="45.87651" lon="4.84341">
        <ele>182.1</ele>
        <time>2020-06-07T06:09:53.000Z</time>
      </trkpt>
      <trkpt lat="45.87651" lon="4.84332">
        <ele>182</ele>
        <time>2020-06-07T06:09:54.000Z</time>
      </trkpt>
      <trkpt lat="45.87651" lon="4.84323">
        <ele>182</ele>
        <time>2020-06-07T06:09:55.000Z</time>
      </trkpt>
      <trkpt lat="45.87652" lon="4.84315">
        <ele>182</ele>
        <time>2020-06-07T06:09:56.000Z</time>
      </trkpt>
      <trkpt lat="45.87653" lon="4.84307">
        <ele>182</ele>
        <time>2020-06-07T06:09:57.000Z</time>
      </trkpt>
      <trkpt lat="45.87653" lon="4.843">
        <ele>181.7</ele>
        <time>2020-06-07T06:09:58.000Z</time>
      </trkpt>
      <trkpt lat="45.87651" lon="4.84294">
        <ele>181.4</ele>
        <time>2020-06-07T06:09:59.000Z</time>
      </trkpt>
      <trkpt lat="45.87646" lon="4.84291">
        <ele>181.1</ele>
        <time>2020-06-07T06:10:00.000Z</time>
      </trkpt>
      <trkpt lat="45.87642" lon="4.84288">
        <ele>180.9</ele>
        <time>2020-06-07T06:10:01.000Z</time>
      </trkpt>
      <trkpt lat="45.87637" lon="4.84284">
        <ele>180.6</ele>
        <time>2020-06-07T06:10:02.000Z</time>
      </trkpt>
      <trkpt lat="45.87632" lon="4.8428">
        <ele>180.4</ele>
        <time>2020-06-07T06:10:03.000Z</time>
      </trkpt>
      <trkpt lat="45.87627" lon="4.84275">
        <ele>180.1</ele>
        <time>2020-06-07T06:10:04.000Z</time>
      </trkpt>
      <trkpt lat="45.87621" lon="4.84271">
        <ele>179.9</ele>
        <time>2020-06-07T06:10:05.000Z</time>
      </trkpt>
      <trkpt lat="45.87616" lon="4.84266">
        <ele>179.7</ele>
        <time>2020-06-07T06:10:06.000Z</time>
      </trkpt>
      <trkpt lat="45.87611" lon="4.8426">
        <ele>179.6</ele>
        <time>2020-06-07T06:10:07.000Z</time>
      </trkpt>
      <trkpt lat="45.87606" lon="4.84253">
        <ele>179.4</ele>
        <time>2020-06-07T06:10:08.000Z</time>
      </trkpt>
      <trkpt lat="45.87601" lon="4.84247">
        <ele>179.3</ele>
        <time>2020-06-07T06:10:09.000Z</time>
      </trkpt>
      <trkpt lat="45.87596" lon="4.84241">
        <ele>179.1</ele>
        <time>2020-06-07T06:10:10.000Z</time>
      </trkpt>
      <trkpt lat="45.87591" lon="4.84235">
        <ele>179</ele>
        <time>2020-06-07T06:10:11.000Z</time>
      </trkpt>
      <trkpt lat="45.87585" lon="4.84229">
        <ele>178.8</ele>
        <time>2020-06-07T06:10:12.000Z</time>
      </trkpt>
      <trkpt lat="45.8758" lon="4.84222">
        <ele>178.6</ele>
        <time>2020-06-07T06:10:13.000Z</time>
      </trkpt>
      <trkpt lat="45.87574" lon="4.84217">
        <ele>178.6</ele>
        <time>2020-06-07T06:10:14.000Z</time>
      </trkpt>
      <trkpt lat="45.87567" lon="4.84211">
        <ele>178.8</ele>
        <time>2020-06-07T06:10:15.000Z</time>
      </trkpt>
      <trkpt lat="45.87561" lon="4.84205">
        <ele>178.7</ele>
        <time>2020-06-07T06:10:16.000Z</time>
      </trkpt>
      <trkpt lat="45.87556" lon="4.84199">
        <ele>178.6</ele>
        <time>2020-06-07T06:10:17.000Z</time>
      </trkpt>
      <trkpt lat="45.8755" lon="4.84192">
        <ele>178.5</ele>
        <time>2020-06-07T06:10:18.000Z</time>
      </trkpt>
      <trkpt lat="45.87545" lon="4.84186">
        <ele>178.5</ele>
        <time>2020-06-07T06:10:19.000Z</time>
      </trkpt>
      <trkpt lat="45.87541" lon="4.84181">
        <ele>178.4</ele>
        <time>2020-06-07T06:10:20.000Z</time>
      </trkpt>
      <trkpt lat="45.87538" lon="4.84174">
        <ele>178.1</ele>
        <time>2020-06-07T06:10:21.000Z</time>
      </trkpt>
      <trkpt lat="45.87537" lon="4.84167">
        <ele>177.8</ele>
        <time>2020-06-07T06:10:22.000Z</time>
      </trkpt>
      <trkpt lat="45.87537" lon="4.84159">
        <ele>177.3</ele>
        <time>2020-06-07T06:10:23.000Z</time>
      </trkpt>
      <trkpt lat="45.87537" lon="4.84151">
        <ele>176.9</ele>
        <time>2020-06-07T06:10:24.000Z</time>
      </trkpt>
      <trkpt lat="45.87537" lon="4.84143">
        <ele>176.4</ele>
        <time>2020-06-07T06:10:25.000Z</time>
      </trkpt>
      <trkpt lat="45.87537" lon="4.84134">
        <ele>176.3</ele>
        <time>2020-06-07T06:10:26.000Z</time>
      </trkpt>
      <trkpt lat="45.87537" lon="4.84126">
        <ele>176.2</ele>
        <time>2020-06-07T06:10:27.000Z</time>
      </trkpt>
      <trkpt lat="45.87537" lon="4.84118">
        <ele>176.1</ele>
        <time>2020-06-07T06:10:28.000Z</time>
      </trkpt>
      <trkpt lat="45.87537" lon="4.8411">
        <ele>176.1</ele>
        <time>2020-06-07T06:10:29.000Z</time>
      </trkpt>
      <trkpt lat="45.87537" lon="4.84102">
        <ele>176.1</ele>
        <time>2020-06-07T06:10:30.000Z</time>
      </trkpt>
      <trkpt lat="45.87538" lon="4.84095">
        <ele>176.1</ele>
        <time>2020-06-07T06:10:31.000Z</time>
      </trkpt>
      <trkpt lat="45.87539" lon="4.84089">
        <ele>176</ele>
        <time>2020-06-07T06:10:32.000Z</time>
      </trkpt>
      <trkpt lat="45.87541" lon="4.84084">
        <ele>176</ele>
        <time>2020-06-07T06:10:33.000Z</time>
      </trkpt>
      <trkpt lat="45.87544" lon="4.84081">
        <ele>176</ele>
        <time>2020-06-07T06:10:34.000Z</time>
      </trkpt>
      <trkpt lat="45.87546" lon="4.84077">
        <ele>175.9</ele>
        <time>2020-06-07T06:10:35.000Z</time>
      </trkpt>
      <trkpt lat="45.87549" lon="4.84076">
        <ele>175.9</ele>
        <time>2020-06-07T06:10:36.000Z</time>
      </trkpt>
      <trkpt lat="45.87552" lon="4.84074">
        <ele>175.8</ele>
        <time>2020-06-07T06:10:37.000Z</time>
      </trkpt>
      <trkpt lat="45.87559" lon="4.8407">
        <ele>175.7</ele>
        <time>2020-06-07T06:10:38.000Z</time>
      </trkpt>
      <trkpt lat="45.87564" lon="4.84066">
        <ele>175.6</ele>
        <time>2020-06-07T06:10:39.000Z</time>
      </trkpt>
      <trkpt lat="45.87574" lon="4.84061">
        <ele>175.4</ele>
        <time>2020-06-07T06:10:40.000Z</time>
      </trkpt>
      <trkpt lat="45.8758" lon="4.8406">
        <ele>175.1</ele>
        <time>2020-06-07T06:10:41.000Z</time>
      </trkpt>
      <trkpt lat="45.87584" lon="4.84057">
        <ele>175.1</ele>
        <time>2020-06-07T06:10:42.000Z</time>
      </trkpt>
      <trkpt lat="45.87586" lon="4.84053">
        <ele>175</ele>
        <time>2020-06-07T06:10:43.000Z</time>
      </trkpt>
      <trkpt lat="45.87589" lon="4.84049">
        <ele>174.6</ele>
        <time>2020-06-07T06:10:44.000Z</time>
      </trkpt>
      <trkpt lat="45.87589" lon="4.84046">
        <ele>174.5</ele>
        <time>2020-06-07T06:10:45.000Z</time>
      </trkpt>
      <trkpt lat="45.8759" lon="4.84043">
        <ele>174.4</ele>
        <time>2020-06-07T06:10:46.000Z</time>
      </trkpt>
      <trkpt lat="45.87591" lon="4.84039">
        <ele>174.3</ele>
        <time>2020-06-07T06:10:47.000Z</time>
      </trkpt>
      <trkpt lat="45.87592" lon="4.84035">
        <ele>174.2</ele>
        <time>2020-06-07T06:10:48.000Z</time>
      </trkpt>
      <trkpt lat="45.87594" lon="4.84032">
        <ele>174.1</ele>
        <time>2020-06-07T06:10:49.000Z</time>
      </trkpt>
      <trkpt lat="45.87594" lon="4.84028">
        <ele>174</ele>
        <time>2020-06-07T06:10:50.000Z</time>
      </trkpt>
      <trkpt lat="45.87595" lon="4.84024">
        <ele>173.8</ele>
        <time>2020-06-07T06:10:51.000Z</time>
      </trkpt>
      <trkpt lat="45.87596" lon="4.84022">
        <ele>173.7</ele>
        <time>2020-06-07T06:10:52.000Z</time>
      </trkpt>
      <trkpt lat="45.87596" lon="4.8402">
        <ele>173.7</ele>
        <time>2020-06-07T06:10:53.000Z</time>
      </trkpt>
      <trkpt lat="45.87596" lon="4.84018">
        <ele>173.6</ele>
        <time>2020-06-07T06:10:54.000Z</time>
      </trkpt>
      <trkpt lat="45.87596" lon="4.84016">
        <ele>173.6</ele>
        <time>2020-06-07T06:10:55.000Z</time>
      </trkpt>
      <trkpt lat="45.87596" lon="4.84015">
        <ele>173.5</ele>
        <time>2020-06-07T06:10:56.000Z</time>
      </trkpt>
      <trkpt lat="45.87597" lon="4.84013">
        <ele>173.5</ele>
        <time>2020-06-07T06:10:57.000Z</time>
      </trkpt>
      <trkpt lat="45.87597" lon="4.84012">
        <ele>173.4</ele>
        <time>2020-06-07T06:10:58.000Z</time>
      </trkpt>
      <trkpt lat="45.87596" lon="4.84011">
        <ele>173.3</ele>
        <time>2020-06-07T06:10:59.000Z</time>
      </trkpt>
      <trkpt lat="45.87596" lon="4.8401">
        <ele>173.3</ele>
        <time>2020-06-07T06:11:00.000Z</time>
      </trkpt>
      <trkpt lat="45.87596" lon="4.8401">
        <ele>173.3</ele>
        <time>2020-06-07T06:11:01.000Z</time>
      </trkpt>
      <trkpt lat="45.87595" lon="4.8401">
        <ele>173.3</ele>
        <time>2020-06-07T06:11:02.000Z</time>
      </trkpt>
      <trkpt lat="45.87593" lon="4.84001">
        <ele>173.3</ele>
        <time>2020-06-07T06:11:10.000Z</time>
      </trkpt>
      <trkpt lat="45.87594" lon="4.83997">
        <ele>173.3</ele>
        <time>2020-06-07T06:11:11.000Z</time>
      </trkpt>
      <trkpt lat="45.87597" lon="4.83992">
        <ele>173.3</ele>
        <time>2020-06-07T06:11:12.000Z</time>
      </trkpt>
      <trkpt lat="45.876" lon="4.83987">
        <ele>173.2</ele>
        <time>2020-06-07T06:11:13.000Z</time>
      </trkpt>
      <trkpt lat="45.87603" lon="4.83981">
        <ele>173.2</ele>
        <time>2020-06-07T06:11:14.000Z</time>
      </trkpt>
      <trkpt lat="45.87606" lon="4.83976">
        <ele>173</ele>
        <time>2020-06-07T06:11:15.000Z</time>
      </trkpt>
      <trkpt lat="45.87609" lon="4.83971">
        <ele>172.9</ele>
        <time>2020-06-07T06:11:16.000Z</time>
      </trkpt>
      <trkpt lat="45.87612" lon="4.83966">
        <ele>172.8</ele>
        <time>2020-06-07T06:11:17.000Z</time>
      </trkpt>
      <trkpt lat="45.87615" lon="4.83961">
        <ele>172.7</ele>
        <time>2020-06-07T06:11:18.000Z</time>
      </trkpt>
      <trkpt lat="45.87617" lon="4.83956">
        <ele>172.7</ele>
        <time>2020-06-07T06:11:19.000Z</time>
      </trkpt>
      <trkpt lat="45.87622" lon="4.83951">
        <ele>172.7</ele>
        <time>2020-06-07T06:11:20.000Z</time>
      </trkpt>
      <trkpt lat="45.87625" lon="4.83947">
        <ele>172.6</ele>
        <time>2020-06-07T06:11:21.000Z</time>
      </trkpt>
      <trkpt lat="45.87629" lon="4.83943">
        <ele>172.5</ele>
        <time>2020-06-07T06:11:22.000Z</time>
      </trkpt>
      <trkpt lat="45.87633" lon="4.83939">
        <ele>172.4</ele>
        <time>2020-06-07T06:11:23.000Z</time>
      </trkpt>
      <trkpt lat="45.87641" lon="4.83935">
        <ele>172.3</ele>
        <time>2020-06-07T06:11:24.000Z</time>
      </trkpt>
      <trkpt lat="45.87645" lon="4.83929">
        <ele>172.2</ele>
        <time>2020-06-07T06:11:25.000Z</time>
      </trkpt>
      <trkpt lat="45.87647" lon="4.83922">
        <ele>172.1</ele>
        <time>2020-06-07T06:11:26.000Z</time>
      </trkpt>
      <trkpt lat="45.87649" lon="4.83914">
        <ele>172</ele>
        <time>2020-06-07T06:11:27.000Z</time>
      </trkpt>
      <trkpt lat="45.8765" lon="4.83906">
        <ele>171.9</ele>
        <time>2020-06-07T06:11:28.000Z</time>
      </trkpt>
      <trkpt lat="45.87652" lon="4.83898">
        <ele>171.9</ele>
        <time>2020-06-07T06:11:29.000Z</time>
      </trkpt>
      <trkpt lat="45.87652" lon="4.83891">
        <ele>171.8</ele>
        <time>2020-06-07T06:11:30.000Z</time>
      </trkpt>
      <trkpt lat="45.87651" lon="4.83884">
        <ele>171.8</ele>
        <time>2020-06-07T06:11:31.000Z</time>
      </trkpt>
      <trkpt lat="45.87651" lon="4.83876">
        <ele>171.7</ele>
        <time>2020-06-07T06:11:32.000Z</time>
      </trkpt>
      <trkpt lat="45.87651" lon="4.8387">
        <ele>171.7</ele>
        <time>2020-06-07T06:11:33.000Z</time>
      </trkpt>
      <trkpt lat="45.87651" lon="4.83865">
        <ele>171.5</ele>
        <time>2020-06-07T06:11:34.000Z</time>
      </trkpt>
      <trkpt lat="45.87653" lon="4.8386">
        <ele>171.5</ele>
        <time>2020-06-07T06:11:35.000Z</time>
      </trkpt>
      <trkpt lat="45.87654" lon="4.83858">
        <ele>171.5</ele>
        <time>2020-06-07T06:11:36.000Z</time>
      </trkpt>
      <trkpt lat="45.87656" lon="4.83857">
        <ele>171.5</ele>
        <time>2020-06-07T06:11:37.000Z</time>
      </trkpt>
      <trkpt lat="45.87659" lon="4.83856">
        <ele>172.2</ele>
        <time>2020-06-07T06:11:38.000Z</time>
      </trkpt>
      <trkpt lat="45.87662" lon="4.83856">
        <ele>172.3</ele>
        <time>2020-06-07T06:11:39.000Z</time>
      </trkpt>
      <trkpt lat="45.87666" lon="4.83856">
        <ele>172.4</ele>
        <time>2020-06-07T06:11:40.000Z</time>
      </trkpt>
      <trkpt lat="45.8767" lon="4.83856">
        <ele>172.5</ele>
        <time>2020-06-07T06:11:41.000Z</time>
      </trkpt>
      <trkpt lat="45.87673" lon="4.83856">
        <ele>172.6</ele>
        <time>2020-06-07T06:11:42.000Z</time>
      </trkpt>
      <trkpt lat="45.87677" lon="4.83856">
        <ele>172.7</ele>
        <time>2020-06-07T06:11:43.000Z</time>
      </trkpt>
      <trkpt lat="45.87681" lon="4.83856">
        <ele>172.8</ele>
        <time>2020-06-07T06:11:44.000Z</time>
      </trkpt>
      <trkpt lat="45.87684" lon="4.83857">
        <ele>172.9</ele>
        <time>2020-06-07T06:11:45.000Z</time>
      </trkpt>
      <trkpt lat="45.87688" lon="4.83857">
        <ele>173</ele>
        <time>2020-06-07T06:11:46.000Z</time>
      </trkpt>
      <trkpt lat="45.87692" lon="4.83858">
        <ele>173.2</ele>
        <time>2020-06-07T06:11:47.000Z</time>
      </trkpt>
      <trkpt lat="45.87696" lon="4.83859">
        <ele>173.2</ele>
        <time>2020-06-07T06:11:48.000Z</time>
      </trkpt>
      <trkpt lat="45.87701" lon="4.8386">
        <ele>173.2</ele>
        <time>2020-06-07T06:11:49.000Z</time>
      </trkpt>
      <trkpt lat="45.87705" lon="4.8386">
        <ele>173.4</ele>
        <time>2020-06-07T06:11:50.000Z</time>
      </trkpt>
      <trkpt lat="45.87709" lon="4.83859">
        <ele>173.4</ele>
        <time>2020-06-07T06:11:51.000Z</time>
      </trkpt>
      <trkpt lat="45.87712" lon="4.83856">
        <ele>173.4</ele>
        <time>2020-06-07T06:11:52.000Z</time>
      </trkpt>
      <trkpt lat="45.87714" lon="4.83851">
        <ele>173.3</ele>
        <time>2020-06-07T06:11:53.000Z</time>
      </trkpt>
      <trkpt lat="45.87715" lon="4.83845">
        <ele>173.1</ele>
        <time>2020-06-07T06:11:54.000Z</time>
      </trkpt>
      <trkpt lat="45.87713" lon="4.83839">
        <ele>172.9</ele>
        <time>2020-06-07T06:11:55.000Z</time>
      </trkpt>
      <trkpt lat="45.8771" lon="4.83833">
        <ele>173</ele>
        <time>2020-06-07T06:11:56.000Z</time>
      </trkpt>
      <trkpt lat="45.87708" lon="4.83828">
        <ele>173.1</ele>
        <time>2020-06-07T06:11:57.000Z</time>
      </trkpt>
      <trkpt lat="45.87705" lon="4.83822">
        <ele>173.3</ele>
        <time>2020-06-07T06:11:58.000Z</time>
      </trkpt>
      <trkpt lat="45.87703" lon="4.83816">
        <ele>173.5</ele>
        <time>2020-06-07T06:11:59.000Z</time>
      </trkpt>
      <trkpt lat="45.87702" lon="4.83809">
        <ele>173.6</ele>
        <time>2020-06-07T06:12:00.000Z</time>
      </trkpt>
      <trkpt lat="45.87701" lon="4.83803">
        <ele>173.8</ele>
        <time>2020-06-07T06:12:01.000Z</time>
      </trkpt>
      <trkpt lat="45.877" lon="4.83796">
        <ele>174</ele>
        <time>2020-06-07T06:12:02.000Z</time>
      </trkpt>
      <trkpt lat="45.877" lon="4.83789">
        <ele>174.2</ele>
        <time>2020-06-07T06:12:03.000Z</time>
      </trkpt>
      <trkpt lat="45.87699" lon="4.83783">
        <ele>174.3</ele>
        <time>2020-06-07T06:12:04.000Z</time>
      </trkpt>
      <trkpt lat="45.87698" lon="4.83776">
        <ele>174.4</ele>
        <time>2020-06-07T06:12:05.000Z</time>
      </trkpt>
      <trkpt lat="45.87698" lon="4.8377">
        <ele>174.6</ele>
        <time>2020-06-07T06:12:06.000Z</time>
      </trkpt>
      <trkpt lat="45.87697" lon="4.83763">
        <ele>174.7</ele>
        <time>2020-06-07T06:12:07.000Z</time>
      </trkpt>
      <trkpt lat="45.87696" lon="4.83756">
        <ele>174.8</ele>
        <time>2020-06-07T06:12:08.000Z</time>
      </trkpt>
      <trkpt lat="45.87696" lon="4.8375">
        <ele>175</ele>
        <time>2020-06-07T06:12:09.000Z</time>
      </trkpt>
      <trkpt lat="45.87695" lon="4.83743">
        <ele>175.1</ele>
        <time>2020-06-07T06:12:10.000Z</time>
      </trkpt>
      <trkpt lat="45.87695" lon="4.83736">
        <ele>175.2</ele>
        <time>2020-06-07T06:12:11.000Z</time>
      </trkpt>
      <trkpt lat="45.87694" lon="4.8373">
        <ele>175.3</ele>
        <time>2020-06-07T06:12:12.000Z</time>
      </trkpt>
      <trkpt lat="45.87694" lon="4.83723">
        <ele>175.4</ele>
        <time>2020-06-07T06:12:13.000Z</time>
      </trkpt>
      <trkpt lat="45.87693" lon="4.83716">
        <ele>175.5</ele>
        <time>2020-06-07T06:12:14.000Z</time>
      </trkpt>
      <trkpt lat="45.87693" lon="4.83709">
        <ele>175.5</ele>
        <time>2020-06-07T06:12:15.000Z</time>
      </trkpt>
      <trkpt lat="45.87692" lon="4.83702">
        <ele>175.5</ele>
        <time>2020-06-07T06:12:16.000Z</time>
      </trkpt>
      <trkpt lat="45.87692" lon="4.83696">
        <ele>175.5</ele>
        <time>2020-06-07T06:12:17.000Z</time>
      </trkpt>
      <trkpt lat="45.87691" lon="4.83689">
        <ele>175.5</ele>
        <time>2020-06-07T06:12:18.000Z</time>
      </trkpt>
      <trkpt lat="45.8769" lon="4.83682">
        <ele>175.5</ele>
        <time>2020-06-07T06:12:19.000Z</time>
      </trkpt>
      <trkpt lat="45.8769" lon="4.83674">
        <ele>175.4</ele>
        <time>2020-06-07T06:12:20.000Z</time>
      </trkpt>
      <trkpt lat="45.87689" lon="4.83667">
        <ele>175.3</ele>
        <time>2020-06-07T06:12:21.000Z</time>
      </trkpt>
      <trkpt lat="45.87689" lon="4.83659">
        <ele>175.2</ele>
        <time>2020-06-07T06:12:22.000Z</time>
      </trkpt>
      <trkpt lat="45.87688" lon="4.83651">
        <ele>175</ele>
        <time>2020-06-07T06:12:23.000Z</time>
      </trkpt>
      <trkpt lat="45.87687" lon="4.83642">
        <ele>174.8</ele>
        <time>2020-06-07T06:12:24.000Z</time>
      </trkpt>
      <trkpt lat="45.87686" lon="4.83634">
        <ele>174.6</ele>
        <time>2020-06-07T06:12:25.000Z</time>
      </trkpt>
      <trkpt lat="45.87686" lon="4.83625">
        <ele>174.5</ele>
        <time>2020-06-07T06:12:26.000Z</time>
      </trkpt>
      <trkpt lat="45.87685" lon="4.83616">
        <ele>174.3</ele>
        <time>2020-06-07T06:12:27.000Z</time>
      </trkpt>
      <trkpt lat="45.87684" lon="4.83607">
        <ele>174.1</ele>
        <time>2020-06-07T06:12:28.000Z</time>
      </trkpt>
      <trkpt lat="45.87684" lon="4.83598">
        <ele>173.9</ele>
        <time>2020-06-07T06:12:29.000Z</time>
      </trkpt>
      <trkpt lat="45.87683" lon="4.83589">
        <ele>173.7</ele>
        <time>2020-06-07T06:12:30.000Z</time>
      </trkpt>
      <trkpt lat="45.87683" lon="4.83579">
        <ele>173.6</ele>
        <time>2020-06-07T06:12:31.000Z</time>
      </trkpt>
      <trkpt lat="45.87683" lon="4.8357">
        <ele>173.5</ele>
        <time>2020-06-07T06:12:32.000Z</time>
      </trkpt>
      <trkpt lat="45.87685" lon="4.83562">
        <ele>173.1</ele>
        <time>2020-06-07T06:12:33.000Z</time>
      </trkpt>
      <trkpt lat="45.87688" lon="4.83555">
        <ele>172.9</ele>
        <time>2020-06-07T06:12:34.000Z</time>
      </trkpt>
      <trkpt lat="45.87691" lon="4.8355">
        <ele>172.7</ele>
        <time>2020-06-07T06:12:35.000Z</time>
      </trkpt>
      <trkpt lat="45.87695" lon="4.83546">
        <ele>172.4</ele>
        <time>2020-06-07T06:12:36.000Z</time>
      </trkpt>
      <trkpt lat="45.87699" lon="4.83542">
        <ele>172.1</ele>
        <time>2020-06-07T06:12:37.000Z</time>
      </trkpt>
      <trkpt lat="45.87704" lon="4.83537">
        <ele>171.7</ele>
        <time>2020-06-07T06:12:38.000Z</time>
      </trkpt>
      <trkpt lat="45.87708" lon="4.83533">
        <ele>171.4</ele>
        <time>2020-06-07T06:12:39.000Z</time>
      </trkpt>
      <trkpt lat="45.87713" lon="4.83527">
        <ele>171.1</ele>
        <time>2020-06-07T06:12:40.000Z</time>
      </trkpt>
      <trkpt lat="45.87717" lon="4.83522">
        <ele>170.8</ele>
        <time>2020-06-07T06:12:41.000Z</time>
      </trkpt>
      <trkpt lat="45.87722" lon="4.83516">
        <ele>170.5</ele>
        <time>2020-06-07T06:12:42.000Z</time>
      </trkpt>
      <trkpt lat="45.87727" lon="4.8351">
        <ele>170.3</ele>
        <time>2020-06-07T06:12:43.000Z</time>
      </trkpt>
      <trkpt lat="45.87731" lon="4.83505">
        <ele>169.9</ele>
        <time>2020-06-07T06:12:44.000Z</time>
      </trkpt>
      <trkpt lat="45.87736" lon="4.83499">
        <ele>169.8</ele>
        <time>2020-06-07T06:12:45.000Z</time>
      </trkpt>
      <trkpt lat="45.87741" lon="4.83494">
        <ele>169.7</ele>
        <time>2020-06-07T06:12:46.000Z</time>
      </trkpt>
      <trkpt lat="45.87746" lon="4.83488">
        <ele>169.6</ele>
        <time>2020-06-07T06:12:47.000Z</time>
      </trkpt>
      <trkpt lat="45.87751" lon="4.83482">
        <ele>169.6</ele>
        <time>2020-06-07T06:12:48.000Z</time>
      </trkpt>
      <trkpt lat="45.87756" lon="4.83476">
        <ele>169.5</ele>
        <time>2020-06-07T06:12:49.000Z</time>
      </trkpt>
      <trkpt lat="45.87761" lon="4.8347">
        <ele>169.5</ele>
        <time>2020-06-07T06:12:50.000Z</time>
      </trkpt>
      <trkpt lat="45.87765" lon="4.83464">
        <ele>169.5</ele>
        <time>2020-06-07T06:12:51.000Z</time>
      </trkpt>
      <trkpt lat="45.87769" lon="4.83459">
        <ele>169.4</ele>
        <time>2020-06-07T06:12:52.000Z</time>
      </trkpt>
      <trkpt lat="45.87773" lon="4.83454">
        <ele>169.4</ele>
        <time>2020-06-07T06:12:53.000Z</time>
      </trkpt>
      <trkpt lat="45.87777" lon="4.83449">
        <ele>169.4</ele>
        <time>2020-06-07T06:12:54.000Z</time>
      </trkpt>
      <trkpt lat="45.8778" lon="4.83443">
        <ele>169.4</ele>
        <time>2020-06-07T06:12:55.000Z</time>
      </trkpt>
      <trkpt lat="45.87784" lon="4.83438">
        <ele>169.4</ele>
        <time>2020-06-07T06:12:56.000Z</time>
      </trkpt>
      <trkpt lat="45.87787" lon="4.83433">
        <ele>169.4</ele>
        <time>2020-06-07T06:12:57.000Z</time>
      </trkpt>
      <trkpt lat="45.87789" lon="4.83428">
        <ele>169.4</ele>
        <time>2020-06-07T06:12:58.000Z</time>
      </trkpt>
      <trkpt lat="45.87792" lon="4.83423">
        <ele>169.4</ele>
        <time>2020-06-07T06:12:59.000Z</time>
      </trkpt>
      <trkpt lat="45.87794" lon="4.83417">
        <ele>169.5</ele>
        <time>2020-06-07T06:13:00.000Z</time>
      </trkpt>
      <trkpt lat="45.87796" lon="4.83411">
        <ele>169.5</ele>
        <time>2020-06-07T06:13:01.000Z</time>
      </trkpt>
      <trkpt lat="45.87798" lon="4.83405">
        <ele>169.5</ele>
        <time>2020-06-07T06:13:02.000Z</time>
      </trkpt>
      <trkpt lat="45.87801" lon="4.83399">
        <ele>169.5</ele>
        <time>2020-06-07T06:13:03.000Z</time>
      </trkpt>
      <trkpt lat="45.87804" lon="4.83394">
        <ele>169.5</ele>
        <time>2020-06-07T06:13:04.000Z</time>
      </trkpt>
      <trkpt lat="45.87806" lon="4.83388">
        <ele>169.5</ele>
        <time>2020-06-07T06:13:05.000Z</time>
      </trkpt>
      <trkpt lat="45.87809" lon="4.83382">
        <ele>169.5</ele>
        <time>2020-06-07T06:13:06.000Z</time>
      </trkpt>
      <trkpt lat="45.87811" lon="4.83376">
        <ele>169.5</ele>
        <time>2020-06-07T06:13:07.000Z</time>
      </trkpt>
      <trkpt lat="45.87814" lon="4.83369">
        <ele>169.5</ele>
        <time>2020-06-07T06:13:08.000Z</time>
      </trkpt>
      <trkpt lat="45.87817" lon="4.83363">
        <ele>169.6</ele>
        <time>2020-06-07T06:13:09.000Z</time>
      </trkpt>
      <trkpt lat="45.8782" lon="4.83357">
        <ele>169.6</ele>
        <time>2020-06-07T06:13:10.000Z</time>
      </trkpt>
      <trkpt lat="45.87823" lon="4.8335">
        <ele>169.6</ele>
        <time>2020-06-07T06:13:11.000Z</time>
      </trkpt>
      <trkpt lat="45.87826" lon="4.83343">
        <ele>169.6</ele>
        <time>2020-06-07T06:13:12.000Z</time>
      </trkpt>
      <trkpt lat="45.87828" lon="4.83337">
        <ele>169.6</ele>
        <time>2020-06-07T06:13:13.000Z</time>
      </trkpt>
      <trkpt lat="45.87831" lon="4.83331">
        <ele>169.6</ele>
        <time>2020-06-07T06:13:14.000Z</time>
      </trkpt>
      <trkpt lat="45.87833" lon="4.83324">
        <ele>169.6</ele>
        <time>2020-06-07T06:13:15.000Z</time>
      </trkpt>
      <trkpt lat="45.87835" lon="4.83317">
        <ele>169.6</ele>
        <time>2020-06-07T06:13:16.000Z</time>
      </trkpt>
      <trkpt lat="45.87838" lon="4.8331">
        <ele>169.6</ele>
        <time>2020-06-07T06:13:17.000Z</time>
      </trkpt>
      <trkpt lat="45.8784" lon="4.83304">
        <ele>169.5</ele>
        <time>2020-06-07T06:13:18.000Z</time>
      </trkpt>
      <trkpt lat="45.87842" lon="4.83297">
        <ele>169.5</ele>
        <time>2020-06-07T06:13:19.000Z</time>
      </trkpt>
      <trkpt lat="45.87844" lon="4.8329">
        <ele>169.5</ele>
        <time>2020-06-07T06:13:20.000Z</time>
      </trkpt>
      <trkpt lat="45.87845" lon="4.83283">
        <ele>169.5</ele>
        <time>2020-06-07T06:13:21.000Z</time>
      </trkpt>
      <trkpt lat="45.87847" lon="4.83276">
        <ele>169.5</ele>
        <time>2020-06-07T06:13:22.000Z</time>
      </trkpt>
      <trkpt lat="45.87849" lon="4.8327">
        <ele>169.5</ele>
        <time>2020-06-07T06:13:23.000Z</time>
      </trkpt>
      <trkpt lat="45.8785" lon="4.83263">
        <ele>169.5</ele>
        <time>2020-06-07T06:13:24.000Z</time>
      </trkpt>
      <trkpt lat="45.87852" lon="4.83256">
        <ele>169.6</ele>
        <time>2020-06-07T06:13:25.000Z</time>
      </trkpt>
      <trkpt lat="45.87853" lon="4.83249">
        <ele>169.6</ele>
        <time>2020-06-07T06:13:26.000Z</time>
      </trkpt>
      <trkpt lat="45.87855" lon="4.83241">
        <ele>169.6</ele>
        <time>2020-06-07T06:13:27.000Z</time>
      </trkpt>
      <trkpt lat="45.87856" lon="4.83234">
        <ele>169.6</ele>
        <time>2020-06-07T06:13:28.000Z</time>
      </trkpt>
      <trkpt lat="45.87858" lon="4.83227">
        <ele>169.6</ele>
        <time>2020-06-07T06:13:29.000Z</time>
      </trkpt>
      <trkpt lat="45.87859" lon="4.8322">
        <ele>169.6</ele>
        <time>2020-06-07T06:13:30.000Z</time>
      </trkpt>
      <trkpt lat="45.87861" lon="4.83213">
        <ele>169.6</ele>
        <time>2020-06-07T06:13:31.000Z</time>
      </trkpt>
      <trkpt lat="45.87863" lon="4.83206">
        <ele>169.6</ele>
        <time>2020-06-07T06:13:32.000Z</time>
      </trkpt>
      <trkpt lat="45.87864" lon="4.83198">
        <ele>169.6</ele>
        <time>2020-06-07T06:13:33.000Z</time>
      </trkpt>
      <trkpt lat="45.87865" lon="4.83191">
        <ele>169.6</ele>
        <time>2020-06-07T06:13:34.000Z</time>
      </trkpt>
      <trkpt lat="45.87867" lon="4.83183">
        <ele>169.6</ele>
        <time>2020-06-07T06:13:35.000Z</time>
      </trkpt>
      <trkpt lat="45.87868" lon="4.83176">
        <ele>169.6</ele>
        <time>2020-06-07T06:13:36.000Z</time>
      </trkpt>
      <trkpt lat="45.87869" lon="4.83168">
        <ele>169.6</ele>
        <time>2020-06-07T06:13:37.000Z</time>
      </trkpt>
      <trkpt lat="45.8787" lon="4.8316">
        <ele>169.8</ele>
        <time>2020-06-07T06:13:38.000Z</time>
      </trkpt>
      <trkpt lat="45.87871" lon="4.83152">
        <ele>169.9</ele>
        <time>2020-06-07T06:13:39.000Z</time>
      </trkpt>
      <trkpt lat="45.87872" lon="4.83144">
        <ele>170</ele>
        <time>2020-06-07T06:13:40.000Z</time>
      </trkpt>
      <trkpt lat="45.87873" lon="4.83136">
        <ele>170</ele>
        <time>2020-06-07T06:13:41.000Z</time>
      </trkpt>
      <trkpt lat="45.87874" lon="4.83128">
        <ele>170</ele>
        <time>2020-06-07T06:13:42.000Z</time>
      </trkpt>
      <trkpt lat="45.87875" lon="4.83119">
        <ele>169.9</ele>
        <time>2020-06-07T06:13:43.000Z</time>
      </trkpt>
      <trkpt lat="45.87875" lon="4.83111">
        <ele>169.9</ele>
        <time>2020-06-07T06:13:44.000Z</time>
      </trkpt>
      <trkpt lat="45.87876" lon="4.83102">
        <ele>169.8</ele>
        <time>2020-06-07T06:13:45.000Z</time>
      </trkpt>
      <trkpt lat="45.87877" lon="4.83093">
        <ele>169.8</ele>
        <time>2020-06-07T06:13:46.000Z</time>
      </trkpt>
      <trkpt lat="45.87878" lon="4.83085">
        <ele>169.8</ele>
        <time>2020-06-07T06:13:47.000Z</time>
      </trkpt>
      <trkpt lat="45.87879" lon="4.83076">
        <ele>169.7</ele>
        <time>2020-06-07T06:13:48.000Z</time>
      </trkpt>
      <trkpt lat="45.8788" lon="4.83067">
        <ele>169.7</ele>
        <time>2020-06-07T06:13:49.000Z</time>
      </trkpt>
      <trkpt lat="45.87881" lon="4.83059">
        <ele>169.7</ele>
        <time>2020-06-07T06:13:50.000Z</time>
      </trkpt>
      <trkpt lat="45.87882" lon="4.8305">
        <ele>169.7</ele>
        <time>2020-06-07T06:13:51.000Z</time>
      </trkpt>
      <trkpt lat="45.87883" lon="4.83042">
        <ele>169.7</ele>
        <time>2020-06-07T06:13:52.000Z</time>
      </trkpt>
      <trkpt lat="45.87884" lon="4.83033">
        <ele>169.7</ele>
        <time>2020-06-07T06:13:53.000Z</time>
      </trkpt>
      <trkpt lat="45.87885" lon="4.83025">
        <ele>169.7</ele>
        <time>2020-06-07T06:13:54.000Z</time>
      </trkpt>
      <trkpt lat="45.87886" lon="4.83017">
        <ele>169.7</ele>
        <time>2020-06-07T06:13:55.000Z</time>
      </trkpt>
      <trkpt lat="45.87887" lon="4.83009">
        <ele>169.7</ele>
        <time>2020-06-07T06:13:56.000Z</time>
      </trkpt>
      <trkpt lat="45.87888" lon="4.83001">
        <ele>169.7</ele>
        <time>2020-06-07T06:13:57.000Z</time>
      </trkpt>
      <trkpt lat="45.87889" lon="4.82993">
        <ele>169.7</ele>
        <time>2020-06-07T06:13:58.000Z</time>
      </trkpt>
      <trkpt lat="45.87889" lon="4.82985">
        <ele>169.7</ele>
        <time>2020-06-07T06:13:59.000Z</time>
      </trkpt>
      <trkpt lat="45.8789" lon="4.82977">
        <ele>169.7</ele>
        <time>2020-06-07T06:14:00.000Z</time>
      </trkpt>
      <trkpt lat="45.87891" lon="4.82969">
        <ele>169.8</ele>
        <time>2020-06-07T06:14:01.000Z</time>
      </trkpt>
      <trkpt lat="45.87892" lon="4.82961">
        <ele>169.8</ele>
        <time>2020-06-07T06:14:02.000Z</time>
      </trkpt>
      <trkpt lat="45.87893" lon="4.82953">
        <ele>169.8</ele>
        <time>2020-06-07T06:14:03.000Z</time>
      </trkpt>
      <trkpt lat="45.87893" lon="4.82945">
        <ele>169.8</ele>
        <time>2020-06-07T06:14:04.000Z</time>
      </trkpt>
      <trkpt lat="45.87894" lon="4.82937">
        <ele>169.8</ele>
        <time>2020-06-07T06:14:05.000Z</time>
      </trkpt>
      <trkpt lat="45.87894" lon="4.82928">
        <ele>169.9</ele>
        <time>2020-06-07T06:14:06.000Z</time>
      </trkpt>
      <trkpt lat="45.87894" lon="4.8292">
        <ele>169.9</ele>
        <time>2020-06-07T06:14:07.000Z</time>
      </trkpt>
      <trkpt lat="45.87894" lon="4.82911">
        <ele>169.9</ele>
        <time>2020-06-07T06:14:08.000Z</time>
      </trkpt>
      <trkpt lat="45.87894" lon="4.82903">
        <ele>169.9</ele>
        <time>2020-06-07T06:14:09.000Z</time>
      </trkpt>
      <trkpt lat="45.87894" lon="4.82894">
        <ele>169.9</ele>
        <time>2020-06-07T06:14:10.000Z</time>
      </trkpt>
      <trkpt lat="45.87894" lon="4.82886">
        <ele>170</ele>
        <time>2020-06-07T06:14:11.000Z</time>
      </trkpt>
      <trkpt lat="45.87894" lon="4.82878">
        <ele>170</ele>
        <time>2020-06-07T06:14:12.000Z</time>
      </trkpt>
      <trkpt lat="45.87893" lon="4.8287">
        <ele>170</ele>
        <time>2020-06-07T06:14:13.000Z</time>
      </trkpt>
      <trkpt lat="45.87893" lon="4.82862">
        <ele>169.9</ele>
        <time>2020-06-07T06:14:14.000Z</time>
      </trkpt>
      <trkpt lat="45.87893" lon="4.82854">
        <ele>169.9</ele>
        <time>2020-06-07T06:14:15.000Z</time>
      </trkpt>
      <trkpt lat="45.87893" lon="4.82846">
        <ele>169.9</ele>
        <time>2020-06-07T06:14:16.000Z</time>
      </trkpt>
      <trkpt lat="45.87893" lon="4.82838">
        <ele>169.9</ele>
        <time>2020-06-07T06:14:17.000Z</time>
      </trkpt>
      <trkpt lat="45.87892" lon="4.8283">
        <ele>169.9</ele>
        <time>2020-06-07T06:14:18.000Z</time>
      </trkpt>
      <trkpt lat="45.87891" lon="4.82823">
        <ele>169.9</ele>
        <time>2020-06-07T06:14:19.000Z</time>
      </trkpt>
      <trkpt lat="45.8789" lon="4.82815">
        <ele>169.9</ele>
        <time>2020-06-07T06:14:20.000Z</time>
      </trkpt>
      <trkpt lat="45.87889" lon="4.82807">
        <ele>169.9</ele>
        <time>2020-06-07T06:14:21.000Z</time>
      </trkpt>
      <trkpt lat="45.87887" lon="4.82799">
        <ele>169.9</ele>
        <time>2020-06-07T06:14:22.000Z</time>
      </trkpt>
      <trkpt lat="45.87886" lon="4.82791">
        <ele>169.9</ele>
        <time>2020-06-07T06:14:23.000Z</time>
      </trkpt>
      <trkpt lat="45.87885" lon="4.82782">
        <ele>169.9</ele>
        <time>2020-06-07T06:14:24.000Z</time>
      </trkpt>
      <trkpt lat="45.87884" lon="4.82774">
        <ele>169.9</ele>
        <time>2020-06-07T06:14:25.000Z</time>
      </trkpt>
      <trkpt lat="45.87882" lon="4.82767">
        <ele>169.9</ele>
        <time>2020-06-07T06:14:26.000Z</time>
      </trkpt>
      <trkpt lat="45.87881" lon="4.82759">
        <ele>169.9</ele>
        <time>2020-06-07T06:14:27.000Z</time>
      </trkpt>
      <trkpt lat="45.8788" lon="4.82752">
        <ele>170</ele>
        <time>2020-06-07T06:14:28.000Z</time>
      </trkpt>
      <trkpt lat="45.87877" lon="4.82746">
        <ele>170.1</ele>
        <time>2020-06-07T06:14:29.000Z</time>
      </trkpt>
      <trkpt lat="45.87873" lon="4.82741">
        <ele>170.4</ele>
        <time>2020-06-07T06:14:30.000Z</time>
      </trkpt>
      <trkpt lat="45.87869" lon="4.82738">
        <ele>170.6</ele>
        <time>2020-06-07T06:14:31.000Z</time>
      </trkpt>
      <trkpt lat="45.87865" lon="4.82736">
        <ele>170.9</ele>
        <time>2020-06-07T06:14:32.000Z</time>
      </trkpt>
      <trkpt lat="45.87861" lon="4.82734">
        <ele>171.1</ele>
        <time>2020-06-07T06:14:33.000Z</time>
      </trkpt>
      <trkpt lat="45.87857" lon="4.82732">
        <ele>171.3</ele>
        <time>2020-06-07T06:14:34.000Z</time>
      </trkpt>
      <trkpt lat="45.87854" lon="4.8273">
        <ele>171.7</ele>
        <time>2020-06-07T06:14:35.000Z</time>
      </trkpt>
      <trkpt lat="45.8785" lon="4.82728">
        <ele>171.8</ele>
        <time>2020-06-07T06:14:36.000Z</time>
      </trkpt>
      <trkpt lat="45.87847" lon="4.82726">
        <ele>171.9</ele>
        <time>2020-06-07T06:14:37.000Z</time>
      </trkpt>
      <trkpt lat="45.87843" lon="4.82724">
        <ele>172</ele>
        <time>2020-06-07T06:14:38.000Z</time>
      </trkpt>
      <trkpt lat="45.87839" lon="4.82722">
        <ele>172.1</ele>
        <time>2020-06-07T06:14:39.000Z</time>
      </trkpt>
      <trkpt lat="45.87835" lon="4.82721">
        <ele>172.2</ele>
        <time>2020-06-07T06:14:40.000Z</time>
      </trkpt>
      <trkpt lat="45.87832" lon="4.82721">
        <ele>172.3</ele>
        <time>2020-06-07T06:14:41.000Z</time>
      </trkpt>
      <trkpt lat="45.87828" lon="4.82722">
        <ele>172.4</ele>
        <time>2020-06-07T06:14:42.000Z</time>
      </trkpt>
      <trkpt lat="45.87823" lon="4.82723">
        <ele>172.5</ele>
        <time>2020-06-07T06:14:43.000Z</time>
      </trkpt>
      <trkpt lat="45.87819" lon="4.82724">
        <ele>172.6</ele>
        <time>2020-06-07T06:14:44.000Z</time>
      </trkpt>
      <trkpt lat="45.87815" lon="4.82725">
        <ele>172.8</ele>
        <time>2020-06-07T06:14:45.000Z</time>
      </trkpt>
      <trkpt lat="45.87811" lon="4.82727">
        <ele>172.9</ele>
        <time>2020-06-07T06:14:46.000Z</time>
      </trkpt>
      <trkpt lat="45.87806" lon="4.82729">
        <ele>173</ele>
        <time>2020-06-07T06:14:47.000Z</time>
      </trkpt>
      <trkpt lat="45.87802" lon="4.82731">
        <ele>173.1</ele>
        <time>2020-06-07T06:14:48.000Z</time>
      </trkpt>
      <trkpt lat="45.87798" lon="4.82732">
        <ele>173.2</ele>
        <time>2020-06-07T06:14:49.000Z</time>
      </trkpt>
      <trkpt lat="45.87794" lon="4.82734">
        <ele>173.3</ele>
        <time>2020-06-07T06:14:50.000Z</time>
      </trkpt>
      <trkpt lat="45.8779" lon="4.82736">
        <ele>173.4</ele>
        <time>2020-06-07T06:14:51.000Z</time>
      </trkpt>
      <trkpt lat="45.87786" lon="4.82736">
        <ele>173.5</ele>
        <time>2020-06-07T06:14:52.000Z</time>
      </trkpt>
      <trkpt lat="45.87781" lon="4.82737">
        <ele>173.7</ele>
        <time>2020-06-07T06:14:53.000Z</time>
      </trkpt>
      <trkpt lat="45.87777" lon="4.82737">
        <ele>173.9</ele>
        <time>2020-06-07T06:14:54.000Z</time>
      </trkpt>
      <trkpt lat="45.87773" lon="4.82738">
        <ele>174.1</ele>
        <time>2020-06-07T06:14:55.000Z</time>
      </trkpt>
      <trkpt lat="45.8777" lon="4.82737">
        <ele>174.3</ele>
        <time>2020-06-07T06:14:56.000Z</time>
      </trkpt>
      <trkpt lat="45.87766" lon="4.82736">
        <ele>174.4</ele>
        <time>2020-06-07T06:14:57.000Z</time>
      </trkpt>
      <trkpt lat="45.87762" lon="4.82735">
        <ele>174.6</ele>
        <time>2020-06-07T06:14:58.000Z</time>
      </trkpt>
      <trkpt lat="45.87758" lon="4.82733">
        <ele>174.9</ele>
        <time>2020-06-07T06:14:59.000Z</time>
      </trkpt>
      <trkpt lat="45.87753" lon="4.82731">
        <ele>175.1</ele>
        <time>2020-06-07T06:15:00.000Z</time>
      </trkpt>
      <trkpt lat="45.8775" lon="4.82729">
        <ele>175.2</ele>
        <time>2020-06-07T06:15:01.000Z</time>
      </trkpt>
      <trkpt lat="45.87747" lon="4.82727">
        <ele>175.4</ele>
        <time>2020-06-07T06:15:02.000Z</time>
      </trkpt>
      <trkpt lat="45.87743" lon="4.82726">
        <ele>175.5</ele>
        <time>2020-06-07T06:15:03.000Z</time>
      </trkpt>
      <trkpt lat="45.87739" lon="4.82724">
        <ele>175.7</ele>
        <time>2020-06-07T06:15:04.000Z</time>
      </trkpt>
      <trkpt lat="45.87736" lon="4.82722">
        <ele>175.8</ele>
        <time>2020-06-07T06:15:05.000Z</time>
      </trkpt>
      <trkpt lat="45.87733" lon="4.8272">
        <ele>175.9</ele>
        <time>2020-06-07T06:15:06.000Z</time>
      </trkpt>
      <trkpt lat="45.8773" lon="4.82718">
        <ele>176</ele>
        <time>2020-06-07T06:15:07.000Z</time>
      </trkpt>
      <trkpt lat="45.87728" lon="4.82716">
        <ele>176.2</ele>
        <time>2020-06-07T06:15:08.000Z</time>
      </trkpt>
      <trkpt lat="45.87724" lon="4.82714">
        <ele>176.3</ele>
        <time>2020-06-07T06:15:09.000Z</time>
      </trkpt>
      <trkpt lat="45.87721" lon="4.82712">
        <ele>176.5</ele>
        <time>2020-06-07T06:15:10.000Z</time>
      </trkpt>
      <trkpt lat="45.87718" lon="4.8271">
        <ele>176.7</ele>
        <time>2020-06-07T06:15:11.000Z</time>
      </trkpt>
      <trkpt lat="45.87714" lon="4.82707">
        <ele>176.9</ele>
        <time>2020-06-07T06:15:12.000Z</time>
      </trkpt>
      <trkpt lat="45.8771" lon="4.82705">
        <ele>177</ele>
        <time>2020-06-07T06:15:13.000Z</time>
      </trkpt>
      <trkpt lat="45.87707" lon="4.82703">
        <ele>177.2</ele>
        <time>2020-06-07T06:15:14.000Z</time>
      </trkpt>
      <trkpt lat="45.87704" lon="4.82701">
        <ele>177.3</ele>
        <time>2020-06-07T06:15:15.000Z</time>
      </trkpt>
      <trkpt lat="45.877" lon="4.82699">
        <ele>177.5</ele>
        <time>2020-06-07T06:15:16.000Z</time>
      </trkpt>
      <trkpt lat="45.87696" lon="4.82697">
        <ele>177.6</ele>
        <time>2020-06-07T06:15:17.000Z</time>
      </trkpt>
      <trkpt lat="45.87692" lon="4.82695">
        <ele>177.8</ele>
        <time>2020-06-07T06:15:18.000Z</time>
      </trkpt>
      <trkpt lat="45.87685" lon="4.82692">
        <ele>178.4</ele>
        <time>2020-06-07T06:15:19.000Z</time>
      </trkpt>
      <trkpt lat="45.87681" lon="4.8269">
        <ele>178.5</ele>
        <time>2020-06-07T06:15:20.000Z</time>
      </trkpt>
      <trkpt lat="45.87676" lon="4.82688">
        <ele>178.5</ele>
        <time>2020-06-07T06:15:21.000Z</time>
      </trkpt>
      <trkpt lat="45.87672" lon="4.82686">
        <ele>178.6</ele>
        <time>2020-06-07T06:15:22.000Z</time>
      </trkpt>
      <trkpt lat="45.87668" lon="4.82685">
        <ele>178.7</ele>
        <time>2020-06-07T06:15:23.000Z</time>
      </trkpt>
      <trkpt lat="45.87663" lon="4.82683">
        <ele>178.7</ele>
        <time>2020-06-07T06:15:24.000Z</time>
      </trkpt>
      <trkpt lat="45.87659" lon="4.82681">
        <ele>178.8</ele>
        <time>2020-06-07T06:15:25.000Z</time>
      </trkpt>
      <trkpt lat="45.87655" lon="4.8268">
        <ele>178.9</ele>
        <time>2020-06-07T06:15:26.000Z</time>
      </trkpt>
      <trkpt lat="45.87651" lon="4.82678">
        <ele>179</ele>
        <time>2020-06-07T06:15:27.000Z</time>
      </trkpt>
      <trkpt lat="45.87647" lon="4.82675">
        <ele>179.1</ele>
        <time>2020-06-07T06:15:28.000Z</time>
      </trkpt>
      <trkpt lat="45.87644" lon="4.82672">
        <ele>179.3</ele>
        <time>2020-06-07T06:15:29.000Z</time>
      </trkpt>
      <trkpt lat="45.8764" lon="4.82669">
        <ele>179.4</ele>
        <time>2020-06-07T06:15:30.000Z</time>
      </trkpt>
      <trkpt lat="45.87636" lon="4.82667">
        <ele>179.5</ele>
        <time>2020-06-07T06:15:31.000Z</time>
      </trkpt>
      <trkpt lat="45.87633" lon="4.82664">
        <ele>179.6</ele>
        <time>2020-06-07T06:15:32.000Z</time>
      </trkpt>
      <trkpt lat="45.87629" lon="4.82661">
        <ele>179.8</ele>
        <time>2020-06-07T06:15:33.000Z</time>
      </trkpt>
      <trkpt lat="45.87625" lon="4.82658">
        <ele>179.9</ele>
        <time>2020-06-07T06:15:34.000Z</time>
      </trkpt>
      <trkpt lat="45.87622" lon="4.82655">
        <ele>180</ele>
        <time>2020-06-07T06:15:35.000Z</time>
      </trkpt>
      <trkpt lat="45.8762" lon="4.82652">
        <ele>180.2</ele>
        <time>2020-06-07T06:15:36.000Z</time>
      </trkpt>
      <trkpt lat="45.87616" lon="4.8265">
        <ele>180.3</ele>
        <time>2020-06-07T06:15:37.000Z</time>
      </trkpt>
      <trkpt lat="45.87613" lon="4.82648">
        <ele>180.4</ele>
        <time>2020-06-07T06:15:38.000Z</time>
      </trkpt>
      <trkpt lat="45.8761" lon="4.82645">
        <ele>180.6</ele>
        <time>2020-06-07T06:15:39.000Z</time>
      </trkpt>
      <trkpt lat="45.87607" lon="4.82643">
        <ele>180.8</ele>
        <time>2020-06-07T06:15:40.000Z</time>
      </trkpt>
      <trkpt lat="45.87603" lon="4.82641">
        <ele>181</ele>
        <time>2020-06-07T06:15:41.000Z</time>
      </trkpt>
      <trkpt lat="45.87599" lon="4.82638">
        <ele>181.3</ele>
        <time>2020-06-07T06:15:42.000Z</time>
      </trkpt>
      <trkpt lat="45.87596" lon="4.82636">
        <ele>181.5</ele>
        <time>2020-06-07T06:15:43.000Z</time>
      </trkpt>
      <trkpt lat="45.87592" lon="4.82633">
        <ele>181.7</ele>
        <time>2020-06-07T06:15:44.000Z</time>
      </trkpt>
      <trkpt lat="45.87588" lon="4.82631">
        <ele>182</ele>
        <time>2020-06-07T06:15:45.000Z</time>
      </trkpt>
      <trkpt lat="45.87585" lon="4.82629">
        <ele>182.2</ele>
        <time>2020-06-07T06:15:46.000Z</time>
      </trkpt>
      <trkpt lat="45.87582" lon="4.82627">
        <ele>182.5</ele>
        <time>2020-06-07T06:15:47.000Z</time>
      </trkpt>
      <trkpt lat="45.87579" lon="4.82624">
        <ele>182.7</ele>
        <time>2020-06-07T06:15:48.000Z</time>
      </trkpt>
      <trkpt lat="45.87576" lon="4.82623">
        <ele>182.9</ele>
        <time>2020-06-07T06:15:49.000Z</time>
      </trkpt>
      <trkpt lat="45.87573" lon="4.82621">
        <ele>183.1</ele>
        <time>2020-06-07T06:15:50.000Z</time>
      </trkpt>
      <trkpt lat="45.8757" lon="4.82619">
        <ele>183.3</ele>
        <time>2020-06-07T06:15:51.000Z</time>
      </trkpt>
      <trkpt lat="45.87566" lon="4.82617">
        <ele>183.5</ele>
        <time>2020-06-07T06:15:52.000Z</time>
      </trkpt>
      <trkpt lat="45.87563" lon="4.82615">
        <ele>183.7</ele>
        <time>2020-06-07T06:15:53.000Z</time>
      </trkpt>
      <trkpt lat="45.8756" lon="4.82613">
        <ele>183.9</ele>
        <time>2020-06-07T06:15:54.000Z</time>
      </trkpt>
      <trkpt lat="45.87557" lon="4.82611">
        <ele>184.1</ele>
        <time>2020-06-07T06:15:55.000Z</time>
      </trkpt>
      <trkpt lat="45.87555" lon="4.82609">
        <ele>184.2</ele>
        <time>2020-06-07T06:15:56.000Z</time>
      </trkpt>
      <trkpt lat="45.87553" lon="4.82606">
        <ele>184.5</ele>
        <time>2020-06-07T06:15:57.000Z</time>
      </trkpt>
      <trkpt lat="45.8755" lon="4.82603">
        <ele>184.7</ele>
        <time>2020-06-07T06:15:58.000Z</time>
      </trkpt>
      <trkpt lat="45.87547" lon="4.82599">
        <ele>185</ele>
        <time>2020-06-07T06:15:59.000Z</time>
      </trkpt>
      <trkpt lat="45.87541" lon="4.82597">
        <ele>185.6</ele>
        <time>2020-06-07T06:16:00.000Z</time>
      </trkpt>
      <trkpt lat="45.87536" lon="4.82594">
        <ele>186</ele>
        <time>2020-06-07T06:16:01.000Z</time>
      </trkpt>
      <trkpt lat="45.87533" lon="4.82591">
        <ele>186.3</ele>
        <time>2020-06-07T06:16:02.000Z</time>
      </trkpt>
      <trkpt lat="45.8753" lon="4.82587">
        <ele>186.6</ele>
        <time>2020-06-07T06:16:03.000Z</time>
      </trkpt>
      <trkpt lat="45.87527" lon="4.82584">
        <ele>186.9</ele>
        <time>2020-06-07T06:16:04.000Z</time>
      </trkpt>
      <trkpt lat="45.87524" lon="4.8258">
        <ele>187.2</ele>
        <time>2020-06-07T06:16:05.000Z</time>
      </trkpt>
      <trkpt lat="45.8752" lon="4.82577">
        <ele>187.6</ele>
        <time>2020-06-07T06:16:06.000Z</time>
      </trkpt>
      <trkpt lat="45.87517" lon="4.82574">
        <ele>187.8</ele>
        <time>2020-06-07T06:16:07.000Z</time>
      </trkpt>
      <trkpt lat="45.87514" lon="4.8257">
        <ele>188.4</ele>
        <time>2020-06-07T06:16:08.000Z</time>
      </trkpt>
      <trkpt lat="45.87512" lon="4.82567">
        <ele>188.6</ele>
        <time>2020-06-07T06:16:09.000Z</time>
      </trkpt>
      <trkpt lat="45.8751" lon="4.82563">
        <ele>188.8</ele>
        <time>2020-06-07T06:16:10.000Z</time>
      </trkpt>
      <trkpt lat="45.87507" lon="4.82559">
        <ele>189</ele>
        <time>2020-06-07T06:16:11.000Z</time>
      </trkpt>
      <trkpt lat="45.87506" lon="4.82555">
        <ele>189.3</ele>
        <time>2020-06-07T06:16:12.000Z</time>
      </trkpt>
      <trkpt lat="45.87503" lon="4.82552">
        <ele>189.5</ele>
        <time>2020-06-07T06:16:13.000Z</time>
      </trkpt>
      <trkpt lat="45.87501" lon="4.82548">
        <ele>189.7</ele>
        <time>2020-06-07T06:16:14.000Z</time>
      </trkpt>
      <trkpt lat="45.87499" lon="4.82544">
        <ele>189.9</ele>
        <time>2020-06-07T06:16:15.000Z</time>
      </trkpt>
      <trkpt lat="45.87497" lon="4.82541">
        <ele>190.1</ele>
        <time>2020-06-07T06:16:16.000Z</time>
      </trkpt>
      <trkpt lat="45.87494" lon="4.82538">
        <ele>190.3</ele>
        <time>2020-06-07T06:16:17.000Z</time>
      </trkpt>
      <trkpt lat="45.8749" lon="4.82535">
        <ele>190.5</ele>
        <time>2020-06-07T06:16:18.000Z</time>
      </trkpt>
      <trkpt lat="45.87486" lon="4.82533">
        <ele>190.8</ele>
        <time>2020-06-07T06:16:19.000Z</time>
      </trkpt>
      <trkpt lat="45.87482" lon="4.8253">
        <ele>191.2</ele>
        <time>2020-06-07T06:16:20.000Z</time>
      </trkpt>
      <trkpt lat="45.87479" lon="4.82528">
        <ele>191.3</ele>
        <time>2020-06-07T06:16:21.000Z</time>
      </trkpt>
      <trkpt lat="45.87476" lon="4.82527">
        <ele>191.5</ele>
        <time>2020-06-07T06:16:22.000Z</time>
      </trkpt>
      <trkpt lat="45.87473" lon="4.82525">
        <ele>191.6</ele>
        <time>2020-06-07T06:16:23.000Z</time>
      </trkpt>
      <trkpt lat="45.87469" lon="4.82523">
        <ele>191.8</ele>
        <time>2020-06-07T06:16:24.000Z</time>
      </trkpt>
      <trkpt lat="45.87465" lon="4.82522">
        <ele>191.9</ele>
        <time>2020-06-07T06:16:25.000Z</time>
      </trkpt>
      <trkpt lat="45.87461" lon="4.82521">
        <ele>192.4</ele>
        <time>2020-06-07T06:16:26.000Z</time>
      </trkpt>
      <trkpt lat="45.87457" lon="4.8252">
        <ele>192.7</ele>
        <time>2020-06-07T06:16:27.000Z</time>
      </trkpt>
      <trkpt lat="45.87454" lon="4.82518">
        <ele>193</ele>
        <time>2020-06-07T06:16:28.000Z</time>
      </trkpt>
      <trkpt lat="45.87452" lon="4.82516">
        <ele>193.2</ele>
        <time>2020-06-07T06:16:29.000Z</time>
      </trkpt>
      <trkpt lat="45.8745" lon="4.82513">
        <ele>193.4</ele>
        <time>2020-06-07T06:16:30.000Z</time>
      </trkpt>
      <trkpt lat="45.87448" lon="4.8251">
        <ele>193.6</ele>
        <time>2020-06-07T06:16:31.000Z</time>
      </trkpt>
      <trkpt lat="45.87446" lon="4.82507">
        <ele>193.8</ele>
        <time>2020-06-07T06:16:32.000Z</time>
      </trkpt>
      <trkpt lat="45.87444" lon="4.82503">
        <ele>194</ele>
        <time>2020-06-07T06:16:33.000Z</time>
      </trkpt>
      <trkpt lat="45.87441" lon="4.82499">
        <ele>194.3</ele>
        <time>2020-06-07T06:16:34.000Z</time>
      </trkpt>
      <trkpt lat="45.87439" lon="4.82495">
        <ele>194.5</ele>
        <time>2020-06-07T06:16:35.000Z</time>
      </trkpt>
      <trkpt lat="45.87436" lon="4.82491">
        <ele>194.8</ele>
        <time>2020-06-07T06:16:36.000Z</time>
      </trkpt>
      <trkpt lat="45.87433" lon="4.82487">
        <ele>195</ele>
        <time>2020-06-07T06:16:37.000Z</time>
      </trkpt>
      <trkpt lat="45.8743" lon="4.82484">
        <ele>195.2</ele>
        <time>2020-06-07T06:16:38.000Z</time>
      </trkpt>
      <trkpt lat="45.87428" lon="4.8248">
        <ele>195.4</ele>
        <time>2020-06-07T06:16:39.000Z</time>
      </trkpt>
      <trkpt lat="45.87426" lon="4.82476">
        <ele>195.6</ele>
        <time>2020-06-07T06:16:40.000Z</time>
      </trkpt>
      <trkpt lat="45.87422" lon="4.82474">
        <ele>195.9</ele>
        <time>2020-06-07T06:16:41.000Z</time>
      </trkpt>
      <trkpt lat="45.87418" lon="4.82471">
        <ele>196.1</ele>
        <time>2020-06-07T06:16:42.000Z</time>
      </trkpt>
      <trkpt lat="45.87416" lon="4.82468">
        <ele>196.3</ele>
        <time>2020-06-07T06:16:43.000Z</time>
      </trkpt>
      <trkpt lat="45.87414" lon="4.82464">
        <ele>196.4</ele>
        <time>2020-06-07T06:16:44.000Z</time>
      </trkpt>
      <trkpt lat="45.87412" lon="4.82461">
        <ele>196.6</ele>
        <time>2020-06-07T06:16:45.000Z</time>
      </trkpt>
      <trkpt lat="45.87408" lon="4.82457">
        <ele>196.8</ele>
        <time>2020-06-07T06:16:46.000Z</time>
      </trkpt>
      <trkpt lat="45.87405" lon="4.82454">
        <ele>197</ele>
        <time>2020-06-07T06:16:47.000Z</time>
      </trkpt>
      <trkpt lat="45.87401" lon="4.82451">
        <ele>197.2</ele>
        <time>2020-06-07T06:16:48.000Z</time>
      </trkpt>
      <trkpt lat="45.87399" lon="4.82447">
        <ele>197.4</ele>
        <time>2020-06-07T06:16:49.000Z</time>
      </trkpt>
      <trkpt lat="45.87396" lon="4.82444">
        <ele>197.6</ele>
        <time>2020-06-07T06:16:50.000Z</time>
      </trkpt>
      <trkpt lat="45.87393" lon="4.8244">
        <ele>197.8</ele>
        <time>2020-06-07T06:16:51.000Z</time>
      </trkpt>
      <trkpt lat="45.87391" lon="4.82436">
        <ele>197.9</ele>
        <time>2020-06-07T06:16:52.000Z</time>
      </trkpt>
      <trkpt lat="45.87388" lon="4.82432">
        <ele>198.1</ele>
        <time>2020-06-07T06:16:53.000Z</time>
      </trkpt>
      <trkpt lat="45.87385" lon="4.82428">
        <ele>198.2</ele>
        <time>2020-06-07T06:16:54.000Z</time>
      </trkpt>
      <trkpt lat="45.87383" lon="4.82424">
        <ele>198.3</ele>
        <time>2020-06-07T06:16:55.000Z</time>
      </trkpt>
      <trkpt lat="45.8738" lon="4.82421">
        <ele>198.4</ele>
        <time>2020-06-07T06:16:56.000Z</time>
      </trkpt>
      <trkpt lat="45.87377" lon="4.82417">
        <ele>198.5</ele>
        <time>2020-06-07T06:16:57.000Z</time>
      </trkpt>
      <trkpt lat="45.87373" lon="4.82415">
        <ele>198.6</ele>
        <time>2020-06-07T06:16:58.000Z</time>
      </trkpt>
      <trkpt lat="45.8737" lon="4.82412">
        <ele>198.7</ele>
        <time>2020-06-07T06:16:59.000Z</time>
      </trkpt>
      <trkpt lat="45.87367" lon="4.82409">
        <ele>198.9</ele>
        <time>2020-06-07T06:17:00.000Z</time>
      </trkpt>
      <trkpt lat="45.87364" lon="4.82406">
        <ele>199</ele>
        <time>2020-06-07T06:17:01.000Z</time>
      </trkpt>
      <trkpt lat="45.87361" lon="4.82402">
        <ele>199.1</ele>
        <time>2020-06-07T06:17:02.000Z</time>
      </trkpt>
      <trkpt lat="45.87357" lon="4.82399">
        <ele>199.2</ele>
        <time>2020-06-07T06:17:03.000Z</time>
      </trkpt>
      <trkpt lat="45.87355" lon="4.82395">
        <ele>199.3</ele>
        <time>2020-06-07T06:17:04.000Z</time>
      </trkpt>
      <trkpt lat="45.87352" lon="4.82392">
        <ele>199.4</ele>
        <time>2020-06-07T06:17:05.000Z</time>
      </trkpt>
      <trkpt lat="45.87348" lon="4.82388">
        <ele>199.5</ele>
        <time>2020-06-07T06:17:06.000Z</time>
      </trkpt>
      <trkpt lat="45.87345" lon="4.82384">
        <ele>199.6</ele>
        <time>2020-06-07T06:17:07.000Z</time>
      </trkpt>
      <trkpt lat="45.87342" lon="4.8238">
        <ele>199.7</ele>
        <time>2020-06-07T06:17:08.000Z</time>
      </trkpt>
      <trkpt lat="45.8734" lon="4.82377">
        <ele>199.7</ele>
        <time>2020-06-07T06:17:09.000Z</time>
      </trkpt>
      <trkpt lat="45.87337" lon="4.82374">
        <ele>199.8</ele>
        <time>2020-06-07T06:17:10.000Z</time>
      </trkpt>
      <trkpt lat="45.87334" lon="4.8237">
        <ele>199.9</ele>
        <time>2020-06-07T06:17:11.000Z</time>
      </trkpt>
      <trkpt lat="45.87331" lon="4.82367">
        <ele>199.9</ele>
        <time>2020-06-07T06:17:12.000Z</time>
      </trkpt>
      <trkpt lat="45.87328" lon="4.82363">
        <ele>200</ele>
        <time>2020-06-07T06:17:13.000Z</time>
      </trkpt>
      <trkpt lat="45.87326" lon="4.82359">
        <ele>200</ele>
        <time>2020-06-07T06:17:14.000Z</time>
      </trkpt>
      <trkpt lat="45.87323" lon="4.82356">
        <ele>200.1</ele>
        <time>2020-06-07T06:17:15.000Z</time>
      </trkpt>
      <trkpt lat="45.8732" lon="4.82353">
        <ele>200.2</ele>
        <time>2020-06-07T06:17:16.000Z</time>
      </trkpt>
      <trkpt lat="45.87316" lon="4.8235">
        <ele>200.4</ele>
        <time>2020-06-07T06:17:17.000Z</time>
      </trkpt>
      <trkpt lat="45.87313" lon="4.82346">
        <ele>200.4</ele>
        <time>2020-06-07T06:17:18.000Z</time>
      </trkpt>
      <trkpt lat="45.8731" lon="4.82343">
        <ele>200.5</ele>
        <time>2020-06-07T06:17:19.000Z</time>
      </trkpt>
      <trkpt lat="45.87308" lon="4.82339">
        <ele>200.6</ele>
        <time>2020-06-07T06:17:20.000Z</time>
      </trkpt>
      <trkpt lat="45.87305" lon="4.82336">
        <ele>200.7</ele>
        <time>2020-06-07T06:17:21.000Z</time>
      </trkpt>
      <trkpt lat="45.87302" lon="4.82332">
        <ele>200.7</ele>
        <time>2020-06-07T06:17:22.000Z</time>
      </trkpt>
      <trkpt lat="45.873" lon="4.82329">
        <ele>200.8</ele>
        <time>2020-06-07T06:17:23.000Z</time>
      </trkpt>
      <trkpt lat="45.87297" lon="4.82325">
        <ele>200.9</ele>
        <time>2020-06-07T06:17:24.000Z</time>
      </trkpt>
      <trkpt lat="45.87294" lon="4.82321">
        <ele>201</ele>
        <time>2020-06-07T06:17:25.000Z</time>
      </trkpt>
      <trkpt lat="45.8729" lon="4.82317">
        <ele>201</ele>
        <time>2020-06-07T06:17:26.000Z</time>
      </trkpt>
      <trkpt lat="45.87287" lon="4.82313">
        <ele>201.1</ele>
        <time>2020-06-07T06:17:27.000Z</time>
      </trkpt>
      <trkpt lat="45.87284" lon="4.82309">
        <ele>201.2</ele>
        <time>2020-06-07T06:17:28.000Z</time>
      </trkpt>
      <trkpt lat="45.8728" lon="4.82305">
        <ele>201.4</ele>
        <time>2020-06-07T06:17:29.000Z</time>
      </trkpt>
      <trkpt lat="45.87278" lon="4.82301">
        <ele>201.5</ele>
        <time>2020-06-07T06:17:30.000Z</time>
      </trkpt>
      <trkpt lat="45.87275" lon="4.82296">
        <ele>201.7</ele>
        <time>2020-06-07T06:17:31.000Z</time>
      </trkpt>
      <trkpt lat="45.87272" lon="4.82292">
        <ele>201.8</ele>
        <time>2020-06-07T06:17:32.000Z</time>
      </trkpt>
      <trkpt lat="45.87269" lon="4.82287">
        <ele>201.9</ele>
        <time>2020-06-07T06:17:33.000Z</time>
      </trkpt>
      <trkpt lat="45.87267" lon="4.82283">
        <ele>202</ele>
        <time>2020-06-07T06:17:34.000Z</time>
      </trkpt>
      <trkpt lat="45.87264" lon="4.82278">
        <ele>202</ele>
        <time>2020-06-07T06:17:35.000Z</time>
      </trkpt>
      <trkpt lat="45.87261" lon="4.82273">
        <ele>202.1</ele>
        <time>2020-06-07T06:17:36.000Z</time>
      </trkpt>
      <trkpt lat="45.87259" lon="4.82268">
        <ele>202.2</ele>
        <time>2020-06-07T06:17:37.000Z</time>
      </trkpt>
      <trkpt lat="45.87257" lon="4.82263">
        <ele>202.3</ele>
        <time>2020-06-07T06:17:38.000Z</time>
      </trkpt>
      <trkpt lat="45.87255" lon="4.82258">
        <ele>202.5</ele>
        <time>2020-06-07T06:17:39.000Z</time>
      </trkpt>
      <trkpt lat="45.87254" lon="4.82252">
        <ele>202.7</ele>
        <time>2020-06-07T06:17:40.000Z</time>
      </trkpt>
      <trkpt lat="45.87251" lon="4.82248">
        <ele>202.8</ele>
        <time>2020-06-07T06:17:41.000Z</time>
      </trkpt>
      <trkpt lat="45.87249" lon="4.82243">
        <ele>202.9</ele>
        <time>2020-06-07T06:17:42.000Z</time>
      </trkpt>
      <trkpt lat="45.87247" lon="4.82238">
        <ele>203</ele>
        <time>2020-06-07T06:17:43.000Z</time>
      </trkpt>
      <trkpt lat="45.87246" lon="4.82233">
        <ele>203.1</ele>
        <time>2020-06-07T06:17:44.000Z</time>
      </trkpt>
      <trkpt lat="45.87244" lon="4.82228">
        <ele>203.2</ele>
        <time>2020-06-07T06:17:45.000Z</time>
      </trkpt>
      <trkpt lat="45.87242" lon="4.82223">
        <ele>203.3</ele>
        <time>2020-06-07T06:17:46.000Z</time>
      </trkpt>
      <trkpt lat="45.8724" lon="4.82218">
        <ele>203.4</ele>
        <time>2020-06-07T06:17:47.000Z</time>
      </trkpt>
      <trkpt lat="45.87239" lon="4.82213">
        <ele>203.5</ele>
        <time>2020-06-07T06:17:48.000Z</time>
      </trkpt>
      <trkpt lat="45.87237" lon="4.82208">
        <ele>203.7</ele>
        <time>2020-06-07T06:17:49.000Z</time>
      </trkpt>
      <trkpt lat="45.87236" lon="4.82203">
        <ele>203.8</ele>
        <time>2020-06-07T06:17:50.000Z</time>
      </trkpt>
      <trkpt lat="45.87234" lon="4.82199">
        <ele>203.9</ele>
        <time>2020-06-07T06:17:51.000Z</time>
      </trkpt>
      <trkpt lat="45.87233" lon="4.82194">
        <ele>204</ele>
        <time>2020-06-07T06:17:52.000Z</time>
      </trkpt>
      <trkpt lat="45.87231" lon="4.82191">
        <ele>204.1</ele>
        <time>2020-06-07T06:17:53.000Z</time>
      </trkpt>
      <trkpt lat="45.87229" lon="4.82187">
        <ele>204.3</ele>
        <time>2020-06-07T06:17:54.000Z</time>
      </trkpt>
      <trkpt lat="45.87226" lon="4.82184">
        <ele>204.4</ele>
        <time>2020-06-07T06:17:55.000Z</time>
      </trkpt>
      <trkpt lat="45.87224" lon="4.82181">
        <ele>204.6</ele>
        <time>2020-06-07T06:17:56.000Z</time>
      </trkpt>
      <trkpt lat="45.87222" lon="4.82179">
        <ele>204.7</ele>
        <time>2020-06-07T06:17:57.000Z</time>
      </trkpt>
      <trkpt lat="45.87219" lon="4.82176">
        <ele>204.8</ele>
        <time>2020-06-07T06:17:58.000Z</time>
      </trkpt>
      <trkpt lat="45.87216" lon="4.82174">
        <ele>205</ele>
        <time>2020-06-07T06:17:59.000Z</time>
      </trkpt>
      <trkpt lat="45.87214" lon="4.82172">
        <ele>205.1</ele>
        <time>2020-06-07T06:18:00.000Z</time>
      </trkpt>
      <trkpt lat="45.87211" lon="4.8217">
        <ele>205.3</ele>
        <time>2020-06-07T06:18:01.000Z</time>
      </trkpt>
      <trkpt lat="45.87208" lon="4.82168">
        <ele>205.4</ele>
        <time>2020-06-07T06:18:02.000Z</time>
      </trkpt>
      <trkpt lat="45.87205" lon="4.82166">
        <ele>205.6</ele>
        <time>2020-06-07T06:18:03.000Z</time>
      </trkpt>
      <trkpt lat="45.87201" lon="4.82165">
        <ele>205.7</ele>
        <time>2020-06-07T06:18:04.000Z</time>
      </trkpt>
      <trkpt lat="45.87198" lon="4.82163">
        <ele>205.9</ele>
        <time>2020-06-07T06:18:05.000Z</time>
      </trkpt>
      <trkpt lat="45.87195" lon="4.8216">
        <ele>206</ele>
        <time>2020-06-07T06:18:06.000Z</time>
      </trkpt>
      <trkpt lat="45.87192" lon="4.82158">
        <ele>206.2</ele>
        <time>2020-06-07T06:18:07.000Z</time>
      </trkpt>
      <trkpt lat="45.87189" lon="4.82156">
        <ele>206.3</ele>
        <time>2020-06-07T06:18:08.000Z</time>
      </trkpt>
      <trkpt lat="45.87185" lon="4.82153">
        <ele>206.2</ele>
        <time>2020-06-07T06:18:09.000Z</time>
      </trkpt>
      <trkpt lat="45.87182" lon="4.82151">
        <ele>206.2</ele>
        <time>2020-06-07T06:18:10.000Z</time>
      </trkpt>
      <trkpt lat="45.87179" lon="4.82148">
        <ele>206.2</ele>
        <time>2020-06-07T06:18:11.000Z</time>
      </trkpt>
      <trkpt lat="45.87176" lon="4.82146">
        <ele>206.1</ele>
        <time>2020-06-07T06:18:12.000Z</time>
      </trkpt>
      <trkpt lat="45.87173" lon="4.82145">
        <ele>206.1</ele>
        <time>2020-06-07T06:18:13.000Z</time>
      </trkpt>
      <trkpt lat="45.87169" lon="4.82144">
        <ele>206.1</ele>
        <time>2020-06-07T06:18:14.000Z</time>
      </trkpt>
      <trkpt lat="45.87166" lon="4.82142">
        <ele>206</ele>
        <time>2020-06-07T06:18:15.000Z</time>
      </trkpt>
      <trkpt lat="45.87164" lon="4.82139">
        <ele>206</ele>
        <time>2020-06-07T06:18:16.000Z</time>
      </trkpt>
      <trkpt lat="45.87161" lon="4.82135">
        <ele>206.2</ele>
        <time>2020-06-07T06:18:17.000Z</time>
      </trkpt>
      <trkpt lat="45.87159" lon="4.82132">
        <ele>206.4</ele>
        <time>2020-06-07T06:18:18.000Z</time>
      </trkpt>
      <trkpt lat="45.87158" lon="4.82128">
        <ele>206.6</ele>
        <time>2020-06-07T06:18:19.000Z</time>
      </trkpt>
      <trkpt lat="45.87155" lon="4.82125">
        <ele>206.8</ele>
        <time>2020-06-07T06:18:20.000Z</time>
      </trkpt>
      <trkpt lat="45.87153" lon="4.82121">
        <ele>207</ele>
        <time>2020-06-07T06:18:21.000Z</time>
      </trkpt>
      <trkpt lat="45.8715" lon="4.82119">
        <ele>207.2</ele>
        <time>2020-06-07T06:18:22.000Z</time>
      </trkpt>
      <trkpt lat="45.87148" lon="4.82116">
        <ele>207.3</ele>
        <time>2020-06-07T06:18:23.000Z</time>
      </trkpt>
      <trkpt lat="45.87144" lon="4.82114">
        <ele>207.6</ele>
        <time>2020-06-07T06:18:24.000Z</time>
      </trkpt>
      <trkpt lat="45.87141" lon="4.82112">
        <ele>207.8</ele>
        <time>2020-06-07T06:18:25.000Z</time>
      </trkpt>
      <trkpt lat="45.87138" lon="4.82109">
        <ele>208</ele>
        <time>2020-06-07T06:18:26.000Z</time>
      </trkpt>
      <trkpt lat="45.87134" lon="4.82108">
        <ele>208.2</ele>
        <time>2020-06-07T06:18:27.000Z</time>
      </trkpt>
      <trkpt lat="45.8713" lon="4.82106">
        <ele>208.4</ele>
        <time>2020-06-07T06:18:28.000Z</time>
      </trkpt>
      <trkpt lat="45.87127" lon="4.82104">
        <ele>208.6</ele>
        <time>2020-06-07T06:18:29.000Z</time>
      </trkpt>
      <trkpt lat="45.87124" lon="4.82102">
        <ele>208.8</ele>
        <time>2020-06-07T06:18:30.000Z</time>
      </trkpt>
      <trkpt lat="45.87121" lon="4.821">
        <ele>209</ele>
        <time>2020-06-07T06:18:31.000Z</time>
      </trkpt>
      <trkpt lat="45.87117" lon="4.82098">
        <ele>209.2</ele>
        <time>2020-06-07T06:18:32.000Z</time>
      </trkpt>
      <trkpt lat="45.87114" lon="4.82096">
        <ele>209.4</ele>
        <time>2020-06-07T06:18:33.000Z</time>
      </trkpt>
      <trkpt lat="45.87111" lon="4.82094">
        <ele>209.6</ele>
        <time>2020-06-07T06:18:34.000Z</time>
      </trkpt>
      <trkpt lat="45.87108" lon="4.82092">
        <ele>209.8</ele>
        <time>2020-06-07T06:18:35.000Z</time>
      </trkpt>
      <trkpt lat="45.87104" lon="4.8209">
        <ele>210.1</ele>
        <time>2020-06-07T06:18:36.000Z</time>
      </trkpt>
      <trkpt lat="45.87101" lon="4.82089">
        <ele>210.7</ele>
        <time>2020-06-07T06:18:37.000Z</time>
      </trkpt>
      <trkpt lat="45.87097" lon="4.82087">
        <ele>211.4</ele>
        <time>2020-06-07T06:18:38.000Z</time>
      </trkpt>
      <trkpt lat="45.87094" lon="4.82085">
        <ele>211.8</ele>
        <time>2020-06-07T06:18:39.000Z</time>
      </trkpt>
      <trkpt lat="45.8709" lon="4.82083">
        <ele>211.8</ele>
        <time>2020-06-07T06:18:40.000Z</time>
      </trkpt>
      <trkpt lat="45.87087" lon="4.82081">
        <ele>211.8</ele>
        <time>2020-06-07T06:18:41.000Z</time>
      </trkpt>
      <trkpt lat="45.87084" lon="4.82079">
        <ele>211.8</ele>
        <time>2020-06-07T06:18:42.000Z</time>
      </trkpt>
      <trkpt lat="45.87082" lon="4.82077">
        <ele>211.8</ele>
        <time>2020-06-07T06:18:43.000Z</time>
      </trkpt>
      <trkpt lat="45.87079" lon="4.82075">
        <ele>211.8</ele>
        <time>2020-06-07T06:18:44.000Z</time>
      </trkpt>
      <trkpt lat="45.87076" lon="4.82073">
        <ele>211.8</ele>
        <time>2020-06-07T06:18:45.000Z</time>
      </trkpt>
      <trkpt lat="45.87073" lon="4.82072">
        <ele>212.2</ele>
        <time>2020-06-07T06:18:46.000Z</time>
      </trkpt>
      <trkpt lat="45.8707" lon="4.8207">
        <ele>212.5</ele>
        <time>2020-06-07T06:18:47.000Z</time>
      </trkpt>
      <trkpt lat="45.87067" lon="4.82069">
        <ele>213</ele>
        <time>2020-06-07T06:18:48.000Z</time>
      </trkpt>
      <trkpt lat="45.87064" lon="4.82067">
        <ele>213.3</ele>
        <time>2020-06-07T06:18:49.000Z</time>
      </trkpt>
      <trkpt lat="45.8706" lon="4.82065">
        <ele>213.8</ele>
        <time>2020-06-07T06:18:50.000Z</time>
      </trkpt>
      <trkpt lat="45.87056" lon="4.82063">
        <ele>213.7</ele>
        <time>2020-06-07T06:18:51.000Z</time>
      </trkpt>
      <trkpt lat="45.87053" lon="4.82061">
        <ele>213.8</ele>
        <time>2020-06-07T06:18:52.000Z</time>
      </trkpt>
      <trkpt lat="45.87049" lon="4.82059">
        <ele>213.8</ele>
        <time>2020-06-07T06:18:53.000Z</time>
      </trkpt>
      <trkpt lat="45.87045" lon="4.82057">
        <ele>213.8</ele>
        <time>2020-06-07T06:18:54.000Z</time>
      </trkpt>
      <trkpt lat="45.87042" lon="4.82055">
        <ele>213.8</ele>
        <time>2020-06-07T06:18:55.000Z</time>
      </trkpt>
      <trkpt lat="45.87038" lon="4.82053">
        <ele>213.8</ele>
        <time>2020-06-07T06:18:56.000Z</time>
      </trkpt>
      <trkpt lat="45.87034" lon="4.82051">
        <ele>214.1</ele>
        <time>2020-06-07T06:18:57.000Z</time>
      </trkpt>
      <trkpt lat="45.87031" lon="4.82049">
        <ele>214.4</ele>
        <time>2020-06-07T06:18:58.000Z</time>
      </trkpt>
      <trkpt lat="45.87027" lon="4.82046">
        <ele>214.8</ele>
        <time>2020-06-07T06:18:59.000Z</time>
      </trkpt>
      <trkpt lat="45.87024" lon="4.82044">
        <ele>215.1</ele>
        <time>2020-06-07T06:19:00.000Z</time>
      </trkpt>
      <trkpt lat="45.87021" lon="4.82042">
        <ele>215.4</ele>
        <time>2020-06-07T06:19:01.000Z</time>
      </trkpt>
      <trkpt lat="45.87018" lon="4.8204">
        <ele>215.7</ele>
        <time>2020-06-07T06:19:02.000Z</time>
      </trkpt>
      <trkpt lat="45.87016" lon="4.82038">
        <ele>216</ele>
        <time>2020-06-07T06:19:03.000Z</time>
      </trkpt>
      <trkpt lat="45.87013" lon="4.82036">
        <ele>216.3</ele>
        <time>2020-06-07T06:19:04.000Z</time>
      </trkpt>
      <trkpt lat="45.8701" lon="4.82035">
        <ele>216.5</ele>
        <time>2020-06-07T06:19:05.000Z</time>
      </trkpt>
      <trkpt lat="45.87008" lon="4.82033">
        <ele>216.8</ele>
        <time>2020-06-07T06:19:06.000Z</time>
      </trkpt>
      <trkpt lat="45.87005" lon="4.82031">
        <ele>217.1</ele>
        <time>2020-06-07T06:19:07.000Z</time>
      </trkpt>
      <trkpt lat="45.87003" lon="4.8203">
        <ele>217.4</ele>
        <time>2020-06-07T06:19:08.000Z</time>
      </trkpt>
      <trkpt lat="45.87" lon="4.82028">
        <ele>217.6</ele>
        <time>2020-06-07T06:19:09.000Z</time>
      </trkpt>
      <trkpt lat="45.86998" lon="4.82026">
        <ele>217.9</ele>
        <time>2020-06-07T06:19:10.000Z</time>
      </trkpt>
      <trkpt lat="45.86995" lon="4.82025">
        <ele>218.2</ele>
        <time>2020-06-07T06:19:11.000Z</time>
      </trkpt>
      <trkpt lat="45.86993" lon="4.82023">
        <ele>218.4</ele>
        <time>2020-06-07T06:19:12.000Z</time>
      </trkpt>
      <trkpt lat="45.8699" lon="4.82021">
        <ele>218.7</ele>
        <time>2020-06-07T06:19:13.000Z</time>
      </trkpt>
      <trkpt lat="45.86987" lon="4.82019">
        <ele>219.1</ele>
        <time>2020-06-07T06:19:14.000Z</time>
      </trkpt>
      <trkpt lat="45.86985" lon="4.82018">
        <ele>219.1</ele>
        <time>2020-06-07T06:19:15.000Z</time>
      </trkpt>
      <trkpt lat="45.86982" lon="4.82016">
        <ele>219.1</ele>
        <time>2020-06-07T06:19:16.000Z</time>
      </trkpt>
      <trkpt lat="45.86979" lon="4.82015">
        <ele>219.1</ele>
        <time>2020-06-07T06:19:17.000Z</time>
      </trkpt>
      <trkpt lat="45.86977" lon="4.82014">
        <ele>219.2</ele>
        <time>2020-06-07T06:19:18.000Z</time>
      </trkpt>
      <trkpt lat="45.86974" lon="4.82012">
        <ele>219.5</ele>
        <time>2020-06-07T06:19:19.000Z</time>
      </trkpt>
      <trkpt lat="45.86971" lon="4.8201">
        <ele>219.6</ele>
        <time>2020-06-07T06:19:20.000Z</time>
      </trkpt>
      <trkpt lat="45.86969" lon="4.82009">
        <ele>219.7</ele>
        <time>2020-06-07T06:19:21.000Z</time>
      </trkpt>
      <trkpt lat="45.86967" lon="4.82007">
        <ele>219.8</ele>
        <time>2020-06-07T06:19:22.000Z</time>
      </trkpt>
      <trkpt lat="45.86965" lon="4.82005">
        <ele>219.9</ele>
        <time>2020-06-07T06:19:23.000Z</time>
      </trkpt>
      <trkpt lat="45.86962" lon="4.82003">
        <ele>220</ele>
        <time>2020-06-07T06:19:24.000Z</time>
      </trkpt>
      <trkpt lat="45.8696" lon="4.82001">
        <ele>220.1</ele>
        <time>2020-06-07T06:19:25.000Z</time>
      </trkpt>
      <trkpt lat="45.86958" lon="4.81999">
        <ele>220.2</ele>
        <time>2020-06-07T06:19:26.000Z</time>
      </trkpt>
      <trkpt lat="45.86955" lon="4.81997">
        <ele>220.3</ele>
        <time>2020-06-07T06:19:27.000Z</time>
      </trkpt>
      <trkpt lat="45.86953" lon="4.81995">
        <ele>220.3</ele>
        <time>2020-06-07T06:19:28.000Z</time>
      </trkpt>
      <trkpt lat="45.86951" lon="4.81993">
        <ele>220.4</ele>
        <time>2020-06-07T06:19:29.000Z</time>
      </trkpt>
      <trkpt lat="45.86949" lon="4.8199">
        <ele>220.5</ele>
        <time>2020-06-07T06:19:30.000Z</time>
      </trkpt>
      <trkpt lat="45.86947" lon="4.81988">
        <ele>221</ele>
        <time>2020-06-07T06:19:31.000Z</time>
      </trkpt>
      <trkpt lat="45.86944" lon="4.81986">
        <ele>221.2</ele>
        <time>2020-06-07T06:19:32.000Z</time>
      </trkpt>
      <trkpt lat="45.86941" lon="4.81984">
        <ele>221.4</ele>
        <time>2020-06-07T06:19:33.000Z</time>
      </trkpt>
      <trkpt lat="45.86939" lon="4.81981">
        <ele>221.6</ele>
        <time>2020-06-07T06:19:34.000Z</time>
      </trkpt>
      <trkpt lat="45.86936" lon="4.81979">
        <ele>221.8</ele>
        <time>2020-06-07T06:19:35.000Z</time>
      </trkpt>
      <trkpt lat="45.86934" lon="4.81976">
        <ele>222</ele>
        <time>2020-06-07T06:19:36.000Z</time>
      </trkpt>
      <trkpt lat="45.86931" lon="4.81973">
        <ele>222.2</ele>
        <time>2020-06-07T06:19:37.000Z</time>
      </trkpt>
      <trkpt lat="45.86929" lon="4.81971">
        <ele>222.4</ele>
        <time>2020-06-07T06:19:38.000Z</time>
      </trkpt>
      <trkpt lat="45.86926" lon="4.81968">
        <ele>222.6</ele>
        <time>2020-06-07T06:19:39.000Z</time>
      </trkpt>
      <trkpt lat="45.86923" lon="4.81965">
        <ele>222.9</ele>
        <time>2020-06-07T06:19:40.000Z</time>
      </trkpt>
      <trkpt lat="45.86921" lon="4.81962">
        <ele>223.1</ele>
        <time>2020-06-07T06:19:41.000Z</time>
      </trkpt>
      <trkpt lat="45.86919" lon="4.8196">
        <ele>223.3</ele>
        <time>2020-06-07T06:19:42.000Z</time>
      </trkpt>
      <trkpt lat="45.86917" lon="4.81956">
        <ele>223.5</ele>
        <time>2020-06-07T06:19:43.000Z</time>
      </trkpt>
      <trkpt lat="45.86914" lon="4.81954">
        <ele>223.7</ele>
        <time>2020-06-07T06:19:44.000Z</time>
      </trkpt>
      <trkpt lat="45.86912" lon="4.81951">
        <ele>223.9</ele>
        <time>2020-06-07T06:19:45.000Z</time>
      </trkpt>
      <trkpt lat="45.8691" lon="4.8195">
        <ele>224</ele>
        <time>2020-06-07T06:19:46.000Z</time>
      </trkpt>
      <trkpt lat="45.86907" lon="4.81948">
        <ele>224.2</ele>
        <time>2020-06-07T06:19:47.000Z</time>
      </trkpt>
      <trkpt lat="45.86905" lon="4.81946">
        <ele>224.4</ele>
        <time>2020-06-07T06:19:48.000Z</time>
      </trkpt>
      <trkpt lat="45.86903" lon="4.81945">
        <ele>224.5</ele>
        <time>2020-06-07T06:19:49.000Z</time>
      </trkpt>
      <trkpt lat="45.86901" lon="4.81944">
        <ele>224.7</ele>
        <time>2020-06-07T06:19:50.000Z</time>
      </trkpt>
      <trkpt lat="45.86899" lon="4.81943">
        <ele>224.8</ele>
        <time>2020-06-07T06:19:51.000Z</time>
      </trkpt>
      <trkpt lat="45.86897" lon="4.81944">
        <ele>224.9</ele>
        <time>2020-06-07T06:19:52.000Z</time>
      </trkpt>
      <trkpt lat="45.86896" lon="4.81946">
        <ele>225</ele>
        <time>2020-06-07T06:19:53.000Z</time>
      </trkpt>
      <trkpt lat="45.86895" lon="4.81947">
        <ele>225.1</ele>
        <time>2020-06-07T06:19:54.000Z</time>
      </trkpt>
      <trkpt lat="45.86893" lon="4.81949">
        <ele>226.6</ele>
        <time>2020-06-07T06:19:55.000Z</time>
      </trkpt>
      <trkpt lat="45.86892" lon="4.8195">
        <ele>230.6</ele>
        <time>2020-06-07T06:19:56.000Z</time>
      </trkpt>
      <trkpt lat="45.8689" lon="4.81951">
        <ele>230.6</ele>
        <time>2020-06-07T06:19:57.000Z</time>
      </trkpt>
      <trkpt lat="45.86889" lon="4.81952">
        <ele>230.7</ele>
        <time>2020-06-07T06:19:58.000Z</time>
      </trkpt>
      <trkpt lat="45.86888" lon="4.81953">
        <ele>230.7</ele>
        <time>2020-06-07T06:19:59.000Z</time>
      </trkpt>
      <trkpt lat="45.86887" lon="4.81955">
        <ele>230.8</ele>
        <time>2020-06-07T06:20:00.000Z</time>
      </trkpt>
      <trkpt lat="45.86886" lon="4.81956">
        <ele>230.9</ele>
        <time>2020-06-07T06:20:01.000Z</time>
      </trkpt>
      <trkpt lat="45.86884" lon="4.81958">
        <ele>231</ele>
        <time>2020-06-07T06:20:02.000Z</time>
      </trkpt>
      <trkpt lat="45.86883" lon="4.8196">
        <ele>231</ele>
        <time>2020-06-07T06:20:03.000Z</time>
      </trkpt>
      <trkpt lat="45.86882" lon="4.8196">
        <ele>231.1</ele>
        <time>2020-06-07T06:20:04.000Z</time>
      </trkpt>
      <trkpt lat="45.8688" lon="4.8196">
        <ele>231.2</ele>
        <time>2020-06-07T06:20:05.000Z</time>
      </trkpt>
      <trkpt lat="45.86878" lon="4.81961">
        <ele>231.3</ele>
        <time>2020-06-07T06:20:06.000Z</time>
      </trkpt>
      <trkpt lat="45.86876" lon="4.81961">
        <ele>231.5</ele>
        <time>2020-06-07T06:20:07.000Z</time>
      </trkpt>
      <trkpt lat="45.86874" lon="4.81961">
        <ele>231.6</ele>
        <time>2020-06-07T06:20:08.000Z</time>
      </trkpt>
      <trkpt lat="45.86872" lon="4.81961">
        <ele>231.8</ele>
        <time>2020-06-07T06:20:09.000Z</time>
      </trkpt>
      <trkpt lat="45.86869" lon="4.81961">
        <ele>231.9</ele>
        <time>2020-06-07T06:20:10.000Z</time>
      </trkpt>
      <trkpt lat="45.86867" lon="4.81962">
        <ele>232.1</ele>
        <time>2020-06-07T06:20:11.000Z</time>
      </trkpt>
      <trkpt lat="45.86865" lon="4.81962">
        <ele>232.2</ele>
        <time>2020-06-07T06:20:12.000Z</time>
      </trkpt>
      <trkpt lat="45.86863" lon="4.81963">
        <ele>232.4</ele>
        <time>2020-06-07T06:20:13.000Z</time>
      </trkpt>
      <trkpt lat="45.86861" lon="4.81964">
        <ele>232.5</ele>
        <time>2020-06-07T06:20:14.000Z</time>
      </trkpt>
      <trkpt lat="45.8686" lon="4.81964">
        <ele>232.6</ele>
        <time>2020-06-07T06:20:15.000Z</time>
      </trkpt>
      <trkpt lat="45.86858" lon="4.81965">
        <ele>232.7</ele>
        <time>2020-06-07T06:20:16.000Z</time>
      </trkpt>
      <trkpt lat="45.86857" lon="4.81965">
        <ele>232.8</ele>
        <time>2020-06-07T06:20:17.000Z</time>
      </trkpt>
      <trkpt lat="45.86855" lon="4.81966">
        <ele>233</ele>
        <time>2020-06-07T06:20:18.000Z</time>
      </trkpt>
      <trkpt lat="45.86852" lon="4.81966">
        <ele>233.2</ele>
        <time>2020-06-07T06:20:19.000Z</time>
      </trkpt>
      <trkpt lat="45.8685" lon="4.81966">
        <ele>233.3</ele>
        <time>2020-06-07T06:20:20.000Z</time>
      </trkpt>
      <trkpt lat="45.86847" lon="4.81967">
        <ele>233.5</ele>
        <time>2020-06-07T06:20:21.000Z</time>
      </trkpt>
      <trkpt lat="45.86844" lon="4.81967">
        <ele>233.7</ele>
        <time>2020-06-07T06:20:22.000Z</time>
      </trkpt>
      <trkpt lat="45.86842" lon="4.81968">
        <ele>233.9</ele>
        <time>2020-06-07T06:20:23.000Z</time>
      </trkpt>
      <trkpt lat="45.86839" lon="4.81968">
        <ele>234.1</ele>
        <time>2020-06-07T06:20:24.000Z</time>
      </trkpt>
      <trkpt lat="45.86837" lon="4.81969">
        <ele>234.3</ele>
        <time>2020-06-07T06:20:25.000Z</time>
      </trkpt>
      <trkpt lat="45.86834" lon="4.8197">
        <ele>234.5</ele>
        <time>2020-06-07T06:20:26.000Z</time>
      </trkpt>
      <trkpt lat="45.86832" lon="4.8197">
        <ele>234.6</ele>
        <time>2020-06-07T06:20:27.000Z</time>
      </trkpt>
      <trkpt lat="45.8683" lon="4.8197">
        <ele>234.8</ele>
        <time>2020-06-07T06:20:28.000Z</time>
      </trkpt>
      <trkpt lat="45.86828" lon="4.81971">
        <ele>234.9</ele>
        <time>2020-06-07T06:20:29.000Z</time>
      </trkpt>
      <trkpt lat="45.86825" lon="4.81972">
        <ele>235.1</ele>
        <time>2020-06-07T06:20:30.000Z</time>
      </trkpt>
      <trkpt lat="45.86823" lon="4.81973">
        <ele>235.3</ele>
        <time>2020-06-07T06:20:31.000Z</time>
      </trkpt>
      <trkpt lat="45.8682" lon="4.81974">
        <ele>235.5</ele>
        <time>2020-06-07T06:20:32.000Z</time>
      </trkpt>
      <trkpt lat="45.86818" lon="4.81974">
        <ele>235.7</ele>
        <time>2020-06-07T06:20:33.000Z</time>
      </trkpt>
      <trkpt lat="45.86816" lon="4.81974">
        <ele>235.9</ele>
        <time>2020-06-07T06:20:34.000Z</time>
      </trkpt>
      <trkpt lat="45.86813" lon="4.81975">
        <ele>236.1</ele>
        <time>2020-06-07T06:20:35.000Z</time>
      </trkpt>
      <trkpt lat="45.86811" lon="4.81976">
        <ele>236.4</ele>
        <time>2020-06-07T06:20:36.000Z</time>
      </trkpt>
      <trkpt lat="45.86808" lon="4.81977">
        <ele>236.6</ele>
        <time>2020-06-07T06:20:37.000Z</time>
      </trkpt>
      <trkpt lat="45.86806" lon="4.81978">
        <ele>236.9</ele>
        <time>2020-06-07T06:20:38.000Z</time>
      </trkpt>
      <trkpt lat="45.86803" lon="4.81978">
        <ele>237.2</ele>
        <time>2020-06-07T06:20:39.000Z</time>
      </trkpt>
      <trkpt lat="45.86801" lon="4.81979">
        <ele>237.4</ele>
        <time>2020-06-07T06:20:40.000Z</time>
      </trkpt>
      <trkpt lat="45.86799" lon="4.8198">
        <ele>237.6</ele>
        <time>2020-06-07T06:20:41.000Z</time>
      </trkpt>
      <trkpt lat="45.86797" lon="4.81981">
        <ele>237.8</ele>
        <time>2020-06-07T06:20:42.000Z</time>
      </trkpt>
      <trkpt lat="45.86794" lon="4.81981">
        <ele>238.1</ele>
        <time>2020-06-07T06:20:43.000Z</time>
      </trkpt>
      <trkpt lat="45.86792" lon="4.81982">
        <ele>238.4</ele>
        <time>2020-06-07T06:20:44.000Z</time>
      </trkpt>
      <trkpt lat="45.8679" lon="4.81982">
        <ele>238.6</ele>
        <time>2020-06-07T06:20:45.000Z</time>
      </trkpt>
      <trkpt lat="45.86788" lon="4.81982">
        <ele>238.9</ele>
        <time>2020-06-07T06:20:46.000Z</time>
      </trkpt>
      <trkpt lat="45.86785" lon="4.81982">
        <ele>239.1</ele>
        <time>2020-06-07T06:20:47.000Z</time>
      </trkpt>
      <trkpt lat="45.86784" lon="4.81983">
        <ele>239.3</ele>
        <time>2020-06-07T06:20:48.000Z</time>
      </trkpt>
      <trkpt lat="45.86782" lon="4.81984">
        <ele>239.5</ele>
        <time>2020-06-07T06:20:49.000Z</time>
      </trkpt>
      <trkpt lat="45.86781" lon="4.81984">
        <ele>239.6</ele>
        <time>2020-06-07T06:20:50.000Z</time>
      </trkpt>
      <trkpt lat="45.8678" lon="4.81985">
        <ele>239.7</ele>
        <time>2020-06-07T06:20:51.000Z</time>
      </trkpt>
      <trkpt lat="45.86779" lon="4.81985">
        <ele>239.8</ele>
        <time>2020-06-07T06:20:52.000Z</time>
      </trkpt>
      <trkpt lat="45.86778" lon="4.81985">
        <ele>240</ele>
        <time>2020-06-07T06:20:53.000Z</time>
      </trkpt>
      <trkpt lat="45.86777" lon="4.81985">
        <ele>240.1</ele>
        <time>2020-06-07T06:20:54.000Z</time>
      </trkpt>
      <trkpt lat="45.86775" lon="4.81986">
        <ele>240.2</ele>
        <time>2020-06-07T06:20:55.000Z</time>
      </trkpt>
      <trkpt lat="45.86773" lon="4.81986">
        <ele>240.5</ele>
        <time>2020-06-07T06:20:56.000Z</time>
      </trkpt>
      <trkpt lat="45.86771" lon="4.81987">
        <ele>240.7</ele>
        <time>2020-06-07T06:20:57.000Z</time>
      </trkpt>
      <trkpt lat="45.86769" lon="4.81987">
        <ele>241</ele>
        <time>2020-06-07T06:20:58.000Z</time>
      </trkpt>
      <trkpt lat="45.86766" lon="4.81987">
        <ele>241.4</ele>
        <time>2020-06-07T06:20:59.000Z</time>
      </trkpt>
      <trkpt lat="45.86763" lon="4.81988">
        <ele>241.7</ele>
        <time>2020-06-07T06:21:00.000Z</time>
      </trkpt>
      <trkpt lat="45.86759" lon="4.81989">
        <ele>242.2</ele>
        <time>2020-06-07T06:21:01.000Z</time>
      </trkpt>
      <trkpt lat="45.86756" lon="4.81991">
        <ele>242.5</ele>
        <time>2020-06-07T06:21:02.000Z</time>
      </trkpt>
      <trkpt lat="45.86754" lon="4.81992">
        <ele>242.8</ele>
        <time>2020-06-07T06:21:03.000Z</time>
      </trkpt>
      <trkpt lat="45.86751" lon="4.81993">
        <ele>243.1</ele>
        <time>2020-06-07T06:21:04.000Z</time>
      </trkpt>
      <trkpt lat="45.86749" lon="4.81994">
        <ele>243.4</ele>
        <time>2020-06-07T06:21:05.000Z</time>
      </trkpt>
      <trkpt lat="45.86747" lon="4.81994">
        <ele>243.7</ele>
        <time>2020-06-07T06:21:06.000Z</time>
      </trkpt>
      <trkpt lat="45.86745" lon="4.81995">
        <ele>244</ele>
        <time>2020-06-07T06:21:07.000Z</time>
      </trkpt>
      <trkpt lat="45.86743" lon="4.81995">
        <ele>244.3</ele>
        <time>2020-06-07T06:21:08.000Z</time>
      </trkpt>
      <trkpt lat="45.86741" lon="4.81996">
        <ele>244.6</ele>
        <time>2020-06-07T06:21:09.000Z</time>
      </trkpt>
      <trkpt lat="45.86739" lon="4.81997">
        <ele>244.9</ele>
        <time>2020-06-07T06:21:10.000Z</time>
      </trkpt>
      <trkpt lat="45.86736" lon="4.81998">
        <ele>245.3</ele>
        <time>2020-06-07T06:21:11.000Z</time>
      </trkpt>
      <trkpt lat="45.86734" lon="4.81999">
        <ele>245.6</ele>
        <time>2020-06-07T06:21:12.000Z</time>
      </trkpt>
      <trkpt lat="45.86732" lon="4.82">
        <ele>245.9</ele>
        <time>2020-06-07T06:21:13.000Z</time>
      </trkpt>
      <trkpt lat="45.86731" lon="4.82001">
        <ele>246.1</ele>
        <time>2020-06-07T06:21:14.000Z</time>
      </trkpt>
      <trkpt lat="45.86729" lon="4.82002">
        <ele>246.4</ele>
        <time>2020-06-07T06:21:15.000Z</time>
      </trkpt>
      <trkpt lat="45.86727" lon="4.82003">
        <ele>246.7</ele>
        <time>2020-06-07T06:21:16.000Z</time>
      </trkpt>
      <trkpt lat="45.86726" lon="4.82004">
        <ele>247</ele>
        <time>2020-06-07T06:21:17.000Z</time>
      </trkpt>
      <trkpt lat="45.86724" lon="4.82004">
        <ele>247.3</ele>
        <time>2020-06-07T06:21:18.000Z</time>
      </trkpt>
      <trkpt lat="45.86722" lon="4.82004">
        <ele>247.6</ele>
        <time>2020-06-07T06:21:19.000Z</time>
      </trkpt>
      <trkpt lat="45.8672" lon="4.82004">
        <ele>247.8</ele>
        <time>2020-06-07T06:21:20.000Z</time>
      </trkpt>
      <trkpt lat="45.86719" lon="4.82004">
        <ele>248.1</ele>
        <time>2020-06-07T06:21:21.000Z</time>
      </trkpt>
      <trkpt lat="45.86717" lon="4.82005">
        <ele>248.4</ele>
        <time>2020-06-07T06:21:22.000Z</time>
      </trkpt>
      <trkpt lat="45.86716" lon="4.82005">
        <ele>248.7</ele>
        <time>2020-06-07T06:21:23.000Z</time>
      </trkpt>
      <trkpt lat="45.86714" lon="4.82006">
        <ele>249</ele>
        <time>2020-06-07T06:21:24.000Z</time>
      </trkpt>
      <trkpt lat="45.86712" lon="4.82007">
        <ele>249.3</ele>
        <time>2020-06-07T06:21:25.000Z</time>
      </trkpt>
      <trkpt lat="45.8671" lon="4.82009">
        <ele>249.7</ele>
        <time>2020-06-07T06:21:26.000Z</time>
      </trkpt>
      <trkpt lat="45.86709" lon="4.8201">
        <ele>249.9</ele>
        <time>2020-06-07T06:21:27.000Z</time>
      </trkpt>
      <trkpt lat="45.86709" lon="4.82012">
        <ele>250.1</ele>
        <time>2020-06-07T06:21:28.000Z</time>
      </trkpt>
      <trkpt lat="45.86708" lon="4.82013">
        <ele>250.3</ele>
        <time>2020-06-07T06:21:29.000Z</time>
      </trkpt>
      <trkpt lat="45.86708" lon="4.82014">
        <ele>250.4</ele>
        <time>2020-06-07T06:21:30.000Z</time>
      </trkpt>
      <trkpt lat="45.86709" lon="4.82015">
        <ele>250.5</ele>
        <time>2020-06-07T06:21:31.000Z</time>
      </trkpt>
      <trkpt lat="45.86709" lon="4.82015">
        <ele>250.6</ele>
        <time>2020-06-07T06:21:32.000Z</time>
      </trkpt>
      <trkpt lat="45.8671" lon="4.82016">
        <ele>250.7</ele>
        <time>2020-06-07T06:21:33.000Z</time>
      </trkpt>
      <trkpt lat="45.86711" lon="4.82016">
        <ele>250.9</ele>
        <time>2020-06-07T06:21:34.000Z</time>
      </trkpt>
      <trkpt lat="45.86712" lon="4.82017">
        <ele>251</ele>
        <time>2020-06-07T06:21:35.000Z</time>
      </trkpt>
      <trkpt lat="45.86714" lon="4.82018">
        <ele>251.3</ele>
        <time>2020-06-07T06:21:36.000Z</time>
      </trkpt>
      <trkpt lat="45.86716" lon="4.82018">
        <ele>251.5</ele>
        <time>2020-06-07T06:21:37.000Z</time>
      </trkpt>
      <trkpt lat="45.86718" lon="4.82019">
        <ele>251.8</ele>
        <time>2020-06-07T06:21:38.000Z</time>
      </trkpt>
      <trkpt lat="45.86721" lon="4.82019">
        <ele>252</ele>
        <time>2020-06-07T06:21:39.000Z</time>
      </trkpt>
      <trkpt lat="45.86723" lon="4.8202">
        <ele>252.3</ele>
        <time>2020-06-07T06:21:40.000Z</time>
      </trkpt>
      <trkpt lat="45.86725" lon="4.82021">
        <ele>252.5</ele>
        <time>2020-06-07T06:21:41.000Z</time>
      </trkpt>
      <trkpt lat="45.86727" lon="4.82022">
        <ele>252.7</ele>
        <time>2020-06-07T06:21:42.000Z</time>
      </trkpt>
      <trkpt lat="45.86729" lon="4.82023">
        <ele>252.9</ele>
        <time>2020-06-07T06:21:43.000Z</time>
      </trkpt>
      <trkpt lat="45.86731" lon="4.82023">
        <ele>253.1</ele>
        <time>2020-06-07T06:21:44.000Z</time>
      </trkpt>
      <trkpt lat="45.86733" lon="4.82023">
        <ele>253.2</ele>
        <time>2020-06-07T06:21:45.000Z</time>
      </trkpt>
      <trkpt lat="45.86734" lon="4.82023">
        <ele>253.4</ele>
        <time>2020-06-07T06:21:46.000Z</time>
      </trkpt>
      <trkpt lat="45.86736" lon="4.82024">
        <ele>253.5</ele>
        <time>2020-06-07T06:21:47.000Z</time>
      </trkpt>
      <trkpt lat="45.86738" lon="4.82024">
        <ele>253.6</ele>
        <time>2020-06-07T06:21:48.000Z</time>
      </trkpt>
      <trkpt lat="45.8674" lon="4.82024">
        <ele>253.8</ele>
        <time>2020-06-07T06:21:49.000Z</time>
      </trkpt>
      <trkpt lat="45.86741" lon="4.82024">
        <ele>253.9</ele>
        <time>2020-06-07T06:21:50.000Z</time>
      </trkpt>
      <trkpt lat="45.86743" lon="4.82024">
        <ele>254.1</ele>
        <time>2020-06-07T06:21:51.000Z</time>
      </trkpt>
      <trkpt lat="45.86745" lon="4.82023">
        <ele>254.2</ele>
        <time>2020-06-07T06:21:52.000Z</time>
      </trkpt>
      <trkpt lat="45.86747" lon="4.82023">
        <ele>254.3</ele>
        <time>2020-06-07T06:21:53.000Z</time>
      </trkpt>
      <trkpt lat="45.86749" lon="4.82023">
        <ele>254.5</ele>
        <time>2020-06-07T06:21:54.000Z</time>
      </trkpt>
      <trkpt lat="45.86751" lon="4.82022">
        <ele>254.6</ele>
        <time>2020-06-07T06:21:55.000Z</time>
      </trkpt>
      <trkpt lat="45.86753" lon="4.82023">
        <ele>254.8</ele>
        <time>2020-06-07T06:21:56.000Z</time>
      </trkpt>
      <trkpt lat="45.86755" lon="4.82023">
        <ele>254.9</ele>
        <time>2020-06-07T06:21:57.000Z</time>
      </trkpt>
      <trkpt lat="45.86758" lon="4.82023">
        <ele>255.1</ele>
        <time>2020-06-07T06:21:58.000Z</time>
      </trkpt>
      <trkpt lat="45.86761" lon="4.82023">
        <ele>255.3</ele>
        <time>2020-06-07T06:21:59.000Z</time>
      </trkpt>
      <trkpt lat="45.86763" lon="4.82023">
        <ele>255.5</ele>
        <time>2020-06-07T06:22:00.000Z</time>
      </trkpt>
      <trkpt lat="45.86764" lon="4.82023">
        <ele>255.6</ele>
        <time>2020-06-07T06:22:01.000Z</time>
      </trkpt>
      <trkpt lat="45.86766" lon="4.82024">
        <ele>255.8</ele>
        <time>2020-06-07T06:22:02.000Z</time>
      </trkpt>
      <trkpt lat="45.86768" lon="4.82026">
        <ele>256</ele>
        <time>2020-06-07T06:22:03.000Z</time>
      </trkpt>
      <trkpt lat="45.8677" lon="4.82027">
        <ele>256.1</ele>
        <time>2020-06-07T06:22:04.000Z</time>
      </trkpt>
      <trkpt lat="45.86772" lon="4.82028">
        <ele>256.3</ele>
        <time>2020-06-07T06:22:05.000Z</time>
      </trkpt>
      <trkpt lat="45.86773" lon="4.82029">
        <ele>256.4</ele>
        <time>2020-06-07T06:22:06.000Z</time>
      </trkpt>
      <trkpt lat="45.86775" lon="4.8203">
        <ele>256.6</ele>
        <time>2020-06-07T06:22:07.000Z</time>
      </trkpt>
      <trkpt lat="45.86777" lon="4.82031">
        <ele>256.7</ele>
        <time>2020-06-07T06:22:08.000Z</time>
      </trkpt>
      <trkpt lat="45.86778" lon="4.82031">
        <ele>256.9</ele>
        <time>2020-06-07T06:22:09.000Z</time>
      </trkpt>
      <trkpt lat="45.86781" lon="4.82032">
        <ele>257.1</ele>
        <time>2020-06-07T06:22:10.000Z</time>
      </trkpt>
      <trkpt lat="45.86784" lon="4.82033">
        <ele>257.4</ele>
        <time>2020-06-07T06:22:11.000Z</time>
      </trkpt>
      <trkpt lat="45.86786" lon="4.82033">
        <ele>257.6</ele>
        <time>2020-06-07T06:22:12.000Z</time>
      </trkpt>
      <trkpt lat="45.8679" lon="4.82034">
        <ele>257.9</ele>
        <time>2020-06-07T06:22:13.000Z</time>
      </trkpt>
      <trkpt lat="45.86792" lon="4.82035">
        <ele>258.1</ele>
        <time>2020-06-07T06:22:14.000Z</time>
      </trkpt>
      <trkpt lat="45.86795" lon="4.82036">
        <ele>258.3</ele>
        <time>2020-06-07T06:22:15.000Z</time>
      </trkpt>
      <trkpt lat="45.86797" lon="4.82038">
        <ele>258.6</ele>
        <time>2020-06-07T06:22:16.000Z</time>
      </trkpt>
      <trkpt lat="45.86799" lon="4.8204">
        <ele>258.8</ele>
        <time>2020-06-07T06:22:17.000Z</time>
      </trkpt>
      <trkpt lat="45.86801" lon="4.82043">
        <ele>259.1</ele>
        <time>2020-06-07T06:22:18.000Z</time>
      </trkpt>
      <trkpt lat="45.86803" lon="4.82045">
        <ele>259.4</ele>
        <time>2020-06-07T06:22:19.000Z</time>
      </trkpt>
      <trkpt lat="45.86804" lon="4.82048">
        <ele>259.6</ele>
        <time>2020-06-07T06:22:20.000Z</time>
      </trkpt>
      <trkpt lat="45.86805" lon="4.82051">
        <ele>259.9</ele>
        <time>2020-06-07T06:22:21.000Z</time>
      </trkpt>
      <trkpt lat="45.86806" lon="4.82053">
        <ele>260.1</ele>
        <time>2020-06-07T06:22:22.000Z</time>
      </trkpt>
      <trkpt lat="45.86806" lon="4.82055">
        <ele>260.3</ele>
        <time>2020-06-07T06:22:23.000Z</time>
      </trkpt>
      <trkpt lat="45.86806" lon="4.82056">
        <ele>260.4</ele>
        <time>2020-06-07T06:22:24.000Z</time>
      </trkpt>
      <trkpt lat="45.86806" lon="4.82057">
        <ele>260.4</ele>
        <time>2020-06-07T06:22:25.000Z</time>
      </trkpt>
      <trkpt lat="45.86805" lon="4.82057">
        <ele>260.5</ele>
        <time>2020-06-07T06:22:26.000Z</time>
      </trkpt>
      <trkpt lat="45.86804" lon="4.82057">
        <ele>260.7</ele>
        <time>2020-06-07T06:22:27.000Z</time>
      </trkpt>
      <trkpt lat="45.86803" lon="4.82058">
        <ele>260.9</ele>
        <time>2020-06-07T06:22:28.000Z</time>
      </trkpt>
      <trkpt lat="45.86801" lon="4.82059">
        <ele>261.1</ele>
        <time>2020-06-07T06:22:29.000Z</time>
      </trkpt>
      <trkpt lat="45.86799" lon="4.8206">
        <ele>261.4</ele>
        <time>2020-06-07T06:22:30.000Z</time>
      </trkpt>
      <trkpt lat="45.86798" lon="4.82062">
        <ele>261.7</ele>
        <time>2020-06-07T06:22:31.000Z</time>
      </trkpt>
      <trkpt lat="45.86796" lon="4.82062">
        <ele>261.9</ele>
        <time>2020-06-07T06:22:32.000Z</time>
      </trkpt>
      <trkpt lat="45.86794" lon="4.82063">
        <ele>262.1</ele>
        <time>2020-06-07T06:22:33.000Z</time>
      </trkpt>
      <trkpt lat="45.86793" lon="4.82064">
        <ele>262.3</ele>
        <time>2020-06-07T06:22:34.000Z</time>
      </trkpt>
      <trkpt lat="45.86791" lon="4.82065">
        <ele>262.6</ele>
        <time>2020-06-07T06:22:35.000Z</time>
      </trkpt>
      <trkpt lat="45.8679" lon="4.82065">
        <ele>262.8</ele>
        <time>2020-06-07T06:22:36.000Z</time>
      </trkpt>
      <trkpt lat="45.86787" lon="4.82067">
        <ele>263.1</ele>
        <time>2020-06-07T06:22:37.000Z</time>
      </trkpt>
      <trkpt lat="45.86786" lon="4.82067">
        <ele>263.3</ele>
        <time>2020-06-07T06:22:38.000Z</time>
      </trkpt>
      <trkpt lat="45.86783" lon="4.82068">
        <ele>263.6</ele>
        <time>2020-06-07T06:22:39.000Z</time>
      </trkpt>
      <trkpt lat="45.8678" lon="4.82069">
        <ele>263.9</ele>
        <time>2020-06-07T06:22:40.000Z</time>
      </trkpt>
      <trkpt lat="45.86777" lon="4.82069">
        <ele>264.2</ele>
        <time>2020-06-07T06:22:41.000Z</time>
      </trkpt>
      <trkpt lat="45.86776" lon="4.82069">
        <ele>264.4</ele>
        <time>2020-06-07T06:22:42.000Z</time>
      </trkpt>
      <trkpt lat="45.86774" lon="4.82069">
        <ele>264.5</ele>
        <time>2020-06-07T06:22:43.000Z</time>
      </trkpt>
      <trkpt lat="45.86772" lon="4.82069">
        <ele>264.7</ele>
        <time>2020-06-07T06:22:44.000Z</time>
      </trkpt>
      <trkpt lat="45.86771" lon="4.82068">
        <ele>264.8</ele>
        <time>2020-06-07T06:22:45.000Z</time>
      </trkpt>
      <trkpt lat="45.86768" lon="4.82068">
        <ele>265</ele>
        <time>2020-06-07T06:22:46.000Z</time>
      </trkpt>
      <trkpt lat="45.86766" lon="4.82069">
        <ele>265.1</ele>
        <time>2020-06-07T06:22:47.000Z</time>
      </trkpt>
      <trkpt lat="45.86764" lon="4.82069">
        <ele>265.3</ele>
        <time>2020-06-07T06:22:48.000Z</time>
      </trkpt>
      <trkpt lat="45.86762" lon="4.8207">
        <ele>265.5</ele>
        <time>2020-06-07T06:22:49.000Z</time>
      </trkpt>
      <trkpt lat="45.8676" lon="4.8207">
        <ele>265.6</ele>
        <time>2020-06-07T06:22:50.000Z</time>
      </trkpt>
      <trkpt lat="45.86757" lon="4.8207">
        <ele>265.8</ele>
        <time>2020-06-07T06:22:51.000Z</time>
      </trkpt>
      <trkpt lat="45.86755" lon="4.82071">
        <ele>265.9</ele>
        <time>2020-06-07T06:22:52.000Z</time>
      </trkpt>
      <trkpt lat="45.86752" lon="4.82072">
        <ele>266.2</ele>
        <time>2020-06-07T06:22:53.000Z</time>
      </trkpt>
      <trkpt lat="45.86748" lon="4.82073">
        <ele>266.4</ele>
        <time>2020-06-07T06:22:54.000Z</time>
      </trkpt>
      <trkpt lat="45.86745" lon="4.82075">
        <ele>266.6</ele>
        <time>2020-06-07T06:22:55.000Z</time>
      </trkpt>
      <trkpt lat="45.86742" lon="4.82076">
        <ele>266.9</ele>
        <time>2020-06-07T06:22:56.000Z</time>
      </trkpt>
      <trkpt lat="45.86739" lon="4.82078">
        <ele>267.2</ele>
        <time>2020-06-07T06:22:57.000Z</time>
      </trkpt>
      <trkpt lat="45.86736" lon="4.82079">
        <ele>267.5</ele>
        <time>2020-06-07T06:22:58.000Z</time>
      </trkpt>
      <trkpt lat="45.86733" lon="4.8208">
        <ele>267.8</ele>
        <time>2020-06-07T06:22:59.000Z</time>
      </trkpt>
      <trkpt lat="45.8673" lon="4.82082">
        <ele>268.1</ele>
        <time>2020-06-07T06:23:00.000Z</time>
      </trkpt>
      <trkpt lat="45.86728" lon="4.82083">
        <ele>268.4</ele>
        <time>2020-06-07T06:23:01.000Z</time>
      </trkpt>
      <trkpt lat="45.86726" lon="4.82084">
        <ele>268.7</ele>
        <time>2020-06-07T06:23:02.000Z</time>
      </trkpt>
      <trkpt lat="45.86724" lon="4.82084">
        <ele>268.9</ele>
        <time>2020-06-07T06:23:03.000Z</time>
      </trkpt>
      <trkpt lat="45.86722" lon="4.82085">
        <ele>269.2</ele>
        <time>2020-06-07T06:23:04.000Z</time>
      </trkpt>
      <trkpt lat="45.8672" lon="4.82085">
        <ele>269.4</ele>
        <time>2020-06-07T06:23:05.000Z</time>
      </trkpt>
      <trkpt lat="45.86718" lon="4.82085">
        <ele>269.7</ele>
        <time>2020-06-07T06:23:06.000Z</time>
      </trkpt>
      <trkpt lat="45.86716" lon="4.82085">
        <ele>269.9</ele>
        <time>2020-06-07T06:23:07.000Z</time>
      </trkpt>
      <trkpt lat="45.86714" lon="4.82085">
        <ele>270.1</ele>
        <time>2020-06-07T06:23:08.000Z</time>
      </trkpt>
      <trkpt lat="45.86713" lon="4.82084">
        <ele>270.4</ele>
        <time>2020-06-07T06:23:09.000Z</time>
      </trkpt>
      <trkpt lat="45.86711" lon="4.82084">
        <ele>270.6</ele>
        <time>2020-06-07T06:23:10.000Z</time>
      </trkpt>
      <trkpt lat="45.86709" lon="4.82084">
        <ele>270.8</ele>
        <time>2020-06-07T06:23:11.000Z</time>
      </trkpt>
      <trkpt lat="45.86707" lon="4.82084">
        <ele>271.1</ele>
        <time>2020-06-07T06:23:12.000Z</time>
      </trkpt>
      <trkpt lat="45.86704" lon="4.82084">
        <ele>271.4</ele>
        <time>2020-06-07T06:23:13.000Z</time>
      </trkpt>
      <trkpt lat="45.86702" lon="4.82085">
        <ele>271.7</ele>
        <time>2020-06-07T06:23:14.000Z</time>
      </trkpt>
      <trkpt lat="45.867" lon="4.82084">
        <ele>271.9</ele>
        <time>2020-06-07T06:23:15.000Z</time>
      </trkpt>
      <trkpt lat="45.86699" lon="4.82083">
        <ele>272.1</ele>
        <time>2020-06-07T06:23:16.000Z</time>
      </trkpt>
      <trkpt lat="45.86697" lon="4.82083">
        <ele>272.3</ele>
        <time>2020-06-07T06:23:17.000Z</time>
      </trkpt>
      <trkpt lat="45.86696" lon="4.82082">
        <ele>272.5</ele>
        <time>2020-06-07T06:23:18.000Z</time>
      </trkpt>
      <trkpt lat="45.86694" lon="4.82082">
        <ele>272.6</ele>
        <time>2020-06-07T06:23:19.000Z</time>
      </trkpt>
      <trkpt lat="45.86692" lon="4.82082">
        <ele>272.8</ele>
        <time>2020-06-07T06:23:20.000Z</time>
      </trkpt>
      <trkpt lat="45.8669" lon="4.82082">
        <ele>273.1</ele>
        <time>2020-06-07T06:23:21.000Z</time>
      </trkpt>
      <trkpt lat="45.86688" lon="4.82082">
        <ele>273.3</ele>
        <time>2020-06-07T06:23:22.000Z</time>
      </trkpt>
      <trkpt lat="45.86686" lon="4.82081">
        <ele>273.5</ele>
        <time>2020-06-07T06:23:23.000Z</time>
      </trkpt>
      <trkpt lat="45.86684" lon="4.82082">
        <ele>273.8</ele>
        <time>2020-06-07T06:23:24.000Z</time>
      </trkpt>
      <trkpt lat="45.86682" lon="4.82082">
        <ele>273.9</ele>
        <time>2020-06-07T06:23:25.000Z</time>
      </trkpt>
      <trkpt lat="45.86681" lon="4.82082">
        <ele>274.1</ele>
        <time>2020-06-07T06:23:26.000Z</time>
      </trkpt>
      <trkpt lat="45.86679" lon="4.82082">
        <ele>274.3</ele>
        <time>2020-06-07T06:23:27.000Z</time>
      </trkpt>
      <trkpt lat="45.86675" lon="4.82083">
        <ele>274.7</ele>
        <time>2020-06-07T06:23:28.000Z</time>
      </trkpt>
      <trkpt lat="45.86671" lon="4.82084">
        <ele>275.1</ele>
        <time>2020-06-07T06:23:29.000Z</time>
      </trkpt>
      <trkpt lat="45.86669" lon="4.82084">
        <ele>275.3</ele>
        <time>2020-06-07T06:23:30.000Z</time>
      </trkpt>
      <trkpt lat="45.86666" lon="4.82084">
        <ele>275.6</ele>
        <time>2020-06-07T06:23:31.000Z</time>
      </trkpt>
      <trkpt lat="45.86663" lon="4.82084">
        <ele>275.9</ele>
        <time>2020-06-07T06:23:32.000Z</time>
      </trkpt>
      <trkpt lat="45.8666" lon="4.82085">
        <ele>276.2</ele>
        <time>2020-06-07T06:23:33.000Z</time>
      </trkpt>
      <trkpt lat="45.86658" lon="4.82085">
        <ele>276.5</ele>
        <time>2020-06-07T06:23:34.000Z</time>
      </trkpt>
      <trkpt lat="45.86655" lon="4.82086">
        <ele>276.7</ele>
        <time>2020-06-07T06:23:35.000Z</time>
      </trkpt>
      <trkpt lat="45.86653" lon="4.82086">
        <ele>277</ele>
        <time>2020-06-07T06:23:36.000Z</time>
      </trkpt>
      <trkpt lat="45.86651" lon="4.82086">
        <ele>277.2</ele>
        <time>2020-06-07T06:23:37.000Z</time>
      </trkpt>
      <trkpt lat="45.86649" lon="4.82086">
        <ele>277.5</ele>
        <time>2020-06-07T06:23:38.000Z</time>
      </trkpt>
      <trkpt lat="45.86647" lon="4.82087">
        <ele>277.7</ele>
        <time>2020-06-07T06:23:39.000Z</time>
      </trkpt>
      <trkpt lat="45.86645" lon="4.82086">
        <ele>277.9</ele>
        <time>2020-06-07T06:23:40.000Z</time>
      </trkpt>
      <trkpt lat="45.86643" lon="4.82086">
        <ele>278</ele>
        <time>2020-06-07T06:23:41.000Z</time>
      </trkpt>
      <trkpt lat="45.86641" lon="4.82086">
        <ele>278.3</ele>
        <time>2020-06-07T06:23:42.000Z</time>
      </trkpt>
      <trkpt lat="45.86639" lon="4.82086">
        <ele>278.5</ele>
        <time>2020-06-07T06:23:43.000Z</time>
      </trkpt>
      <trkpt lat="45.86637" lon="4.82086">
        <ele>278.6</ele>
        <time>2020-06-07T06:23:44.000Z</time>
      </trkpt>
      <trkpt lat="45.86635" lon="4.82085">
        <ele>278.8</ele>
        <time>2020-06-07T06:23:45.000Z</time>
      </trkpt>
      <trkpt lat="45.86633" lon="4.82085">
        <ele>279</ele>
        <time>2020-06-07T06:23:46.000Z</time>
      </trkpt>
      <trkpt lat="45.86631" lon="4.82085">
        <ele>279.1</ele>
        <time>2020-06-07T06:23:47.000Z</time>
      </trkpt>
      <trkpt lat="45.8663" lon="4.82084">
        <ele>279.3</ele>
        <time>2020-06-07T06:23:48.000Z</time>
      </trkpt>
      <trkpt lat="45.86627" lon="4.82084">
        <ele>279.5</ele>
        <time>2020-06-07T06:23:49.000Z</time>
      </trkpt>
      <trkpt lat="45.86624" lon="4.82084">
        <ele>279.7</ele>
        <time>2020-06-07T06:23:50.000Z</time>
      </trkpt>
      <trkpt lat="45.86623" lon="4.82083">
        <ele>279.8</ele>
        <time>2020-06-07T06:23:51.000Z</time>
      </trkpt>
      <trkpt lat="45.86621" lon="4.82083">
        <ele>279.9</ele>
        <time>2020-06-07T06:23:52.000Z</time>
      </trkpt>
      <trkpt lat="45.86619" lon="4.82083">
        <ele>280</ele>
        <time>2020-06-07T06:23:53.000Z</time>
      </trkpt>
      <trkpt lat="45.86617" lon="4.82082">
        <ele>280.1</ele>
        <time>2020-06-07T06:23:54.000Z</time>
      </trkpt>
      <trkpt lat="45.86616" lon="4.82081">
        <ele>280.2</ele>
        <time>2020-06-07T06:23:55.000Z</time>
      </trkpt>
      <trkpt lat="45.86614" lon="4.82081">
        <ele>280.2</ele>
        <time>2020-06-07T06:23:56.000Z</time>
      </trkpt>
      <trkpt lat="45.86612" lon="4.8208">
        <ele>280.3</ele>
        <time>2020-06-07T06:23:57.000Z</time>
      </trkpt>
      <trkpt lat="45.86609" lon="4.82078">
        <ele>280.3</ele>
        <time>2020-06-07T06:23:58.000Z</time>
      </trkpt>
      <trkpt lat="45.86607" lon="4.82076">
        <ele>280.3</ele>
        <time>2020-06-07T06:23:59.000Z</time>
      </trkpt>
      <trkpt lat="45.86605" lon="4.82074">
        <ele>280.2</ele>
        <time>2020-06-07T06:24:00.000Z</time>
      </trkpt>
      <trkpt lat="45.86602" lon="4.82071">
        <ele>280.1</ele>
        <time>2020-06-07T06:24:01.000Z</time>
      </trkpt>
      <trkpt lat="45.86598" lon="4.82067">
        <ele>279.9</ele>
        <time>2020-06-07T06:24:02.000Z</time>
      </trkpt>
      <trkpt lat="45.86595" lon="4.82061">
        <ele>279.5</ele>
        <time>2020-06-07T06:24:03.000Z</time>
      </trkpt>
      <trkpt lat="45.8659" lon="4.82055">
        <ele>278.9</ele>
        <time>2020-06-07T06:24:04.000Z</time>
      </trkpt>
      <trkpt lat="45.86585" lon="4.82049">
        <ele>278.4</ele>
        <time>2020-06-07T06:24:05.000Z</time>
      </trkpt>
      <trkpt lat="45.8658" lon="4.82044">
        <ele>277.7</ele>
        <time>2020-06-07T06:24:06.000Z</time>
      </trkpt>
      <trkpt lat="45.86573" lon="4.82038">
        <ele>276.8</ele>
        <time>2020-06-07T06:24:07.000Z</time>
      </trkpt>
      <trkpt lat="45.86567" lon="4.82032">
        <ele>276</ele>
        <time>2020-06-07T06:24:08.000Z</time>
      </trkpt>
      <trkpt lat="45.86562" lon="4.82027">
        <ele>275.4</ele>
        <time>2020-06-07T06:24:09.000Z</time>
      </trkpt>
      <trkpt lat="45.86554" lon="4.82022">
        <ele>274.6</ele>
        <time>2020-06-07T06:24:10.000Z</time>
      </trkpt>
      <trkpt lat="45.86548" lon="4.82016">
        <ele>274</ele>
        <time>2020-06-07T06:24:11.000Z</time>
      </trkpt>
      <trkpt lat="45.86541" lon="4.82011">
        <ele>273.3</ele>
        <time>2020-06-07T06:24:12.000Z</time>
      </trkpt>
      <trkpt lat="45.86535" lon="4.82005">
        <ele>272.5</ele>
        <time>2020-06-07T06:24:13.000Z</time>
      </trkpt>
      <trkpt lat="45.86528" lon="4.81999">
        <ele>271.6</ele>
        <time>2020-06-07T06:24:14.000Z</time>
      </trkpt>
      <trkpt lat="45.86521" lon="4.81993">
        <ele>270.6</ele>
        <time>2020-06-07T06:24:15.000Z</time>
      </trkpt>
      <trkpt lat="45.86516" lon="4.81986">
        <ele>269.7</ele>
        <time>2020-06-07T06:24:16.000Z</time>
      </trkpt>
      <trkpt lat="45.86512" lon="4.8198">
        <ele>268.9</ele>
        <time>2020-06-07T06:24:17.000Z</time>
      </trkpt>
      <trkpt lat="45.8651" lon="4.81973">
        <ele>268.4</ele>
        <time>2020-06-07T06:24:18.000Z</time>
      </trkpt>
      <trkpt lat="45.8651" lon="4.81966">
        <ele>268</ele>
        <time>2020-06-07T06:24:19.000Z</time>
      </trkpt>
      <trkpt lat="45.86508" lon="4.8196">
        <ele>267.7</ele>
        <time>2020-06-07T06:24:20.000Z</time>
      </trkpt>
      <trkpt lat="45.86507" lon="4.81956">
        <ele>267.6</ele>
        <time>2020-06-07T06:24:21.000Z</time>
      </trkpt>
      <trkpt lat="45.86506" lon="4.81952">
        <ele>267.6</ele>
        <time>2020-06-07T06:24:22.000Z</time>
      </trkpt>
      <trkpt lat="45.86505" lon="4.81948">
        <ele>267.6</ele>
        <time>2020-06-07T06:24:23.000Z</time>
      </trkpt>
      <trkpt lat="45.86504" lon="4.81947">
        <ele>267.6</ele>
        <time>2020-06-07T06:24:24.000Z</time>
      </trkpt>
      <trkpt lat="45.86503" lon="4.81945">
        <ele>267.6</ele>
        <time>2020-06-07T06:24:25.000Z</time>
      </trkpt>
      <trkpt lat="45.86501" lon="4.81945">
        <ele>267.7</ele>
        <time>2020-06-07T06:24:26.000Z</time>
      </trkpt>
      <trkpt lat="45.865" lon="4.81944">
        <ele>267.9</ele>
        <time>2020-06-07T06:24:27.000Z</time>
      </trkpt>
      <trkpt lat="45.86499" lon="4.81943">
        <ele>268</ele>
        <time>2020-06-07T06:24:28.000Z</time>
      </trkpt>
      <trkpt lat="45.86498" lon="4.81942">
        <ele>268.1</ele>
        <time>2020-06-07T06:24:29.000Z</time>
      </trkpt>
      <trkpt lat="45.86497" lon="4.81942">
        <ele>268.2</ele>
        <time>2020-06-07T06:24:30.000Z</time>
      </trkpt>
      <trkpt lat="45.86496" lon="4.81941">
        <ele>268.4</ele>
        <time>2020-06-07T06:24:31.000Z</time>
      </trkpt>
      <trkpt lat="45.86495" lon="4.8194">
        <ele>268.5</ele>
        <time>2020-06-07T06:24:32.000Z</time>
      </trkpt>
      <trkpt lat="45.86495" lon="4.81939">
        <ele>268.5</ele>
        <time>2020-06-07T06:24:33.000Z</time>
      </trkpt>
      <trkpt lat="45.86495" lon="4.81939">
        <ele>268.6</ele>
        <time>2020-06-07T06:24:34.000Z</time>
      </trkpt>
      <trkpt lat="45.86493" lon="4.81938">
        <ele>268.7</ele>
        <time>2020-06-07T06:24:35.000Z</time>
      </trkpt>
      <trkpt lat="45.86492" lon="4.81936">
        <ele>268.9</ele>
        <time>2020-06-07T06:24:36.000Z</time>
      </trkpt>
      <trkpt lat="45.8649" lon="4.81936">
        <ele>269.1</ele>
        <time>2020-06-07T06:24:37.000Z</time>
      </trkpt>
      <trkpt lat="45.8649" lon="4.81934">
        <ele>269.2</ele>
        <time>2020-06-07T06:24:38.000Z</time>
      </trkpt>
      <trkpt lat="45.86488" lon="4.81934">
        <ele>269.3</ele>
        <time>2020-06-07T06:24:39.000Z</time>
      </trkpt>
      <trkpt lat="45.86487" lon="4.81934">
        <ele>269.4</ele>
        <time>2020-06-07T06:24:40.000Z</time>
      </trkpt>
      <trkpt lat="45.86487" lon="4.81932">
        <ele>269.5</ele>
        <time>2020-06-07T06:24:41.000Z</time>
      </trkpt>
      <trkpt lat="45.86486" lon="4.81932">
        <ele>269.6</ele>
        <time>2020-06-07T06:24:42.000Z</time>
      </trkpt>
      <trkpt lat="45.86485" lon="4.81931">
        <ele>269.8</ele>
        <time>2020-06-07T06:24:43.000Z</time>
      </trkpt>
      <trkpt lat="45.86484" lon="4.81929">
        <ele>269.9</ele>
        <time>2020-06-07T06:24:44.000Z</time>
      </trkpt>
      <trkpt lat="45.86482" lon="4.81929">
        <ele>270</ele>
        <time>2020-06-07T06:24:45.000Z</time>
      </trkpt>
      <trkpt lat="45.8648" lon="4.81928">
        <ele>270.2</ele>
        <time>2020-06-07T06:24:46.000Z</time>
      </trkpt>
      <trkpt lat="45.86479" lon="4.81927">
        <ele>270.3</ele>
        <time>2020-06-07T06:24:47.000Z</time>
      </trkpt>
      <trkpt lat="45.86478" lon="4.81926">
        <ele>270.4</ele>
        <time>2020-06-07T06:24:48.000Z</time>
      </trkpt>
      <trkpt lat="45.86477" lon="4.81925">
        <ele>270.5</ele>
        <time>2020-06-07T06:24:49.000Z</time>
      </trkpt>
      <trkpt lat="45.86476" lon="4.81923">
        <ele>270.6</ele>
        <time>2020-06-07T06:24:50.000Z</time>
      </trkpt>
      <trkpt lat="45.86475" lon="4.81922">
        <ele>270.8</ele>
        <time>2020-06-07T06:24:51.000Z</time>
      </trkpt>
      <trkpt lat="45.86473" lon="4.81921">
        <ele>270.9</ele>
        <time>2020-06-07T06:24:52.000Z</time>
      </trkpt>
      <trkpt lat="45.86471" lon="4.81919">
        <ele>271</ele>
        <time>2020-06-07T06:24:53.000Z</time>
      </trkpt>
      <trkpt lat="45.8647" lon="4.81918">
        <ele>271.2</ele>
        <time>2020-06-07T06:24:54.000Z</time>
      </trkpt>
      <trkpt lat="45.86469" lon="4.81915">
        <ele>271.4</ele>
        <time>2020-06-07T06:24:55.000Z</time>
      </trkpt>
      <trkpt lat="45.86467" lon="4.81914">
        <ele>271.5</ele>
        <time>2020-06-07T06:24:56.000Z</time>
      </trkpt>
      <trkpt lat="45.86466" lon="4.81912">
        <ele>271.6</ele>
        <time>2020-06-07T06:24:57.000Z</time>
      </trkpt>
      <trkpt lat="45.86466" lon="4.8191">
        <ele>271.8</ele>
        <time>2020-06-07T06:24:58.000Z</time>
      </trkpt>
      <trkpt lat="45.86465" lon="4.81909">
        <ele>271.8</ele>
        <time>2020-06-07T06:24:59.000Z</time>
      </trkpt>
      <trkpt lat="45.86465" lon="4.81908">
        <ele>271.9</ele>
        <time>2020-06-07T06:25:00.000Z</time>
      </trkpt>
      <trkpt lat="45.86464" lon="4.81906">
        <ele>272.1</ele>
        <time>2020-06-07T06:25:01.000Z</time>
      </trkpt>
      <trkpt lat="45.86463" lon="4.81904">
        <ele>272.2</ele>
        <time>2020-06-07T06:25:02.000Z</time>
      </trkpt>
      <trkpt lat="45.86462" lon="4.81902">
        <ele>272.4</ele>
        <time>2020-06-07T06:25:03.000Z</time>
      </trkpt>
      <trkpt lat="45.86459" lon="4.81901">
        <ele>272.7</ele>
        <time>2020-06-07T06:25:04.000Z</time>
      </trkpt>
      <trkpt lat="45.86456" lon="4.819">
        <ele>273</ele>
        <time>2020-06-07T06:25:05.000Z</time>
      </trkpt>
      <trkpt lat="45.86454" lon="4.81899">
        <ele>273.2</ele>
        <time>2020-06-07T06:25:06.000Z</time>
      </trkpt>
      <trkpt lat="45.86451" lon="4.81898">
        <ele>273.4</ele>
        <time>2020-06-07T06:25:07.000Z</time>
      </trkpt>
      <trkpt lat="45.86449" lon="4.81897">
        <ele>273.7</ele>
        <time>2020-06-07T06:25:08.000Z</time>
      </trkpt>
      <trkpt lat="45.86447" lon="4.81897">
        <ele>273.9</ele>
        <time>2020-06-07T06:25:09.000Z</time>
      </trkpt>
      <trkpt lat="45.86444" lon="4.81896">
        <ele>274.1</ele>
        <time>2020-06-07T06:25:10.000Z</time>
      </trkpt>
      <trkpt lat="45.86442" lon="4.81895">
        <ele>274.4</ele>
        <time>2020-06-07T06:25:11.000Z</time>
      </trkpt>
      <trkpt lat="45.8644" lon="4.81893">
        <ele>274.6</ele>
        <time>2020-06-07T06:25:12.000Z</time>
      </trkpt>
      <trkpt lat="45.86437" lon="4.81892">
        <ele>274.8</ele>
        <time>2020-06-07T06:25:13.000Z</time>
      </trkpt>
      <trkpt lat="45.86435" lon="4.81889">
        <ele>275.1</ele>
        <time>2020-06-07T06:25:14.000Z</time>
      </trkpt>
      <trkpt lat="45.86434" lon="4.81886">
        <ele>275.4</ele>
        <time>2020-06-07T06:25:15.000Z</time>
      </trkpt>
      <trkpt lat="45.86432" lon="4.81883">
        <ele>275.6</ele>
        <time>2020-06-07T06:25:16.000Z</time>
      </trkpt>
      <trkpt lat="45.8643" lon="4.8188">
        <ele>275.9</ele>
        <time>2020-06-07T06:25:17.000Z</time>
      </trkpt>
      <trkpt lat="45.86428" lon="4.81876">
        <ele>276.1</ele>
        <time>2020-06-07T06:25:18.000Z</time>
      </trkpt>
      <trkpt lat="45.86426" lon="4.81873">
        <ele>276.4</ele>
        <time>2020-06-07T06:25:19.000Z</time>
      </trkpt>
      <trkpt lat="45.86424" lon="4.8187">
        <ele>276.7</ele>
        <time>2020-06-07T06:25:20.000Z</time>
      </trkpt>
      <trkpt lat="45.86422" lon="4.81868">
        <ele>276.9</ele>
        <time>2020-06-07T06:25:21.000Z</time>
      </trkpt>
      <trkpt lat="45.86421" lon="4.81866">
        <ele>277.1</ele>
        <time>2020-06-07T06:25:22.000Z</time>
      </trkpt>
      <trkpt lat="45.86419" lon="4.81864">
        <ele>277.3</ele>
        <time>2020-06-07T06:25:23.000Z</time>
      </trkpt>
      <trkpt lat="45.86416" lon="4.81863">
        <ele>277.7</ele>
        <time>2020-06-07T06:25:24.000Z</time>
      </trkpt>
      <trkpt lat="45.86412" lon="4.81862">
        <ele>278</ele>
        <time>2020-06-07T06:25:25.000Z</time>
      </trkpt>
      <trkpt lat="45.86409" lon="4.81861">
        <ele>278.3</ele>
        <time>2020-06-07T06:25:26.000Z</time>
      </trkpt>
      <trkpt lat="45.86406" lon="4.8186">
        <ele>278.6</ele>
        <time>2020-06-07T06:25:27.000Z</time>
      </trkpt>
      <trkpt lat="45.86404" lon="4.81858">
        <ele>278.8</ele>
        <time>2020-06-07T06:25:28.000Z</time>
      </trkpt>
      <trkpt lat="45.86402" lon="4.81856">
        <ele>279.1</ele>
        <time>2020-06-07T06:25:29.000Z</time>
      </trkpt>
      <trkpt lat="45.864" lon="4.81854">
        <ele>279.3</ele>
        <time>2020-06-07T06:25:30.000Z</time>
      </trkpt>
      <trkpt lat="45.86399" lon="4.81852">
        <ele>279.5</ele>
        <time>2020-06-07T06:25:31.000Z</time>
      </trkpt>
      <trkpt lat="45.86397" lon="4.81851">
        <ele>279.7</ele>
        <time>2020-06-07T06:25:32.000Z</time>
      </trkpt>
      <trkpt lat="45.86395" lon="4.81849">
        <ele>279.9</ele>
        <time>2020-06-07T06:25:33.000Z</time>
      </trkpt>
      <trkpt lat="45.86393" lon="4.81849">
        <ele>280.2</ele>
        <time>2020-06-07T06:25:34.000Z</time>
      </trkpt>
      <trkpt lat="45.86391" lon="4.81847">
        <ele>280.4</ele>
        <time>2020-06-07T06:25:35.000Z</time>
      </trkpt>
      <trkpt lat="45.86389" lon="4.81845">
        <ele>280.6</ele>
        <time>2020-06-07T06:25:36.000Z</time>
      </trkpt>
      <trkpt lat="45.86388" lon="4.81844">
        <ele>280.8</ele>
        <time>2020-06-07T06:25:37.000Z</time>
      </trkpt>
      <trkpt lat="45.86386" lon="4.81842">
        <ele>281.2</ele>
        <time>2020-06-07T06:25:38.000Z</time>
      </trkpt>
      <trkpt lat="45.86386" lon="4.8184">
        <ele>281.3</ele>
        <time>2020-06-07T06:25:39.000Z</time>
      </trkpt>
      <trkpt lat="45.86386" lon="4.81838">
        <ele>281.4</ele>
        <time>2020-06-07T06:25:40.000Z</time>
      </trkpt>
      <trkpt lat="45.86386" lon="4.81836">
        <ele>281.6</ele>
        <time>2020-06-07T06:25:41.000Z</time>
      </trkpt>
      <trkpt lat="45.86385" lon="4.81834">
        <ele>281.7</ele>
        <time>2020-06-07T06:25:42.000Z</time>
      </trkpt>
      <trkpt lat="45.86385" lon="4.81832">
        <ele>281.8</ele>
        <time>2020-06-07T06:25:43.000Z</time>
      </trkpt>
      <trkpt lat="45.86383" lon="4.81831">
        <ele>282</ele>
        <time>2020-06-07T06:25:44.000Z</time>
      </trkpt>
      <trkpt lat="45.86382" lon="4.81829">
        <ele>282.1</ele>
        <time>2020-06-07T06:25:45.000Z</time>
      </trkpt>
      <trkpt lat="45.86381" lon="4.81826">
        <ele>282.3</ele>
        <time>2020-06-07T06:25:46.000Z</time>
      </trkpt>
      <trkpt lat="45.86381" lon="4.81824">
        <ele>282.5</ele>
        <time>2020-06-07T06:25:47.000Z</time>
      </trkpt>
      <trkpt lat="45.8638" lon="4.81821">
        <ele>282.7</ele>
        <time>2020-06-07T06:25:48.000Z</time>
      </trkpt>
      <trkpt lat="45.86379" lon="4.81819">
        <ele>282.8</ele>
        <time>2020-06-07T06:25:49.000Z</time>
      </trkpt>
      <trkpt lat="45.86379" lon="4.81815">
        <ele>283.1</ele>
        <time>2020-06-07T06:25:50.000Z</time>
      </trkpt>
      <trkpt lat="45.86378" lon="4.81812">
        <ele>283.3</ele>
        <time>2020-06-07T06:25:51.000Z</time>
      </trkpt>
      <trkpt lat="45.86376" lon="4.81809">
        <ele>283.6</ele>
        <time>2020-06-07T06:25:52.000Z</time>
      </trkpt>
      <trkpt lat="45.86374" lon="4.81806">
        <ele>283.8</ele>
        <time>2020-06-07T06:25:53.000Z</time>
      </trkpt>
      <trkpt lat="45.86372" lon="4.81802">
        <ele>284.1</ele>
        <time>2020-06-07T06:25:54.000Z</time>
      </trkpt>
      <trkpt lat="45.86371" lon="4.818">
        <ele>284.3</ele>
        <time>2020-06-07T06:25:55.000Z</time>
      </trkpt>
      <trkpt lat="45.8637" lon="4.81797">
        <ele>284.5</ele>
        <time>2020-06-07T06:25:56.000Z</time>
      </trkpt>
      <trkpt lat="45.86369" lon="4.81795">
        <ele>284.7</ele>
        <time>2020-06-07T06:25:57.000Z</time>
      </trkpt>
      <trkpt lat="45.86368" lon="4.81793">
        <ele>284.9</ele>
        <time>2020-06-07T06:25:58.000Z</time>
      </trkpt>
      <trkpt lat="45.86364" lon="4.81792">
        <ele>285.2</ele>
        <time>2020-06-07T06:25:59.000Z</time>
      </trkpt>
      <trkpt lat="45.86361" lon="4.8179">
        <ele>285.5</ele>
        <time>2020-06-07T06:26:00.000Z</time>
      </trkpt>
      <trkpt lat="45.86358" lon="4.81788">
        <ele>285.9</ele>
        <time>2020-06-07T06:26:01.000Z</time>
      </trkpt>
      <trkpt lat="45.86355" lon="4.81786">
        <ele>286.2</ele>
        <time>2020-06-07T06:26:02.000Z</time>
      </trkpt>
      <trkpt lat="45.86352" lon="4.81784">
        <ele>286.5</ele>
        <time>2020-06-07T06:26:03.000Z</time>
      </trkpt>
      <trkpt lat="45.8635" lon="4.81782">
        <ele>286.8</ele>
        <time>2020-06-07T06:26:04.000Z</time>
      </trkpt>
      <trkpt lat="45.86346" lon="4.8178">
        <ele>287.2</ele>
        <time>2020-06-07T06:26:05.000Z</time>
      </trkpt>
      <trkpt lat="45.86343" lon="4.81779">
        <ele>287.5</ele>
        <time>2020-06-07T06:26:06.000Z</time>
      </trkpt>
      <trkpt lat="45.86341" lon="4.81777">
        <ele>287.8</ele>
        <time>2020-06-07T06:26:07.000Z</time>
      </trkpt>
      <trkpt lat="45.86339" lon="4.81775">
        <ele>288</ele>
        <time>2020-06-07T06:26:08.000Z</time>
      </trkpt>
      <trkpt lat="45.86338" lon="4.81772">
        <ele>288.2</ele>
        <time>2020-06-07T06:26:09.000Z</time>
      </trkpt>
      <trkpt lat="45.86336" lon="4.8177">
        <ele>288.5</ele>
        <time>2020-06-07T06:26:10.000Z</time>
      </trkpt>
      <trkpt lat="45.86334" lon="4.81767">
        <ele>288.7</ele>
        <time>2020-06-07T06:26:11.000Z</time>
      </trkpt>
      <trkpt lat="45.86333" lon="4.81765">
        <ele>288.9</ele>
        <time>2020-06-07T06:26:12.000Z</time>
      </trkpt>
      <trkpt lat="45.86331" lon="4.81762">
        <ele>289.2</ele>
        <time>2020-06-07T06:26:13.000Z</time>
      </trkpt>
      <trkpt lat="45.86329" lon="4.8176">
        <ele>289.4</ele>
        <time>2020-06-07T06:26:14.000Z</time>
      </trkpt>
      <trkpt lat="45.86328" lon="4.81758">
        <ele>289.6</ele>
        <time>2020-06-07T06:26:15.000Z</time>
      </trkpt>
      <trkpt lat="45.86326" lon="4.81756">
        <ele>289.9</ele>
        <time>2020-06-07T06:26:16.000Z</time>
      </trkpt>
      <trkpt lat="45.86323" lon="4.81754">
        <ele>290.1</ele>
        <time>2020-06-07T06:26:17.000Z</time>
      </trkpt>
      <trkpt lat="45.86321" lon="4.81752">
        <ele>290.4</ele>
        <time>2020-06-07T06:26:18.000Z</time>
      </trkpt>
      <trkpt lat="45.86319" lon="4.8175">
        <ele>290.6</ele>
        <time>2020-06-07T06:26:19.000Z</time>
      </trkpt>
      <trkpt lat="45.86317" lon="4.81748">
        <ele>290.8</ele>
        <time>2020-06-07T06:26:20.000Z</time>
      </trkpt>
      <trkpt lat="45.86314" lon="4.81748">
        <ele>291.2</ele>
        <time>2020-06-07T06:26:21.000Z</time>
      </trkpt>
      <trkpt lat="45.86311" lon="4.81747">
        <ele>291.4</ele>
        <time>2020-06-07T06:26:22.000Z</time>
      </trkpt>
      <trkpt lat="45.8631" lon="4.81744">
        <ele>291.6</ele>
        <time>2020-06-07T06:26:23.000Z</time>
      </trkpt>
      <trkpt lat="45.86308" lon="4.81741">
        <ele>291.9</ele>
        <time>2020-06-07T06:26:24.000Z</time>
      </trkpt>
      <trkpt lat="45.86306" lon="4.81739">
        <ele>292.1</ele>
        <time>2020-06-07T06:26:25.000Z</time>
      </trkpt>
      <trkpt lat="45.86304" lon="4.81738">
        <ele>292.3</ele>
        <time>2020-06-07T06:26:26.000Z</time>
      </trkpt>
      <trkpt lat="45.86301" lon="4.81736">
        <ele>292.5</ele>
        <time>2020-06-07T06:26:27.000Z</time>
      </trkpt>
      <trkpt lat="45.863" lon="4.81734">
        <ele>292.7</ele>
        <time>2020-06-07T06:26:28.000Z</time>
      </trkpt>
      <trkpt lat="45.86298" lon="4.81732">
        <ele>292.9</ele>
        <time>2020-06-07T06:26:29.000Z</time>
      </trkpt>
      <trkpt lat="45.86296" lon="4.81731">
        <ele>293.1</ele>
        <time>2020-06-07T06:26:30.000Z</time>
      </trkpt>
      <trkpt lat="45.86294" lon="4.8173">
        <ele>293.3</ele>
        <time>2020-06-07T06:26:31.000Z</time>
      </trkpt>
      <trkpt lat="45.86292" lon="4.81728">
        <ele>293.4</ele>
        <time>2020-06-07T06:26:32.000Z</time>
      </trkpt>
      <trkpt lat="45.86291" lon="4.81726">
        <ele>293.6</ele>
        <time>2020-06-07T06:26:33.000Z</time>
      </trkpt>
      <trkpt lat="45.8629" lon="4.81724">
        <ele>293.7</ele>
        <time>2020-06-07T06:26:34.000Z</time>
      </trkpt>
      <trkpt lat="45.86289" lon="4.81722">
        <ele>293.9</ele>
        <time>2020-06-07T06:26:35.000Z</time>
      </trkpt>
      <trkpt lat="45.86286" lon="4.8172">
        <ele>294.2</ele>
        <time>2020-06-07T06:26:36.000Z</time>
      </trkpt>
      <trkpt lat="45.86284" lon="4.81719">
        <ele>294.4</ele>
        <time>2020-06-07T06:26:37.000Z</time>
      </trkpt>
      <trkpt lat="45.86282" lon="4.81717">
        <ele>294.6</ele>
        <time>2020-06-07T06:26:38.000Z</time>
      </trkpt>
      <trkpt lat="45.86281" lon="4.81716">
        <ele>294.8</ele>
        <time>2020-06-07T06:26:39.000Z</time>
      </trkpt>
      <trkpt lat="45.86279" lon="4.81715">
        <ele>294.9</ele>
        <time>2020-06-07T06:26:40.000Z</time>
      </trkpt>
      <trkpt lat="45.86278" lon="4.81714">
        <ele>295</ele>
        <time>2020-06-07T06:26:41.000Z</time>
      </trkpt>
      <trkpt lat="45.86277" lon="4.81712">
        <ele>295.2</ele>
        <time>2020-06-07T06:26:42.000Z</time>
      </trkpt>
      <trkpt lat="45.86276" lon="4.81711">
        <ele>295.3</ele>
        <time>2020-06-07T06:26:43.000Z</time>
      </trkpt>
      <trkpt lat="45.86274" lon="4.81709">
        <ele>295.5</ele>
        <time>2020-06-07T06:26:44.000Z</time>
      </trkpt>
      <trkpt lat="45.86272" lon="4.81709">
        <ele>295.7</ele>
        <time>2020-06-07T06:26:45.000Z</time>
      </trkpt>
      <trkpt lat="45.86271" lon="4.81707">
        <ele>295.9</ele>
        <time>2020-06-07T06:26:46.000Z</time>
      </trkpt>
      <trkpt lat="45.86269" lon="4.81707">
        <ele>296.1</ele>
        <time>2020-06-07T06:26:47.000Z</time>
      </trkpt>
      <trkpt lat="45.86267" lon="4.81705">
        <ele>296.3</ele>
        <time>2020-06-07T06:26:48.000Z</time>
      </trkpt>
      <trkpt lat="45.86266" lon="4.81703">
        <ele>296.5</ele>
        <time>2020-06-07T06:26:49.000Z</time>
      </trkpt>
      <trkpt lat="45.86265" lon="4.81702">
        <ele>296.6</ele>
        <time>2020-06-07T06:26:50.000Z</time>
      </trkpt>
      <trkpt lat="45.86262" lon="4.81701">
        <ele>296.9</ele>
        <time>2020-06-07T06:26:51.000Z</time>
      </trkpt>
      <trkpt lat="45.8626" lon="4.817">
        <ele>297.2</ele>
        <time>2020-06-07T06:26:52.000Z</time>
      </trkpt>
      <trkpt lat="45.86258" lon="4.81698">
        <ele>297.4</ele>
        <time>2020-06-07T06:26:53.000Z</time>
      </trkpt>
      <trkpt lat="45.86256" lon="4.81696">
        <ele>297.7</ele>
        <time>2020-06-07T06:26:54.000Z</time>
      </trkpt>
      <trkpt lat="45.86254" lon="4.81695">
        <ele>298</ele>
        <time>2020-06-07T06:26:55.000Z</time>
      </trkpt>
      <trkpt lat="45.86252" lon="4.81693">
        <ele>298.2</ele>
        <time>2020-06-07T06:26:56.000Z</time>
      </trkpt>
      <trkpt lat="45.86249" lon="4.81692">
        <ele>298.4</ele>
        <time>2020-06-07T06:26:57.000Z</time>
      </trkpt>
      <trkpt lat="45.86248" lon="4.81691">
        <ele>298.6</ele>
        <time>2020-06-07T06:26:58.000Z</time>
      </trkpt>
      <trkpt lat="45.86247" lon="4.8169">
        <ele>298.7</ele>
        <time>2020-06-07T06:26:59.000Z</time>
      </trkpt>
      <trkpt lat="45.86246" lon="4.81688">
        <ele>298.8</ele>
        <time>2020-06-07T06:27:00.000Z</time>
      </trkpt>
      <trkpt lat="45.86246" lon="4.81687">
        <ele>298.9</ele>
        <time>2020-06-07T06:27:01.000Z</time>
      </trkpt>
      <trkpt lat="45.86245" lon="4.81685">
        <ele>299.1</ele>
        <time>2020-06-07T06:27:02.000Z</time>
      </trkpt>
      <trkpt lat="45.86245" lon="4.81684">
        <ele>299.2</ele>
        <time>2020-06-07T06:27:03.000Z</time>
      </trkpt>
      <trkpt lat="45.86244" lon="4.81682">
        <ele>299.3</ele>
        <time>2020-06-07T06:27:04.000Z</time>
      </trkpt>
      <trkpt lat="45.86243" lon="4.81681">
        <ele>299.4</ele>
        <time>2020-06-07T06:27:05.000Z</time>
      </trkpt>
      <trkpt lat="45.86243" lon="4.81679">
        <ele>299.5</ele>
        <time>2020-06-07T06:27:06.000Z</time>
      </trkpt>
      <trkpt lat="45.86242" lon="4.81677">
        <ele>299.7</ele>
        <time>2020-06-07T06:27:07.000Z</time>
      </trkpt>
      <trkpt lat="45.86242" lon="4.81676">
        <ele>299.8</ele>
        <time>2020-06-07T06:27:08.000Z</time>
      </trkpt>
      <trkpt lat="45.86241" lon="4.81674">
        <ele>299.9</ele>
        <time>2020-06-07T06:27:09.000Z</time>
      </trkpt>
      <trkpt lat="45.86239" lon="4.81674">
        <ele>300.1</ele>
        <time>2020-06-07T06:27:10.000Z</time>
      </trkpt>
      <trkpt lat="45.86237" lon="4.81673">
        <ele>300.3</ele>
        <time>2020-06-07T06:27:11.000Z</time>
      </trkpt>
      <trkpt lat="45.86235" lon="4.81673">
        <ele>300.6</ele>
        <time>2020-06-07T06:27:12.000Z</time>
      </trkpt>
      <trkpt lat="45.86233" lon="4.81671">
        <ele>300.8</ele>
        <time>2020-06-07T06:27:13.000Z</time>
      </trkpt>
      <trkpt lat="45.86232" lon="4.8167">
        <ele>301</ele>
        <time>2020-06-07T06:27:14.000Z</time>
      </trkpt>
      <trkpt lat="45.8623" lon="4.81668">
        <ele>301.2</ele>
        <time>2020-06-07T06:27:15.000Z</time>
      </trkpt>
      <trkpt lat="45.86229" lon="4.81666">
        <ele>301.4</ele>
        <time>2020-06-07T06:27:16.000Z</time>
      </trkpt>
      <trkpt lat="45.86228" lon="4.81664">
        <ele>301.6</ele>
        <time>2020-06-07T06:27:17.000Z</time>
      </trkpt>
      <trkpt lat="45.86227" lon="4.81662">
        <ele>301.8</ele>
        <time>2020-06-07T06:27:18.000Z</time>
      </trkpt>
      <trkpt lat="45.86226" lon="4.81661">
        <ele>302</ele>
        <time>2020-06-07T06:27:19.000Z</time>
      </trkpt>
      <trkpt lat="45.86225" lon="4.81658">
        <ele>302.2</ele>
        <time>2020-06-07T06:27:20.000Z</time>
      </trkpt>
      <trkpt lat="45.86223" lon="4.81656">
        <ele>302.4</ele>
        <time>2020-06-07T06:27:21.000Z</time>
      </trkpt>
      <trkpt lat="45.86223" lon="4.81654">
        <ele>302.6</ele>
        <time>2020-06-07T06:27:22.000Z</time>
      </trkpt>
      <trkpt lat="45.86218" lon="4.81652">
        <ele>303.2</ele>
        <time>2020-06-07T06:27:23.000Z</time>
      </trkpt>
      <trkpt lat="45.86213" lon="4.81651">
        <ele>303.7</ele>
        <time>2020-06-07T06:27:24.000Z</time>
      </trkpt>
      <trkpt lat="45.8621" lon="4.8165">
        <ele>304.1</ele>
        <time>2020-06-07T06:27:25.000Z</time>
      </trkpt>
      <trkpt lat="45.86206" lon="4.81647">
        <ele>304.6</ele>
        <time>2020-06-07T06:27:26.000Z</time>
      </trkpt>
      <trkpt lat="45.86203" lon="4.81644">
        <ele>305</ele>
        <time>2020-06-07T06:27:27.000Z</time>
      </trkpt>
      <trkpt lat="45.862" lon="4.81642">
        <ele>305.3</ele>
        <time>2020-06-07T06:27:28.000Z</time>
      </trkpt>
      <trkpt lat="45.86196" lon="4.81641">
        <ele>305.8</ele>
        <time>2020-06-07T06:27:29.000Z</time>
      </trkpt>
      <trkpt lat="45.86193" lon="4.81639">
        <ele>306.1</ele>
        <time>2020-06-07T06:27:30.000Z</time>
      </trkpt>
      <trkpt lat="45.8619" lon="4.81638">
        <ele>306.4</ele>
        <time>2020-06-07T06:27:31.000Z</time>
      </trkpt>
      <trkpt lat="45.86187" lon="4.81637">
        <ele>306.7</ele>
        <time>2020-06-07T06:27:32.000Z</time>
      </trkpt>
      <trkpt lat="45.86184" lon="4.81635">
        <ele>307</ele>
        <time>2020-06-07T06:27:33.000Z</time>
      </trkpt>
      <trkpt lat="45.86181" lon="4.81633">
        <ele>307.3</ele>
        <time>2020-06-07T06:27:34.000Z</time>
      </trkpt>
      <trkpt lat="45.86179" lon="4.81632">
        <ele>307.6</ele>
        <time>2020-06-07T06:27:35.000Z</time>
      </trkpt>
      <trkpt lat="45.86177" lon="4.8163">
        <ele>307.7</ele>
        <time>2020-06-07T06:27:36.000Z</time>
      </trkpt>
      <trkpt lat="45.86176" lon="4.81629">
        <ele>307.9</ele>
        <time>2020-06-07T06:27:37.000Z</time>
      </trkpt>
      <trkpt lat="45.86174" lon="4.81628">
        <ele>308.1</ele>
        <time>2020-06-07T06:27:38.000Z</time>
      </trkpt>
      <trkpt lat="45.86173" lon="4.81627">
        <ele>308.2</ele>
        <time>2020-06-07T06:27:39.000Z</time>
      </trkpt>
      <trkpt lat="45.86173" lon="4.81625">
        <ele>308.4</ele>
        <time>2020-06-07T06:27:40.000Z</time>
      </trkpt>
      <trkpt lat="45.86173" lon="4.81623">
        <ele>308.5</ele>
        <time>2020-06-07T06:27:41.000Z</time>
      </trkpt>
      <trkpt lat="45.86172" lon="4.81622">
        <ele>308.6</ele>
        <time>2020-06-07T06:27:42.000Z</time>
      </trkpt>
      <trkpt lat="45.86172" lon="4.8162">
        <ele>308.7</ele>
        <time>2020-06-07T06:27:43.000Z</time>
      </trkpt>
      <trkpt lat="45.86171" lon="4.81619">
        <ele>308.8</ele>
        <time>2020-06-07T06:27:44.000Z</time>
      </trkpt>
      <trkpt lat="45.86171" lon="4.81618">
        <ele>308.9</ele>
        <time>2020-06-07T06:27:45.000Z</time>
      </trkpt>
      <trkpt lat="45.86171" lon="4.81617">
        <ele>309</ele>
        <time>2020-06-07T06:27:46.000Z</time>
      </trkpt>
      <trkpt lat="45.86171" lon="4.81615">
        <ele>309.1</ele>
        <time>2020-06-07T06:27:47.000Z</time>
      </trkpt>
      <trkpt lat="45.86171" lon="4.81614">
        <ele>309.2</ele>
        <time>2020-06-07T06:27:48.000Z</time>
      </trkpt>
      <trkpt lat="45.8617" lon="4.81613">
        <ele>309.3</ele>
        <time>2020-06-07T06:27:49.000Z</time>
      </trkpt>
      <trkpt lat="45.86171" lon="4.81611">
        <ele>309.4</ele>
        <time>2020-06-07T06:27:50.000Z</time>
      </trkpt>
      <trkpt lat="45.86171" lon="4.8161">
        <ele>309.5</ele>
        <time>2020-06-07T06:27:51.000Z</time>
      </trkpt>
      <trkpt lat="45.86171" lon="4.81608">
        <ele>309.6</ele>
        <time>2020-06-07T06:27:52.000Z</time>
      </trkpt>
      <trkpt lat="45.86171" lon="4.81606">
        <ele>309.8</ele>
        <time>2020-06-07T06:27:53.000Z</time>
      </trkpt>
      <trkpt lat="45.86169" lon="4.81604">
        <ele>310</ele>
        <time>2020-06-07T06:27:54.000Z</time>
      </trkpt>
      <trkpt lat="45.86166" lon="4.81604">
        <ele>310.2</ele>
        <time>2020-06-07T06:27:55.000Z</time>
      </trkpt>
      <trkpt lat="45.86164" lon="4.81603">
        <ele>310.4</ele>
        <time>2020-06-07T06:27:56.000Z</time>
      </trkpt>
      <trkpt lat="45.86163" lon="4.81602">
        <ele>310.6</ele>
        <time>2020-06-07T06:27:57.000Z</time>
      </trkpt>
      <trkpt lat="45.86161" lon="4.81602">
        <ele>310.8</ele>
        <time>2020-06-07T06:27:58.000Z</time>
      </trkpt>
      <trkpt lat="45.86159" lon="4.81601">
        <ele>311</ele>
        <time>2020-06-07T06:27:59.000Z</time>
      </trkpt>
      <trkpt lat="45.86157" lon="4.816">
        <ele>311.2</ele>
        <time>2020-06-07T06:28:00.000Z</time>
      </trkpt>
      <trkpt lat="45.86155" lon="4.81599">
        <ele>311.4</ele>
        <time>2020-06-07T06:28:01.000Z</time>
      </trkpt>
      <trkpt lat="45.86152" lon="4.81598">
        <ele>311.7</ele>
        <time>2020-06-07T06:28:02.000Z</time>
      </trkpt>
      <trkpt lat="45.86151" lon="4.81597">
        <ele>311.9</ele>
        <time>2020-06-07T06:28:03.000Z</time>
      </trkpt>
      <trkpt lat="45.86151" lon="4.81596">
        <ele>312</ele>
        <time>2020-06-07T06:28:04.000Z</time>
      </trkpt>
      <trkpt lat="45.8615" lon="4.81595">
        <ele>312.1</ele>
        <time>2020-06-07T06:28:05.000Z</time>
      </trkpt>
      <trkpt lat="45.8615" lon="4.81593">
        <ele>312.2</ele>
        <time>2020-06-07T06:28:06.000Z</time>
      </trkpt>
      <trkpt lat="45.86147" lon="4.81592">
        <ele>312.4</ele>
        <time>2020-06-07T06:28:07.000Z</time>
      </trkpt>
      <trkpt lat="45.86145" lon="4.81592">
        <ele>312.6</ele>
        <time>2020-06-07T06:28:08.000Z</time>
      </trkpt>
      <trkpt lat="45.86141" lon="4.81591">
        <ele>313</ele>
        <time>2020-06-07T06:28:09.000Z</time>
      </trkpt>
      <trkpt lat="45.86136" lon="4.81591">
        <ele>313.4</ele>
        <time>2020-06-07T06:28:10.000Z</time>
      </trkpt>
      <trkpt lat="45.86132" lon="4.81589">
        <ele>313.8</ele>
        <time>2020-06-07T06:28:11.000Z</time>
      </trkpt>
      <trkpt lat="45.86129" lon="4.81588">
        <ele>314.1</ele>
        <time>2020-06-07T06:28:12.000Z</time>
      </trkpt>
      <trkpt lat="45.86126" lon="4.81586">
        <ele>314.4</ele>
        <time>2020-06-07T06:28:13.000Z</time>
      </trkpt>
      <trkpt lat="45.86123" lon="4.81585">
        <ele>314.6</ele>
        <time>2020-06-07T06:28:14.000Z</time>
      </trkpt>
      <trkpt lat="45.86121" lon="4.81584">
        <ele>314.9</ele>
        <time>2020-06-07T06:28:15.000Z</time>
      </trkpt>
      <trkpt lat="45.86118" lon="4.81583">
        <ele>315.1</ele>
        <time>2020-06-07T06:28:16.000Z</time>
      </trkpt>
      <trkpt lat="45.86116" lon="4.81582">
        <ele>315.3</ele>
        <time>2020-06-07T06:28:17.000Z</time>
      </trkpt>
      <trkpt lat="45.86114" lon="4.81581">
        <ele>315.5</ele>
        <time>2020-06-07T06:28:18.000Z</time>
      </trkpt>
      <trkpt lat="45.86112" lon="4.81579">
        <ele>315.7</ele>
        <time>2020-06-07T06:28:19.000Z</time>
      </trkpt>
      <trkpt lat="45.8611" lon="4.81578">
        <ele>315.8</ele>
        <time>2020-06-07T06:28:20.000Z</time>
      </trkpt>
      <trkpt lat="45.86108" lon="4.81578">
        <ele>316.1</ele>
        <time>2020-06-07T06:28:21.000Z</time>
      </trkpt>
      <trkpt lat="45.86105" lon="4.81577">
        <ele>316.3</ele>
        <time>2020-06-07T06:28:22.000Z</time>
      </trkpt>
      <trkpt lat="45.86103" lon="4.81577">
        <ele>316.5</ele>
        <time>2020-06-07T06:28:23.000Z</time>
      </trkpt>
      <trkpt lat="45.86101" lon="4.81576">
        <ele>316.7</ele>
        <time>2020-06-07T06:28:24.000Z</time>
      </trkpt>
      <trkpt lat="45.86099" lon="4.81575">
        <ele>316.9</ele>
        <time>2020-06-07T06:28:25.000Z</time>
      </trkpt>
      <trkpt lat="45.86097" lon="4.81574">
        <ele>317</ele>
        <time>2020-06-07T06:28:26.000Z</time>
      </trkpt>
      <trkpt lat="45.86097" lon="4.81572">
        <ele>317.2</ele>
        <time>2020-06-07T06:28:27.000Z</time>
      </trkpt>
      <trkpt lat="45.86095" lon="4.81571">
        <ele>317.3</ele>
        <time>2020-06-07T06:28:28.000Z</time>
      </trkpt>
      <trkpt lat="45.86094" lon="4.8157">
        <ele>317.5</ele>
        <time>2020-06-07T06:28:29.000Z</time>
      </trkpt>
      <trkpt lat="45.8609" lon="4.8157">
        <ele>317.8</ele>
        <time>2020-06-07T06:28:30.000Z</time>
      </trkpt>
      <trkpt lat="45.86088" lon="4.81569">
        <ele>317.9</ele>
        <time>2020-06-07T06:28:31.000Z</time>
      </trkpt>
      <trkpt lat="45.86086" lon="4.81568">
        <ele>318.2</ele>
        <time>2020-06-07T06:28:32.000Z</time>
      </trkpt>
      <trkpt lat="45.86084" lon="4.81567">
        <ele>318.4</ele>
        <time>2020-06-07T06:28:33.000Z</time>
      </trkpt>
      <trkpt lat="45.86082" lon="4.81566">
        <ele>318.6</ele>
        <time>2020-06-07T06:28:34.000Z</time>
      </trkpt>
      <trkpt lat="45.8608" lon="4.81564">
        <ele>318.8</ele>
        <time>2020-06-07T06:28:35.000Z</time>
      </trkpt>
      <trkpt lat="45.86079" lon="4.81563">
        <ele>318.9</ele>
        <time>2020-06-07T06:28:36.000Z</time>
      </trkpt>
      <trkpt lat="45.86078" lon="4.81561">
        <ele>319.1</ele>
        <time>2020-06-07T06:28:37.000Z</time>
      </trkpt>
      <trkpt lat="45.86078" lon="4.81559">
        <ele>319.2</ele>
        <time>2020-06-07T06:28:38.000Z</time>
      </trkpt>
      <trkpt lat="45.86077" lon="4.81557">
        <ele>319.3</ele>
        <time>2020-06-07T06:28:39.000Z</time>
      </trkpt>
      <trkpt lat="45.86076" lon="4.81556">
        <ele>319.4</ele>
        <time>2020-06-07T06:28:40.000Z</time>
      </trkpt>
      <trkpt lat="45.86074" lon="4.81556">
        <ele>319.7</ele>
        <time>2020-06-07T06:28:41.000Z</time>
      </trkpt>
      <trkpt lat="45.86072" lon="4.81555">
        <ele>319.9</ele>
        <time>2020-06-07T06:28:42.000Z</time>
      </trkpt>
      <trkpt lat="45.86069" lon="4.81555">
        <ele>320.2</ele>
        <time>2020-06-07T06:28:43.000Z</time>
      </trkpt>
      <trkpt lat="45.86067" lon="4.81554">
        <ele>320.3</ele>
        <time>2020-06-07T06:28:44.000Z</time>
      </trkpt>
      <trkpt lat="45.86067" lon="4.81552">
        <ele>320.5</ele>
        <time>2020-06-07T06:28:45.000Z</time>
      </trkpt>
      <trkpt lat="45.86067" lon="4.81551">
        <ele>320.5</ele>
        <time>2020-06-07T06:28:46.000Z</time>
      </trkpt>
      <trkpt lat="45.86066" lon="4.81551">
        <ele>320.6</ele>
        <time>2020-06-07T06:28:47.000Z</time>
      </trkpt>
      <trkpt lat="45.86032" lon="4.8155">
        <ele>323.9</ele>
        <time>2020-06-07T06:31:38.000Z</time>
      </trkpt>
      <trkpt lat="45.86032" lon="4.81552">
        <ele>324.1</ele>
        <time>2020-06-07T06:31:39.000Z</time>
      </trkpt>
      <trkpt lat="45.86033" lon="4.81555">
        <ele>324.3</ele>
        <time>2020-06-07T06:31:40.000Z</time>
      </trkpt>
      <trkpt lat="45.86033" lon="4.81557">
        <ele>324.5</ele>
        <time>2020-06-07T06:31:41.000Z</time>
      </trkpt>
      <trkpt lat="45.86034" lon="4.8156">
        <ele>324.7</ele>
        <time>2020-06-07T06:31:42.000Z</time>
      </trkpt>
      <trkpt lat="45.86034" lon="4.81563">
        <ele>327.4</ele>
        <time>2020-06-07T06:31:43.000Z</time>
      </trkpt>
      <trkpt lat="45.86034" lon="4.81566">
        <ele>327.3</ele>
        <time>2020-06-07T06:31:44.000Z</time>
      </trkpt>
      <trkpt lat="45.86034" lon="4.81569">
        <ele>327.3</ele>
        <time>2020-06-07T06:31:45.000Z</time>
      </trkpt>
      <trkpt lat="45.86034" lon="4.81572">
        <ele>327.2</ele>
        <time>2020-06-07T06:31:46.000Z</time>
      </trkpt>
      <trkpt lat="45.86035" lon="4.81575">
        <ele>327.2</ele>
        <time>2020-06-07T06:31:47.000Z</time>
      </trkpt>
      <trkpt lat="45.86037" lon="4.81578">
        <ele>327.1</ele>
        <time>2020-06-07T06:31:48.000Z</time>
      </trkpt>
      <trkpt lat="45.86039" lon="4.81583">
        <ele>327</ele>
        <time>2020-06-07T06:31:49.000Z</time>
      </trkpt>
      <trkpt lat="45.8604" lon="4.81587">
        <ele>326.9</ele>
        <time>2020-06-07T06:31:50.000Z</time>
      </trkpt>
      <trkpt lat="45.86042" lon="4.81591">
        <ele>326.7</ele>
        <time>2020-06-07T06:31:51.000Z</time>
      </trkpt>
      <trkpt lat="45.86045" lon="4.81596">
        <ele>326.6</ele>
        <time>2020-06-07T06:31:52.000Z</time>
      </trkpt>
      <trkpt lat="45.86047" lon="4.81601">
        <ele>326.4</ele>
        <time>2020-06-07T06:31:53.000Z</time>
      </trkpt>
      <trkpt lat="45.8605" lon="4.81606">
        <ele>326.2</ele>
        <time>2020-06-07T06:31:54.000Z</time>
      </trkpt>
      <trkpt lat="45.86051" lon="4.81611">
        <ele>326</ele>
        <time>2020-06-07T06:31:55.000Z</time>
      </trkpt>
      <trkpt lat="45.86054" lon="4.81616">
        <ele>325.8</ele>
        <time>2020-06-07T06:31:56.000Z</time>
      </trkpt>
      <trkpt lat="45.86055" lon="4.81621">
        <ele>325.7</ele>
        <time>2020-06-07T06:31:57.000Z</time>
      </trkpt>
      <trkpt lat="45.86057" lon="4.81625">
        <ele>325.5</ele>
        <time>2020-06-07T06:31:58.000Z</time>
      </trkpt>
      <trkpt lat="45.86058" lon="4.8163">
        <ele>325.4</ele>
        <time>2020-06-07T06:31:59.000Z</time>
      </trkpt>
      <trkpt lat="45.86059" lon="4.81634">
        <ele>325.2</ele>
        <time>2020-06-07T06:32:00.000Z</time>
      </trkpt>
      <trkpt lat="45.86061" lon="4.81639">
        <ele>325</ele>
        <time>2020-06-07T06:32:01.000Z</time>
      </trkpt>
      <trkpt lat="45.86064" lon="4.81645">
        <ele>324.7</ele>
        <time>2020-06-07T06:32:02.000Z</time>
      </trkpt>
      <trkpt lat="45.86066" lon="4.81652">
        <ele>324.4</ele>
        <time>2020-06-07T06:32:03.000Z</time>
      </trkpt>
      <trkpt lat="45.86067" lon="4.81659">
        <ele>324.2</ele>
        <time>2020-06-07T06:32:04.000Z</time>
      </trkpt>
      <trkpt lat="45.8607" lon="4.81666">
        <ele>323.9</ele>
        <time>2020-06-07T06:32:05.000Z</time>
      </trkpt>
      <trkpt lat="45.86073" lon="4.81673">
        <ele>323.7</ele>
        <time>2020-06-07T06:32:06.000Z</time>
      </trkpt>
      <trkpt lat="45.86078" lon="4.8168">
        <ele>323.4</ele>
        <time>2020-06-07T06:32:07.000Z</time>
      </trkpt>
      <trkpt lat="45.86082" lon="4.81684">
        <ele>323.3</ele>
        <time>2020-06-07T06:32:08.000Z</time>
      </trkpt>
      <trkpt lat="45.86086" lon="4.81687">
        <ele>323.1</ele>
        <time>2020-06-07T06:32:09.000Z</time>
      </trkpt>
      <trkpt lat="45.86089" lon="4.81691">
        <ele>323</ele>
        <time>2020-06-07T06:32:10.000Z</time>
      </trkpt>
      <trkpt lat="45.86092" lon="4.81694">
        <ele>323</ele>
        <time>2020-06-07T06:32:11.000Z</time>
      </trkpt>
      <trkpt lat="45.86096" lon="4.81698">
        <ele>322.9</ele>
        <time>2020-06-07T06:32:12.000Z</time>
      </trkpt>
      <trkpt lat="45.86099" lon="4.81701">
        <ele>322.8</ele>
        <time>2020-06-07T06:32:13.000Z</time>
      </trkpt>
      <trkpt lat="45.86103" lon="4.81705">
        <ele>322.7</ele>
        <time>2020-06-07T06:32:14.000Z</time>
      </trkpt>
      <trkpt lat="45.86106" lon="4.81708">
        <ele>322.6</ele>
        <time>2020-06-07T06:32:15.000Z</time>
      </trkpt>
      <trkpt lat="45.8611" lon="4.81711">
        <ele>322.4</ele>
        <time>2020-06-07T06:32:16.000Z</time>
      </trkpt>
      <trkpt lat="45.86114" lon="4.81714">
        <ele>322.3</ele>
        <time>2020-06-07T06:32:17.000Z</time>
      </trkpt>
      <trkpt lat="45.86118" lon="4.81717">
        <ele>322.1</ele>
        <time>2020-06-07T06:32:18.000Z</time>
      </trkpt>
      <trkpt lat="45.86121" lon="4.8172">
        <ele>322</ele>
        <time>2020-06-07T06:32:19.000Z</time>
      </trkpt>
      <trkpt lat="45.86123" lon="4.81724">
        <ele>321.8</ele>
        <time>2020-06-07T06:32:20.000Z</time>
      </trkpt>
      <trkpt lat="45.86127" lon="4.81727">
        <ele>321.5</ele>
        <time>2020-06-07T06:32:21.000Z</time>
      </trkpt>
      <trkpt lat="45.8613" lon="4.81732">
        <ele>321.2</ele>
        <time>2020-06-07T06:32:22.000Z</time>
      </trkpt>
      <trkpt lat="45.86134" lon="4.81736">
        <ele>320.9</ele>
        <time>2020-06-07T06:32:23.000Z</time>
      </trkpt>
      <trkpt lat="45.8614" lon="4.81742">
        <ele>320.3</ele>
        <time>2020-06-07T06:32:24.000Z</time>
      </trkpt>
      <trkpt lat="45.86145" lon="4.81748">
        <ele>319.8</ele>
        <time>2020-06-07T06:32:25.000Z</time>
      </trkpt>
      <trkpt lat="45.8615" lon="4.81754">
        <ele>319.4</ele>
        <time>2020-06-07T06:32:26.000Z</time>
      </trkpt>
      <trkpt lat="45.86154" lon="4.8176">
        <ele>319</ele>
        <time>2020-06-07T06:32:27.000Z</time>
      </trkpt>
      <trkpt lat="45.86157" lon="4.81765">
        <ele>318.7</ele>
        <time>2020-06-07T06:32:28.000Z</time>
      </trkpt>
      <trkpt lat="45.8616" lon="4.81771">
        <ele>318.4</ele>
        <time>2020-06-07T06:32:29.000Z</time>
      </trkpt>
      <trkpt lat="45.86162" lon="4.81776">
        <ele>318.1</ele>
        <time>2020-06-07T06:32:30.000Z</time>
      </trkpt>
      <trkpt lat="45.86165" lon="4.81781">
        <ele>317.8</ele>
        <time>2020-06-07T06:32:31.000Z</time>
      </trkpt>
      <trkpt lat="45.86169" lon="4.81786">
        <ele>317.5</ele>
        <time>2020-06-07T06:32:32.000Z</time>
      </trkpt>
      <trkpt lat="45.86172" lon="4.81792">
        <ele>317.2</ele>
        <time>2020-06-07T06:32:33.000Z</time>
      </trkpt>
      <trkpt lat="45.86175" lon="4.81797">
        <ele>316.8</ele>
        <time>2020-06-07T06:32:34.000Z</time>
      </trkpt>
      <trkpt lat="45.8618" lon="4.81803">
        <ele>316.4</ele>
        <time>2020-06-07T06:32:35.000Z</time>
      </trkpt>
      <trkpt lat="45.86184" lon="4.81808">
        <ele>316</ele>
        <time>2020-06-07T06:32:36.000Z</time>
      </trkpt>
      <trkpt lat="45.86188" lon="4.81814">
        <ele>315.6</ele>
        <time>2020-06-07T06:32:37.000Z</time>
      </trkpt>
      <trkpt lat="45.86193" lon="4.8182">
        <ele>315.1</ele>
        <time>2020-06-07T06:32:38.000Z</time>
      </trkpt>
      <trkpt lat="45.862" lon="4.81829">
        <ele>314.4</ele>
        <time>2020-06-07T06:32:39.000Z</time>
      </trkpt>
      <trkpt lat="45.86208" lon="4.81838">
        <ele>313.7</ele>
        <time>2020-06-07T06:32:40.000Z</time>
      </trkpt>
      <trkpt lat="45.86214" lon="4.81846">
        <ele>313</ele>
        <time>2020-06-07T06:32:41.000Z</time>
      </trkpt>
      <trkpt lat="45.86219" lon="4.81853">
        <ele>312.5</ele>
        <time>2020-06-07T06:32:42.000Z</time>
      </trkpt>
      <trkpt lat="45.86223" lon="4.81861">
        <ele>312</ele>
        <time>2020-06-07T06:32:43.000Z</time>
      </trkpt>
      <trkpt lat="45.86227" lon="4.81874">
        <ele>311.4</ele>
        <time>2020-06-07T06:32:44.000Z</time>
      </trkpt>
      <trkpt lat="45.86231" lon="4.81885">
        <ele>310.8</ele>
        <time>2020-06-07T06:32:45.000Z</time>
      </trkpt>
      <trkpt lat="45.86234" lon="4.81897">
        <ele>310.3</ele>
        <time>2020-06-07T06:32:46.000Z</time>
      </trkpt>
      <trkpt lat="45.86238" lon="4.81911">
        <ele>309.7</ele>
        <time>2020-06-07T06:32:47.000Z</time>
      </trkpt>
      <trkpt lat="45.86243" lon="4.81922">
        <ele>309</ele>
        <time>2020-06-07T06:32:48.000Z</time>
      </trkpt>
      <trkpt lat="45.86246" lon="4.81931">
        <ele>308.4</ele>
        <time>2020-06-07T06:32:49.000Z</time>
      </trkpt>
      <trkpt lat="45.86249" lon="4.81937">
        <ele>307.9</ele>
        <time>2020-06-07T06:32:50.000Z</time>
      </trkpt>
      <trkpt lat="45.86254" lon="4.81941">
        <ele>307.2</ele>
        <time>2020-06-07T06:32:51.000Z</time>
      </trkpt>
      <trkpt lat="45.86259" lon="4.81945">
        <ele>306.7</ele>
        <time>2020-06-07T06:32:52.000Z</time>
      </trkpt>
      <trkpt lat="45.86265" lon="4.81947">
        <ele>306</ele>
        <time>2020-06-07T06:32:53.000Z</time>
      </trkpt>
      <trkpt lat="45.8627" lon="4.8195">
        <ele>305.4</ele>
        <time>2020-06-07T06:32:54.000Z</time>
      </trkpt>
      <trkpt lat="45.86276" lon="4.81951">
        <ele>304.7</ele>
        <time>2020-06-07T06:32:55.000Z</time>
      </trkpt>
      <trkpt lat="45.86282" lon="4.81953">
        <ele>304</ele>
        <time>2020-06-07T06:32:56.000Z</time>
      </trkpt>
      <trkpt lat="45.86287" lon="4.81955">
        <ele>303.4</ele>
        <time>2020-06-07T06:32:57.000Z</time>
      </trkpt>
      <trkpt lat="45.86294" lon="4.81957">
        <ele>302.9</ele>
        <time>2020-06-07T06:32:58.000Z</time>
      </trkpt>
      <trkpt lat="45.86299" lon="4.8196">
        <ele>302.4</ele>
        <time>2020-06-07T06:32:59.000Z</time>
      </trkpt>
      <trkpt lat="45.86305" lon="4.81964">
        <ele>301.9</ele>
        <time>2020-06-07T06:33:00.000Z</time>
      </trkpt>
      <trkpt lat="45.86312" lon="4.81966">
        <ele>301.4</ele>
        <time>2020-06-07T06:33:01.000Z</time>
      </trkpt>
      <trkpt lat="45.8632" lon="4.8197">
        <ele>300.7</ele>
        <time>2020-06-07T06:33:02.000Z</time>
      </trkpt>
      <trkpt lat="45.86328" lon="4.81974">
        <ele>300.1</ele>
        <time>2020-06-07T06:33:03.000Z</time>
      </trkpt>
      <trkpt lat="45.86338" lon="4.81977">
        <ele>299.4</ele>
        <time>2020-06-07T06:33:04.000Z</time>
      </trkpt>
      <trkpt lat="45.86346" lon="4.81981">
        <ele>298.8</ele>
        <time>2020-06-07T06:33:05.000Z</time>
      </trkpt>
      <trkpt lat="45.86354" lon="4.81986">
        <ele>298.1</ele>
        <time>2020-06-07T06:33:06.000Z</time>
      </trkpt>
      <trkpt lat="45.86365" lon="4.8199">
        <ele>297.1</ele>
        <time>2020-06-07T06:33:07.000Z</time>
      </trkpt>
      <trkpt lat="45.86377" lon="4.81994">
        <ele>295.7</ele>
        <time>2020-06-07T06:33:08.000Z</time>
      </trkpt>
      <trkpt lat="45.86388" lon="4.81998">
        <ele>294.6</ele>
        <time>2020-06-07T06:33:09.000Z</time>
      </trkpt>
      <trkpt lat="45.86399" lon="4.82003">
        <ele>293.4</ele>
        <time>2020-06-07T06:33:10.000Z</time>
      </trkpt>
      <trkpt lat="45.86411" lon="4.82007">
        <ele>292.2</ele>
        <time>2020-06-07T06:33:11.000Z</time>
      </trkpt>
      <trkpt lat="45.86425" lon="4.82011">
        <ele>291</ele>
        <time>2020-06-07T06:33:12.000Z</time>
      </trkpt>
      <trkpt lat="45.86441" lon="4.82017">
        <ele>290</ele>
        <time>2020-06-07T06:33:13.000Z</time>
      </trkpt>
      <trkpt lat="45.86451" lon="4.8202">
        <ele>289.3</ele>
        <time>2020-06-07T06:33:14.000Z</time>
      </trkpt>
      <trkpt lat="45.86463" lon="4.82023">
        <ele>288.6</ele>
        <time>2020-06-07T06:33:15.000Z</time>
      </trkpt>
      <trkpt lat="45.86473" lon="4.82026">
        <ele>288.1</ele>
        <time>2020-06-07T06:33:16.000Z</time>
      </trkpt>
      <trkpt lat="45.86482" lon="4.82029">
        <ele>287.8</ele>
        <time>2020-06-07T06:33:17.000Z</time>
      </trkpt>
      <trkpt lat="45.86491" lon="4.82033">
        <ele>287.5</ele>
        <time>2020-06-07T06:33:18.000Z</time>
      </trkpt>
      <trkpt lat="45.865" lon="4.82038">
        <ele>287.3</ele>
        <time>2020-06-07T06:33:19.000Z</time>
      </trkpt>
      <trkpt lat="45.86508" lon="4.82042">
        <ele>287.1</ele>
        <time>2020-06-07T06:33:20.000Z</time>
      </trkpt>
      <trkpt lat="45.86516" lon="4.82046">
        <ele>286.9</ele>
        <time>2020-06-07T06:33:21.000Z</time>
      </trkpt>
      <trkpt lat="45.86523" lon="4.8205">
        <ele>286.8</ele>
        <time>2020-06-07T06:33:22.000Z</time>
      </trkpt>
      <trkpt lat="45.86534" lon="4.82054">
        <ele>286.7</ele>
        <time>2020-06-07T06:33:23.000Z</time>
      </trkpt>
      <trkpt lat="45.86541" lon="4.82057">
        <ele>286.7</ele>
        <time>2020-06-07T06:33:24.000Z</time>
      </trkpt>
      <trkpt lat="45.86547" lon="4.8206">
        <ele>286.7</ele>
        <time>2020-06-07T06:33:25.000Z</time>
      </trkpt>
      <trkpt lat="45.8655" lon="4.82062">
        <ele>286.7</ele>
        <time>2020-06-07T06:33:26.000Z</time>
      </trkpt>
      <trkpt lat="45.86552" lon="4.82064">
        <ele>286.7</ele>
        <time>2020-06-07T06:33:27.000Z</time>
      </trkpt>
      <trkpt lat="45.86553" lon="4.82067">
        <ele>286.7</ele>
        <time>2020-06-07T06:33:28.000Z</time>
      </trkpt>
      <trkpt lat="45.86553" lon="4.82067">
        <ele>286.7</ele>
        <time>2020-06-07T06:33:29.000Z</time>
      </trkpt>
      <trkpt lat="45.86554" lon="4.82069">
        <ele>286.7</ele>
        <time>2020-06-07T06:33:30.000Z</time>
      </trkpt>
      <trkpt lat="45.86555" lon="4.82071">
        <ele>286.7</ele>
        <time>2020-06-07T06:33:31.000Z</time>
      </trkpt>
      <trkpt lat="45.86556" lon="4.82073">
        <ele>286.7</ele>
        <time>2020-06-07T06:33:32.000Z</time>
      </trkpt>
      <trkpt lat="45.86557" lon="4.82073">
        <ele>286.7</ele>
        <time>2020-06-07T06:33:33.000Z</time>
      </trkpt>
      <trkpt lat="45.86558" lon="4.82074">
        <ele>286.7</ele>
        <time>2020-06-07T06:33:34.000Z</time>
      </trkpt>
      <trkpt lat="45.86559" lon="4.82076">
        <ele>286.7</ele>
        <time>2020-06-07T06:33:35.000Z</time>
      </trkpt>
      <trkpt lat="45.86559" lon="4.82078">
        <ele>286.7</ele>
        <time>2020-06-07T06:33:36.000Z</time>
      </trkpt>
      <trkpt lat="45.8656" lon="4.82079">
        <ele>286.7</ele>
        <time>2020-06-07T06:33:37.000Z</time>
      </trkpt>
      <trkpt lat="45.86561" lon="4.82079">
        <ele>286.7</ele>
        <time>2020-06-07T06:33:38.000Z</time>
      </trkpt>
      <trkpt lat="45.86561" lon="4.8208">
        <ele>286.7</ele>
        <time>2020-06-07T06:33:39.000Z</time>
      </trkpt>
      <trkpt lat="45.86562" lon="4.8208">
        <ele>286.7</ele>
        <time>2020-06-07T06:33:40.000Z</time>
      </trkpt>
      <trkpt lat="45.86563" lon="4.8208">
        <ele>286.7</ele>
        <time>2020-06-07T06:33:41.000Z</time>
      </trkpt>
      <trkpt lat="45.86563" lon="4.8208">
        <ele>286.7</ele>
        <time>2020-06-07T06:33:42.000Z</time>
      </trkpt>
      <trkpt lat="45.86563" lon="4.82081">
        <ele>286.7</ele>
        <time>2020-06-07T06:33:43.000Z</time>
      </trkpt>
      <trkpt lat="45.86564" lon="4.82081">
        <ele>286.7</ele>
        <time>2020-06-07T06:33:44.000Z</time>
      </trkpt>
      <trkpt lat="45.86564" lon="4.82099">
        <ele>287.4</ele>
        <time>2020-06-07T06:35:26.000Z</time>
      </trkpt>
      <trkpt lat="45.86563" lon="4.82101">
        <ele>287.6</ele>
        <time>2020-06-07T06:35:27.000Z</time>
      </trkpt>
      <trkpt lat="45.86562" lon="4.82104">
        <ele>287.8</ele>
        <time>2020-06-07T06:35:28.000Z</time>
      </trkpt>
      <trkpt lat="45.86561" lon="4.82107">
        <ele>288.1</ele>
        <time>2020-06-07T06:35:29.000Z</time>
      </trkpt>
      <trkpt lat="45.86559" lon="4.82109">
        <ele>288.3</ele>
        <time>2020-06-07T06:35:30.000Z</time>
      </trkpt>
      <trkpt lat="45.86558" lon="4.82112">
        <ele>288.6</ele>
        <time>2020-06-07T06:35:31.000Z</time>
      </trkpt>
      <trkpt lat="45.86556" lon="4.82114">
        <ele>288.9</ele>
        <time>2020-06-07T06:35:32.000Z</time>
      </trkpt>
      <trkpt lat="45.86553" lon="4.82116">
        <ele>289.2</ele>
        <time>2020-06-07T06:35:33.000Z</time>
      </trkpt>
      <trkpt lat="45.86551" lon="4.82118">
        <ele>289.5</ele>
        <time>2020-06-07T06:35:34.000Z</time>
      </trkpt>
      <trkpt lat="45.86549" lon="4.82119">
        <ele>289.8</ele>
        <time>2020-06-07T06:35:35.000Z</time>
      </trkpt>
      <trkpt lat="45.86546" lon="4.82119">
        <ele>290.1</ele>
        <time>2020-06-07T06:35:36.000Z</time>
      </trkpt>
      <trkpt lat="45.86544" lon="4.8212">
        <ele>290.3</ele>
        <time>2020-06-07T06:35:37.000Z</time>
      </trkpt>
      <trkpt lat="45.86541" lon="4.8212">
        <ele>290.6</ele>
        <time>2020-06-07T06:35:38.000Z</time>
      </trkpt>
      <trkpt lat="45.86539" lon="4.8212">
        <ele>290.8</ele>
        <time>2020-06-07T06:35:39.000Z</time>
      </trkpt>
      <trkpt lat="45.86537" lon="4.8212">
        <ele>291</ele>
        <time>2020-06-07T06:35:40.000Z</time>
      </trkpt>
      <trkpt lat="45.86535" lon="4.82121">
        <ele>291.2</ele>
        <time>2020-06-07T06:35:41.000Z</time>
      </trkpt>
      <trkpt lat="45.86533" lon="4.82121">
        <ele>291.5</ele>
        <time>2020-06-07T06:35:42.000Z</time>
      </trkpt>
      <trkpt lat="45.8653" lon="4.82121">
        <ele>291.7</ele>
        <time>2020-06-07T06:35:43.000Z</time>
      </trkpt>
      <trkpt lat="45.86528" lon="4.82121">
        <ele>291.9</ele>
        <time>2020-06-07T06:35:44.000Z</time>
      </trkpt>
      <trkpt lat="45.86526" lon="4.82121">
        <ele>292.1</ele>
        <time>2020-06-07T06:35:45.000Z</time>
      </trkpt>
      <trkpt lat="45.86524" lon="4.82121">
        <ele>292.4</ele>
        <time>2020-06-07T06:35:46.000Z</time>
      </trkpt>
      <trkpt lat="45.86521" lon="4.82121">
        <ele>292.6</ele>
        <time>2020-06-07T06:35:47.000Z</time>
      </trkpt>
      <trkpt lat="45.86519" lon="4.82121">
        <ele>292.8</ele>
        <time>2020-06-07T06:35:48.000Z</time>
      </trkpt>
      <trkpt lat="45.86517" lon="4.82122">
        <ele>293</ele>
        <time>2020-06-07T06:35:49.000Z</time>
      </trkpt>
      <trkpt lat="45.86515" lon="4.82122">
        <ele>293.2</ele>
        <time>2020-06-07T06:35:50.000Z</time>
      </trkpt>
      <trkpt lat="45.86513" lon="4.82122">
        <ele>293.4</ele>
        <time>2020-06-07T06:35:51.000Z</time>
      </trkpt>
      <trkpt lat="45.86511" lon="4.82122">
        <ele>293.6</ele>
        <time>2020-06-07T06:35:52.000Z</time>
      </trkpt>
      <trkpt lat="45.86509" lon="4.82122">
        <ele>293.8</ele>
        <time>2020-06-07T06:35:53.000Z</time>
      </trkpt>
      <trkpt lat="45.86507" lon="4.82122">
        <ele>293.9</ele>
        <time>2020-06-07T06:35:54.000Z</time>
      </trkpt>
      <trkpt lat="45.86505" lon="4.82122">
        <ele>294.1</ele>
        <time>2020-06-07T06:35:55.000Z</time>
      </trkpt>
      <trkpt lat="45.86503" lon="4.82122">
        <ele>294.3</ele>
        <time>2020-06-07T06:35:56.000Z</time>
      </trkpt>
      <trkpt lat="45.86501" lon="4.82122">
        <ele>294.4</ele>
        <time>2020-06-07T06:35:57.000Z</time>
      </trkpt>
      <trkpt lat="45.86499" lon="4.82122">
        <ele>294.6</ele>
        <time>2020-06-07T06:35:58.000Z</time>
      </trkpt>
      <trkpt lat="45.86497" lon="4.82122">
        <ele>294.9</ele>
        <time>2020-06-07T06:35:59.000Z</time>
      </trkpt>
      <trkpt lat="45.86494" lon="4.82122">
        <ele>295.1</ele>
        <time>2020-06-07T06:36:00.000Z</time>
      </trkpt>
      <trkpt lat="45.86492" lon="4.82122">
        <ele>295.3</ele>
        <time>2020-06-07T06:36:01.000Z</time>
      </trkpt>
      <trkpt lat="45.8649" lon="4.82123">
        <ele>295.5</ele>
        <time>2020-06-07T06:36:02.000Z</time>
      </trkpt>
      <trkpt lat="45.86488" lon="4.82123">
        <ele>295.7</ele>
        <time>2020-06-07T06:36:03.000Z</time>
      </trkpt>
      <trkpt lat="45.86486" lon="4.82124">
        <ele>295.9</ele>
        <time>2020-06-07T06:36:04.000Z</time>
      </trkpt>
      <trkpt lat="45.86484" lon="4.82124">
        <ele>296.1</ele>
        <time>2020-06-07T06:36:05.000Z</time>
      </trkpt>
      <trkpt lat="45.86481" lon="4.82125">
        <ele>296.3</ele>
        <time>2020-06-07T06:36:06.000Z</time>
      </trkpt>
      <trkpt lat="45.86479" lon="4.82125">
        <ele>296.6</ele>
        <time>2020-06-07T06:36:07.000Z</time>
      </trkpt>
      <trkpt lat="45.86477" lon="4.82126">
        <ele>296.8</ele>
        <time>2020-06-07T06:36:08.000Z</time>
      </trkpt>
      <trkpt lat="45.86475" lon="4.82127">
        <ele>297</ele>
        <time>2020-06-07T06:36:09.000Z</time>
      </trkpt>
      <trkpt lat="45.86472" lon="4.82127">
        <ele>297.2</ele>
        <time>2020-06-07T06:36:10.000Z</time>
      </trkpt>
      <trkpt lat="45.8647" lon="4.82128">
        <ele>297.4</ele>
        <time>2020-06-07T06:36:11.000Z</time>
      </trkpt>
      <trkpt lat="45.86467" lon="4.82129">
        <ele>297.6</ele>
        <time>2020-06-07T06:36:12.000Z</time>
      </trkpt>
      <trkpt lat="45.86465" lon="4.8213">
        <ele>297.8</ele>
        <time>2020-06-07T06:36:13.000Z</time>
      </trkpt>
      <trkpt lat="45.86463" lon="4.8213">
        <ele>298</ele>
        <time>2020-06-07T06:36:14.000Z</time>
      </trkpt>
      <trkpt lat="45.8646" lon="4.82131">
        <ele>298.2</ele>
        <time>2020-06-07T06:36:15.000Z</time>
      </trkpt>
      <trkpt lat="45.86458" lon="4.82131">
        <ele>298.5</ele>
        <time>2020-06-07T06:36:16.000Z</time>
      </trkpt>
      <trkpt lat="45.86456" lon="4.82131">
        <ele>298.7</ele>
        <time>2020-06-07T06:36:17.000Z</time>
      </trkpt>
      <trkpt lat="45.86453" lon="4.82132">
        <ele>298.9</ele>
        <time>2020-06-07T06:36:18.000Z</time>
      </trkpt>
      <trkpt lat="45.86451" lon="4.82132">
        <ele>299.1</ele>
        <time>2020-06-07T06:36:19.000Z</time>
      </trkpt>
      <trkpt lat="45.86449" lon="4.82132">
        <ele>299.3</ele>
        <time>2020-06-07T06:36:20.000Z</time>
      </trkpt>
      <trkpt lat="45.86447" lon="4.82133">
        <ele>299.5</ele>
        <time>2020-06-07T06:36:21.000Z</time>
      </trkpt>
      <trkpt lat="45.86445" lon="4.82133">
        <ele>299.8</ele>
        <time>2020-06-07T06:36:22.000Z</time>
      </trkpt>
      <trkpt lat="45.86443" lon="4.82134">
        <ele>300</ele>
        <time>2020-06-07T06:36:23.000Z</time>
      </trkpt>
      <trkpt lat="45.86441" lon="4.82135">
        <ele>300.2</ele>
        <time>2020-06-07T06:36:24.000Z</time>
      </trkpt>
      <trkpt lat="45.86439" lon="4.82135">
        <ele>300.4</ele>
        <time>2020-06-07T06:36:25.000Z</time>
      </trkpt>
      <trkpt lat="45.86437" lon="4.82135">
        <ele>300.6</ele>
        <time>2020-06-07T06:36:26.000Z</time>
      </trkpt>
      <trkpt lat="45.86435" lon="4.82135">
        <ele>300.9</ele>
        <time>2020-06-07T06:36:27.000Z</time>
      </trkpt>
      <trkpt lat="45.86433" lon="4.82135">
        <ele>301.1</ele>
        <time>2020-06-07T06:36:28.000Z</time>
      </trkpt>
      <trkpt lat="45.86432" lon="4.82135">
        <ele>301.2</ele>
        <time>2020-06-07T06:36:29.000Z</time>
      </trkpt>
      <trkpt lat="45.8643" lon="4.82135">
        <ele>301.4</ele>
        <time>2020-06-07T06:36:30.000Z</time>
      </trkpt>
      <trkpt lat="45.86429" lon="4.82134">
        <ele>301.6</ele>
        <time>2020-06-07T06:36:31.000Z</time>
      </trkpt>
      <trkpt lat="45.86427" lon="4.82134">
        <ele>301.8</ele>
        <time>2020-06-07T06:36:32.000Z</time>
      </trkpt>
      <trkpt lat="45.86425" lon="4.82134">
        <ele>302</ele>
        <time>2020-06-07T06:36:33.000Z</time>
      </trkpt>
      <trkpt lat="45.86423" lon="4.82134">
        <ele>302.2</ele>
        <time>2020-06-07T06:36:34.000Z</time>
      </trkpt>
      <trkpt lat="45.86422" lon="4.82134">
        <ele>302.4</ele>
        <time>2020-06-07T06:36:35.000Z</time>
      </trkpt>
      <trkpt lat="45.8642" lon="4.82134">
        <ele>302.5</ele>
        <time>2020-06-07T06:36:36.000Z</time>
      </trkpt>
      <trkpt lat="45.86418" lon="4.82134">
        <ele>302.7</ele>
        <time>2020-06-07T06:36:37.000Z</time>
      </trkpt>
      <trkpt lat="45.86417" lon="4.82134">
        <ele>302.9</ele>
        <time>2020-06-07T06:36:38.000Z</time>
      </trkpt>
      <trkpt lat="45.86415" lon="4.82134">
        <ele>303.1</ele>
        <time>2020-06-07T06:36:39.000Z</time>
      </trkpt>
      <trkpt lat="45.86414" lon="4.82134">
        <ele>303.3</ele>
        <time>2020-06-07T06:36:40.000Z</time>
      </trkpt>
      <trkpt lat="45.86412" lon="4.82135">
        <ele>303.5</ele>
        <time>2020-06-07T06:36:41.000Z</time>
      </trkpt>
      <trkpt lat="45.86411" lon="4.82135">
        <ele>303.7</ele>
        <time>2020-06-07T06:36:42.000Z</time>
      </trkpt>
      <trkpt lat="45.86409" lon="4.82135">
        <ele>303.9</ele>
        <time>2020-06-07T06:36:43.000Z</time>
      </trkpt>
      <trkpt lat="45.86407" lon="4.82136">
        <ele>304.1</ele>
        <time>2020-06-07T06:36:44.000Z</time>
      </trkpt>
      <trkpt lat="45.86405" lon="4.82136">
        <ele>304.4</ele>
        <time>2020-06-07T06:36:45.000Z</time>
      </trkpt>
      <trkpt lat="45.86403" lon="4.82136">
        <ele>304.7</ele>
        <time>2020-06-07T06:36:46.000Z</time>
      </trkpt>
      <trkpt lat="45.86401" lon="4.82137">
        <ele>304.9</ele>
        <time>2020-06-07T06:36:47.000Z</time>
      </trkpt>
      <trkpt lat="45.86399" lon="4.82137">
        <ele>305.2</ele>
        <time>2020-06-07T06:36:48.000Z</time>
      </trkpt>
      <trkpt lat="45.86398" lon="4.82138">
        <ele>305.4</ele>
        <time>2020-06-07T06:36:49.000Z</time>
      </trkpt>
      <trkpt lat="45.86397" lon="4.82139">
        <ele>305.6</ele>
        <time>2020-06-07T06:36:50.000Z</time>
      </trkpt>
      <trkpt lat="45.86395" lon="4.8214">
        <ele>305.9</ele>
        <time>2020-06-07T06:36:51.000Z</time>
      </trkpt>
      <trkpt lat="45.86394" lon="4.82141">
        <ele>306.1</ele>
        <time>2020-06-07T06:36:52.000Z</time>
      </trkpt>
      <trkpt lat="45.86393" lon="4.82142">
        <ele>306.3</ele>
        <time>2020-06-07T06:36:53.000Z</time>
      </trkpt>
      <trkpt lat="45.86392" lon="4.82143">
        <ele>306.5</ele>
        <time>2020-06-07T06:36:54.000Z</time>
      </trkpt>
      <trkpt lat="45.8639" lon="4.82144">
        <ele>306.8</ele>
        <time>2020-06-07T06:36:55.000Z</time>
      </trkpt>
      <trkpt lat="45.86389" lon="4.82145">
        <ele>307</ele>
        <time>2020-06-07T06:36:56.000Z</time>
      </trkpt>
      <trkpt lat="45.86387" lon="4.82147">
        <ele>307.4</ele>
        <time>2020-06-07T06:36:57.000Z</time>
      </trkpt>
      <trkpt lat="45.86386" lon="4.82148">
        <ele>307.7</ele>
        <time>2020-06-07T06:36:58.000Z</time>
      </trkpt>
      <trkpt lat="45.86384" lon="4.8215">
        <ele>308.1</ele>
        <time>2020-06-07T06:36:59.000Z</time>
      </trkpt>
      <trkpt lat="45.86382" lon="4.82152">
        <ele>308.4</ele>
        <time>2020-06-07T06:37:00.000Z</time>
      </trkpt>
      <trkpt lat="45.86382" lon="4.82154">
        <ele>308.7</ele>
        <time>2020-06-07T06:37:01.000Z</time>
      </trkpt>
      <trkpt lat="45.86381" lon="4.82155">
        <ele>309</ele>
        <time>2020-06-07T06:37:02.000Z</time>
      </trkpt>
      <trkpt lat="45.8638" lon="4.82157">
        <ele>309.2</ele>
        <time>2020-06-07T06:37:03.000Z</time>
      </trkpt>
      <trkpt lat="45.86379" lon="4.82158">
        <ele>309.4</ele>
        <time>2020-06-07T06:37:04.000Z</time>
      </trkpt>
      <trkpt lat="45.86378" lon="4.8216">
        <ele>309.7</ele>
        <time>2020-06-07T06:37:05.000Z</time>
      </trkpt>
      <trkpt lat="45.86377" lon="4.82161">
        <ele>310</ele>
        <time>2020-06-07T06:37:06.000Z</time>
      </trkpt>
      <trkpt lat="45.86376" lon="4.82163">
        <ele>310.3</ele>
        <time>2020-06-07T06:37:07.000Z</time>
      </trkpt>
      <trkpt lat="45.86375" lon="4.82165">
        <ele>310.6</ele>
        <time>2020-06-07T06:37:08.000Z</time>
      </trkpt>
      <trkpt lat="45.86374" lon="4.82167">
        <ele>310.8</ele>
        <time>2020-06-07T06:37:09.000Z</time>
      </trkpt>
      <trkpt lat="45.86373" lon="4.82169">
        <ele>311.1</ele>
        <time>2020-06-07T06:37:10.000Z</time>
      </trkpt>
      <trkpt lat="45.86372" lon="4.82171">
        <ele>311.3</ele>
        <time>2020-06-07T06:37:11.000Z</time>
      </trkpt>
      <trkpt lat="45.86372" lon="4.82173">
        <ele>311.5</ele>
        <time>2020-06-07T06:37:12.000Z</time>
      </trkpt>
      <trkpt lat="45.86371" lon="4.82174">
        <ele>311.7</ele>
        <time>2020-06-07T06:37:13.000Z</time>
      </trkpt>
      <trkpt lat="45.8637" lon="4.82176">
        <ele>312</ele>
        <time>2020-06-07T06:37:14.000Z</time>
      </trkpt>
      <trkpt lat="45.86369" lon="4.82178">
        <ele>312.2</ele>
        <time>2020-06-07T06:37:15.000Z</time>
      </trkpt>
      <trkpt lat="45.86369" lon="4.8218">
        <ele>312.5</ele>
        <time>2020-06-07T06:37:16.000Z</time>
      </trkpt>
      <trkpt lat="45.86368" lon="4.82183">
        <ele>312.8</ele>
        <time>2020-06-07T06:37:17.000Z</time>
      </trkpt>
      <trkpt lat="45.86369" lon="4.82187">
        <ele>313.2</ele>
        <time>2020-06-07T06:37:18.000Z</time>
      </trkpt>
      <trkpt lat="45.86369" lon="4.82191">
        <ele>314.3</ele>
        <time>2020-06-07T06:37:19.000Z</time>
      </trkpt>
      <trkpt lat="45.86369" lon="4.82194">
        <ele>314.4</ele>
        <time>2020-06-07T06:37:20.000Z</time>
      </trkpt>
      <trkpt lat="45.86368" lon="4.82198">
        <ele>314.5</ele>
        <time>2020-06-07T06:37:21.000Z</time>
      </trkpt>
      <trkpt lat="45.86367" lon="4.82202">
        <ele>314.6</ele>
        <time>2020-06-07T06:37:22.000Z</time>
      </trkpt>
      <trkpt lat="45.86367" lon="4.82206">
        <ele>314.6</ele>
        <time>2020-06-07T06:37:23.000Z</time>
      </trkpt>
      <trkpt lat="45.86367" lon="4.82209">
        <ele>314.7</ele>
        <time>2020-06-07T06:37:24.000Z</time>
      </trkpt>
      <trkpt lat="45.86367" lon="4.82213">
        <ele>314.8</ele>
        <time>2020-06-07T06:37:25.000Z</time>
      </trkpt>
      <trkpt lat="45.86368" lon="4.82217">
        <ele>314.9</ele>
        <time>2020-06-07T06:37:26.000Z</time>
      </trkpt>
      <trkpt lat="45.86369" lon="4.8222">
        <ele>315</ele>
        <time>2020-06-07T06:37:27.000Z</time>
      </trkpt>
      <trkpt lat="45.86369" lon="4.82223">
        <ele>315</ele>
        <time>2020-06-07T06:37:28.000Z</time>
      </trkpt>
      <trkpt lat="45.8637" lon="4.82225">
        <ele>315</ele>
        <time>2020-06-07T06:37:29.000Z</time>
      </trkpt>
      <trkpt lat="45.86372" lon="4.82227">
        <ele>315</ele>
        <time>2020-06-07T06:37:30.000Z</time>
      </trkpt>
      <trkpt lat="45.86373" lon="4.8223">
        <ele>315</ele>
        <time>2020-06-07T06:37:31.000Z</time>
      </trkpt>
      <trkpt lat="45.86375" lon="4.82233">
        <ele>315</ele>
        <time>2020-06-07T06:37:32.000Z</time>
      </trkpt>
      <trkpt lat="45.86377" lon="4.82236">
        <ele>314.9</ele>
        <time>2020-06-07T06:37:33.000Z</time>
      </trkpt>
      <trkpt lat="45.86379" lon="4.82239">
        <ele>314.8</ele>
        <time>2020-06-07T06:37:34.000Z</time>
      </trkpt>
      <trkpt lat="45.86382" lon="4.82241">
        <ele>314.7</ele>
        <time>2020-06-07T06:37:35.000Z</time>
      </trkpt>
      <trkpt lat="45.86384" lon="4.82243">
        <ele>314.5</ele>
        <time>2020-06-07T06:37:36.000Z</time>
      </trkpt>
      <trkpt lat="45.86389" lon="4.82246">
        <ele>314.2</ele>
        <time>2020-06-07T06:37:37.000Z</time>
      </trkpt>
      <trkpt lat="45.86394" lon="4.82249">
        <ele>313.8</ele>
        <time>2020-06-07T06:37:38.000Z</time>
      </trkpt>
      <trkpt lat="45.86398" lon="4.82252">
        <ele>313.3</ele>
        <time>2020-06-07T06:37:39.000Z</time>
      </trkpt>
      <trkpt lat="45.86403" lon="4.82255">
        <ele>312.8</ele>
        <time>2020-06-07T06:37:40.000Z</time>
      </trkpt>
      <trkpt lat="45.86408" lon="4.8226">
        <ele>312.2</ele>
        <time>2020-06-07T06:37:41.000Z</time>
      </trkpt>
      <trkpt lat="45.86412" lon="4.82266">
        <ele>311.7</ele>
        <time>2020-06-07T06:37:42.000Z</time>
      </trkpt>
      <trkpt lat="45.86418" lon="4.82273">
        <ele>310.9</ele>
        <time>2020-06-07T06:37:43.000Z</time>
      </trkpt>
      <trkpt lat="45.86423" lon="4.82279">
        <ele>310.2</ele>
        <time>2020-06-07T06:37:44.000Z</time>
      </trkpt>
      <trkpt lat="45.86427" lon="4.82285">
        <ele>309.6</ele>
        <time>2020-06-07T06:37:45.000Z</time>
      </trkpt>
      <trkpt lat="45.86432" lon="4.8229">
        <ele>308.9</ele>
        <time>2020-06-07T06:37:46.000Z</time>
      </trkpt>
      <trkpt lat="45.86435" lon="4.82295">
        <ele>308.4</ele>
        <time>2020-06-07T06:37:47.000Z</time>
      </trkpt>
      <trkpt lat="45.86438" lon="4.82299">
        <ele>307.6</ele>
        <time>2020-06-07T06:37:48.000Z</time>
      </trkpt>
      <trkpt lat="45.86438" lon="4.82303">
        <ele>307.8</ele>
        <time>2020-06-07T06:37:49.000Z</time>
      </trkpt>
      <trkpt lat="45.86439" lon="4.82306">
        <ele>308</ele>
        <time>2020-06-07T06:37:50.000Z</time>
      </trkpt>
      <trkpt lat="45.86439" lon="4.82309">
        <ele>308.2</ele>
        <time>2020-06-07T06:37:51.000Z</time>
      </trkpt>
      <trkpt lat="45.86439" lon="4.82312">
        <ele>308.3</ele>
        <time>2020-06-07T06:37:52.000Z</time>
      </trkpt>
      <trkpt lat="45.86438" lon="4.82314">
        <ele>308.6</ele>
        <time>2020-06-07T06:37:53.000Z</time>
      </trkpt>
      <trkpt lat="45.86437" lon="4.82316">
        <ele>308.9</ele>
        <time>2020-06-07T06:37:54.000Z</time>
      </trkpt>
      <trkpt lat="45.86436" lon="4.82318">
        <ele>309.1</ele>
        <time>2020-06-07T06:37:55.000Z</time>
      </trkpt>
      <trkpt lat="45.86435" lon="4.8232">
        <ele>309.4</ele>
        <time>2020-06-07T06:37:56.000Z</time>
      </trkpt>
      <trkpt lat="45.86433" lon="4.82321">
        <ele>309.8</ele>
        <time>2020-06-07T06:37:57.000Z</time>
      </trkpt>
      <trkpt lat="45.86432" lon="4.82323">
        <ele>310.1</ele>
        <time>2020-06-07T06:37:58.000Z</time>
      </trkpt>
      <trkpt lat="45.86431" lon="4.82324">
        <ele>310.4</ele>
        <time>2020-06-07T06:37:59.000Z</time>
      </trkpt>
      <trkpt lat="45.86431" lon="4.82326">
        <ele>310.6</ele>
        <time>2020-06-07T06:38:00.000Z</time>
      </trkpt>
      <trkpt lat="45.86431" lon="4.82328">
        <ele>310.9</ele>
        <time>2020-06-07T06:38:01.000Z</time>
      </trkpt>
      <trkpt lat="45.8643" lon="4.82329">
        <ele>311.1</ele>
        <time>2020-06-07T06:38:02.000Z</time>
      </trkpt>
      <trkpt lat="45.86429" lon="4.8233">
        <ele>311.3</ele>
        <time>2020-06-07T06:38:03.000Z</time>
      </trkpt>
      <trkpt lat="45.86428" lon="4.8233">
        <ele>311.6</ele>
        <time>2020-06-07T06:38:04.000Z</time>
      </trkpt>
      <trkpt lat="45.86427" lon="4.82331">
        <ele>311.9</ele>
        <time>2020-06-07T06:38:05.000Z</time>
      </trkpt>
      <trkpt lat="45.86425" lon="4.82331">
        <ele>312.2</ele>
        <time>2020-06-07T06:38:06.000Z</time>
      </trkpt>
      <trkpt lat="45.86424" lon="4.82331">
        <ele>312.5</ele>
        <time>2020-06-07T06:38:07.000Z</time>
      </trkpt>
      <trkpt lat="45.86423" lon="4.8233">
        <ele>312.7</ele>
        <time>2020-06-07T06:38:08.000Z</time>
      </trkpt>
      <trkpt lat="45.86422" lon="4.8233">
        <ele>312.9</ele>
        <time>2020-06-07T06:38:09.000Z</time>
      </trkpt>
      <trkpt lat="45.86421" lon="4.8233">
        <ele>313.2</ele>
        <time>2020-06-07T06:38:10.000Z</time>
      </trkpt>
      <trkpt lat="45.8642" lon="4.82331">
        <ele>313.4</ele>
        <time>2020-06-07T06:38:11.000Z</time>
      </trkpt>
      <trkpt lat="45.86419" lon="4.82331">
        <ele>313.6</ele>
        <time>2020-06-07T06:38:12.000Z</time>
      </trkpt>
      <trkpt lat="45.86418" lon="4.82331">
        <ele>313.8</ele>
        <time>2020-06-07T06:38:13.000Z</time>
      </trkpt>
      <trkpt lat="45.86417" lon="4.82332">
        <ele>314.2</ele>
        <time>2020-06-07T06:38:14.000Z</time>
      </trkpt>
      <trkpt lat="45.86416" lon="4.82332">
        <ele>314.4</ele>
        <time>2020-06-07T06:38:15.000Z</time>
      </trkpt>
      <trkpt lat="45.86414" lon="4.82333">
        <ele>314.7</ele>
        <time>2020-06-07T06:38:16.000Z</time>
      </trkpt>
      <trkpt lat="45.86413" lon="4.82334">
        <ele>315</ele>
        <time>2020-06-07T06:38:17.000Z</time>
      </trkpt>
      <trkpt lat="45.86412" lon="4.82335">
        <ele>315.3</ele>
        <time>2020-06-07T06:38:18.000Z</time>
      </trkpt>
      <trkpt lat="45.86411" lon="4.82335">
        <ele>315.4</ele>
        <time>2020-06-07T06:38:19.000Z</time>
      </trkpt>
      <trkpt lat="45.8641" lon="4.82335">
        <ele>315.6</ele>
        <time>2020-06-07T06:38:20.000Z</time>
      </trkpt>
      <trkpt lat="45.8641" lon="4.82336">
        <ele>315.8</ele>
        <time>2020-06-07T06:38:21.000Z</time>
      </trkpt>
      <trkpt lat="45.86408" lon="4.82336">
        <ele>316.1</ele>
        <time>2020-06-07T06:38:22.000Z</time>
      </trkpt>
      <trkpt lat="45.86407" lon="4.82336">
        <ele>316.3</ele>
        <time>2020-06-07T06:38:23.000Z</time>
      </trkpt>
      <trkpt lat="45.86406" lon="4.82337">
        <ele>316.6</ele>
        <time>2020-06-07T06:38:24.000Z</time>
      </trkpt>
      <trkpt lat="45.86405" lon="4.82337">
        <ele>316.8</ele>
        <time>2020-06-07T06:38:25.000Z</time>
      </trkpt>
      <trkpt lat="45.86404" lon="4.82337">
        <ele>317</ele>
        <time>2020-06-07T06:38:26.000Z</time>
      </trkpt>
      <trkpt lat="45.86402" lon="4.82337">
        <ele>317.3</ele>
        <time>2020-06-07T06:38:27.000Z</time>
      </trkpt>
      <trkpt lat="45.86402" lon="4.82338">
        <ele>317.5</ele>
        <time>2020-06-07T06:38:28.000Z</time>
      </trkpt>
      <trkpt lat="45.864" lon="4.82339">
        <ele>317.9</ele>
        <time>2020-06-07T06:38:29.000Z</time>
      </trkpt>
      <trkpt lat="45.86399" lon="4.8234">
        <ele>318.1</ele>
        <time>2020-06-07T06:38:30.000Z</time>
      </trkpt>
      <trkpt lat="45.86398" lon="4.8234">
        <ele>318.3</ele>
        <time>2020-06-07T06:38:31.000Z</time>
      </trkpt>
      <trkpt lat="45.86397" lon="4.82341">
        <ele>318.5</ele>
        <time>2020-06-07T06:38:32.000Z</time>
      </trkpt>
      <trkpt lat="45.86396" lon="4.82342">
        <ele>318.6</ele>
        <time>2020-06-07T06:38:33.000Z</time>
      </trkpt>
      <trkpt lat="45.86395" lon="4.82342">
        <ele>318.8</ele>
        <time>2020-06-07T06:38:34.000Z</time>
      </trkpt>
      <trkpt lat="45.86394" lon="4.82343">
        <ele>319.1</ele>
        <time>2020-06-07T06:38:35.000Z</time>
      </trkpt>
      <trkpt lat="45.86393" lon="4.82344">
        <ele>319.3</ele>
        <time>2020-06-07T06:38:36.000Z</time>
      </trkpt>
      <trkpt lat="45.86392" lon="4.82344">
        <ele>319.5</ele>
        <time>2020-06-07T06:38:37.000Z</time>
      </trkpt>
      <trkpt lat="45.86391" lon="4.82344">
        <ele>319.8</ele>
        <time>2020-06-07T06:38:38.000Z</time>
      </trkpt>
      <trkpt lat="45.8639" lon="4.82345">
        <ele>320</ele>
        <time>2020-06-07T06:38:39.000Z</time>
      </trkpt>
      <trkpt lat="45.86389" lon="4.82345">
        <ele>320.2</ele>
        <time>2020-06-07T06:38:40.000Z</time>
      </trkpt>
      <trkpt lat="45.86388" lon="4.82345">
        <ele>320.4</ele>
        <time>2020-06-07T06:38:41.000Z</time>
      </trkpt>
      <trkpt lat="45.86387" lon="4.82345">
        <ele>320.6</ele>
        <time>2020-06-07T06:38:42.000Z</time>
      </trkpt>
      <trkpt lat="45.86386" lon="4.82345">
        <ele>320.7</ele>
        <time>2020-06-07T06:38:43.000Z</time>
      </trkpt>
      <trkpt lat="45.86385" lon="4.82345">
        <ele>320.9</ele>
        <time>2020-06-07T06:38:44.000Z</time>
      </trkpt>
      <trkpt lat="45.86384" lon="4.82345">
        <ele>321.1</ele>
        <time>2020-06-07T06:38:45.000Z</time>
      </trkpt>
      <trkpt lat="45.86383" lon="4.82344">
        <ele>321.3</ele>
        <time>2020-06-07T06:38:46.000Z</time>
      </trkpt>
      <trkpt lat="45.86382" lon="4.82344">
        <ele>321.5</ele>
        <time>2020-06-07T06:38:47.000Z</time>
      </trkpt>
      <trkpt lat="45.8638" lon="4.82345">
        <ele>321.9</ele>
        <time>2020-06-07T06:38:48.000Z</time>
      </trkpt>
      <trkpt lat="45.86379" lon="4.82345">
        <ele>322.2</ele>
        <time>2020-06-07T06:38:49.000Z</time>
      </trkpt>
      <trkpt lat="45.86378" lon="4.82346">
        <ele>322.4</ele>
        <time>2020-06-07T06:38:50.000Z</time>
      </trkpt>
      <trkpt lat="45.86377" lon="4.82347">
        <ele>322.7</ele>
        <time>2020-06-07T06:38:51.000Z</time>
      </trkpt>
      <trkpt lat="45.86376" lon="4.82348">
        <ele>322.9</ele>
        <time>2020-06-07T06:38:52.000Z</time>
      </trkpt>
      <trkpt lat="45.86375" lon="4.82349">
        <ele>323.1</ele>
        <time>2020-06-07T06:38:53.000Z</time>
      </trkpt>
      <trkpt lat="45.86374" lon="4.82351">
        <ele>323.4</ele>
        <time>2020-06-07T06:38:54.000Z</time>
      </trkpt>
      <trkpt lat="45.86374" lon="4.82352">
        <ele>323.6</ele>
        <time>2020-06-07T06:38:55.000Z</time>
      </trkpt>
      <trkpt lat="45.86373" lon="4.82353">
        <ele>323.8</ele>
        <time>2020-06-07T06:38:56.000Z</time>
      </trkpt>
      <trkpt lat="45.86372" lon="4.82354">
        <ele>324</ele>
        <time>2020-06-07T06:38:57.000Z</time>
      </trkpt>
      <trkpt lat="45.86371" lon="4.82354">
        <ele>324.1</ele>
        <time>2020-06-07T06:38:58.000Z</time>
      </trkpt>
      <trkpt lat="45.8637" lon="4.82355">
        <ele>324.4</ele>
        <time>2020-06-07T06:38:59.000Z</time>
      </trkpt>
      <trkpt lat="45.8637" lon="4.82355">
        <ele>324.5</ele>
        <time>2020-06-07T06:39:00.000Z</time>
      </trkpt>
      <trkpt lat="45.86368" lon="4.82355">
        <ele>324.7</ele>
        <time>2020-06-07T06:39:01.000Z</time>
      </trkpt>
      <trkpt lat="45.86368" lon="4.82356">
        <ele>324.9</ele>
        <time>2020-06-07T06:39:02.000Z</time>
      </trkpt>
      <trkpt lat="45.86367" lon="4.82357">
        <ele>325.1</ele>
        <time>2020-06-07T06:39:03.000Z</time>
      </trkpt>
      <trkpt lat="45.86366" lon="4.82358">
        <ele>325.3</ele>
        <time>2020-06-07T06:39:04.000Z</time>
      </trkpt>
      <trkpt lat="45.86365" lon="4.82359">
        <ele>325.5</ele>
        <time>2020-06-07T06:39:05.000Z</time>
      </trkpt>
      <trkpt lat="45.86364" lon="4.8236">
        <ele>325.8</ele>
        <time>2020-06-07T06:39:06.000Z</time>
      </trkpt>
      <trkpt lat="45.86362" lon="4.82361">
        <ele>326.1</ele>
        <time>2020-06-07T06:39:07.000Z</time>
      </trkpt>
      <trkpt lat="45.86361" lon="4.82362">
        <ele>326.4</ele>
        <time>2020-06-07T06:39:08.000Z</time>
      </trkpt>
      <trkpt lat="45.8636" lon="4.82363">
        <ele>326.7</ele>
        <time>2020-06-07T06:39:09.000Z</time>
      </trkpt>
      <trkpt lat="45.86359" lon="4.82364">
        <ele>326.9</ele>
        <time>2020-06-07T06:39:10.000Z</time>
      </trkpt>
      <trkpt lat="45.86357" lon="4.82364">
        <ele>327.1</ele>
        <time>2020-06-07T06:39:11.000Z</time>
      </trkpt>
      <trkpt lat="45.86356" lon="4.82364">
        <ele>327.4</ele>
        <time>2020-06-07T06:39:12.000Z</time>
      </trkpt>
      <trkpt lat="45.86354" lon="4.82365">
        <ele>327.7</ele>
        <time>2020-06-07T06:39:13.000Z</time>
      </trkpt>
      <trkpt lat="45.86353" lon="4.82365">
        <ele>327.9</ele>
        <time>2020-06-07T06:39:14.000Z</time>
      </trkpt>
      <trkpt lat="45.86352" lon="4.82364">
        <ele>328.1</ele>
        <time>2020-06-07T06:39:15.000Z</time>
      </trkpt>
      <trkpt lat="45.86351" lon="4.82364">
        <ele>328.3</ele>
        <time>2020-06-07T06:39:16.000Z</time>
      </trkpt>
      <trkpt lat="45.86349" lon="4.82365">
        <ele>328.6</ele>
        <time>2020-06-07T06:39:17.000Z</time>
      </trkpt>
      <trkpt lat="45.86347" lon="4.82365">
        <ele>329</ele>
        <time>2020-06-07T06:39:18.000Z</time>
      </trkpt>
      <trkpt lat="45.86346" lon="4.82365">
        <ele>329.2</ele>
        <time>2020-06-07T06:39:19.000Z</time>
      </trkpt>
      <trkpt lat="45.86344" lon="4.82365">
        <ele>329.4</ele>
        <time>2020-06-07T06:39:20.000Z</time>
      </trkpt>
      <trkpt lat="45.86343" lon="4.82365">
        <ele>329.7</ele>
        <time>2020-06-07T06:39:21.000Z</time>
      </trkpt>
      <trkpt lat="45.86341" lon="4.82365">
        <ele>329.9</ele>
        <time>2020-06-07T06:39:22.000Z</time>
      </trkpt>
      <trkpt lat="45.8634" lon="4.82365">
        <ele>330.2</ele>
        <time>2020-06-07T06:39:23.000Z</time>
      </trkpt>
      <trkpt lat="45.86338" lon="4.82365">
        <ele>330.5</ele>
        <time>2020-06-07T06:39:24.000Z</time>
      </trkpt>
      <trkpt lat="45.86336" lon="4.82365">
        <ele>330.8</ele>
        <time>2020-06-07T06:39:25.000Z</time>
      </trkpt>
      <trkpt lat="45.86335" lon="4.82365">
        <ele>331</ele>
        <time>2020-06-07T06:39:26.000Z</time>
      </trkpt>
      <trkpt lat="45.86333" lon="4.82366">
        <ele>331.4</ele>
        <time>2020-06-07T06:39:27.000Z</time>
      </trkpt>
      <trkpt lat="45.86331" lon="4.82366">
        <ele>331.6</ele>
        <time>2020-06-07T06:39:28.000Z</time>
      </trkpt>
      <trkpt lat="45.8633" lon="4.82367">
        <ele>331.8</ele>
        <time>2020-06-07T06:39:29.000Z</time>
      </trkpt>
      <trkpt lat="45.86329" lon="4.82367">
        <ele>331.9</ele>
        <time>2020-06-07T06:39:30.000Z</time>
      </trkpt>
      <trkpt lat="45.86329" lon="4.82366">
        <ele>332</ele>
        <time>2020-06-07T06:39:31.000Z</time>
      </trkpt>
      <trkpt lat="45.86328" lon="4.82366">
        <ele>332.1</ele>
        <time>2020-06-07T06:39:32.000Z</time>
      </trkpt>
      <trkpt lat="45.86328" lon="4.82367">
        <ele>332.2</ele>
        <time>2020-06-07T06:39:33.000Z</time>
      </trkpt>
      <trkpt lat="45.86326" lon="4.82367">
        <ele>332.4</ele>
        <time>2020-06-07T06:39:34.000Z</time>
      </trkpt>
      <trkpt lat="45.86325" lon="4.82367">
        <ele>332.6</ele>
        <time>2020-06-07T06:39:35.000Z</time>
      </trkpt>
      <trkpt lat="45.86324" lon="4.82367">
        <ele>332.9</ele>
        <time>2020-06-07T06:39:36.000Z</time>
      </trkpt>
      <trkpt lat="45.86322" lon="4.82367">
        <ele>333.1</ele>
        <time>2020-06-07T06:39:37.000Z</time>
      </trkpt>
      <trkpt lat="45.8632" lon="4.82367">
        <ele>333.4</ele>
        <time>2020-06-07T06:39:38.000Z</time>
      </trkpt>
      <trkpt lat="45.86319" lon="4.82367">
        <ele>333.6</ele>
        <time>2020-06-07T06:39:39.000Z</time>
      </trkpt>
      <trkpt lat="45.86317" lon="4.82368">
        <ele>333.9</ele>
        <time>2020-06-07T06:39:40.000Z</time>
      </trkpt>
      <trkpt lat="45.86315" lon="4.8237">
        <ele>334.2</ele>
        <time>2020-06-07T06:39:41.000Z</time>
      </trkpt>
      <trkpt lat="45.86314" lon="4.82371">
        <ele>334.5</ele>
        <time>2020-06-07T06:39:42.000Z</time>
      </trkpt>
      <trkpt lat="45.86313" lon="4.82371">
        <ele>334.6</ele>
        <time>2020-06-07T06:39:43.000Z</time>
      </trkpt>
      <trkpt lat="45.86312" lon="4.82372">
        <ele>334.8</ele>
        <time>2020-06-07T06:39:44.000Z</time>
      </trkpt>
      <trkpt lat="45.86311" lon="4.82372">
        <ele>335</ele>
        <time>2020-06-07T06:39:45.000Z</time>
      </trkpt>
      <trkpt lat="45.86309" lon="4.82373">
        <ele>335.2</ele>
        <time>2020-06-07T06:39:46.000Z</time>
      </trkpt>
      <trkpt lat="45.86308" lon="4.82374">
        <ele>335.4</ele>
        <time>2020-06-07T06:39:47.000Z</time>
      </trkpt>
      <trkpt lat="45.86307" lon="4.82375">
        <ele>335.6</ele>
        <time>2020-06-07T06:39:48.000Z</time>
      </trkpt>
      <trkpt lat="45.86307" lon="4.82377">
        <ele>337.3</ele>
        <time>2020-06-07T06:39:49.000Z</time>
      </trkpt>
      <trkpt lat="45.86307" lon="4.82378">
        <ele>337.2</ele>
        <time>2020-06-07T06:39:50.000Z</time>
      </trkpt>
      <trkpt lat="45.86308" lon="4.82379">
        <ele>337.1</ele>
        <time>2020-06-07T06:39:51.000Z</time>
      </trkpt>
      <trkpt lat="45.86309" lon="4.8238">
        <ele>337.1</ele>
        <time>2020-06-07T06:39:52.000Z</time>
      </trkpt>
      <trkpt lat="45.86311" lon="4.82382">
        <ele>336.9</ele>
        <time>2020-06-07T06:39:53.000Z</time>
      </trkpt>
      <trkpt lat="45.86313" lon="4.82384">
        <ele>336.8</ele>
        <time>2020-06-07T06:39:54.000Z</time>
      </trkpt>
      <trkpt lat="45.86314" lon="4.82387">
        <ele>336.6</ele>
        <time>2020-06-07T06:39:55.000Z</time>
      </trkpt>
      <trkpt lat="45.86314" lon="4.8239">
        <ele>336.4</ele>
        <time>2020-06-07T06:39:56.000Z</time>
      </trkpt>
      <trkpt lat="45.86313" lon="4.82395">
        <ele>336.1</ele>
        <time>2020-06-07T06:39:57.000Z</time>
      </trkpt>
      <trkpt lat="45.86313" lon="4.82399">
        <ele>335.8</ele>
        <time>2020-06-07T06:39:58.000Z</time>
      </trkpt>
      <trkpt lat="45.86312" lon="4.82404">
        <ele>335.4</ele>
        <time>2020-06-07T06:39:59.000Z</time>
      </trkpt>
      <trkpt lat="45.86311" lon="4.82409">
        <ele>335.1</ele>
        <time>2020-06-07T06:40:00.000Z</time>
      </trkpt>
      <trkpt lat="45.8631" lon="4.82415">
        <ele>334.6</ele>
        <time>2020-06-07T06:40:01.000Z</time>
      </trkpt>
      <trkpt lat="45.86309" lon="4.82422">
        <ele>334.1</ele>
        <time>2020-06-07T06:40:02.000Z</time>
      </trkpt>
      <trkpt lat="45.86308" lon="4.82428">
        <ele>333.6</ele>
        <time>2020-06-07T06:40:03.000Z</time>
      </trkpt>
      <trkpt lat="45.86306" lon="4.82435">
        <ele>333.1</ele>
        <time>2020-06-07T06:40:04.000Z</time>
      </trkpt>
      <trkpt lat="45.86304" lon="4.82442">
        <ele>332.5</ele>
        <time>2020-06-07T06:40:05.000Z</time>
      </trkpt>
      <trkpt lat="45.86303" lon="4.82449">
        <ele>331.9</ele>
        <time>2020-06-07T06:40:06.000Z</time>
      </trkpt>
      <trkpt lat="45.86301" lon="4.82455">
        <ele>331.4</ele>
        <time>2020-06-07T06:40:07.000Z</time>
      </trkpt>
      <trkpt lat="45.86298" lon="4.82461">
        <ele>330.9</ele>
        <time>2020-06-07T06:40:08.000Z</time>
      </trkpt>
      <trkpt lat="45.86296" lon="4.82466">
        <ele>330.4</ele>
        <time>2020-06-07T06:40:09.000Z</time>
      </trkpt>
      <trkpt lat="45.86292" lon="4.82474">
        <ele>329.7</ele>
        <time>2020-06-07T06:40:10.000Z</time>
      </trkpt>
      <trkpt lat="45.8629" lon="4.82482">
        <ele>329.1</ele>
        <time>2020-06-07T06:40:11.000Z</time>
      </trkpt>
      <trkpt lat="45.86286" lon="4.8249">
        <ele>328.4</ele>
        <time>2020-06-07T06:40:12.000Z</time>
      </trkpt>
      <trkpt lat="45.86282" lon="4.82498">
        <ele>327.7</ele>
        <time>2020-06-07T06:40:13.000Z</time>
      </trkpt>
      <trkpt lat="45.86277" lon="4.82507">
        <ele>326.9</ele>
        <time>2020-06-07T06:40:14.000Z</time>
      </trkpt>
      <trkpt lat="45.86273" lon="4.82515">
        <ele>326.1</ele>
        <time>2020-06-07T06:40:15.000Z</time>
      </trkpt>
      <trkpt lat="45.86268" lon="4.82524">
        <ele>325.3</ele>
        <time>2020-06-07T06:40:16.000Z</time>
      </trkpt>
      <trkpt lat="45.86263" lon="4.82532">
        <ele>324.4</ele>
        <time>2020-06-07T06:40:17.000Z</time>
      </trkpt>
      <trkpt lat="45.86258" lon="4.8254">
        <ele>323.5</ele>
        <time>2020-06-07T06:40:18.000Z</time>
      </trkpt>
      <trkpt lat="45.86253" lon="4.82548">
        <ele>322.7</ele>
        <time>2020-06-07T06:40:19.000Z</time>
      </trkpt>
      <trkpt lat="45.86247" lon="4.82555">
        <ele>321.8</ele>
        <time>2020-06-07T06:40:20.000Z</time>
      </trkpt>
      <trkpt lat="45.86241" lon="4.82562">
        <ele>321</ele>
        <time>2020-06-07T06:40:21.000Z</time>
      </trkpt>
      <trkpt lat="45.86235" lon="4.82569">
        <ele>320.2</ele>
        <time>2020-06-07T06:40:22.000Z</time>
      </trkpt>
      <trkpt lat="45.86228" lon="4.82576">
        <ele>319.4</ele>
        <time>2020-06-07T06:40:23.000Z</time>
      </trkpt>
      <trkpt lat="45.8622" lon="4.82583">
        <ele>318.5</ele>
        <time>2020-06-07T06:40:24.000Z</time>
      </trkpt>
      <trkpt lat="45.86213" lon="4.8259">
        <ele>317.5</ele>
        <time>2020-06-07T06:40:25.000Z</time>
      </trkpt>
      <trkpt lat="45.86205" lon="4.82597">
        <ele>316.5</ele>
        <time>2020-06-07T06:40:26.000Z</time>
      </trkpt>
      <trkpt lat="45.86196" lon="4.82609">
        <ele>315.1</ele>
        <time>2020-06-07T06:40:27.000Z</time>
      </trkpt>
      <trkpt lat="45.86188" lon="4.82617">
        <ele>314.1</ele>
        <time>2020-06-07T06:40:28.000Z</time>
      </trkpt>
      <trkpt lat="45.8618" lon="4.82623">
        <ele>313.2</ele>
        <time>2020-06-07T06:40:29.000Z</time>
      </trkpt>
      <trkpt lat="45.86172" lon="4.82629">
        <ele>312.3</ele>
        <time>2020-06-07T06:40:30.000Z</time>
      </trkpt>
      <trkpt lat="45.86164" lon="4.82635">
        <ele>311.3</ele>
        <time>2020-06-07T06:40:31.000Z</time>
      </trkpt>
      <trkpt lat="45.86155" lon="4.82641">
        <ele>310.3</ele>
        <time>2020-06-07T06:40:32.000Z</time>
      </trkpt>
      <trkpt lat="45.86147" lon="4.82647">
        <ele>309.4</ele>
        <time>2020-06-07T06:40:33.000Z</time>
      </trkpt>
      <trkpt lat="45.86139" lon="4.82653">
        <ele>308.5</ele>
        <time>2020-06-07T06:40:34.000Z</time>
      </trkpt>
      <trkpt lat="45.86131" lon="4.82659">
        <ele>307.6</ele>
        <time>2020-06-07T06:40:35.000Z</time>
      </trkpt>
      <trkpt lat="45.86123" lon="4.82665">
        <ele>306.6</ele>
        <time>2020-06-07T06:40:36.000Z</time>
      </trkpt>
      <trkpt lat="45.86114" lon="4.8267">
        <ele>305.6</ele>
        <time>2020-06-07T06:40:37.000Z</time>
      </trkpt>
      <trkpt lat="45.86105" lon="4.82677">
        <ele>304.5</ele>
        <time>2020-06-07T06:40:38.000Z</time>
      </trkpt>
      <trkpt lat="45.86097" lon="4.82683">
        <ele>303.6</ele>
        <time>2020-06-07T06:40:39.000Z</time>
      </trkpt>
      <trkpt lat="45.8609" lon="4.8269">
        <ele>302.7</ele>
        <time>2020-06-07T06:40:40.000Z</time>
      </trkpt>
      <trkpt lat="45.86082" lon="4.82697">
        <ele>301.7</ele>
        <time>2020-06-07T06:40:41.000Z</time>
      </trkpt>
      <trkpt lat="45.86074" lon="4.82703">
        <ele>300.5</ele>
        <time>2020-06-07T06:40:42.000Z</time>
      </trkpt>
      <trkpt lat="45.86068" lon="4.82707">
        <ele>299.8</ele>
        <time>2020-06-07T06:40:43.000Z</time>
      </trkpt>
      <trkpt lat="45.8606" lon="4.82711">
        <ele>299</ele>
        <time>2020-06-07T06:40:44.000Z</time>
      </trkpt>
      <trkpt lat="45.86054" lon="4.82714">
        <ele>298.4</ele>
        <time>2020-06-07T06:40:45.000Z</time>
      </trkpt>
      <trkpt lat="45.86048" lon="4.82716">
        <ele>297.8</ele>
        <time>2020-06-07T06:40:46.000Z</time>
      </trkpt>
      <trkpt lat="45.86042" lon="4.82717">
        <ele>297.2</ele>
        <time>2020-06-07T06:40:47.000Z</time>
      </trkpt>
      <trkpt lat="45.86038" lon="4.82717">
        <ele>296.8</ele>
        <time>2020-06-07T06:40:48.000Z</time>
      </trkpt>
      <trkpt lat="45.86033" lon="4.82717">
        <ele>296.4</ele>
        <time>2020-06-07T06:40:49.000Z</time>
      </trkpt>
      <trkpt lat="45.86028" lon="4.82717">
        <ele>296.1</ele>
        <time>2020-06-07T06:40:50.000Z</time>
      </trkpt>
      <trkpt lat="45.86023" lon="4.82717">
        <ele>295.8</ele>
        <time>2020-06-07T06:40:51.000Z</time>
      </trkpt>
      <trkpt lat="45.86019" lon="4.82718">
        <ele>295.6</ele>
        <time>2020-06-07T06:40:52.000Z</time>
      </trkpt>
      <trkpt lat="45.86015" lon="4.82719">
        <ele>295.4</ele>
        <time>2020-06-07T06:40:53.000Z</time>
      </trkpt>
      <trkpt lat="45.86013" lon="4.82719">
        <ele>295.5</ele>
        <time>2020-06-07T06:40:54.000Z</time>
      </trkpt>
      <trkpt lat="45.86011" lon="4.82719">
        <ele>295.6</ele>
        <time>2020-06-07T06:40:55.000Z</time>
      </trkpt>
      <trkpt lat="45.86008" lon="4.82719">
        <ele>295.6</ele>
        <time>2020-06-07T06:40:56.000Z</time>
      </trkpt>
      <trkpt lat="45.86007" lon="4.82719">
        <ele>295.7</ele>
        <time>2020-06-07T06:40:57.000Z</time>
      </trkpt>
      <trkpt lat="45.86005" lon="4.82718">
        <ele>295.9</ele>
        <time>2020-06-07T06:40:58.000Z</time>
      </trkpt>
      <trkpt lat="45.86003" lon="4.82717">
        <ele>296.1</ele>
        <time>2020-06-07T06:40:59.000Z</time>
      </trkpt>
      <trkpt lat="45.86001" lon="4.82716">
        <ele>296.3</ele>
        <time>2020-06-07T06:41:00.000Z</time>
      </trkpt>
      <trkpt lat="45.86" lon="4.82715">
        <ele>296.5</ele>
        <time>2020-06-07T06:41:01.000Z</time>
      </trkpt>
      <trkpt lat="45.85998" lon="4.82714">
        <ele>296.7</ele>
        <time>2020-06-07T06:41:02.000Z</time>
      </trkpt>
      <trkpt lat="45.85995" lon="4.82713">
        <ele>297</ele>
        <time>2020-06-07T06:41:03.000Z</time>
      </trkpt>
      <trkpt lat="45.85993" lon="4.82713">
        <ele>297.2</ele>
        <time>2020-06-07T06:41:04.000Z</time>
      </trkpt>
      <trkpt lat="45.85991" lon="4.82713">
        <ele>297.4</ele>
        <time>2020-06-07T06:41:05.000Z</time>
      </trkpt>
      <trkpt lat="45.8599" lon="4.82712">
        <ele>297.5</ele>
        <time>2020-06-07T06:41:06.000Z</time>
      </trkpt>
      <trkpt lat="45.85988" lon="4.82712">
        <ele>297.7</ele>
        <time>2020-06-07T06:41:07.000Z</time>
      </trkpt>
      <trkpt lat="45.85986" lon="4.82712">
        <ele>297.9</ele>
        <time>2020-06-07T06:41:08.000Z</time>
      </trkpt>
      <trkpt lat="45.85984" lon="4.82712">
        <ele>298.1</ele>
        <time>2020-06-07T06:41:09.000Z</time>
      </trkpt>
      <trkpt lat="45.85982" lon="4.82712">
        <ele>298.3</ele>
        <time>2020-06-07T06:41:10.000Z</time>
      </trkpt>
      <trkpt lat="45.85981" lon="4.82712">
        <ele>298.5</ele>
        <time>2020-06-07T06:41:11.000Z</time>
      </trkpt>
      <trkpt lat="45.85979" lon="4.82714">
        <ele>298.6</ele>
        <time>2020-06-07T06:41:12.000Z</time>
      </trkpt>
      <trkpt lat="45.85977" lon="4.82714">
        <ele>298.9</ele>
        <time>2020-06-07T06:41:13.000Z</time>
      </trkpt>
      <trkpt lat="45.85975" lon="4.82716">
        <ele>299.1</ele>
        <time>2020-06-07T06:41:14.000Z</time>
      </trkpt>
      <trkpt lat="45.85974" lon="4.82716">
        <ele>299.2</ele>
        <time>2020-06-07T06:41:15.000Z</time>
      </trkpt>
      <trkpt lat="45.85973" lon="4.82716">
        <ele>299.3</ele>
        <time>2020-06-07T06:41:16.000Z</time>
      </trkpt>
      <trkpt lat="45.85971" lon="4.82716">
        <ele>299.5</ele>
        <time>2020-06-07T06:41:17.000Z</time>
      </trkpt>
      <trkpt lat="45.8597" lon="4.82717">
        <ele>299.6</ele>
        <time>2020-06-07T06:41:18.000Z</time>
      </trkpt>
      <trkpt lat="45.8597" lon="4.82717">
        <ele>299.7</ele>
        <time>2020-06-07T06:41:19.000Z</time>
      </trkpt>
      <trkpt lat="45.85969" lon="4.82718">
        <ele>299.8</ele>
        <time>2020-06-07T06:41:20.000Z</time>
      </trkpt>
      <trkpt lat="45.85967" lon="4.82717">
        <ele>300</ele>
        <time>2020-06-07T06:41:21.000Z</time>
      </trkpt>
      <trkpt lat="45.85966" lon="4.82717">
        <ele>300.1</ele>
        <time>2020-06-07T06:41:22.000Z</time>
      </trkpt>
      <trkpt lat="45.85964" lon="4.82717">
        <ele>300.3</ele>
        <time>2020-06-07T06:41:23.000Z</time>
      </trkpt>
      <trkpt lat="45.85962" lon="4.82717">
        <ele>300.5</ele>
        <time>2020-06-07T06:41:24.000Z</time>
      </trkpt>
      <trkpt lat="45.85961" lon="4.82717">
        <ele>300.6</ele>
        <time>2020-06-07T06:41:25.000Z</time>
      </trkpt>
      <trkpt lat="45.8596" lon="4.82717">
        <ele>300.7</ele>
        <time>2020-06-07T06:41:26.000Z</time>
      </trkpt>
      <trkpt lat="45.85959" lon="4.82717">
        <ele>300.9</ele>
        <time>2020-06-07T06:41:27.000Z</time>
      </trkpt>
      <trkpt lat="45.85957" lon="4.82718">
        <ele>301.1</ele>
        <time>2020-06-07T06:41:28.000Z</time>
      </trkpt>
      <trkpt lat="45.85955" lon="4.82718">
        <ele>301.3</ele>
        <time>2020-06-07T06:41:29.000Z</time>
      </trkpt>
      <trkpt lat="45.85952" lon="4.82718">
        <ele>301.6</ele>
        <time>2020-06-07T06:41:30.000Z</time>
      </trkpt>
      <trkpt lat="45.85951" lon="4.82718">
        <ele>301.7</ele>
        <time>2020-06-07T06:41:31.000Z</time>
      </trkpt>
      <trkpt lat="45.85949" lon="4.82718">
        <ele>301.9</ele>
        <time>2020-06-07T06:41:32.000Z</time>
      </trkpt>
      <trkpt lat="45.85946" lon="4.82717">
        <ele>302.2</ele>
        <time>2020-06-07T06:41:33.000Z</time>
      </trkpt>
      <trkpt lat="45.85944" lon="4.82717">
        <ele>302.4</ele>
        <time>2020-06-07T06:41:34.000Z</time>
      </trkpt>
      <trkpt lat="45.85942" lon="4.82717">
        <ele>302.6</ele>
        <time>2020-06-07T06:41:35.000Z</time>
      </trkpt>
      <trkpt lat="45.85941" lon="4.82717">
        <ele>302.7</ele>
        <time>2020-06-07T06:41:36.000Z</time>
      </trkpt>
      <trkpt lat="45.85939" lon="4.82716">
        <ele>302.9</ele>
        <time>2020-06-07T06:41:37.000Z</time>
      </trkpt>
      <trkpt lat="45.85938" lon="4.82716">
        <ele>303</ele>
        <time>2020-06-07T06:41:38.000Z</time>
      </trkpt>
      <trkpt lat="45.85936" lon="4.82715">
        <ele>303.2</ele>
        <time>2020-06-07T06:41:39.000Z</time>
      </trkpt>
      <trkpt lat="45.85934" lon="4.82715">
        <ele>303.4</ele>
        <time>2020-06-07T06:41:40.000Z</time>
      </trkpt>
      <trkpt lat="45.85932" lon="4.82714">
        <ele>303.6</ele>
        <time>2020-06-07T06:41:41.000Z</time>
      </trkpt>
      <trkpt lat="45.85929" lon="4.82714">
        <ele>303.8</ele>
        <time>2020-06-07T06:41:42.000Z</time>
      </trkpt>
      <trkpt lat="45.85927" lon="4.82713">
        <ele>304</ele>
        <time>2020-06-07T06:41:43.000Z</time>
      </trkpt>
      <trkpt lat="45.85925" lon="4.82712">
        <ele>304.2</ele>
        <time>2020-06-07T06:41:44.000Z</time>
      </trkpt>
      <trkpt lat="45.85922" lon="4.82711">
        <ele>304.5</ele>
        <time>2020-06-07T06:41:45.000Z</time>
      </trkpt>
      <trkpt lat="45.8592" lon="4.82711">
        <ele>304.6</ele>
        <time>2020-06-07T06:41:46.000Z</time>
      </trkpt>
      <trkpt lat="45.85917" lon="4.82711">
        <ele>304.8</ele>
        <time>2020-06-07T06:41:47.000Z</time>
      </trkpt>
      <trkpt lat="45.85916" lon="4.82709">
        <ele>304.9</ele>
        <time>2020-06-07T06:41:48.000Z</time>
      </trkpt>
      <trkpt lat="45.85914" lon="4.82708">
        <ele>305</ele>
        <time>2020-06-07T06:41:49.000Z</time>
      </trkpt>
      <trkpt lat="45.85913" lon="4.82707">
        <ele>305.1</ele>
        <time>2020-06-07T06:41:50.000Z</time>
      </trkpt>
      <trkpt lat="45.85911" lon="4.82707">
        <ele>305.2</ele>
        <time>2020-06-07T06:41:51.000Z</time>
      </trkpt>
      <trkpt lat="45.85909" lon="4.82706">
        <ele>305.3</ele>
        <time>2020-06-07T06:41:52.000Z</time>
      </trkpt>
      <trkpt lat="45.85907" lon="4.82705">
        <ele>305.4</ele>
        <time>2020-06-07T06:41:53.000Z</time>
      </trkpt>
      <trkpt lat="45.85905" lon="4.82705">
        <ele>305.6</ele>
        <time>2020-06-07T06:41:54.000Z</time>
      </trkpt>
      <trkpt lat="45.85902" lon="4.82704">
        <ele>305.7</ele>
        <time>2020-06-07T06:41:55.000Z</time>
      </trkpt>
      <trkpt lat="45.859" lon="4.82703">
        <ele>305.8</ele>
        <time>2020-06-07T06:41:56.000Z</time>
      </trkpt>
      <trkpt lat="45.85897" lon="4.82702">
        <ele>305.9</ele>
        <time>2020-06-07T06:41:57.000Z</time>
      </trkpt>
      <trkpt lat="45.85895" lon="4.827">
        <ele>306</ele>
        <time>2020-06-07T06:41:58.000Z</time>
      </trkpt>
      <trkpt lat="45.85893" lon="4.82699">
        <ele>306.1</ele>
        <time>2020-06-07T06:41:59.000Z</time>
      </trkpt>
      <trkpt lat="45.8589" lon="4.82697">
        <ele>306.2</ele>
        <time>2020-06-07T06:42:00.000Z</time>
      </trkpt>
      <trkpt lat="45.85888" lon="4.82695">
        <ele>306.3</ele>
        <time>2020-06-07T06:42:01.000Z</time>
      </trkpt>
      <trkpt lat="45.85885" lon="4.82692">
        <ele>306.5</ele>
        <time>2020-06-07T06:42:02.000Z</time>
      </trkpt>
      <trkpt lat="45.85882" lon="4.82689">
        <ele>306.6</ele>
        <time>2020-06-07T06:42:03.000Z</time>
      </trkpt>
      <trkpt lat="45.8588" lon="4.82687">
        <ele>306.7</ele>
        <time>2020-06-07T06:42:04.000Z</time>
      </trkpt>
      <trkpt lat="45.85878" lon="4.82685">
        <ele>306.8</ele>
        <time>2020-06-07T06:42:05.000Z</time>
      </trkpt>
      <trkpt lat="45.85875" lon="4.82682">
        <ele>306.9</ele>
        <time>2020-06-07T06:42:06.000Z</time>
      </trkpt>
      <trkpt lat="45.85874" lon="4.82679">
        <ele>306.9</ele>
        <time>2020-06-07T06:42:07.000Z</time>
      </trkpt>
      <trkpt lat="45.85871" lon="4.82677">
        <ele>307</ele>
        <time>2020-06-07T06:42:08.000Z</time>
      </trkpt>
      <trkpt lat="45.85869" lon="4.82674">
        <ele>307.2</ele>
        <time>2020-06-07T06:42:09.000Z</time>
      </trkpt>
      <trkpt lat="45.85867" lon="4.82672">
        <ele>307.3</ele>
        <time>2020-06-07T06:42:10.000Z</time>
      </trkpt>
      <trkpt lat="45.85865" lon="4.82669">
        <ele>307.4</ele>
        <time>2020-06-07T06:42:11.000Z</time>
      </trkpt>
      <trkpt lat="45.85864" lon="4.82666">
        <ele>307.5</ele>
        <time>2020-06-07T06:42:12.000Z</time>
      </trkpt>
      <trkpt lat="45.85862" lon="4.82663">
        <ele>307.6</ele>
        <time>2020-06-07T06:42:13.000Z</time>
      </trkpt>
      <trkpt lat="45.85861" lon="4.82661">
        <ele>307.7</ele>
        <time>2020-06-07T06:42:14.000Z</time>
      </trkpt>
      <trkpt lat="45.85861" lon="4.82659">
        <ele>307.7</ele>
        <time>2020-06-07T06:42:15.000Z</time>
      </trkpt>
      <trkpt lat="45.8586" lon="4.82656">
        <ele>307.8</ele>
        <time>2020-06-07T06:42:16.000Z</time>
      </trkpt>
      <trkpt lat="45.85859" lon="4.82653">
        <ele>307.9</ele>
        <time>2020-06-07T06:42:17.000Z</time>
      </trkpt>
      <trkpt lat="45.85858" lon="4.82649">
        <ele>308</ele>
        <time>2020-06-07T06:42:18.000Z</time>
      </trkpt>
      <trkpt lat="45.85857" lon="4.82646">
        <ele>308.1</ele>
        <time>2020-06-07T06:42:19.000Z</time>
      </trkpt>
      <trkpt lat="45.85857" lon="4.82643">
        <ele>308.2</ele>
        <time>2020-06-07T06:42:20.000Z</time>
      </trkpt>
      <trkpt lat="45.85856" lon="4.8264">
        <ele>308.3</ele>
        <time>2020-06-07T06:42:21.000Z</time>
      </trkpt>
      <trkpt lat="45.85855" lon="4.82636">
        <ele>308.4</ele>
        <time>2020-06-07T06:42:22.000Z</time>
      </trkpt>
      <trkpt lat="45.85853" lon="4.82632">
        <ele>308.5</ele>
        <time>2020-06-07T06:42:23.000Z</time>
      </trkpt>
      <trkpt lat="45.85852" lon="4.82628">
        <ele>308.6</ele>
        <time>2020-06-07T06:42:24.000Z</time>
      </trkpt>
      <trkpt lat="45.85851" lon="4.82626">
        <ele>308.7</ele>
        <time>2020-06-07T06:42:25.000Z</time>
      </trkpt>
      <trkpt lat="45.8585" lon="4.82621">
        <ele>308.8</ele>
        <time>2020-06-07T06:42:26.000Z</time>
      </trkpt>
      <trkpt lat="45.85848" lon="4.82616">
        <ele>308.9</ele>
        <time>2020-06-07T06:42:27.000Z</time>
      </trkpt>
      <trkpt lat="45.85847" lon="4.82612">
        <ele>309</ele>
        <time>2020-06-07T06:42:28.000Z</time>
      </trkpt>
      <trkpt lat="45.85847" lon="4.82607">
        <ele>309.1</ele>
        <time>2020-06-07T06:42:29.000Z</time>
      </trkpt>
      <trkpt lat="45.85846" lon="4.82602">
        <ele>309.2</ele>
        <time>2020-06-07T06:42:30.000Z</time>
      </trkpt>
      <trkpt lat="45.85845" lon="4.82597">
        <ele>309.2</ele>
        <time>2020-06-07T06:42:31.000Z</time>
      </trkpt>
      <trkpt lat="45.85844" lon="4.82591">
        <ele>309.3</ele>
        <time>2020-06-07T06:42:32.000Z</time>
      </trkpt>
      <trkpt lat="45.85842" lon="4.82585">
        <ele>309.5</ele>
        <time>2020-06-07T06:42:33.000Z</time>
      </trkpt>
      <trkpt lat="45.8584" lon="4.82579">
        <ele>309.6</ele>
        <time>2020-06-07T06:42:34.000Z</time>
      </trkpt>
      <trkpt lat="45.85837" lon="4.82573">
        <ele>309.7</ele>
        <time>2020-06-07T06:42:35.000Z</time>
      </trkpt>
      <trkpt lat="45.85836" lon="4.82568">
        <ele>309.8</ele>
        <time>2020-06-07T06:42:36.000Z</time>
      </trkpt>
      <trkpt lat="45.85834" lon="4.82562">
        <ele>310</ele>
        <time>2020-06-07T06:42:37.000Z</time>
      </trkpt>
      <trkpt lat="45.85832" lon="4.82558">
        <ele>310.1</ele>
        <time>2020-06-07T06:42:38.000Z</time>
      </trkpt>
      <trkpt lat="45.85831" lon="4.82553">
        <ele>310.2</ele>
        <time>2020-06-07T06:42:39.000Z</time>
      </trkpt>
      <trkpt lat="45.8583" lon="4.82549">
        <ele>310.3</ele>
        <time>2020-06-07T06:42:40.000Z</time>
      </trkpt>
      <trkpt lat="45.85828" lon="4.82545">
        <ele>310.4</ele>
        <time>2020-06-07T06:42:41.000Z</time>
      </trkpt>
      <trkpt lat="45.85827" lon="4.8254">
        <ele>310.5</ele>
        <time>2020-06-07T06:42:42.000Z</time>
      </trkpt>
      <trkpt lat="45.85825" lon="4.82535">
        <ele>310.6</ele>
        <time>2020-06-07T06:42:43.000Z</time>
      </trkpt>
      <trkpt lat="45.85823" lon="4.82531">
        <ele>310.7</ele>
        <time>2020-06-07T06:42:44.000Z</time>
      </trkpt>
      <trkpt lat="45.85821" lon="4.82526">
        <ele>310.8</ele>
        <time>2020-06-07T06:42:45.000Z</time>
      </trkpt>
      <trkpt lat="45.8582" lon="4.82522">
        <ele>310.9</ele>
        <time>2020-06-07T06:42:46.000Z</time>
      </trkpt>
      <trkpt lat="45.85817" lon="4.82518">
        <ele>311</ele>
        <time>2020-06-07T06:42:47.000Z</time>
      </trkpt>
      <trkpt lat="45.85815" lon="4.82515">
        <ele>311.1</ele>
        <time>2020-06-07T06:42:48.000Z</time>
      </trkpt>
      <trkpt lat="45.85812" lon="4.82512">
        <ele>311.2</ele>
        <time>2020-06-07T06:42:49.000Z</time>
      </trkpt>
      <trkpt lat="45.85811" lon="4.82508">
        <ele>311.2</ele>
        <time>2020-06-07T06:42:50.000Z</time>
      </trkpt>
      <trkpt lat="45.85809" lon="4.82503">
        <ele>311.4</ele>
        <time>2020-06-07T06:42:51.000Z</time>
      </trkpt>
      <trkpt lat="45.85807" lon="4.82499">
        <ele>311.5</ele>
        <time>2020-06-07T06:42:52.000Z</time>
      </trkpt>
      <trkpt lat="45.85805" lon="4.82495">
        <ele>311.6</ele>
        <time>2020-06-07T06:42:53.000Z</time>
      </trkpt>
      <trkpt lat="45.85804" lon="4.8249">
        <ele>311.6</ele>
        <time>2020-06-07T06:42:54.000Z</time>
      </trkpt>
      <trkpt lat="45.85804" lon="4.82486">
        <ele>311.7</ele>
        <time>2020-06-07T06:42:55.000Z</time>
      </trkpt>
      <trkpt lat="45.85804" lon="4.82481">
        <ele>311.9</ele>
        <time>2020-06-07T06:42:56.000Z</time>
      </trkpt>
      <trkpt lat="45.85803" lon="4.82477">
        <ele>312</ele>
        <time>2020-06-07T06:42:57.000Z</time>
      </trkpt>
      <trkpt lat="45.85801" lon="4.82474">
        <ele>312.1</ele>
        <time>2020-06-07T06:42:58.000Z</time>
      </trkpt>
      <trkpt lat="45.858" lon="4.8247">
        <ele>312.2</ele>
        <time>2020-06-07T06:42:59.000Z</time>
      </trkpt>
      <trkpt lat="45.85798" lon="4.82467">
        <ele>312.3</ele>
        <time>2020-06-07T06:43:00.000Z</time>
      </trkpt>
      <trkpt lat="45.85796" lon="4.82464">
        <ele>312.4</ele>
        <time>2020-06-07T06:43:01.000Z</time>
      </trkpt>
      <trkpt lat="45.85795" lon="4.82461">
        <ele>312.4</ele>
        <time>2020-06-07T06:43:02.000Z</time>
      </trkpt>
      <trkpt lat="45.85793" lon="4.82459">
        <ele>312.6</ele>
        <time>2020-06-07T06:43:03.000Z</time>
      </trkpt>
      <trkpt lat="45.85791" lon="4.82458">
        <ele>312.6</ele>
        <time>2020-06-07T06:43:04.000Z</time>
      </trkpt>
      <trkpt lat="45.8579" lon="4.82456">
        <ele>312.6</ele>
        <time>2020-06-07T06:43:05.000Z</time>
      </trkpt>
      <trkpt lat="45.85788" lon="4.82454">
        <ele>312.7</ele>
        <time>2020-06-07T06:43:06.000Z</time>
      </trkpt>
      <trkpt lat="45.85785" lon="4.82453">
        <ele>312.7</ele>
        <time>2020-06-07T06:43:07.000Z</time>
      </trkpt>
      <trkpt lat="45.85783" lon="4.82452">
        <ele>312.8</ele>
        <time>2020-06-07T06:43:08.000Z</time>
      </trkpt>
      <trkpt lat="45.85782" lon="4.82451">
        <ele>312.8</ele>
        <time>2020-06-07T06:43:09.000Z</time>
      </trkpt>
      <trkpt lat="45.8578" lon="4.8245">
        <ele>312.9</ele>
        <time>2020-06-07T06:43:10.000Z</time>
      </trkpt>
      <trkpt lat="45.85779" lon="4.82449">
        <ele>312.9</ele>
        <time>2020-06-07T06:43:11.000Z</time>
      </trkpt>
      <trkpt lat="45.85777" lon="4.82449">
        <ele>313</ele>
        <time>2020-06-07T06:43:12.000Z</time>
      </trkpt>
      <trkpt lat="45.85776" lon="4.82449">
        <ele>313</ele>
        <time>2020-06-07T06:43:13.000Z</time>
      </trkpt>
      <trkpt lat="45.85776" lon="4.82448">
        <ele>313</ele>
        <time>2020-06-07T06:43:14.000Z</time>
      </trkpt>
      <trkpt lat="45.85775" lon="4.82448">
        <ele>313</ele>
        <time>2020-06-07T06:43:15.000Z</time>
      </trkpt>
      <trkpt lat="45.85775" lon="4.82447">
        <ele>313.1</ele>
        <time>2020-06-07T06:43:16.000Z</time>
      </trkpt>
      <trkpt lat="45.85774" lon="4.82447">
        <ele>313.1</ele>
        <time>2020-06-07T06:43:17.000Z</time>
      </trkpt>
      <trkpt lat="45.85774" lon="4.82447">
        <ele>313.1</ele>
        <time>2020-06-07T06:43:18.000Z</time>
      </trkpt>
      <trkpt lat="45.85773" lon="4.82447">
        <ele>313.1</ele>
        <time>2020-06-07T06:43:19.000Z</time>
      </trkpt>
      <trkpt lat="45.8576" lon="4.82448">
        <ele>314</ele>
        <time>2020-06-07T06:43:32.000Z</time>
      </trkpt>
      <trkpt lat="45.85759" lon="4.82449">
        <ele>314.2</ele>
        <time>2020-06-07T06:43:33.000Z</time>
      </trkpt>
      <trkpt lat="45.85758" lon="4.8245">
        <ele>314.4</ele>
        <time>2020-06-07T06:43:34.000Z</time>
      </trkpt>
      <trkpt lat="45.85756" lon="4.82452">
        <ele>314.6</ele>
        <time>2020-06-07T06:43:35.000Z</time>
      </trkpt>
      <trkpt lat="45.85755" lon="4.82453">
        <ele>314.7</ele>
        <time>2020-06-07T06:43:36.000Z</time>
      </trkpt>
      <trkpt lat="45.85753" lon="4.82454">
        <ele>314.9</ele>
        <time>2020-06-07T06:43:37.000Z</time>
      </trkpt>
      <trkpt lat="45.85752" lon="4.82456">
        <ele>315.1</ele>
        <time>2020-06-07T06:43:38.000Z</time>
      </trkpt>
      <trkpt lat="45.8575" lon="4.82457">
        <ele>315.3</ele>
        <time>2020-06-07T06:43:39.000Z</time>
      </trkpt>
      <trkpt lat="45.85748" lon="4.82458">
        <ele>315.5</ele>
        <time>2020-06-07T06:43:40.000Z</time>
      </trkpt>
      <trkpt lat="45.85747" lon="4.82458">
        <ele>315.7</ele>
        <time>2020-06-07T06:43:41.000Z</time>
      </trkpt>
      <trkpt lat="45.85745" lon="4.82459">
        <ele>315.9</ele>
        <time>2020-06-07T06:43:42.000Z</time>
      </trkpt>
      <trkpt lat="45.85743" lon="4.82461">
        <ele>316.1</ele>
        <time>2020-06-07T06:43:43.000Z</time>
      </trkpt>
      <trkpt lat="45.85741" lon="4.82462">
        <ele>316.4</ele>
        <time>2020-06-07T06:43:44.000Z</time>
      </trkpt>
      <trkpt lat="45.85738" lon="4.82463">
        <ele>316.6</ele>
        <time>2020-06-07T06:43:45.000Z</time>
      </trkpt>
      <trkpt lat="45.85737" lon="4.82465">
        <ele>316.9</ele>
        <time>2020-06-07T06:43:46.000Z</time>
      </trkpt>
      <trkpt lat="45.85735" lon="4.82466">
        <ele>317.1</ele>
        <time>2020-06-07T06:43:47.000Z</time>
      </trkpt>
      <trkpt lat="45.85734" lon="4.82468">
        <ele>317.3</ele>
        <time>2020-06-07T06:43:48.000Z</time>
      </trkpt>
      <trkpt lat="45.85732" lon="4.82469">
        <ele>317.5</ele>
        <time>2020-06-07T06:43:49.000Z</time>
      </trkpt>
      <trkpt lat="45.85731" lon="4.82471">
        <ele>317.7</ele>
        <time>2020-06-07T06:43:50.000Z</time>
      </trkpt>
      <trkpt lat="45.85729" lon="4.82472">
        <ele>317.9</ele>
        <time>2020-06-07T06:43:51.000Z</time>
      </trkpt>
      <trkpt lat="45.85728" lon="4.82473">
        <ele>318.1</ele>
        <time>2020-06-07T06:43:52.000Z</time>
      </trkpt>
      <trkpt lat="45.85726" lon="4.82475">
        <ele>318.3</ele>
        <time>2020-06-07T06:43:53.000Z</time>
      </trkpt>
      <trkpt lat="45.85724" lon="4.82476">
        <ele>318.5</ele>
        <time>2020-06-07T06:43:54.000Z</time>
      </trkpt>
      <trkpt lat="45.85722" lon="4.82478">
        <ele>318.7</ele>
        <time>2020-06-07T06:43:55.000Z</time>
      </trkpt>
      <trkpt lat="45.85721" lon="4.8248">
        <ele>318.9</ele>
        <time>2020-06-07T06:43:56.000Z</time>
      </trkpt>
      <trkpt lat="45.85719" lon="4.82481">
        <ele>319.1</ele>
        <time>2020-06-07T06:43:57.000Z</time>
      </trkpt>
      <trkpt lat="45.85717" lon="4.82483">
        <ele>319.4</ele>
        <time>2020-06-07T06:43:58.000Z</time>
      </trkpt>
      <trkpt lat="45.85715" lon="4.82485">
        <ele>319.6</ele>
        <time>2020-06-07T06:43:59.000Z</time>
      </trkpt>
      <trkpt lat="45.85714" lon="4.82486">
        <ele>319.7</ele>
        <time>2020-06-07T06:44:00.000Z</time>
      </trkpt>
      <trkpt lat="45.85712" lon="4.82488">
        <ele>319.9</ele>
        <time>2020-06-07T06:44:01.000Z</time>
      </trkpt>
      <trkpt lat="45.85711" lon="4.82489">
        <ele>320</ele>
        <time>2020-06-07T06:44:02.000Z</time>
      </trkpt>
      <trkpt lat="45.8571" lon="4.8249">
        <ele>320.2</ele>
        <time>2020-06-07T06:44:03.000Z</time>
      </trkpt>
      <trkpt lat="45.85709" lon="4.82492">
        <ele>320.3</ele>
        <time>2020-06-07T06:44:04.000Z</time>
      </trkpt>
      <trkpt lat="45.85708" lon="4.82492">
        <ele>320.5</ele>
        <time>2020-06-07T06:44:05.000Z</time>
      </trkpt>
      <trkpt lat="45.85707" lon="4.82494">
        <ele>320.6</ele>
        <time>2020-06-07T06:44:06.000Z</time>
      </trkpt>
      <trkpt lat="45.85705" lon="4.82495">
        <ele>320.8</ele>
        <time>2020-06-07T06:44:07.000Z</time>
      </trkpt>
      <trkpt lat="45.85704" lon="4.82497">
        <ele>321</ele>
        <time>2020-06-07T06:44:08.000Z</time>
      </trkpt>
      <trkpt lat="45.85702" lon="4.82499">
        <ele>321.2</ele>
        <time>2020-06-07T06:44:09.000Z</time>
      </trkpt>
      <trkpt lat="45.85701" lon="4.825">
        <ele>321.4</ele>
        <time>2020-06-07T06:44:10.000Z</time>
      </trkpt>
      <trkpt lat="45.85699" lon="4.82501">
        <ele>321.6</ele>
        <time>2020-06-07T06:44:11.000Z</time>
      </trkpt>
      <trkpt lat="45.85697" lon="4.82501">
        <ele>321.8</ele>
        <time>2020-06-07T06:44:12.000Z</time>
      </trkpt>
      <trkpt lat="45.85695" lon="4.82502">
        <ele>322</ele>
        <time>2020-06-07T06:44:13.000Z</time>
      </trkpt>
      <trkpt lat="45.85693" lon="4.82502">
        <ele>322.2</ele>
        <time>2020-06-07T06:44:14.000Z</time>
      </trkpt>
      <trkpt lat="45.85689" lon="4.82502">
        <ele>322.6</ele>
        <time>2020-06-07T06:44:15.000Z</time>
      </trkpt>
      <trkpt lat="45.85687" lon="4.82503">
        <ele>322.8</ele>
        <time>2020-06-07T06:44:16.000Z</time>
      </trkpt>
      <trkpt lat="45.85684" lon="4.82505">
        <ele>323</ele>
        <time>2020-06-07T06:44:17.000Z</time>
      </trkpt>
      <trkpt lat="45.85682" lon="4.82507">
        <ele>323.2</ele>
        <time>2020-06-07T06:44:18.000Z</time>
      </trkpt>
      <trkpt lat="45.85679" lon="4.82508">
        <ele>323.4</ele>
        <time>2020-06-07T06:44:19.000Z</time>
      </trkpt>
      <trkpt lat="45.85677" lon="4.8251">
        <ele>323.5</ele>
        <time>2020-06-07T06:44:20.000Z</time>
      </trkpt>
      <trkpt lat="45.85675" lon="4.82511">
        <ele>323.6</ele>
        <time>2020-06-07T06:44:21.000Z</time>
      </trkpt>
      <trkpt lat="45.85673" lon="4.82512">
        <ele>323.7</ele>
        <time>2020-06-07T06:44:22.000Z</time>
      </trkpt>
      <trkpt lat="45.8567" lon="4.82514">
        <ele>323.9</ele>
        <time>2020-06-07T06:44:23.000Z</time>
      </trkpt>
      <trkpt lat="45.85668" lon="4.82516">
        <ele>324</ele>
        <time>2020-06-07T06:44:24.000Z</time>
      </trkpt>
      <trkpt lat="45.85665" lon="4.82518">
        <ele>324.1</ele>
        <time>2020-06-07T06:44:25.000Z</time>
      </trkpt>
      <trkpt lat="45.85662" lon="4.82519">
        <ele>324.3</ele>
        <time>2020-06-07T06:44:26.000Z</time>
      </trkpt>
      <trkpt lat="45.85659" lon="4.8252">
        <ele>324.4</ele>
        <time>2020-06-07T06:44:27.000Z</time>
      </trkpt>
      <trkpt lat="45.85657" lon="4.82521">
        <ele>324.6</ele>
        <time>2020-06-07T06:44:28.000Z</time>
      </trkpt>
      <trkpt lat="45.85654" lon="4.82522">
        <ele>324.7</ele>
        <time>2020-06-07T06:44:29.000Z</time>
      </trkpt>
      <trkpt lat="45.85651" lon="4.82523">
        <ele>324.9</ele>
        <time>2020-06-07T06:44:30.000Z</time>
      </trkpt>
      <trkpt lat="45.85648" lon="4.82524">
        <ele>325</ele>
        <time>2020-06-07T06:44:31.000Z</time>
      </trkpt>
      <trkpt lat="45.85646" lon="4.82525">
        <ele>325.2</ele>
        <time>2020-06-07T06:44:32.000Z</time>
      </trkpt>
      <trkpt lat="45.85644" lon="4.8253">
        <ele>325.5</ele>
        <time>2020-06-07T06:44:33.000Z</time>
      </trkpt>
      <trkpt lat="45.85642" lon="4.82531">
        <ele>325.6</ele>
        <time>2020-06-07T06:44:34.000Z</time>
      </trkpt>
      <trkpt lat="45.8564" lon="4.82534">
        <ele>325.8</ele>
        <time>2020-06-07T06:44:35.000Z</time>
      </trkpt>
      <trkpt lat="45.85638" lon="4.82537">
        <ele>326</ele>
        <time>2020-06-07T06:44:36.000Z</time>
      </trkpt>
      <trkpt lat="45.85637" lon="4.8254">
        <ele>326.1</ele>
        <time>2020-06-07T06:44:37.000Z</time>
      </trkpt>
      <trkpt lat="45.85635" lon="4.82542">
        <ele>326.3</ele>
        <time>2020-06-07T06:44:38.000Z</time>
      </trkpt>
      <trkpt lat="45.85633" lon="4.82545">
        <ele>326.5</ele>
        <time>2020-06-07T06:44:39.000Z</time>
      </trkpt>
      <trkpt lat="45.8563" lon="4.82547">
        <ele>326.7</ele>
        <time>2020-06-07T06:44:40.000Z</time>
      </trkpt>
      <trkpt lat="45.85628" lon="4.82548">
        <ele>326.9</ele>
        <time>2020-06-07T06:44:41.000Z</time>
      </trkpt>
      <trkpt lat="45.85626" lon="4.8255">
        <ele>327</ele>
        <time>2020-06-07T06:44:42.000Z</time>
      </trkpt>
      <trkpt lat="45.85624" lon="4.82551">
        <ele>327.1</ele>
        <time>2020-06-07T06:44:43.000Z</time>
      </trkpt>
      <trkpt lat="45.85621" lon="4.82552">
        <ele>327.3</ele>
        <time>2020-06-07T06:44:44.000Z</time>
      </trkpt>
      <trkpt lat="45.85619" lon="4.82554">
        <ele>327.4</ele>
        <time>2020-06-07T06:44:45.000Z</time>
      </trkpt>
      <trkpt lat="45.85617" lon="4.82557">
        <ele>327.5</ele>
        <time>2020-06-07T06:44:46.000Z</time>
      </trkpt>
      <trkpt lat="45.85614" lon="4.82558">
        <ele>327.6</ele>
        <time>2020-06-07T06:44:47.000Z</time>
      </trkpt>
      <trkpt lat="45.85613" lon="4.82559">
        <ele>327.7</ele>
        <time>2020-06-07T06:44:48.000Z</time>
      </trkpt>
      <trkpt lat="45.85611" lon="4.82562">
        <ele>327.7</ele>
        <time>2020-06-07T06:44:49.000Z</time>
      </trkpt>
      <trkpt lat="45.85608" lon="4.82564">
        <ele>327.9</ele>
        <time>2020-06-07T06:44:50.000Z</time>
      </trkpt>
      <trkpt lat="45.85606" lon="4.82565">
        <ele>328</ele>
        <time>2020-06-07T06:44:51.000Z</time>
      </trkpt>
      <trkpt lat="45.85603" lon="4.82567">
        <ele>328</ele>
        <time>2020-06-07T06:44:52.000Z</time>
      </trkpt>
      <trkpt lat="45.856" lon="4.82569">
        <ele>328.1</ele>
        <time>2020-06-07T06:44:53.000Z</time>
      </trkpt>
      <trkpt lat="45.85597" lon="4.8257">
        <ele>328.2</ele>
        <time>2020-06-07T06:44:54.000Z</time>
      </trkpt>
      <trkpt lat="45.85594" lon="4.82573">
        <ele>328.3</ele>
        <time>2020-06-07T06:44:55.000Z</time>
      </trkpt>
      <trkpt lat="45.85592" lon="4.82576">
        <ele>328.4</ele>
        <time>2020-06-07T06:44:56.000Z</time>
      </trkpt>
      <trkpt lat="45.85589" lon="4.82579">
        <ele>328.5</ele>
        <time>2020-06-07T06:44:57.000Z</time>
      </trkpt>
      <trkpt lat="45.85587" lon="4.82583">
        <ele>328.5</ele>
        <time>2020-06-07T06:44:58.000Z</time>
      </trkpt>
      <trkpt lat="45.85584" lon="4.82586">
        <ele>328.6</ele>
        <time>2020-06-07T06:44:59.000Z</time>
      </trkpt>
      <trkpt lat="45.85582" lon="4.82588">
        <ele>328.7</ele>
        <time>2020-06-07T06:45:00.000Z</time>
      </trkpt>
      <trkpt lat="45.85579" lon="4.82591">
        <ele>328.7</ele>
        <time>2020-06-07T06:45:01.000Z</time>
      </trkpt>
      <trkpt lat="45.85576" lon="4.82593">
        <ele>328.8</ele>
        <time>2020-06-07T06:45:02.000Z</time>
      </trkpt>
      <trkpt lat="45.85573" lon="4.82596">
        <ele>328.9</ele>
        <time>2020-06-07T06:45:03.000Z</time>
      </trkpt>
      <trkpt lat="45.8557" lon="4.82598">
        <ele>329</ele>
        <time>2020-06-07T06:45:04.000Z</time>
      </trkpt>
      <trkpt lat="45.85567" lon="4.82599">
        <ele>329.1</ele>
        <time>2020-06-07T06:45:05.000Z</time>
      </trkpt>
      <trkpt lat="45.85565" lon="4.82601">
        <ele>329.2</ele>
        <time>2020-06-07T06:45:06.000Z</time>
      </trkpt>
      <trkpt lat="45.85562" lon="4.82603">
        <ele>329.3</ele>
        <time>2020-06-07T06:45:07.000Z</time>
      </trkpt>
      <trkpt lat="45.8556" lon="4.82605">
        <ele>329.4</ele>
        <time>2020-06-07T06:45:08.000Z</time>
      </trkpt>
      <trkpt lat="45.85558" lon="4.82605">
        <ele>329.6</ele>
        <time>2020-06-07T06:45:09.000Z</time>
      </trkpt>
      <trkpt lat="45.85555" lon="4.82606">
        <ele>329.7</ele>
        <time>2020-06-07T06:45:10.000Z</time>
      </trkpt>
      <trkpt lat="45.85554" lon="4.82609">
        <ele>329.8</ele>
        <time>2020-06-07T06:45:11.000Z</time>
      </trkpt>
      <trkpt lat="45.85552" lon="4.8261">
        <ele>330</ele>
        <time>2020-06-07T06:45:12.000Z</time>
      </trkpt>
      <trkpt lat="45.8555" lon="4.82612">
        <ele>330.1</ele>
        <time>2020-06-07T06:45:13.000Z</time>
      </trkpt>
      <trkpt lat="45.85548" lon="4.82612">
        <ele>330.3</ele>
        <time>2020-06-07T06:45:14.000Z</time>
      </trkpt>
      <trkpt lat="45.85545" lon="4.82613">
        <ele>330.5</ele>
        <time>2020-06-07T06:45:15.000Z</time>
      </trkpt>
      <trkpt lat="45.85543" lon="4.82615">
        <ele>330.7</ele>
        <time>2020-06-07T06:45:16.000Z</time>
      </trkpt>
      <trkpt lat="45.85542" lon="4.82618">
        <ele>330.9</ele>
        <time>2020-06-07T06:45:17.000Z</time>
      </trkpt>
      <trkpt lat="45.8554" lon="4.8262">
        <ele>331</ele>
        <time>2020-06-07T06:45:18.000Z</time>
      </trkpt>
      <trkpt lat="45.85539" lon="4.82626">
        <ele>331.2</ele>
        <time>2020-06-07T06:45:19.000Z</time>
      </trkpt>
      <trkpt lat="45.85537" lon="4.82628">
        <ele>331.3</ele>
        <time>2020-06-07T06:45:20.000Z</time>
      </trkpt>
      <trkpt lat="45.85534" lon="4.8263">
        <ele>331.4</ele>
        <time>2020-06-07T06:45:21.000Z</time>
      </trkpt>
      <trkpt lat="45.85532" lon="4.82632">
        <ele>331.5</ele>
        <time>2020-06-07T06:45:22.000Z</time>
      </trkpt>
      <trkpt lat="45.85529" lon="4.82634">
        <ele>331.5</ele>
        <time>2020-06-07T06:45:23.000Z</time>
      </trkpt>
      <trkpt lat="45.85526" lon="4.82637">
        <ele>331.5</ele>
        <time>2020-06-07T06:45:24.000Z</time>
      </trkpt>
      <trkpt lat="45.85522" lon="4.8264">
        <ele>331.4</ele>
        <time>2020-06-07T06:45:25.000Z</time>
      </trkpt>
      <trkpt lat="45.85519" lon="4.82644">
        <ele>331.3</ele>
        <time>2020-06-07T06:45:26.000Z</time>
      </trkpt>
      <trkpt lat="45.85515" lon="4.82647">
        <ele>331.2</ele>
        <time>2020-06-07T06:45:27.000Z</time>
      </trkpt>
      <trkpt lat="45.85511" lon="4.8265">
        <ele>331.1</ele>
        <time>2020-06-07T06:45:28.000Z</time>
      </trkpt>
      <trkpt lat="45.85508" lon="4.82653">
        <ele>331</ele>
        <time>2020-06-07T06:45:29.000Z</time>
      </trkpt>
      <trkpt lat="45.85503" lon="4.82654">
        <ele>331</ele>
        <time>2020-06-07T06:45:30.000Z</time>
      </trkpt>
      <trkpt lat="45.85498" lon="4.82655">
        <ele>331</ele>
        <time>2020-06-07T06:45:31.000Z</time>
      </trkpt>
      <trkpt lat="45.85494" lon="4.82655">
        <ele>331</ele>
        <time>2020-06-07T06:45:32.000Z</time>
      </trkpt>
      <trkpt lat="45.85492" lon="4.82656">
        <ele>331</ele>
        <time>2020-06-07T06:45:33.000Z</time>
      </trkpt>
      <trkpt lat="45.85489" lon="4.82655">
        <ele>331.1</ele>
        <time>2020-06-07T06:45:34.000Z</time>
      </trkpt>
      <trkpt lat="45.85488" lon="4.82656">
        <ele>331.1</ele>
        <time>2020-06-07T06:45:35.000Z</time>
      </trkpt>
      <trkpt lat="45.85487" lon="4.82655">
        <ele>331.2</ele>
        <time>2020-06-07T06:45:36.000Z</time>
      </trkpt>
      <trkpt lat="45.85485" lon="4.82656">
        <ele>331.3</ele>
        <time>2020-06-07T06:45:37.000Z</time>
      </trkpt>
      <trkpt lat="45.85483" lon="4.82656">
        <ele>331.4</ele>
        <time>2020-06-07T06:45:38.000Z</time>
      </trkpt>
      <trkpt lat="45.85481" lon="4.82655">
        <ele>331.5</ele>
        <time>2020-06-07T06:45:39.000Z</time>
      </trkpt>
      <trkpt lat="45.85479" lon="4.82655">
        <ele>331.6</ele>
        <time>2020-06-07T06:45:40.000Z</time>
      </trkpt>
      <trkpt lat="45.85477" lon="4.82654">
        <ele>331.7</ele>
        <time>2020-06-07T06:45:41.000Z</time>
      </trkpt>
      <trkpt lat="45.85475" lon="4.82655">
        <ele>331.8</ele>
        <time>2020-06-07T06:45:42.000Z</time>
      </trkpt>
      <trkpt lat="45.85473" lon="4.82654">
        <ele>332.9</ele>
        <time>2020-06-07T06:45:43.000Z</time>
      </trkpt>
      <trkpt lat="45.85472" lon="4.82654">
        <ele>333.2</ele>
        <time>2020-06-07T06:45:44.000Z</time>
      </trkpt>
      <trkpt lat="45.8547" lon="4.82653">
        <ele>333.5</ele>
        <time>2020-06-07T06:45:45.000Z</time>
      </trkpt>
      <trkpt lat="45.85469" lon="4.82652">
        <ele>333.9</ele>
        <time>2020-06-07T06:45:46.000Z</time>
      </trkpt>
      <trkpt lat="45.85467" lon="4.82651">
        <ele>334.1</ele>
        <time>2020-06-07T06:45:47.000Z</time>
      </trkpt>
      <trkpt lat="45.85467" lon="4.8265">
        <ele>334.3</ele>
        <time>2020-06-07T06:45:48.000Z</time>
      </trkpt>
      <trkpt lat="45.85465" lon="4.82649">
        <ele>334.6</ele>
        <time>2020-06-07T06:45:49.000Z</time>
      </trkpt>
      <trkpt lat="45.85465" lon="4.82648">
        <ele>334.9</ele>
        <time>2020-06-07T06:45:50.000Z</time>
      </trkpt>
      <trkpt lat="45.85465" lon="4.82646">
        <ele>335.1</ele>
        <time>2020-06-07T06:45:51.000Z</time>
      </trkpt>
      <trkpt lat="45.85466" lon="4.82644">
        <ele>335.5</ele>
        <time>2020-06-07T06:45:52.000Z</time>
      </trkpt>
      <trkpt lat="45.85466" lon="4.82643">
        <ele>335.7</ele>
        <time>2020-06-07T06:45:53.000Z</time>
      </trkpt>
      <trkpt lat="45.85466" lon="4.82641">
        <ele>336.1</ele>
        <time>2020-06-07T06:45:54.000Z</time>
      </trkpt>
      <trkpt lat="45.85467" lon="4.82639">
        <ele>336.5</ele>
        <time>2020-06-07T06:45:55.000Z</time>
      </trkpt>
      <trkpt lat="45.85467" lon="4.82637">
        <ele>336.8</ele>
        <time>2020-06-07T06:45:56.000Z</time>
      </trkpt>
      <trkpt lat="45.85467" lon="4.82636">
        <ele>337.1</ele>
        <time>2020-06-07T06:45:57.000Z</time>
      </trkpt>
      <trkpt lat="45.85468" lon="4.82634">
        <ele>337.5</ele>
        <time>2020-06-07T06:45:58.000Z</time>
      </trkpt>
      <trkpt lat="45.85468" lon="4.82633">
        <ele>337.8</ele>
        <time>2020-06-07T06:45:59.000Z</time>
      </trkpt>
      <trkpt lat="45.85468" lon="4.82631">
        <ele>338.1</ele>
        <time>2020-06-07T06:46:00.000Z</time>
      </trkpt>
      <trkpt lat="45.85468" lon="4.8263">
        <ele>338.4</ele>
        <time>2020-06-07T06:46:01.000Z</time>
      </trkpt>
      <trkpt lat="45.85467" lon="4.82629">
        <ele>338.8</ele>
        <time>2020-06-07T06:46:02.000Z</time>
      </trkpt>
      <trkpt lat="45.85467" lon="4.82627">
        <ele>339.2</ele>
        <time>2020-06-07T06:46:03.000Z</time>
      </trkpt>
      <trkpt lat="45.85467" lon="4.82625">
        <ele>339.6</ele>
        <time>2020-06-07T06:46:04.000Z</time>
      </trkpt>
      <trkpt lat="45.85467" lon="4.82623">
        <ele>339.9</ele>
        <time>2020-06-07T06:46:05.000Z</time>
      </trkpt>
      <trkpt lat="45.85467" lon="4.82622">
        <ele>340.3</ele>
        <time>2020-06-07T06:46:06.000Z</time>
      </trkpt>
      <trkpt lat="45.85467" lon="4.82621">
        <ele>340.6</ele>
        <time>2020-06-07T06:46:07.000Z</time>
      </trkpt>
      <trkpt lat="45.85467" lon="4.8262">
        <ele>340.7</ele>
        <time>2020-06-07T06:46:08.000Z</time>
      </trkpt>
      <trkpt lat="45.85467" lon="4.82618">
        <ele>340.9</ele>
        <time>2020-06-07T06:46:09.000Z</time>
      </trkpt>
      <trkpt lat="45.85467" lon="4.82617">
        <ele>341.1</ele>
        <time>2020-06-07T06:46:10.000Z</time>
      </trkpt>
      <trkpt lat="45.85467" lon="4.82616">
        <ele>341.2</ele>
        <time>2020-06-07T06:46:11.000Z</time>
      </trkpt>
      <trkpt lat="45.85466" lon="4.82615">
        <ele>341.4</ele>
        <time>2020-06-07T06:46:12.000Z</time>
      </trkpt>
      <trkpt lat="45.85465" lon="4.82614">
        <ele>341.5</ele>
        <time>2020-06-07T06:46:13.000Z</time>
      </trkpt>
      <trkpt lat="45.85465" lon="4.82612">
        <ele>341.7</ele>
        <time>2020-06-07T06:46:14.000Z</time>
      </trkpt>
      <trkpt lat="45.85463" lon="4.82611">
        <ele>342</ele>
        <time>2020-06-07T06:46:15.000Z</time>
      </trkpt>
      <trkpt lat="45.85462" lon="4.8261">
        <ele>342.3</ele>
        <time>2020-06-07T06:46:16.000Z</time>
      </trkpt>
      <trkpt lat="45.85461" lon="4.8261">
        <ele>342.4</ele>
        <time>2020-06-07T06:46:17.000Z</time>
      </trkpt>
      <trkpt lat="45.8546" lon="4.82609">
        <ele>342.6</ele>
        <time>2020-06-07T06:46:18.000Z</time>
      </trkpt>
      <trkpt lat="45.85459" lon="4.82608">
        <ele>342.7</ele>
        <time>2020-06-07T06:46:19.000Z</time>
      </trkpt>
      <trkpt lat="45.85459" lon="4.82607">
        <ele>342.9</ele>
        <time>2020-06-07T06:46:20.000Z</time>
      </trkpt>
      <trkpt lat="45.85458" lon="4.82606">
        <ele>343.1</ele>
        <time>2020-06-07T06:46:21.000Z</time>
      </trkpt>
      <trkpt lat="45.85458" lon="4.82604">
        <ele>343.3</ele>
        <time>2020-06-07T06:46:22.000Z</time>
      </trkpt>
      <trkpt lat="45.85458" lon="4.82602">
        <ele>343.5</ele>
        <time>2020-06-07T06:46:23.000Z</time>
      </trkpt>
      <trkpt lat="45.85458" lon="4.826">
        <ele>343.7</ele>
        <time>2020-06-07T06:46:24.000Z</time>
      </trkpt>
      <trkpt lat="45.85458" lon="4.82598">
        <ele>343.9</ele>
        <time>2020-06-07T06:46:25.000Z</time>
      </trkpt>
      <trkpt lat="45.85458" lon="4.82596">
        <ele>344.1</ele>
        <time>2020-06-07T06:46:26.000Z</time>
      </trkpt>
      <trkpt lat="45.85458" lon="4.82595">
        <ele>344.3</ele>
        <time>2020-06-07T06:46:27.000Z</time>
      </trkpt>
      <trkpt lat="45.85458" lon="4.82593">
        <ele>344.4</ele>
        <time>2020-06-07T06:46:28.000Z</time>
      </trkpt>
      <trkpt lat="45.85458" lon="4.82592">
        <ele>344.6</ele>
        <time>2020-06-07T06:46:29.000Z</time>
      </trkpt>
      <trkpt lat="45.85458" lon="4.8259">
        <ele>344.8</ele>
        <time>2020-06-07T06:46:30.000Z</time>
      </trkpt>
      <trkpt lat="45.85458" lon="4.82589">
        <ele>345</ele>
        <time>2020-06-07T06:46:31.000Z</time>
      </trkpt>
      <trkpt lat="45.85458" lon="4.82587">
        <ele>345.2</ele>
        <time>2020-06-07T06:46:32.000Z</time>
      </trkpt>
      <trkpt lat="45.85458" lon="4.82586">
        <ele>345.3</ele>
        <time>2020-06-07T06:46:33.000Z</time>
      </trkpt>
      <trkpt lat="45.85459" lon="4.82584">
        <ele>345.6</ele>
        <time>2020-06-07T06:46:34.000Z</time>
      </trkpt>
      <trkpt lat="45.85459" lon="4.82582">
        <ele>345.8</ele>
        <time>2020-06-07T06:46:35.000Z</time>
      </trkpt>
      <trkpt lat="45.85459" lon="4.8258">
        <ele>346.1</ele>
        <time>2020-06-07T06:46:36.000Z</time>
      </trkpt>
      <trkpt lat="45.85459" lon="4.82578">
        <ele>346.3</ele>
        <time>2020-06-07T06:46:37.000Z</time>
      </trkpt>
      <trkpt lat="45.8546" lon="4.82577">
        <ele>346.5</ele>
        <time>2020-06-07T06:46:38.000Z</time>
      </trkpt>
      <trkpt lat="45.8546" lon="4.82575">
        <ele>346.7</ele>
        <time>2020-06-07T06:46:39.000Z</time>
      </trkpt>
      <trkpt lat="45.8546" lon="4.82573">
        <ele>347</ele>
        <time>2020-06-07T06:46:40.000Z</time>
      </trkpt>
      <trkpt lat="45.8546" lon="4.8257">
        <ele>347.3</ele>
        <time>2020-06-07T06:46:41.000Z</time>
      </trkpt>
      <trkpt lat="45.85459" lon="4.82568">
        <ele>347.6</ele>
        <time>2020-06-07T06:46:42.000Z</time>
      </trkpt>
      <trkpt lat="45.85459" lon="4.82566">
        <ele>347.8</ele>
        <time>2020-06-07T06:46:43.000Z</time>
      </trkpt>
      <trkpt lat="45.85459" lon="4.82565">
        <ele>348</ele>
        <time>2020-06-07T06:46:44.000Z</time>
      </trkpt>
      <trkpt lat="45.85459" lon="4.82563">
        <ele>348.2</ele>
        <time>2020-06-07T06:46:45.000Z</time>
      </trkpt>
      <trkpt lat="45.8546" lon="4.82561">
        <ele>348.5</ele>
        <time>2020-06-07T06:46:46.000Z</time>
      </trkpt>
      <trkpt lat="45.8546" lon="4.8256">
        <ele>348.7</ele>
        <time>2020-06-07T06:46:47.000Z</time>
      </trkpt>
      <trkpt lat="45.85461" lon="4.82558">
        <ele>349</ele>
        <time>2020-06-07T06:46:48.000Z</time>
      </trkpt>
      <trkpt lat="45.85462" lon="4.82556">
        <ele>349.2</ele>
        <time>2020-06-07T06:46:49.000Z</time>
      </trkpt>
      <trkpt lat="45.85462" lon="4.82554">
        <ele>349.5</ele>
        <time>2020-06-07T06:46:50.000Z</time>
      </trkpt>
      <trkpt lat="45.85463" lon="4.82552">
        <ele>349.7</ele>
        <time>2020-06-07T06:46:51.000Z</time>
      </trkpt>
      <trkpt lat="45.85463" lon="4.8255">
        <ele>350</ele>
        <time>2020-06-07T06:46:52.000Z</time>
      </trkpt>
      <trkpt lat="45.85464" lon="4.82548">
        <ele>350.2</ele>
        <time>2020-06-07T06:46:53.000Z</time>
      </trkpt>
      <trkpt lat="45.85464" lon="4.82546">
        <ele>350.5</ele>
        <time>2020-06-07T06:46:54.000Z</time>
      </trkpt>
      <trkpt lat="45.85464" lon="4.82544">
        <ele>350.7</ele>
        <time>2020-06-07T06:46:55.000Z</time>
      </trkpt>
      <trkpt lat="45.85464" lon="4.82542">
        <ele>351</ele>
        <time>2020-06-07T06:46:56.000Z</time>
      </trkpt>
      <trkpt lat="45.85464" lon="4.8254">
        <ele>351.2</ele>
        <time>2020-06-07T06:46:57.000Z</time>
      </trkpt>
      <trkpt lat="45.85464" lon="4.82538">
        <ele>351.5</ele>
        <time>2020-06-07T06:46:58.000Z</time>
      </trkpt>
      <trkpt lat="45.85464" lon="4.82536">
        <ele>351.7</ele>
        <time>2020-06-07T06:46:59.000Z</time>
      </trkpt>
      <trkpt lat="45.85465" lon="4.82533">
        <ele>352</ele>
        <time>2020-06-07T06:47:00.000Z</time>
      </trkpt>
      <trkpt lat="45.85465" lon="4.82531">
        <ele>352.3</ele>
        <time>2020-06-07T06:47:01.000Z</time>
      </trkpt>
      <trkpt lat="45.85466" lon="4.8253">
        <ele>352.5</ele>
        <time>2020-06-07T06:47:02.000Z</time>
      </trkpt>
      <trkpt lat="45.85466" lon="4.82528">
        <ele>352.7</ele>
        <time>2020-06-07T06:47:03.000Z</time>
      </trkpt>
      <trkpt lat="45.85466" lon="4.82526">
        <ele>352.9</ele>
        <time>2020-06-07T06:47:04.000Z</time>
      </trkpt>
      <trkpt lat="45.85466" lon="4.82525">
        <ele>353.1</ele>
        <time>2020-06-07T06:47:05.000Z</time>
      </trkpt>
      <trkpt lat="45.85467" lon="4.82523">
        <ele>353.3</ele>
        <time>2020-06-07T06:47:06.000Z</time>
      </trkpt>
      <trkpt lat="45.85467" lon="4.82522">
        <ele>353.5</ele>
        <time>2020-06-07T06:47:07.000Z</time>
      </trkpt>
      <trkpt lat="45.85467" lon="4.8252">
        <ele>353.7</ele>
        <time>2020-06-07T06:47:08.000Z</time>
      </trkpt>
      <trkpt lat="45.85468" lon="4.82519">
        <ele>353.9</ele>
        <time>2020-06-07T06:47:09.000Z</time>
      </trkpt>
      <trkpt lat="45.85468" lon="4.82517">
        <ele>354.2</ele>
        <time>2020-06-07T06:47:10.000Z</time>
      </trkpt>
      <trkpt lat="45.85469" lon="4.82515">
        <ele>354.4</ele>
        <time>2020-06-07T06:47:11.000Z</time>
      </trkpt>
      <trkpt lat="45.85469" lon="4.82514">
        <ele>354.6</ele>
        <time>2020-06-07T06:47:12.000Z</time>
      </trkpt>
      <trkpt lat="45.8547" lon="4.82512">
        <ele>354.8</ele>
        <time>2020-06-07T06:47:13.000Z</time>
      </trkpt>
      <trkpt lat="45.8547" lon="4.82511">
        <ele>355</ele>
        <time>2020-06-07T06:47:14.000Z</time>
      </trkpt>
      <trkpt lat="45.85471" lon="4.82509">
        <ele>355.2</ele>
        <time>2020-06-07T06:47:15.000Z</time>
      </trkpt>
      <trkpt lat="45.85471" lon="4.82507">
        <ele>355.5</ele>
        <time>2020-06-07T06:47:16.000Z</time>
      </trkpt>
      <trkpt lat="45.85471" lon="4.82505">
        <ele>355.8</ele>
        <time>2020-06-07T06:47:17.000Z</time>
      </trkpt>
      <trkpt lat="45.85471" lon="4.82503">
        <ele>356</ele>
        <time>2020-06-07T06:47:18.000Z</time>
      </trkpt>
      <trkpt lat="45.85471" lon="4.82501">
        <ele>356.3</ele>
        <time>2020-06-07T06:47:19.000Z</time>
      </trkpt>
      <trkpt lat="45.85471" lon="4.82499">
        <ele>356.6</ele>
        <time>2020-06-07T06:47:20.000Z</time>
      </trkpt>
      <trkpt lat="45.85472" lon="4.82497">
        <ele>356.8</ele>
        <time>2020-06-07T06:47:21.000Z</time>
      </trkpt>
      <trkpt lat="45.85472" lon="4.82494">
        <ele>357.1</ele>
        <time>2020-06-07T06:47:22.000Z</time>
      </trkpt>
      <trkpt lat="45.85473" lon="4.82493">
        <ele>357.4</ele>
        <time>2020-06-07T06:47:23.000Z</time>
      </trkpt>
      <trkpt lat="45.85473" lon="4.82491">
        <ele>357.6</ele>
        <time>2020-06-07T06:47:24.000Z</time>
      </trkpt>
      <trkpt lat="45.85473" lon="4.82489">
        <ele>357.8</ele>
        <time>2020-06-07T06:47:25.000Z</time>
      </trkpt>
      <trkpt lat="45.85473" lon="4.82487">
        <ele>358.1</ele>
        <time>2020-06-07T06:47:26.000Z</time>
      </trkpt>
      <trkpt lat="45.85474" lon="4.82485">
        <ele>358.3</ele>
        <time>2020-06-07T06:47:27.000Z</time>
      </trkpt>
      <trkpt lat="45.85474" lon="4.82483">
        <ele>358.5</ele>
        <time>2020-06-07T06:47:28.000Z</time>
      </trkpt>
      <trkpt lat="45.85475" lon="4.82482">
        <ele>358.8</ele>
        <time>2020-06-07T06:47:29.000Z</time>
      </trkpt>
      <trkpt lat="45.85475" lon="4.8248">
        <ele>359</ele>
        <time>2020-06-07T06:47:30.000Z</time>
      </trkpt>
      <trkpt lat="45.85476" lon="4.82478">
        <ele>359.2</ele>
        <time>2020-06-07T06:47:31.000Z</time>
      </trkpt>
      <trkpt lat="45.85476" lon="4.82477">
        <ele>359.4</ele>
        <time>2020-06-07T06:47:32.000Z</time>
      </trkpt>
      <trkpt lat="45.85477" lon="4.82475">
        <ele>359.6</ele>
        <time>2020-06-07T06:47:33.000Z</time>
      </trkpt>
      <trkpt lat="45.85477" lon="4.82473">
        <ele>359.8</ele>
        <time>2020-06-07T06:47:34.000Z</time>
      </trkpt>
      <trkpt lat="45.85477" lon="4.82471">
        <ele>360.1</ele>
        <time>2020-06-07T06:47:35.000Z</time>
      </trkpt>
      <trkpt lat="45.85477" lon="4.8247">
        <ele>360.3</ele>
        <time>2020-06-07T06:47:36.000Z</time>
      </trkpt>
      <trkpt lat="45.85478" lon="4.82468">
        <ele>360.6</ele>
        <time>2020-06-07T06:47:37.000Z</time>
      </trkpt>
      <trkpt lat="45.85478" lon="4.82466">
        <ele>360.8</ele>
        <time>2020-06-07T06:47:38.000Z</time>
      </trkpt>
      <trkpt lat="45.85478" lon="4.82464">
        <ele>361</ele>
        <time>2020-06-07T06:47:39.000Z</time>
      </trkpt>
      <trkpt lat="45.85478" lon="4.82462">
        <ele>361.2</ele>
        <time>2020-06-07T06:47:40.000Z</time>
      </trkpt>
      <trkpt lat="45.85478" lon="4.82461">
        <ele>361.4</ele>
        <time>2020-06-07T06:47:41.000Z</time>
      </trkpt>
      <trkpt lat="45.85478" lon="4.82459">
        <ele>361.6</ele>
        <time>2020-06-07T06:47:42.000Z</time>
      </trkpt>
      <trkpt lat="45.85478" lon="4.82458">
        <ele>361.8</ele>
        <time>2020-06-07T06:47:43.000Z</time>
      </trkpt>
      <trkpt lat="45.85479" lon="4.82456">
        <ele>362</ele>
        <time>2020-06-07T06:47:44.000Z</time>
      </trkpt>
      <trkpt lat="45.85479" lon="4.82455">
        <ele>362.2</ele>
        <time>2020-06-07T06:47:45.000Z</time>
      </trkpt>
      <trkpt lat="45.85479" lon="4.82453">
        <ele>362.4</ele>
        <time>2020-06-07T06:47:46.000Z</time>
      </trkpt>
      <trkpt lat="45.85479" lon="4.82451">
        <ele>362.6</ele>
        <time>2020-06-07T06:47:47.000Z</time>
      </trkpt>
      <trkpt lat="45.8548" lon="4.8245">
        <ele>362.8</ele>
        <time>2020-06-07T06:47:48.000Z</time>
      </trkpt>
      <trkpt lat="45.8548" lon="4.82448">
        <ele>363.1</ele>
        <time>2020-06-07T06:47:49.000Z</time>
      </trkpt>
      <trkpt lat="45.85481" lon="4.82446">
        <ele>363.3</ele>
        <time>2020-06-07T06:47:50.000Z</time>
      </trkpt>
      <trkpt lat="45.85481" lon="4.82444">
        <ele>363.5</ele>
        <time>2020-06-07T06:47:51.000Z</time>
      </trkpt>
      <trkpt lat="45.85482" lon="4.82442">
        <ele>363.8</ele>
        <time>2020-06-07T06:47:52.000Z</time>
      </trkpt>
      <trkpt lat="45.85482" lon="4.8244">
        <ele>364.1</ele>
        <time>2020-06-07T06:47:53.000Z</time>
      </trkpt>
      <trkpt lat="45.85483" lon="4.82439">
        <ele>364.3</ele>
        <time>2020-06-07T06:47:54.000Z</time>
      </trkpt>
      <trkpt lat="45.85483" lon="4.82437">
        <ele>364.5</ele>
        <time>2020-06-07T06:47:55.000Z</time>
      </trkpt>
      <trkpt lat="45.85483" lon="4.82435">
        <ele>364.8</ele>
        <time>2020-06-07T06:47:56.000Z</time>
      </trkpt>
      <trkpt lat="45.85483" lon="4.82433">
        <ele>364.9</ele>
        <time>2020-06-07T06:47:57.000Z</time>
      </trkpt>
      <trkpt lat="45.85483" lon="4.82432">
        <ele>365.1</ele>
        <time>2020-06-07T06:47:58.000Z</time>
      </trkpt>
      <trkpt lat="45.85483" lon="4.8243">
        <ele>365.3</ele>
        <time>2020-06-07T06:47:59.000Z</time>
      </trkpt>
      <trkpt lat="45.85484" lon="4.82429">
        <ele>365.5</ele>
        <time>2020-06-07T06:48:00.000Z</time>
      </trkpt>
      <trkpt lat="45.85484" lon="4.82427">
        <ele>365.7</ele>
        <time>2020-06-07T06:48:01.000Z</time>
      </trkpt>
      <trkpt lat="45.85485" lon="4.82426">
        <ele>365.9</ele>
        <time>2020-06-07T06:48:02.000Z</time>
      </trkpt>
      <trkpt lat="45.85485" lon="4.82424">
        <ele>366.1</ele>
        <time>2020-06-07T06:48:03.000Z</time>
      </trkpt>
      <trkpt lat="45.85486" lon="4.82423">
        <ele>366.3</ele>
        <time>2020-06-07T06:48:04.000Z</time>
      </trkpt>
      <trkpt lat="45.85486" lon="4.82421">
        <ele>366.5</ele>
        <time>2020-06-07T06:48:05.000Z</time>
      </trkpt>
      <trkpt lat="45.85486" lon="4.82419">
        <ele>366.7</ele>
        <time>2020-06-07T06:48:06.000Z</time>
      </trkpt>
      <trkpt lat="45.85486" lon="4.82418">
        <ele>366.9</ele>
        <time>2020-06-07T06:48:07.000Z</time>
      </trkpt>
      <trkpt lat="45.85486" lon="4.82417">
        <ele>367</ele>
        <time>2020-06-07T06:48:08.000Z</time>
      </trkpt>
      <trkpt lat="45.85486" lon="4.82416">
        <ele>367.1</ele>
        <time>2020-06-07T06:48:09.000Z</time>
      </trkpt>
      <trkpt lat="45.85486" lon="4.82414">
        <ele>367.3</ele>
        <time>2020-06-07T06:48:10.000Z</time>
      </trkpt>
      <trkpt lat="45.85486" lon="4.82413">
        <ele>367.5</ele>
        <time>2020-06-07T06:48:11.000Z</time>
      </trkpt>
      <trkpt lat="45.85486" lon="4.82411">
        <ele>367.7</ele>
        <time>2020-06-07T06:48:12.000Z</time>
      </trkpt>
      <trkpt lat="45.85486" lon="4.82409">
        <ele>367.9</ele>
        <time>2020-06-07T06:48:13.000Z</time>
      </trkpt>
      <trkpt lat="45.85487" lon="4.82407">
        <ele>368.2</ele>
        <time>2020-06-07T06:48:14.000Z</time>
      </trkpt>
      <trkpt lat="45.85487" lon="4.82405">
        <ele>368.5</ele>
        <time>2020-06-07T06:48:15.000Z</time>
      </trkpt>
      <trkpt lat="45.85488" lon="4.82403">
        <ele>368.8</ele>
        <time>2020-06-07T06:48:16.000Z</time>
      </trkpt>
      <trkpt lat="45.85489" lon="4.82401">
        <ele>369.1</ele>
        <time>2020-06-07T06:48:17.000Z</time>
      </trkpt>
      <trkpt lat="45.8549" lon="4.82399">
        <ele>369.4</ele>
        <time>2020-06-07T06:48:18.000Z</time>
      </trkpt>
      <trkpt lat="45.85491" lon="4.82397">
        <ele>369.6</ele>
        <time>2020-06-07T06:48:19.000Z</time>
      </trkpt>
      <trkpt lat="45.85491" lon="4.82396">
        <ele>369.8</ele>
        <time>2020-06-07T06:48:20.000Z</time>
      </trkpt>
      <trkpt lat="45.85492" lon="4.82394">
        <ele>370.1</ele>
        <time>2020-06-07T06:48:21.000Z</time>
      </trkpt>
      <trkpt lat="45.85493" lon="4.82392">
        <ele>370.3</ele>
        <time>2020-06-07T06:48:22.000Z</time>
      </trkpt>
      <trkpt lat="45.85494" lon="4.8239">
        <ele>370.6</ele>
        <time>2020-06-07T06:48:23.000Z</time>
      </trkpt>
      <trkpt lat="45.85495" lon="4.82388">
        <ele>370.8</ele>
        <time>2020-06-07T06:48:24.000Z</time>
      </trkpt>
      <trkpt lat="45.85495" lon="4.82386">
        <ele>371</ele>
        <time>2020-06-07T06:48:25.000Z</time>
      </trkpt>
      <trkpt lat="45.85496" lon="4.82385">
        <ele>371.3</ele>
        <time>2020-06-07T06:48:26.000Z</time>
      </trkpt>
      <trkpt lat="45.85497" lon="4.82383">
        <ele>371.5</ele>
        <time>2020-06-07T06:48:27.000Z</time>
      </trkpt>
      <trkpt lat="45.85497" lon="4.82381">
        <ele>371.7</ele>
        <time>2020-06-07T06:48:28.000Z</time>
      </trkpt>
      <trkpt lat="45.85498" lon="4.82379">
        <ele>371.9</ele>
        <time>2020-06-07T06:48:29.000Z</time>
      </trkpt>
      <trkpt lat="45.85499" lon="4.82378">
        <ele>372.2</ele>
        <time>2020-06-07T06:48:30.000Z</time>
      </trkpt>
      <trkpt lat="45.855" lon="4.82376">
        <ele>372.4</ele>
        <time>2020-06-07T06:48:31.000Z</time>
      </trkpt>
      <trkpt lat="45.855" lon="4.82374">
        <ele>372.6</ele>
        <time>2020-06-07T06:48:32.000Z</time>
      </trkpt>
      <trkpt lat="45.85501" lon="4.82372">
        <ele>372.8</ele>
        <time>2020-06-07T06:48:33.000Z</time>
      </trkpt>
      <trkpt lat="45.85502" lon="4.8237">
        <ele>373.1</ele>
        <time>2020-06-07T06:48:34.000Z</time>
      </trkpt>
      <trkpt lat="45.85502" lon="4.82368">
        <ele>373.3</ele>
        <time>2020-06-07T06:48:35.000Z</time>
      </trkpt>
      <trkpt lat="45.85503" lon="4.82366">
        <ele>373.6</ele>
        <time>2020-06-07T06:48:36.000Z</time>
      </trkpt>
      <trkpt lat="45.85503" lon="4.82364">
        <ele>373.8</ele>
        <time>2020-06-07T06:48:37.000Z</time>
      </trkpt>
      <trkpt lat="45.85503" lon="4.82362">
        <ele>373.9</ele>
        <time>2020-06-07T06:48:38.000Z</time>
      </trkpt>
      <trkpt lat="45.85504" lon="4.82361">
        <ele>374.1</ele>
        <time>2020-06-07T06:48:39.000Z</time>
      </trkpt>
      <trkpt lat="45.85504" lon="4.82359">
        <ele>374.3</ele>
        <time>2020-06-07T06:48:40.000Z</time>
      </trkpt>
      <trkpt lat="45.85504" lon="4.82358">
        <ele>374.4</ele>
        <time>2020-06-07T06:48:41.000Z</time>
      </trkpt>
      <trkpt lat="45.85505" lon="4.82356">
        <ele>374.6</ele>
        <time>2020-06-07T06:48:42.000Z</time>
      </trkpt>
      <trkpt lat="45.85505" lon="4.82354">
        <ele>374.8</ele>
        <time>2020-06-07T06:48:43.000Z</time>
      </trkpt>
      <trkpt lat="45.85505" lon="4.82353">
        <ele>375</ele>
        <time>2020-06-07T06:48:44.000Z</time>
      </trkpt>
      <trkpt lat="45.85506" lon="4.82351">
        <ele>375.2</ele>
        <time>2020-06-07T06:48:45.000Z</time>
      </trkpt>
      <trkpt lat="45.85506" lon="4.8235">
        <ele>375.3</ele>
        <time>2020-06-07T06:48:46.000Z</time>
      </trkpt>
      <trkpt lat="45.85507" lon="4.82348">
        <ele>375.5</ele>
        <time>2020-06-07T06:48:47.000Z</time>
      </trkpt>
      <trkpt lat="45.85507" lon="4.82346">
        <ele>375.7</ele>
        <time>2020-06-07T06:48:48.000Z</time>
      </trkpt>
      <trkpt lat="45.85507" lon="4.82344">
        <ele>375.9</ele>
        <time>2020-06-07T06:48:49.000Z</time>
      </trkpt>
      <trkpt lat="45.85507" lon="4.82342">
        <ele>376.1</ele>
        <time>2020-06-07T06:48:50.000Z</time>
      </trkpt>
      <trkpt lat="45.85507" lon="4.82341">
        <ele>376.3</ele>
        <time>2020-06-07T06:48:51.000Z</time>
      </trkpt>
      <trkpt lat="45.85507" lon="4.82339">
        <ele>376.4</ele>
        <time>2020-06-07T06:48:52.000Z</time>
      </trkpt>
      <trkpt lat="45.85507" lon="4.82338">
        <ele>376.6</ele>
        <time>2020-06-07T06:48:53.000Z</time>
      </trkpt>
      <trkpt lat="45.85508" lon="4.82336">
        <ele>376.8</ele>
        <time>2020-06-07T06:48:54.000Z</time>
      </trkpt>
      <trkpt lat="45.85508" lon="4.82334">
        <ele>377.1</ele>
        <time>2020-06-07T06:48:55.000Z</time>
      </trkpt>
      <trkpt lat="45.85509" lon="4.82332">
        <ele>377.3</ele>
        <time>2020-06-07T06:48:56.000Z</time>
      </trkpt>
      <trkpt lat="45.85509" lon="4.8233">
        <ele>377.4</ele>
        <time>2020-06-07T06:48:57.000Z</time>
      </trkpt>
      <trkpt lat="45.8551" lon="4.82329">
        <ele>377.6</ele>
        <time>2020-06-07T06:48:58.000Z</time>
      </trkpt>
      <trkpt lat="45.8551" lon="4.82327">
        <ele>377.8</ele>
        <time>2020-06-07T06:48:59.000Z</time>
      </trkpt>
      <trkpt lat="45.85511" lon="4.82325">
        <ele>378</ele>
        <time>2020-06-07T06:49:00.000Z</time>
      </trkpt>
      <trkpt lat="45.85511" lon="4.82323">
        <ele>378.3</ele>
        <time>2020-06-07T06:49:01.000Z</time>
      </trkpt>
      <trkpt lat="45.8551" lon="4.82321">
        <ele>378.4</ele>
        <time>2020-06-07T06:49:02.000Z</time>
      </trkpt>
      <trkpt lat="45.8551" lon="4.82319">
        <ele>378.7</ele>
        <time>2020-06-07T06:49:03.000Z</time>
      </trkpt>
      <trkpt lat="45.85511" lon="4.82317">
        <ele>378.9</ele>
        <time>2020-06-07T06:49:04.000Z</time>
      </trkpt>
      <trkpt lat="45.85511" lon="4.82314">
        <ele>379.1</ele>
        <time>2020-06-07T06:49:05.000Z</time>
      </trkpt>
      <trkpt lat="45.85511" lon="4.82312">
        <ele>379.3</ele>
        <time>2020-06-07T06:49:06.000Z</time>
      </trkpt>
      <trkpt lat="45.85512" lon="4.8231">
        <ele>379.5</ele>
        <time>2020-06-07T06:49:07.000Z</time>
      </trkpt>
      <trkpt lat="45.85512" lon="4.82308">
        <ele>379.8</ele>
        <time>2020-06-07T06:49:08.000Z</time>
      </trkpt>
      <trkpt lat="45.85513" lon="4.82306">
        <ele>380</ele>
        <time>2020-06-07T06:49:09.000Z</time>
      </trkpt>
      <trkpt lat="45.85513" lon="4.82304">
        <ele>380.2</ele>
        <time>2020-06-07T06:49:10.000Z</time>
      </trkpt>
      <trkpt lat="45.85514" lon="4.82302">
        <ele>380.4</ele>
        <time>2020-06-07T06:49:11.000Z</time>
      </trkpt>
      <trkpt lat="45.85514" lon="4.823">
        <ele>380.6</ele>
        <time>2020-06-07T06:49:12.000Z</time>
      </trkpt>
      <trkpt lat="45.85515" lon="4.82298">
        <ele>380.8</ele>
        <time>2020-06-07T06:49:13.000Z</time>
      </trkpt>
      <trkpt lat="45.85515" lon="4.82295">
        <ele>381</ele>
        <time>2020-06-07T06:49:14.000Z</time>
      </trkpt>
      <trkpt lat="45.85517" lon="4.82293">
        <ele>381.3</ele>
        <time>2020-06-07T06:49:15.000Z</time>
      </trkpt>
      <trkpt lat="45.85517" lon="4.82291">
        <ele>381.5</ele>
        <time>2020-06-07T06:49:16.000Z</time>
      </trkpt>
      <trkpt lat="45.85518" lon="4.82289">
        <ele>381.7</ele>
        <time>2020-06-07T06:49:17.000Z</time>
      </trkpt>
      <trkpt lat="45.85518" lon="4.82287">
        <ele>382.5</ele>
        <time>2020-06-07T06:49:18.000Z</time>
      </trkpt>
      <trkpt lat="45.85518" lon="4.82286">
        <ele>382.7</ele>
        <time>2020-06-07T06:49:19.000Z</time>
      </trkpt>
      <trkpt lat="45.85519" lon="4.82284">
        <ele>382.9</ele>
        <time>2020-06-07T06:49:20.000Z</time>
      </trkpt>
      <trkpt lat="45.85519" lon="4.82282">
        <ele>383.1</ele>
        <time>2020-06-07T06:49:21.000Z</time>
      </trkpt>
      <trkpt lat="45.8552" lon="4.82281">
        <ele>383.3</ele>
        <time>2020-06-07T06:49:22.000Z</time>
      </trkpt>
      <trkpt lat="45.8552" lon="4.82279">
        <ele>383.4</ele>
        <time>2020-06-07T06:49:23.000Z</time>
      </trkpt>
      <trkpt lat="45.8552" lon="4.82278">
        <ele>383.6</ele>
        <time>2020-06-07T06:49:24.000Z</time>
      </trkpt>
      <trkpt lat="45.85521" lon="4.82276">
        <ele>383.8</ele>
        <time>2020-06-07T06:49:25.000Z</time>
      </trkpt>
      <trkpt lat="45.85522" lon="4.82274">
        <ele>384</ele>
        <time>2020-06-07T06:49:26.000Z</time>
      </trkpt>
      <trkpt lat="45.85522" lon="4.82273">
        <ele>384.2</ele>
        <time>2020-06-07T06:49:27.000Z</time>
      </trkpt>
      <trkpt lat="45.85523" lon="4.82271">
        <ele>384.4</ele>
        <time>2020-06-07T06:49:28.000Z</time>
      </trkpt>
      <trkpt lat="45.85524" lon="4.8227">
        <ele>384.6</ele>
        <time>2020-06-07T06:49:29.000Z</time>
      </trkpt>
      <trkpt lat="45.85525" lon="4.82268">
        <ele>384.8</ele>
        <time>2020-06-07T06:49:30.000Z</time>
      </trkpt>
      <trkpt lat="45.85525" lon="4.82266">
        <ele>385.1</ele>
        <time>2020-06-07T06:49:31.000Z</time>
      </trkpt>
      <trkpt lat="45.85526" lon="4.82264">
        <ele>385.3</ele>
        <time>2020-06-07T06:49:32.000Z</time>
      </trkpt>
      <trkpt lat="45.85526" lon="4.82262">
        <ele>385.5</ele>
        <time>2020-06-07T06:49:33.000Z</time>
      </trkpt>
      <trkpt lat="45.85527" lon="4.8226">
        <ele>385.7</ele>
        <time>2020-06-07T06:49:34.000Z</time>
      </trkpt>
      <trkpt lat="45.85527" lon="4.82258">
        <ele>386</ele>
        <time>2020-06-07T06:49:35.000Z</time>
      </trkpt>
      <trkpt lat="45.85527" lon="4.82256">
        <ele>386.2</ele>
        <time>2020-06-07T06:49:36.000Z</time>
      </trkpt>
      <trkpt lat="45.85527" lon="4.82253">
        <ele>386.5</ele>
        <time>2020-06-07T06:49:37.000Z</time>
      </trkpt>
      <trkpt lat="45.85527" lon="4.82251">
        <ele>386.8</ele>
        <time>2020-06-07T06:49:38.000Z</time>
      </trkpt>
      <trkpt lat="45.85528" lon="4.82248">
        <ele>387.1</ele>
        <time>2020-06-07T06:49:39.000Z</time>
      </trkpt>
      <trkpt lat="45.85529" lon="4.82246">
        <ele>387.4</ele>
        <time>2020-06-07T06:49:40.000Z</time>
      </trkpt>
      <trkpt lat="45.85529" lon="4.82244">
        <ele>387.6</ele>
        <time>2020-06-07T06:49:41.000Z</time>
      </trkpt>
      <trkpt lat="45.8553" lon="4.82242">
        <ele>387.9</ele>
        <time>2020-06-07T06:49:42.000Z</time>
      </trkpt>
      <trkpt lat="45.8553" lon="4.82239">
        <ele>388.2</ele>
        <time>2020-06-07T06:49:43.000Z</time>
      </trkpt>
      <trkpt lat="45.8553" lon="4.82237">
        <ele>388.4</ele>
        <time>2020-06-07T06:49:44.000Z</time>
      </trkpt>
      <trkpt lat="45.85531" lon="4.82235">
        <ele>388.6</ele>
        <time>2020-06-07T06:49:45.000Z</time>
      </trkpt>
      <trkpt lat="45.85531" lon="4.82233">
        <ele>388.9</ele>
        <time>2020-06-07T06:49:46.000Z</time>
      </trkpt>
      <trkpt lat="45.85532" lon="4.82231">
        <ele>389.1</ele>
        <time>2020-06-07T06:49:47.000Z</time>
      </trkpt>
      <trkpt lat="45.85532" lon="4.82229">
        <ele>389.3</ele>
        <time>2020-06-07T06:49:48.000Z</time>
      </trkpt>
      <trkpt lat="45.85533" lon="4.82227">
        <ele>389.6</ele>
        <time>2020-06-07T06:49:49.000Z</time>
      </trkpt>
      <trkpt lat="45.85534" lon="4.82226">
        <ele>389.8</ele>
        <time>2020-06-07T06:49:50.000Z</time>
      </trkpt>
      <trkpt lat="45.85535" lon="4.82223">
        <ele>390.1</ele>
        <time>2020-06-07T06:49:51.000Z</time>
      </trkpt>
      <trkpt lat="45.85535" lon="4.82221">
        <ele>390.4</ele>
        <time>2020-06-07T06:49:52.000Z</time>
      </trkpt>
      <trkpt lat="45.85536" lon="4.82219">
        <ele>390.9</ele>
        <time>2020-06-07T06:49:53.000Z</time>
      </trkpt>
      <trkpt lat="45.85537" lon="4.82217">
        <ele>391.2</ele>
        <time>2020-06-07T06:49:54.000Z</time>
      </trkpt>
      <trkpt lat="45.85538" lon="4.82215">
        <ele>391.4</ele>
        <time>2020-06-07T06:49:55.000Z</time>
      </trkpt>
      <trkpt lat="45.85538" lon="4.82214">
        <ele>391.7</ele>
        <time>2020-06-07T06:49:56.000Z</time>
      </trkpt>
      <trkpt lat="45.85539" lon="4.82211">
        <ele>391.9</ele>
        <time>2020-06-07T06:49:57.000Z</time>
      </trkpt>
      <trkpt lat="45.85539" lon="4.82209">
        <ele>392.2</ele>
        <time>2020-06-07T06:49:58.000Z</time>
      </trkpt>
      <trkpt lat="45.8554" lon="4.82208">
        <ele>392.4</ele>
        <time>2020-06-07T06:49:59.000Z</time>
      </trkpt>
      <trkpt lat="45.8554" lon="4.82206">
        <ele>392.6</ele>
        <time>2020-06-07T06:50:00.000Z</time>
      </trkpt>
      <trkpt lat="45.85541" lon="4.82204">
        <ele>392.9</ele>
        <time>2020-06-07T06:50:01.000Z</time>
      </trkpt>
      <trkpt lat="45.85542" lon="4.82202">
        <ele>393.2</ele>
        <time>2020-06-07T06:50:02.000Z</time>
      </trkpt>
      <trkpt lat="45.85542" lon="4.822">
        <ele>393.4</ele>
        <time>2020-06-07T06:50:03.000Z</time>
      </trkpt>
      <trkpt lat="45.85542" lon="4.82198">
        <ele>393.7</ele>
        <time>2020-06-07T06:50:04.000Z</time>
      </trkpt>
      <trkpt lat="45.85543" lon="4.82197">
        <ele>393.9</ele>
        <time>2020-06-07T06:50:05.000Z</time>
      </trkpt>
      <trkpt lat="45.85543" lon="4.82195">
        <ele>394.2</ele>
        <time>2020-06-07T06:50:06.000Z</time>
      </trkpt>
      <trkpt lat="45.85543" lon="4.82193">
        <ele>394.4</ele>
        <time>2020-06-07T06:50:07.000Z</time>
      </trkpt>
      <trkpt lat="45.85544" lon="4.82191">
        <ele>394.7</ele>
        <time>2020-06-07T06:50:08.000Z</time>
      </trkpt>
      <trkpt lat="45.85544" lon="4.82189">
        <ele>394.9</ele>
        <time>2020-06-07T06:50:09.000Z</time>
      </trkpt>
      <trkpt lat="45.85545" lon="4.82188">
        <ele>395.2</ele>
        <time>2020-06-07T06:50:10.000Z</time>
      </trkpt>
      <trkpt lat="45.85546" lon="4.82187">
        <ele>395.4</ele>
        <time>2020-06-07T06:50:11.000Z</time>
      </trkpt>
      <trkpt lat="45.85547" lon="4.82185">
        <ele>395.6</ele>
        <time>2020-06-07T06:50:12.000Z</time>
      </trkpt>
      <trkpt lat="45.85548" lon="4.82184">
        <ele>395.8</ele>
        <time>2020-06-07T06:50:13.000Z</time>
      </trkpt>
      <trkpt lat="45.85548" lon="4.82183">
        <ele>396</ele>
        <time>2020-06-07T06:50:14.000Z</time>
      </trkpt>
      <trkpt lat="45.85549" lon="4.82181">
        <ele>396.2</ele>
        <time>2020-06-07T06:50:15.000Z</time>
      </trkpt>
      <trkpt lat="45.85548" lon="4.8218">
        <ele>396.4</ele>
        <time>2020-06-07T06:50:16.000Z</time>
      </trkpt>
      <trkpt lat="45.85549" lon="4.82179">
        <ele>396.6</ele>
        <time>2020-06-07T06:50:17.000Z</time>
      </trkpt>
      <trkpt lat="45.85549" lon="4.82177">
        <ele>396.8</ele>
        <time>2020-06-07T06:50:18.000Z</time>
      </trkpt>
      <trkpt lat="45.85549" lon="4.82175">
        <ele>397</ele>
        <time>2020-06-07T06:50:19.000Z</time>
      </trkpt>
      <trkpt lat="45.8555" lon="4.82174">
        <ele>397.3</ele>
        <time>2020-06-07T06:50:20.000Z</time>
      </trkpt>
      <trkpt lat="45.85551" lon="4.82172">
        <ele>397.5</ele>
        <time>2020-06-07T06:50:21.000Z</time>
      </trkpt>
      <trkpt lat="45.85551" lon="4.82171">
        <ele>397.7</ele>
        <time>2020-06-07T06:50:22.000Z</time>
      </trkpt>
      <trkpt lat="45.85552" lon="4.8217">
        <ele>397.9</ele>
        <time>2020-06-07T06:50:23.000Z</time>
      </trkpt>
      <trkpt lat="45.85553" lon="4.82168">
        <ele>398.1</ele>
        <time>2020-06-07T06:50:24.000Z</time>
      </trkpt>
      <trkpt lat="45.85554" lon="4.82166">
        <ele>398.4</ele>
        <time>2020-06-07T06:50:25.000Z</time>
      </trkpt>
      <trkpt lat="45.85554" lon="4.82165">
        <ele>398.6</ele>
        <time>2020-06-07T06:50:26.000Z</time>
      </trkpt>
      <trkpt lat="45.85555" lon="4.82163">
        <ele>398.8</ele>
        <time>2020-06-07T06:50:27.000Z</time>
      </trkpt>
      <trkpt lat="45.85556" lon="4.82161">
        <ele>399.1</ele>
        <time>2020-06-07T06:50:28.000Z</time>
      </trkpt>
      <trkpt lat="45.85556" lon="4.82159">
        <ele>399.3</ele>
        <time>2020-06-07T06:50:29.000Z</time>
      </trkpt>
      <trkpt lat="45.85557" lon="4.82158">
        <ele>399.5</ele>
        <time>2020-06-07T06:50:30.000Z</time>
      </trkpt>
      <trkpt lat="45.85557" lon="4.82155">
        <ele>399.7</ele>
        <time>2020-06-07T06:50:31.000Z</time>
      </trkpt>
      <trkpt lat="45.85557" lon="4.82153">
        <ele>400</ele>
        <time>2020-06-07T06:50:32.000Z</time>
      </trkpt>
      <trkpt lat="45.85558" lon="4.82151">
        <ele>400.2</ele>
        <time>2020-06-07T06:50:33.000Z</time>
      </trkpt>
      <trkpt lat="45.85558" lon="4.8215">
        <ele>400.4</ele>
        <time>2020-06-07T06:50:34.000Z</time>
      </trkpt>
      <trkpt lat="45.85559" lon="4.82148">
        <ele>400.6</ele>
        <time>2020-06-07T06:50:35.000Z</time>
      </trkpt>
      <trkpt lat="45.8556" lon="4.82147">
        <ele>400.8</ele>
        <time>2020-06-07T06:50:36.000Z</time>
      </trkpt>
      <trkpt lat="45.85561" lon="4.82146">
        <ele>401</ele>
        <time>2020-06-07T06:50:37.000Z</time>
      </trkpt>
      <trkpt lat="45.85561" lon="4.82144">
        <ele>401.2</ele>
        <time>2020-06-07T06:50:38.000Z</time>
      </trkpt>
      <trkpt lat="45.85562" lon="4.82143">
        <ele>401.4</ele>
        <time>2020-06-07T06:50:39.000Z</time>
      </trkpt>
      <trkpt lat="45.85563" lon="4.82142">
        <ele>401.6</ele>
        <time>2020-06-07T06:50:40.000Z</time>
      </trkpt>
      <trkpt lat="45.85564" lon="4.82141">
        <ele>401.7</ele>
        <time>2020-06-07T06:50:41.000Z</time>
      </trkpt>
      <trkpt lat="45.85564" lon="4.8214">
        <ele>401.8</ele>
        <time>2020-06-07T06:50:42.000Z</time>
      </trkpt>
      <trkpt lat="45.85565" lon="4.8214">
        <ele>401.9</ele>
        <time>2020-06-07T06:50:43.000Z</time>
      </trkpt>
      <trkpt lat="45.85565" lon="4.82139">
        <ele>402</ele>
        <time>2020-06-07T06:50:44.000Z</time>
      </trkpt>
      <trkpt lat="45.85566" lon="4.82139">
        <ele>402.2</ele>
        <time>2020-06-07T06:50:45.000Z</time>
      </trkpt>
      <trkpt lat="45.85567" lon="4.82139">
        <ele>402.3</ele>
        <time>2020-06-07T06:50:46.000Z</time>
      </trkpt>
      <trkpt lat="45.85567" lon="4.82139">
        <ele>402.3</ele>
        <time>2020-06-07T06:50:47.000Z</time>
      </trkpt>
      <trkpt lat="45.85585" lon="4.82119">
        <ele>405.5</ele>
        <time>2020-06-07T06:52:18.000Z</time>
      </trkpt>
      <trkpt lat="45.85585" lon="4.82117">
        <ele>405.6</ele>
        <time>2020-06-07T06:52:19.000Z</time>
      </trkpt>
      <trkpt lat="45.85586" lon="4.82116">
        <ele>405.8</ele>
        <time>2020-06-07T06:52:20.000Z</time>
      </trkpt>
      <trkpt lat="45.85586" lon="4.82115">
        <ele>405.9</ele>
        <time>2020-06-07T06:52:21.000Z</time>
      </trkpt>
      <trkpt lat="45.85586" lon="4.82114">
        <ele>406</ele>
        <time>2020-06-07T06:52:22.000Z</time>
      </trkpt>
      <trkpt lat="45.85587" lon="4.82113">
        <ele>406.1</ele>
        <time>2020-06-07T06:52:23.000Z</time>
      </trkpt>
      <trkpt lat="45.85587" lon="4.82111">
        <ele>406.2</ele>
        <time>2020-06-07T06:52:24.000Z</time>
      </trkpt>
      <trkpt lat="45.85587" lon="4.8211">
        <ele>406.4</ele>
        <time>2020-06-07T06:52:25.000Z</time>
      </trkpt>
      <trkpt lat="45.85588" lon="4.82108">
        <ele>406.6</ele>
        <time>2020-06-07T06:52:26.000Z</time>
      </trkpt>
      <trkpt lat="45.85588" lon="4.82106">
        <ele>406.8</ele>
        <time>2020-06-07T06:52:27.000Z</time>
      </trkpt>
      <trkpt lat="45.85589" lon="4.82104">
        <ele>407</ele>
        <time>2020-06-07T06:52:28.000Z</time>
      </trkpt>
      <trkpt lat="45.85589" lon="4.82102">
        <ele>407.2</ele>
        <time>2020-06-07T06:52:29.000Z</time>
      </trkpt>
      <trkpt lat="45.85588" lon="4.821">
        <ele>407.4</ele>
        <time>2020-06-07T06:52:30.000Z</time>
      </trkpt>
      <trkpt lat="45.85589" lon="4.82098">
        <ele>407.6</ele>
        <time>2020-06-07T06:52:31.000Z</time>
      </trkpt>
      <trkpt lat="45.85589" lon="4.82095">
        <ele>407.8</ele>
        <time>2020-06-07T06:52:32.000Z</time>
      </trkpt>
      <trkpt lat="45.8559" lon="4.82093">
        <ele>408</ele>
        <time>2020-06-07T06:52:33.000Z</time>
      </trkpt>
      <trkpt lat="45.85591" lon="4.82091">
        <ele>408.3</ele>
        <time>2020-06-07T06:52:34.000Z</time>
      </trkpt>
      <trkpt lat="45.85591" lon="4.82089">
        <ele>408.5</ele>
        <time>2020-06-07T06:52:35.000Z</time>
      </trkpt>
      <trkpt lat="45.85591" lon="4.82087">
        <ele>408.6</ele>
        <time>2020-06-07T06:52:36.000Z</time>
      </trkpt>
      <trkpt lat="45.85591" lon="4.82085">
        <ele>408.9</ele>
        <time>2020-06-07T06:52:37.000Z</time>
      </trkpt>
      <trkpt lat="45.85592" lon="4.82082">
        <ele>409.1</ele>
        <time>2020-06-07T06:52:38.000Z</time>
      </trkpt>
      <trkpt lat="45.85592" lon="4.8208">
        <ele>409.3</ele>
        <time>2020-06-07T06:52:39.000Z</time>
      </trkpt>
      <trkpt lat="45.85592" lon="4.82078">
        <ele>409.5</ele>
        <time>2020-06-07T06:52:40.000Z</time>
      </trkpt>
      <trkpt lat="45.85592" lon="4.82076">
        <ele>409.7</ele>
        <time>2020-06-07T06:52:41.000Z</time>
      </trkpt>
      <trkpt lat="45.85591" lon="4.82074">
        <ele>409.9</ele>
        <time>2020-06-07T06:52:42.000Z</time>
      </trkpt>
      <trkpt lat="45.85591" lon="4.82072">
        <ele>410.1</ele>
        <time>2020-06-07T06:52:43.000Z</time>
      </trkpt>
      <trkpt lat="45.85591" lon="4.8207">
        <ele>411.1</ele>
        <time>2020-06-07T06:52:44.000Z</time>
      </trkpt>
      <trkpt lat="45.8559" lon="4.82067">
        <ele>411.3</ele>
        <time>2020-06-07T06:52:45.000Z</time>
      </trkpt>
      <trkpt lat="45.8559" lon="4.82065">
        <ele>411.5</ele>
        <time>2020-06-07T06:52:46.000Z</time>
      </trkpt>
      <trkpt lat="45.85589" lon="4.82063">
        <ele>411.8</ele>
        <time>2020-06-07T06:52:47.000Z</time>
      </trkpt>
      <trkpt lat="45.85589" lon="4.8206">
        <ele>411.9</ele>
        <time>2020-06-07T06:52:48.000Z</time>
      </trkpt>
      <trkpt lat="45.85589" lon="4.82058">
        <ele>412.2</ele>
        <time>2020-06-07T06:52:49.000Z</time>
      </trkpt>
      <trkpt lat="45.85588" lon="4.82056">
        <ele>412.4</ele>
        <time>2020-06-07T06:52:50.000Z</time>
      </trkpt>
      <trkpt lat="45.85588" lon="4.82053">
        <ele>412.6</ele>
        <time>2020-06-07T06:52:51.000Z</time>
      </trkpt>
      <trkpt lat="45.85588" lon="4.82051">
        <ele>412.8</ele>
        <time>2020-06-07T06:52:52.000Z</time>
      </trkpt>
      <trkpt lat="45.85587" lon="4.82048">
        <ele>413</ele>
        <time>2020-06-07T06:52:53.000Z</time>
      </trkpt>
      <trkpt lat="45.85587" lon="4.82046">
        <ele>413.1</ele>
        <time>2020-06-07T06:52:54.000Z</time>
      </trkpt>
      <trkpt lat="45.85587" lon="4.82044">
        <ele>413.3</ele>
        <time>2020-06-07T06:52:55.000Z</time>
      </trkpt>
      <trkpt lat="45.85587" lon="4.82042">
        <ele>413.4</ele>
        <time>2020-06-07T06:52:56.000Z</time>
      </trkpt>
      <trkpt lat="45.85587" lon="4.8204">
        <ele>413.6</ele>
        <time>2020-06-07T06:52:57.000Z</time>
      </trkpt>
      <trkpt lat="45.85587" lon="4.82038">
        <ele>413.8</ele>
        <time>2020-06-07T06:52:58.000Z</time>
      </trkpt>
      <trkpt lat="45.85587" lon="4.82035">
        <ele>414</ele>
        <time>2020-06-07T06:52:59.000Z</time>
      </trkpt>
      <trkpt lat="45.85587" lon="4.82033">
        <ele>414.1</ele>
        <time>2020-06-07T06:53:00.000Z</time>
      </trkpt>
      <trkpt lat="45.85588" lon="4.82031">
        <ele>414.3</ele>
        <time>2020-06-07T06:53:01.000Z</time>
      </trkpt>
      <trkpt lat="45.85588" lon="4.82029">
        <ele>414.5</ele>
        <time>2020-06-07T06:53:02.000Z</time>
      </trkpt>
      <trkpt lat="45.85588" lon="4.82027">
        <ele>414.6</ele>
        <time>2020-06-07T06:53:03.000Z</time>
      </trkpt>
      <trkpt lat="45.85588" lon="4.82025">
        <ele>414.7</ele>
        <time>2020-06-07T06:53:04.000Z</time>
      </trkpt>
      <trkpt lat="45.85588" lon="4.82023">
        <ele>414.9</ele>
        <time>2020-06-07T06:53:05.000Z</time>
      </trkpt>
      <trkpt lat="45.85588" lon="4.82021">
        <ele>415</ele>
        <time>2020-06-07T06:53:06.000Z</time>
      </trkpt>
      <trkpt lat="45.85588" lon="4.82019">
        <ele>415.1</ele>
        <time>2020-06-07T06:53:07.000Z</time>
      </trkpt>
      <trkpt lat="45.85588" lon="4.82017">
        <ele>415.3</ele>
        <time>2020-06-07T06:53:08.000Z</time>
      </trkpt>
      <trkpt lat="45.85588" lon="4.82015">
        <ele>415.4</ele>
        <time>2020-06-07T06:53:09.000Z</time>
      </trkpt>
      <trkpt lat="45.85588" lon="4.82013">
        <ele>415.5</ele>
        <time>2020-06-07T06:53:10.000Z</time>
      </trkpt>
      <trkpt lat="45.85588" lon="4.82011">
        <ele>415.6</ele>
        <time>2020-06-07T06:53:11.000Z</time>
      </trkpt>
      <trkpt lat="45.85588" lon="4.8201">
        <ele>415.7</ele>
        <time>2020-06-07T06:53:12.000Z</time>
      </trkpt>
      <trkpt lat="45.85587" lon="4.82009">
        <ele>415.7</ele>
        <time>2020-06-07T06:53:13.000Z</time>
      </trkpt>
      <trkpt lat="45.85587" lon="4.82008">
        <ele>415.8</ele>
        <time>2020-06-07T06:53:14.000Z</time>
      </trkpt>
      <trkpt lat="45.85586" lon="4.82006">
        <ele>415.9</ele>
        <time>2020-06-07T06:53:15.000Z</time>
      </trkpt>
      <trkpt lat="45.85586" lon="4.82005">
        <ele>416</ele>
        <time>2020-06-07T06:53:16.000Z</time>
      </trkpt>
      <trkpt lat="45.85585" lon="4.82003">
        <ele>416.1</ele>
        <time>2020-06-07T06:53:17.000Z</time>
      </trkpt>
      <trkpt lat="45.85585" lon="4.82001">
        <ele>416.2</ele>
        <time>2020-06-07T06:53:18.000Z</time>
      </trkpt>
      <trkpt lat="45.85585" lon="4.82">
        <ele>416.3</ele>
        <time>2020-06-07T06:53:19.000Z</time>
      </trkpt>
      <trkpt lat="45.85585" lon="4.81998">
        <ele>416.4</ele>
        <time>2020-06-07T06:53:20.000Z</time>
      </trkpt>
      <trkpt lat="45.85584" lon="4.81996">
        <ele>416.5</ele>
        <time>2020-06-07T06:53:21.000Z</time>
      </trkpt>
      <trkpt lat="45.85583" lon="4.81995">
        <ele>416.6</ele>
        <time>2020-06-07T06:53:22.000Z</time>
      </trkpt>
      <trkpt lat="45.85583" lon="4.81993">
        <ele>416.7</ele>
        <time>2020-06-07T06:53:23.000Z</time>
      </trkpt>
      <trkpt lat="45.85583" lon="4.8199">
        <ele>416.8</ele>
        <time>2020-06-07T06:53:24.000Z</time>
      </trkpt>
      <trkpt lat="45.85583" lon="4.81988">
        <ele>416.9</ele>
        <time>2020-06-07T06:53:25.000Z</time>
      </trkpt>
      <trkpt lat="45.85583" lon="4.81986">
        <ele>417</ele>
        <time>2020-06-07T06:53:26.000Z</time>
      </trkpt>
      <trkpt lat="45.85583" lon="4.81983">
        <ele>417.1</ele>
        <time>2020-06-07T06:53:27.000Z</time>
      </trkpt>
      <trkpt lat="45.85583" lon="4.81982">
        <ele>417.2</ele>
        <time>2020-06-07T06:53:28.000Z</time>
      </trkpt>
      <trkpt lat="45.85583" lon="4.81979">
        <ele>417.3</ele>
        <time>2020-06-07T06:53:29.000Z</time>
      </trkpt>
      <trkpt lat="45.85582" lon="4.81976">
        <ele>417.4</ele>
        <time>2020-06-07T06:53:30.000Z</time>
      </trkpt>
      <trkpt lat="45.8558" lon="4.81972">
        <ele>417.6</ele>
        <time>2020-06-07T06:53:31.000Z</time>
      </trkpt>
      <trkpt lat="45.85578" lon="4.81969">
        <ele>417.7</ele>
        <time>2020-06-07T06:53:32.000Z</time>
      </trkpt>
      <trkpt lat="45.85577" lon="4.81965">
        <ele>417.9</ele>
        <time>2020-06-07T06:53:33.000Z</time>
      </trkpt>
      <trkpt lat="45.85576" lon="4.81962">
        <ele>418.1</ele>
        <time>2020-06-07T06:53:34.000Z</time>
      </trkpt>
      <trkpt lat="45.85575" lon="4.81959">
        <ele>418.3</ele>
        <time>2020-06-07T06:53:35.000Z</time>
      </trkpt>
      <trkpt lat="45.85574" lon="4.81956">
        <ele>418.4</ele>
        <time>2020-06-07T06:53:36.000Z</time>
      </trkpt>
      <trkpt lat="45.85572" lon="4.81952">
        <ele>418.5</ele>
        <time>2020-06-07T06:53:37.000Z</time>
      </trkpt>
      <trkpt lat="45.85571" lon="4.81948">
        <ele>418.6</ele>
        <time>2020-06-07T06:53:38.000Z</time>
      </trkpt>
      <trkpt lat="45.85571" lon="4.81944">
        <ele>418.7</ele>
        <time>2020-06-07T06:53:39.000Z</time>
      </trkpt>
      <trkpt lat="45.85571" lon="4.8194">
        <ele>418.8</ele>
        <time>2020-06-07T06:53:40.000Z</time>
      </trkpt>
      <trkpt lat="45.85569" lon="4.81936">
        <ele>418.9</ele>
        <time>2020-06-07T06:53:41.000Z</time>
      </trkpt>
      <trkpt lat="45.85568" lon="4.81932">
        <ele>419</ele>
        <time>2020-06-07T06:53:42.000Z</time>
      </trkpt>
      <trkpt lat="45.85566" lon="4.81928">
        <ele>419.1</ele>
        <time>2020-06-07T06:53:43.000Z</time>
      </trkpt>
      <trkpt lat="45.85566" lon="4.81924">
        <ele>419.1</ele>
        <time>2020-06-07T06:53:44.000Z</time>
      </trkpt>
      <trkpt lat="45.85565" lon="4.8192">
        <ele>419.2</ele>
        <time>2020-06-07T06:53:45.000Z</time>
      </trkpt>
      <trkpt lat="45.85565" lon="4.81916">
        <ele>419.2</ele>
        <time>2020-06-07T06:53:46.000Z</time>
      </trkpt>
      <trkpt lat="45.85565" lon="4.81913">
        <ele>419.3</ele>
        <time>2020-06-07T06:53:47.000Z</time>
      </trkpt>
      <trkpt lat="45.85565" lon="4.81911">
        <ele>419.3</ele>
        <time>2020-06-07T06:53:48.000Z</time>
      </trkpt>
      <trkpt lat="45.85565" lon="4.81908">
        <ele>419.3</ele>
        <time>2020-06-07T06:53:49.000Z</time>
      </trkpt>
      <trkpt lat="45.85565" lon="4.81906">
        <ele>419.3</ele>
        <time>2020-06-07T06:53:50.000Z</time>
      </trkpt>
      <trkpt lat="45.85566" lon="4.81904">
        <ele>419.4</ele>
        <time>2020-06-07T06:53:51.000Z</time>
      </trkpt>
      <trkpt lat="45.85567" lon="4.81901">
        <ele>419.4</ele>
        <time>2020-06-07T06:53:52.000Z</time>
      </trkpt>
      <trkpt lat="45.85567" lon="4.81899">
        <ele>419.4</ele>
        <time>2020-06-07T06:53:53.000Z</time>
      </trkpt>
      <trkpt lat="45.85567" lon="4.81897">
        <ele>419.4</ele>
        <time>2020-06-07T06:53:54.000Z</time>
      </trkpt>
      <trkpt lat="45.85568" lon="4.81896">
        <ele>419.4</ele>
        <time>2020-06-07T06:53:55.000Z</time>
      </trkpt>
      <trkpt lat="45.85568" lon="4.81896">
        <ele>419.4</ele>
        <time>2020-06-07T06:53:56.000Z</time>
      </trkpt>
      <trkpt lat="45.8557" lon="4.81876">
        <ele>419.3</ele>
        <time>2020-06-07T06:55:15.000Z</time>
      </trkpt>
      <trkpt lat="45.85569" lon="4.81873">
        <ele>419.2</ele>
        <time>2020-06-07T06:55:16.000Z</time>
      </trkpt>
      <trkpt lat="45.85567" lon="4.8187">
        <ele>419.1</ele>
        <time>2020-06-07T06:55:17.000Z</time>
      </trkpt>
      <trkpt lat="45.85566" lon="4.81867">
        <ele>419</ele>
        <time>2020-06-07T06:55:18.000Z</time>
      </trkpt>
      <trkpt lat="45.85566" lon="4.81863">
        <ele>419</ele>
        <time>2020-06-07T06:55:19.000Z</time>
      </trkpt>
      <trkpt lat="45.85566" lon="4.8186">
        <ele>418.9</ele>
        <time>2020-06-07T06:55:20.000Z</time>
      </trkpt>
      <trkpt lat="45.85566" lon="4.81857">
        <ele>418.8</ele>
        <time>2020-06-07T06:55:21.000Z</time>
      </trkpt>
      <trkpt lat="45.85565" lon="4.81854">
        <ele>418.7</ele>
        <time>2020-06-07T06:55:22.000Z</time>
      </trkpt>
      <trkpt lat="45.85564" lon="4.81852">
        <ele>418.7</ele>
        <time>2020-06-07T06:55:23.000Z</time>
      </trkpt>
      <trkpt lat="45.85563" lon="4.81849">
        <ele>418.6</ele>
        <time>2020-06-07T06:55:24.000Z</time>
      </trkpt>
      <trkpt lat="45.85562" lon="4.81846">
        <ele>418.5</ele>
        <time>2020-06-07T06:55:25.000Z</time>
      </trkpt>
      <trkpt lat="45.85562" lon="4.81842">
        <ele>418.4</ele>
        <time>2020-06-07T06:55:26.000Z</time>
      </trkpt>
      <trkpt lat="45.85559" lon="4.81838">
        <ele>418.2</ele>
        <time>2020-06-07T06:55:27.000Z</time>
      </trkpt>
      <trkpt lat="45.85558" lon="4.81834">
        <ele>418.1</ele>
        <time>2020-06-07T06:55:28.000Z</time>
      </trkpt>
      <trkpt lat="45.85556" lon="4.8183">
        <ele>417.9</ele>
        <time>2020-06-07T06:55:29.000Z</time>
      </trkpt>
      <trkpt lat="45.85554" lon="4.81827">
        <ele>417.6</ele>
        <time>2020-06-07T06:55:30.000Z</time>
      </trkpt>
      <trkpt lat="45.85553" lon="4.81823">
        <ele>417.4</ele>
        <time>2020-06-07T06:55:31.000Z</time>
      </trkpt>
      <trkpt lat="45.85551" lon="4.8182">
        <ele>417.2</ele>
        <time>2020-06-07T06:55:32.000Z</time>
      </trkpt>
      <trkpt lat="45.85549" lon="4.81817">
        <ele>417.1</ele>
        <time>2020-06-07T06:55:33.000Z</time>
      </trkpt>
      <trkpt lat="45.85547" lon="4.81813">
        <ele>416.8</ele>
        <time>2020-06-07T06:55:34.000Z</time>
      </trkpt>
      <trkpt lat="45.85544" lon="4.8181">
        <ele>416.6</ele>
        <time>2020-06-07T06:55:35.000Z</time>
      </trkpt>
      <trkpt lat="45.85542" lon="4.81808">
        <ele>416.4</ele>
        <time>2020-06-07T06:55:36.000Z</time>
      </trkpt>
      <trkpt lat="45.85541" lon="4.81805">
        <ele>416.3</ele>
        <time>2020-06-07T06:55:37.000Z</time>
      </trkpt>
      <trkpt lat="45.8554" lon="4.81804">
        <ele>416.3</ele>
        <time>2020-06-07T06:55:38.000Z</time>
      </trkpt>
      <trkpt lat="45.85539" lon="4.81803">
        <ele>416.2</ele>
        <time>2020-06-07T06:55:39.000Z</time>
      </trkpt>
      <trkpt lat="45.85536" lon="4.81801">
        <ele>416.1</ele>
        <time>2020-06-07T06:55:40.000Z</time>
      </trkpt>
      <trkpt lat="45.85534" lon="4.81801">
        <ele>416</ele>
        <time>2020-06-07T06:55:41.000Z</time>
      </trkpt>
      <trkpt lat="45.85532" lon="4.818">
        <ele>415.9</ele>
        <time>2020-06-07T06:55:42.000Z</time>
      </trkpt>
      <trkpt lat="45.8553" lon="4.81798">
        <ele>415.7</ele>
        <time>2020-06-07T06:55:43.000Z</time>
      </trkpt>
      <trkpt lat="45.85529" lon="4.81796">
        <ele>415.7</ele>
        <time>2020-06-07T06:55:44.000Z</time>
      </trkpt>
      <trkpt lat="45.85528" lon="4.81793">
        <ele>415.7</ele>
        <time>2020-06-07T06:55:45.000Z</time>
      </trkpt>
      <trkpt lat="45.85527" lon="4.81791">
        <ele>415.6</ele>
        <time>2020-06-07T06:55:46.000Z</time>
      </trkpt>
      <trkpt lat="45.85525" lon="4.81788">
        <ele>415.6</ele>
        <time>2020-06-07T06:55:47.000Z</time>
      </trkpt>
      <trkpt lat="45.85524" lon="4.81787">
        <ele>415.6</ele>
        <time>2020-06-07T06:55:48.000Z</time>
      </trkpt>
      <trkpt lat="45.85523" lon="4.81786">
        <ele>415.5</ele>
        <time>2020-06-07T06:55:49.000Z</time>
      </trkpt>
      <trkpt lat="45.8552" lon="4.81784">
        <ele>415.5</ele>
        <time>2020-06-07T06:55:50.000Z</time>
      </trkpt>
      <trkpt lat="45.85516" lon="4.81782">
        <ele>415.4</ele>
        <time>2020-06-07T06:55:51.000Z</time>
      </trkpt>
      <trkpt lat="45.85511" lon="4.81779">
        <ele>415.3</ele>
        <time>2020-06-07T06:55:52.000Z</time>
      </trkpt>
      <trkpt lat="45.85505" lon="4.81775">
        <ele>414.9</ele>
        <time>2020-06-07T06:55:53.000Z</time>
      </trkpt>
      <trkpt lat="45.85499" lon="4.81773">
        <ele>414.6</ele>
        <time>2020-06-07T06:55:54.000Z</time>
      </trkpt>
      <trkpt lat="45.85494" lon="4.8177">
        <ele>414.6</ele>
        <time>2020-06-07T06:55:55.000Z</time>
      </trkpt>
      <trkpt lat="45.85489" lon="4.81769">
        <ele>414.7</ele>
        <time>2020-06-07T06:55:56.000Z</time>
      </trkpt>
      <trkpt lat="45.85485" lon="4.81767">
        <ele>414.7</ele>
        <time>2020-06-07T06:55:57.000Z</time>
      </trkpt>
      <trkpt lat="45.85481" lon="4.81766">
        <ele>414.7</ele>
        <time>2020-06-07T06:55:58.000Z</time>
      </trkpt>
      <trkpt lat="45.85478" lon="4.81765">
        <ele>414.7</ele>
        <time>2020-06-07T06:55:59.000Z</time>
      </trkpt>
      <trkpt lat="45.85474" lon="4.81764">
        <ele>414.8</ele>
        <time>2020-06-07T06:56:00.000Z</time>
      </trkpt>
      <trkpt lat="45.85471" lon="4.81763">
        <ele>414.8</ele>
        <time>2020-06-07T06:56:01.000Z</time>
      </trkpt>
      <trkpt lat="45.85467" lon="4.81762">
        <ele>414.8</ele>
        <time>2020-06-07T06:56:02.000Z</time>
      </trkpt>
      <trkpt lat="45.85464" lon="4.81762">
        <ele>414.9</ele>
        <time>2020-06-07T06:56:03.000Z</time>
      </trkpt>
      <trkpt lat="45.85462" lon="4.81761">
        <ele>414.9</ele>
        <time>2020-06-07T06:56:04.000Z</time>
      </trkpt>
      <trkpt lat="45.85459" lon="4.8176">
        <ele>415</ele>
        <time>2020-06-07T06:56:05.000Z</time>
      </trkpt>
      <trkpt lat="45.85455" lon="4.81758">
        <ele>415.1</ele>
        <time>2020-06-07T06:56:06.000Z</time>
      </trkpt>
      <trkpt lat="45.85451" lon="4.81757">
        <ele>415.1</ele>
        <time>2020-06-07T06:56:07.000Z</time>
      </trkpt>
      <trkpt lat="45.85448" lon="4.81756">
        <ele>415.2</ele>
        <time>2020-06-07T06:56:08.000Z</time>
      </trkpt>
      <trkpt lat="45.85446" lon="4.81755">
        <ele>415.3</ele>
        <time>2020-06-07T06:56:09.000Z</time>
      </trkpt>
      <trkpt lat="45.85443" lon="4.81755">
        <ele>415.3</ele>
        <time>2020-06-07T06:56:10.000Z</time>
      </trkpt>
      <trkpt lat="45.8544" lon="4.81755">
        <ele>415.4</ele>
        <time>2020-06-07T06:56:11.000Z</time>
      </trkpt>
      <trkpt lat="45.85438" lon="4.81755">
        <ele>415.4</ele>
        <time>2020-06-07T06:56:12.000Z</time>
      </trkpt>
      <trkpt lat="45.85437" lon="4.81755">
        <ele>415.5</ele>
        <time>2020-06-07T06:56:13.000Z</time>
      </trkpt>
      <trkpt lat="45.85434" lon="4.81754">
        <ele>415.5</ele>
        <time>2020-06-07T06:56:14.000Z</time>
      </trkpt>
      <trkpt lat="45.85432" lon="4.81753">
        <ele>415.6</ele>
        <time>2020-06-07T06:56:15.000Z</time>
      </trkpt>
      <trkpt lat="45.85429" lon="4.81752">
        <ele>415.7</ele>
        <time>2020-06-07T06:56:16.000Z</time>
      </trkpt>
      <trkpt lat="45.85427" lon="4.81751">
        <ele>415.7</ele>
        <time>2020-06-07T06:56:17.000Z</time>
      </trkpt>
      <trkpt lat="45.85424" lon="4.81751">
        <ele>415.8</ele>
        <time>2020-06-07T06:56:18.000Z</time>
      </trkpt>
      <trkpt lat="45.85423" lon="4.81751">
        <ele>415.8</ele>
        <time>2020-06-07T06:56:19.000Z</time>
      </trkpt>
      <trkpt lat="45.85421" lon="4.81751">
        <ele>415.8</ele>
        <time>2020-06-07T06:56:20.000Z</time>
      </trkpt>
      <trkpt lat="45.8542" lon="4.81752">
        <ele>415.8</ele>
        <time>2020-06-07T06:56:21.000Z</time>
      </trkpt>
      <trkpt lat="45.85419" lon="4.81751">
        <ele>415.9</ele>
        <time>2020-06-07T06:56:22.000Z</time>
      </trkpt>
      <trkpt lat="45.85417" lon="4.81751">
        <ele>415.9</ele>
        <time>2020-06-07T06:56:23.000Z</time>
      </trkpt>
      <trkpt lat="45.85416" lon="4.81751">
        <ele>415.9</ele>
        <time>2020-06-07T06:56:24.000Z</time>
      </trkpt>
      <trkpt lat="45.85415" lon="4.81751">
        <ele>416</ele>
        <time>2020-06-07T06:56:25.000Z</time>
      </trkpt>
      <trkpt lat="45.85414" lon="4.8175">
        <ele>416</ele>
        <time>2020-06-07T06:56:26.000Z</time>
      </trkpt>
      <trkpt lat="45.85413" lon="4.8175">
        <ele>416</ele>
        <time>2020-06-07T06:56:27.000Z</time>
      </trkpt>
      <trkpt lat="45.85412" lon="4.81749">
        <ele>416</ele>
        <time>2020-06-07T06:56:28.000Z</time>
      </trkpt>
      <trkpt lat="45.85412" lon="4.81748">
        <ele>416</ele>
        <time>2020-06-07T06:56:29.000Z</time>
      </trkpt>
      <trkpt lat="45.85413" lon="4.81747">
        <ele>416</ele>
        <time>2020-06-07T06:56:30.000Z</time>
      </trkpt>
      <trkpt lat="45.85413" lon="4.81746">
        <ele>416.1</ele>
        <time>2020-06-07T06:56:31.000Z</time>
      </trkpt>
      <trkpt lat="45.85413" lon="4.81744">
        <ele>416.1</ele>
        <time>2020-06-07T06:56:32.000Z</time>
      </trkpt>
      <trkpt lat="45.85414" lon="4.81743">
        <ele>416.1</ele>
        <time>2020-06-07T06:56:33.000Z</time>
      </trkpt>
      <trkpt lat="45.85414" lon="4.81742">
        <ele>416.1</ele>
        <time>2020-06-07T06:56:34.000Z</time>
      </trkpt>
      <trkpt lat="45.85414" lon="4.81741">
        <ele>416.1</ele>
        <time>2020-06-07T06:56:35.000Z</time>
      </trkpt>
      <trkpt lat="45.85414" lon="4.81739">
        <ele>419.5</ele>
        <time>2020-06-07T06:56:36.000Z</time>
      </trkpt>
      <trkpt lat="45.85414" lon="4.81738">
        <ele>419.7</ele>
        <time>2020-06-07T06:56:37.000Z</time>
      </trkpt>
      <trkpt lat="45.85414" lon="4.81736">
        <ele>419.9</ele>
        <time>2020-06-07T06:56:38.000Z</time>
      </trkpt>
      <trkpt lat="45.85414" lon="4.81735">
        <ele>420</ele>
        <time>2020-06-07T06:56:39.000Z</time>
      </trkpt>
      <trkpt lat="45.85414" lon="4.81733">
        <ele>420.3</ele>
        <time>2020-06-07T06:56:40.000Z</time>
      </trkpt>
      <trkpt lat="45.85414" lon="4.81732">
        <ele>420.4</ele>
        <time>2020-06-07T06:56:41.000Z</time>
      </trkpt>
      <trkpt lat="45.85415" lon="4.8173">
        <ele>420.7</ele>
        <time>2020-06-07T06:56:42.000Z</time>
      </trkpt>
      <trkpt lat="45.85416" lon="4.81729">
        <ele>420.9</ele>
        <time>2020-06-07T06:56:43.000Z</time>
      </trkpt>
      <trkpt lat="45.85416" lon="4.81727">
        <ele>421.1</ele>
        <time>2020-06-07T06:56:44.000Z</time>
      </trkpt>
      <trkpt lat="45.85416" lon="4.81725">
        <ele>421.4</ele>
        <time>2020-06-07T06:56:45.000Z</time>
      </trkpt>
      <trkpt lat="45.85416" lon="4.81723">
        <ele>421.6</ele>
        <time>2020-06-07T06:56:46.000Z</time>
      </trkpt>
      <trkpt lat="45.85416" lon="4.81722">
        <ele>421.8</ele>
        <time>2020-06-07T06:56:47.000Z</time>
      </trkpt>
      <trkpt lat="45.85415" lon="4.8172">
        <ele>422.1</ele>
        <time>2020-06-07T06:56:48.000Z</time>
      </trkpt>
      <trkpt lat="45.85416" lon="4.81717">
        <ele>422.4</ele>
        <time>2020-06-07T06:56:49.000Z</time>
      </trkpt>
      <trkpt lat="45.85416" lon="4.81715">
        <ele>422.7</ele>
        <time>2020-06-07T06:56:50.000Z</time>
      </trkpt>
      <trkpt lat="45.85417" lon="4.81713">
        <ele>423</ele>
        <time>2020-06-07T06:56:51.000Z</time>
      </trkpt>
      <trkpt lat="45.85418" lon="4.81711">
        <ele>423.4</ele>
        <time>2020-06-07T06:56:52.000Z</time>
      </trkpt>
      <trkpt lat="45.85419" lon="4.81709">
        <ele>423.6</ele>
        <time>2020-06-07T06:56:53.000Z</time>
      </trkpt>
      <trkpt lat="45.8542" lon="4.81707">
        <ele>424</ele>
        <time>2020-06-07T06:56:54.000Z</time>
      </trkpt>
      <trkpt lat="45.85421" lon="4.81705">
        <ele>424.2</ele>
        <time>2020-06-07T06:56:55.000Z</time>
      </trkpt>
      <trkpt lat="45.85421" lon="4.81703">
        <ele>424.5</ele>
        <time>2020-06-07T06:56:56.000Z</time>
      </trkpt>
      <trkpt lat="45.85422" lon="4.81701">
        <ele>424.8</ele>
        <time>2020-06-07T06:56:57.000Z</time>
      </trkpt>
      <trkpt lat="45.85423" lon="4.81699">
        <ele>425.1</ele>
        <time>2020-06-07T06:56:58.000Z</time>
      </trkpt>
      <trkpt lat="45.85424" lon="4.81697">
        <ele>425.4</ele>
        <time>2020-06-07T06:56:59.000Z</time>
      </trkpt>
      <trkpt lat="45.85425" lon="4.81695">
        <ele>425.7</ele>
        <time>2020-06-07T06:57:00.000Z</time>
      </trkpt>
      <trkpt lat="45.85426" lon="4.81693">
        <ele>426</ele>
        <time>2020-06-07T06:57:01.000Z</time>
      </trkpt>
      <trkpt lat="45.85426" lon="4.81691">
        <ele>426.2</ele>
        <time>2020-06-07T06:57:02.000Z</time>
      </trkpt>
      <trkpt lat="45.85427" lon="4.81689">
        <ele>426.4</ele>
        <time>2020-06-07T06:57:03.000Z</time>
      </trkpt>
      <trkpt lat="45.85427" lon="4.81687">
        <ele>426.7</ele>
        <time>2020-06-07T06:57:04.000Z</time>
      </trkpt>
      <trkpt lat="45.85427" lon="4.81685">
        <ele>426.9</ele>
        <time>2020-06-07T06:57:05.000Z</time>
      </trkpt>
      <trkpt lat="45.85427" lon="4.81683">
        <ele>427.1</ele>
        <time>2020-06-07T06:57:06.000Z</time>
      </trkpt>
      <trkpt lat="45.85427" lon="4.81681">
        <ele>427.4</ele>
        <time>2020-06-07T06:57:07.000Z</time>
      </trkpt>
      <trkpt lat="45.85427" lon="4.8168">
        <ele>427.6</ele>
        <time>2020-06-07T06:57:08.000Z</time>
      </trkpt>
      <trkpt lat="45.85427" lon="4.81678">
        <ele>427.8</ele>
        <time>2020-06-07T06:57:09.000Z</time>
      </trkpt>
      <trkpt lat="45.85427" lon="4.81677">
        <ele>427.9</ele>
        <time>2020-06-07T06:57:10.000Z</time>
      </trkpt>
      <trkpt lat="45.85426" lon="4.81675">
        <ele>428.1</ele>
        <time>2020-06-07T06:57:11.000Z</time>
      </trkpt>
      <trkpt lat="45.85426" lon="4.81675">
        <ele>428.2</ele>
        <time>2020-06-07T06:57:12.000Z</time>
      </trkpt>
      <trkpt lat="45.85424" lon="4.81674">
        <ele>428.5</ele>
        <time>2020-06-07T06:57:13.000Z</time>
      </trkpt>
      <trkpt lat="45.85424" lon="4.81673">
        <ele>428.7</ele>
        <time>2020-06-07T06:57:14.000Z</time>
      </trkpt>
      <trkpt lat="45.85424" lon="4.81673">
        <ele>428.8</ele>
        <time>2020-06-07T06:57:15.000Z</time>
      </trkpt>
      <trkpt lat="45.85424" lon="4.81653">
        <ele>431.4</ele>
        <time>2020-06-07T06:57:35.000Z</time>
      </trkpt>
      <trkpt lat="45.85425" lon="4.81651">
        <ele>431.6</ele>
        <time>2020-06-07T06:57:36.000Z</time>
      </trkpt>
      <trkpt lat="45.85426" lon="4.81649">
        <ele>431.8</ele>
        <time>2020-06-07T06:57:37.000Z</time>
      </trkpt>
      <trkpt lat="45.85427" lon="4.81648">
        <ele>431.9</ele>
        <time>2020-06-07T06:57:38.000Z</time>
      </trkpt>
      <trkpt lat="45.85428" lon="4.81646">
        <ele>432.1</ele>
        <time>2020-06-07T06:57:39.000Z</time>
      </trkpt>
      <trkpt lat="45.85428" lon="4.81644">
        <ele>432.2</ele>
        <time>2020-06-07T06:57:40.000Z</time>
      </trkpt>
      <trkpt lat="45.85429" lon="4.81643">
        <ele>432.4</ele>
        <time>2020-06-07T06:57:41.000Z</time>
      </trkpt>
      <trkpt lat="45.8543" lon="4.81641">
        <ele>432.5</ele>
        <time>2020-06-07T06:57:42.000Z</time>
      </trkpt>
      <trkpt lat="45.8543" lon="4.8164">
        <ele>432.6</ele>
        <time>2020-06-07T06:57:43.000Z</time>
      </trkpt>
      <trkpt lat="45.85431" lon="4.81638">
        <ele>432.8</ele>
        <time>2020-06-07T06:57:44.000Z</time>
      </trkpt>
      <trkpt lat="45.85432" lon="4.81636">
        <ele>432.9</ele>
        <time>2020-06-07T06:57:45.000Z</time>
      </trkpt>
      <trkpt lat="45.85433" lon="4.81634">
        <ele>433.1</ele>
        <time>2020-06-07T06:57:46.000Z</time>
      </trkpt>
      <trkpt lat="45.85433" lon="4.81632">
        <ele>433.3</ele>
        <time>2020-06-07T06:57:47.000Z</time>
      </trkpt>
      <trkpt lat="45.85434" lon="4.81629">
        <ele>433.4</ele>
        <time>2020-06-07T06:57:48.000Z</time>
      </trkpt>
      <trkpt lat="45.85434" lon="4.81627">
        <ele>433.6</ele>
        <time>2020-06-07T06:57:49.000Z</time>
      </trkpt>
      <trkpt lat="45.85435" lon="4.81625">
        <ele>433.7</ele>
        <time>2020-06-07T06:57:50.000Z</time>
      </trkpt>
      <trkpt lat="45.85435" lon="4.81624">
        <ele>433.8</ele>
        <time>2020-06-07T06:57:51.000Z</time>
      </trkpt>
      <trkpt lat="45.85435" lon="4.81622">
        <ele>434</ele>
        <time>2020-06-07T06:57:52.000Z</time>
      </trkpt>
      <trkpt lat="45.85436" lon="4.8162">
        <ele>434.1</ele>
        <time>2020-06-07T06:57:53.000Z</time>
      </trkpt>
      <trkpt lat="45.85436" lon="4.81618">
        <ele>434.2</ele>
        <time>2020-06-07T06:57:54.000Z</time>
      </trkpt>
      <trkpt lat="45.85437" lon="4.81616">
        <ele>434.3</ele>
        <time>2020-06-07T06:57:55.000Z</time>
      </trkpt>
      <trkpt lat="45.85438" lon="4.81614">
        <ele>434.5</ele>
        <time>2020-06-07T06:57:56.000Z</time>
      </trkpt>
      <trkpt lat="45.85438" lon="4.81613">
        <ele>434.6</ele>
        <time>2020-06-07T06:57:57.000Z</time>
      </trkpt>
      <trkpt lat="45.85439" lon="4.81611">
        <ele>434.7</ele>
        <time>2020-06-07T06:57:58.000Z</time>
      </trkpt>
      <trkpt lat="45.8544" lon="4.81609">
        <ele>434.8</ele>
        <time>2020-06-07T06:57:59.000Z</time>
      </trkpt>
      <trkpt lat="45.85441" lon="4.81607">
        <ele>434.9</ele>
        <time>2020-06-07T06:58:00.000Z</time>
      </trkpt>
      <trkpt lat="45.85442" lon="4.81605">
        <ele>435</ele>
        <time>2020-06-07T06:58:01.000Z</time>
      </trkpt>
      <trkpt lat="45.85443" lon="4.81604">
        <ele>435.1</ele>
        <time>2020-06-07T06:58:02.000Z</time>
      </trkpt>
      <trkpt lat="45.85444" lon="4.81602">
        <ele>435.2</ele>
        <time>2020-06-07T06:58:03.000Z</time>
      </trkpt>
      <trkpt lat="45.85446" lon="4.81601">
        <ele>435.2</ele>
        <time>2020-06-07T06:58:04.000Z</time>
      </trkpt>
      <trkpt lat="45.85447" lon="4.81599">
        <ele>435.3</ele>
        <time>2020-06-07T06:58:05.000Z</time>
      </trkpt>
      <trkpt lat="45.85449" lon="4.81597">
        <ele>435.3</ele>
        <time>2020-06-07T06:58:06.000Z</time>
      </trkpt>
      <trkpt lat="45.8545" lon="4.81595">
        <ele>435.4</ele>
        <time>2020-06-07T06:58:07.000Z</time>
      </trkpt>
      <trkpt lat="45.85451" lon="4.81592">
        <ele>435.4</ele>
        <time>2020-06-07T06:58:08.000Z</time>
      </trkpt>
      <trkpt lat="45.85452" lon="4.81589">
        <ele>435.4</ele>
        <time>2020-06-07T06:58:09.000Z</time>
      </trkpt>
      <trkpt lat="45.85453" lon="4.81587">
        <ele>435.5</ele>
        <time>2020-06-07T06:58:10.000Z</time>
      </trkpt>
      <trkpt lat="45.85453" lon="4.81584">
        <ele>435.6</ele>
        <time>2020-06-07T06:58:11.000Z</time>
      </trkpt>
      <trkpt lat="45.85454" lon="4.81582">
        <ele>435.6</ele>
        <time>2020-06-07T06:58:12.000Z</time>
      </trkpt>
      <trkpt lat="45.85454" lon="4.8158">
        <ele>435.6</ele>
        <time>2020-06-07T06:58:13.000Z</time>
      </trkpt>
      <trkpt lat="45.85455" lon="4.81578">
        <ele>435.6</ele>
        <time>2020-06-07T06:58:14.000Z</time>
      </trkpt>
      <trkpt lat="45.85455" lon="4.81576">
        <ele>435.7</ele>
        <time>2020-06-07T06:58:15.000Z</time>
      </trkpt>
      <trkpt lat="45.85455" lon="4.81574">
        <ele>435.7</ele>
        <time>2020-06-07T06:58:16.000Z</time>
      </trkpt>
      <trkpt lat="45.85456" lon="4.81572">
        <ele>435.7</ele>
        <time>2020-06-07T06:58:17.000Z</time>
      </trkpt>
      <trkpt lat="45.85456" lon="4.8157">
        <ele>435.8</ele>
        <time>2020-06-07T06:58:18.000Z</time>
      </trkpt>
      <trkpt lat="45.85457" lon="4.81566">
        <ele>435.8</ele>
        <time>2020-06-07T06:58:19.000Z</time>
      </trkpt>
      <trkpt lat="45.85457" lon="4.81563">
        <ele>435.8</ele>
        <time>2020-06-07T06:58:20.000Z</time>
      </trkpt>
      <trkpt lat="45.85457" lon="4.81561">
        <ele>435.8</ele>
        <time>2020-06-07T06:58:21.000Z</time>
      </trkpt>
      <trkpt lat="45.85459" lon="4.81558">
        <ele>435.8</ele>
        <time>2020-06-07T06:58:22.000Z</time>
      </trkpt>
      <trkpt lat="45.8546" lon="4.81555">
        <ele>435.8</ele>
        <time>2020-06-07T06:58:23.000Z</time>
      </trkpt>
      <trkpt lat="45.85462" lon="4.81553">
        <ele>435.8</ele>
        <time>2020-06-07T06:58:24.000Z</time>
      </trkpt>
      <trkpt lat="45.85465" lon="4.8155">
        <ele>435.7</ele>
        <time>2020-06-07T06:58:25.000Z</time>
      </trkpt>
      <trkpt lat="45.85467" lon="4.81546">
        <ele>435.7</ele>
        <time>2020-06-07T06:58:26.000Z</time>
      </trkpt>
      <trkpt lat="45.85469" lon="4.81542">
        <ele>435.6</ele>
        <time>2020-06-07T06:58:27.000Z</time>
      </trkpt>
      <trkpt lat="45.85471" lon="4.81538">
        <ele>435.6</ele>
        <time>2020-06-07T06:58:28.000Z</time>
      </trkpt>
      <trkpt lat="45.85471" lon="4.81534">
        <ele>435.5</ele>
        <time>2020-06-07T06:58:29.000Z</time>
      </trkpt>
      <trkpt lat="45.85472" lon="4.8153">
        <ele>435.5</ele>
        <time>2020-06-07T06:58:30.000Z</time>
      </trkpt>
      <trkpt lat="45.85472" lon="4.81525">
        <ele>435.5</ele>
        <time>2020-06-07T06:58:31.000Z</time>
      </trkpt>
      <trkpt lat="45.85473" lon="4.81521">
        <ele>435.4</ele>
        <time>2020-06-07T06:58:32.000Z</time>
      </trkpt>
      <trkpt lat="45.85473" lon="4.81517">
        <ele>435.4</ele>
        <time>2020-06-07T06:58:33.000Z</time>
      </trkpt>
      <trkpt lat="45.85473" lon="4.81513">
        <ele>435.4</ele>
        <time>2020-06-07T06:58:34.000Z</time>
      </trkpt>
      <trkpt lat="45.85473" lon="4.81509">
        <ele>435.4</ele>
        <time>2020-06-07T06:58:35.000Z</time>
      </trkpt>
      <trkpt lat="45.85473" lon="4.81505">
        <ele>435.4</ele>
        <time>2020-06-07T06:58:36.000Z</time>
      </trkpt>
      <trkpt lat="45.85472" lon="4.81502">
        <ele>435.4</ele>
        <time>2020-06-07T06:58:37.000Z</time>
      </trkpt>
      <trkpt lat="45.85472" lon="4.81498">
        <ele>435.4</ele>
        <time>2020-06-07T06:58:38.000Z</time>
      </trkpt>
      <trkpt lat="45.85471" lon="4.81494">
        <ele>435.4</ele>
        <time>2020-06-07T06:58:39.000Z</time>
      </trkpt>
      <trkpt lat="45.85471" lon="4.81491">
        <ele>435.4</ele>
        <time>2020-06-07T06:58:40.000Z</time>
      </trkpt>
      <trkpt lat="45.8547" lon="4.81487">
        <ele>435.4</ele>
        <time>2020-06-07T06:58:41.000Z</time>
      </trkpt>
      <trkpt lat="45.8547" lon="4.81483">
        <ele>435.4</ele>
        <time>2020-06-07T06:58:42.000Z</time>
      </trkpt>
      <trkpt lat="45.85469" lon="4.81481">
        <ele>435.4</ele>
        <time>2020-06-07T06:58:43.000Z</time>
      </trkpt>
      <trkpt lat="45.85469" lon="4.81479">
        <ele>435.4</ele>
        <time>2020-06-07T06:58:44.000Z</time>
      </trkpt>
      <trkpt lat="45.85469" lon="4.81475">
        <ele>435.4</ele>
        <time>2020-06-07T06:58:45.000Z</time>
      </trkpt>
      <trkpt lat="45.85468" lon="4.81471">
        <ele>435.4</ele>
        <time>2020-06-07T06:58:46.000Z</time>
      </trkpt>
      <trkpt lat="45.85467" lon="4.81467">
        <ele>435.4</ele>
        <time>2020-06-07T06:58:47.000Z</time>
      </trkpt>
      <trkpt lat="45.85466" lon="4.81463">
        <ele>435.4</ele>
        <time>2020-06-07T06:58:48.000Z</time>
      </trkpt>
      <trkpt lat="45.85465" lon="4.81459">
        <ele>435.5</ele>
        <time>2020-06-07T06:58:49.000Z</time>
      </trkpt>
      <trkpt lat="45.85465" lon="4.81455">
        <ele>435.5</ele>
        <time>2020-06-07T06:58:50.000Z</time>
      </trkpt>
      <trkpt lat="45.85465" lon="4.81451">
        <ele>435.6</ele>
        <time>2020-06-07T06:58:51.000Z</time>
      </trkpt>
      <trkpt lat="45.85465" lon="4.81447">
        <ele>435.7</ele>
        <time>2020-06-07T06:58:52.000Z</time>
      </trkpt>
      <trkpt lat="45.85464" lon="4.81444">
        <ele>435.8</ele>
        <time>2020-06-07T06:58:53.000Z</time>
      </trkpt>
      <trkpt lat="45.85464" lon="4.8144">
        <ele>435.9</ele>
        <time>2020-06-07T06:58:54.000Z</time>
      </trkpt>
      <trkpt lat="45.85464" lon="4.81435">
        <ele>436</ele>
        <time>2020-06-07T06:58:55.000Z</time>
      </trkpt>
      <trkpt lat="45.85464" lon="4.81431">
        <ele>436.1</ele>
        <time>2020-06-07T06:58:56.000Z</time>
      </trkpt>
      <trkpt lat="45.85463" lon="4.81426">
        <ele>436.2</ele>
        <time>2020-06-07T06:58:57.000Z</time>
      </trkpt>
      <trkpt lat="45.85464" lon="4.81422">
        <ele>436.3</ele>
        <time>2020-06-07T06:58:58.000Z</time>
      </trkpt>
      <trkpt lat="45.85464" lon="4.81417">
        <ele>436.4</ele>
        <time>2020-06-07T06:58:59.000Z</time>
      </trkpt>
      <trkpt lat="45.85464" lon="4.81412">
        <ele>436.5</ele>
        <time>2020-06-07T06:59:00.000Z</time>
      </trkpt>
      <trkpt lat="45.85463" lon="4.81408">
        <ele>436.7</ele>
        <time>2020-06-07T06:59:01.000Z</time>
      </trkpt>
      <trkpt lat="45.85462" lon="4.81404">
        <ele>436.8</ele>
        <time>2020-06-07T06:59:02.000Z</time>
      </trkpt>
      <trkpt lat="45.85462" lon="4.814">
        <ele>437</ele>
        <time>2020-06-07T06:59:03.000Z</time>
      </trkpt>
      <trkpt lat="45.85461" lon="4.81396">
        <ele>437.1</ele>
        <time>2020-06-07T06:59:04.000Z</time>
      </trkpt>
      <trkpt lat="45.85462" lon="4.81391">
        <ele>437.2</ele>
        <time>2020-06-07T06:59:05.000Z</time>
      </trkpt>
      <trkpt lat="45.85462" lon="4.81387">
        <ele>437.3</ele>
        <time>2020-06-07T06:59:06.000Z</time>
      </trkpt>
      <trkpt lat="45.85463" lon="4.81382">
        <ele>437.5</ele>
        <time>2020-06-07T06:59:07.000Z</time>
      </trkpt>
      <trkpt lat="45.85464" lon="4.81376">
        <ele>437.6</ele>
        <time>2020-06-07T06:59:08.000Z</time>
      </trkpt>
      <trkpt lat="45.85464" lon="4.81371">
        <ele>437.7</ele>
        <time>2020-06-07T06:59:09.000Z</time>
      </trkpt>
      <trkpt lat="45.85464" lon="4.81366">
        <ele>437.9</ele>
        <time>2020-06-07T06:59:10.000Z</time>
      </trkpt>
      <trkpt lat="45.85465" lon="4.81361">
        <ele>438</ele>
        <time>2020-06-07T06:59:11.000Z</time>
      </trkpt>
      <trkpt lat="45.85466" lon="4.81356">
        <ele>438</ele>
        <time>2020-06-07T06:59:12.000Z</time>
      </trkpt>
      <trkpt lat="45.85468" lon="4.81351">
        <ele>438.1</ele>
        <time>2020-06-07T06:59:13.000Z</time>
      </trkpt>
      <trkpt lat="45.85469" lon="4.81346">
        <ele>438.2</ele>
        <time>2020-06-07T06:59:14.000Z</time>
      </trkpt>
      <trkpt lat="45.8547" lon="4.81342">
        <ele>438.3</ele>
        <time>2020-06-07T06:59:15.000Z</time>
      </trkpt>
      <trkpt lat="45.85471" lon="4.81338">
        <ele>438.3</ele>
        <time>2020-06-07T06:59:16.000Z</time>
      </trkpt>
      <trkpt lat="45.85473" lon="4.81334">
        <ele>438.4</ele>
        <time>2020-06-07T06:59:17.000Z</time>
      </trkpt>
      <trkpt lat="45.85475" lon="4.8133">
        <ele>438.5</ele>
        <time>2020-06-07T06:59:18.000Z</time>
      </trkpt>
      <trkpt lat="45.85478" lon="4.81326">
        <ele>438.6</ele>
        <time>2020-06-07T06:59:19.000Z</time>
      </trkpt>
      <trkpt lat="45.8548" lon="4.81323">
        <ele>438.7</ele>
        <time>2020-06-07T06:59:20.000Z</time>
      </trkpt>
      <trkpt lat="45.85483" lon="4.8132">
        <ele>438.8</ele>
        <time>2020-06-07T06:59:21.000Z</time>
      </trkpt>
      <trkpt lat="45.85485" lon="4.81316">
        <ele>438.9</ele>
        <time>2020-06-07T06:59:22.000Z</time>
      </trkpt>
      <trkpt lat="45.85487" lon="4.81312">
        <ele>439</ele>
        <time>2020-06-07T06:59:23.000Z</time>
      </trkpt>
      <trkpt lat="45.8549" lon="4.81309">
        <ele>439.1</ele>
        <time>2020-06-07T06:59:24.000Z</time>
      </trkpt>
      <trkpt lat="45.85492" lon="4.81305">
        <ele>439.2</ele>
        <time>2020-06-07T06:59:25.000Z</time>
      </trkpt>
      <trkpt lat="45.85493" lon="4.81301">
        <ele>439.3</ele>
        <time>2020-06-07T06:59:26.000Z</time>
      </trkpt>
      <trkpt lat="45.85494" lon="4.81297">
        <ele>439.3</ele>
        <time>2020-06-07T06:59:27.000Z</time>
      </trkpt>
      <trkpt lat="45.85494" lon="4.81293">
        <ele>439.4</ele>
        <time>2020-06-07T06:59:28.000Z</time>
      </trkpt>
      <trkpt lat="45.85494" lon="4.8129">
        <ele>439.4</ele>
        <time>2020-06-07T06:59:29.000Z</time>
      </trkpt>
      <trkpt lat="45.85494" lon="4.81287">
        <ele>440</ele>
        <time>2020-06-07T06:59:30.000Z</time>
      </trkpt>
      <trkpt lat="45.85493" lon="4.81286">
        <ele>440.1</ele>
        <time>2020-06-07T06:59:31.000Z</time>
      </trkpt>
      <trkpt lat="45.85492" lon="4.81284">
        <ele>440.1</ele>
        <time>2020-06-07T06:59:32.000Z</time>
      </trkpt>
      <trkpt lat="45.85492" lon="4.81283">
        <ele>440.2</ele>
        <time>2020-06-07T06:59:33.000Z</time>
      </trkpt>
      <trkpt lat="45.85491" lon="4.81283">
        <ele>440.2</ele>
        <time>2020-06-07T06:59:34.000Z</time>
      </trkpt>
      <trkpt lat="45.8549" lon="4.81282">
        <ele>440.4</ele>
        <time>2020-06-07T06:59:35.000Z</time>
      </trkpt>
      <trkpt lat="45.8549" lon="4.81281">
        <ele>440.4</ele>
        <time>2020-06-07T06:59:36.000Z</time>
      </trkpt>
      <trkpt lat="45.85489" lon="4.8128">
        <ele>440.5</ele>
        <time>2020-06-07T06:59:37.000Z</time>
      </trkpt>
      <trkpt lat="45.85488" lon="4.81279">
        <ele>440.6</ele>
        <time>2020-06-07T06:59:38.000Z</time>
      </trkpt>
      <trkpt lat="45.85487" lon="4.81279">
        <ele>440.6</ele>
        <time>2020-06-07T06:59:39.000Z</time>
      </trkpt>
      <trkpt lat="45.85487" lon="4.81278">
        <ele>440.7</ele>
        <time>2020-06-07T06:59:40.000Z</time>
      </trkpt>
      <trkpt lat="45.85486" lon="4.81277">
        <ele>440.7</ele>
        <time>2020-06-07T06:59:41.000Z</time>
      </trkpt>
      <trkpt lat="45.85486" lon="4.81276">
        <ele>440.8</ele>
        <time>2020-06-07T06:59:42.000Z</time>
      </trkpt>
      <trkpt lat="45.85485" lon="4.81274">
        <ele>440.9</ele>
        <time>2020-06-07T06:59:43.000Z</time>
      </trkpt>
      <trkpt lat="45.85483" lon="4.81272">
        <ele>441.1</ele>
        <time>2020-06-07T06:59:44.000Z</time>
      </trkpt>
      <trkpt lat="45.85482" lon="4.81271">
        <ele>441.2</ele>
        <time>2020-06-07T06:59:45.000Z</time>
      </trkpt>
      <trkpt lat="45.85481" lon="4.8127">
        <ele>441.3</ele>
        <time>2020-06-07T06:59:46.000Z</time>
      </trkpt>
      <trkpt lat="45.8548" lon="4.81269">
        <ele>441.4</ele>
        <time>2020-06-07T06:59:47.000Z</time>
      </trkpt>
      <trkpt lat="45.85478" lon="4.81268">
        <ele>441.5</ele>
        <time>2020-06-07T06:59:48.000Z</time>
      </trkpt>
      <trkpt lat="45.85477" lon="4.81267">
        <ele>441.6</ele>
        <time>2020-06-07T06:59:49.000Z</time>
      </trkpt>
      <trkpt lat="45.85475" lon="4.81266">
        <ele>441.7</ele>
        <time>2020-06-07T06:59:50.000Z</time>
      </trkpt>
      <trkpt lat="45.85474" lon="4.81265">
        <ele>441.8</ele>
        <time>2020-06-07T06:59:51.000Z</time>
      </trkpt>
      <trkpt lat="45.85472" lon="4.81264">
        <ele>442</ele>
        <time>2020-06-07T06:59:52.000Z</time>
      </trkpt>
      <trkpt lat="45.85471" lon="4.81263">
        <ele>442.1</ele>
        <time>2020-06-07T06:59:53.000Z</time>
      </trkpt>
      <trkpt lat="45.85468" lon="4.81262">
        <ele>442.3</ele>
        <time>2020-06-07T06:59:54.000Z</time>
      </trkpt>
      <trkpt lat="45.85467" lon="4.81261">
        <ele>442.4</ele>
        <time>2020-06-07T06:59:55.000Z</time>
      </trkpt>
      <trkpt lat="45.85466" lon="4.8126">
        <ele>442.5</ele>
        <time>2020-06-07T06:59:56.000Z</time>
      </trkpt>
      <trkpt lat="45.85464" lon="4.81259">
        <ele>442.7</ele>
        <time>2020-06-07T06:59:57.000Z</time>
      </trkpt>
      <trkpt lat="45.85462" lon="4.81258">
        <ele>442.9</ele>
        <time>2020-06-07T06:59:58.000Z</time>
      </trkpt>
      <trkpt lat="45.8546" lon="4.81257">
        <ele>443.1</ele>
        <time>2020-06-07T06:59:59.000Z</time>
      </trkpt>
      <trkpt lat="45.85458" lon="4.81256">
        <ele>443.3</ele>
        <time>2020-06-07T07:00:00.000Z</time>
      </trkpt>
      <trkpt lat="45.85456" lon="4.81255">
        <ele>443.4</ele>
        <time>2020-06-07T07:00:01.000Z</time>
      </trkpt>
      <trkpt lat="45.85454" lon="4.81254">
        <ele>443.6</ele>
        <time>2020-06-07T07:00:02.000Z</time>
      </trkpt>
      <trkpt lat="45.85452" lon="4.81253">
        <ele>443.7</ele>
        <time>2020-06-07T07:00:03.000Z</time>
      </trkpt>
      <trkpt lat="45.8545" lon="4.81251">
        <ele>443.9</ele>
        <time>2020-06-07T07:00:04.000Z</time>
      </trkpt>
      <trkpt lat="45.85448" lon="4.8125">
        <ele>444.2</ele>
        <time>2020-06-07T07:00:05.000Z</time>
      </trkpt>
      <trkpt lat="45.85445" lon="4.81248">
        <ele>444.4</ele>
        <time>2020-06-07T07:00:06.000Z</time>
      </trkpt>
      <trkpt lat="45.85443" lon="4.81247">
        <ele>444.6</ele>
        <time>2020-06-07T07:00:07.000Z</time>
      </trkpt>
      <trkpt lat="45.8544" lon="4.81245">
        <ele>444.9</ele>
        <time>2020-06-07T07:00:08.000Z</time>
      </trkpt>
      <trkpt lat="45.85437" lon="4.81244">
        <ele>445.2</ele>
        <time>2020-06-07T07:00:09.000Z</time>
      </trkpt>
      <trkpt lat="45.85435" lon="4.81242">
        <ele>445.4</ele>
        <time>2020-06-07T07:00:10.000Z</time>
      </trkpt>
      <trkpt lat="45.85433" lon="4.81241">
        <ele>445.6</ele>
        <time>2020-06-07T07:00:11.000Z</time>
      </trkpt>
      <trkpt lat="45.85431" lon="4.8124">
        <ele>445.8</ele>
        <time>2020-06-07T07:00:12.000Z</time>
      </trkpt>
      <trkpt lat="45.85429" lon="4.81239">
        <ele>446</ele>
        <time>2020-06-07T07:00:13.000Z</time>
      </trkpt>
      <trkpt lat="45.85427" lon="4.81238">
        <ele>446.1</ele>
        <time>2020-06-07T07:00:14.000Z</time>
      </trkpt>
      <trkpt lat="45.85425" lon="4.81237">
        <ele>446.4</ele>
        <time>2020-06-07T07:00:15.000Z</time>
      </trkpt>
      <trkpt lat="45.85423" lon="4.81236">
        <ele>446.6</ele>
        <time>2020-06-07T07:00:16.000Z</time>
      </trkpt>
      <trkpt lat="45.85421" lon="4.81234">
        <ele>446.8</ele>
        <time>2020-06-07T07:00:17.000Z</time>
      </trkpt>
      <trkpt lat="45.85419" lon="4.81233">
        <ele>447</ele>
        <time>2020-06-07T07:00:18.000Z</time>
      </trkpt>
      <trkpt lat="45.85417" lon="4.81232">
        <ele>447.2</ele>
        <time>2020-06-07T07:00:19.000Z</time>
      </trkpt>
      <trkpt lat="45.85416" lon="4.8123">
        <ele>447.3</ele>
        <time>2020-06-07T07:00:20.000Z</time>
      </trkpt>
      <trkpt lat="45.85415" lon="4.81229">
        <ele>447.5</ele>
        <time>2020-06-07T07:00:21.000Z</time>
      </trkpt>
      <trkpt lat="45.85414" lon="4.81228">
        <ele>447.6</ele>
        <time>2020-06-07T07:00:22.000Z</time>
      </trkpt>
      <trkpt lat="45.85413" lon="4.81227">
        <ele>447.7</ele>
        <time>2020-06-07T07:00:23.000Z</time>
      </trkpt>
      <trkpt lat="45.85411" lon="4.81226">
        <ele>447.8</ele>
        <time>2020-06-07T07:00:24.000Z</time>
      </trkpt>
      <trkpt lat="45.85409" lon="4.81225">
        <ele>448</ele>
        <time>2020-06-07T07:00:25.000Z</time>
      </trkpt>
      <trkpt lat="45.85408" lon="4.81225">
        <ele>448.2</ele>
        <time>2020-06-07T07:00:26.000Z</time>
      </trkpt>
      <trkpt lat="45.85406" lon="4.81224">
        <ele>448.3</ele>
        <time>2020-06-07T07:00:27.000Z</time>
      </trkpt>
      <trkpt lat="45.85405" lon="4.81223">
        <ele>448.5</ele>
        <time>2020-06-07T07:00:28.000Z</time>
      </trkpt>
      <trkpt lat="45.85403" lon="4.81222">
        <ele>448.6</ele>
        <time>2020-06-07T07:00:29.000Z</time>
      </trkpt>
      <trkpt lat="45.85401" lon="4.81221">
        <ele>448.8</ele>
        <time>2020-06-07T07:00:30.000Z</time>
      </trkpt>
      <trkpt lat="45.85399" lon="4.8122">
        <ele>449</ele>
        <time>2020-06-07T07:00:31.000Z</time>
      </trkpt>
      <trkpt lat="45.85399" lon="4.81219">
        <ele>449.1</ele>
        <time>2020-06-07T07:00:32.000Z</time>
      </trkpt>
      <trkpt lat="45.85397" lon="4.81218">
        <ele>449.3</ele>
        <time>2020-06-07T07:00:33.000Z</time>
      </trkpt>
      <trkpt lat="45.85395" lon="4.81217">
        <ele>449.4</ele>
        <time>2020-06-07T07:00:34.000Z</time>
      </trkpt>
      <trkpt lat="45.85394" lon="4.81216">
        <ele>449.6</ele>
        <time>2020-06-07T07:00:35.000Z</time>
      </trkpt>
      <trkpt lat="45.85392" lon="4.81215">
        <ele>449.7</ele>
        <time>2020-06-07T07:00:36.000Z</time>
      </trkpt>
      <trkpt lat="45.8539" lon="4.81214">
        <ele>449.9</ele>
        <time>2020-06-07T07:00:37.000Z</time>
      </trkpt>
      <trkpt lat="45.85388" lon="4.81213">
        <ele>450.1</ele>
        <time>2020-06-07T07:00:38.000Z</time>
      </trkpt>
      <trkpt lat="45.85386" lon="4.81212">
        <ele>450.4</ele>
        <time>2020-06-07T07:00:39.000Z</time>
      </trkpt>
      <trkpt lat="45.85383" lon="4.8121">
        <ele>450.6</ele>
        <time>2020-06-07T07:00:40.000Z</time>
      </trkpt>
      <trkpt lat="45.85381" lon="4.81208">
        <ele>450.9</ele>
        <time>2020-06-07T07:00:41.000Z</time>
      </trkpt>
      <trkpt lat="45.85379" lon="4.81207">
        <ele>451.1</ele>
        <time>2020-06-07T07:00:42.000Z</time>
      </trkpt>
      <trkpt lat="45.85376" lon="4.81205">
        <ele>451.3</ele>
        <time>2020-06-07T07:00:43.000Z</time>
      </trkpt>
      <trkpt lat="45.85374" lon="4.81203">
        <ele>451.6</ele>
        <time>2020-06-07T07:00:44.000Z</time>
      </trkpt>
      <trkpt lat="45.85372" lon="4.81202">
        <ele>451.8</ele>
        <time>2020-06-07T07:00:45.000Z</time>
      </trkpt>
      <trkpt lat="45.85369" lon="4.812">
        <ele>452.1</ele>
        <time>2020-06-07T07:00:46.000Z</time>
      </trkpt>
      <trkpt lat="45.85367" lon="4.81199">
        <ele>452.3</ele>
        <time>2020-06-07T07:00:47.000Z</time>
      </trkpt>
      <trkpt lat="45.85366" lon="4.81197">
        <ele>452.5</ele>
        <time>2020-06-07T07:00:48.000Z</time>
      </trkpt>
      <trkpt lat="45.85364" lon="4.81196">
        <ele>452.6</ele>
        <time>2020-06-07T07:00:49.000Z</time>
      </trkpt>
      <trkpt lat="45.85363" lon="4.81194">
        <ele>452.8</ele>
        <time>2020-06-07T07:00:50.000Z</time>
      </trkpt>
      <trkpt lat="45.85362" lon="4.81192">
        <ele>453</ele>
        <time>2020-06-07T07:00:51.000Z</time>
      </trkpt>
      <trkpt lat="45.85359" lon="4.8119">
        <ele>453.3</ele>
        <time>2020-06-07T07:00:52.000Z</time>
      </trkpt>
      <trkpt lat="45.85357" lon="4.81188">
        <ele>453.5</ele>
        <time>2020-06-07T07:00:53.000Z</time>
      </trkpt>
      <trkpt lat="45.85355" lon="4.81186">
        <ele>453.7</ele>
        <time>2020-06-07T07:00:54.000Z</time>
      </trkpt>
      <trkpt lat="45.85353" lon="4.81184">
        <ele>453.9</ele>
        <time>2020-06-07T07:00:55.000Z</time>
      </trkpt>
      <trkpt lat="45.8535" lon="4.81181">
        <ele>454.3</ele>
        <time>2020-06-07T07:00:56.000Z</time>
      </trkpt>
      <trkpt lat="45.85347" lon="4.81179">
        <ele>454.5</ele>
        <time>2020-06-07T07:00:57.000Z</time>
      </trkpt>
      <trkpt lat="45.85345" lon="4.81176">
        <ele>454.8</ele>
        <time>2020-06-07T07:00:58.000Z</time>
      </trkpt>
      <trkpt lat="45.85342" lon="4.81174">
        <ele>455.1</ele>
        <time>2020-06-07T07:00:59.000Z</time>
      </trkpt>
      <trkpt lat="45.8534" lon="4.81171">
        <ele>455.3</ele>
        <time>2020-06-07T07:01:00.000Z</time>
      </trkpt>
      <trkpt lat="45.85337" lon="4.81169">
        <ele>455.6</ele>
        <time>2020-06-07T07:01:01.000Z</time>
      </trkpt>
      <trkpt lat="45.85333" lon="4.81166">
        <ele>455.9</ele>
        <time>2020-06-07T07:01:02.000Z</time>
      </trkpt>
      <trkpt lat="45.85331" lon="4.81164">
        <ele>456.1</ele>
        <time>2020-06-07T07:01:03.000Z</time>
      </trkpt>
      <trkpt lat="45.85327" lon="4.81161">
        <ele>456.5</ele>
        <time>2020-06-07T07:01:04.000Z</time>
      </trkpt>
      <trkpt lat="45.85324" lon="4.81158">
        <ele>456.7</ele>
        <time>2020-06-07T07:01:05.000Z</time>
      </trkpt>
      <trkpt lat="45.85322" lon="4.81155">
        <ele>457</ele>
        <time>2020-06-07T07:01:06.000Z</time>
      </trkpt>
      <trkpt lat="45.85319" lon="4.81153">
        <ele>457.2</ele>
        <time>2020-06-07T07:01:07.000Z</time>
      </trkpt>
      <trkpt lat="45.85317" lon="4.81151">
        <ele>457.4</ele>
        <time>2020-06-07T07:01:08.000Z</time>
      </trkpt>
      <trkpt lat="45.85316" lon="4.81149">
        <ele>457.6</ele>
        <time>2020-06-07T07:01:09.000Z</time>
      </trkpt>
      <trkpt lat="45.85314" lon="4.81147">
        <ele>457.8</ele>
        <time>2020-06-07T07:01:10.000Z</time>
      </trkpt>
      <trkpt lat="45.85312" lon="4.81145">
        <ele>458</ele>
        <time>2020-06-07T07:01:11.000Z</time>
      </trkpt>
      <trkpt lat="45.8531" lon="4.81143">
        <ele>458.2</ele>
        <time>2020-06-07T07:01:12.000Z</time>
      </trkpt>
      <trkpt lat="45.85309" lon="4.81142">
        <ele>458.3</ele>
        <time>2020-06-07T07:01:13.000Z</time>
      </trkpt>
      <trkpt lat="45.85308" lon="4.81141">
        <ele>458.4</ele>
        <time>2020-06-07T07:01:14.000Z</time>
      </trkpt>
      <trkpt lat="45.85307" lon="4.81139">
        <ele>458.6</ele>
        <time>2020-06-07T07:01:15.000Z</time>
      </trkpt>
      <trkpt lat="45.85306" lon="4.81138">
        <ele>458.7</ele>
        <time>2020-06-07T07:01:16.000Z</time>
      </trkpt>
      <trkpt lat="45.85305" lon="4.81136">
        <ele>458.8</ele>
        <time>2020-06-07T07:01:17.000Z</time>
      </trkpt>
      <trkpt lat="45.85303" lon="4.81134">
        <ele>459</ele>
        <time>2020-06-07T07:01:18.000Z</time>
      </trkpt>
      <trkpt lat="45.85302" lon="4.81133">
        <ele>459.1</ele>
        <time>2020-06-07T07:01:19.000Z</time>
      </trkpt>
      <trkpt lat="45.853" lon="4.81132">
        <ele>459.3</ele>
        <time>2020-06-07T07:01:20.000Z</time>
      </trkpt>
      <trkpt lat="45.85298" lon="4.8113">
        <ele>459.5</ele>
        <time>2020-06-07T07:01:21.000Z</time>
      </trkpt>
      <trkpt lat="45.85297" lon="4.81128">
        <ele>459.7</ele>
        <time>2020-06-07T07:01:22.000Z</time>
      </trkpt>
      <trkpt lat="45.85295" lon="4.81127">
        <ele>459.8</ele>
        <time>2020-06-07T07:01:23.000Z</time>
      </trkpt>
      <trkpt lat="45.85294" lon="4.81125">
        <ele>460</ele>
        <time>2020-06-07T07:01:24.000Z</time>
      </trkpt>
      <trkpt lat="45.85291" lon="4.81122">
        <ele>460.3</ele>
        <time>2020-06-07T07:01:25.000Z</time>
      </trkpt>
      <trkpt lat="45.8529" lon="4.81121">
        <ele>460.5</ele>
        <time>2020-06-07T07:01:26.000Z</time>
      </trkpt>
      <trkpt lat="45.85288" lon="4.81119">
        <ele>460.7</ele>
        <time>2020-06-07T07:01:27.000Z</time>
      </trkpt>
      <trkpt lat="45.85285" lon="4.81116">
        <ele>461</ele>
        <time>2020-06-07T07:01:28.000Z</time>
      </trkpt>
      <trkpt lat="45.85284" lon="4.81115">
        <ele>461.2</ele>
        <time>2020-06-07T07:01:29.000Z</time>
      </trkpt>
      <trkpt lat="45.85281" lon="4.81113">
        <ele>461.4</ele>
        <time>2020-06-07T07:01:30.000Z</time>
      </trkpt>
      <trkpt lat="45.8528" lon="4.8111">
        <ele>461.6</ele>
        <time>2020-06-07T07:01:31.000Z</time>
      </trkpt>
      <trkpt lat="45.85279" lon="4.81109">
        <ele>461.8</ele>
        <time>2020-06-07T07:01:32.000Z</time>
      </trkpt>
      <trkpt lat="45.85278" lon="4.81107">
        <ele>461.9</ele>
        <time>2020-06-07T07:01:33.000Z</time>
      </trkpt>
      <trkpt lat="45.85276" lon="4.81106">
        <ele>462.1</ele>
        <time>2020-06-07T07:01:34.000Z</time>
      </trkpt>
      <trkpt lat="45.85275" lon="4.81104">
        <ele>462.3</ele>
        <time>2020-06-07T07:01:35.000Z</time>
      </trkpt>
      <trkpt lat="45.85274" lon="4.81102">
        <ele>462.4</ele>
        <time>2020-06-07T07:01:36.000Z</time>
      </trkpt>
      <trkpt lat="45.85273" lon="4.811">
        <ele>462.5</ele>
        <time>2020-06-07T07:01:37.000Z</time>
      </trkpt>
      <trkpt lat="45.85271" lon="4.81098">
        <ele>462.7</ele>
        <time>2020-06-07T07:01:38.000Z</time>
      </trkpt>
      <trkpt lat="45.8527" lon="4.81097">
        <ele>462.8</ele>
        <time>2020-06-07T07:01:39.000Z</time>
      </trkpt>
      <trkpt lat="45.85267" lon="4.81093">
        <ele>463.1</ele>
        <time>2020-06-07T07:01:40.000Z</time>
      </trkpt>
      <trkpt lat="45.85267" lon="4.81093">
        <ele>463.1</ele>
        <time>2020-06-07T07:01:41.000Z</time>
      </trkpt>
      <trkpt lat="45.85265" lon="4.81091">
        <ele>463.3</ele>
        <time>2020-06-07T07:01:42.000Z</time>
      </trkpt>
      <trkpt lat="45.85265" lon="4.81089">
        <ele>463.5</ele>
        <time>2020-06-07T07:01:43.000Z</time>
      </trkpt>
      <trkpt lat="45.85264" lon="4.81087">
        <ele>463.6</ele>
        <time>2020-06-07T07:01:44.000Z</time>
      </trkpt>
      <trkpt lat="45.85262" lon="4.81085">
        <ele>463.8</ele>
        <time>2020-06-07T07:01:45.000Z</time>
      </trkpt>
      <trkpt lat="45.8526" lon="4.81083">
        <ele>464</ele>
        <time>2020-06-07T07:01:46.000Z</time>
      </trkpt>
      <trkpt lat="45.85259" lon="4.81081">
        <ele>464.2</ele>
        <time>2020-06-07T07:01:47.000Z</time>
      </trkpt>
      <trkpt lat="45.85257" lon="4.81079">
        <ele>464.4</ele>
        <time>2020-06-07T07:01:48.000Z</time>
      </trkpt>
      <trkpt lat="45.85255" lon="4.81077">
        <ele>464.6</ele>
        <time>2020-06-07T07:01:49.000Z</time>
      </trkpt>
      <trkpt lat="45.85254" lon="4.81075">
        <ele>464.8</ele>
        <time>2020-06-07T07:01:50.000Z</time>
      </trkpt>
      <trkpt lat="45.85252" lon="4.81073">
        <ele>465</ele>
        <time>2020-06-07T07:01:51.000Z</time>
      </trkpt>
      <trkpt lat="45.8525" lon="4.8107">
        <ele>465.2</ele>
        <time>2020-06-07T07:01:52.000Z</time>
      </trkpt>
      <trkpt lat="45.85249" lon="4.81068">
        <ele>465.4</ele>
        <time>2020-06-07T07:01:53.000Z</time>
      </trkpt>
      <trkpt lat="45.85247" lon="4.81066">
        <ele>465.6</ele>
        <time>2020-06-07T07:01:54.000Z</time>
      </trkpt>
      <trkpt lat="45.85246" lon="4.81063">
        <ele>465.8</ele>
        <time>2020-06-07T07:01:55.000Z</time>
      </trkpt>
      <trkpt lat="45.85244" lon="4.81061">
        <ele>466</ele>
        <time>2020-06-07T07:01:56.000Z</time>
      </trkpt>
      <trkpt lat="45.85241" lon="4.81058">
        <ele>466.3</ele>
        <time>2020-06-07T07:01:57.000Z</time>
      </trkpt>
      <trkpt lat="45.85239" lon="4.81056">
        <ele>466.5</ele>
        <time>2020-06-07T07:01:58.000Z</time>
      </trkpt>
      <trkpt lat="45.85238" lon="4.81054">
        <ele>466.6</ele>
        <time>2020-06-07T07:01:59.000Z</time>
      </trkpt>
      <trkpt lat="45.85237" lon="4.81052">
        <ele>466.7</ele>
        <time>2020-06-07T07:02:00.000Z</time>
      </trkpt>
      <trkpt lat="45.85235" lon="4.8105">
        <ele>466.9</ele>
        <time>2020-06-07T07:02:01.000Z</time>
      </trkpt>
      <trkpt lat="45.85234" lon="4.81049">
        <ele>467</ele>
        <time>2020-06-07T07:02:02.000Z</time>
      </trkpt>
      <trkpt lat="45.85233" lon="4.81048">
        <ele>467.1</ele>
        <time>2020-06-07T07:02:03.000Z</time>
      </trkpt>
      <trkpt lat="45.85231" lon="4.81046">
        <ele>467.2</ele>
        <time>2020-06-07T07:02:04.000Z</time>
      </trkpt>
      <trkpt lat="45.8523" lon="4.81045">
        <ele>467.3</ele>
        <time>2020-06-07T07:02:05.000Z</time>
      </trkpt>
      <trkpt lat="45.85228" lon="4.81044">
        <ele>467.3</ele>
        <time>2020-06-07T07:02:06.000Z</time>
      </trkpt>
      <trkpt lat="45.85227" lon="4.81044">
        <ele>467.6</ele>
        <time>2020-06-07T07:02:07.000Z</time>
      </trkpt>
      <trkpt lat="45.85225" lon="4.81042">
        <ele>467.8</ele>
        <time>2020-06-07T07:02:08.000Z</time>
      </trkpt>
      <trkpt lat="45.85222" lon="4.81041">
        <ele>468.1</ele>
        <time>2020-06-07T07:02:09.000Z</time>
      </trkpt>
      <trkpt lat="45.8522" lon="4.81039">
        <ele>468.4</ele>
        <time>2020-06-07T07:02:10.000Z</time>
      </trkpt>
      <trkpt lat="45.85217" lon="4.81038">
        <ele>468.6</ele>
        <time>2020-06-07T07:02:11.000Z</time>
      </trkpt>
      <trkpt lat="45.85214" lon="4.81035">
        <ele>468.9</ele>
        <time>2020-06-07T07:02:12.000Z</time>
      </trkpt>
      <trkpt lat="45.85212" lon="4.81034">
        <ele>469.1</ele>
        <time>2020-06-07T07:02:13.000Z</time>
      </trkpt>
      <trkpt lat="45.8521" lon="4.81033">
        <ele>469.3</ele>
        <time>2020-06-07T07:02:14.000Z</time>
      </trkpt>
      <trkpt lat="45.85208" lon="4.81032">
        <ele>469.5</ele>
        <time>2020-06-07T07:02:15.000Z</time>
      </trkpt>
      <trkpt lat="45.85205" lon="4.81031">
        <ele>469.7</ele>
        <time>2020-06-07T07:02:16.000Z</time>
      </trkpt>
      <trkpt lat="45.85203" lon="4.8103">
        <ele>469.9</ele>
        <time>2020-06-07T07:02:17.000Z</time>
      </trkpt>
      <trkpt lat="45.85202" lon="4.81029">
        <ele>470</ele>
        <time>2020-06-07T07:02:18.000Z</time>
      </trkpt>
      <trkpt lat="45.85201" lon="4.81027">
        <ele>470.2</ele>
        <time>2020-06-07T07:02:19.000Z</time>
      </trkpt>
      <trkpt lat="45.85201" lon="4.81025">
        <ele>470.3</ele>
        <time>2020-06-07T07:02:20.000Z</time>
      </trkpt>
      <trkpt lat="45.85201" lon="4.81023">
        <ele>470.4</ele>
        <time>2020-06-07T07:02:21.000Z</time>
      </trkpt>
      <trkpt lat="45.85198" lon="4.81021">
        <ele>470.7</ele>
        <time>2020-06-07T07:02:22.000Z</time>
      </trkpt>
      <trkpt lat="45.85197" lon="4.8102">
        <ele>470.8</ele>
        <time>2020-06-07T07:02:23.000Z</time>
      </trkpt>
      <trkpt lat="45.85196" lon="4.81018">
        <ele>470.9</ele>
        <time>2020-06-07T07:02:24.000Z</time>
      </trkpt>
      <trkpt lat="45.85195" lon="4.81016">
        <ele>471.1</ele>
        <time>2020-06-07T07:02:25.000Z</time>
      </trkpt>
      <trkpt lat="45.85194" lon="4.81015">
        <ele>471.2</ele>
        <time>2020-06-07T07:02:26.000Z</time>
      </trkpt>
      <trkpt lat="45.85194" lon="4.81013">
        <ele>471.3</ele>
        <time>2020-06-07T07:02:27.000Z</time>
      </trkpt>
      <trkpt lat="45.85192" lon="4.81012">
        <ele>471.4</ele>
        <time>2020-06-07T07:02:28.000Z</time>
      </trkpt>
      <trkpt lat="45.8519" lon="4.8101">
        <ele>471.7</ele>
        <time>2020-06-07T07:02:29.000Z</time>
      </trkpt>
      <trkpt lat="45.85189" lon="4.81009">
        <ele>471.8</ele>
        <time>2020-06-07T07:02:30.000Z</time>
      </trkpt>
      <trkpt lat="45.85188" lon="4.81007">
        <ele>471.9</ele>
        <time>2020-06-07T07:02:31.000Z</time>
      </trkpt>
      <trkpt lat="45.85185" lon="4.81005">
        <ele>472.2</ele>
        <time>2020-06-07T07:02:32.000Z</time>
      </trkpt>
      <trkpt lat="45.85182" lon="4.81003">
        <ele>472.5</ele>
        <time>2020-06-07T07:02:33.000Z</time>
      </trkpt>
      <trkpt lat="45.8518" lon="4.81001">
        <ele>472.8</ele>
        <time>2020-06-07T07:02:34.000Z</time>
      </trkpt>
      <trkpt lat="45.85177" lon="4.80999">
        <ele>473</ele>
        <time>2020-06-07T07:02:35.000Z</time>
      </trkpt>
      <trkpt lat="45.85175" lon="4.80997">
        <ele>473.2</ele>
        <time>2020-06-07T07:02:36.000Z</time>
      </trkpt>
      <trkpt lat="45.85174" lon="4.80995">
        <ele>473.4</ele>
        <time>2020-06-07T07:02:37.000Z</time>
      </trkpt>
      <trkpt lat="45.85172" lon="4.80993">
        <ele>473.6</ele>
        <time>2020-06-07T07:02:38.000Z</time>
      </trkpt>
      <trkpt lat="45.85171" lon="4.80992">
        <ele>473.7</ele>
        <time>2020-06-07T07:02:39.000Z</time>
      </trkpt>
      <trkpt lat="45.85168" lon="4.80989">
        <ele>474</ele>
        <time>2020-06-07T07:02:40.000Z</time>
      </trkpt>
      <trkpt lat="45.85166" lon="4.80988">
        <ele>474.2</ele>
        <time>2020-06-07T07:02:41.000Z</time>
      </trkpt>
      <trkpt lat="45.85162" lon="4.80984">
        <ele>474.6</ele>
        <time>2020-06-07T07:02:42.000Z</time>
      </trkpt>
      <trkpt lat="45.8516" lon="4.80981">
        <ele>474.8</ele>
        <time>2020-06-07T07:02:43.000Z</time>
      </trkpt>
      <trkpt lat="45.85158" lon="4.80978">
        <ele>475.1</ele>
        <time>2020-06-07T07:02:44.000Z</time>
      </trkpt>
      <trkpt lat="45.85157" lon="4.80976">
        <ele>475.3</ele>
        <time>2020-06-07T07:02:45.000Z</time>
      </trkpt>
      <trkpt lat="45.85156" lon="4.80973">
        <ele>475.5</ele>
        <time>2020-06-07T07:02:46.000Z</time>
      </trkpt>
      <trkpt lat="45.85154" lon="4.80971">
        <ele>475.6</ele>
        <time>2020-06-07T07:02:47.000Z</time>
      </trkpt>
      <trkpt lat="45.85152" lon="4.8097">
        <ele>475.8</ele>
        <time>2020-06-07T07:02:48.000Z</time>
      </trkpt>
      <trkpt lat="45.85151" lon="4.80968">
        <ele>476</ele>
        <time>2020-06-07T07:02:49.000Z</time>
      </trkpt>
      <trkpt lat="45.8515" lon="4.80967">
        <ele>476.2</ele>
        <time>2020-06-07T07:02:50.000Z</time>
      </trkpt>
      <trkpt lat="45.85147" lon="4.80964">
        <ele>476.4</ele>
        <time>2020-06-07T07:02:51.000Z</time>
      </trkpt>
      <trkpt lat="45.85146" lon="4.80962">
        <ele>476.7</ele>
        <time>2020-06-07T07:02:52.000Z</time>
      </trkpt>
      <trkpt lat="45.85145" lon="4.80961">
        <ele>476.8</ele>
        <time>2020-06-07T07:02:53.000Z</time>
      </trkpt>
      <trkpt lat="45.85143" lon="4.80959">
        <ele>477.1</ele>
        <time>2020-06-07T07:02:54.000Z</time>
      </trkpt>
      <trkpt lat="45.85141" lon="4.80957">
        <ele>477.3</ele>
        <time>2020-06-07T07:02:55.000Z</time>
      </trkpt>
      <trkpt lat="45.85139" lon="4.80954">
        <ele>477.6</ele>
        <time>2020-06-07T07:02:56.000Z</time>
      </trkpt>
      <trkpt lat="45.85136" lon="4.80952">
        <ele>477.9</ele>
        <time>2020-06-07T07:02:57.000Z</time>
      </trkpt>
      <trkpt lat="45.85133" lon="4.8095">
        <ele>478.2</ele>
        <time>2020-06-07T07:02:58.000Z</time>
      </trkpt>
      <trkpt lat="45.85131" lon="4.80948">
        <ele>478.5</ele>
        <time>2020-06-07T07:02:59.000Z</time>
      </trkpt>
      <trkpt lat="45.85128" lon="4.80946">
        <ele>478.8</ele>
        <time>2020-06-07T07:03:00.000Z</time>
      </trkpt>
      <trkpt lat="45.85126" lon="4.80943">
        <ele>479</ele>
        <time>2020-06-07T07:03:01.000Z</time>
      </trkpt>
      <trkpt lat="45.85124" lon="4.80941">
        <ele>479.2</ele>
        <time>2020-06-07T07:03:02.000Z</time>
      </trkpt>
      <trkpt lat="45.85123" lon="4.8094">
        <ele>479.4</ele>
        <time>2020-06-07T07:03:03.000Z</time>
      </trkpt>
      <trkpt lat="45.85122" lon="4.80938">
        <ele>479.5</ele>
        <time>2020-06-07T07:03:04.000Z</time>
      </trkpt>
      <trkpt lat="45.85121" lon="4.80936">
        <ele>479.6</ele>
        <time>2020-06-07T07:03:05.000Z</time>
      </trkpt>
      <trkpt lat="45.85121" lon="4.80933">
        <ele>479.8</ele>
        <time>2020-06-07T07:03:06.000Z</time>
      </trkpt>
      <trkpt lat="45.8512" lon="4.80931">
        <ele>479.9</ele>
        <time>2020-06-07T07:03:07.000Z</time>
      </trkpt>
      <trkpt lat="45.85119" lon="4.80928">
        <ele>480.1</ele>
        <time>2020-06-07T07:03:08.000Z</time>
      </trkpt>
      <trkpt lat="45.85118" lon="4.80926">
        <ele>480.3</ele>
        <time>2020-06-07T07:03:09.000Z</time>
      </trkpt>
      <trkpt lat="45.85116" lon="4.80923">
        <ele>480.4</ele>
        <time>2020-06-07T07:03:10.000Z</time>
      </trkpt>
      <trkpt lat="45.85114" lon="4.80922">
        <ele>480.6</ele>
        <time>2020-06-07T07:03:11.000Z</time>
      </trkpt>
      <trkpt lat="45.85112" lon="4.8092">
        <ele>480.8</ele>
        <time>2020-06-07T07:03:12.000Z</time>
      </trkpt>
      <trkpt lat="45.85111" lon="4.80918">
        <ele>481</ele>
        <time>2020-06-07T07:03:13.000Z</time>
      </trkpt>
      <trkpt lat="45.85109" lon="4.80916">
        <ele>481.2</ele>
        <time>2020-06-07T07:03:14.000Z</time>
      </trkpt>
      <trkpt lat="45.85107" lon="4.80914">
        <ele>481.3</ele>
        <time>2020-06-07T07:03:15.000Z</time>
      </trkpt>
      <trkpt lat="45.85105" lon="4.80912">
        <ele>481.5</ele>
        <time>2020-06-07T07:03:16.000Z</time>
      </trkpt>
      <trkpt lat="45.85103" lon="4.8091">
        <ele>481.7</ele>
        <time>2020-06-07T07:03:17.000Z</time>
      </trkpt>
      <trkpt lat="45.85102" lon="4.80908">
        <ele>481.9</ele>
        <time>2020-06-07T07:03:18.000Z</time>
      </trkpt>
      <trkpt lat="45.85101" lon="4.80905">
        <ele>482.1</ele>
        <time>2020-06-07T07:03:19.000Z</time>
      </trkpt>
      <trkpt lat="45.85099" lon="4.80903">
        <ele>482.3</ele>
        <time>2020-06-07T07:03:20.000Z</time>
      </trkpt>
      <trkpt lat="45.85098" lon="4.80901">
        <ele>482.4</ele>
        <time>2020-06-07T07:03:21.000Z</time>
      </trkpt>
      <trkpt lat="45.85097" lon="4.80899">
        <ele>482.6</ele>
        <time>2020-06-07T07:03:22.000Z</time>
      </trkpt>
      <trkpt lat="45.85095" lon="4.80897">
        <ele>482.8</ele>
        <time>2020-06-07T07:03:23.000Z</time>
      </trkpt>
      <trkpt lat="45.85093" lon="4.80895">
        <ele>483</ele>
        <time>2020-06-07T07:03:24.000Z</time>
      </trkpt>
      <trkpt lat="45.85091" lon="4.80893">
        <ele>483.1</ele>
        <time>2020-06-07T07:03:25.000Z</time>
      </trkpt>
      <trkpt lat="45.8509" lon="4.80891">
        <ele>483.3</ele>
        <time>2020-06-07T07:03:26.000Z</time>
      </trkpt>
      <trkpt lat="45.85089" lon="4.80889">
        <ele>483.5</ele>
        <time>2020-06-07T07:03:27.000Z</time>
      </trkpt>
      <trkpt lat="45.85087" lon="4.80887">
        <ele>483.7</ele>
        <time>2020-06-07T07:03:28.000Z</time>
      </trkpt>
      <trkpt lat="45.85085" lon="4.80885">
        <ele>483.8</ele>
        <time>2020-06-07T07:03:29.000Z</time>
      </trkpt>
      <trkpt lat="45.85083" lon="4.80882">
        <ele>484.1</ele>
        <time>2020-06-07T07:03:30.000Z</time>
      </trkpt>
      <trkpt lat="45.85082" lon="4.8088">
        <ele>484.2</ele>
        <time>2020-06-07T07:03:31.000Z</time>
      </trkpt>
      <trkpt lat="45.8508" lon="4.80878">
        <ele>484.4</ele>
        <time>2020-06-07T07:03:32.000Z</time>
      </trkpt>
      <trkpt lat="45.85079" lon="4.80876">
        <ele>484.6</ele>
        <time>2020-06-07T07:03:33.000Z</time>
      </trkpt>
      <trkpt lat="45.85078" lon="4.80874">
        <ele>484.7</ele>
        <time>2020-06-07T07:03:34.000Z</time>
      </trkpt>
      <trkpt lat="45.85076" lon="4.80872">
        <ele>484.9</ele>
        <time>2020-06-07T07:03:35.000Z</time>
      </trkpt>
      <trkpt lat="45.85074" lon="4.80871">
        <ele>485.1</ele>
        <time>2020-06-07T07:03:36.000Z</time>
      </trkpt>
      <trkpt lat="45.85073" lon="4.80869">
        <ele>485.3</ele>
        <time>2020-06-07T07:03:37.000Z</time>
      </trkpt>
      <trkpt lat="45.85072" lon="4.80867">
        <ele>485.4</ele>
        <time>2020-06-07T07:03:38.000Z</time>
      </trkpt>
      <trkpt lat="45.8507" lon="4.80864">
        <ele>485.7</ele>
        <time>2020-06-07T07:03:39.000Z</time>
      </trkpt>
      <trkpt lat="45.85068" lon="4.80862">
        <ele>485.9</ele>
        <time>2020-06-07T07:03:40.000Z</time>
      </trkpt>
      <trkpt lat="45.85066" lon="4.8086">
        <ele>486</ele>
        <time>2020-06-07T07:03:41.000Z</time>
      </trkpt>
      <trkpt lat="45.85065" lon="4.80858">
        <ele>486.2</ele>
        <time>2020-06-07T07:03:42.000Z</time>
      </trkpt>
      <trkpt lat="45.85064" lon="4.80856">
        <ele>486.3</ele>
        <time>2020-06-07T07:03:43.000Z</time>
      </trkpt>
      <trkpt lat="45.85062" lon="4.80854">
        <ele>486.6</ele>
        <time>2020-06-07T07:03:44.000Z</time>
      </trkpt>
      <trkpt lat="45.85059" lon="4.80852">
        <ele>486.8</ele>
        <time>2020-06-07T07:03:45.000Z</time>
      </trkpt>
      <trkpt lat="45.85058" lon="4.8085">
        <ele>487</ele>
        <time>2020-06-07T07:03:46.000Z</time>
      </trkpt>
      <trkpt lat="45.85056" lon="4.80847">
        <ele>487.2</ele>
        <time>2020-06-07T07:03:47.000Z</time>
      </trkpt>
      <trkpt lat="45.85054" lon="4.80845">
        <ele>487.4</ele>
        <time>2020-06-07T07:03:48.000Z</time>
      </trkpt>
      <trkpt lat="45.85052" lon="4.80842">
        <ele>487.6</ele>
        <time>2020-06-07T07:03:49.000Z</time>
      </trkpt>
      <trkpt lat="45.8505" lon="4.8084">
        <ele>487.9</ele>
        <time>2020-06-07T07:03:50.000Z</time>
      </trkpt>
      <trkpt lat="45.85047" lon="4.80837">
        <ele>488.1</ele>
        <time>2020-06-07T07:03:51.000Z</time>
      </trkpt>
      <trkpt lat="45.85046" lon="4.80834">
        <ele>488.3</ele>
        <time>2020-06-07T07:03:52.000Z</time>
      </trkpt>
      <trkpt lat="45.85044" lon="4.80831">
        <ele>488.5</ele>
        <time>2020-06-07T07:03:53.000Z</time>
      </trkpt>
      <trkpt lat="45.85043" lon="4.80829">
        <ele>488.7</ele>
        <time>2020-06-07T07:03:54.000Z</time>
      </trkpt>
      <trkpt lat="45.85042" lon="4.80827">
        <ele>488.8</ele>
        <time>2020-06-07T07:03:55.000Z</time>
      </trkpt>
      <trkpt lat="45.85041" lon="4.80825">
        <ele>489</ele>
        <time>2020-06-07T07:03:56.000Z</time>
      </trkpt>
      <trkpt lat="45.8504" lon="4.80822">
        <ele>489.1</ele>
        <time>2020-06-07T07:03:57.000Z</time>
      </trkpt>
      <trkpt lat="45.8504" lon="4.8082">
        <ele>489.3</ele>
        <time>2020-06-07T07:03:58.000Z</time>
      </trkpt>
      <trkpt lat="45.85039" lon="4.80818">
        <ele>489.4</ele>
        <time>2020-06-07T07:03:59.000Z</time>
      </trkpt>
      <trkpt lat="45.85037" lon="4.80815">
        <ele>489.6</ele>
        <time>2020-06-07T07:04:00.000Z</time>
      </trkpt>
      <trkpt lat="45.85036" lon="4.80813">
        <ele>489.8</ele>
        <time>2020-06-07T07:04:01.000Z</time>
      </trkpt>
      <trkpt lat="45.85033" lon="4.8081">
        <ele>490</ele>
        <time>2020-06-07T07:04:02.000Z</time>
      </trkpt>
      <trkpt lat="45.85031" lon="4.80808">
        <ele>490.2</ele>
        <time>2020-06-07T07:04:03.000Z</time>
      </trkpt>
      <trkpt lat="45.8503" lon="4.80806">
        <ele>490.3</ele>
        <time>2020-06-07T07:04:04.000Z</time>
      </trkpt>
      <trkpt lat="45.85028" lon="4.80803">
        <ele>490.5</ele>
        <time>2020-06-07T07:04:05.000Z</time>
      </trkpt>
      <trkpt lat="45.85026" lon="4.80801">
        <ele>490.7</ele>
        <time>2020-06-07T07:04:06.000Z</time>
      </trkpt>
      <trkpt lat="45.85024" lon="4.80798">
        <ele>490.9</ele>
        <time>2020-06-07T07:04:07.000Z</time>
      </trkpt>
      <trkpt lat="45.85022" lon="4.80795">
        <ele>491</ele>
        <time>2020-06-07T07:04:08.000Z</time>
      </trkpt>
      <trkpt lat="45.85021" lon="4.80793">
        <ele>491.1</ele>
        <time>2020-06-07T07:04:09.000Z</time>
      </trkpt>
      <trkpt lat="45.85019" lon="4.8079">
        <ele>491.2</ele>
        <time>2020-06-07T07:04:10.000Z</time>
      </trkpt>
      <trkpt lat="45.85018" lon="4.80788">
        <ele>491.4</ele>
        <time>2020-06-07T07:04:11.000Z</time>
      </trkpt>
      <trkpt lat="45.85017" lon="4.80785">
        <ele>491.4</ele>
        <time>2020-06-07T07:04:12.000Z</time>
      </trkpt>
      <trkpt lat="45.85015" lon="4.80782">
        <ele>491.5</ele>
        <time>2020-06-07T07:04:13.000Z</time>
      </trkpt>
      <trkpt lat="45.85014" lon="4.8078">
        <ele>491.6</ele>
        <time>2020-06-07T07:04:14.000Z</time>
      </trkpt>
      <trkpt lat="45.85012" lon="4.80777">
        <ele>491.7</ele>
        <time>2020-06-07T07:04:15.000Z</time>
      </trkpt>
      <trkpt lat="45.85011" lon="4.80774">
        <ele>491.8</ele>
        <time>2020-06-07T07:04:16.000Z</time>
      </trkpt>
      <trkpt lat="45.85009" lon="4.80771">
        <ele>491.8</ele>
        <time>2020-06-07T07:04:17.000Z</time>
      </trkpt>
      <trkpt lat="45.85008" lon="4.80768">
        <ele>491.9</ele>
        <time>2020-06-07T07:04:18.000Z</time>
      </trkpt>
      <trkpt lat="45.85005" lon="4.80765">
        <ele>491.9</ele>
        <time>2020-06-07T07:04:19.000Z</time>
      </trkpt>
      <trkpt lat="45.85004" lon="4.80761">
        <ele>492</ele>
        <time>2020-06-07T07:04:20.000Z</time>
      </trkpt>
      <trkpt lat="45.85003" lon="4.80758">
        <ele>492</ele>
        <time>2020-06-07T07:04:21.000Z</time>
      </trkpt>
      <trkpt lat="45.85002" lon="4.80754">
        <ele>492</ele>
        <time>2020-06-07T07:04:22.000Z</time>
      </trkpt>
      <trkpt lat="45.85" lon="4.8075">
        <ele>492</ele>
        <time>2020-06-07T07:04:23.000Z</time>
      </trkpt>
      <trkpt lat="45.84999" lon="4.80747">
        <ele>492.1</ele>
        <time>2020-06-07T07:04:24.000Z</time>
      </trkpt>
      <trkpt lat="45.84997" lon="4.80743">
        <ele>492.1</ele>
        <time>2020-06-07T07:04:25.000Z</time>
      </trkpt>
      <trkpt lat="45.84995" lon="4.80739">
        <ele>492.1</ele>
        <time>2020-06-07T07:04:26.000Z</time>
      </trkpt>
      <trkpt lat="45.84994" lon="4.80734">
        <ele>492.1</ele>
        <time>2020-06-07T07:04:27.000Z</time>
      </trkpt>
      <trkpt lat="45.84993" lon="4.8073">
        <ele>492.1</ele>
        <time>2020-06-07T07:04:28.000Z</time>
      </trkpt>
      <trkpt lat="45.84992" lon="4.80726">
        <ele>492.1</ele>
        <time>2020-06-07T07:04:29.000Z</time>
      </trkpt>
      <trkpt lat="45.8499" lon="4.80722">
        <ele>492.1</ele>
        <time>2020-06-07T07:04:30.000Z</time>
      </trkpt>
      <trkpt lat="45.84988" lon="4.80718">
        <ele>492.1</ele>
        <time>2020-06-07T07:04:31.000Z</time>
      </trkpt>
      <trkpt lat="45.84986" lon="4.80715">
        <ele>492.2</ele>
        <time>2020-06-07T07:04:32.000Z</time>
      </trkpt>
      <trkpt lat="45.84985" lon="4.80712">
        <ele>492.2</ele>
        <time>2020-06-07T07:04:33.000Z</time>
      </trkpt>
      <trkpt lat="45.84984" lon="4.80709">
        <ele>492.2</ele>
        <time>2020-06-07T07:04:34.000Z</time>
      </trkpt>
      <trkpt lat="45.84983" lon="4.80707">
        <ele>492.2</ele>
        <time>2020-06-07T07:04:35.000Z</time>
      </trkpt>
      <trkpt lat="45.84982" lon="4.80706">
        <ele>492.2</ele>
        <time>2020-06-07T07:04:36.000Z</time>
      </trkpt>
      <trkpt lat="45.84981" lon="4.80704">
        <ele>492.2</ele>
        <time>2020-06-07T07:04:37.000Z</time>
      </trkpt>
      <trkpt lat="45.84981" lon="4.80702">
        <ele>492.2</ele>
        <time>2020-06-07T07:04:38.000Z</time>
      </trkpt>
      <trkpt lat="45.8498" lon="4.80701">
        <ele>492.2</ele>
        <time>2020-06-07T07:04:39.000Z</time>
      </trkpt>
      <trkpt lat="45.84979" lon="4.80699">
        <ele>492.2</ele>
        <time>2020-06-07T07:04:40.000Z</time>
      </trkpt>
      <trkpt lat="45.84978" lon="4.80698">
        <ele>492.2</ele>
        <time>2020-06-07T07:04:41.000Z</time>
      </trkpt>
      <trkpt lat="45.84975" lon="4.80696">
        <ele>492.4</ele>
        <time>2020-06-07T07:04:42.000Z</time>
      </trkpt>
      <trkpt lat="45.84972" lon="4.80693">
        <ele>492.6</ele>
        <time>2020-06-07T07:04:43.000Z</time>
      </trkpt>
      <trkpt lat="45.84969" lon="4.80691">
        <ele>492.8</ele>
        <time>2020-06-07T07:04:44.000Z</time>
      </trkpt>
      <trkpt lat="45.84966" lon="4.80688">
        <ele>493</ele>
        <time>2020-06-07T07:04:45.000Z</time>
      </trkpt>
      <trkpt lat="45.84966" lon="4.80687">
        <ele>493.1</ele>
        <time>2020-06-07T07:04:46.000Z</time>
      </trkpt>
      <trkpt lat="45.84965" lon="4.80686">
        <ele>493.1</ele>
        <time>2020-06-07T07:04:47.000Z</time>
      </trkpt>
      <trkpt lat="45.84948" lon="4.80678">
        <ele>495.1</ele>
        <time>2020-06-07T07:04:56.000Z</time>
      </trkpt>
      <trkpt lat="45.84945" lon="4.80676">
        <ele>495.1</ele>
        <time>2020-06-07T07:04:57.000Z</time>
      </trkpt>
      <trkpt lat="45.84943" lon="4.80675">
        <ele>495.1</ele>
        <time>2020-06-07T07:04:58.000Z</time>
      </trkpt>
      <trkpt lat="45.84941" lon="4.80674">
        <ele>495.1</ele>
        <time>2020-06-07T07:04:59.000Z</time>
      </trkpt>
      <trkpt lat="45.84938" lon="4.80673">
        <ele>495.1</ele>
        <time>2020-06-07T07:05:00.000Z</time>
      </trkpt>
      <trkpt lat="45.84935" lon="4.80672">
        <ele>495.1</ele>
        <time>2020-06-07T07:05:01.000Z</time>
      </trkpt>
      <trkpt lat="45.84931" lon="4.8067">
        <ele>495.1</ele>
        <time>2020-06-07T07:05:02.000Z</time>
      </trkpt>
      <trkpt lat="45.84928" lon="4.80669">
        <ele>495</ele>
        <time>2020-06-07T07:05:03.000Z</time>
      </trkpt>
      <trkpt lat="45.84924" lon="4.80668">
        <ele>495</ele>
        <time>2020-06-07T07:05:04.000Z</time>
      </trkpt>
      <trkpt lat="45.8492" lon="4.80667">
        <ele>495</ele>
        <time>2020-06-07T07:05:05.000Z</time>
      </trkpt>
      <trkpt lat="45.84917" lon="4.80667">
        <ele>495</ele>
        <time>2020-06-07T07:05:06.000Z</time>
      </trkpt>
      <trkpt lat="45.84914" lon="4.80666">
        <ele>494.9</ele>
        <time>2020-06-07T07:05:07.000Z</time>
      </trkpt>
      <trkpt lat="45.84911" lon="4.80665">
        <ele>494.9</ele>
        <time>2020-06-07T07:05:08.000Z</time>
      </trkpt>
      <trkpt lat="45.84908" lon="4.80664">
        <ele>494.9</ele>
        <time>2020-06-07T07:05:09.000Z</time>
      </trkpt>
      <trkpt lat="45.84905" lon="4.80664">
        <ele>494.9</ele>
        <time>2020-06-07T07:05:10.000Z</time>
      </trkpt>
      <trkpt lat="45.84902" lon="4.80663">
        <ele>494.8</ele>
        <time>2020-06-07T07:05:11.000Z</time>
      </trkpt>
      <trkpt lat="45.84898" lon="4.80662">
        <ele>494.8</ele>
        <time>2020-06-07T07:05:12.000Z</time>
      </trkpt>
      <trkpt lat="45.84895" lon="4.80661">
        <ele>494.8</ele>
        <time>2020-06-07T07:05:13.000Z</time>
      </trkpt>
      <trkpt lat="45.84891" lon="4.8066">
        <ele>494.8</ele>
        <time>2020-06-07T07:05:14.000Z</time>
      </trkpt>
      <trkpt lat="45.84887" lon="4.80659">
        <ele>494.8</ele>
        <time>2020-06-07T07:05:15.000Z</time>
      </trkpt>
      <trkpt lat="45.84884" lon="4.80658">
        <ele>494.7</ele>
        <time>2020-06-07T07:05:16.000Z</time>
      </trkpt>
      <trkpt lat="45.8488" lon="4.80657">
        <ele>494.7</ele>
        <time>2020-06-07T07:05:17.000Z</time>
      </trkpt>
      <trkpt lat="45.84876" lon="4.80656">
        <ele>494.7</ele>
        <time>2020-06-07T07:05:18.000Z</time>
      </trkpt>
      <trkpt lat="45.84873" lon="4.80655">
        <ele>494.7</ele>
        <time>2020-06-07T07:05:19.000Z</time>
      </trkpt>
      <trkpt lat="45.84869" lon="4.80653">
        <ele>494.7</ele>
        <time>2020-06-07T07:05:20.000Z</time>
      </trkpt>
      <trkpt lat="45.84864" lon="4.80652">
        <ele>494.6</ele>
        <time>2020-06-07T07:05:21.000Z</time>
      </trkpt>
      <trkpt lat="45.8486" lon="4.8065">
        <ele>494.6</ele>
        <time>2020-06-07T07:05:22.000Z</time>
      </trkpt>
      <trkpt lat="45.84857" lon="4.80649">
        <ele>494.5</ele>
        <time>2020-06-07T07:05:23.000Z</time>
      </trkpt>
      <trkpt lat="45.84853" lon="4.80648">
        <ele>494.5</ele>
        <time>2020-06-07T07:05:24.000Z</time>
      </trkpt>
      <trkpt lat="45.84849" lon="4.80646">
        <ele>494.4</ele>
        <time>2020-06-07T07:05:25.000Z</time>
      </trkpt>
      <trkpt lat="45.84845" lon="4.80645">
        <ele>494.4</ele>
        <time>2020-06-07T07:05:26.000Z</time>
      </trkpt>
      <trkpt lat="45.84841" lon="4.80644">
        <ele>494.4</ele>
        <time>2020-06-07T07:05:27.000Z</time>
      </trkpt>
      <trkpt lat="45.84838" lon="4.80643">
        <ele>494.3</ele>
        <time>2020-06-07T07:05:28.000Z</time>
      </trkpt>
      <trkpt lat="45.84834" lon="4.80641">
        <ele>494.3</ele>
        <time>2020-06-07T07:05:29.000Z</time>
      </trkpt>
      <trkpt lat="45.84832" lon="4.80641">
        <ele>494.3</ele>
        <time>2020-06-07T07:05:30.000Z</time>
      </trkpt>
      <trkpt lat="45.84829" lon="4.80641">
        <ele>494.2</ele>
        <time>2020-06-07T07:05:31.000Z</time>
      </trkpt>
      <trkpt lat="45.84826" lon="4.8064">
        <ele>494.2</ele>
        <time>2020-06-07T07:05:32.000Z</time>
      </trkpt>
      <trkpt lat="45.84822" lon="4.80639">
        <ele>494.2</ele>
        <time>2020-06-07T07:05:33.000Z</time>
      </trkpt>
      <trkpt lat="45.84819" lon="4.80638">
        <ele>494.2</ele>
        <time>2020-06-07T07:05:34.000Z</time>
      </trkpt>
      <trkpt lat="45.84815" lon="4.80637">
        <ele>494.1</ele>
        <time>2020-06-07T07:05:35.000Z</time>
      </trkpt>
      <trkpt lat="45.84812" lon="4.80637">
        <ele>494.1</ele>
        <time>2020-06-07T07:05:36.000Z</time>
      </trkpt>
      <trkpt lat="45.84808" lon="4.80636">
        <ele>494.1</ele>
        <time>2020-06-07T07:05:37.000Z</time>
      </trkpt>
      <trkpt lat="45.84804" lon="4.80636">
        <ele>494.1</ele>
        <time>2020-06-07T07:05:38.000Z</time>
      </trkpt>
      <trkpt lat="45.848" lon="4.80635">
        <ele>494</ele>
        <time>2020-06-07T07:05:39.000Z</time>
      </trkpt>
      <trkpt lat="45.84795" lon="4.80636">
        <ele>494</ele>
        <time>2020-06-07T07:05:40.000Z</time>
      </trkpt>
      <trkpt lat="45.84792" lon="4.80637">
        <ele>493.9</ele>
        <time>2020-06-07T07:05:41.000Z</time>
      </trkpt>
      <trkpt lat="45.84788" lon="4.80639">
        <ele>493.8</ele>
        <time>2020-06-07T07:05:42.000Z</time>
      </trkpt>
      <trkpt lat="45.84784" lon="4.80639">
        <ele>493.8</ele>
        <time>2020-06-07T07:05:43.000Z</time>
      </trkpt>
      <trkpt lat="45.84779" lon="4.80639">
        <ele>493.7</ele>
        <time>2020-06-07T07:05:44.000Z</time>
      </trkpt>
      <trkpt lat="45.84775" lon="4.8064">
        <ele>493.6</ele>
        <time>2020-06-07T07:05:45.000Z</time>
      </trkpt>
      <trkpt lat="45.84771" lon="4.8064">
        <ele>493.6</ele>
        <time>2020-06-07T07:05:46.000Z</time>
      </trkpt>
      <trkpt lat="45.84768" lon="4.8064">
        <ele>493.6</ele>
        <time>2020-06-07T07:05:47.000Z</time>
      </trkpt>
      <trkpt lat="45.84764" lon="4.80641">
        <ele>493.5</ele>
        <time>2020-06-07T07:05:48.000Z</time>
      </trkpt>
      <trkpt lat="45.84761" lon="4.80642">
        <ele>493.5</ele>
        <time>2020-06-07T07:05:49.000Z</time>
      </trkpt>
      <trkpt lat="45.84758" lon="4.80644">
        <ele>493.5</ele>
        <time>2020-06-07T07:05:50.000Z</time>
      </trkpt>
      <trkpt lat="45.84754" lon="4.80645">
        <ele>493.4</ele>
        <time>2020-06-07T07:05:51.000Z</time>
      </trkpt>
      <trkpt lat="45.8475" lon="4.80647">
        <ele>493.4</ele>
        <time>2020-06-07T07:05:52.000Z</time>
      </trkpt>
      <trkpt lat="45.84745" lon="4.80648">
        <ele>493.4</ele>
        <time>2020-06-07T07:05:53.000Z</time>
      </trkpt>
      <trkpt lat="45.8474" lon="4.80648">
        <ele>493.5</ele>
        <time>2020-06-07T07:05:54.000Z</time>
      </trkpt>
      <trkpt lat="45.84735" lon="4.80647">
        <ele>493.5</ele>
        <time>2020-06-07T07:05:55.000Z</time>
      </trkpt>
      <trkpt lat="45.84729" lon="4.80647">
        <ele>493.5</ele>
        <time>2020-06-07T07:05:56.000Z</time>
      </trkpt>
      <trkpt lat="45.84723" lon="4.80647">
        <ele>493.5</ele>
        <time>2020-06-07T07:05:57.000Z</time>
      </trkpt>
      <trkpt lat="45.84718" lon="4.80647">
        <ele>493.5</ele>
        <time>2020-06-07T07:05:58.000Z</time>
      </trkpt>
      <trkpt lat="45.84713" lon="4.80647">
        <ele>493.5</ele>
        <time>2020-06-07T07:05:59.000Z</time>
      </trkpt>
      <trkpt lat="45.84708" lon="4.80648">
        <ele>493.5</ele>
        <time>2020-06-07T07:06:00.000Z</time>
      </trkpt>
      <trkpt lat="45.84703" lon="4.80649">
        <ele>493.6</ele>
        <time>2020-06-07T07:06:01.000Z</time>
      </trkpt>
      <trkpt lat="45.84698" lon="4.8065">
        <ele>493.6</ele>
        <time>2020-06-07T07:06:02.000Z</time>
      </trkpt>
      <trkpt lat="45.84693" lon="4.80651">
        <ele>493.6</ele>
        <time>2020-06-07T07:06:03.000Z</time>
      </trkpt>
      <trkpt lat="45.84688" lon="4.80651">
        <ele>493.7</ele>
        <time>2020-06-07T07:06:04.000Z</time>
      </trkpt>
      <trkpt lat="45.84684" lon="4.8065">
        <ele>493.7</ele>
        <time>2020-06-07T07:06:05.000Z</time>
      </trkpt>
      <trkpt lat="45.84679" lon="4.80649">
        <ele>493.7</ele>
        <time>2020-06-07T07:06:06.000Z</time>
      </trkpt>
      <trkpt lat="45.84674" lon="4.80648">
        <ele>493.7</ele>
        <time>2020-06-07T07:06:07.000Z</time>
      </trkpt>
      <trkpt lat="45.84669" lon="4.80647">
        <ele>493.7</ele>
        <time>2020-06-07T07:06:08.000Z</time>
      </trkpt>
      <trkpt lat="45.84665" lon="4.80645">
        <ele>493.7</ele>
        <time>2020-06-07T07:06:09.000Z</time>
      </trkpt>
      <trkpt lat="45.8466" lon="4.80645">
        <ele>493.7</ele>
        <time>2020-06-07T07:06:10.000Z</time>
      </trkpt>
      <trkpt lat="45.84656" lon="4.80645">
        <ele>493.7</ele>
        <time>2020-06-07T07:06:11.000Z</time>
      </trkpt>
      <trkpt lat="45.84651" lon="4.80644">
        <ele>493.6</ele>
        <time>2020-06-07T07:06:12.000Z</time>
      </trkpt>
      <trkpt lat="45.84646" lon="4.80644">
        <ele>493.5</ele>
        <time>2020-06-07T07:06:13.000Z</time>
      </trkpt>
      <trkpt lat="45.8464" lon="4.80643">
        <ele>493.4</ele>
        <time>2020-06-07T07:06:14.000Z</time>
      </trkpt>
      <trkpt lat="45.84634" lon="4.80643">
        <ele>493.2</ele>
        <time>2020-06-07T07:06:15.000Z</time>
      </trkpt>
      <trkpt lat="45.84628" lon="4.80642">
        <ele>492.9</ele>
        <time>2020-06-07T07:06:16.000Z</time>
      </trkpt>
      <trkpt lat="45.84623" lon="4.80642">
        <ele>492.6</ele>
        <time>2020-06-07T07:06:17.000Z</time>
      </trkpt>
      <trkpt lat="45.84618" lon="4.8064">
        <ele>492.3</ele>
        <time>2020-06-07T07:06:18.000Z</time>
      </trkpt>
      <trkpt lat="45.84613" lon="4.80637">
        <ele>491.9</ele>
        <time>2020-06-07T07:06:19.000Z</time>
      </trkpt>
      <trkpt lat="45.84609" lon="4.80633">
        <ele>491.6</ele>
        <time>2020-06-07T07:06:20.000Z</time>
      </trkpt>
      <trkpt lat="45.84606" lon="4.80629">
        <ele>491.3</ele>
        <time>2020-06-07T07:06:21.000Z</time>
      </trkpt>
      <trkpt lat="45.84605" lon="4.80623">
        <ele>490.9</ele>
        <time>2020-06-07T07:06:22.000Z</time>
      </trkpt>
      <trkpt lat="45.84603" lon="4.80617">
        <ele>490.5</ele>
        <time>2020-06-07T07:06:23.000Z</time>
      </trkpt>
      <trkpt lat="45.84601" lon="4.80608">
        <ele>489.8</ele>
        <time>2020-06-07T07:06:24.000Z</time>
      </trkpt>
      <trkpt lat="45.84599" lon="4.80599">
        <ele>489.2</ele>
        <time>2020-06-07T07:06:25.000Z</time>
      </trkpt>
      <trkpt lat="45.84595" lon="4.80591">
        <ele>488.6</ele>
        <time>2020-06-07T07:06:26.000Z</time>
      </trkpt>
      <trkpt lat="45.84592" lon="4.80583">
        <ele>488.1</ele>
        <time>2020-06-07T07:06:27.000Z</time>
      </trkpt>
      <trkpt lat="45.84588" lon="4.80578">
        <ele>487.6</ele>
        <time>2020-06-07T07:06:28.000Z</time>
      </trkpt>
      <trkpt lat="45.84583" lon="4.80574">
        <ele>487.2</ele>
        <time>2020-06-07T07:06:29.000Z</time>
      </trkpt>
      <trkpt lat="45.84577" lon="4.80571">
        <ele>486.9</ele>
        <time>2020-06-07T07:06:30.000Z</time>
      </trkpt>
      <trkpt lat="45.84569" lon="4.80569">
        <ele>486.6</ele>
        <time>2020-06-07T07:06:31.000Z</time>
      </trkpt>
      <trkpt lat="45.84563" lon="4.80568">
        <ele>486.4</ele>
        <time>2020-06-07T07:06:32.000Z</time>
      </trkpt>
      <trkpt lat="45.84557" lon="4.80568">
        <ele>486.2</ele>
        <time>2020-06-07T07:06:33.000Z</time>
      </trkpt>
      <trkpt lat="45.84552" lon="4.80568">
        <ele>486.2</ele>
        <time>2020-06-07T07:06:34.000Z</time>
      </trkpt>
      <trkpt lat="45.84547" lon="4.80569">
        <ele>486.2</ele>
        <time>2020-06-07T07:06:35.000Z</time>
      </trkpt>
      <trkpt lat="45.84541" lon="4.80569">
        <ele>486.3</ele>
        <time>2020-06-07T07:06:36.000Z</time>
      </trkpt>
      <trkpt lat="45.84537" lon="4.80571">
        <ele>486.4</ele>
        <time>2020-06-07T07:06:37.000Z</time>
      </trkpt>
      <trkpt lat="45.84532" lon="4.80572">
        <ele>486.5</ele>
        <time>2020-06-07T07:06:38.000Z</time>
      </trkpt>
      <trkpt lat="45.84529" lon="4.80573">
        <ele>486.7</ele>
        <time>2020-06-07T07:06:39.000Z</time>
      </trkpt>
      <trkpt lat="45.84525" lon="4.80574">
        <ele>486.9</ele>
        <time>2020-06-07T07:06:40.000Z</time>
      </trkpt>
      <trkpt lat="45.84521" lon="4.80575">
        <ele>487.1</ele>
        <time>2020-06-07T07:06:41.000Z</time>
      </trkpt>
      <trkpt lat="45.84517" lon="4.80576">
        <ele>487.3</ele>
        <time>2020-06-07T07:06:42.000Z</time>
      </trkpt>
      <trkpt lat="45.84514" lon="4.80577">
        <ele>487.6</ele>
        <time>2020-06-07T07:06:43.000Z</time>
      </trkpt>
      <trkpt lat="45.84511" lon="4.80578">
        <ele>487.9</ele>
        <time>2020-06-07T07:06:44.000Z</time>
      </trkpt>
      <trkpt lat="45.84507" lon="4.80579">
        <ele>488.2</ele>
        <time>2020-06-07T07:06:45.000Z</time>
      </trkpt>
      <trkpt lat="45.84504" lon="4.80579">
        <ele>488.5</ele>
        <time>2020-06-07T07:06:46.000Z</time>
      </trkpt>
      <trkpt lat="45.84501" lon="4.8058">
        <ele>488.8</ele>
        <time>2020-06-07T07:06:47.000Z</time>
      </trkpt>
      <trkpt lat="45.84498" lon="4.8058">
        <ele>489.1</ele>
        <time>2020-06-07T07:06:48.000Z</time>
      </trkpt>
      <trkpt lat="45.84495" lon="4.80581">
        <ele>489.4</ele>
        <time>2020-06-07T07:06:49.000Z</time>
      </trkpt>
      <trkpt lat="45.84492" lon="4.80581">
        <ele>489.7</ele>
        <time>2020-06-07T07:06:50.000Z</time>
      </trkpt>
      <trkpt lat="45.84489" lon="4.80581">
        <ele>490</ele>
        <time>2020-06-07T07:06:51.000Z</time>
      </trkpt>
      <trkpt lat="45.84487" lon="4.80581">
        <ele>490.2</ele>
        <time>2020-06-07T07:06:52.000Z</time>
      </trkpt>
      <trkpt lat="45.84485" lon="4.80582">
        <ele>490.5</ele>
        <time>2020-06-07T07:06:53.000Z</time>
      </trkpt>
      <trkpt lat="45.84482" lon="4.80582">
        <ele>490.7</ele>
        <time>2020-06-07T07:06:54.000Z</time>
      </trkpt>
      <trkpt lat="45.8448" lon="4.80583">
        <ele>490.9</ele>
        <time>2020-06-07T07:06:55.000Z</time>
      </trkpt>
      <trkpt lat="45.84476" lon="4.80583">
        <ele>491.2</ele>
        <time>2020-06-07T07:06:56.000Z</time>
      </trkpt>
      <trkpt lat="45.84474" lon="4.80583">
        <ele>491.4</ele>
        <time>2020-06-07T07:06:57.000Z</time>
      </trkpt>
      <trkpt lat="45.84472" lon="4.80585">
        <ele>491.6</ele>
        <time>2020-06-07T07:06:58.000Z</time>
      </trkpt>
      <trkpt lat="45.84469" lon="4.80584">
        <ele>491.8</ele>
        <time>2020-06-07T07:06:59.000Z</time>
      </trkpt>
      <trkpt lat="45.84466" lon="4.80584">
        <ele>492</ele>
        <time>2020-06-07T07:07:00.000Z</time>
      </trkpt>
      <trkpt lat="45.84463" lon="4.80585">
        <ele>492.2</ele>
        <time>2020-06-07T07:07:01.000Z</time>
      </trkpt>
      <trkpt lat="45.84461" lon="4.80585">
        <ele>492.3</ele>
        <time>2020-06-07T07:07:02.000Z</time>
      </trkpt>
      <trkpt lat="45.84459" lon="4.80585">
        <ele>492.5</ele>
        <time>2020-06-07T07:07:03.000Z</time>
      </trkpt>
      <trkpt lat="45.84456" lon="4.80586">
        <ele>492.6</ele>
        <time>2020-06-07T07:07:04.000Z</time>
      </trkpt>
      <trkpt lat="45.84455" lon="4.80588">
        <ele>492.7</ele>
        <time>2020-06-07T07:07:05.000Z</time>
      </trkpt>
      <trkpt lat="45.84452" lon="4.80588">
        <ele>492.8</ele>
        <time>2020-06-07T07:07:06.000Z</time>
      </trkpt>
      <trkpt lat="45.8445" lon="4.80587">
        <ele>492.9</ele>
        <time>2020-06-07T07:07:07.000Z</time>
      </trkpt>
      <trkpt lat="45.84448" lon="4.80587">
        <ele>493.1</ele>
        <time>2020-06-07T07:07:08.000Z</time>
      </trkpt>
      <trkpt lat="45.84446" lon="4.80586">
        <ele>493.2</ele>
        <time>2020-06-07T07:07:09.000Z</time>
      </trkpt>
      <trkpt lat="45.84443" lon="4.80586">
        <ele>493.3</ele>
        <time>2020-06-07T07:07:10.000Z</time>
      </trkpt>
      <trkpt lat="45.84441" lon="4.80585">
        <ele>493.4</ele>
        <time>2020-06-07T07:07:11.000Z</time>
      </trkpt>
      <trkpt lat="45.84439" lon="4.80584">
        <ele>493.5</ele>
        <time>2020-06-07T07:07:12.000Z</time>
      </trkpt>
      <trkpt lat="45.84436" lon="4.80584">
        <ele>493.6</ele>
        <time>2020-06-07T07:07:13.000Z</time>
      </trkpt>
      <trkpt lat="45.84434" lon="4.80584">
        <ele>493.7</ele>
        <time>2020-06-07T07:07:14.000Z</time>
      </trkpt>
      <trkpt lat="45.84431" lon="4.80583">
        <ele>493.9</ele>
        <time>2020-06-07T07:07:15.000Z</time>
      </trkpt>
      <trkpt lat="45.84429" lon="4.80583">
        <ele>494</ele>
        <time>2020-06-07T07:07:16.000Z</time>
      </trkpt>
      <trkpt lat="45.84427" lon="4.80582">
        <ele>494.1</ele>
        <time>2020-06-07T07:07:17.000Z</time>
      </trkpt>
      <trkpt lat="45.84425" lon="4.80581">
        <ele>494.1</ele>
        <time>2020-06-07T07:07:18.000Z</time>
      </trkpt>
      <trkpt lat="45.84424" lon="4.8058">
        <ele>494.2</ele>
        <time>2020-06-07T07:07:19.000Z</time>
      </trkpt>
      <trkpt lat="45.84421" lon="4.80579">
        <ele>494.3</ele>
        <time>2020-06-07T07:07:20.000Z</time>
      </trkpt>
      <trkpt lat="45.8442" lon="4.80578">
        <ele>494.4</ele>
        <time>2020-06-07T07:07:21.000Z</time>
      </trkpt>
      <trkpt lat="45.84418" lon="4.80577">
        <ele>494.6</ele>
        <time>2020-06-07T07:07:22.000Z</time>
      </trkpt>
      <trkpt lat="45.84415" lon="4.80575">
        <ele>494.8</ele>
        <time>2020-06-07T07:07:23.000Z</time>
      </trkpt>
      <trkpt lat="45.84414" lon="4.80574">
        <ele>494.9</ele>
        <time>2020-06-07T07:07:24.000Z</time>
      </trkpt>
      <trkpt lat="45.84411" lon="4.80573">
        <ele>495.1</ele>
        <time>2020-06-07T07:07:25.000Z</time>
      </trkpt>
      <trkpt lat="45.84409" lon="4.80573">
        <ele>495.2</ele>
        <time>2020-06-07T07:07:26.000Z</time>
      </trkpt>
      <trkpt lat="45.84407" lon="4.80573">
        <ele>495.3</ele>
        <time>2020-06-07T07:07:27.000Z</time>
      </trkpt>
      <trkpt lat="45.84405" lon="4.80571">
        <ele>495.5</ele>
        <time>2020-06-07T07:07:28.000Z</time>
      </trkpt>
      <trkpt lat="45.84402" lon="4.80571">
        <ele>495.7</ele>
        <time>2020-06-07T07:07:29.000Z</time>
      </trkpt>
      <trkpt lat="45.844" lon="4.8057">
        <ele>495.8</ele>
        <time>2020-06-07T07:07:30.000Z</time>
      </trkpt>
      <trkpt lat="45.84396" lon="4.80569">
        <ele>496</ele>
        <time>2020-06-07T07:07:31.000Z</time>
      </trkpt>
      <trkpt lat="45.84394" lon="4.80568">
        <ele>496.2</ele>
        <time>2020-06-07T07:07:32.000Z</time>
      </trkpt>
      <trkpt lat="45.84391" lon="4.80568">
        <ele>496.3</ele>
        <time>2020-06-07T07:07:33.000Z</time>
      </trkpt>
      <trkpt lat="45.84388" lon="4.80567">
        <ele>496.5</ele>
        <time>2020-06-07T07:07:34.000Z</time>
      </trkpt>
      <trkpt lat="45.84384" lon="4.80566">
        <ele>496.7</ele>
        <time>2020-06-07T07:07:35.000Z</time>
      </trkpt>
      <trkpt lat="45.84381" lon="4.80565">
        <ele>496.8</ele>
        <time>2020-06-07T07:07:36.000Z</time>
      </trkpt>
      <trkpt lat="45.84378" lon="4.80565">
        <ele>496.9</ele>
        <time>2020-06-07T07:07:37.000Z</time>
      </trkpt>
      <trkpt lat="45.84375" lon="4.80564">
        <ele>496.9</ele>
        <time>2020-06-07T07:07:38.000Z</time>
      </trkpt>
      <trkpt lat="45.84372" lon="4.80564">
        <ele>497</ele>
        <time>2020-06-07T07:07:39.000Z</time>
      </trkpt>
      <trkpt lat="45.84369" lon="4.80562">
        <ele>497</ele>
        <time>2020-06-07T07:07:40.000Z</time>
      </trkpt>
      <trkpt lat="45.84365" lon="4.80562">
        <ele>497</ele>
        <time>2020-06-07T07:07:41.000Z</time>
      </trkpt>
      <trkpt lat="45.84361" lon="4.80561">
        <ele>496.9</ele>
        <time>2020-06-07T07:07:42.000Z</time>
      </trkpt>
      <trkpt lat="45.84357" lon="4.8056">
        <ele>496.9</ele>
        <time>2020-06-07T07:07:43.000Z</time>
      </trkpt>
      <trkpt lat="45.84353" lon="4.80559">
        <ele>496.8</ele>
        <time>2020-06-07T07:07:44.000Z</time>
      </trkpt>
      <trkpt lat="45.8435" lon="4.80558">
        <ele>496.7</ele>
        <time>2020-06-07T07:07:45.000Z</time>
      </trkpt>
      <trkpt lat="45.84347" lon="4.80558">
        <ele>496.6</ele>
        <time>2020-06-07T07:07:46.000Z</time>
      </trkpt>
      <trkpt lat="45.84344" lon="4.80556">
        <ele>496.5</ele>
        <time>2020-06-07T07:07:47.000Z</time>
      </trkpt>
      <trkpt lat="45.84341" lon="4.80555">
        <ele>496.4</ele>
        <time>2020-06-07T07:07:48.000Z</time>
      </trkpt>
      <trkpt lat="45.84338" lon="4.80554">
        <ele>496.4</ele>
        <time>2020-06-07T07:07:49.000Z</time>
      </trkpt>
      <trkpt lat="45.84336" lon="4.80554">
        <ele>496.4</ele>
        <time>2020-06-07T07:07:50.000Z</time>
      </trkpt>
      <trkpt lat="45.84333" lon="4.80554">
        <ele>496.4</ele>
        <time>2020-06-07T07:07:51.000Z</time>
      </trkpt>
      <trkpt lat="45.84329" lon="4.80552">
        <ele>496.4</ele>
        <time>2020-06-07T07:07:52.000Z</time>
      </trkpt>
      <trkpt lat="45.84325" lon="4.8055">
        <ele>496.5</ele>
        <time>2020-06-07T07:07:53.000Z</time>
      </trkpt>
      <trkpt lat="45.84322" lon="4.80548">
        <ele>496.6</ele>
        <time>2020-06-07T07:07:54.000Z</time>
      </trkpt>
      <trkpt lat="45.84318" lon="4.80546">
        <ele>496.8</ele>
        <time>2020-06-07T07:07:55.000Z</time>
      </trkpt>
      <trkpt lat="45.84313" lon="4.80544">
        <ele>497</ele>
        <time>2020-06-07T07:07:56.000Z</time>
      </trkpt>
      <trkpt lat="45.84309" lon="4.80542">
        <ele>497.2</ele>
        <time>2020-06-07T07:07:57.000Z</time>
      </trkpt>
      <trkpt lat="45.84305" lon="4.8054">
        <ele>497.4</ele>
        <time>2020-06-07T07:07:58.000Z</time>
      </trkpt>
      <trkpt lat="45.84301" lon="4.80539">
        <ele>497.5</ele>
        <time>2020-06-07T07:07:59.000Z</time>
      </trkpt>
      <trkpt lat="45.84297" lon="4.80537">
        <ele>497.6</ele>
        <time>2020-06-07T07:08:00.000Z</time>
      </trkpt>
      <trkpt lat="45.84294" lon="4.80536">
        <ele>497.7</ele>
        <time>2020-06-07T07:08:01.000Z</time>
      </trkpt>
      <trkpt lat="45.8429" lon="4.80535">
        <ele>497.8</ele>
        <time>2020-06-07T07:08:02.000Z</time>
      </trkpt>
      <trkpt lat="45.84287" lon="4.80533">
        <ele>497.8</ele>
        <time>2020-06-07T07:08:03.000Z</time>
      </trkpt>
      <trkpt lat="45.84283" lon="4.80532">
        <ele>497.8</ele>
        <time>2020-06-07T07:08:04.000Z</time>
      </trkpt>
      <trkpt lat="45.84279" lon="4.8053">
        <ele>497.9</ele>
        <time>2020-06-07T07:08:05.000Z</time>
      </trkpt>
      <trkpt lat="45.84274" lon="4.80529">
        <ele>497.8</ele>
        <time>2020-06-07T07:08:06.000Z</time>
      </trkpt>
      <trkpt lat="45.84269" lon="4.80527">
        <ele>497.8</ele>
        <time>2020-06-07T07:08:07.000Z</time>
      </trkpt>
      <trkpt lat="45.84263" lon="4.80524">
        <ele>497.7</ele>
        <time>2020-06-07T07:08:08.000Z</time>
      </trkpt>
      <trkpt lat="45.84258" lon="4.80522">
        <ele>497.7</ele>
        <time>2020-06-07T07:08:09.000Z</time>
      </trkpt>
      <trkpt lat="45.84254" lon="4.80521">
        <ele>497.6</ele>
        <time>2020-06-07T07:08:10.000Z</time>
      </trkpt>
      <trkpt lat="45.8425" lon="4.80519">
        <ele>497.6</ele>
        <time>2020-06-07T07:08:11.000Z</time>
      </trkpt>
      <trkpt lat="45.84245" lon="4.80518">
        <ele>497.5</ele>
        <time>2020-06-07T07:08:12.000Z</time>
      </trkpt>
      <trkpt lat="45.84241" lon="4.80516">
        <ele>497.4</ele>
        <time>2020-06-07T07:08:13.000Z</time>
      </trkpt>
      <trkpt lat="45.84237" lon="4.80514">
        <ele>497.3</ele>
        <time>2020-06-07T07:08:14.000Z</time>
      </trkpt>
      <trkpt lat="45.84233" lon="4.80513">
        <ele>497.2</ele>
        <time>2020-06-07T07:08:15.000Z</time>
      </trkpt>
      <trkpt lat="45.8423" lon="4.80511">
        <ele>497.1</ele>
        <time>2020-06-07T07:08:16.000Z</time>
      </trkpt>
      <trkpt lat="45.84227" lon="4.80508">
        <ele>497.1</ele>
        <time>2020-06-07T07:08:17.000Z</time>
      </trkpt>
      <trkpt lat="45.84225" lon="4.80504">
        <ele>497</ele>
        <time>2020-06-07T07:08:18.000Z</time>
      </trkpt>
      <trkpt lat="45.84222" lon="4.80501">
        <ele>497</ele>
        <time>2020-06-07T07:08:19.000Z</time>
      </trkpt>
      <trkpt lat="45.8422" lon="4.80497">
        <ele>497</ele>
        <time>2020-06-07T07:08:20.000Z</time>
      </trkpt>
      <trkpt lat="45.84219" lon="4.80494">
        <ele>497</ele>
        <time>2020-06-07T07:08:21.000Z</time>
      </trkpt>
      <trkpt lat="45.84218" lon="4.80492">
        <ele>497</ele>
        <time>2020-06-07T07:08:22.000Z</time>
      </trkpt>
      <trkpt lat="45.84217" lon="4.80489">
        <ele>497.1</ele>
        <time>2020-06-07T07:08:23.000Z</time>
      </trkpt>
      <trkpt lat="45.84215" lon="4.80486">
        <ele>497.1</ele>
        <time>2020-06-07T07:08:24.000Z</time>
      </trkpt>
      <trkpt lat="45.84215" lon="4.80483">
        <ele>497.2</ele>
        <time>2020-06-07T07:08:25.000Z</time>
      </trkpt>
      <trkpt lat="45.84215" lon="4.8048">
        <ele>497.2</ele>
        <time>2020-06-07T07:08:26.000Z</time>
      </trkpt>
      <trkpt lat="45.84215" lon="4.80477">
        <ele>497.2</ele>
        <time>2020-06-07T07:08:27.000Z</time>
      </trkpt>
      <trkpt lat="45.84215" lon="4.80473">
        <ele>497.2</ele>
        <time>2020-06-07T07:08:28.000Z</time>
      </trkpt>
      <trkpt lat="45.84213" lon="4.80471">
        <ele>497.2</ele>
        <time>2020-06-07T07:08:29.000Z</time>
      </trkpt>
      <trkpt lat="45.84211" lon="4.80469">
        <ele>497.1</ele>
        <time>2020-06-07T07:08:30.000Z</time>
      </trkpt>
      <trkpt lat="45.8421" lon="4.80466">
        <ele>497</ele>
        <time>2020-06-07T07:08:31.000Z</time>
      </trkpt>
      <trkpt lat="45.84208" lon="4.80464">
        <ele>496.9</ele>
        <time>2020-06-07T07:08:32.000Z</time>
      </trkpt>
      <trkpt lat="45.84207" lon="4.80463">
        <ele>496.8</ele>
        <time>2020-06-07T07:08:33.000Z</time>
      </trkpt>
      <trkpt lat="45.84206" lon="4.80461">
        <ele>496.7</ele>
        <time>2020-06-07T07:08:34.000Z</time>
      </trkpt>
      <trkpt lat="45.84205" lon="4.80459">
        <ele>496.6</ele>
        <time>2020-06-07T07:08:35.000Z</time>
      </trkpt>
      <trkpt lat="45.84202" lon="4.80457">
        <ele>496.4</ele>
        <time>2020-06-07T07:08:36.000Z</time>
      </trkpt>
      <trkpt lat="45.84201" lon="4.80455">
        <ele>496.2</ele>
        <time>2020-06-07T07:08:37.000Z</time>
      </trkpt>
      <trkpt lat="45.84199" lon="4.80455">
        <ele>496.1</ele>
        <time>2020-06-07T07:08:38.000Z</time>
      </trkpt>
      <trkpt lat="45.84195" lon="4.80453">
        <ele>495.8</ele>
        <time>2020-06-07T07:08:39.000Z</time>
      </trkpt>
      <trkpt lat="45.84192" lon="4.80452">
        <ele>495.6</ele>
        <time>2020-06-07T07:08:40.000Z</time>
      </trkpt>
      <trkpt lat="45.84188" lon="4.80451">
        <ele>495.3</ele>
        <time>2020-06-07T07:08:41.000Z</time>
      </trkpt>
      <trkpt lat="45.84183" lon="4.80451">
        <ele>495</ele>
        <time>2020-06-07T07:08:42.000Z</time>
      </trkpt>
      <trkpt lat="45.84176" lon="4.8045">
        <ele>494.6</ele>
        <time>2020-06-07T07:08:43.000Z</time>
      </trkpt>
      <trkpt lat="45.84172" lon="4.8045">
        <ele>494.4</ele>
        <time>2020-06-07T07:08:44.000Z</time>
      </trkpt>
      <trkpt lat="45.84168" lon="4.80449">
        <ele>494.3</ele>
        <time>2020-06-07T07:08:45.000Z</time>
      </trkpt>
      <trkpt lat="45.84165" lon="4.80449">
        <ele>494.3</ele>
        <time>2020-06-07T07:08:46.000Z</time>
      </trkpt>
      <trkpt lat="45.84163" lon="4.8045">
        <ele>494.3</ele>
        <time>2020-06-07T07:08:47.000Z</time>
      </trkpt>
      <trkpt lat="45.84161" lon="4.8045">
        <ele>494.3</ele>
        <time>2020-06-07T07:08:48.000Z</time>
      </trkpt>
      <trkpt lat="45.84159" lon="4.8045">
        <ele>494.3</ele>
        <time>2020-06-07T07:08:49.000Z</time>
      </trkpt>
      <trkpt lat="45.84157" lon="4.8045">
        <ele>494.4</ele>
        <time>2020-06-07T07:08:50.000Z</time>
      </trkpt>
      <trkpt lat="45.84156" lon="4.8045">
        <ele>494.4</ele>
        <time>2020-06-07T07:08:51.000Z</time>
      </trkpt>
      <trkpt lat="45.84153" lon="4.8045">
        <ele>494.5</ele>
        <time>2020-06-07T07:08:52.000Z</time>
      </trkpt>
      <trkpt lat="45.84151" lon="4.80451">
        <ele>494.6</ele>
        <time>2020-06-07T07:08:53.000Z</time>
      </trkpt>
      <trkpt lat="45.8415" lon="4.80451">
        <ele>494.7</ele>
        <time>2020-06-07T07:08:54.000Z</time>
      </trkpt>
      <trkpt lat="45.84148" lon="4.80452">
        <ele>494.8</ele>
        <time>2020-06-07T07:08:55.000Z</time>
      </trkpt>
      <trkpt lat="45.84146" lon="4.80453">
        <ele>494.9</ele>
        <time>2020-06-07T07:08:56.000Z</time>
      </trkpt>
      <trkpt lat="45.84144" lon="4.80454">
        <ele>495.1</ele>
        <time>2020-06-07T07:08:57.000Z</time>
      </trkpt>
      <trkpt lat="45.84141" lon="4.80454">
        <ele>495.3</ele>
        <time>2020-06-07T07:08:58.000Z</time>
      </trkpt>
      <trkpt lat="45.84139" lon="4.80454">
        <ele>495.5</ele>
        <time>2020-06-07T07:08:59.000Z</time>
      </trkpt>
      <trkpt lat="45.84136" lon="4.80454">
        <ele>495.7</ele>
        <time>2020-06-07T07:09:00.000Z</time>
      </trkpt>
      <trkpt lat="45.84133" lon="4.80455">
        <ele>495.9</ele>
        <time>2020-06-07T07:09:01.000Z</time>
      </trkpt>
      <trkpt lat="45.84131" lon="4.80456">
        <ele>496.1</ele>
        <time>2020-06-07T07:09:02.000Z</time>
      </trkpt>
      <trkpt lat="45.84128" lon="4.80457">
        <ele>496.3</ele>
        <time>2020-06-07T07:09:03.000Z</time>
      </trkpt>
      <trkpt lat="45.84125" lon="4.80457">
        <ele>496.5</ele>
        <time>2020-06-07T07:09:04.000Z</time>
      </trkpt>
      <trkpt lat="45.84123" lon="4.80457">
        <ele>496.6</ele>
        <time>2020-06-07T07:09:05.000Z</time>
      </trkpt>
      <trkpt lat="45.84119" lon="4.80458">
        <ele>496.8</ele>
        <time>2020-06-07T07:09:06.000Z</time>
      </trkpt>
      <trkpt lat="45.84116" lon="4.80459">
        <ele>496.9</ele>
        <time>2020-06-07T07:09:07.000Z</time>
      </trkpt>
      <trkpt lat="45.84114" lon="4.8046">
        <ele>497.1</ele>
        <time>2020-06-07T07:09:08.000Z</time>
      </trkpt>
      <trkpt lat="45.84111" lon="4.80461">
        <ele>497.2</ele>
        <time>2020-06-07T07:09:09.000Z</time>
      </trkpt>
      <trkpt lat="45.84108" lon="4.80461">
        <ele>497.3</ele>
        <time>2020-06-07T07:09:10.000Z</time>
      </trkpt>
      <trkpt lat="45.84105" lon="4.80462">
        <ele>497.4</ele>
        <time>2020-06-07T07:09:11.000Z</time>
      </trkpt>
      <trkpt lat="45.84103" lon="4.80462">
        <ele>497.6</ele>
        <time>2020-06-07T07:09:12.000Z</time>
      </trkpt>
      <trkpt lat="45.841" lon="4.80463">
        <ele>497.7</ele>
        <time>2020-06-07T07:09:13.000Z</time>
      </trkpt>
      <trkpt lat="45.84098" lon="4.80464">
        <ele>497.8</ele>
        <time>2020-06-07T07:09:14.000Z</time>
      </trkpt>
      <trkpt lat="45.84096" lon="4.80465">
        <ele>497.8</ele>
        <time>2020-06-07T07:09:15.000Z</time>
      </trkpt>
      <trkpt lat="45.84093" lon="4.80466">
        <ele>497.9</ele>
        <time>2020-06-07T07:09:16.000Z</time>
      </trkpt>
      <trkpt lat="45.8409" lon="4.80467">
        <ele>498</ele>
        <time>2020-06-07T07:09:17.000Z</time>
      </trkpt>
      <trkpt lat="45.84087" lon="4.80468">
        <ele>498.1</ele>
        <time>2020-06-07T07:09:18.000Z</time>
      </trkpt>
      <trkpt lat="45.84084" lon="4.80468">
        <ele>498.1</ele>
        <time>2020-06-07T07:09:19.000Z</time>
      </trkpt>
      <trkpt lat="45.84079" lon="4.80467">
        <ele>498.2</ele>
        <time>2020-06-07T07:09:20.000Z</time>
      </trkpt>
      <trkpt lat="45.84076" lon="4.80467">
        <ele>498.2</ele>
        <time>2020-06-07T07:09:21.000Z</time>
      </trkpt>
      <trkpt lat="45.84073" lon="4.80467">
        <ele>498.2</ele>
        <time>2020-06-07T07:09:22.000Z</time>
      </trkpt>
      <trkpt lat="45.84069" lon="4.80467">
        <ele>498.2</ele>
        <time>2020-06-07T07:09:23.000Z</time>
      </trkpt>
      <trkpt lat="45.84065" lon="4.80467">
        <ele>498.1</ele>
        <time>2020-06-07T07:09:24.000Z</time>
      </trkpt>
      <trkpt lat="45.8406" lon="4.80469">
        <ele>498.1</ele>
        <time>2020-06-07T07:09:25.000Z</time>
      </trkpt>
      <trkpt lat="45.84055" lon="4.80469">
        <ele>498</ele>
        <time>2020-06-07T07:09:26.000Z</time>
      </trkpt>
      <trkpt lat="45.8405" lon="4.80469">
        <ele>497.9</ele>
        <time>2020-06-07T07:09:27.000Z</time>
      </trkpt>
      <trkpt lat="45.84044" lon="4.80468">
        <ele>497.8</ele>
        <time>2020-06-07T07:09:28.000Z</time>
      </trkpt>
      <trkpt lat="45.84038" lon="4.80469">
        <ele>497.6</ele>
        <time>2020-06-07T07:09:29.000Z</time>
      </trkpt>
      <trkpt lat="45.84033" lon="4.80468">
        <ele>497.5</ele>
        <time>2020-06-07T07:09:30.000Z</time>
      </trkpt>
      <trkpt lat="45.84028" lon="4.80469">
        <ele>497.5</ele>
        <time>2020-06-07T07:09:31.000Z</time>
      </trkpt>
      <trkpt lat="45.84022" lon="4.80469">
        <ele>497.4</ele>
        <time>2020-06-07T07:09:32.000Z</time>
      </trkpt>
      <trkpt lat="45.84017" lon="4.80468">
        <ele>497.3</ele>
        <time>2020-06-07T07:09:33.000Z</time>
      </trkpt>
      <trkpt lat="45.84012" lon="4.80468">
        <ele>497.3</ele>
        <time>2020-06-07T07:09:34.000Z</time>
      </trkpt>
      <trkpt lat="45.84007" lon="4.80468">
        <ele>497.3</ele>
        <time>2020-06-07T07:09:35.000Z</time>
      </trkpt>
      <trkpt lat="45.84002" lon="4.80469">
        <ele>497.2</ele>
        <time>2020-06-07T07:09:36.000Z</time>
      </trkpt>
      <trkpt lat="45.83997" lon="4.8047">
        <ele>497.2</ele>
        <time>2020-06-07T07:09:37.000Z</time>
      </trkpt>
      <trkpt lat="45.83992" lon="4.80471">
        <ele>497.1</ele>
        <time>2020-06-07T07:09:38.000Z</time>
      </trkpt>
      <trkpt lat="45.83987" lon="4.80471">
        <ele>497</ele>
        <time>2020-06-07T07:09:39.000Z</time>
      </trkpt>
      <trkpt lat="45.83983" lon="4.8047">
        <ele>496.9</ele>
        <time>2020-06-07T07:09:40.000Z</time>
      </trkpt>
      <trkpt lat="45.83978" lon="4.80469">
        <ele>496.7</ele>
        <time>2020-06-07T07:09:41.000Z</time>
      </trkpt>
      <trkpt lat="45.83973" lon="4.80468">
        <ele>496.6</ele>
        <time>2020-06-07T07:09:42.000Z</time>
      </trkpt>
      <trkpt lat="45.83968" lon="4.80468">
        <ele>496.4</ele>
        <time>2020-06-07T07:09:43.000Z</time>
      </trkpt>
      <trkpt lat="45.83963" lon="4.80468">
        <ele>496.1</ele>
        <time>2020-06-07T07:09:44.000Z</time>
      </trkpt>
      <trkpt lat="45.83958" lon="4.80468">
        <ele>495.9</ele>
        <time>2020-06-07T07:09:45.000Z</time>
      </trkpt>
      <trkpt lat="45.83952" lon="4.80468">
        <ele>495.7</ele>
        <time>2020-06-07T07:09:46.000Z</time>
      </trkpt>
      <trkpt lat="45.83946" lon="4.80467">
        <ele>495.4</ele>
        <time>2020-06-07T07:09:47.000Z</time>
      </trkpt>
      <trkpt lat="45.8394" lon="4.80467">
        <ele>495.1</ele>
        <time>2020-06-07T07:09:48.000Z</time>
      </trkpt>
      <trkpt lat="45.83935" lon="4.80468">
        <ele>494.8</ele>
        <time>2020-06-07T07:09:49.000Z</time>
      </trkpt>
      <trkpt lat="45.8393" lon="4.80467">
        <ele>494.5</ele>
        <time>2020-06-07T07:09:50.000Z</time>
      </trkpt>
      <trkpt lat="45.83924" lon="4.80466">
        <ele>494.1</ele>
        <time>2020-06-07T07:09:51.000Z</time>
      </trkpt>
      <trkpt lat="45.83919" lon="4.80466">
        <ele>493.8</ele>
        <time>2020-06-07T07:09:52.000Z</time>
      </trkpt>
      <trkpt lat="45.83914" lon="4.80465">
        <ele>493.3</ele>
        <time>2020-06-07T07:09:53.000Z</time>
      </trkpt>
      <trkpt lat="45.8391" lon="4.80464">
        <ele>492.9</ele>
        <time>2020-06-07T07:09:54.000Z</time>
      </trkpt>
      <trkpt lat="45.83906" lon="4.80463">
        <ele>492.5</ele>
        <time>2020-06-07T07:09:55.000Z</time>
      </trkpt>
      <trkpt lat="45.83902" lon="4.80461">
        <ele>492.1</ele>
        <time>2020-06-07T07:09:56.000Z</time>
      </trkpt>
      <trkpt lat="45.83899" lon="4.80459">
        <ele>491.7</ele>
        <time>2020-06-07T07:09:57.000Z</time>
      </trkpt>
      <trkpt lat="45.83894" lon="4.80456">
        <ele>491.1</ele>
        <time>2020-06-07T07:09:58.000Z</time>
      </trkpt>
      <trkpt lat="45.83891" lon="4.80453">
        <ele>490.2</ele>
        <time>2020-06-07T07:09:59.000Z</time>
      </trkpt>
      <trkpt lat="45.83887" lon="4.80449">
        <ele>489.3</ele>
        <time>2020-06-07T07:10:00.000Z</time>
      </trkpt>
      <trkpt lat="45.83883" lon="4.80446">
        <ele>488.3</ele>
        <time>2020-06-07T07:10:01.000Z</time>
      </trkpt>
      <trkpt lat="45.8388" lon="4.80443">
        <ele>487.5</ele>
        <time>2020-06-07T07:10:02.000Z</time>
      </trkpt>
      <trkpt lat="45.83877" lon="4.8044">
        <ele>486.6</ele>
        <time>2020-06-07T07:10:03.000Z</time>
      </trkpt>
      <trkpt lat="45.83874" lon="4.80438">
        <ele>485.8</ele>
        <time>2020-06-07T07:10:04.000Z</time>
      </trkpt>
      <trkpt lat="45.83871" lon="4.80436">
        <ele>484.9</ele>
        <time>2020-06-07T07:10:05.000Z</time>
      </trkpt>
      <trkpt lat="45.83869" lon="4.80437">
        <ele>484</ele>
        <time>2020-06-07T07:10:06.000Z</time>
      </trkpt>
      <trkpt lat="45.83866" lon="4.80439">
        <ele>483</ele>
        <time>2020-06-07T07:10:07.000Z</time>
      </trkpt>
      <trkpt lat="45.83863" lon="4.80444">
        <ele>481.9</ele>
        <time>2020-06-07T07:10:08.000Z</time>
      </trkpt>
      <trkpt lat="45.83861" lon="4.80449">
        <ele>480.4</ele>
        <time>2020-06-07T07:10:09.000Z</time>
      </trkpt>
      <trkpt lat="45.83859" lon="4.80456">
        <ele>478.8</ele>
        <time>2020-06-07T07:10:10.000Z</time>
      </trkpt>
      <trkpt lat="45.83857" lon="4.80464">
        <ele>477.2</ele>
        <time>2020-06-07T07:10:11.000Z</time>
      </trkpt>
      <trkpt lat="45.83855" lon="4.80472">
        <ele>475.4</ele>
        <time>2020-06-07T07:10:12.000Z</time>
      </trkpt>
      <trkpt lat="45.83853" lon="4.8048">
        <ele>473.7</ele>
        <time>2020-06-07T07:10:13.000Z</time>
      </trkpt>
      <trkpt lat="45.83851" lon="4.8049">
        <ele>471.8</ele>
        <time>2020-06-07T07:10:14.000Z</time>
      </trkpt>
      <trkpt lat="45.83851" lon="4.805">
        <ele>470</ele>
        <time>2020-06-07T07:10:15.000Z</time>
      </trkpt>
      <trkpt lat="45.83849" lon="4.8051">
        <ele>468.2</ele>
        <time>2020-06-07T07:10:16.000Z</time>
      </trkpt>
      <trkpt lat="45.83847" lon="4.8052">
        <ele>466.5</ele>
        <time>2020-06-07T07:10:17.000Z</time>
      </trkpt>
      <trkpt lat="45.83845" lon="4.80531">
        <ele>464.8</ele>
        <time>2020-06-07T07:10:18.000Z</time>
      </trkpt>
      <trkpt lat="45.83844" lon="4.80541">
        <ele>463.3</ele>
        <time>2020-06-07T07:10:19.000Z</time>
      </trkpt>
      <trkpt lat="45.83843" lon="4.80552">
        <ele>461.8</ele>
        <time>2020-06-07T07:10:20.000Z</time>
      </trkpt>
      <trkpt lat="45.83842" lon="4.8056">
        <ele>460.5</ele>
        <time>2020-06-07T07:10:21.000Z</time>
      </trkpt>
      <trkpt lat="45.8384" lon="4.80567">
        <ele>459.2</ele>
        <time>2020-06-07T07:10:22.000Z</time>
      </trkpt>
      <trkpt lat="45.83839" lon="4.80572">
        <ele>458.1</ele>
        <time>2020-06-07T07:10:23.000Z</time>
      </trkpt>
      <trkpt lat="45.83838" lon="4.80577">
        <ele>456.3</ele>
        <time>2020-06-07T07:10:24.000Z</time>
      </trkpt>
      <trkpt lat="45.83838" lon="4.8058">
        <ele>456</ele>
        <time>2020-06-07T07:10:25.000Z</time>
      </trkpt>
      <trkpt lat="45.83832" lon="4.80579">
        <ele>455</ele>
        <time>2020-06-07T07:10:26.000Z</time>
      </trkpt>
      <trkpt lat="45.8383" lon="4.80579">
        <ele>454.8</ele>
        <time>2020-06-07T07:10:27.000Z</time>
      </trkpt>
      <trkpt lat="45.83828" lon="4.80578">
        <ele>454.5</ele>
        <time>2020-06-07T07:10:28.000Z</time>
      </trkpt>
      <trkpt lat="45.83828" lon="4.80576">
        <ele>454.3</ele>
        <time>2020-06-07T07:10:29.000Z</time>
      </trkpt>
      <trkpt lat="45.83827" lon="4.80573">
        <ele>454</ele>
        <time>2020-06-07T07:10:30.000Z</time>
      </trkpt>
      <trkpt lat="45.83827" lon="4.80571">
        <ele>453.7</ele>
        <time>2020-06-07T07:10:31.000Z</time>
      </trkpt>
      <trkpt lat="45.83827" lon="4.80567">
        <ele>453.3</ele>
        <time>2020-06-07T07:10:32.000Z</time>
      </trkpt>
      <trkpt lat="45.83825" lon="4.80563">
        <ele>452.8</ele>
        <time>2020-06-07T07:10:33.000Z</time>
      </trkpt>
      <trkpt lat="45.83823" lon="4.80559">
        <ele>452.3</ele>
        <time>2020-06-07T07:10:34.000Z</time>
      </trkpt>
      <trkpt lat="45.8382" lon="4.80554">
        <ele>451.7</ele>
        <time>2020-06-07T07:10:35.000Z</time>
      </trkpt>
      <trkpt lat="45.83817" lon="4.80551">
        <ele>451.1</ele>
        <time>2020-06-07T07:10:36.000Z</time>
      </trkpt>
      <trkpt lat="45.8381" lon="4.80547">
        <ele>450.1</ele>
        <time>2020-06-07T07:10:37.000Z</time>
      </trkpt>
      <trkpt lat="45.83804" lon="4.80544">
        <ele>449.3</ele>
        <time>2020-06-07T07:10:38.000Z</time>
      </trkpt>
      <trkpt lat="45.83797" lon="4.80541">
        <ele>448.7</ele>
        <time>2020-06-07T07:10:39.000Z</time>
      </trkpt>
      <trkpt lat="45.8379" lon="4.80539">
        <ele>447.9</ele>
        <time>2020-06-07T07:10:40.000Z</time>
      </trkpt>
      <trkpt lat="45.83782" lon="4.80539">
        <ele>447.2</ele>
        <time>2020-06-07T07:10:41.000Z</time>
      </trkpt>
      <trkpt lat="45.83773" lon="4.80539">
        <ele>446.4</ele>
        <time>2020-06-07T07:10:42.000Z</time>
      </trkpt>
      <trkpt lat="45.83765" lon="4.80542">
        <ele>445.5</ele>
        <time>2020-06-07T07:10:43.000Z</time>
      </trkpt>
      <trkpt lat="45.83758" lon="4.80546">
        <ele>444.8</ele>
        <time>2020-06-07T07:10:44.000Z</time>
      </trkpt>
      <trkpt lat="45.83751" lon="4.80548">
        <ele>444</ele>
        <time>2020-06-07T07:10:45.000Z</time>
      </trkpt>
      <trkpt lat="45.83739" lon="4.80546">
        <ele>443.1</ele>
        <time>2020-06-07T07:10:46.000Z</time>
      </trkpt>
      <trkpt lat="45.83728" lon="4.80545">
        <ele>442.6</ele>
        <time>2020-06-07T07:10:47.000Z</time>
      </trkpt>
      <trkpt lat="45.8372" lon="4.80545">
        <ele>442.3</ele>
        <time>2020-06-07T07:10:48.000Z</time>
      </trkpt>
      <trkpt lat="45.83711" lon="4.80545">
        <ele>442</ele>
        <time>2020-06-07T07:10:49.000Z</time>
      </trkpt>
      <trkpt lat="45.83702" lon="4.80545">
        <ele>441.9</ele>
        <time>2020-06-07T07:10:50.000Z</time>
      </trkpt>
      <trkpt lat="45.83694" lon="4.80547">
        <ele>441.8</ele>
        <time>2020-06-07T07:10:51.000Z</time>
      </trkpt>
      <trkpt lat="45.83687" lon="4.8055">
        <ele>441.7</ele>
        <time>2020-06-07T07:10:52.000Z</time>
      </trkpt>
      <trkpt lat="45.8368" lon="4.80555">
        <ele>441.6</ele>
        <time>2020-06-07T07:10:53.000Z</time>
      </trkpt>
      <trkpt lat="45.83673" lon="4.80559">
        <ele>441.5</ele>
        <time>2020-06-07T07:10:54.000Z</time>
      </trkpt>
      <trkpt lat="45.83667" lon="4.80564">
        <ele>441.4</ele>
        <time>2020-06-07T07:10:55.000Z</time>
      </trkpt>
      <trkpt lat="45.83661" lon="4.80569">
        <ele>441.4</ele>
        <time>2020-06-07T07:10:56.000Z</time>
      </trkpt>
      <trkpt lat="45.83656" lon="4.80574">
        <ele>441.4</ele>
        <time>2020-06-07T07:10:57.000Z</time>
      </trkpt>
      <trkpt lat="45.83651" lon="4.80578">
        <ele>441.4</ele>
        <time>2020-06-07T07:10:58.000Z</time>
      </trkpt>
      <trkpt lat="45.83646" lon="4.80582">
        <ele>441.4</ele>
        <time>2020-06-07T07:10:59.000Z</time>
      </trkpt>
      <trkpt lat="45.83642" lon="4.80586">
        <ele>441.4</ele>
        <time>2020-06-07T07:11:00.000Z</time>
      </trkpt>
      <trkpt lat="45.83638" lon="4.8059">
        <ele>441.3</ele>
        <time>2020-06-07T07:11:01.000Z</time>
      </trkpt>
      <trkpt lat="45.83635" lon="4.80593">
        <ele>441.3</ele>
        <time>2020-06-07T07:11:02.000Z</time>
      </trkpt>
      <trkpt lat="45.83632" lon="4.80596">
        <ele>441.3</ele>
        <time>2020-06-07T07:11:03.000Z</time>
      </trkpt>
      <trkpt lat="45.83628" lon="4.80598">
        <ele>441.3</ele>
        <time>2020-06-07T07:11:04.000Z</time>
      </trkpt>
      <trkpt lat="45.83624" lon="4.80599">
        <ele>441.2</ele>
        <time>2020-06-07T07:11:05.000Z</time>
      </trkpt>
      <trkpt lat="45.83619" lon="4.80601">
        <ele>441.1</ele>
        <time>2020-06-07T07:11:06.000Z</time>
      </trkpt>
      <trkpt lat="45.83615" lon="4.80603">
        <ele>441</ele>
        <time>2020-06-07T07:11:07.000Z</time>
      </trkpt>
      <trkpt lat="45.83611" lon="4.80605">
        <ele>440.8</ele>
        <time>2020-06-07T07:11:08.000Z</time>
      </trkpt>
      <trkpt lat="45.83606" lon="4.80607">
        <ele>440.7</ele>
        <time>2020-06-07T07:11:09.000Z</time>
      </trkpt>
      <trkpt lat="45.83601" lon="4.8061">
        <ele>440.4</ele>
        <time>2020-06-07T07:11:10.000Z</time>
      </trkpt>
      <trkpt lat="45.83597" lon="4.80612">
        <ele>440.1</ele>
        <time>2020-06-07T07:11:11.000Z</time>
      </trkpt>
      <trkpt lat="45.83592" lon="4.80615">
        <ele>439.8</ele>
        <time>2020-06-07T07:11:12.000Z</time>
      </trkpt>
      <trkpt lat="45.83586" lon="4.80618">
        <ele>439.4</ele>
        <time>2020-06-07T07:11:13.000Z</time>
      </trkpt>
      <trkpt lat="45.83581" lon="4.80622">
        <ele>439</ele>
        <time>2020-06-07T07:11:14.000Z</time>
      </trkpt>
      <trkpt lat="45.83576" lon="4.80625">
        <ele>438.6</ele>
        <time>2020-06-07T07:11:15.000Z</time>
      </trkpt>
      <trkpt lat="45.8357" lon="4.80629">
        <ele>438.2</ele>
        <time>2020-06-07T07:11:16.000Z</time>
      </trkpt>
      <trkpt lat="45.83565" lon="4.80633">
        <ele>437.7</ele>
        <time>2020-06-07T07:11:17.000Z</time>
      </trkpt>
      <trkpt lat="45.83559" lon="4.80637">
        <ele>437.2</ele>
        <time>2020-06-07T07:11:18.000Z</time>
      </trkpt>
      <trkpt lat="45.83553" lon="4.80642">
        <ele>436.7</ele>
        <time>2020-06-07T07:11:19.000Z</time>
      </trkpt>
      <trkpt lat="45.83546" lon="4.80647">
        <ele>436.1</ele>
        <time>2020-06-07T07:11:20.000Z</time>
      </trkpt>
      <trkpt lat="45.83539" lon="4.80652">
        <ele>435.5</ele>
        <time>2020-06-07T07:11:21.000Z</time>
      </trkpt>
      <trkpt lat="45.83532" lon="4.80657">
        <ele>435</ele>
        <time>2020-06-07T07:11:22.000Z</time>
      </trkpt>
      <trkpt lat="45.83525" lon="4.80662">
        <ele>434.5</ele>
        <time>2020-06-07T07:11:23.000Z</time>
      </trkpt>
      <trkpt lat="45.83517" lon="4.80667">
        <ele>434.1</ele>
        <time>2020-06-07T07:11:24.000Z</time>
      </trkpt>
      <trkpt lat="45.8351" lon="4.80672">
        <ele>433.7</ele>
        <time>2020-06-07T07:11:25.000Z</time>
      </trkpt>
      <trkpt lat="45.83502" lon="4.80676">
        <ele>433.4</ele>
        <time>2020-06-07T07:11:26.000Z</time>
      </trkpt>
      <trkpt lat="45.83495" lon="4.80681">
        <ele>433.1</ele>
        <time>2020-06-07T07:11:27.000Z</time>
      </trkpt>
      <trkpt lat="45.83486" lon="4.80685">
        <ele>432.8</ele>
        <time>2020-06-07T07:11:28.000Z</time>
      </trkpt>
      <trkpt lat="45.83479" lon="4.80689">
        <ele>432.6</ele>
        <time>2020-06-07T07:11:29.000Z</time>
      </trkpt>
      <trkpt lat="45.83471" lon="4.80692">
        <ele>432.4</ele>
        <time>2020-06-07T07:11:30.000Z</time>
      </trkpt>
      <trkpt lat="45.83464" lon="4.80695">
        <ele>432.3</ele>
        <time>2020-06-07T07:11:31.000Z</time>
      </trkpt>
      <trkpt lat="45.83457" lon="4.80698">
        <ele>432.3</ele>
        <time>2020-06-07T07:11:32.000Z</time>
      </trkpt>
      <trkpt lat="45.8345" lon="4.80701">
        <ele>432.3</ele>
        <time>2020-06-07T07:11:33.000Z</time>
      </trkpt>
      <trkpt lat="45.83444" lon="4.80705">
        <ele>432.3</ele>
        <time>2020-06-07T07:11:34.000Z</time>
      </trkpt>
      <trkpt lat="45.83438" lon="4.80709">
        <ele>432.4</ele>
        <time>2020-06-07T07:11:35.000Z</time>
      </trkpt>
      <trkpt lat="45.83432" lon="4.80711">
        <ele>432.5</ele>
        <time>2020-06-07T07:11:36.000Z</time>
      </trkpt>
      <trkpt lat="45.83428" lon="4.80715">
        <ele>432.7</ele>
        <time>2020-06-07T07:11:37.000Z</time>
      </trkpt>
      <trkpt lat="45.83424" lon="4.80718">
        <ele>432.8</ele>
        <time>2020-06-07T07:11:38.000Z</time>
      </trkpt>
      <trkpt lat="45.83421" lon="4.80721">
        <ele>432.9</ele>
        <time>2020-06-07T07:11:39.000Z</time>
      </trkpt>
      <trkpt lat="45.83419" lon="4.80723">
        <ele>433.3</ele>
        <time>2020-06-07T07:11:40.000Z</time>
      </trkpt>
      <trkpt lat="45.83418" lon="4.80723">
        <ele>433.3</ele>
        <time>2020-06-07T07:11:41.000Z</time>
      </trkpt>
      <trkpt lat="45.83417" lon="4.80724">
        <ele>433.3</ele>
        <time>2020-06-07T07:11:42.000Z</time>
      </trkpt>
      <trkpt lat="45.83417" lon="4.80724">
        <ele>433.3</ele>
        <time>2020-06-07T07:11:43.000Z</time>
      </trkpt>
      <trkpt lat="45.83417" lon="4.80725">
        <ele>433.3</ele>
        <time>2020-06-07T07:11:44.000Z</time>
      </trkpt>
      <trkpt lat="45.83417" lon="4.80725">
        <ele>433.3</ele>
        <time>2020-06-07T07:11:45.000Z</time>
      </trkpt>
      <trkpt lat="45.83419" lon="4.80727">
        <ele>433.3</ele>
        <time>2020-06-07T07:12:03.000Z</time>
      </trkpt>
      <trkpt lat="45.83419" lon="4.80727">
        <ele>433.3</ele>
        <time>2020-06-07T07:12:04.000Z</time>
      </trkpt>
      <trkpt lat="45.83405" lon="4.80743">
        <ele>431.7</ele>
        <time>2020-06-07T07:12:29.000Z</time>
      </trkpt>
      <trkpt lat="45.83403" lon="4.80745">
        <ele>431.5</ele>
        <time>2020-06-07T07:12:30.000Z</time>
      </trkpt>
      <trkpt lat="45.834" lon="4.80748">
        <ele>431.3</ele>
        <time>2020-06-07T07:12:31.000Z</time>
      </trkpt>
      <trkpt lat="45.83397" lon="4.80751">
        <ele>431</ele>
        <time>2020-06-07T07:12:32.000Z</time>
      </trkpt>
      <trkpt lat="45.83394" lon="4.80754">
        <ele>430.7</ele>
        <time>2020-06-07T07:12:33.000Z</time>
      </trkpt>
      <trkpt lat="45.8339" lon="4.80757">
        <ele>430.3</ele>
        <time>2020-06-07T07:12:34.000Z</time>
      </trkpt>
      <trkpt lat="45.83386" lon="4.8076">
        <ele>430</ele>
        <time>2020-06-07T07:12:35.000Z</time>
      </trkpt>
      <trkpt lat="45.83381" lon="4.80763">
        <ele>429.6</ele>
        <time>2020-06-07T07:12:36.000Z</time>
      </trkpt>
      <trkpt lat="45.83377" lon="4.80767">
        <ele>429.1</ele>
        <time>2020-06-07T07:12:37.000Z</time>
      </trkpt>
      <trkpt lat="45.83373" lon="4.80771">
        <ele>428.5</ele>
        <time>2020-06-07T07:12:38.000Z</time>
      </trkpt>
      <trkpt lat="45.83368" lon="4.80775">
        <ele>427.9</ele>
        <time>2020-06-07T07:12:39.000Z</time>
      </trkpt>
      <trkpt lat="45.83364" lon="4.80779">
        <ele>427.2</ele>
        <time>2020-06-07T07:12:40.000Z</time>
      </trkpt>
      <trkpt lat="45.8336" lon="4.80784">
        <ele>426.4</ele>
        <time>2020-06-07T07:12:41.000Z</time>
      </trkpt>
      <trkpt lat="45.83355" lon="4.80789">
        <ele>425.7</ele>
        <time>2020-06-07T07:12:42.000Z</time>
      </trkpt>
      <trkpt lat="45.83351" lon="4.80793">
        <ele>425</ele>
        <time>2020-06-07T07:12:43.000Z</time>
      </trkpt>
      <trkpt lat="45.83347" lon="4.80797">
        <ele>424.4</ele>
        <time>2020-06-07T07:12:44.000Z</time>
      </trkpt>
      <trkpt lat="45.83343" lon="4.80802">
        <ele>423.8</ele>
        <time>2020-06-07T07:12:45.000Z</time>
      </trkpt>
      <trkpt lat="45.83339" lon="4.80806">
        <ele>423.2</ele>
        <time>2020-06-07T07:12:46.000Z</time>
      </trkpt>
      <trkpt lat="45.83336" lon="4.8081">
        <ele>422.6</ele>
        <time>2020-06-07T07:12:47.000Z</time>
      </trkpt>
      <trkpt lat="45.83332" lon="4.80813">
        <ele>422.1</ele>
        <time>2020-06-07T07:12:48.000Z</time>
      </trkpt>
      <trkpt lat="45.83329" lon="4.80816">
        <ele>421.6</ele>
        <time>2020-06-07T07:12:49.000Z</time>
      </trkpt>
      <trkpt lat="45.83326" lon="4.8082">
        <ele>421</ele>
        <time>2020-06-07T07:12:50.000Z</time>
      </trkpt>
      <trkpt lat="45.83323" lon="4.80823">
        <ele>420.4</ele>
        <time>2020-06-07T07:12:51.000Z</time>
      </trkpt>
      <trkpt lat="45.8332" lon="4.80827">
        <ele>419.8</ele>
        <time>2020-06-07T07:12:52.000Z</time>
      </trkpt>
      <trkpt lat="45.83316" lon="4.80831">
        <ele>419.1</ele>
        <time>2020-06-07T07:12:53.000Z</time>
      </trkpt>
      <trkpt lat="45.83312" lon="4.80835">
        <ele>418.3</ele>
        <time>2020-06-07T07:12:54.000Z</time>
      </trkpt>
      <trkpt lat="45.83309" lon="4.80839">
        <ele>417.6</ele>
        <time>2020-06-07T07:12:55.000Z</time>
      </trkpt>
      <trkpt lat="45.83305" lon="4.80843">
        <ele>416.8</ele>
        <time>2020-06-07T07:12:56.000Z</time>
      </trkpt>
      <trkpt lat="45.83302" lon="4.80846">
        <ele>416.2</ele>
        <time>2020-06-07T07:12:57.000Z</time>
      </trkpt>
      <trkpt lat="45.83299" lon="4.80849">
        <ele>415.6</ele>
        <time>2020-06-07T07:12:58.000Z</time>
      </trkpt>
      <trkpt lat="45.83297" lon="4.8085">
        <ele>415.2</ele>
        <time>2020-06-07T07:12:59.000Z</time>
      </trkpt>
      <trkpt lat="45.83296" lon="4.8085">
        <ele>415</ele>
        <time>2020-06-07T07:13:00.000Z</time>
      </trkpt>
      <trkpt lat="45.83295" lon="4.80848">
        <ele>414.7</ele>
        <time>2020-06-07T07:13:01.000Z</time>
      </trkpt>
      <trkpt lat="45.83294" lon="4.80844">
        <ele>414</ele>
        <time>2020-06-07T07:13:02.000Z</time>
      </trkpt>
      <trkpt lat="45.83293" lon="4.80839">
        <ele>413.9</ele>
        <time>2020-06-07T07:13:03.000Z</time>
      </trkpt>
      <trkpt lat="45.83291" lon="4.80834">
        <ele>413.9</ele>
        <time>2020-06-07T07:13:04.000Z</time>
      </trkpt>
      <trkpt lat="45.8329" lon="4.80828">
        <ele>414</ele>
        <time>2020-06-07T07:13:05.000Z</time>
      </trkpt>
      <trkpt lat="45.83288" lon="4.80822">
        <ele>414.2</ele>
        <time>2020-06-07T07:13:06.000Z</time>
      </trkpt>
      <trkpt lat="45.83286" lon="4.80817">
        <ele>414.6</ele>
        <time>2020-06-07T07:13:07.000Z</time>
      </trkpt>
      <trkpt lat="45.83285" lon="4.80812">
        <ele>415.1</ele>
        <time>2020-06-07T07:13:08.000Z</time>
      </trkpt>
      <trkpt lat="45.83283" lon="4.80808">
        <ele>415.7</ele>
        <time>2020-06-07T07:13:09.000Z</time>
      </trkpt>
      <trkpt lat="45.83281" lon="4.80804">
        <ele>416.2</ele>
        <time>2020-06-07T07:13:10.000Z</time>
      </trkpt>
      <trkpt lat="45.83281" lon="4.80801">
        <ele>416.5</ele>
        <time>2020-06-07T07:13:11.000Z</time>
      </trkpt>
      <trkpt lat="45.8328" lon="4.808">
        <ele>416.8</ele>
        <time>2020-06-07T07:13:12.000Z</time>
      </trkpt>
      <trkpt lat="45.83279" lon="4.80799">
        <ele>417</ele>
        <time>2020-06-07T07:13:13.000Z</time>
      </trkpt>
      <trkpt lat="45.83278" lon="4.80797">
        <ele>417.2</ele>
        <time>2020-06-07T07:13:14.000Z</time>
      </trkpt>
      <trkpt lat="45.83277" lon="4.80795">
        <ele>417.4</ele>
        <time>2020-06-07T07:13:15.000Z</time>
      </trkpt>
      <trkpt lat="45.83276" lon="4.80793">
        <ele>417.6</ele>
        <time>2020-06-07T07:13:16.000Z</time>
      </trkpt>
      <trkpt lat="45.83276" lon="4.80791">
        <ele>417.7</ele>
        <time>2020-06-07T07:13:17.000Z</time>
      </trkpt>
      <trkpt lat="45.83275" lon="4.8079">
        <ele>417.8</ele>
        <time>2020-06-07T07:13:18.000Z</time>
      </trkpt>
      <trkpt lat="45.83274" lon="4.80789">
        <ele>417.9</ele>
        <time>2020-06-07T07:13:19.000Z</time>
      </trkpt>
      <trkpt lat="45.83273" lon="4.80788">
        <ele>418</ele>
        <time>2020-06-07T07:13:20.000Z</time>
      </trkpt>
      <trkpt lat="45.83271" lon="4.80789">
        <ele>418.1</ele>
        <time>2020-06-07T07:13:21.000Z</time>
      </trkpt>
      <trkpt lat="45.8327" lon="4.80789">
        <ele>418.1</ele>
        <time>2020-06-07T07:13:22.000Z</time>
      </trkpt>
      <trkpt lat="45.83268" lon="4.80789">
        <ele>418.1</ele>
        <time>2020-06-07T07:13:23.000Z</time>
      </trkpt>
      <trkpt lat="45.83267" lon="4.80788">
        <ele>418.1</ele>
        <time>2020-06-07T07:13:24.000Z</time>
      </trkpt>
      <trkpt lat="45.83266" lon="4.80786">
        <ele>418.1</ele>
        <time>2020-06-07T07:13:25.000Z</time>
      </trkpt>
      <trkpt lat="45.83266" lon="4.80784">
        <ele>418</ele>
        <time>2020-06-07T07:13:26.000Z</time>
      </trkpt>
      <trkpt lat="45.83265" lon="4.80784">
        <ele>418</ele>
        <time>2020-06-07T07:13:27.000Z</time>
      </trkpt>
      <trkpt lat="45.83265" lon="4.80784">
        <ele>418</ele>
        <time>2020-06-07T07:13:28.000Z</time>
      </trkpt>
      <trkpt lat="45.83265" lon="4.80784">
        <ele>418</ele>
        <time>2020-06-07T07:13:29.000Z</time>
      </trkpt>
      <trkpt lat="45.83253" lon="4.80786">
        <ele>417.3</ele>
        <time>2020-06-07T07:14:05.000Z</time>
      </trkpt>
      <trkpt lat="45.83252" lon="4.80787">
        <ele>417.2</ele>
        <time>2020-06-07T07:14:06.000Z</time>
      </trkpt>
      <trkpt lat="45.83249" lon="4.80788">
        <ele>416.9</ele>
        <time>2020-06-07T07:14:07.000Z</time>
      </trkpt>
      <trkpt lat="45.83246" lon="4.8079">
        <ele>416.6</ele>
        <time>2020-06-07T07:14:08.000Z</time>
      </trkpt>
      <trkpt lat="45.83244" lon="4.80792">
        <ele>416.2</ele>
        <time>2020-06-07T07:14:09.000Z</time>
      </trkpt>
      <trkpt lat="45.83241" lon="4.80796">
        <ele>415.8</ele>
        <time>2020-06-07T07:14:10.000Z</time>
      </trkpt>
      <trkpt lat="45.83238" lon="4.80799">
        <ele>415.3</ele>
        <time>2020-06-07T07:14:11.000Z</time>
      </trkpt>
      <trkpt lat="45.83235" lon="4.80803">
        <ele>414.8</ele>
        <time>2020-06-07T07:14:12.000Z</time>
      </trkpt>
      <trkpt lat="45.83232" lon="4.80807">
        <ele>414.4</ele>
        <time>2020-06-07T07:14:13.000Z</time>
      </trkpt>
      <trkpt lat="45.83228" lon="4.8081">
        <ele>413.8</ele>
        <time>2020-06-07T07:14:14.000Z</time>
      </trkpt>
      <trkpt lat="45.83224" lon="4.80813">
        <ele>413.4</ele>
        <time>2020-06-07T07:14:15.000Z</time>
      </trkpt>
      <trkpt lat="45.83221" lon="4.80816">
        <ele>413</ele>
        <time>2020-06-07T07:14:16.000Z</time>
      </trkpt>
      <trkpt lat="45.83218" lon="4.80818">
        <ele>412.7</ele>
        <time>2020-06-07T07:14:17.000Z</time>
      </trkpt>
      <trkpt lat="45.83215" lon="4.8082">
        <ele>412.2</ele>
        <time>2020-06-07T07:14:18.000Z</time>
      </trkpt>
      <trkpt lat="45.83212" lon="4.80823">
        <ele>411.8</ele>
        <time>2020-06-07T07:14:19.000Z</time>
      </trkpt>
      <trkpt lat="45.83209" lon="4.80825">
        <ele>411.4</ele>
        <time>2020-06-07T07:14:20.000Z</time>
      </trkpt>
      <trkpt lat="45.83207" lon="4.80827">
        <ele>411</ele>
        <time>2020-06-07T07:14:21.000Z</time>
      </trkpt>
      <trkpt lat="45.83204" lon="4.8083">
        <ele>410.6</ele>
        <time>2020-06-07T07:14:22.000Z</time>
      </trkpt>
      <trkpt lat="45.83202" lon="4.80832">
        <ele>410.1</ele>
        <time>2020-06-07T07:14:23.000Z</time>
      </trkpt>
      <trkpt lat="45.832" lon="4.80835">
        <ele>409.6</ele>
        <time>2020-06-07T07:14:24.000Z</time>
      </trkpt>
      <trkpt lat="45.83198" lon="4.80838">
        <ele>409.2</ele>
        <time>2020-06-07T07:14:25.000Z</time>
      </trkpt>
      <trkpt lat="45.83196" lon="4.80841">
        <ele>408.7</ele>
        <time>2020-06-07T07:14:26.000Z</time>
      </trkpt>
      <trkpt lat="45.83194" lon="4.80845">
        <ele>408</ele>
        <time>2020-06-07T07:14:27.000Z</time>
      </trkpt>
      <trkpt lat="45.83191" lon="4.80848">
        <ele>407.3</ele>
        <time>2020-06-07T07:14:28.000Z</time>
      </trkpt>
      <trkpt lat="45.83187" lon="4.80852">
        <ele>406.4</ele>
        <time>2020-06-07T07:14:29.000Z</time>
      </trkpt>
      <trkpt lat="45.83184" lon="4.80856">
        <ele>405.4</ele>
        <time>2020-06-07T07:14:30.000Z</time>
      </trkpt>
      <trkpt lat="45.83182" lon="4.8086">
        <ele>404.6</ele>
        <time>2020-06-07T07:14:31.000Z</time>
      </trkpt>
      <trkpt lat="45.8318" lon="4.80862">
        <ele>404</ele>
        <time>2020-06-07T07:14:32.000Z</time>
      </trkpt>
      <trkpt lat="45.83179" lon="4.80865">
        <ele>403.5</ele>
        <time>2020-06-07T07:14:33.000Z</time>
      </trkpt>
      <trkpt lat="45.83178" lon="4.80867">
        <ele>403.1</ele>
        <time>2020-06-07T07:14:34.000Z</time>
      </trkpt>
      <trkpt lat="45.83177" lon="4.80869">
        <ele>402.8</ele>
        <time>2020-06-07T07:14:35.000Z</time>
      </trkpt>
      <trkpt lat="45.83176" lon="4.80872">
        <ele>402.2</ele>
        <time>2020-06-07T07:14:36.000Z</time>
      </trkpt>
      <trkpt lat="45.83175" lon="4.80877">
        <ele>401.5</ele>
        <time>2020-06-07T07:14:37.000Z</time>
      </trkpt>
      <trkpt lat="45.83173" lon="4.80884">
        <ele>400.3</ele>
        <time>2020-06-07T07:14:38.000Z</time>
      </trkpt>
      <trkpt lat="45.83172" lon="4.80892">
        <ele>399.2</ele>
        <time>2020-06-07T07:14:39.000Z</time>
      </trkpt>
      <trkpt lat="45.83169" lon="4.80899">
        <ele>398</ele>
        <time>2020-06-07T07:14:40.000Z</time>
      </trkpt>
      <trkpt lat="45.83169" lon="4.80906">
        <ele>397</ele>
        <time>2020-06-07T07:14:41.000Z</time>
      </trkpt>
      <trkpt lat="45.83166" lon="4.80912">
        <ele>396</ele>
        <time>2020-06-07T07:14:42.000Z</time>
      </trkpt>
      <trkpt lat="45.83163" lon="4.80918">
        <ele>395</ele>
        <time>2020-06-07T07:14:43.000Z</time>
      </trkpt>
      <trkpt lat="45.8316" lon="4.80923">
        <ele>394.1</ele>
        <time>2020-06-07T07:14:44.000Z</time>
      </trkpt>
      <trkpt lat="45.83157" lon="4.80928">
        <ele>393.2</ele>
        <time>2020-06-07T07:14:45.000Z</time>
      </trkpt>
      <trkpt lat="45.83154" lon="4.80933">
        <ele>392.1</ele>
        <time>2020-06-07T07:14:46.000Z</time>
      </trkpt>
      <trkpt lat="45.83149" lon="4.80937">
        <ele>390.8</ele>
        <time>2020-06-07T07:14:47.000Z</time>
      </trkpt>
      <trkpt lat="45.83144" lon="4.80941">
        <ele>389.5</ele>
        <time>2020-06-07T07:14:48.000Z</time>
      </trkpt>
      <trkpt lat="45.83139" lon="4.80946">
        <ele>388.3</ele>
        <time>2020-06-07T07:14:49.000Z</time>
      </trkpt>
      <trkpt lat="45.83135" lon="4.8095">
        <ele>387.2</ele>
        <time>2020-06-07T07:14:50.000Z</time>
      </trkpt>
      <trkpt lat="45.83132" lon="4.80955">
        <ele>386.4</ele>
        <time>2020-06-07T07:14:51.000Z</time>
      </trkpt>
      <trkpt lat="45.83129" lon="4.80958">
        <ele>386.6</ele>
        <time>2020-06-07T07:14:52.000Z</time>
      </trkpt>
      <trkpt lat="45.83127" lon="4.80961">
        <ele>386.7</ele>
        <time>2020-06-07T07:14:53.000Z</time>
      </trkpt>
      <trkpt lat="45.83125" lon="4.80965">
        <ele>387</ele>
        <time>2020-06-07T07:14:54.000Z</time>
      </trkpt>
      <trkpt lat="45.83123" lon="4.80967">
        <ele>387.1</ele>
        <time>2020-06-07T07:14:55.000Z</time>
      </trkpt>
      <trkpt lat="45.83121" lon="4.80969">
        <ele>387.3</ele>
        <time>2020-06-07T07:14:56.000Z</time>
      </trkpt>
      <trkpt lat="45.83119" lon="4.8097">
        <ele>387.5</ele>
        <time>2020-06-07T07:14:57.000Z</time>
      </trkpt>
      <trkpt lat="45.83116" lon="4.80971">
        <ele>387.7</ele>
        <time>2020-06-07T07:14:58.000Z</time>
      </trkpt>
      <trkpt lat="45.83114" lon="4.80974">
        <ele>387.9</ele>
        <time>2020-06-07T07:14:59.000Z</time>
      </trkpt>
      <trkpt lat="45.83112" lon="4.80977">
        <ele>388.2</ele>
        <time>2020-06-07T07:15:00.000Z</time>
      </trkpt>
      <trkpt lat="45.83111" lon="4.80983">
        <ele>388.5</ele>
        <time>2020-06-07T07:15:01.000Z</time>
      </trkpt>
      <trkpt lat="45.83108" lon="4.80986">
        <ele>388.7</ele>
        <time>2020-06-07T07:15:02.000Z</time>
      </trkpt>
      <trkpt lat="45.83106" lon="4.80988">
        <ele>388.9</ele>
        <time>2020-06-07T07:15:03.000Z</time>
      </trkpt>
      <trkpt lat="45.83104" lon="4.80991">
        <ele>389.1</ele>
        <time>2020-06-07T07:15:04.000Z</time>
      </trkpt>
      <trkpt lat="45.83102" lon="4.80993">
        <ele>389.3</ele>
        <time>2020-06-07T07:15:05.000Z</time>
      </trkpt>
      <trkpt lat="45.831" lon="4.80995">
        <ele>389.4</ele>
        <time>2020-06-07T07:15:06.000Z</time>
      </trkpt>
      <trkpt lat="45.83097" lon="4.80996">
        <ele>389.6</ele>
        <time>2020-06-07T07:15:07.000Z</time>
      </trkpt>
      <trkpt lat="45.83094" lon="4.80997">
        <ele>389.9</ele>
        <time>2020-06-07T07:15:08.000Z</time>
      </trkpt>
      <trkpt lat="45.83091" lon="4.80998">
        <ele>390.1</ele>
        <time>2020-06-07T07:15:09.000Z</time>
      </trkpt>
      <trkpt lat="45.83089" lon="4.80999">
        <ele>390.3</ele>
        <time>2020-06-07T07:15:10.000Z</time>
      </trkpt>
      <trkpt lat="45.83087" lon="4.81">
        <ele>390.5</ele>
        <time>2020-06-07T07:15:11.000Z</time>
      </trkpt>
      <trkpt lat="45.83085" lon="4.81002">
        <ele>390.7</ele>
        <time>2020-06-07T07:15:12.000Z</time>
      </trkpt>
      <trkpt lat="45.83083" lon="4.81005">
        <ele>390.9</ele>
        <time>2020-06-07T07:15:13.000Z</time>
      </trkpt>
      <trkpt lat="45.83081" lon="4.81007">
        <ele>391.2</ele>
        <time>2020-06-07T07:15:14.000Z</time>
      </trkpt>
      <trkpt lat="45.83078" lon="4.81009">
        <ele>391.4</ele>
        <time>2020-06-07T07:15:15.000Z</time>
      </trkpt>
      <trkpt lat="45.83076" lon="4.81011">
        <ele>391.7</ele>
        <time>2020-06-07T07:15:16.000Z</time>
      </trkpt>
      <trkpt lat="45.83074" lon="4.81013">
        <ele>391.9</ele>
        <time>2020-06-07T07:15:17.000Z</time>
      </trkpt>
      <trkpt lat="45.83072" lon="4.81015">
        <ele>392.1</ele>
        <time>2020-06-07T07:15:18.000Z</time>
      </trkpt>
      <trkpt lat="45.83071" lon="4.81018">
        <ele>392.4</ele>
        <time>2020-06-07T07:15:19.000Z</time>
      </trkpt>
      <trkpt lat="45.83069" lon="4.81019">
        <ele>392.6</ele>
        <time>2020-06-07T07:15:20.000Z</time>
      </trkpt>
      <trkpt lat="45.83067" lon="4.8102">
        <ele>392.8</ele>
        <time>2020-06-07T07:15:21.000Z</time>
      </trkpt>
      <trkpt lat="45.83065" lon="4.81022">
        <ele>393</ele>
        <time>2020-06-07T07:15:22.000Z</time>
      </trkpt>
      <trkpt lat="45.83064" lon="4.81025">
        <ele>393.2</ele>
        <time>2020-06-07T07:15:23.000Z</time>
      </trkpt>
      <trkpt lat="45.83063" lon="4.81027">
        <ele>393.4</ele>
        <time>2020-06-07T07:15:24.000Z</time>
      </trkpt>
      <trkpt lat="45.83061" lon="4.81027">
        <ele>393.7</ele>
        <time>2020-06-07T07:15:25.000Z</time>
      </trkpt>
      <trkpt lat="45.83059" lon="4.8103">
        <ele>393.9</ele>
        <time>2020-06-07T07:15:26.000Z</time>
      </trkpt>
      <trkpt lat="45.83057" lon="4.81031">
        <ele>394.1</ele>
        <time>2020-06-07T07:15:27.000Z</time>
      </trkpt>
      <trkpt lat="45.83055" lon="4.81032">
        <ele>394.3</ele>
        <time>2020-06-07T07:15:28.000Z</time>
      </trkpt>
      <trkpt lat="45.83053" lon="4.81032">
        <ele>394.5</ele>
        <time>2020-06-07T07:15:29.000Z</time>
      </trkpt>
      <trkpt lat="45.83051" lon="4.81033">
        <ele>394.8</ele>
        <time>2020-06-07T07:15:30.000Z</time>
      </trkpt>
      <trkpt lat="45.8305" lon="4.81035">
        <ele>395</ele>
        <time>2020-06-07T07:15:31.000Z</time>
      </trkpt>
      <trkpt lat="45.83049" lon="4.81037">
        <ele>395.2</ele>
        <time>2020-06-07T07:15:32.000Z</time>
      </trkpt>
      <trkpt lat="45.83047" lon="4.81038">
        <ele>395.4</ele>
        <time>2020-06-07T07:15:33.000Z</time>
      </trkpt>
      <trkpt lat="45.83045" lon="4.81039">
        <ele>395.5</ele>
        <time>2020-06-07T07:15:34.000Z</time>
      </trkpt>
      <trkpt lat="45.83044" lon="4.8104">
        <ele>395.7</ele>
        <time>2020-06-07T07:15:35.000Z</time>
      </trkpt>
      <trkpt lat="45.83042" lon="4.81041">
        <ele>395.9</ele>
        <time>2020-06-07T07:15:36.000Z</time>
      </trkpt>
      <trkpt lat="45.8304" lon="4.81042">
        <ele>396.1</ele>
        <time>2020-06-07T07:15:37.000Z</time>
      </trkpt>
      <trkpt lat="45.83038" lon="4.81043">
        <ele>396.4</ele>
        <time>2020-06-07T07:15:38.000Z</time>
      </trkpt>
      <trkpt lat="45.83036" lon="4.81044">
        <ele>396.5</ele>
        <time>2020-06-07T07:15:39.000Z</time>
      </trkpt>
      <trkpt lat="45.83034" lon="4.81045">
        <ele>396.7</ele>
        <time>2020-06-07T07:15:40.000Z</time>
      </trkpt>
      <trkpt lat="45.83032" lon="4.81047">
        <ele>396.9</ele>
        <time>2020-06-07T07:15:41.000Z</time>
      </trkpt>
      <trkpt lat="45.8303" lon="4.81048">
        <ele>397.1</ele>
        <time>2020-06-07T07:15:42.000Z</time>
      </trkpt>
      <trkpt lat="45.83027" lon="4.8105">
        <ele>397.4</ele>
        <time>2020-06-07T07:15:43.000Z</time>
      </trkpt>
      <trkpt lat="45.83025" lon="4.81051">
        <ele>397.6</ele>
        <time>2020-06-07T07:15:44.000Z</time>
      </trkpt>
      <trkpt lat="45.83023" lon="4.81053">
        <ele>397.8</ele>
        <time>2020-06-07T07:15:45.000Z</time>
      </trkpt>
      <trkpt lat="45.83022" lon="4.81054">
        <ele>397.9</ele>
        <time>2020-06-07T07:15:46.000Z</time>
      </trkpt>
      <trkpt lat="45.8302" lon="4.81054">
        <ele>398</ele>
        <time>2020-06-07T07:15:47.000Z</time>
      </trkpt>
      <trkpt lat="45.83018" lon="4.81055">
        <ele>398.2</ele>
        <time>2020-06-07T07:15:48.000Z</time>
      </trkpt>
      <trkpt lat="45.83016" lon="4.81056">
        <ele>398.4</ele>
        <time>2020-06-07T07:15:49.000Z</time>
      </trkpt>
      <trkpt lat="45.83014" lon="4.81057">
        <ele>398.6</ele>
        <time>2020-06-07T07:15:50.000Z</time>
      </trkpt>
      <trkpt lat="45.83011" lon="4.81057">
        <ele>398.8</ele>
        <time>2020-06-07T07:15:51.000Z</time>
      </trkpt>
      <trkpt lat="45.83009" lon="4.81058">
        <ele>399</ele>
        <time>2020-06-07T07:15:52.000Z</time>
      </trkpt>
      <trkpt lat="45.83007" lon="4.81059">
        <ele>399.2</ele>
        <time>2020-06-07T07:15:53.000Z</time>
      </trkpt>
      <trkpt lat="45.83004" lon="4.8106">
        <ele>399.4</ele>
        <time>2020-06-07T07:15:54.000Z</time>
      </trkpt>
      <trkpt lat="45.83002" lon="4.81061">
        <ele>399.6</ele>
        <time>2020-06-07T07:15:55.000Z</time>
      </trkpt>
      <trkpt lat="45.83" lon="4.81061">
        <ele>399.8</ele>
        <time>2020-06-07T07:15:56.000Z</time>
      </trkpt>
      <trkpt lat="45.82998" lon="4.81062">
        <ele>400</ele>
        <time>2020-06-07T07:15:57.000Z</time>
      </trkpt>
      <trkpt lat="45.82997" lon="4.81063">
        <ele>400.1</ele>
        <time>2020-06-07T07:15:58.000Z</time>
      </trkpt>
      <trkpt lat="45.82995" lon="4.81064">
        <ele>400.3</ele>
        <time>2020-06-07T07:15:59.000Z</time>
      </trkpt>
      <trkpt lat="45.82994" lon="4.81064">
        <ele>400.4</ele>
        <time>2020-06-07T07:16:00.000Z</time>
      </trkpt>
      <trkpt lat="45.82992" lon="4.81065">
        <ele>400.6</ele>
        <time>2020-06-07T07:16:01.000Z</time>
      </trkpt>
      <trkpt lat="45.8299" lon="4.81066">
        <ele>400.8</ele>
        <time>2020-06-07T07:16:02.000Z</time>
      </trkpt>
      <trkpt lat="45.82989" lon="4.81069">
        <ele>401</ele>
        <time>2020-06-07T07:16:03.000Z</time>
      </trkpt>
      <trkpt lat="45.82987" lon="4.8107">
        <ele>401.2</ele>
        <time>2020-06-07T07:16:04.000Z</time>
      </trkpt>
      <trkpt lat="45.82986" lon="4.81072">
        <ele>401.4</ele>
        <time>2020-06-07T07:16:05.000Z</time>
      </trkpt>
      <trkpt lat="45.82984" lon="4.81073">
        <ele>401.6</ele>
        <time>2020-06-07T07:16:06.000Z</time>
      </trkpt>
      <trkpt lat="45.82983" lon="4.81075">
        <ele>401.8</ele>
        <time>2020-06-07T07:16:07.000Z</time>
      </trkpt>
      <trkpt lat="45.82981" lon="4.81076">
        <ele>402</ele>
        <time>2020-06-07T07:16:08.000Z</time>
      </trkpt>
      <trkpt lat="45.8298" lon="4.81077">
        <ele>402.2</ele>
        <time>2020-06-07T07:16:09.000Z</time>
      </trkpt>
      <trkpt lat="45.82978" lon="4.81079">
        <ele>402.4</ele>
        <time>2020-06-07T07:16:10.000Z</time>
      </trkpt>
      <trkpt lat="45.82976" lon="4.8108">
        <ele>402.6</ele>
        <time>2020-06-07T07:16:11.000Z</time>
      </trkpt>
      <trkpt lat="45.82975" lon="4.81081">
        <ele>402.8</ele>
        <time>2020-06-07T07:16:12.000Z</time>
      </trkpt>
      <trkpt lat="45.82973" lon="4.81084">
        <ele>403.1</ele>
        <time>2020-06-07T07:16:13.000Z</time>
      </trkpt>
      <trkpt lat="45.82972" lon="4.81085">
        <ele>403.3</ele>
        <time>2020-06-07T07:16:14.000Z</time>
      </trkpt>
      <trkpt lat="45.8297" lon="4.81086">
        <ele>403.5</ele>
        <time>2020-06-07T07:16:15.000Z</time>
      </trkpt>
      <trkpt lat="45.82969" lon="4.81088">
        <ele>403.7</ele>
        <time>2020-06-07T07:16:16.000Z</time>
      </trkpt>
      <trkpt lat="45.82967" lon="4.81088">
        <ele>403.9</ele>
        <time>2020-06-07T07:16:17.000Z</time>
      </trkpt>
      <trkpt lat="45.82965" lon="4.81089">
        <ele>404.1</ele>
        <time>2020-06-07T07:16:18.000Z</time>
      </trkpt>
      <trkpt lat="45.82963" lon="4.81091">
        <ele>404.4</ele>
        <time>2020-06-07T07:16:19.000Z</time>
      </trkpt>
      <trkpt lat="45.82962" lon="4.81092">
        <ele>404.6</ele>
        <time>2020-06-07T07:16:20.000Z</time>
      </trkpt>
      <trkpt lat="45.8296" lon="4.81093">
        <ele>404.8</ele>
        <time>2020-06-07T07:16:21.000Z</time>
      </trkpt>
      <trkpt lat="45.82959" lon="4.81094">
        <ele>404.9</ele>
        <time>2020-06-07T07:16:22.000Z</time>
      </trkpt>
      <trkpt lat="45.82957" lon="4.81095">
        <ele>405.1</ele>
        <time>2020-06-07T07:16:23.000Z</time>
      </trkpt>
      <trkpt lat="45.82955" lon="4.81095">
        <ele>405.3</ele>
        <time>2020-06-07T07:16:24.000Z</time>
      </trkpt>
      <trkpt lat="45.82953" lon="4.81096">
        <ele>405.5</ele>
        <time>2020-06-07T07:16:25.000Z</time>
      </trkpt>
      <trkpt lat="45.82951" lon="4.81097">
        <ele>405.8</ele>
        <time>2020-06-07T07:16:26.000Z</time>
      </trkpt>
      <trkpt lat="45.8295" lon="4.81098">
        <ele>405.9</ele>
        <time>2020-06-07T07:16:27.000Z</time>
      </trkpt>
      <trkpt lat="45.82948" lon="4.81098">
        <ele>406.2</ele>
        <time>2020-06-07T07:16:28.000Z</time>
      </trkpt>
      <trkpt lat="45.82946" lon="4.81098">
        <ele>406.4</ele>
        <time>2020-06-07T07:16:29.000Z</time>
      </trkpt>
      <trkpt lat="45.82944" lon="4.81098">
        <ele>406.6</ele>
        <time>2020-06-07T07:16:30.000Z</time>
      </trkpt>
      <trkpt lat="45.82942" lon="4.81098">
        <ele>406.7</ele>
        <time>2020-06-07T07:16:31.000Z</time>
      </trkpt>
      <trkpt lat="45.82941" lon="4.81099">
        <ele>406.9</ele>
        <time>2020-06-07T07:16:32.000Z</time>
      </trkpt>
      <trkpt lat="45.82939" lon="4.811">
        <ele>407.1</ele>
        <time>2020-06-07T07:16:33.000Z</time>
      </trkpt>
      <trkpt lat="45.82938" lon="4.81101">
        <ele>407.2</ele>
        <time>2020-06-07T07:16:34.000Z</time>
      </trkpt>
      <trkpt lat="45.82936" lon="4.81102">
        <ele>407.4</ele>
        <time>2020-06-07T07:16:35.000Z</time>
      </trkpt>
      <trkpt lat="45.82935" lon="4.81103">
        <ele>407.6</ele>
        <time>2020-06-07T07:16:36.000Z</time>
      </trkpt>
      <trkpt lat="45.82933" lon="4.81104">
        <ele>407.8</ele>
        <time>2020-06-07T07:16:37.000Z</time>
      </trkpt>
      <trkpt lat="45.82931" lon="4.81105">
        <ele>407.9</ele>
        <time>2020-06-07T07:16:38.000Z</time>
      </trkpt>
      <trkpt lat="45.82928" lon="4.81105">
        <ele>408.2</ele>
        <time>2020-06-07T07:16:39.000Z</time>
      </trkpt>
      <trkpt lat="45.82926" lon="4.81106">
        <ele>408.4</ele>
        <time>2020-06-07T07:16:40.000Z</time>
      </trkpt>
      <trkpt lat="45.82924" lon="4.81107">
        <ele>408.6</ele>
        <time>2020-06-07T07:16:41.000Z</time>
      </trkpt>
      <trkpt lat="45.82921" lon="4.81107">
        <ele>408.7</ele>
        <time>2020-06-07T07:16:42.000Z</time>
      </trkpt>
      <trkpt lat="45.8292" lon="4.81108">
        <ele>408.8</ele>
        <time>2020-06-07T07:16:43.000Z</time>
      </trkpt>
      <trkpt lat="45.82917" lon="4.81108">
        <ele>409</ele>
        <time>2020-06-07T07:16:44.000Z</time>
      </trkpt>
      <trkpt lat="45.82915" lon="4.81108">
        <ele>409.3</ele>
        <time>2020-06-07T07:16:45.000Z</time>
      </trkpt>
      <trkpt lat="45.82913" lon="4.81109">
        <ele>409.4</ele>
        <time>2020-06-07T07:16:46.000Z</time>
      </trkpt>
      <trkpt lat="45.82911" lon="4.81109">
        <ele>409.4</ele>
        <time>2020-06-07T07:16:47.000Z</time>
      </trkpt>
      <trkpt lat="45.82909" lon="4.81109">
        <ele>409.5</ele>
        <time>2020-06-07T07:16:48.000Z</time>
      </trkpt>
      <trkpt lat="45.82906" lon="4.8111">
        <ele>409.6</ele>
        <time>2020-06-07T07:16:49.000Z</time>
      </trkpt>
      <trkpt lat="45.82904" lon="4.81112">
        <ele>409.6</ele>
        <time>2020-06-07T07:16:50.000Z</time>
      </trkpt>
      <trkpt lat="45.82902" lon="4.81113">
        <ele>409.6</ele>
        <time>2020-06-07T07:16:51.000Z</time>
      </trkpt>
      <trkpt lat="45.829" lon="4.81113">
        <ele>409.7</ele>
        <time>2020-06-07T07:16:52.000Z</time>
      </trkpt>
      <trkpt lat="45.82898" lon="4.81113">
        <ele>409.7</ele>
        <time>2020-06-07T07:16:53.000Z</time>
      </trkpt>
      <trkpt lat="45.82896" lon="4.81113">
        <ele>409.7</ele>
        <time>2020-06-07T07:16:54.000Z</time>
      </trkpt>
      <trkpt lat="45.82894" lon="4.81112">
        <ele>409.7</ele>
        <time>2020-06-07T07:16:55.000Z</time>
      </trkpt>
      <trkpt lat="45.82891" lon="4.81112">
        <ele>409.7</ele>
        <time>2020-06-07T07:16:56.000Z</time>
      </trkpt>
      <trkpt lat="45.82887" lon="4.81111">
        <ele>409.7</ele>
        <time>2020-06-07T07:16:57.000Z</time>
      </trkpt>
      <trkpt lat="45.82885" lon="4.81111">
        <ele>409.6</ele>
        <time>2020-06-07T07:16:58.000Z</time>
      </trkpt>
      <trkpt lat="45.82883" lon="4.81111">
        <ele>409.6</ele>
        <time>2020-06-07T07:16:59.000Z</time>
      </trkpt>
      <trkpt lat="45.82881" lon="4.8111">
        <ele>409.5</ele>
        <time>2020-06-07T07:17:00.000Z</time>
      </trkpt>
      <trkpt lat="45.82879" lon="4.81108">
        <ele>409.5</ele>
        <time>2020-06-07T07:17:01.000Z</time>
      </trkpt>
      <trkpt lat="45.82877" lon="4.81107">
        <ele>409.4</ele>
        <time>2020-06-07T07:17:02.000Z</time>
      </trkpt>
      <trkpt lat="45.82875" lon="4.81105">
        <ele>409.4</ele>
        <time>2020-06-07T07:17:03.000Z</time>
      </trkpt>
      <trkpt lat="45.82873" lon="4.81104">
        <ele>409.3</ele>
        <time>2020-06-07T07:17:04.000Z</time>
      </trkpt>
      <trkpt lat="45.82871" lon="4.81104">
        <ele>409.3</ele>
        <time>2020-06-07T07:17:05.000Z</time>
      </trkpt>
      <trkpt lat="45.82869" lon="4.81103">
        <ele>409.2</ele>
        <time>2020-06-07T07:17:06.000Z</time>
      </trkpt>
      <trkpt lat="45.82868" lon="4.81103">
        <ele>409.2</ele>
        <time>2020-06-07T07:17:07.000Z</time>
      </trkpt>
      <trkpt lat="45.82867" lon="4.81104">
        <ele>409.1</ele>
        <time>2020-06-07T07:17:08.000Z</time>
      </trkpt>
      <trkpt lat="45.82865" lon="4.81105">
        <ele>409.1</ele>
        <time>2020-06-07T07:17:09.000Z</time>
      </trkpt>
      <trkpt lat="45.82864" lon="4.81106">
        <ele>409.1</ele>
        <time>2020-06-07T07:17:10.000Z</time>
      </trkpt>
      <trkpt lat="45.82862" lon="4.81107">
        <ele>409.2</ele>
        <time>2020-06-07T07:17:11.000Z</time>
      </trkpt>
      <trkpt lat="45.8286" lon="4.81109">
        <ele>409.2</ele>
        <time>2020-06-07T07:17:12.000Z</time>
      </trkpt>
      <trkpt lat="45.82859" lon="4.81111">
        <ele>409.2</ele>
        <time>2020-06-07T07:17:13.000Z</time>
      </trkpt>
      <trkpt lat="45.82857" lon="4.81112">
        <ele>409.3</ele>
        <time>2020-06-07T07:17:14.000Z</time>
      </trkpt>
      <trkpt lat="45.82855" lon="4.81114">
        <ele>409.3</ele>
        <time>2020-06-07T07:17:15.000Z</time>
      </trkpt>
      <trkpt lat="45.82853" lon="4.81116">
        <ele>409.4</ele>
        <time>2020-06-07T07:17:16.000Z</time>
      </trkpt>
      <trkpt lat="45.82852" lon="4.81118">
        <ele>409.4</ele>
        <time>2020-06-07T07:17:17.000Z</time>
      </trkpt>
      <trkpt lat="45.8285" lon="4.8112">
        <ele>409.5</ele>
        <time>2020-06-07T07:17:18.000Z</time>
      </trkpt>
      <trkpt lat="45.82848" lon="4.81121">
        <ele>409.5</ele>
        <time>2020-06-07T07:17:19.000Z</time>
      </trkpt>
      <trkpt lat="45.82846" lon="4.81123">
        <ele>409.6</ele>
        <time>2020-06-07T07:17:20.000Z</time>
      </trkpt>
      <trkpt lat="45.82844" lon="4.81124">
        <ele>409.6</ele>
        <time>2020-06-07T07:17:21.000Z</time>
      </trkpt>
      <trkpt lat="45.82842" lon="4.81126">
        <ele>409.7</ele>
        <time>2020-06-07T07:17:22.000Z</time>
      </trkpt>
      <trkpt lat="45.82841" lon="4.81128">
        <ele>409.7</ele>
        <time>2020-06-07T07:17:23.000Z</time>
      </trkpt>
      <trkpt lat="45.82839" lon="4.8113">
        <ele>409.6</ele>
        <time>2020-06-07T07:17:24.000Z</time>
      </trkpt>
      <trkpt lat="45.82838" lon="4.81132">
        <ele>409.6</ele>
        <time>2020-06-07T07:17:25.000Z</time>
      </trkpt>
      <trkpt lat="45.82836" lon="4.81134">
        <ele>409.6</ele>
        <time>2020-06-07T07:17:26.000Z</time>
      </trkpt>
      <trkpt lat="45.82835" lon="4.81135">
        <ele>409.6</ele>
        <time>2020-06-07T07:17:27.000Z</time>
      </trkpt>
      <trkpt lat="45.82833" lon="4.81136">
        <ele>409.6</ele>
        <time>2020-06-07T07:17:28.000Z</time>
      </trkpt>
      <trkpt lat="45.82831" lon="4.81137">
        <ele>409.4</ele>
        <time>2020-06-07T07:17:29.000Z</time>
      </trkpt>
      <trkpt lat="45.82829" lon="4.81137">
        <ele>409.3</ele>
        <time>2020-06-07T07:17:30.000Z</time>
      </trkpt>
      <trkpt lat="45.82827" lon="4.81136">
        <ele>409.1</ele>
        <time>2020-06-07T07:17:31.000Z</time>
      </trkpt>
      <trkpt lat="45.82824" lon="4.81134">
        <ele>408.9</ele>
        <time>2020-06-07T07:17:32.000Z</time>
      </trkpt>
      <trkpt lat="45.82821" lon="4.81131">
        <ele>408.6</ele>
        <time>2020-06-07T07:17:33.000Z</time>
      </trkpt>
      <trkpt lat="45.82817" lon="4.81128">
        <ele>408.2</ele>
        <time>2020-06-07T07:17:34.000Z</time>
      </trkpt>
      <trkpt lat="45.82813" lon="4.81125">
        <ele>407.8</ele>
        <time>2020-06-07T07:17:35.000Z</time>
      </trkpt>
      <trkpt lat="45.82809" lon="4.81122">
        <ele>407.3</ele>
        <time>2020-06-07T07:17:36.000Z</time>
      </trkpt>
      <trkpt lat="45.82804" lon="4.81119">
        <ele>406.7</ele>
        <time>2020-06-07T07:17:37.000Z</time>
      </trkpt>
      <trkpt lat="45.82798" lon="4.81116">
        <ele>406.1</ele>
        <time>2020-06-07T07:17:38.000Z</time>
      </trkpt>
      <trkpt lat="45.82792" lon="4.81113">
        <ele>405.5</ele>
        <time>2020-06-07T07:17:39.000Z</time>
      </trkpt>
      <trkpt lat="45.82786" lon="4.81109">
        <ele>404.9</ele>
        <time>2020-06-07T07:17:40.000Z</time>
      </trkpt>
      <trkpt lat="45.82779" lon="4.81105">
        <ele>404.3</ele>
        <time>2020-06-07T07:17:41.000Z</time>
      </trkpt>
      <trkpt lat="45.82773" lon="4.81102">
        <ele>403.6</ele>
        <time>2020-06-07T07:17:42.000Z</time>
      </trkpt>
      <trkpt lat="45.82766" lon="4.81098">
        <ele>402.9</ele>
        <time>2020-06-07T07:17:43.000Z</time>
      </trkpt>
      <trkpt lat="45.8276" lon="4.81094">
        <ele>402.2</ele>
        <time>2020-06-07T07:17:44.000Z</time>
      </trkpt>
      <trkpt lat="45.82754" lon="4.8109">
        <ele>401.5</ele>
        <time>2020-06-07T07:17:45.000Z</time>
      </trkpt>
      <trkpt lat="45.8275" lon="4.81085">
        <ele>400.8</ele>
        <time>2020-06-07T07:17:46.000Z</time>
      </trkpt>
      <trkpt lat="45.82746" lon="4.81081">
        <ele>400.1</ele>
        <time>2020-06-07T07:17:47.000Z</time>
      </trkpt>
      <trkpt lat="45.82743" lon="4.81077">
        <ele>399.5</ele>
        <time>2020-06-07T07:17:48.000Z</time>
      </trkpt>
      <trkpt lat="45.8274" lon="4.81072">
        <ele>398.9</ele>
        <time>2020-06-07T07:17:49.000Z</time>
      </trkpt>
      <trkpt lat="45.82738" lon="4.81067">
        <ele>398.3</ele>
        <time>2020-06-07T07:17:50.000Z</time>
      </trkpt>
      <trkpt lat="45.82735" lon="4.81062">
        <ele>397.6</ele>
        <time>2020-06-07T07:17:51.000Z</time>
      </trkpt>
      <trkpt lat="45.82731" lon="4.81057">
        <ele>397</ele>
        <time>2020-06-07T07:17:52.000Z</time>
      </trkpt>
      <trkpt lat="45.82728" lon="4.81054">
        <ele>396.3</ele>
        <time>2020-06-07T07:17:53.000Z</time>
      </trkpt>
      <trkpt lat="45.82724" lon="4.8105">
        <ele>395.6</ele>
        <time>2020-06-07T07:17:54.000Z</time>
      </trkpt>
      <trkpt lat="45.82721" lon="4.81046">
        <ele>394.8</ele>
        <time>2020-06-07T07:17:55.000Z</time>
      </trkpt>
      <trkpt lat="45.82718" lon="4.81042">
        <ele>394.1</ele>
        <time>2020-06-07T07:17:56.000Z</time>
      </trkpt>
      <trkpt lat="45.82714" lon="4.81039">
        <ele>393.4</ele>
        <time>2020-06-07T07:17:57.000Z</time>
      </trkpt>
      <trkpt lat="45.82711" lon="4.81034">
        <ele>392.6</ele>
        <time>2020-06-07T07:17:58.000Z</time>
      </trkpt>
      <trkpt lat="45.82707" lon="4.8103">
        <ele>391.6</ele>
        <time>2020-06-07T07:17:59.000Z</time>
      </trkpt>
      <trkpt lat="45.82703" lon="4.81026">
        <ele>390.9</ele>
        <time>2020-06-07T07:18:00.000Z</time>
      </trkpt>
      <trkpt lat="45.82699" lon="4.81023">
        <ele>390</ele>
        <time>2020-06-07T07:18:01.000Z</time>
      </trkpt>
      <trkpt lat="45.82695" lon="4.8102">
        <ele>389.2</ele>
        <time>2020-06-07T07:18:02.000Z</time>
      </trkpt>
      <trkpt lat="45.82689" lon="4.81017">
        <ele>388.2</ele>
        <time>2020-06-07T07:18:03.000Z</time>
      </trkpt>
      <trkpt lat="45.82683" lon="4.81016">
        <ele>387.1</ele>
        <time>2020-06-07T07:18:04.000Z</time>
      </trkpt>
      <trkpt lat="45.82676" lon="4.81016">
        <ele>385.9</ele>
        <time>2020-06-07T07:18:05.000Z</time>
      </trkpt>
      <trkpt lat="45.82669" lon="4.81016">
        <ele>384.9</ele>
        <time>2020-06-07T07:18:06.000Z</time>
      </trkpt>
      <trkpt lat="45.82663" lon="4.81017">
        <ele>384</ele>
        <time>2020-06-07T07:18:07.000Z</time>
      </trkpt>
      <trkpt lat="45.82657" lon="4.81017">
        <ele>383.3</ele>
        <time>2020-06-07T07:18:08.000Z</time>
      </trkpt>
      <trkpt lat="45.82652" lon="4.81016">
        <ele>382.6</ele>
        <time>2020-06-07T07:18:09.000Z</time>
      </trkpt>
      <trkpt lat="45.82647" lon="4.81013">
        <ele>381.8</ele>
        <time>2020-06-07T07:18:10.000Z</time>
      </trkpt>
      <trkpt lat="45.82642" lon="4.81008">
        <ele>381</ele>
        <time>2020-06-07T07:18:11.000Z</time>
      </trkpt>
      <trkpt lat="45.82637" lon="4.81001">
        <ele>379.7</ele>
        <time>2020-06-07T07:18:12.000Z</time>
      </trkpt>
      <trkpt lat="45.82631" lon="4.80994">
        <ele>379.3</ele>
        <time>2020-06-07T07:18:13.000Z</time>
      </trkpt>
      <trkpt lat="45.82624" lon="4.80987">
        <ele>378.6</ele>
        <time>2020-06-07T07:18:14.000Z</time>
      </trkpt>
      <trkpt lat="45.82615" lon="4.80981">
        <ele>377.8</ele>
        <time>2020-06-07T07:18:15.000Z</time>
      </trkpt>
      <trkpt lat="45.82606" lon="4.80978">
        <ele>377.6</ele>
        <time>2020-06-07T07:18:16.000Z</time>
      </trkpt>
      <trkpt lat="45.82597" lon="4.80976">
        <ele>377.4</ele>
        <time>2020-06-07T07:18:17.000Z</time>
      </trkpt>
      <trkpt lat="45.82589" lon="4.80974">
        <ele>377.1</ele>
        <time>2020-06-07T07:18:18.000Z</time>
      </trkpt>
      <trkpt lat="45.8258" lon="4.80972">
        <ele>376.9</ele>
        <time>2020-06-07T07:18:19.000Z</time>
      </trkpt>
      <trkpt lat="45.82572" lon="4.80971">
        <ele>376.7</ele>
        <time>2020-06-07T07:18:20.000Z</time>
      </trkpt>
      <trkpt lat="45.82565" lon="4.8097">
        <ele>376.5</ele>
        <time>2020-06-07T07:18:21.000Z</time>
      </trkpt>
      <trkpt lat="45.82557" lon="4.80968">
        <ele>376.2</ele>
        <time>2020-06-07T07:18:22.000Z</time>
      </trkpt>
      <trkpt lat="45.8255" lon="4.80966">
        <ele>375.8</ele>
        <time>2020-06-07T07:18:23.000Z</time>
      </trkpt>
      <trkpt lat="45.82543" lon="4.80965">
        <ele>375.4</ele>
        <time>2020-06-07T07:18:24.000Z</time>
      </trkpt>
      <trkpt lat="45.82535" lon="4.80963">
        <ele>374.9</ele>
        <time>2020-06-07T07:18:25.000Z</time>
      </trkpt>
      <trkpt lat="45.82527" lon="4.80961">
        <ele>374.4</ele>
        <time>2020-06-07T07:18:26.000Z</time>
      </trkpt>
      <trkpt lat="45.82519" lon="4.80959">
        <ele>373.9</ele>
        <time>2020-06-07T07:18:27.000Z</time>
      </trkpt>
      <trkpt lat="45.82511" lon="4.80957">
        <ele>373.4</ele>
        <time>2020-06-07T07:18:28.000Z</time>
      </trkpt>
      <trkpt lat="45.82503" lon="4.80956">
        <ele>373</ele>
        <time>2020-06-07T07:18:29.000Z</time>
      </trkpt>
      <trkpt lat="45.82495" lon="4.80954">
        <ele>372.6</ele>
        <time>2020-06-07T07:18:30.000Z</time>
      </trkpt>
      <trkpt lat="45.82488" lon="4.80952">
        <ele>372.2</ele>
        <time>2020-06-07T07:18:31.000Z</time>
      </trkpt>
      <trkpt lat="45.82481" lon="4.80949">
        <ele>371.9</ele>
        <time>2020-06-07T07:18:32.000Z</time>
      </trkpt>
      <trkpt lat="45.82474" lon="4.80945">
        <ele>371.5</ele>
        <time>2020-06-07T07:18:33.000Z</time>
      </trkpt>
      <trkpt lat="45.82467" lon="4.8094">
        <ele>371.2</ele>
        <time>2020-06-07T07:18:34.000Z</time>
      </trkpt>
      <trkpt lat="45.82461" lon="4.80935">
        <ele>370.9</ele>
        <time>2020-06-07T07:18:35.000Z</time>
      </trkpt>
      <trkpt lat="45.82455" lon="4.8093">
        <ele>370.6</ele>
        <time>2020-06-07T07:18:36.000Z</time>
      </trkpt>
      <trkpt lat="45.82449" lon="4.80924">
        <ele>370.4</ele>
        <time>2020-06-07T07:18:37.000Z</time>
      </trkpt>
      <trkpt lat="45.82443" lon="4.80918">
        <ele>370.2</ele>
        <time>2020-06-07T07:18:38.000Z</time>
      </trkpt>
      <trkpt lat="45.82437" lon="4.80912">
        <ele>370</ele>
        <time>2020-06-07T07:18:39.000Z</time>
      </trkpt>
      <trkpt lat="45.82431" lon="4.80906">
        <ele>369.8</ele>
        <time>2020-06-07T07:18:40.000Z</time>
      </trkpt>
      <trkpt lat="45.82426" lon="4.809">
        <ele>369.7</ele>
        <time>2020-06-07T07:18:41.000Z</time>
      </trkpt>
      <trkpt lat="45.8242" lon="4.80895">
        <ele>369.7</ele>
        <time>2020-06-07T07:18:42.000Z</time>
      </trkpt>
      <trkpt lat="45.82415" lon="4.8089">
        <ele>369.7</ele>
        <time>2020-06-07T07:18:43.000Z</time>
      </trkpt>
      <trkpt lat="45.8241" lon="4.80885">
        <ele>369.7</ele>
        <time>2020-06-07T07:18:44.000Z</time>
      </trkpt>
      <trkpt lat="45.82405" lon="4.8088">
        <ele>369.8</ele>
        <time>2020-06-07T07:18:45.000Z</time>
      </trkpt>
      <trkpt lat="45.82401" lon="4.80876">
        <ele>369.9</ele>
        <time>2020-06-07T07:18:46.000Z</time>
      </trkpt>
      <trkpt lat="45.82397" lon="4.80871">
        <ele>370.1</ele>
        <time>2020-06-07T07:18:47.000Z</time>
      </trkpt>
      <trkpt lat="45.82393" lon="4.80867">
        <ele>370.2</ele>
        <time>2020-06-07T07:18:48.000Z</time>
      </trkpt>
      <trkpt lat="45.8239" lon="4.80862">
        <ele>370.3</ele>
        <time>2020-06-07T07:18:49.000Z</time>
      </trkpt>
      <trkpt lat="45.82386" lon="4.80859">
        <ele>370.4</ele>
        <time>2020-06-07T07:18:50.000Z</time>
      </trkpt>
      <trkpt lat="45.82383" lon="4.80854">
        <ele>370.5</ele>
        <time>2020-06-07T07:18:51.000Z</time>
      </trkpt>
      <trkpt lat="45.82379" lon="4.80851">
        <ele>370.6</ele>
        <time>2020-06-07T07:18:52.000Z</time>
      </trkpt>
      <trkpt lat="45.82375" lon="4.80847">
        <ele>370.7</ele>
        <time>2020-06-07T07:18:53.000Z</time>
      </trkpt>
      <trkpt lat="45.82372" lon="4.80844">
        <ele>370.8</ele>
        <time>2020-06-07T07:18:54.000Z</time>
      </trkpt>
      <trkpt lat="45.82368" lon="4.80841">
        <ele>370.7</ele>
        <time>2020-06-07T07:18:55.000Z</time>
      </trkpt>
      <trkpt lat="45.82363" lon="4.80838">
        <ele>370.5</ele>
        <time>2020-06-07T07:18:56.000Z</time>
      </trkpt>
      <trkpt lat="45.82359" lon="4.80835">
        <ele>370.3</ele>
        <time>2020-06-07T07:18:57.000Z</time>
      </trkpt>
      <trkpt lat="45.82354" lon="4.80831">
        <ele>370</ele>
        <time>2020-06-07T07:18:58.000Z</time>
      </trkpt>
      <trkpt lat="45.82349" lon="4.80828">
        <ele>369.7</ele>
        <time>2020-06-07T07:18:59.000Z</time>
      </trkpt>
      <trkpt lat="45.82344" lon="4.80825">
        <ele>369.5</ele>
        <time>2020-06-07T07:19:00.000Z</time>
      </trkpt>
      <trkpt lat="45.82338" lon="4.80822">
        <ele>369.2</ele>
        <time>2020-06-07T07:19:01.000Z</time>
      </trkpt>
      <trkpt lat="45.82332" lon="4.80818">
        <ele>369</ele>
        <time>2020-06-07T07:19:02.000Z</time>
      </trkpt>
      <trkpt lat="45.82326" lon="4.80815">
        <ele>368.8</ele>
        <time>2020-06-07T07:19:03.000Z</time>
      </trkpt>
      <trkpt lat="45.82319" lon="4.80811">
        <ele>368.8</ele>
        <time>2020-06-07T07:19:04.000Z</time>
      </trkpt>
      <trkpt lat="45.82314" lon="4.80807">
        <ele>368.9</ele>
        <time>2020-06-07T07:19:05.000Z</time>
      </trkpt>
      <trkpt lat="45.82309" lon="4.80803">
        <ele>369</ele>
        <time>2020-06-07T07:19:06.000Z</time>
      </trkpt>
      <trkpt lat="45.82305" lon="4.80799">
        <ele>369.2</ele>
        <time>2020-06-07T07:19:07.000Z</time>
      </trkpt>
      <trkpt lat="45.82301" lon="4.80796">
        <ele>369.4</ele>
        <time>2020-06-07T07:19:08.000Z</time>
      </trkpt>
      <trkpt lat="45.82298" lon="4.80792">
        <ele>369.6</ele>
        <time>2020-06-07T07:19:09.000Z</time>
      </trkpt>
      <trkpt lat="45.82295" lon="4.80789">
        <ele>369.8</ele>
        <time>2020-06-07T07:19:10.000Z</time>
      </trkpt>
      <trkpt lat="45.82292" lon="4.80786">
        <ele>369.9</ele>
        <time>2020-06-07T07:19:11.000Z</time>
      </trkpt>
      <trkpt lat="45.8229" lon="4.80782">
        <ele>370.2</ele>
        <time>2020-06-07T07:19:12.000Z</time>
      </trkpt>
      <trkpt lat="45.82289" lon="4.80778">
        <ele>370.4</ele>
        <time>2020-06-07T07:19:13.000Z</time>
      </trkpt>
      <trkpt lat="45.82288" lon="4.80775">
        <ele>370.6</ele>
        <time>2020-06-07T07:19:14.000Z</time>
      </trkpt>
      <trkpt lat="45.82288" lon="4.80772">
        <ele>370.8</ele>
        <time>2020-06-07T07:19:15.000Z</time>
      </trkpt>
      <trkpt lat="45.82288" lon="4.80769">
        <ele>371.2</ele>
        <time>2020-06-07T07:19:16.000Z</time>
      </trkpt>
      <trkpt lat="45.82287" lon="4.80767">
        <ele>371.4</ele>
        <time>2020-06-07T07:19:17.000Z</time>
      </trkpt>
      <trkpt lat="45.82286" lon="4.80764">
        <ele>371.7</ele>
        <time>2020-06-07T07:19:18.000Z</time>
      </trkpt>
      <trkpt lat="45.82285" lon="4.80762">
        <ele>372</ele>
        <time>2020-06-07T07:19:19.000Z</time>
      </trkpt>
      <trkpt lat="45.82284" lon="4.80759">
        <ele>372.2</ele>
        <time>2020-06-07T07:19:20.000Z</time>
      </trkpt>
      <trkpt lat="45.82283" lon="4.80757">
        <ele>372.5</ele>
        <time>2020-06-07T07:19:21.000Z</time>
      </trkpt>
      <trkpt lat="45.82282" lon="4.80754">
        <ele>372.7</ele>
        <time>2020-06-07T07:19:22.000Z</time>
      </trkpt>
      <trkpt lat="45.82281" lon="4.80751">
        <ele>373</ele>
        <time>2020-06-07T07:19:23.000Z</time>
      </trkpt>
      <trkpt lat="45.8228" lon="4.80748">
        <ele>373.2</ele>
        <time>2020-06-07T07:19:24.000Z</time>
      </trkpt>
      <trkpt lat="45.82279" lon="4.80745">
        <ele>373.4</ele>
        <time>2020-06-07T07:19:25.000Z</time>
      </trkpt>
      <trkpt lat="45.82279" lon="4.80742">
        <ele>373.6</ele>
        <time>2020-06-07T07:19:26.000Z</time>
      </trkpt>
      <trkpt lat="45.82278" lon="4.80739">
        <ele>373.8</ele>
        <time>2020-06-07T07:19:27.000Z</time>
      </trkpt>
      <trkpt lat="45.82277" lon="4.80736">
        <ele>374</ele>
        <time>2020-06-07T07:19:28.000Z</time>
      </trkpt>
      <trkpt lat="45.82275" lon="4.80733">
        <ele>374.2</ele>
        <time>2020-06-07T07:19:29.000Z</time>
      </trkpt>
      <trkpt lat="45.82274" lon="4.80729">
        <ele>374.5</ele>
        <time>2020-06-07T07:19:30.000Z</time>
      </trkpt>
      <trkpt lat="45.82272" lon="4.80724">
        <ele>374.7</ele>
        <time>2020-06-07T07:19:31.000Z</time>
      </trkpt>
      <trkpt lat="45.8227" lon="4.8072">
        <ele>374.9</ele>
        <time>2020-06-07T07:19:32.000Z</time>
      </trkpt>
      <trkpt lat="45.82268" lon="4.80716">
        <ele>375.1</ele>
        <time>2020-06-07T07:19:33.000Z</time>
      </trkpt>
      <trkpt lat="45.82267" lon="4.80711">
        <ele>375.3</ele>
        <time>2020-06-07T07:19:34.000Z</time>
      </trkpt>
      <trkpt lat="45.82265" lon="4.80707">
        <ele>375.5</ele>
        <time>2020-06-07T07:19:35.000Z</time>
      </trkpt>
      <trkpt lat="45.82264" lon="4.80703">
        <ele>375.6</ele>
        <time>2020-06-07T07:19:36.000Z</time>
      </trkpt>
      <trkpt lat="45.82262" lon="4.80698">
        <ele>375.8</ele>
        <time>2020-06-07T07:19:37.000Z</time>
      </trkpt>
      <trkpt lat="45.82261" lon="4.80694">
        <ele>375.9</ele>
        <time>2020-06-07T07:19:38.000Z</time>
      </trkpt>
      <trkpt lat="45.82259" lon="4.8069">
        <ele>376</ele>
        <time>2020-06-07T07:19:39.000Z</time>
      </trkpt>
      <trkpt lat="45.82257" lon="4.80686">
        <ele>376.2</ele>
        <time>2020-06-07T07:19:40.000Z</time>
      </trkpt>
      <trkpt lat="45.82256" lon="4.80681">
        <ele>376.3</ele>
        <time>2020-06-07T07:19:41.000Z</time>
      </trkpt>
      <trkpt lat="45.82254" lon="4.80677">
        <ele>376.4</ele>
        <time>2020-06-07T07:19:42.000Z</time>
      </trkpt>
      <trkpt lat="45.82252" lon="4.80673">
        <ele>376.6</ele>
        <time>2020-06-07T07:19:43.000Z</time>
      </trkpt>
      <trkpt lat="45.82251" lon="4.80668">
        <ele>376.7</ele>
        <time>2020-06-07T07:19:44.000Z</time>
      </trkpt>
      <trkpt lat="45.82249" lon="4.80664">
        <ele>376.9</ele>
        <time>2020-06-07T07:19:45.000Z</time>
      </trkpt>
      <trkpt lat="45.82247" lon="4.8066">
        <ele>377</ele>
        <time>2020-06-07T07:19:46.000Z</time>
      </trkpt>
      <trkpt lat="45.82245" lon="4.80656">
        <ele>377.1</ele>
        <time>2020-06-07T07:19:47.000Z</time>
      </trkpt>
      <trkpt lat="45.82243" lon="4.80652">
        <ele>377.3</ele>
        <time>2020-06-07T07:19:48.000Z</time>
      </trkpt>
      <trkpt lat="45.82242" lon="4.80648">
        <ele>377.4</ele>
        <time>2020-06-07T07:19:49.000Z</time>
      </trkpt>
      <trkpt lat="45.8224" lon="4.80644">
        <ele>377.5</ele>
        <time>2020-06-07T07:19:50.000Z</time>
      </trkpt>
      <trkpt lat="45.82237" lon="4.8064">
        <ele>377.6</ele>
        <time>2020-06-07T07:19:51.000Z</time>
      </trkpt>
      <trkpt lat="45.82235" lon="4.80635">
        <ele>377.6</ele>
        <time>2020-06-07T07:19:52.000Z</time>
      </trkpt>
      <trkpt lat="45.82232" lon="4.80631">
        <ele>377.7</ele>
        <time>2020-06-07T07:19:53.000Z</time>
      </trkpt>
      <trkpt lat="45.8223" lon="4.80627">
        <ele>377.8</ele>
        <time>2020-06-07T07:19:54.000Z</time>
      </trkpt>
      <trkpt lat="45.82227" lon="4.80622">
        <ele>377.8</ele>
        <time>2020-06-07T07:19:55.000Z</time>
      </trkpt>
      <trkpt lat="45.82224" lon="4.80618">
        <ele>377.9</ele>
        <time>2020-06-07T07:19:56.000Z</time>
      </trkpt>
      <trkpt lat="45.8222" lon="4.80614">
        <ele>378</ele>
        <time>2020-06-07T07:19:57.000Z</time>
      </trkpt>
      <trkpt lat="45.82216" lon="4.8061">
        <ele>378</ele>
        <time>2020-06-07T07:19:58.000Z</time>
      </trkpt>
      <trkpt lat="45.82212" lon="4.80606">
        <ele>378.1</ele>
        <time>2020-06-07T07:19:59.000Z</time>
      </trkpt>
      <trkpt lat="45.82208" lon="4.80601">
        <ele>378.2</ele>
        <time>2020-06-07T07:20:00.000Z</time>
      </trkpt>
      <trkpt lat="45.82204" lon="4.80597">
        <ele>378.2</ele>
        <time>2020-06-07T07:20:01.000Z</time>
      </trkpt>
      <trkpt lat="45.822" lon="4.80593">
        <ele>378.2</ele>
        <time>2020-06-07T07:20:02.000Z</time>
      </trkpt>
      <trkpt lat="45.82195" lon="4.80589">
        <ele>378.2</ele>
        <time>2020-06-07T07:20:03.000Z</time>
      </trkpt>
      <trkpt lat="45.82191" lon="4.80585">
        <ele>378.2</ele>
        <time>2020-06-07T07:20:04.000Z</time>
      </trkpt>
      <trkpt lat="45.82186" lon="4.80581">
        <ele>378.2</ele>
        <time>2020-06-07T07:20:05.000Z</time>
      </trkpt>
      <trkpt lat="45.82182" lon="4.80577">
        <ele>378.2</ele>
        <time>2020-06-07T07:20:06.000Z</time>
      </trkpt>
      <trkpt lat="45.82178" lon="4.80573">
        <ele>378.2</ele>
        <time>2020-06-07T07:20:07.000Z</time>
      </trkpt>
      <trkpt lat="45.82173" lon="4.80569">
        <ele>378.2</ele>
        <time>2020-06-07T07:20:08.000Z</time>
      </trkpt>
      <trkpt lat="45.82169" lon="4.80564">
        <ele>378.3</ele>
        <time>2020-06-07T07:20:09.000Z</time>
      </trkpt>
      <trkpt lat="45.82165" lon="4.8056">
        <ele>378.3</ele>
        <time>2020-06-07T07:20:10.000Z</time>
      </trkpt>
      <trkpt lat="45.82161" lon="4.80555">
        <ele>378.4</ele>
        <time>2020-06-07T07:20:11.000Z</time>
      </trkpt>
      <trkpt lat="45.82158" lon="4.8055">
        <ele>378.4</ele>
        <time>2020-06-07T07:20:12.000Z</time>
      </trkpt>
      <trkpt lat="45.82154" lon="4.80545">
        <ele>378.6</ele>
        <time>2020-06-07T07:20:13.000Z</time>
      </trkpt>
      <trkpt lat="45.82151" lon="4.8054">
        <ele>378.7</ele>
        <time>2020-06-07T07:20:14.000Z</time>
      </trkpt>
      <trkpt lat="45.82147" lon="4.80536">
        <ele>378.9</ele>
        <time>2020-06-07T07:20:15.000Z</time>
      </trkpt>
      <trkpt lat="45.82144" lon="4.80531">
        <ele>379</ele>
        <time>2020-06-07T07:20:16.000Z</time>
      </trkpt>
      <trkpt lat="45.82141" lon="4.80526">
        <ele>379.2</ele>
        <time>2020-06-07T07:20:17.000Z</time>
      </trkpt>
      <trkpt lat="45.82139" lon="4.80522">
        <ele>379.4</ele>
        <time>2020-06-07T07:20:18.000Z</time>
      </trkpt>
      <trkpt lat="45.82136" lon="4.80518">
        <ele>379.6</ele>
        <time>2020-06-07T07:20:19.000Z</time>
      </trkpt>
      <trkpt lat="45.82133" lon="4.80514">
        <ele>379.7</ele>
        <time>2020-06-07T07:20:20.000Z</time>
      </trkpt>
      <trkpt lat="45.82131" lon="4.80509">
        <ele>379.9</ele>
        <time>2020-06-07T07:20:21.000Z</time>
      </trkpt>
      <trkpt lat="45.82128" lon="4.80505">
        <ele>380</ele>
        <time>2020-06-07T07:20:22.000Z</time>
      </trkpt>
      <trkpt lat="45.82126" lon="4.80501">
        <ele>380.1</ele>
        <time>2020-06-07T07:20:23.000Z</time>
      </trkpt>
      <trkpt lat="45.82124" lon="4.80497">
        <ele>380.2</ele>
        <time>2020-06-07T07:20:24.000Z</time>
      </trkpt>
      <trkpt lat="45.82122" lon="4.80494">
        <ele>380.2</ele>
        <time>2020-06-07T07:20:25.000Z</time>
      </trkpt>
      <trkpt lat="45.8212" lon="4.80491">
        <ele>380.3</ele>
        <time>2020-06-07T07:20:26.000Z</time>
      </trkpt>
      <trkpt lat="45.82118" lon="4.80488">
        <ele>380.3</ele>
        <time>2020-06-07T07:20:27.000Z</time>
      </trkpt>
      <trkpt lat="45.82116" lon="4.80485">
        <ele>380.2</ele>
        <time>2020-06-07T07:20:28.000Z</time>
      </trkpt>
      <trkpt lat="45.82114" lon="4.80481">
        <ele>380.1</ele>
        <time>2020-06-07T07:20:29.000Z</time>
      </trkpt>
      <trkpt lat="45.82112" lon="4.80477">
        <ele>380</ele>
        <time>2020-06-07T07:20:30.000Z</time>
      </trkpt>
      <trkpt lat="45.82111" lon="4.80474">
        <ele>379.8</ele>
        <time>2020-06-07T07:20:31.000Z</time>
      </trkpt>
      <trkpt lat="45.8211" lon="4.8047">
        <ele>379.6</ele>
        <time>2020-06-07T07:20:32.000Z</time>
      </trkpt>
      <trkpt lat="45.82109" lon="4.80467">
        <ele>379.4</ele>
        <time>2020-06-07T07:20:33.000Z</time>
      </trkpt>
      <trkpt lat="45.82108" lon="4.80465">
        <ele>378.7</ele>
        <time>2020-06-07T07:20:34.000Z</time>
      </trkpt>
      <trkpt lat="45.82108" lon="4.80463">
        <ele>378.7</ele>
        <time>2020-06-07T07:20:35.000Z</time>
      </trkpt>
      <trkpt lat="45.82107" lon="4.80461">
        <ele>378.7</ele>
        <time>2020-06-07T07:20:36.000Z</time>
      </trkpt>
      <trkpt lat="45.82108" lon="4.80459">
        <ele>378.7</ele>
        <time>2020-06-07T07:20:37.000Z</time>
      </trkpt>
      <trkpt lat="45.82108" lon="4.80458">
        <ele>378.7</ele>
        <time>2020-06-07T07:20:38.000Z</time>
      </trkpt>
      <trkpt lat="45.82109" lon="4.80458">
        <ele>378.7</ele>
        <time>2020-06-07T07:20:39.000Z</time>
      </trkpt>
      <trkpt lat="45.8211" lon="4.80458">
        <ele>378.7</ele>
        <time>2020-06-07T07:20:40.000Z</time>
      </trkpt>
      <trkpt lat="45.8211" lon="4.80457">
        <ele>378.7</ele>
        <time>2020-06-07T07:20:41.000Z</time>
      </trkpt>
      <trkpt lat="45.8211" lon="4.80457">
        <ele>378.7</ele>
        <time>2020-06-07T07:20:42.000Z</time>
      </trkpt>
      <trkpt lat="45.82111" lon="4.80457">
        <ele>378.7</ele>
        <time>2020-06-07T07:20:43.000Z</time>
      </trkpt>
      <trkpt lat="45.82111" lon="4.80457">
        <ele>378.7</ele>
        <time>2020-06-07T07:20:44.000Z</time>
      </trkpt>
      <trkpt lat="45.82112" lon="4.80456">
        <ele>378.7</ele>
        <time>2020-06-07T07:20:45.000Z</time>
      </trkpt>
      <trkpt lat="45.82112" lon="4.80456">
        <ele>378.7</ele>
        <time>2020-06-07T07:20:46.000Z</time>
      </trkpt>
      <trkpt lat="45.82112" lon="4.80456">
        <ele>378.7</ele>
        <time>2020-06-07T07:20:47.000Z</time>
      </trkpt>
      <trkpt lat="45.82119" lon="4.80446">
        <ele>377.7</ele>
        <time>2020-06-07T07:21:00.000Z</time>
      </trkpt>
      <trkpt lat="45.82121" lon="4.80442">
        <ele>377.2</ele>
        <time>2020-06-07T07:21:01.000Z</time>
      </trkpt>
      <trkpt lat="45.82124" lon="4.80439">
        <ele>376.7</ele>
        <time>2020-06-07T07:21:02.000Z</time>
      </trkpt>
      <trkpt lat="45.82126" lon="4.80435">
        <ele>376.2</ele>
        <time>2020-06-07T07:21:03.000Z</time>
      </trkpt>
      <trkpt lat="45.8213" lon="4.8043">
        <ele>375.4</ele>
        <time>2020-06-07T07:21:04.000Z</time>
      </trkpt>
      <trkpt lat="45.82134" lon="4.80425">
        <ele>374.6</ele>
        <time>2020-06-07T07:21:05.000Z</time>
      </trkpt>
      <trkpt lat="45.8214" lon="4.80419">
        <ele>373.7</ele>
        <time>2020-06-07T07:21:06.000Z</time>
      </trkpt>
      <trkpt lat="45.82146" lon="4.80414">
        <ele>372.8</ele>
        <time>2020-06-07T07:21:07.000Z</time>
      </trkpt>
      <trkpt lat="45.82152" lon="4.80409">
        <ele>372</ele>
        <time>2020-06-07T07:21:08.000Z</time>
      </trkpt>
      <trkpt lat="45.82159" lon="4.80403">
        <ele>371.3</ele>
        <time>2020-06-07T07:21:09.000Z</time>
      </trkpt>
      <trkpt lat="45.82166" lon="4.80398">
        <ele>370.7</ele>
        <time>2020-06-07T07:21:10.000Z</time>
      </trkpt>
      <trkpt lat="45.82174" lon="4.80393">
        <ele>370.1</ele>
        <time>2020-06-07T07:21:11.000Z</time>
      </trkpt>
      <trkpt lat="45.8218" lon="4.80387">
        <ele>369.8</ele>
        <time>2020-06-07T07:21:12.000Z</time>
      </trkpt>
      <trkpt lat="45.82187" lon="4.80381">
        <ele>369.6</ele>
        <time>2020-06-07T07:21:13.000Z</time>
      </trkpt>
      <trkpt lat="45.82193" lon="4.80377">
        <ele>369.5</ele>
        <time>2020-06-07T07:21:14.000Z</time>
      </trkpt>
      <trkpt lat="45.82199" lon="4.80373">
        <ele>369.5</ele>
        <time>2020-06-07T07:21:15.000Z</time>
      </trkpt>
      <trkpt lat="45.82205" lon="4.80371">
        <ele>369.6</ele>
        <time>2020-06-07T07:21:16.000Z</time>
      </trkpt>
      <trkpt lat="45.8221" lon="4.80369">
        <ele>369.7</ele>
        <time>2020-06-07T07:21:17.000Z</time>
      </trkpt>
      <trkpt lat="45.82214" lon="4.80367">
        <ele>369.8</ele>
        <time>2020-06-07T07:21:18.000Z</time>
      </trkpt>
      <trkpt lat="45.82219" lon="4.80365">
        <ele>369.9</ele>
        <time>2020-06-07T07:21:19.000Z</time>
      </trkpt>
      <trkpt lat="45.82222" lon="4.80363">
        <ele>370</ele>
        <time>2020-06-07T07:21:20.000Z</time>
      </trkpt>
      <trkpt lat="45.82227" lon="4.8036">
        <ele>370.2</ele>
        <time>2020-06-07T07:21:21.000Z</time>
      </trkpt>
      <trkpt lat="45.82231" lon="4.80358">
        <ele>370.4</ele>
        <time>2020-06-07T07:21:22.000Z</time>
      </trkpt>
      <trkpt lat="45.82234" lon="4.80356">
        <ele>370.6</ele>
        <time>2020-06-07T07:21:23.000Z</time>
      </trkpt>
      <trkpt lat="45.82239" lon="4.80355">
        <ele>370.8</ele>
        <time>2020-06-07T07:21:24.000Z</time>
      </trkpt>
      <trkpt lat="45.82242" lon="4.80353">
        <ele>371</ele>
        <time>2020-06-07T07:21:25.000Z</time>
      </trkpt>
      <trkpt lat="45.82246" lon="4.80351">
        <ele>371.2</ele>
        <time>2020-06-07T07:21:26.000Z</time>
      </trkpt>
      <trkpt lat="45.82249" lon="4.8035">
        <ele>371.5</ele>
        <time>2020-06-07T07:21:27.000Z</time>
      </trkpt>
      <trkpt lat="45.82253" lon="4.80348">
        <ele>371.7</ele>
        <time>2020-06-07T07:21:28.000Z</time>
      </trkpt>
      <trkpt lat="45.82257" lon="4.80346">
        <ele>372</ele>
        <time>2020-06-07T07:21:29.000Z</time>
      </trkpt>
      <trkpt lat="45.82261" lon="4.80345">
        <ele>372.3</ele>
        <time>2020-06-07T07:21:30.000Z</time>
      </trkpt>
      <trkpt lat="45.82264" lon="4.80343">
        <ele>372.6</ele>
        <time>2020-06-07T07:21:31.000Z</time>
      </trkpt>
      <trkpt lat="45.82268" lon="4.80341">
        <ele>372.9</ele>
        <time>2020-06-07T07:21:32.000Z</time>
      </trkpt>
      <trkpt lat="45.82271" lon="4.8034">
        <ele>373.2</ele>
        <time>2020-06-07T07:21:33.000Z</time>
      </trkpt>
      <trkpt lat="45.82274" lon="4.80338">
        <ele>373.6</ele>
        <time>2020-06-07T07:21:34.000Z</time>
      </trkpt>
      <trkpt lat="45.82277" lon="4.80337">
        <ele>373.9</ele>
        <time>2020-06-07T07:21:35.000Z</time>
      </trkpt>
      <trkpt lat="45.8228" lon="4.80336">
        <ele>374.2</ele>
        <time>2020-06-07T07:21:36.000Z</time>
      </trkpt>
      <trkpt lat="45.82282" lon="4.80335">
        <ele>374.5</ele>
        <time>2020-06-07T07:21:37.000Z</time>
      </trkpt>
      <trkpt lat="45.82284" lon="4.80334">
        <ele>374.8</ele>
        <time>2020-06-07T07:21:38.000Z</time>
      </trkpt>
      <trkpt lat="45.82286" lon="4.80333">
        <ele>375.1</ele>
        <time>2020-06-07T07:21:39.000Z</time>
      </trkpt>
      <trkpt lat="45.82288" lon="4.80332">
        <ele>375.3</ele>
        <time>2020-06-07T07:21:40.000Z</time>
      </trkpt>
      <trkpt lat="45.8229" lon="4.80332">
        <ele>375.6</ele>
        <time>2020-06-07T07:21:41.000Z</time>
      </trkpt>
      <trkpt lat="45.82293" lon="4.80331">
        <ele>375.8</ele>
        <time>2020-06-07T07:21:42.000Z</time>
      </trkpt>
      <trkpt lat="45.82295" lon="4.8033">
        <ele>376.1</ele>
        <time>2020-06-07T07:21:43.000Z</time>
      </trkpt>
      <trkpt lat="45.82297" lon="4.80328">
        <ele>376.3</ele>
        <time>2020-06-07T07:21:44.000Z</time>
      </trkpt>
      <trkpt lat="45.82299" lon="4.80327">
        <ele>376.6</ele>
        <time>2020-06-07T07:21:45.000Z</time>
      </trkpt>
      <trkpt lat="45.82301" lon="4.80326">
        <ele>376.8</ele>
        <time>2020-06-07T07:21:46.000Z</time>
      </trkpt>
      <trkpt lat="45.82303" lon="4.80326">
        <ele>376.9</ele>
        <time>2020-06-07T07:21:47.000Z</time>
      </trkpt>
      <trkpt lat="45.82305" lon="4.80325">
        <ele>377.1</ele>
        <time>2020-06-07T07:21:48.000Z</time>
      </trkpt>
      <trkpt lat="45.82307" lon="4.80324">
        <ele>377.3</ele>
        <time>2020-06-07T07:21:49.000Z</time>
      </trkpt>
      <trkpt lat="45.82308" lon="4.80323">
        <ele>377.4</ele>
        <time>2020-06-07T07:21:50.000Z</time>
      </trkpt>
      <trkpt lat="45.8231" lon="4.80321">
        <ele>377.5</ele>
        <time>2020-06-07T07:21:51.000Z</time>
      </trkpt>
      <trkpt lat="45.82312" lon="4.80318">
        <ele>377.7</ele>
        <time>2020-06-07T07:21:52.000Z</time>
      </trkpt>
      <trkpt lat="45.82313" lon="4.80315">
        <ele>377.7</ele>
        <time>2020-06-07T07:21:53.000Z</time>
      </trkpt>
      <trkpt lat="45.82315" lon="4.80312">
        <ele>377.8</ele>
        <time>2020-06-07T07:21:54.000Z</time>
      </trkpt>
      <trkpt lat="45.82317" lon="4.80308">
        <ele>377.9</ele>
        <time>2020-06-07T07:21:55.000Z</time>
      </trkpt>
      <trkpt lat="45.82318" lon="4.80303">
        <ele>377.9</ele>
        <time>2020-06-07T07:21:56.000Z</time>
      </trkpt>
      <trkpt lat="45.8232" lon="4.803">
        <ele>377.8</ele>
        <time>2020-06-07T07:21:57.000Z</time>
      </trkpt>
      <trkpt lat="45.82322" lon="4.80296">
        <ele>377.8</ele>
        <time>2020-06-07T07:21:58.000Z</time>
      </trkpt>
      <trkpt lat="45.82323" lon="4.80291">
        <ele>377.7</ele>
        <time>2020-06-07T07:21:59.000Z</time>
      </trkpt>
      <trkpt lat="45.82325" lon="4.80286">
        <ele>377.6</ele>
        <time>2020-06-07T07:22:00.000Z</time>
      </trkpt>
      <trkpt lat="45.82328" lon="4.8028">
        <ele>377.4</ele>
        <time>2020-06-07T07:22:01.000Z</time>
      </trkpt>
      <trkpt lat="45.8233" lon="4.80274">
        <ele>377.2</ele>
        <time>2020-06-07T07:22:02.000Z</time>
      </trkpt>
      <trkpt lat="45.82333" lon="4.80268">
        <ele>377</ele>
        <time>2020-06-07T07:22:03.000Z</time>
      </trkpt>
      <trkpt lat="45.82335" lon="4.80261">
        <ele>376.8</ele>
        <time>2020-06-07T07:22:04.000Z</time>
      </trkpt>
      <trkpt lat="45.82338" lon="4.80255">
        <ele>376.6</ele>
        <time>2020-06-07T07:22:05.000Z</time>
      </trkpt>
      <trkpt lat="45.8234" lon="4.80249">
        <ele>376.4</ele>
        <time>2020-06-07T07:22:06.000Z</time>
      </trkpt>
      <trkpt lat="45.82343" lon="4.80242">
        <ele>376.3</ele>
        <time>2020-06-07T07:22:07.000Z</time>
      </trkpt>
      <trkpt lat="45.82346" lon="4.80236">
        <ele>376.1</ele>
        <time>2020-06-07T07:22:08.000Z</time>
      </trkpt>
      <trkpt lat="45.82348" lon="4.80229">
        <ele>375.9</ele>
        <time>2020-06-07T07:22:09.000Z</time>
      </trkpt>
      <trkpt lat="45.82351" lon="4.80223">
        <ele>375.8</ele>
        <time>2020-06-07T07:22:10.000Z</time>
      </trkpt>
      <trkpt lat="45.82354" lon="4.80216">
        <ele>375.6</ele>
        <time>2020-06-07T07:22:11.000Z</time>
      </trkpt>
      <trkpt lat="45.82356" lon="4.8021">
        <ele>375.5</ele>
        <time>2020-06-07T07:22:12.000Z</time>
      </trkpt>
      <trkpt lat="45.82358" lon="4.80203">
        <ele>375.5</ele>
        <time>2020-06-07T07:22:13.000Z</time>
      </trkpt>
      <trkpt lat="45.8236" lon="4.80196">
        <ele>375.5</ele>
        <time>2020-06-07T07:22:14.000Z</time>
      </trkpt>
      <trkpt lat="45.82362" lon="4.80188">
        <ele>375.5</ele>
        <time>2020-06-07T07:22:15.000Z</time>
      </trkpt>
      <trkpt lat="45.82363" lon="4.80181">
        <ele>375.6</ele>
        <time>2020-06-07T07:22:16.000Z</time>
      </trkpt>
      <trkpt lat="45.82365" lon="4.80174">
        <ele>375.7</ele>
        <time>2020-06-07T07:22:17.000Z</time>
      </trkpt>
      <trkpt lat="45.82368" lon="4.80169">
        <ele>375.9</ele>
        <time>2020-06-07T07:22:18.000Z</time>
      </trkpt>
      <trkpt lat="45.82369" lon="4.80163">
        <ele>376</ele>
        <time>2020-06-07T07:22:19.000Z</time>
      </trkpt>
      <trkpt lat="45.82371" lon="4.80157">
        <ele>376.2</ele>
        <time>2020-06-07T07:22:20.000Z</time>
      </trkpt>
      <trkpt lat="45.82372" lon="4.80152">
        <ele>376.3</ele>
        <time>2020-06-07T07:22:21.000Z</time>
      </trkpt>
      <trkpt lat="45.82374" lon="4.80147">
        <ele>376.4</ele>
        <time>2020-06-07T07:22:22.000Z</time>
      </trkpt>
      <trkpt lat="45.82375" lon="4.80142">
        <ele>376.6</ele>
        <time>2020-06-07T07:22:23.000Z</time>
      </trkpt>
      <trkpt lat="45.82377" lon="4.80138">
        <ele>376.7</ele>
        <time>2020-06-07T07:22:24.000Z</time>
      </trkpt>
      <trkpt lat="45.82379" lon="4.80133">
        <ele>376.9</ele>
        <time>2020-06-07T07:22:25.000Z</time>
      </trkpt>
      <trkpt lat="45.8238" lon="4.80129">
        <ele>377.1</ele>
        <time>2020-06-07T07:22:26.000Z</time>
      </trkpt>
      <trkpt lat="45.82382" lon="4.80124">
        <ele>377.2</ele>
        <time>2020-06-07T07:22:27.000Z</time>
      </trkpt>
      <trkpt lat="45.82383" lon="4.8012">
        <ele>377.4</ele>
        <time>2020-06-07T07:22:28.000Z</time>
      </trkpt>
      <trkpt lat="45.82385" lon="4.80116">
        <ele>377.6</ele>
        <time>2020-06-07T07:22:29.000Z</time>
      </trkpt>
      <trkpt lat="45.82386" lon="4.80112">
        <ele>377.7</ele>
        <time>2020-06-07T07:22:30.000Z</time>
      </trkpt>
      <trkpt lat="45.82387" lon="4.80108">
        <ele>377.9</ele>
        <time>2020-06-07T07:22:31.000Z</time>
      </trkpt>
      <trkpt lat="45.82389" lon="4.80103">
        <ele>378.1</ele>
        <time>2020-06-07T07:22:32.000Z</time>
      </trkpt>
      <trkpt lat="45.8239" lon="4.80099">
        <ele>378.2</ele>
        <time>2020-06-07T07:22:33.000Z</time>
      </trkpt>
      <trkpt lat="45.82391" lon="4.80095">
        <ele>378.4</ele>
        <time>2020-06-07T07:22:34.000Z</time>
      </trkpt>
      <trkpt lat="45.82393" lon="4.80091">
        <ele>378.6</ele>
        <time>2020-06-07T07:22:35.000Z</time>
      </trkpt>
      <trkpt lat="45.82394" lon="4.80087">
        <ele>378.7</ele>
        <time>2020-06-07T07:22:36.000Z</time>
      </trkpt>
      <trkpt lat="45.82396" lon="4.80084">
        <ele>378.9</ele>
        <time>2020-06-07T07:22:37.000Z</time>
      </trkpt>
      <trkpt lat="45.82397" lon="4.8008">
        <ele>379</ele>
        <time>2020-06-07T07:22:38.000Z</time>
      </trkpt>
      <trkpt lat="45.82399" lon="4.80076">
        <ele>379.2</ele>
        <time>2020-06-07T07:22:39.000Z</time>
      </trkpt>
      <trkpt lat="45.824" lon="4.80072">
        <ele>379.4</ele>
        <time>2020-06-07T07:22:40.000Z</time>
      </trkpt>
      <trkpt lat="45.82402" lon="4.80069">
        <ele>379.5</ele>
        <time>2020-06-07T07:22:41.000Z</time>
      </trkpt>
      <trkpt lat="45.82404" lon="4.80065">
        <ele>379.7</ele>
        <time>2020-06-07T07:22:42.000Z</time>
      </trkpt>
      <trkpt lat="45.82406" lon="4.80062">
        <ele>379.9</ele>
        <time>2020-06-07T07:22:43.000Z</time>
      </trkpt>
      <trkpt lat="45.82407" lon="4.80059">
        <ele>380.1</ele>
        <time>2020-06-07T07:22:44.000Z</time>
      </trkpt>
      <trkpt lat="45.82409" lon="4.80055">
        <ele>380.3</ele>
        <time>2020-06-07T07:22:45.000Z</time>
      </trkpt>
      <trkpt lat="45.82411" lon="4.80052">
        <ele>380.5</ele>
        <time>2020-06-07T07:22:46.000Z</time>
      </trkpt>
      <trkpt lat="45.82412" lon="4.80048">
        <ele>380.7</ele>
        <time>2020-06-07T07:22:47.000Z</time>
      </trkpt>
      <trkpt lat="45.82413" lon="4.80045">
        <ele>380.9</ele>
        <time>2020-06-07T07:22:48.000Z</time>
      </trkpt>
      <trkpt lat="45.82414" lon="4.80042">
        <ele>381.1</ele>
        <time>2020-06-07T07:22:49.000Z</time>
      </trkpt>
      <trkpt lat="45.82415" lon="4.80039">
        <ele>381.3</ele>
        <time>2020-06-07T07:22:50.000Z</time>
      </trkpt>
      <trkpt lat="45.82416" lon="4.80036">
        <ele>381.5</ele>
        <time>2020-06-07T07:22:51.000Z</time>
      </trkpt>
      <trkpt lat="45.82418" lon="4.80033">
        <ele>381.7</ele>
        <time>2020-06-07T07:22:52.000Z</time>
      </trkpt>
      <trkpt lat="45.82419" lon="4.8003">
        <ele>381.9</ele>
        <time>2020-06-07T07:22:53.000Z</time>
      </trkpt>
      <trkpt lat="45.82421" lon="4.80027">
        <ele>382.1</ele>
        <time>2020-06-07T07:22:54.000Z</time>
      </trkpt>
      <trkpt lat="45.82422" lon="4.80024">
        <ele>382.4</ele>
        <time>2020-06-07T07:22:55.000Z</time>
      </trkpt>
      <trkpt lat="45.82424" lon="4.80021">
        <ele>382.7</ele>
        <time>2020-06-07T07:22:56.000Z</time>
      </trkpt>
      <trkpt lat="45.82425" lon="4.80018">
        <ele>382.9</ele>
        <time>2020-06-07T07:22:57.000Z</time>
      </trkpt>
      <trkpt lat="45.82427" lon="4.80015">
        <ele>383.2</ele>
        <time>2020-06-07T07:22:58.000Z</time>
      </trkpt>
      <trkpt lat="45.82428" lon="4.80013">
        <ele>383.4</ele>
        <time>2020-06-07T07:22:59.000Z</time>
      </trkpt>
      <trkpt lat="45.8243" lon="4.8001">
        <ele>383.7</ele>
        <time>2020-06-07T07:23:00.000Z</time>
      </trkpt>
      <trkpt lat="45.82431" lon="4.80007">
        <ele>383.9</ele>
        <time>2020-06-07T07:23:01.000Z</time>
      </trkpt>
      <trkpt lat="45.82433" lon="4.80004">
        <ele>384.2</ele>
        <time>2020-06-07T07:23:02.000Z</time>
      </trkpt>
      <trkpt lat="45.82434" lon="4.80001">
        <ele>384.5</ele>
        <time>2020-06-07T07:23:03.000Z</time>
      </trkpt>
      <trkpt lat="45.82435" lon="4.79998">
        <ele>384.8</ele>
        <time>2020-06-07T07:23:04.000Z</time>
      </trkpt>
      <trkpt lat="45.82436" lon="4.79995">
        <ele>385</ele>
        <time>2020-06-07T07:23:05.000Z</time>
      </trkpt>
      <trkpt lat="45.82437" lon="4.79992">
        <ele>385.3</ele>
        <time>2020-06-07T07:23:06.000Z</time>
      </trkpt>
      <trkpt lat="45.82438" lon="4.7999">
        <ele>385.5</ele>
        <time>2020-06-07T07:23:07.000Z</time>
      </trkpt>
      <trkpt lat="45.82438" lon="4.79987">
        <ele>385.7</ele>
        <time>2020-06-07T07:23:08.000Z</time>
      </trkpt>
      <trkpt lat="45.82439" lon="4.79984">
        <ele>386</ele>
        <time>2020-06-07T07:23:09.000Z</time>
      </trkpt>
      <trkpt lat="45.82439" lon="4.79981">
        <ele>386.2</ele>
        <time>2020-06-07T07:23:10.000Z</time>
      </trkpt>
      <trkpt lat="45.8244" lon="4.79978">
        <ele>386.4</ele>
        <time>2020-06-07T07:23:11.000Z</time>
      </trkpt>
      <trkpt lat="45.8244" lon="4.79976">
        <ele>386.6</ele>
        <time>2020-06-07T07:23:12.000Z</time>
      </trkpt>
      <trkpt lat="45.82441" lon="4.79974">
        <ele>386.8</ele>
        <time>2020-06-07T07:23:13.000Z</time>
      </trkpt>
      <trkpt lat="45.82442" lon="4.79971">
        <ele>387</ele>
        <time>2020-06-07T07:23:14.000Z</time>
      </trkpt>
      <trkpt lat="45.82442" lon="4.79968">
        <ele>387.2</ele>
        <time>2020-06-07T07:23:15.000Z</time>
      </trkpt>
      <trkpt lat="45.82443" lon="4.79966">
        <ele>387.4</ele>
        <time>2020-06-07T07:23:16.000Z</time>
      </trkpt>
      <trkpt lat="45.82444" lon="4.79963">
        <ele>387.7</ele>
        <time>2020-06-07T07:23:17.000Z</time>
      </trkpt>
      <trkpt lat="45.82445" lon="4.79961">
        <ele>387.9</ele>
        <time>2020-06-07T07:23:18.000Z</time>
      </trkpt>
      <trkpt lat="45.82446" lon="4.79959">
        <ele>388.1</ele>
        <time>2020-06-07T07:23:19.000Z</time>
      </trkpt>
      <trkpt lat="45.82447" lon="4.79957">
        <ele>388.3</ele>
        <time>2020-06-07T07:23:20.000Z</time>
      </trkpt>
      <trkpt lat="45.82448" lon="4.79955">
        <ele>388.5</ele>
        <time>2020-06-07T07:23:21.000Z</time>
      </trkpt>
      <trkpt lat="45.82449" lon="4.79953">
        <ele>388.6</ele>
        <time>2020-06-07T07:23:22.000Z</time>
      </trkpt>
      <trkpt lat="45.8245" lon="4.79952">
        <ele>388.8</ele>
        <time>2020-06-07T07:23:23.000Z</time>
      </trkpt>
      <trkpt lat="45.82452" lon="4.7995">
        <ele>389</ele>
        <time>2020-06-07T07:23:24.000Z</time>
      </trkpt>
      <trkpt lat="45.82453" lon="4.79948">
        <ele>389.3</ele>
        <time>2020-06-07T07:23:25.000Z</time>
      </trkpt>
      <trkpt lat="45.82454" lon="4.79945">
        <ele>389.5</ele>
        <time>2020-06-07T07:23:26.000Z</time>
      </trkpt>
      <trkpt lat="45.82456" lon="4.79943">
        <ele>389.7</ele>
        <time>2020-06-07T07:23:27.000Z</time>
      </trkpt>
      <trkpt lat="45.82457" lon="4.79941">
        <ele>389.9</ele>
        <time>2020-06-07T07:23:28.000Z</time>
      </trkpt>
      <trkpt lat="45.82458" lon="4.79939">
        <ele>390.1</ele>
        <time>2020-06-07T07:23:29.000Z</time>
      </trkpt>
      <trkpt lat="45.82459" lon="4.79937">
        <ele>390.3</ele>
        <time>2020-06-07T07:23:30.000Z</time>
      </trkpt>
      <trkpt lat="45.82461" lon="4.79935">
        <ele>390.5</ele>
        <time>2020-06-07T07:23:31.000Z</time>
      </trkpt>
      <trkpt lat="45.82462" lon="4.79933">
        <ele>390.7</ele>
        <time>2020-06-07T07:23:32.000Z</time>
      </trkpt>
      <trkpt lat="45.82463" lon="4.79932">
        <ele>390.9</ele>
        <time>2020-06-07T07:23:33.000Z</time>
      </trkpt>
      <trkpt lat="45.82465" lon="4.7993">
        <ele>391.1</ele>
        <time>2020-06-07T07:23:34.000Z</time>
      </trkpt>
      <trkpt lat="45.82466" lon="4.79928">
        <ele>391.3</ele>
        <time>2020-06-07T07:23:35.000Z</time>
      </trkpt>
      <trkpt lat="45.82468" lon="4.79927">
        <ele>391.5</ele>
        <time>2020-06-07T07:23:36.000Z</time>
      </trkpt>
      <trkpt lat="45.82469" lon="4.79925">
        <ele>391.7</ele>
        <time>2020-06-07T07:23:37.000Z</time>
      </trkpt>
      <trkpt lat="45.82471" lon="4.79923">
        <ele>391.9</ele>
        <time>2020-06-07T07:23:38.000Z</time>
      </trkpt>
      <trkpt lat="45.82472" lon="4.79921">
        <ele>392.1</ele>
        <time>2020-06-07T07:23:39.000Z</time>
      </trkpt>
      <trkpt lat="45.82473" lon="4.79919">
        <ele>392.3</ele>
        <time>2020-06-07T07:23:40.000Z</time>
      </trkpt>
      <trkpt lat="45.82474" lon="4.79918">
        <ele>392.4</ele>
        <time>2020-06-07T07:23:41.000Z</time>
      </trkpt>
      <trkpt lat="45.82475" lon="4.79916">
        <ele>392.6</ele>
        <time>2020-06-07T07:23:42.000Z</time>
      </trkpt>
      <trkpt lat="45.82477" lon="4.79915">
        <ele>392.8</ele>
        <time>2020-06-07T07:23:43.000Z</time>
      </trkpt>
      <trkpt lat="45.82478" lon="4.79913">
        <ele>393</ele>
        <time>2020-06-07T07:23:44.000Z</time>
      </trkpt>
      <trkpt lat="45.8248" lon="4.79912">
        <ele>393.2</ele>
        <time>2020-06-07T07:23:45.000Z</time>
      </trkpt>
      <trkpt lat="45.82481" lon="4.7991">
        <ele>393.3</ele>
        <time>2020-06-07T07:23:46.000Z</time>
      </trkpt>
      <trkpt lat="45.82483" lon="4.79909">
        <ele>393.5</ele>
        <time>2020-06-07T07:23:47.000Z</time>
      </trkpt>
      <trkpt lat="45.82484" lon="4.79907">
        <ele>393.7</ele>
        <time>2020-06-07T07:23:48.000Z</time>
      </trkpt>
      <trkpt lat="45.82485" lon="4.79906">
        <ele>393.9</ele>
        <time>2020-06-07T07:23:49.000Z</time>
      </trkpt>
      <trkpt lat="45.82487" lon="4.79904">
        <ele>394</ele>
        <time>2020-06-07T07:23:50.000Z</time>
      </trkpt>
      <trkpt lat="45.82488" lon="4.79902">
        <ele>394.2</ele>
        <time>2020-06-07T07:23:51.000Z</time>
      </trkpt>
      <trkpt lat="45.82489" lon="4.799">
        <ele>394.4</ele>
        <time>2020-06-07T07:23:52.000Z</time>
      </trkpt>
      <trkpt lat="45.8249" lon="4.79898">
        <ele>394.5</ele>
        <time>2020-06-07T07:23:53.000Z</time>
      </trkpt>
      <trkpt lat="45.82491" lon="4.79896">
        <ele>394.7</ele>
        <time>2020-06-07T07:23:54.000Z</time>
      </trkpt>
      <trkpt lat="45.82492" lon="4.79895">
        <ele>394.8</ele>
        <time>2020-06-07T07:23:55.000Z</time>
      </trkpt>
      <trkpt lat="45.82494" lon="4.79893">
        <ele>395</ele>
        <time>2020-06-07T07:23:56.000Z</time>
      </trkpt>
      <trkpt lat="45.82495" lon="4.79891">
        <ele>395.1</ele>
        <time>2020-06-07T07:23:57.000Z</time>
      </trkpt>
      <trkpt lat="45.82496" lon="4.7989">
        <ele>395.3</ele>
        <time>2020-06-07T07:23:58.000Z</time>
      </trkpt>
      <trkpt lat="45.82498" lon="4.79889">
        <ele>395.4</ele>
        <time>2020-06-07T07:23:59.000Z</time>
      </trkpt>
      <trkpt lat="45.82499" lon="4.79889">
        <ele>395.5</ele>
        <time>2020-06-07T07:24:00.000Z</time>
      </trkpt>
      <trkpt lat="45.825" lon="4.7989">
        <ele>396.5</ele>
        <time>2020-06-07T07:24:01.000Z</time>
      </trkpt>
      <trkpt lat="45.82501" lon="4.79892">
        <ele>396.6</ele>
        <time>2020-06-07T07:24:02.000Z</time>
      </trkpt>
      <trkpt lat="45.82503" lon="4.79893">
        <ele>396.8</ele>
        <time>2020-06-07T07:24:03.000Z</time>
      </trkpt>
      <trkpt lat="45.82504" lon="4.79894">
        <ele>396.9</ele>
        <time>2020-06-07T07:24:04.000Z</time>
      </trkpt>
      <trkpt lat="45.82505" lon="4.79896">
        <ele>397</ele>
        <time>2020-06-07T07:24:05.000Z</time>
      </trkpt>
      <trkpt lat="45.82506" lon="4.79898">
        <ele>397.2</ele>
        <time>2020-06-07T07:24:06.000Z</time>
      </trkpt>
      <trkpt lat="45.82506" lon="4.79901">
        <ele>397.4</ele>
        <time>2020-06-07T07:24:07.000Z</time>
      </trkpt>
      <trkpt lat="45.82507" lon="4.79903">
        <ele>397.5</ele>
        <time>2020-06-07T07:24:08.000Z</time>
      </trkpt>
      <trkpt lat="45.82507" lon="4.79906">
        <ele>397.6</ele>
        <time>2020-06-07T07:24:09.000Z</time>
      </trkpt>
      <trkpt lat="45.82508" lon="4.79909">
        <ele>397.8</ele>
        <time>2020-06-07T07:24:10.000Z</time>
      </trkpt>
      <trkpt lat="45.82508" lon="4.79911">
        <ele>397.9</ele>
        <time>2020-06-07T07:24:11.000Z</time>
      </trkpt>
      <trkpt lat="45.82509" lon="4.79914">
        <ele>398.1</ele>
        <time>2020-06-07T07:24:12.000Z</time>
      </trkpt>
      <trkpt lat="45.82509" lon="4.79916">
        <ele>398.2</ele>
        <time>2020-06-07T07:24:13.000Z</time>
      </trkpt>
      <trkpt lat="45.8251" lon="4.79919">
        <ele>398.3</ele>
        <time>2020-06-07T07:24:14.000Z</time>
      </trkpt>
      <trkpt lat="45.82511" lon="4.79922">
        <ele>398.5</ele>
        <time>2020-06-07T07:24:15.000Z</time>
      </trkpt>
      <trkpt lat="45.82511" lon="4.79924">
        <ele>398.6</ele>
        <time>2020-06-07T07:24:16.000Z</time>
      </trkpt>
      <trkpt lat="45.82512" lon="4.79927">
        <ele>398.8</ele>
        <time>2020-06-07T07:24:17.000Z</time>
      </trkpt>
      <trkpt lat="45.82513" lon="4.79929">
        <ele>398.9</ele>
        <time>2020-06-07T07:24:18.000Z</time>
      </trkpt>
      <trkpt lat="45.82514" lon="4.79932">
        <ele>399.1</ele>
        <time>2020-06-07T07:24:19.000Z</time>
      </trkpt>
      <trkpt lat="45.82515" lon="4.79934">
        <ele>399.2</ele>
        <time>2020-06-07T07:24:20.000Z</time>
      </trkpt>
      <trkpt lat="45.82516" lon="4.79936">
        <ele>399.4</ele>
        <time>2020-06-07T07:24:21.000Z</time>
      </trkpt>
      <trkpt lat="45.82517" lon="4.79938">
        <ele>399.6</ele>
        <time>2020-06-07T07:24:22.000Z</time>
      </trkpt>
      <trkpt lat="45.82519" lon="4.79939">
        <ele>399.7</ele>
        <time>2020-06-07T07:24:23.000Z</time>
      </trkpt>
      <trkpt lat="45.8252" lon="4.79941">
        <ele>399.9</ele>
        <time>2020-06-07T07:24:24.000Z</time>
      </trkpt>
      <trkpt lat="45.82521" lon="4.79943">
        <ele>400</ele>
        <time>2020-06-07T07:24:25.000Z</time>
      </trkpt>
      <trkpt lat="45.82523" lon="4.79944">
        <ele>400.2</ele>
        <time>2020-06-07T07:24:26.000Z</time>
      </trkpt>
      <trkpt lat="45.82524" lon="4.79946">
        <ele>400.4</ele>
        <time>2020-06-07T07:24:27.000Z</time>
      </trkpt>
      <trkpt lat="45.82525" lon="4.79948">
        <ele>400.5</ele>
        <time>2020-06-07T07:24:28.000Z</time>
      </trkpt>
      <trkpt lat="45.82527" lon="4.7995">
        <ele>400.7</ele>
        <time>2020-06-07T07:24:29.000Z</time>
      </trkpt>
      <trkpt lat="45.82528" lon="4.79952">
        <ele>400.9</ele>
        <time>2020-06-07T07:24:30.000Z</time>
      </trkpt>
      <trkpt lat="45.82529" lon="4.79954">
        <ele>401.1</ele>
        <time>2020-06-07T07:24:31.000Z</time>
      </trkpt>
      <trkpt lat="45.8253" lon="4.79956">
        <ele>401.3</ele>
        <time>2020-06-07T07:24:32.000Z</time>
      </trkpt>
      <trkpt lat="45.82532" lon="4.79958">
        <ele>401.5</ele>
        <time>2020-06-07T07:24:33.000Z</time>
      </trkpt>
      <trkpt lat="45.82533" lon="4.7996">
        <ele>401.7</ele>
        <time>2020-06-07T07:24:34.000Z</time>
      </trkpt>
      <trkpt lat="45.82534" lon="4.79962">
        <ele>401.8</ele>
        <time>2020-06-07T07:24:35.000Z</time>
      </trkpt>
      <trkpt lat="45.82535" lon="4.79963">
        <ele>402</ele>
        <time>2020-06-07T07:24:36.000Z</time>
      </trkpt>
      <trkpt lat="45.82536" lon="4.79965">
        <ele>402.2</ele>
        <time>2020-06-07T07:24:37.000Z</time>
      </trkpt>
      <trkpt lat="45.82537" lon="4.79967">
        <ele>402.4</ele>
        <time>2020-06-07T07:24:38.000Z</time>
      </trkpt>
      <trkpt lat="45.82539" lon="4.79969">
        <ele>402.6</ele>
        <time>2020-06-07T07:24:39.000Z</time>
      </trkpt>
      <trkpt lat="45.8254" lon="4.79971">
        <ele>402.8</ele>
        <time>2020-06-07T07:24:40.000Z</time>
      </trkpt>
      <trkpt lat="45.82541" lon="4.79973">
        <ele>403</ele>
        <time>2020-06-07T07:24:41.000Z</time>
      </trkpt>
      <trkpt lat="45.82542" lon="4.79975">
        <ele>403.3</ele>
        <time>2020-06-07T07:24:42.000Z</time>
      </trkpt>
      <trkpt lat="45.82543" lon="4.79977">
        <ele>403.5</ele>
        <time>2020-06-07T07:24:43.000Z</time>
      </trkpt>
      <trkpt lat="45.82545" lon="4.79979">
        <ele>403.7</ele>
        <time>2020-06-07T07:24:44.000Z</time>
      </trkpt>
      <trkpt lat="45.82546" lon="4.79981">
        <ele>403.9</ele>
        <time>2020-06-07T07:24:45.000Z</time>
      </trkpt>
      <trkpt lat="45.82547" lon="4.79982">
        <ele>404.1</ele>
        <time>2020-06-07T07:24:46.000Z</time>
      </trkpt>
      <trkpt lat="45.82548" lon="4.79984">
        <ele>404.4</ele>
        <time>2020-06-07T07:24:47.000Z</time>
      </trkpt>
      <trkpt lat="45.8255" lon="4.79986">
        <ele>404.6</ele>
        <time>2020-06-07T07:24:48.000Z</time>
      </trkpt>
      <trkpt lat="45.82551" lon="4.79987">
        <ele>404.8</ele>
        <time>2020-06-07T07:24:49.000Z</time>
      </trkpt>
      <trkpt lat="45.82552" lon="4.79989">
        <ele>405.1</ele>
        <time>2020-06-07T07:24:50.000Z</time>
      </trkpt>
      <trkpt lat="45.82554" lon="4.7999">
        <ele>405.3</ele>
        <time>2020-06-07T07:24:51.000Z</time>
      </trkpt>
      <trkpt lat="45.82556" lon="4.79991">
        <ele>405.6</ele>
        <time>2020-06-07T07:24:52.000Z</time>
      </trkpt>
      <trkpt lat="45.82557" lon="4.79992">
        <ele>405.8</ele>
        <time>2020-06-07T07:24:53.000Z</time>
      </trkpt>
      <trkpt lat="45.82558" lon="4.79994">
        <ele>406</ele>
        <time>2020-06-07T07:24:54.000Z</time>
      </trkpt>
      <trkpt lat="45.8256" lon="4.79995">
        <ele>406.2</ele>
        <time>2020-06-07T07:24:55.000Z</time>
      </trkpt>
      <trkpt lat="45.82561" lon="4.79997">
        <ele>406.4</ele>
        <time>2020-06-07T07:24:56.000Z</time>
      </trkpt>
      <trkpt lat="45.82562" lon="4.79998">
        <ele>406.7</ele>
        <time>2020-06-07T07:24:57.000Z</time>
      </trkpt>
      <trkpt lat="45.82563" lon="4.8">
        <ele>406.9</ele>
        <time>2020-06-07T07:24:58.000Z</time>
      </trkpt>
      <trkpt lat="45.82564" lon="4.80001">
        <ele>407.2</ele>
        <time>2020-06-07T07:24:59.000Z</time>
      </trkpt>
      <trkpt lat="45.82565" lon="4.80003">
        <ele>407.4</ele>
        <time>2020-06-07T07:25:00.000Z</time>
      </trkpt>
      <trkpt lat="45.82566" lon="4.80004">
        <ele>407.6</ele>
        <time>2020-06-07T07:25:01.000Z</time>
      </trkpt>
      <trkpt lat="45.82567" lon="4.80006">
        <ele>407.9</ele>
        <time>2020-06-07T07:25:02.000Z</time>
      </trkpt>
      <trkpt lat="45.82568" lon="4.80008">
        <ele>408.1</ele>
        <time>2020-06-07T07:25:03.000Z</time>
      </trkpt>
      <trkpt lat="45.82568" lon="4.8001">
        <ele>408.2</ele>
        <time>2020-06-07T07:25:04.000Z</time>
      </trkpt>
      <trkpt lat="45.82568" lon="4.80013">
        <ele>408.3</ele>
        <time>2020-06-07T07:25:05.000Z</time>
      </trkpt>
      <trkpt lat="45.82568" lon="4.80016">
        <ele>408.4</ele>
        <time>2020-06-07T07:25:06.000Z</time>
      </trkpt>
      <trkpt lat="45.82568" lon="4.80019">
        <ele>408.4</ele>
        <time>2020-06-07T07:25:07.000Z</time>
      </trkpt>
      <trkpt lat="45.82568" lon="4.80022">
        <ele>408.5</ele>
        <time>2020-06-07T07:25:08.000Z</time>
      </trkpt>
      <trkpt lat="45.82568" lon="4.80025">
        <ele>408.6</ele>
        <time>2020-06-07T07:25:09.000Z</time>
      </trkpt>
      <trkpt lat="45.82568" lon="4.80028">
        <ele>408.7</ele>
        <time>2020-06-07T07:25:10.000Z</time>
      </trkpt>
      <trkpt lat="45.82567" lon="4.80031">
        <ele>408.8</ele>
        <time>2020-06-07T07:25:11.000Z</time>
      </trkpt>
      <trkpt lat="45.82567" lon="4.80034">
        <ele>408.9</ele>
        <time>2020-06-07T07:25:12.000Z</time>
      </trkpt>
      <trkpt lat="45.82566" lon="4.80036">
        <ele>409</ele>
        <time>2020-06-07T07:25:13.000Z</time>
      </trkpt>
      <trkpt lat="45.82566" lon="4.80039">
        <ele>409</ele>
        <time>2020-06-07T07:25:14.000Z</time>
      </trkpt>
      <trkpt lat="45.82566" lon="4.80041">
        <ele>409.1</ele>
        <time>2020-06-07T07:25:15.000Z</time>
      </trkpt>
      <trkpt lat="45.82566" lon="4.80044">
        <ele>409.2</ele>
        <time>2020-06-07T07:25:16.000Z</time>
      </trkpt>
      <trkpt lat="45.82566" lon="4.80047">
        <ele>409.3</ele>
        <time>2020-06-07T07:25:17.000Z</time>
      </trkpt>
      <trkpt lat="45.82565" lon="4.8005">
        <ele>409.3</ele>
        <time>2020-06-07T07:25:18.000Z</time>
      </trkpt>
      <trkpt lat="45.82565" lon="4.80052">
        <ele>409.4</ele>
        <time>2020-06-07T07:25:19.000Z</time>
      </trkpt>
      <trkpt lat="45.82564" lon="4.80055">
        <ele>409.5</ele>
        <time>2020-06-07T07:25:20.000Z</time>
      </trkpt>
      <trkpt lat="45.82564" lon="4.80058">
        <ele>409.5</ele>
        <time>2020-06-07T07:25:21.000Z</time>
      </trkpt>
      <trkpt lat="45.82563" lon="4.80061">
        <ele>409.6</ele>
        <time>2020-06-07T07:25:22.000Z</time>
      </trkpt>
      <trkpt lat="45.82562" lon="4.80064">
        <ele>409.6</ele>
        <time>2020-06-07T07:25:23.000Z</time>
      </trkpt>
      <trkpt lat="45.82561" lon="4.80067">
        <ele>409.6</ele>
        <time>2020-06-07T07:25:24.000Z</time>
      </trkpt>
      <trkpt lat="45.82559" lon="4.80071">
        <ele>409.6</ele>
        <time>2020-06-07T07:25:25.000Z</time>
      </trkpt>
      <trkpt lat="45.82557" lon="4.80075">
        <ele>409.6</ele>
        <time>2020-06-07T07:25:26.000Z</time>
      </trkpt>
      <trkpt lat="45.82555" lon="4.80079">
        <ele>409.6</ele>
        <time>2020-06-07T07:25:27.000Z</time>
      </trkpt>
      <trkpt lat="45.82553" lon="4.80083">
        <ele>409.5</ele>
        <time>2020-06-07T07:25:28.000Z</time>
      </trkpt>
      <trkpt lat="45.82551" lon="4.80087">
        <ele>409.4</ele>
        <time>2020-06-07T07:25:29.000Z</time>
      </trkpt>
      <trkpt lat="45.82548" lon="4.80091">
        <ele>409.2</ele>
        <time>2020-06-07T07:25:30.000Z</time>
      </trkpt>
      <trkpt lat="45.82545" lon="4.80095">
        <ele>409</ele>
        <time>2020-06-07T07:25:31.000Z</time>
      </trkpt>
      <trkpt lat="45.82541" lon="4.80099">
        <ele>408.8</ele>
        <time>2020-06-07T07:25:32.000Z</time>
      </trkpt>
      <trkpt lat="45.82538" lon="4.80104">
        <ele>408.5</ele>
        <time>2020-06-07T07:25:33.000Z</time>
      </trkpt>
      <trkpt lat="45.82533" lon="4.80109">
        <ele>408.1</ele>
        <time>2020-06-07T07:25:34.000Z</time>
      </trkpt>
      <trkpt lat="45.82529" lon="4.80115">
        <ele>407.6</ele>
        <time>2020-06-07T07:25:35.000Z</time>
      </trkpt>
      <trkpt lat="45.82524" lon="4.80121">
        <ele>407.1</ele>
        <time>2020-06-07T07:25:36.000Z</time>
      </trkpt>
      <trkpt lat="45.82519" lon="4.80126">
        <ele>406.6</ele>
        <time>2020-06-07T07:25:37.000Z</time>
      </trkpt>
      <trkpt lat="45.82513" lon="4.80132">
        <ele>406</ele>
        <time>2020-06-07T07:25:38.000Z</time>
      </trkpt>
      <trkpt lat="45.82508" lon="4.80139">
        <ele>405.4</ele>
        <time>2020-06-07T07:25:39.000Z</time>
      </trkpt>
      <trkpt lat="45.82502" lon="4.80147">
        <ele>404.8</ele>
        <time>2020-06-07T07:25:40.000Z</time>
      </trkpt>
      <trkpt lat="45.82497" lon="4.80155">
        <ele>404.3</ele>
        <time>2020-06-07T07:25:41.000Z</time>
      </trkpt>
      <trkpt lat="45.8249" lon="4.80163">
        <ele>403.8</ele>
        <time>2020-06-07T07:25:42.000Z</time>
      </trkpt>
      <trkpt lat="45.82484" lon="4.8017">
        <ele>403.3</ele>
        <time>2020-06-07T07:25:43.000Z</time>
      </trkpt>
      <trkpt lat="45.82477" lon="4.80178">
        <ele>402.9</ele>
        <time>2020-06-07T07:25:44.000Z</time>
      </trkpt>
      <trkpt lat="45.82471" lon="4.80185">
        <ele>402.6</ele>
        <time>2020-06-07T07:25:45.000Z</time>
      </trkpt>
      <trkpt lat="45.82465" lon="4.80193">
        <ele>402.5</ele>
        <time>2020-06-07T07:25:46.000Z</time>
      </trkpt>
      <trkpt lat="45.82459" lon="4.802">
        <ele>402.6</ele>
        <time>2020-06-07T07:25:47.000Z</time>
      </trkpt>
      <trkpt lat="45.82455" lon="4.80209">
        <ele>402.8</ele>
        <time>2020-06-07T07:25:48.000Z</time>
      </trkpt>
      <trkpt lat="45.82452" lon="4.80217">
        <ele>403.2</ele>
        <time>2020-06-07T07:25:49.000Z</time>
      </trkpt>
      <trkpt lat="45.8245" lon="4.80224">
        <ele>403.7</ele>
        <time>2020-06-07T07:25:50.000Z</time>
      </trkpt>
      <trkpt lat="45.82448" lon="4.80231">
        <ele>404.2</ele>
        <time>2020-06-07T07:25:51.000Z</time>
      </trkpt>
      <trkpt lat="45.82447" lon="4.80238">
        <ele>404.7</ele>
        <time>2020-06-07T07:25:52.000Z</time>
      </trkpt>
      <trkpt lat="45.82446" lon="4.80243">
        <ele>405.2</ele>
        <time>2020-06-07T07:25:53.000Z</time>
      </trkpt>
      <trkpt lat="45.82445" lon="4.80248">
        <ele>405.7</ele>
        <time>2020-06-07T07:25:54.000Z</time>
      </trkpt>
      <trkpt lat="45.82444" lon="4.80252">
        <ele>406.1</ele>
        <time>2020-06-07T07:25:55.000Z</time>
      </trkpt>
      <trkpt lat="45.82443" lon="4.80255">
        <ele>406.4</ele>
        <time>2020-06-07T07:25:56.000Z</time>
      </trkpt>
      <trkpt lat="45.82442" lon="4.80257">
        <ele>406.7</ele>
        <time>2020-06-07T07:25:57.000Z</time>
      </trkpt>
      <trkpt lat="45.82442" lon="4.80261">
        <ele>407</ele>
        <time>2020-06-07T07:25:58.000Z</time>
      </trkpt>
      <trkpt lat="45.82441" lon="4.80265">
        <ele>407.4</ele>
        <time>2020-06-07T07:25:59.000Z</time>
      </trkpt>
      <trkpt lat="45.8244" lon="4.80268">
        <ele>407.7</ele>
        <time>2020-06-07T07:26:00.000Z</time>
      </trkpt>
      <trkpt lat="45.8244" lon="4.80272">
        <ele>408.1</ele>
        <time>2020-06-07T07:26:01.000Z</time>
      </trkpt>
      <trkpt lat="45.82439" lon="4.80274">
        <ele>408.4</ele>
        <time>2020-06-07T07:26:02.000Z</time>
      </trkpt>
      <trkpt lat="45.82439" lon="4.80277">
        <ele>408.7</ele>
        <time>2020-06-07T07:26:03.000Z</time>
      </trkpt>
      <trkpt lat="45.82438" lon="4.80281">
        <ele>409</ele>
        <time>2020-06-07T07:26:04.000Z</time>
      </trkpt>
      <trkpt lat="45.82438" lon="4.80284">
        <ele>409.3</ele>
        <time>2020-06-07T07:26:05.000Z</time>
      </trkpt>
      <trkpt lat="45.82437" lon="4.80287">
        <ele>409.6</ele>
        <time>2020-06-07T07:26:06.000Z</time>
      </trkpt>
      <trkpt lat="45.82437" lon="4.80289">
        <ele>409.9</ele>
        <time>2020-06-07T07:26:07.000Z</time>
      </trkpt>
      <trkpt lat="45.82436" lon="4.80292">
        <ele>410.1</ele>
        <time>2020-06-07T07:26:08.000Z</time>
      </trkpt>
      <trkpt lat="45.82435" lon="4.80294">
        <ele>410.4</ele>
        <time>2020-06-07T07:26:09.000Z</time>
      </trkpt>
      <trkpt lat="45.82435" lon="4.80297">
        <ele>410.7</ele>
        <time>2020-06-07T07:26:10.000Z</time>
      </trkpt>
      <trkpt lat="45.82434" lon="4.803">
        <ele>410.9</ele>
        <time>2020-06-07T07:26:11.000Z</time>
      </trkpt>
      <trkpt lat="45.82433" lon="4.80302">
        <ele>411.2</ele>
        <time>2020-06-07T07:26:12.000Z</time>
      </trkpt>
      <trkpt lat="45.82432" lon="4.80305">
        <ele>411.4</ele>
        <time>2020-06-07T07:26:13.000Z</time>
      </trkpt>
      <trkpt lat="45.82432" lon="4.80308">
        <ele>411.7</ele>
        <time>2020-06-07T07:26:14.000Z</time>
      </trkpt>
      <trkpt lat="45.82431" lon="4.8031">
        <ele>411.9</ele>
        <time>2020-06-07T07:26:15.000Z</time>
      </trkpt>
      <trkpt lat="45.8243" lon="4.80312">
        <ele>412.1</ele>
        <time>2020-06-07T07:26:16.000Z</time>
      </trkpt>
      <trkpt lat="45.8243" lon="4.80314">
        <ele>412.3</ele>
        <time>2020-06-07T07:26:17.000Z</time>
      </trkpt>
      <trkpt lat="45.8243" lon="4.80316">
        <ele>412.4</ele>
        <time>2020-06-07T07:26:18.000Z</time>
      </trkpt>
      <trkpt lat="45.82429" lon="4.80317">
        <ele>412.6</ele>
        <time>2020-06-07T07:26:19.000Z</time>
      </trkpt>
      <trkpt lat="45.82428" lon="4.80319">
        <ele>412.8</ele>
        <time>2020-06-07T07:26:20.000Z</time>
      </trkpt>
      <trkpt lat="45.82428" lon="4.80321">
        <ele>412.9</ele>
        <time>2020-06-07T07:26:21.000Z</time>
      </trkpt>
      <trkpt lat="45.82427" lon="4.80323">
        <ele>413.1</ele>
        <time>2020-06-07T07:26:22.000Z</time>
      </trkpt>
      <trkpt lat="45.82427" lon="4.80326">
        <ele>413.3</ele>
        <time>2020-06-07T07:26:23.000Z</time>
      </trkpt>
      <trkpt lat="45.82426" lon="4.80328">
        <ele>413.5</ele>
        <time>2020-06-07T07:26:24.000Z</time>
      </trkpt>
      <trkpt lat="45.82425" lon="4.8033">
        <ele>413.8</ele>
        <time>2020-06-07T07:26:25.000Z</time>
      </trkpt>
      <trkpt lat="45.82424" lon="4.80332">
        <ele>414</ele>
        <time>2020-06-07T07:26:26.000Z</time>
      </trkpt>
      <trkpt lat="45.82423" lon="4.80334">
        <ele>414.2</ele>
        <time>2020-06-07T07:26:27.000Z</time>
      </trkpt>
      <trkpt lat="45.82423" lon="4.80336">
        <ele>414.4</ele>
        <time>2020-06-07T07:26:28.000Z</time>
      </trkpt>
      <trkpt lat="45.82422" lon="4.80338">
        <ele>414.6</ele>
        <time>2020-06-07T07:26:29.000Z</time>
      </trkpt>
      <trkpt lat="45.82421" lon="4.80341">
        <ele>414.8</ele>
        <time>2020-06-07T07:26:30.000Z</time>
      </trkpt>
      <trkpt lat="45.82421" lon="4.80342">
        <ele>415</ele>
        <time>2020-06-07T07:26:31.000Z</time>
      </trkpt>
      <trkpt lat="45.8242" lon="4.80345">
        <ele>415.1</ele>
        <time>2020-06-07T07:26:32.000Z</time>
      </trkpt>
      <trkpt lat="45.82419" lon="4.80347">
        <ele>415.4</ele>
        <time>2020-06-07T07:26:33.000Z</time>
      </trkpt>
      <trkpt lat="45.82419" lon="4.80349">
        <ele>415.6</ele>
        <time>2020-06-07T07:26:34.000Z</time>
      </trkpt>
      <trkpt lat="45.82418" lon="4.80352">
        <ele>415.8</ele>
        <time>2020-06-07T07:26:35.000Z</time>
      </trkpt>
      <trkpt lat="45.82418" lon="4.80354">
        <ele>416</ele>
        <time>2020-06-07T07:26:36.000Z</time>
      </trkpt>
      <trkpt lat="45.82417" lon="4.80356">
        <ele>416.1</ele>
        <time>2020-06-07T07:26:37.000Z</time>
      </trkpt>
      <trkpt lat="45.82417" lon="4.80358">
        <ele>416.3</ele>
        <time>2020-06-07T07:26:38.000Z</time>
      </trkpt>
      <trkpt lat="45.82416" lon="4.8036">
        <ele>416.5</ele>
        <time>2020-06-07T07:26:39.000Z</time>
      </trkpt>
      <trkpt lat="45.82415" lon="4.80362">
        <ele>416.6</ele>
        <time>2020-06-07T07:26:40.000Z</time>
      </trkpt>
      <trkpt lat="45.82415" lon="4.80365">
        <ele>416.8</ele>
        <time>2020-06-07T07:26:41.000Z</time>
      </trkpt>
      <trkpt lat="45.82414" lon="4.80367">
        <ele>417</ele>
        <time>2020-06-07T07:26:42.000Z</time>
      </trkpt>
      <trkpt lat="45.82413" lon="4.80369">
        <ele>417.2</ele>
        <time>2020-06-07T07:26:43.000Z</time>
      </trkpt>
      <trkpt lat="45.82412" lon="4.80371">
        <ele>417.4</ele>
        <time>2020-06-07T07:26:44.000Z</time>
      </trkpt>
      <trkpt lat="45.82411" lon="4.80373">
        <ele>417.5</ele>
        <time>2020-06-07T07:26:45.000Z</time>
      </trkpt>
      <trkpt lat="45.82411" lon="4.80375">
        <ele>417.6</ele>
        <time>2020-06-07T07:26:46.000Z</time>
      </trkpt>
      <trkpt lat="45.82411" lon="4.80377">
        <ele>417.8</ele>
        <time>2020-06-07T07:26:47.000Z</time>
      </trkpt>
      <trkpt lat="45.82411" lon="4.80379">
        <ele>417.9</ele>
        <time>2020-06-07T07:26:48.000Z</time>
      </trkpt>
      <trkpt lat="45.82411" lon="4.80382">
        <ele>418.1</ele>
        <time>2020-06-07T07:26:49.000Z</time>
      </trkpt>
      <trkpt lat="45.82411" lon="4.80383">
        <ele>418.2</ele>
        <time>2020-06-07T07:26:50.000Z</time>
      </trkpt>
      <trkpt lat="45.82411" lon="4.80384">
        <ele>418.2</ele>
        <time>2020-06-07T07:26:51.000Z</time>
      </trkpt>
      <trkpt lat="45.82412" lon="4.80384">
        <ele>418.3</ele>
        <time>2020-06-07T07:26:52.000Z</time>
      </trkpt>
      <trkpt lat="45.82414" lon="4.80384">
        <ele>418.4</ele>
        <time>2020-06-07T07:26:53.000Z</time>
      </trkpt>
      <trkpt lat="45.82415" lon="4.80383">
        <ele>419.3</ele>
        <time>2020-06-07T07:26:54.000Z</time>
      </trkpt>
      <trkpt lat="45.82416" lon="4.80381">
        <ele>419.4</ele>
        <time>2020-06-07T07:26:55.000Z</time>
      </trkpt>
      <trkpt lat="45.82417" lon="4.80379">
        <ele>419.6</ele>
        <time>2020-06-07T07:26:56.000Z</time>
      </trkpt>
      <trkpt lat="45.82418" lon="4.80377">
        <ele>419.7</ele>
        <time>2020-06-07T07:26:57.000Z</time>
      </trkpt>
      <trkpt lat="45.82419" lon="4.80375">
        <ele>419.8</ele>
        <time>2020-06-07T07:26:58.000Z</time>
      </trkpt>
      <trkpt lat="45.8242" lon="4.80373">
        <ele>419.9</ele>
        <time>2020-06-07T07:26:59.000Z</time>
      </trkpt>
      <trkpt lat="45.82421" lon="4.80371">
        <ele>420.1</ele>
        <time>2020-06-07T07:27:00.000Z</time>
      </trkpt>
      <trkpt lat="45.82423" lon="4.80369">
        <ele>420.2</ele>
        <time>2020-06-07T07:27:01.000Z</time>
      </trkpt>
      <trkpt lat="45.82424" lon="4.80367">
        <ele>420.3</ele>
        <time>2020-06-07T07:27:02.000Z</time>
      </trkpt>
      <trkpt lat="45.82425" lon="4.80365">
        <ele>420.4</ele>
        <time>2020-06-07T07:27:03.000Z</time>
      </trkpt>
      <trkpt lat="45.82426" lon="4.80363">
        <ele>420.5</ele>
        <time>2020-06-07T07:27:04.000Z</time>
      </trkpt>
      <trkpt lat="45.82427" lon="4.80361">
        <ele>420.6</ele>
        <time>2020-06-07T07:27:05.000Z</time>
      </trkpt>
      <trkpt lat="45.82429" lon="4.80358">
        <ele>420.7</ele>
        <time>2020-06-07T07:27:06.000Z</time>
      </trkpt>
      <trkpt lat="45.8243" lon="4.80356">
        <ele>420.8</ele>
        <time>2020-06-07T07:27:07.000Z</time>
      </trkpt>
      <trkpt lat="45.82431" lon="4.80354">
        <ele>420.9</ele>
        <time>2020-06-07T07:27:08.000Z</time>
      </trkpt>
      <trkpt lat="45.82433" lon="4.80352">
        <ele>421</ele>
        <time>2020-06-07T07:27:09.000Z</time>
      </trkpt>
      <trkpt lat="45.82435" lon="4.8035">
        <ele>421.1</ele>
        <time>2020-06-07T07:27:10.000Z</time>
      </trkpt>
      <trkpt lat="45.82437" lon="4.80349">
        <ele>421.2</ele>
        <time>2020-06-07T07:27:11.000Z</time>
      </trkpt>
      <trkpt lat="45.82439" lon="4.80346">
        <ele>421.4</ele>
        <time>2020-06-07T07:27:12.000Z</time>
      </trkpt>
      <trkpt lat="45.82441" lon="4.80344">
        <ele>421.5</ele>
        <time>2020-06-07T07:27:13.000Z</time>
      </trkpt>
      <trkpt lat="45.82443" lon="4.80342">
        <ele>421.6</ele>
        <time>2020-06-07T07:27:14.000Z</time>
      </trkpt>
      <trkpt lat="45.82444" lon="4.8034">
        <ele>421.7</ele>
        <time>2020-06-07T07:27:15.000Z</time>
      </trkpt>
      <trkpt lat="45.82446" lon="4.80337">
        <ele>421.9</ele>
        <time>2020-06-07T07:27:16.000Z</time>
      </trkpt>
      <trkpt lat="45.82448" lon="4.80335">
        <ele>422</ele>
        <time>2020-06-07T07:27:17.000Z</time>
      </trkpt>
      <trkpt lat="45.82449" lon="4.80333">
        <ele>422.1</ele>
        <time>2020-06-07T07:27:18.000Z</time>
      </trkpt>
      <trkpt lat="45.82451" lon="4.80331">
        <ele>422.3</ele>
        <time>2020-06-07T07:27:19.000Z</time>
      </trkpt>
      <trkpt lat="45.82453" lon="4.8033">
        <ele>422.4</ele>
        <time>2020-06-07T07:27:20.000Z</time>
      </trkpt>
      <trkpt lat="45.82455" lon="4.80328">
        <ele>422.5</ele>
        <time>2020-06-07T07:27:21.000Z</time>
      </trkpt>
      <trkpt lat="45.82457" lon="4.80326">
        <ele>422.6</ele>
        <time>2020-06-07T07:27:22.000Z</time>
      </trkpt>
      <trkpt lat="45.82458" lon="4.80325">
        <ele>422.8</ele>
        <time>2020-06-07T07:27:23.000Z</time>
      </trkpt>
      <trkpt lat="45.82459" lon="4.80323">
        <ele>422.9</ele>
        <time>2020-06-07T07:27:24.000Z</time>
      </trkpt>
      <trkpt lat="45.82461" lon="4.80321">
        <ele>423</ele>
        <time>2020-06-07T07:27:25.000Z</time>
      </trkpt>
      <trkpt lat="45.82463" lon="4.8032">
        <ele>423.1</ele>
        <time>2020-06-07T07:27:26.000Z</time>
      </trkpt>
      <trkpt lat="45.82464" lon="4.80319">
        <ele>423.2</ele>
        <time>2020-06-07T07:27:27.000Z</time>
      </trkpt>
      <trkpt lat="45.82466" lon="4.80318">
        <ele>423.4</ele>
        <time>2020-06-07T07:27:28.000Z</time>
      </trkpt>
      <trkpt lat="45.82467" lon="4.80317">
        <ele>423.5</ele>
        <time>2020-06-07T07:27:29.000Z</time>
      </trkpt>
      <trkpt lat="45.82469" lon="4.80316">
        <ele>423.6</ele>
        <time>2020-06-07T07:27:30.000Z</time>
      </trkpt>
      <trkpt lat="45.82471" lon="4.80314">
        <ele>423.8</ele>
        <time>2020-06-07T07:27:31.000Z</time>
      </trkpt>
      <trkpt lat="45.82472" lon="4.80313">
        <ele>424</ele>
        <time>2020-06-07T07:27:32.000Z</time>
      </trkpt>
      <trkpt lat="45.82474" lon="4.80311">
        <ele>424.1</ele>
        <time>2020-06-07T07:27:33.000Z</time>
      </trkpt>
      <trkpt lat="45.82475" lon="4.8031">
        <ele>424.2</ele>
        <time>2020-06-07T07:27:34.000Z</time>
      </trkpt>
      <trkpt lat="45.82477" lon="4.80309">
        <ele>424.4</ele>
        <time>2020-06-07T07:27:35.000Z</time>
      </trkpt>
      <trkpt lat="45.82478" lon="4.80308">
        <ele>424.6</ele>
        <time>2020-06-07T07:27:36.000Z</time>
      </trkpt>
      <trkpt lat="45.8248" lon="4.80307">
        <ele>424.8</ele>
        <time>2020-06-07T07:27:37.000Z</time>
      </trkpt>
      <trkpt lat="45.82482" lon="4.80306">
        <ele>424.9</ele>
        <time>2020-06-07T07:27:38.000Z</time>
      </trkpt>
      <trkpt lat="45.82483" lon="4.80305">
        <ele>425.1</ele>
        <time>2020-06-07T07:27:39.000Z</time>
      </trkpt>
      <trkpt lat="45.82485" lon="4.80304">
        <ele>425.3</ele>
        <time>2020-06-07T07:27:40.000Z</time>
      </trkpt>
      <trkpt lat="45.82487" lon="4.80303">
        <ele>425.5</ele>
        <time>2020-06-07T07:27:41.000Z</time>
      </trkpt>
      <trkpt lat="45.82489" lon="4.80302">
        <ele>425.7</ele>
        <time>2020-06-07T07:27:42.000Z</time>
      </trkpt>
      <trkpt lat="45.82491" lon="4.80301">
        <ele>425.9</ele>
        <time>2020-06-07T07:27:43.000Z</time>
      </trkpt>
      <trkpt lat="45.82492" lon="4.803">
        <ele>426.1</ele>
        <time>2020-06-07T07:27:44.000Z</time>
      </trkpt>
      <trkpt lat="45.82494" lon="4.80299">
        <ele>426.3</ele>
        <time>2020-06-07T07:27:45.000Z</time>
      </trkpt>
      <trkpt lat="45.82495" lon="4.80299">
        <ele>426.4</ele>
        <time>2020-06-07T07:27:46.000Z</time>
      </trkpt>
      <trkpt lat="45.82497" lon="4.80298">
        <ele>426.6</ele>
        <time>2020-06-07T07:27:47.000Z</time>
      </trkpt>
      <trkpt lat="45.82498" lon="4.80298">
        <ele>426.8</ele>
        <time>2020-06-07T07:27:48.000Z</time>
      </trkpt>
      <trkpt lat="45.825" lon="4.80297">
        <ele>427</ele>
        <time>2020-06-07T07:27:49.000Z</time>
      </trkpt>
      <trkpt lat="45.82502" lon="4.80297">
        <ele>427.2</ele>
        <time>2020-06-07T07:27:50.000Z</time>
      </trkpt>
      <trkpt lat="45.82503" lon="4.80296">
        <ele>427.4</ele>
        <time>2020-06-07T07:27:51.000Z</time>
      </trkpt>
      <trkpt lat="45.82505" lon="4.80295">
        <ele>427.6</ele>
        <time>2020-06-07T07:27:52.000Z</time>
      </trkpt>
      <trkpt lat="45.82506" lon="4.80293">
        <ele>427.9</ele>
        <time>2020-06-07T07:27:53.000Z</time>
      </trkpt>
      <trkpt lat="45.82507" lon="4.80292">
        <ele>428.1</ele>
        <time>2020-06-07T07:27:54.000Z</time>
      </trkpt>
      <trkpt lat="45.82509" lon="4.80291">
        <ele>428.3</ele>
        <time>2020-06-07T07:27:55.000Z</time>
      </trkpt>
      <trkpt lat="45.82511" lon="4.8029">
        <ele>428.5</ele>
        <time>2020-06-07T07:27:56.000Z</time>
      </trkpt>
      <trkpt lat="45.82512" lon="4.8029">
        <ele>428.7</ele>
        <time>2020-06-07T07:27:57.000Z</time>
      </trkpt>
      <trkpt lat="45.82513" lon="4.80289">
        <ele>428.9</ele>
        <time>2020-06-07T07:27:58.000Z</time>
      </trkpt>
      <trkpt lat="45.82514" lon="4.80288">
        <ele>429</ele>
        <time>2020-06-07T07:27:59.000Z</time>
      </trkpt>
      <trkpt lat="45.82515" lon="4.80286">
        <ele>429.2</ele>
        <time>2020-06-07T07:28:00.000Z</time>
      </trkpt>
      <trkpt lat="45.82515" lon="4.80284">
        <ele>429.4</ele>
        <time>2020-06-07T07:28:01.000Z</time>
      </trkpt>
      <trkpt lat="45.82516" lon="4.80283">
        <ele>429.6</ele>
        <time>2020-06-07T07:28:02.000Z</time>
      </trkpt>
      <trkpt lat="45.82518" lon="4.80281">
        <ele>429.8</ele>
        <time>2020-06-07T07:28:03.000Z</time>
      </trkpt>
      <trkpt lat="45.82519" lon="4.8028">
        <ele>430</ele>
        <time>2020-06-07T07:28:04.000Z</time>
      </trkpt>
      <trkpt lat="45.82521" lon="4.80279">
        <ele>430.3</ele>
        <time>2020-06-07T07:28:05.000Z</time>
      </trkpt>
      <trkpt lat="45.82523" lon="4.80279">
        <ele>430.5</ele>
        <time>2020-06-07T07:28:06.000Z</time>
      </trkpt>
      <trkpt lat="45.82524" lon="4.80278">
        <ele>430.7</ele>
        <time>2020-06-07T07:28:07.000Z</time>
      </trkpt>
      <trkpt lat="45.82525" lon="4.80278">
        <ele>430.8</ele>
        <time>2020-06-07T07:28:08.000Z</time>
      </trkpt>
      <trkpt lat="45.82526" lon="4.80276">
        <ele>431</ele>
        <time>2020-06-07T07:28:09.000Z</time>
      </trkpt>
      <trkpt lat="45.82527" lon="4.80275">
        <ele>431.2</ele>
        <time>2020-06-07T07:28:10.000Z</time>
      </trkpt>
      <trkpt lat="45.82528" lon="4.80273">
        <ele>431.4</ele>
        <time>2020-06-07T07:28:11.000Z</time>
      </trkpt>
      <trkpt lat="45.82529" lon="4.80272">
        <ele>431.6</ele>
        <time>2020-06-07T07:28:12.000Z</time>
      </trkpt>
      <trkpt lat="45.8253" lon="4.8027">
        <ele>431.8</ele>
        <time>2020-06-07T07:28:13.000Z</time>
      </trkpt>
      <trkpt lat="45.8253" lon="4.80269">
        <ele>431.9</ele>
        <time>2020-06-07T07:28:14.000Z</time>
      </trkpt>
      <trkpt lat="45.82532" lon="4.80268">
        <ele>432.1</ele>
        <time>2020-06-07T07:28:15.000Z</time>
      </trkpt>
      <trkpt lat="45.82533" lon="4.80267">
        <ele>432.3</ele>
        <time>2020-06-07T07:28:16.000Z</time>
      </trkpt>
      <trkpt lat="45.82534" lon="4.80267">
        <ele>432.6</ele>
        <time>2020-06-07T07:28:17.000Z</time>
      </trkpt>
      <trkpt lat="45.82536" lon="4.80266">
        <ele>432.8</ele>
        <time>2020-06-07T07:28:18.000Z</time>
      </trkpt>
      <trkpt lat="45.82537" lon="4.80265">
        <ele>433</ele>
        <time>2020-06-07T07:28:19.000Z</time>
      </trkpt>
      <trkpt lat="45.82538" lon="4.80265">
        <ele>433.2</ele>
        <time>2020-06-07T07:28:20.000Z</time>
      </trkpt>
      <trkpt lat="45.8254" lon="4.80265">
        <ele>433.4</ele>
        <time>2020-06-07T07:28:21.000Z</time>
      </trkpt>
      <trkpt lat="45.82541" lon="4.80263">
        <ele>433.7</ele>
        <time>2020-06-07T07:28:22.000Z</time>
      </trkpt>
      <trkpt lat="45.82543" lon="4.80263">
        <ele>433.9</ele>
        <time>2020-06-07T07:28:23.000Z</time>
      </trkpt>
      <trkpt lat="45.82544" lon="4.80263">
        <ele>434.1</ele>
        <time>2020-06-07T07:28:24.000Z</time>
      </trkpt>
      <trkpt lat="45.82545" lon="4.80262">
        <ele>434.3</ele>
        <time>2020-06-07T07:28:25.000Z</time>
      </trkpt>
      <trkpt lat="45.82546" lon="4.8026">
        <ele>434.5</ele>
        <time>2020-06-07T07:28:26.000Z</time>
      </trkpt>
      <trkpt lat="45.82547" lon="4.80259">
        <ele>434.7</ele>
        <time>2020-06-07T07:28:27.000Z</time>
      </trkpt>
      <trkpt lat="45.82548" lon="4.80258">
        <ele>435</ele>
        <time>2020-06-07T07:28:28.000Z</time>
      </trkpt>
      <trkpt lat="45.82549" lon="4.80258">
        <ele>435.2</ele>
        <time>2020-06-07T07:28:29.000Z</time>
      </trkpt>
      <trkpt lat="45.82551" lon="4.80257">
        <ele>435.4</ele>
        <time>2020-06-07T07:28:30.000Z</time>
      </trkpt>
      <trkpt lat="45.82552" lon="4.80257">
        <ele>435.5</ele>
        <time>2020-06-07T07:28:31.000Z</time>
      </trkpt>
      <trkpt lat="45.82553" lon="4.80256">
        <ele>435.8</ele>
        <time>2020-06-07T07:28:32.000Z</time>
      </trkpt>
      <trkpt lat="45.82554" lon="4.80255">
        <ele>436</ele>
        <time>2020-06-07T07:28:33.000Z</time>
      </trkpt>
      <trkpt lat="45.82555" lon="4.80254">
        <ele>436.4</ele>
        <time>2020-06-07T07:28:34.000Z</time>
      </trkpt>
      <trkpt lat="45.82557" lon="4.80253">
        <ele>436.7</ele>
        <time>2020-06-07T07:28:35.000Z</time>
      </trkpt>
      <trkpt lat="45.82559" lon="4.80252">
        <ele>437.1</ele>
        <time>2020-06-07T07:28:36.000Z</time>
      </trkpt>
      <trkpt lat="45.8256" lon="4.80251">
        <ele>437.3</ele>
        <time>2020-06-07T07:28:37.000Z</time>
      </trkpt>
      <trkpt lat="45.82561" lon="4.80251">
        <ele>437.5</ele>
        <time>2020-06-07T07:28:38.000Z</time>
      </trkpt>
      <trkpt lat="45.82562" lon="4.80251">
        <ele>439.9</ele>
        <time>2020-06-07T07:28:39.000Z</time>
      </trkpt>
      <trkpt lat="45.82563" lon="4.80251">
        <ele>440.1</ele>
        <time>2020-06-07T07:28:40.000Z</time>
      </trkpt>
      <trkpt lat="45.82563" lon="4.80251">
        <ele>440.3</ele>
        <time>2020-06-07T07:28:41.000Z</time>
      </trkpt>
      <trkpt lat="45.82564" lon="4.80251">
        <ele>440.4</ele>
        <time>2020-06-07T07:28:42.000Z</time>
      </trkpt>
      <trkpt lat="45.82565" lon="4.80251">
        <ele>440.7</ele>
        <time>2020-06-07T07:28:43.000Z</time>
      </trkpt>
      <trkpt lat="45.82566" lon="4.80251">
        <ele>440.8</ele>
        <time>2020-06-07T07:28:44.000Z</time>
      </trkpt>
      <trkpt lat="45.82566" lon="4.80252">
        <ele>441</ele>
        <time>2020-06-07T07:28:45.000Z</time>
      </trkpt>
      <trkpt lat="45.82567" lon="4.80253">
        <ele>441.2</ele>
        <time>2020-06-07T07:28:46.000Z</time>
      </trkpt>
      <trkpt lat="45.82566" lon="4.80254">
        <ele>441.4</ele>
        <time>2020-06-07T07:28:47.000Z</time>
      </trkpt>
      <trkpt lat="45.82567" lon="4.80255">
        <ele>441.6</ele>
        <time>2020-06-07T07:28:48.000Z</time>
      </trkpt>
      <trkpt lat="45.82567" lon="4.80257">
        <ele>441.9</ele>
        <time>2020-06-07T07:28:49.000Z</time>
      </trkpt>
      <trkpt lat="45.82567" lon="4.80258">
        <ele>442.2</ele>
        <time>2020-06-07T07:28:50.000Z</time>
      </trkpt>
      <trkpt lat="45.82567" lon="4.8026">
        <ele>442.5</ele>
        <time>2020-06-07T07:28:51.000Z</time>
      </trkpt>
      <trkpt lat="45.82567" lon="4.80261">
        <ele>442.8</ele>
        <time>2020-06-07T07:28:52.000Z</time>
      </trkpt>
      <trkpt lat="45.82568" lon="4.80263">
        <ele>443</ele>
        <time>2020-06-07T07:28:53.000Z</time>
      </trkpt>
      <trkpt lat="45.82568" lon="4.80264">
        <ele>443.3</ele>
        <time>2020-06-07T07:28:54.000Z</time>
      </trkpt>
      <trkpt lat="45.82568" lon="4.80266">
        <ele>443.6</ele>
        <time>2020-06-07T07:28:55.000Z</time>
      </trkpt>
      <trkpt lat="45.82569" lon="4.80267">
        <ele>443.8</ele>
        <time>2020-06-07T07:28:56.000Z</time>
      </trkpt>
      <trkpt lat="45.82569" lon="4.80268">
        <ele>444</ele>
        <time>2020-06-07T07:28:57.000Z</time>
      </trkpt>
      <trkpt lat="45.82569" lon="4.80269">
        <ele>444.2</ele>
        <time>2020-06-07T07:28:58.000Z</time>
      </trkpt>
      <trkpt lat="45.82569" lon="4.8027">
        <ele>444.4</ele>
        <time>2020-06-07T07:28:59.000Z</time>
      </trkpt>
      <trkpt lat="45.82569" lon="4.80271">
        <ele>444.6</ele>
        <time>2020-06-07T07:29:00.000Z</time>
      </trkpt>
      <trkpt lat="45.82569" lon="4.80272">
        <ele>444.8</ele>
        <time>2020-06-07T07:29:01.000Z</time>
      </trkpt>
      <trkpt lat="45.82569" lon="4.80273">
        <ele>444.9</ele>
        <time>2020-06-07T07:29:02.000Z</time>
      </trkpt>
      <trkpt lat="45.82569" lon="4.80275">
        <ele>445.1</ele>
        <time>2020-06-07T07:29:03.000Z</time>
      </trkpt>
      <trkpt lat="45.82569" lon="4.80276">
        <ele>445.4</ele>
        <time>2020-06-07T07:29:04.000Z</time>
      </trkpt>
      <trkpt lat="45.82569" lon="4.80278">
        <ele>445.6</ele>
        <time>2020-06-07T07:29:05.000Z</time>
      </trkpt>
      <trkpt lat="45.82569" lon="4.80278">
        <ele>445.7</ele>
        <time>2020-06-07T07:29:06.000Z</time>
      </trkpt>
      <trkpt lat="45.82569" lon="4.80279">
        <ele>445.9</ele>
        <time>2020-06-07T07:29:07.000Z</time>
      </trkpt>
      <trkpt lat="45.82569" lon="4.80281">
        <ele>446.1</ele>
        <time>2020-06-07T07:29:08.000Z</time>
      </trkpt>
      <trkpt lat="45.82569" lon="4.80282">
        <ele>446.2</ele>
        <time>2020-06-07T07:29:09.000Z</time>
      </trkpt>
      <trkpt lat="45.82569" lon="4.80283">
        <ele>446.4</ele>
        <time>2020-06-07T07:29:10.000Z</time>
      </trkpt>
      <trkpt lat="45.82569" lon="4.80284">
        <ele>446.6</ele>
        <time>2020-06-07T07:29:11.000Z</time>
      </trkpt>
      <trkpt lat="45.82569" lon="4.80285">
        <ele>446.8</ele>
        <time>2020-06-07T07:29:12.000Z</time>
      </trkpt>
      <trkpt lat="45.82569" lon="4.80287">
        <ele>447</ele>
        <time>2020-06-07T07:29:13.000Z</time>
      </trkpt>
      <trkpt lat="45.82569" lon="4.80288">
        <ele>447.2</ele>
        <time>2020-06-07T07:29:14.000Z</time>
      </trkpt>
      <trkpt lat="45.82568" lon="4.80289">
        <ele>447.3</ele>
        <time>2020-06-07T07:29:15.000Z</time>
      </trkpt>
      <trkpt lat="45.82569" lon="4.8029">
        <ele>447.4</ele>
        <time>2020-06-07T07:29:16.000Z</time>
      </trkpt>
      <trkpt lat="45.82569" lon="4.80291">
        <ele>447.6</ele>
        <time>2020-06-07T07:29:17.000Z</time>
      </trkpt>
      <trkpt lat="45.82569" lon="4.80292">
        <ele>447.8</ele>
        <time>2020-06-07T07:29:18.000Z</time>
      </trkpt>
      <trkpt lat="45.82569" lon="4.80293">
        <ele>447.9</ele>
        <time>2020-06-07T07:29:19.000Z</time>
      </trkpt>
      <trkpt lat="45.8257" lon="4.80294">
        <ele>448.1</ele>
        <time>2020-06-07T07:29:20.000Z</time>
      </trkpt>
      <trkpt lat="45.8257" lon="4.80295">
        <ele>448.2</ele>
        <time>2020-06-07T07:29:21.000Z</time>
      </trkpt>
      <trkpt lat="45.82571" lon="4.80295">
        <ele>448.3</ele>
        <time>2020-06-07T07:29:22.000Z</time>
      </trkpt>
      <trkpt lat="45.82572" lon="4.80295">
        <ele>448.5</ele>
        <time>2020-06-07T07:29:23.000Z</time>
      </trkpt>
      <trkpt lat="45.82572" lon="4.80294">
        <ele>448.6</ele>
        <time>2020-06-07T07:29:24.000Z</time>
      </trkpt>
      <trkpt lat="45.82573" lon="4.80294">
        <ele>451.1</ele>
        <time>2020-06-07T07:29:25.000Z</time>
      </trkpt>
      <trkpt lat="45.82574" lon="4.80294">
        <ele>451.2</ele>
        <time>2020-06-07T07:29:26.000Z</time>
      </trkpt>
      <trkpt lat="45.82575" lon="4.80293">
        <ele>451.4</ele>
        <time>2020-06-07T07:29:27.000Z</time>
      </trkpt>
      <trkpt lat="45.82575" lon="4.80292">
        <ele>451.5</ele>
        <time>2020-06-07T07:29:28.000Z</time>
      </trkpt>
      <trkpt lat="45.82576" lon="4.80292">
        <ele>451.6</ele>
        <time>2020-06-07T07:29:29.000Z</time>
      </trkpt>
      <trkpt lat="45.82577" lon="4.80291">
        <ele>451.7</ele>
        <time>2020-06-07T07:29:30.000Z</time>
      </trkpt>
      <trkpt lat="45.82577" lon="4.80291">
        <ele>451.8</ele>
        <time>2020-06-07T07:29:31.000Z</time>
      </trkpt>
      <trkpt lat="45.82578" lon="4.8029">
        <ele>451.9</ele>
        <time>2020-06-07T07:29:32.000Z</time>
      </trkpt>
      <trkpt lat="45.82578" lon="4.8029">
        <ele>452</ele>
        <time>2020-06-07T07:29:33.000Z</time>
      </trkpt>
      <trkpt lat="45.82579" lon="4.80289">
        <ele>452.1</ele>
        <time>2020-06-07T07:29:34.000Z</time>
      </trkpt>
      <trkpt lat="45.8258" lon="4.80289">
        <ele>452.3</ele>
        <time>2020-06-07T07:29:35.000Z</time>
      </trkpt>
      <trkpt lat="45.82581" lon="4.80287">
        <ele>452.4</ele>
        <time>2020-06-07T07:29:36.000Z</time>
      </trkpt>
      <trkpt lat="45.82582" lon="4.80286">
        <ele>452.6</ele>
        <time>2020-06-07T07:29:37.000Z</time>
      </trkpt>
      <trkpt lat="45.82583" lon="4.80285">
        <ele>452.8</ele>
        <time>2020-06-07T07:29:38.000Z</time>
      </trkpt>
      <trkpt lat="45.82584" lon="4.80284">
        <ele>453</ele>
        <time>2020-06-07T07:29:39.000Z</time>
      </trkpt>
      <trkpt lat="45.82585" lon="4.80283">
        <ele>453.2</ele>
        <time>2020-06-07T07:29:40.000Z</time>
      </trkpt>
      <trkpt lat="45.82586" lon="4.80282">
        <ele>453.3</ele>
        <time>2020-06-07T07:29:41.000Z</time>
      </trkpt>
      <trkpt lat="45.82586" lon="4.80282">
        <ele>453.5</ele>
        <time>2020-06-07T07:29:42.000Z</time>
      </trkpt>
      <trkpt lat="45.82588" lon="4.80281">
        <ele>453.7</ele>
        <time>2020-06-07T07:29:43.000Z</time>
      </trkpt>
      <trkpt lat="45.82589" lon="4.8028">
        <ele>453.9</ele>
        <time>2020-06-07T07:29:44.000Z</time>
      </trkpt>
      <trkpt lat="45.8259" lon="4.8028">
        <ele>454.1</ele>
        <time>2020-06-07T07:29:45.000Z</time>
      </trkpt>
      <trkpt lat="45.82591" lon="4.80279">
        <ele>454.2</ele>
        <time>2020-06-07T07:29:46.000Z</time>
      </trkpt>
      <trkpt lat="45.82591" lon="4.80278">
        <ele>454.4</ele>
        <time>2020-06-07T07:29:47.000Z</time>
      </trkpt>
      <trkpt lat="45.82592" lon="4.80277">
        <ele>454.5</ele>
        <time>2020-06-07T07:29:48.000Z</time>
      </trkpt>
      <trkpt lat="45.82593" lon="4.80277">
        <ele>454.7</ele>
        <time>2020-06-07T07:29:49.000Z</time>
      </trkpt>
      <trkpt lat="45.82594" lon="4.80276">
        <ele>454.8</ele>
        <time>2020-06-07T07:29:50.000Z</time>
      </trkpt>
      <trkpt lat="45.82595" lon="4.80275">
        <ele>455</ele>
        <time>2020-06-07T07:29:51.000Z</time>
      </trkpt>
      <trkpt lat="45.82596" lon="4.80274">
        <ele>455.2</ele>
        <time>2020-06-07T07:29:52.000Z</time>
      </trkpt>
      <trkpt lat="45.82597" lon="4.80274">
        <ele>455.4</ele>
        <time>2020-06-07T07:29:53.000Z</time>
      </trkpt>
      <trkpt lat="45.82598" lon="4.80273">
        <ele>455.6</ele>
        <time>2020-06-07T07:29:54.000Z</time>
      </trkpt>
      <trkpt lat="45.82599" lon="4.80273">
        <ele>455.7</ele>
        <time>2020-06-07T07:29:55.000Z</time>
      </trkpt>
      <trkpt lat="45.826" lon="4.80272">
        <ele>456</ele>
        <time>2020-06-07T07:29:56.000Z</time>
      </trkpt>
      <trkpt lat="45.82601" lon="4.80271">
        <ele>456.1</ele>
        <time>2020-06-07T07:29:57.000Z</time>
      </trkpt>
      <trkpt lat="45.82602" lon="4.8027">
        <ele>456.4</ele>
        <time>2020-06-07T07:29:58.000Z</time>
      </trkpt>
      <trkpt lat="45.82603" lon="4.80269">
        <ele>456.5</ele>
        <time>2020-06-07T07:29:59.000Z</time>
      </trkpt>
      <trkpt lat="45.82604" lon="4.80267">
        <ele>456.7</ele>
        <time>2020-06-07T07:30:00.000Z</time>
      </trkpt>
      <trkpt lat="45.82605" lon="4.80266">
        <ele>456.9</ele>
        <time>2020-06-07T07:30:01.000Z</time>
      </trkpt>
      <trkpt lat="45.82605" lon="4.80264">
        <ele>457.1</ele>
        <time>2020-06-07T07:30:02.000Z</time>
      </trkpt>
      <trkpt lat="45.82606" lon="4.80263">
        <ele>457.4</ele>
        <time>2020-06-07T07:30:03.000Z</time>
      </trkpt>
      <trkpt lat="45.82608" lon="4.80262">
        <ele>457.7</ele>
        <time>2020-06-07T07:30:04.000Z</time>
      </trkpt>
      <trkpt lat="45.82608" lon="4.80261">
        <ele>457.8</ele>
        <time>2020-06-07T07:30:05.000Z</time>
      </trkpt>
      <trkpt lat="45.82609" lon="4.8026">
        <ele>458</ele>
        <time>2020-06-07T07:30:06.000Z</time>
      </trkpt>
      <trkpt lat="45.8261" lon="4.8026">
        <ele>458.1</ele>
        <time>2020-06-07T07:30:07.000Z</time>
      </trkpt>
      <trkpt lat="45.82611" lon="4.80259">
        <ele>458.3</ele>
        <time>2020-06-07T07:30:08.000Z</time>
      </trkpt>
      <trkpt lat="45.82612" lon="4.80258">
        <ele>458.4</ele>
        <time>2020-06-07T07:30:09.000Z</time>
      </trkpt>
      <trkpt lat="45.82613" lon="4.80258">
        <ele>458.8</ele>
        <time>2020-06-07T07:30:10.000Z</time>
      </trkpt>
      <trkpt lat="45.82615" lon="4.80256">
        <ele>459</ele>
        <time>2020-06-07T07:30:11.000Z</time>
      </trkpt>
      <trkpt lat="45.82615" lon="4.80255">
        <ele>459.2</ele>
        <time>2020-06-07T07:30:12.000Z</time>
      </trkpt>
      <trkpt lat="45.82616" lon="4.80254">
        <ele>459.4</ele>
        <time>2020-06-07T07:30:13.000Z</time>
      </trkpt>
      <trkpt lat="45.82617" lon="4.80253">
        <ele>459.5</ele>
        <time>2020-06-07T07:30:14.000Z</time>
      </trkpt>
      <trkpt lat="45.82618" lon="4.80252">
        <ele>459.7</ele>
        <time>2020-06-07T07:30:15.000Z</time>
      </trkpt>
      <trkpt lat="45.82619" lon="4.80252">
        <ele>459.9</ele>
        <time>2020-06-07T07:30:16.000Z</time>
      </trkpt>
      <trkpt lat="45.82621" lon="4.80251">
        <ele>460.3</ele>
        <time>2020-06-07T07:30:17.000Z</time>
      </trkpt>
      <trkpt lat="45.82622" lon="4.80251">
        <ele>460.4</ele>
        <time>2020-06-07T07:30:18.000Z</time>
      </trkpt>
      <trkpt lat="45.82623" lon="4.8025">
        <ele>460.6</ele>
        <time>2020-06-07T07:30:19.000Z</time>
      </trkpt>
      <trkpt lat="45.82624" lon="4.80249">
        <ele>460.9</ele>
        <time>2020-06-07T07:30:20.000Z</time>
      </trkpt>
      <trkpt lat="45.82626" lon="4.80248">
        <ele>461.1</ele>
        <time>2020-06-07T07:30:21.000Z</time>
      </trkpt>
      <trkpt lat="45.82627" lon="4.80247">
        <ele>461.4</ele>
        <time>2020-06-07T07:30:22.000Z</time>
      </trkpt>
      <trkpt lat="45.82628" lon="4.80245">
        <ele>461.6</ele>
        <time>2020-06-07T07:30:23.000Z</time>
      </trkpt>
      <trkpt lat="45.82629" lon="4.80244">
        <ele>461.9</ele>
        <time>2020-06-07T07:30:24.000Z</time>
      </trkpt>
      <trkpt lat="45.82631" lon="4.80242">
        <ele>462.1</ele>
        <time>2020-06-07T07:30:25.000Z</time>
      </trkpt>
      <trkpt lat="45.82632" lon="4.80242">
        <ele>462.4</ele>
        <time>2020-06-07T07:30:26.000Z</time>
      </trkpt>
      <trkpt lat="45.82633" lon="4.8024">
        <ele>462.6</ele>
        <time>2020-06-07T07:30:27.000Z</time>
      </trkpt>
      <trkpt lat="45.82634" lon="4.80239">
        <ele>462.8</ele>
        <time>2020-06-07T07:30:28.000Z</time>
      </trkpt>
      <trkpt lat="45.82636" lon="4.80239">
        <ele>463</ele>
        <time>2020-06-07T07:30:29.000Z</time>
      </trkpt>
      <trkpt lat="45.82637" lon="4.80238">
        <ele>463.2</ele>
        <time>2020-06-07T07:30:30.000Z</time>
      </trkpt>
      <trkpt lat="45.82638" lon="4.80237">
        <ele>463.3</ele>
        <time>2020-06-07T07:30:31.000Z</time>
      </trkpt>
      <trkpt lat="45.82639" lon="4.80236">
        <ele>463.6</ele>
        <time>2020-06-07T07:30:32.000Z</time>
      </trkpt>
      <trkpt lat="45.8264" lon="4.80235">
        <ele>463.9</ele>
        <time>2020-06-07T07:30:33.000Z</time>
      </trkpt>
      <trkpt lat="45.82642" lon="4.80234">
        <ele>464.1</ele>
        <time>2020-06-07T07:30:34.000Z</time>
      </trkpt>
      <trkpt lat="45.82643" lon="4.80233">
        <ele>464.3</ele>
        <time>2020-06-07T07:30:35.000Z</time>
      </trkpt>
      <trkpt lat="45.82644" lon="4.80232">
        <ele>464.6</ele>
        <time>2020-06-07T07:30:36.000Z</time>
      </trkpt>
      <trkpt lat="45.82645" lon="4.80231">
        <ele>464.8</ele>
        <time>2020-06-07T07:30:37.000Z</time>
      </trkpt>
      <trkpt lat="45.82646" lon="4.80229">
        <ele>465.1</ele>
        <time>2020-06-07T07:30:38.000Z</time>
      </trkpt>
      <trkpt lat="45.82647" lon="4.80228">
        <ele>465.3</ele>
        <time>2020-06-07T07:30:39.000Z</time>
      </trkpt>
      <trkpt lat="45.82648" lon="4.80227">
        <ele>465.5</ele>
        <time>2020-06-07T07:30:40.000Z</time>
      </trkpt>
      <trkpt lat="45.82649" lon="4.80227">
        <ele>465.7</ele>
        <time>2020-06-07T07:30:41.000Z</time>
      </trkpt>
      <trkpt lat="45.8265" lon="4.80226">
        <ele>465.9</ele>
        <time>2020-06-07T07:30:42.000Z</time>
      </trkpt>
      <trkpt lat="45.82651" lon="4.80225">
        <ele>466.1</ele>
        <time>2020-06-07T07:30:43.000Z</time>
      </trkpt>
      <trkpt lat="45.82652" lon="4.80224">
        <ele>466.3</ele>
        <time>2020-06-07T07:30:44.000Z</time>
      </trkpt>
      <trkpt lat="45.82653" lon="4.80223">
        <ele>466.6</ele>
        <time>2020-06-07T07:30:45.000Z</time>
      </trkpt>
      <trkpt lat="45.82655" lon="4.80222">
        <ele>466.9</ele>
        <time>2020-06-07T07:30:46.000Z</time>
      </trkpt>
      <trkpt lat="45.82656" lon="4.80222">
        <ele>467.1</ele>
        <time>2020-06-07T07:30:47.000Z</time>
      </trkpt>
      <trkpt lat="45.82657" lon="4.80221">
        <ele>467.4</ele>
        <time>2020-06-07T07:30:48.000Z</time>
      </trkpt>
      <trkpt lat="45.82658" lon="4.8022">
        <ele>467.6</ele>
        <time>2020-06-07T07:30:49.000Z</time>
      </trkpt>
      <trkpt lat="45.82659" lon="4.8022">
        <ele>467.8</ele>
        <time>2020-06-07T07:30:50.000Z</time>
      </trkpt>
      <trkpt lat="45.8266" lon="4.80219">
        <ele>468</ele>
        <time>2020-06-07T07:30:51.000Z</time>
      </trkpt>
      <trkpt lat="45.82661" lon="4.80218">
        <ele>468.2</ele>
        <time>2020-06-07T07:30:52.000Z</time>
      </trkpt>
      <trkpt lat="45.82662" lon="4.80217">
        <ele>468.4</ele>
        <time>2020-06-07T07:30:53.000Z</time>
      </trkpt>
      <trkpt lat="45.82663" lon="4.80216">
        <ele>468.7</ele>
        <time>2020-06-07T07:30:54.000Z</time>
      </trkpt>
      <trkpt lat="45.82664" lon="4.80215">
        <ele>468.9</ele>
        <time>2020-06-07T07:30:55.000Z</time>
      </trkpt>
      <trkpt lat="45.82664" lon="4.80213">
        <ele>469.1</ele>
        <time>2020-06-07T07:30:56.000Z</time>
      </trkpt>
      <trkpt lat="45.82665" lon="4.80213">
        <ele>469.3</ele>
        <time>2020-06-07T07:30:57.000Z</time>
      </trkpt>
      <trkpt lat="45.82666" lon="4.80212">
        <ele>469.5</ele>
        <time>2020-06-07T07:30:58.000Z</time>
      </trkpt>
      <trkpt lat="45.82667" lon="4.80211">
        <ele>469.7</ele>
        <time>2020-06-07T07:30:59.000Z</time>
      </trkpt>
      <trkpt lat="45.82668" lon="4.8021">
        <ele>469.9</ele>
        <time>2020-06-07T07:31:00.000Z</time>
      </trkpt>
      <trkpt lat="45.82669" lon="4.80209">
        <ele>470.1</ele>
        <time>2020-06-07T07:31:01.000Z</time>
      </trkpt>
      <trkpt lat="45.82671" lon="4.80209">
        <ele>470.3</ele>
        <time>2020-06-07T07:31:02.000Z</time>
      </trkpt>
      <trkpt lat="45.82672" lon="4.80208">
        <ele>470.6</ele>
        <time>2020-06-07T07:31:03.000Z</time>
      </trkpt>
      <trkpt lat="45.82673" lon="4.80208">
        <ele>470.7</ele>
        <time>2020-06-07T07:31:04.000Z</time>
      </trkpt>
      <trkpt lat="45.82673" lon="4.80207">
        <ele>470.9</ele>
        <time>2020-06-07T07:31:05.000Z</time>
      </trkpt>
      <trkpt lat="45.82674" lon="4.80206">
        <ele>471.1</ele>
        <time>2020-06-07T07:31:06.000Z</time>
      </trkpt>
      <trkpt lat="45.82675" lon="4.80206">
        <ele>471.3</ele>
        <time>2020-06-07T07:31:07.000Z</time>
      </trkpt>
      <trkpt lat="45.82676" lon="4.80205">
        <ele>471.5</ele>
        <time>2020-06-07T07:31:08.000Z</time>
      </trkpt>
      <trkpt lat="45.82677" lon="4.80204">
        <ele>471.7</ele>
        <time>2020-06-07T07:31:09.000Z</time>
      </trkpt>
      <trkpt lat="45.82679" lon="4.80204">
        <ele>472</ele>
        <time>2020-06-07T07:31:10.000Z</time>
      </trkpt>
      <trkpt lat="45.8268" lon="4.80203">
        <ele>472.3</ele>
        <time>2020-06-07T07:31:11.000Z</time>
      </trkpt>
      <trkpt lat="45.82682" lon="4.80202">
        <ele>472.6</ele>
        <time>2020-06-07T07:31:12.000Z</time>
      </trkpt>
      <trkpt lat="45.82683" lon="4.80201">
        <ele>472.8</ele>
        <time>2020-06-07T07:31:13.000Z</time>
      </trkpt>
      <trkpt lat="45.82684" lon="4.802">
        <ele>473</ele>
        <time>2020-06-07T07:31:14.000Z</time>
      </trkpt>
      <trkpt lat="45.82685" lon="4.802">
        <ele>473.2</ele>
        <time>2020-06-07T07:31:15.000Z</time>
      </trkpt>
      <trkpt lat="45.82686" lon="4.80199">
        <ele>473.5</ele>
        <time>2020-06-07T07:31:16.000Z</time>
      </trkpt>
      <trkpt lat="45.82687" lon="4.80199">
        <ele>473.7</ele>
        <time>2020-06-07T07:31:17.000Z</time>
      </trkpt>
      <trkpt lat="45.82688" lon="4.80198">
        <ele>473.9</ele>
        <time>2020-06-07T07:31:18.000Z</time>
      </trkpt>
      <trkpt lat="45.82689" lon="4.80198">
        <ele>474.1</ele>
        <time>2020-06-07T07:31:19.000Z</time>
      </trkpt>
      <trkpt lat="45.82691" lon="4.80198">
        <ele>474.4</ele>
        <time>2020-06-07T07:31:20.000Z</time>
      </trkpt>
      <trkpt lat="45.82692" lon="4.80198">
        <ele>474.7</ele>
        <time>2020-06-07T07:31:21.000Z</time>
      </trkpt>
      <trkpt lat="45.82693" lon="4.80198">
        <ele>474.9</ele>
        <time>2020-06-07T07:31:22.000Z</time>
      </trkpt>
      <trkpt lat="45.82694" lon="4.80198">
        <ele>475.1</ele>
        <time>2020-06-07T07:31:23.000Z</time>
      </trkpt>
      <trkpt lat="45.82696" lon="4.80198">
        <ele>475.4</ele>
        <time>2020-06-07T07:31:24.000Z</time>
      </trkpt>
      <trkpt lat="45.82697" lon="4.80197">
        <ele>475.6</ele>
        <time>2020-06-07T07:31:25.000Z</time>
      </trkpt>
      <trkpt lat="45.82698" lon="4.80197">
        <ele>475.8</ele>
        <time>2020-06-07T07:31:26.000Z</time>
      </trkpt>
      <trkpt lat="45.82699" lon="4.80196">
        <ele>476</ele>
        <time>2020-06-07T07:31:27.000Z</time>
      </trkpt>
      <trkpt lat="45.827" lon="4.80195">
        <ele>476.2</ele>
        <time>2020-06-07T07:31:28.000Z</time>
      </trkpt>
      <trkpt lat="45.82701" lon="4.80194">
        <ele>476.5</ele>
        <time>2020-06-07T07:31:29.000Z</time>
      </trkpt>
      <trkpt lat="45.82703" lon="4.80193">
        <ele>476.9</ele>
        <time>2020-06-07T07:31:30.000Z</time>
      </trkpt>
      <trkpt lat="45.82704" lon="4.80192">
        <ele>477.1</ele>
        <time>2020-06-07T07:31:31.000Z</time>
      </trkpt>
      <trkpt lat="45.82705" lon="4.80191">
        <ele>477.4</ele>
        <time>2020-06-07T07:31:32.000Z</time>
      </trkpt>
      <trkpt lat="45.82705" lon="4.80189">
        <ele>477.7</ele>
        <time>2020-06-07T07:31:33.000Z</time>
      </trkpt>
      <trkpt lat="45.82706" lon="4.80188">
        <ele>477.9</ele>
        <time>2020-06-07T07:31:34.000Z</time>
      </trkpt>
      <trkpt lat="45.82707" lon="4.80187">
        <ele>478.1</ele>
        <time>2020-06-07T07:31:35.000Z</time>
      </trkpt>
      <trkpt lat="45.82708" lon="4.80185">
        <ele>478.4</ele>
        <time>2020-06-07T07:31:36.000Z</time>
      </trkpt>
      <trkpt lat="45.82708" lon="4.80184">
        <ele>478.6</ele>
        <time>2020-06-07T07:31:37.000Z</time>
      </trkpt>
      <trkpt lat="45.82709" lon="4.80183">
        <ele>478.8</ele>
        <time>2020-06-07T07:31:38.000Z</time>
      </trkpt>
      <trkpt lat="45.82709" lon="4.80182">
        <ele>479</ele>
        <time>2020-06-07T07:31:39.000Z</time>
      </trkpt>
      <trkpt lat="45.8271" lon="4.8018">
        <ele>479.2</ele>
        <time>2020-06-07T07:31:40.000Z</time>
      </trkpt>
      <trkpt lat="45.8271" lon="4.80179">
        <ele>479.4</ele>
        <time>2020-06-07T07:31:41.000Z</time>
      </trkpt>
      <trkpt lat="45.82711" lon="4.80178">
        <ele>479.5</ele>
        <time>2020-06-07T07:31:42.000Z</time>
      </trkpt>
      <trkpt lat="45.82712" lon="4.80177">
        <ele>479.7</ele>
        <time>2020-06-07T07:31:43.000Z</time>
      </trkpt>
      <trkpt lat="45.82712" lon="4.80177">
        <ele>479.8</ele>
        <time>2020-06-07T07:31:44.000Z</time>
      </trkpt>
      <trkpt lat="45.82713" lon="4.80176">
        <ele>480</ele>
        <time>2020-06-07T07:31:45.000Z</time>
      </trkpt>
      <trkpt lat="45.82715" lon="4.80175">
        <ele>480.3</ele>
        <time>2020-06-07T07:31:46.000Z</time>
      </trkpt>
      <trkpt lat="45.82716" lon="4.80175">
        <ele>480.6</ele>
        <time>2020-06-07T07:31:47.000Z</time>
      </trkpt>
      <trkpt lat="45.82717" lon="4.80174">
        <ele>480.8</ele>
        <time>2020-06-07T07:31:48.000Z</time>
      </trkpt>
      <trkpt lat="45.82718" lon="4.80173">
        <ele>480.9</ele>
        <time>2020-06-07T07:31:49.000Z</time>
      </trkpt>
      <trkpt lat="45.82719" lon="4.80173">
        <ele>481.1</ele>
        <time>2020-06-07T07:31:50.000Z</time>
      </trkpt>
      <trkpt lat="45.8272" lon="4.80172">
        <ele>481.4</ele>
        <time>2020-06-07T07:31:51.000Z</time>
      </trkpt>
      <trkpt lat="45.82721" lon="4.80171">
        <ele>481.6</ele>
        <time>2020-06-07T07:31:52.000Z</time>
      </trkpt>
      <trkpt lat="45.82722" lon="4.8017">
        <ele>481.8</ele>
        <time>2020-06-07T07:31:53.000Z</time>
      </trkpt>
      <trkpt lat="45.82723" lon="4.80169">
        <ele>482.2</ele>
        <time>2020-06-07T07:31:54.000Z</time>
      </trkpt>
      <trkpt lat="45.82724" lon="4.80168">
        <ele>482.4</ele>
        <time>2020-06-07T07:31:55.000Z</time>
      </trkpt>
      <trkpt lat="45.82725" lon="4.80168">
        <ele>482.6</ele>
        <time>2020-06-07T07:31:56.000Z</time>
      </trkpt>
      <trkpt lat="45.82726" lon="4.80167">
        <ele>482.7</ele>
        <time>2020-06-07T07:31:57.000Z</time>
      </trkpt>
      <trkpt lat="45.82727" lon="4.80167">
        <ele>482.9</ele>
        <time>2020-06-07T07:31:58.000Z</time>
      </trkpt>
      <trkpt lat="45.82728" lon="4.80167">
        <ele>483.1</ele>
        <time>2020-06-07T07:31:59.000Z</time>
      </trkpt>
      <trkpt lat="45.82729" lon="4.80166">
        <ele>483.3</ele>
        <time>2020-06-07T07:32:00.000Z</time>
      </trkpt>
      <trkpt lat="45.8273" lon="4.80166">
        <ele>483.6</ele>
        <time>2020-06-07T07:32:01.000Z</time>
      </trkpt>
      <trkpt lat="45.82731" lon="4.80165">
        <ele>483.8</ele>
        <time>2020-06-07T07:32:02.000Z</time>
      </trkpt>
      <trkpt lat="45.82733" lon="4.80165">
        <ele>484</ele>
        <time>2020-06-07T07:32:03.000Z</time>
      </trkpt>
      <trkpt lat="45.82734" lon="4.80165">
        <ele>484.2</ele>
        <time>2020-06-07T07:32:04.000Z</time>
      </trkpt>
      <trkpt lat="45.82735" lon="4.80165">
        <ele>484.5</ele>
        <time>2020-06-07T07:32:05.000Z</time>
      </trkpt>
      <trkpt lat="45.82736" lon="4.80165">
        <ele>484.8</ele>
        <time>2020-06-07T07:32:06.000Z</time>
      </trkpt>
      <trkpt lat="45.82737" lon="4.80164">
        <ele>485</ele>
        <time>2020-06-07T07:32:07.000Z</time>
      </trkpt>
      <trkpt lat="45.82738" lon="4.80164">
        <ele>485.2</ele>
        <time>2020-06-07T07:32:08.000Z</time>
      </trkpt>
      <trkpt lat="45.82739" lon="4.80164">
        <ele>485.4</ele>
        <time>2020-06-07T07:32:09.000Z</time>
      </trkpt>
      <trkpt lat="45.8274" lon="4.80163">
        <ele>485.6</ele>
        <time>2020-06-07T07:32:10.000Z</time>
      </trkpt>
      <trkpt lat="45.82741" lon="4.80162">
        <ele>485.8</ele>
        <time>2020-06-07T07:32:11.000Z</time>
      </trkpt>
      <trkpt lat="45.82742" lon="4.80162">
        <ele>486</ele>
        <time>2020-06-07T07:32:12.000Z</time>
      </trkpt>
      <trkpt lat="45.82743" lon="4.80161">
        <ele>486.2</ele>
        <time>2020-06-07T07:32:13.000Z</time>
      </trkpt>
      <trkpt lat="45.82744" lon="4.80161">
        <ele>486.4</ele>
        <time>2020-06-07T07:32:14.000Z</time>
      </trkpt>
      <trkpt lat="45.82745" lon="4.8016">
        <ele>486.6</ele>
        <time>2020-06-07T07:32:15.000Z</time>
      </trkpt>
      <trkpt lat="45.82746" lon="4.8016">
        <ele>486.8</ele>
        <time>2020-06-07T07:32:16.000Z</time>
      </trkpt>
      <trkpt lat="45.82747" lon="4.8016">
        <ele>487</ele>
        <time>2020-06-07T07:32:17.000Z</time>
      </trkpt>
      <trkpt lat="45.82748" lon="4.80159">
        <ele>487.2</ele>
        <time>2020-06-07T07:32:18.000Z</time>
      </trkpt>
      <trkpt lat="45.82749" lon="4.80159">
        <ele>487.4</ele>
        <time>2020-06-07T07:32:19.000Z</time>
      </trkpt>
      <trkpt lat="45.8275" lon="4.80158">
        <ele>487.6</ele>
        <time>2020-06-07T07:32:20.000Z</time>
      </trkpt>
      <trkpt lat="45.82751" lon="4.80158">
        <ele>487.9</ele>
        <time>2020-06-07T07:32:21.000Z</time>
      </trkpt>
      <trkpt lat="45.82752" lon="4.80157">
        <ele>488.1</ele>
        <time>2020-06-07T07:32:22.000Z</time>
      </trkpt>
      <trkpt lat="45.82754" lon="4.80157">
        <ele>488.4</ele>
        <time>2020-06-07T07:32:23.000Z</time>
      </trkpt>
      <trkpt lat="45.82755" lon="4.80156">
        <ele>488.7</ele>
        <time>2020-06-07T07:32:24.000Z</time>
      </trkpt>
      <trkpt lat="45.82756" lon="4.80155">
        <ele>488.9</ele>
        <time>2020-06-07T07:32:25.000Z</time>
      </trkpt>
      <trkpt lat="45.82757" lon="4.80154">
        <ele>489.2</ele>
        <time>2020-06-07T07:32:26.000Z</time>
      </trkpt>
      <trkpt lat="45.82758" lon="4.80153">
        <ele>489.5</ele>
        <time>2020-06-07T07:32:27.000Z</time>
      </trkpt>
      <trkpt lat="45.82759" lon="4.80152">
        <ele>489.7</ele>
        <time>2020-06-07T07:32:28.000Z</time>
      </trkpt>
      <trkpt lat="45.82761" lon="4.80151">
        <ele>489.9</ele>
        <time>2020-06-07T07:32:29.000Z</time>
      </trkpt>
      <trkpt lat="45.82762" lon="4.8015">
        <ele>490.2</ele>
        <time>2020-06-07T07:32:30.000Z</time>
      </trkpt>
      <trkpt lat="45.82763" lon="4.8015">
        <ele>490.4</ele>
        <time>2020-06-07T07:32:31.000Z</time>
      </trkpt>
      <trkpt lat="45.82763" lon="4.80149">
        <ele>490.6</ele>
        <time>2020-06-07T07:32:32.000Z</time>
      </trkpt>
      <trkpt lat="45.82764" lon="4.80148">
        <ele>490.8</ele>
        <time>2020-06-07T07:32:33.000Z</time>
      </trkpt>
      <trkpt lat="45.82765" lon="4.80147">
        <ele>490.9</ele>
        <time>2020-06-07T07:32:34.000Z</time>
      </trkpt>
      <trkpt lat="45.82766" lon="4.80147">
        <ele>491.1</ele>
        <time>2020-06-07T07:32:35.000Z</time>
      </trkpt>
      <trkpt lat="45.82766" lon="4.80146">
        <ele>491.3</ele>
        <time>2020-06-07T07:32:36.000Z</time>
      </trkpt>
      <trkpt lat="45.82767" lon="4.80145">
        <ele>491.5</ele>
        <time>2020-06-07T07:32:37.000Z</time>
      </trkpt>
      <trkpt lat="45.82768" lon="4.80144">
        <ele>491.7</ele>
        <time>2020-06-07T07:32:38.000Z</time>
      </trkpt>
      <trkpt lat="45.82769" lon="4.80144">
        <ele>491.9</ele>
        <time>2020-06-07T07:32:39.000Z</time>
      </trkpt>
      <trkpt lat="45.8277" lon="4.80143">
        <ele>492.1</ele>
        <time>2020-06-07T07:32:40.000Z</time>
      </trkpt>
      <trkpt lat="45.82771" lon="4.80143">
        <ele>492.3</ele>
        <time>2020-06-07T07:32:41.000Z</time>
      </trkpt>
      <trkpt lat="45.82772" lon="4.80142">
        <ele>492.5</ele>
        <time>2020-06-07T07:32:42.000Z</time>
      </trkpt>
      <trkpt lat="45.82773" lon="4.80141">
        <ele>492.8</ele>
        <time>2020-06-07T07:32:43.000Z</time>
      </trkpt>
      <trkpt lat="45.82774" lon="4.80141">
        <ele>493</ele>
        <time>2020-06-07T07:32:44.000Z</time>
      </trkpt>
      <trkpt lat="45.82776" lon="4.8014">
        <ele>493.3</ele>
        <time>2020-06-07T07:32:45.000Z</time>
      </trkpt>
      <trkpt lat="45.82777" lon="4.80139">
        <ele>493.6</ele>
        <time>2020-06-07T07:32:46.000Z</time>
      </trkpt>
      <trkpt lat="45.82778" lon="4.80138">
        <ele>493.8</ele>
        <time>2020-06-07T07:32:47.000Z</time>
      </trkpt>
      <trkpt lat="45.82779" lon="4.80137">
        <ele>494.1</ele>
        <time>2020-06-07T07:32:48.000Z</time>
      </trkpt>
      <trkpt lat="45.8278" lon="4.80136">
        <ele>494.4</ele>
        <time>2020-06-07T07:32:49.000Z</time>
      </trkpt>
      <trkpt lat="45.82782" lon="4.80136">
        <ele>494.7</ele>
        <time>2020-06-07T07:32:50.000Z</time>
      </trkpt>
      <trkpt lat="45.82783" lon="4.80135">
        <ele>495</ele>
        <time>2020-06-07T07:32:51.000Z</time>
      </trkpt>
      <trkpt lat="45.82784" lon="4.80134">
        <ele>495.2</ele>
        <time>2020-06-07T07:32:52.000Z</time>
      </trkpt>
      <trkpt lat="45.82785" lon="4.80133">
        <ele>495.4</ele>
        <time>2020-06-07T07:32:53.000Z</time>
      </trkpt>
      <trkpt lat="45.82786" lon="4.80133">
        <ele>495.7</ele>
        <time>2020-06-07T07:32:54.000Z</time>
      </trkpt>
      <trkpt lat="45.82787" lon="4.80132">
        <ele>495.9</ele>
        <time>2020-06-07T07:32:55.000Z</time>
      </trkpt>
      <trkpt lat="45.82788" lon="4.80132">
        <ele>496</ele>
        <time>2020-06-07T07:32:56.000Z</time>
      </trkpt>
      <trkpt lat="45.82789" lon="4.80132">
        <ele>496.2</ele>
        <time>2020-06-07T07:32:57.000Z</time>
      </trkpt>
      <trkpt lat="45.8279" lon="4.80132">
        <ele>496.5</ele>
        <time>2020-06-07T07:32:58.000Z</time>
      </trkpt>
      <trkpt lat="45.82791" lon="4.80132">
        <ele>496.6</ele>
        <time>2020-06-07T07:32:59.000Z</time>
      </trkpt>
      <trkpt lat="45.82792" lon="4.80132">
        <ele>496.8</ele>
        <time>2020-06-07T07:33:00.000Z</time>
      </trkpt>
      <trkpt lat="45.82793" lon="4.80132">
        <ele>496.9</ele>
        <time>2020-06-07T07:33:01.000Z</time>
      </trkpt>
      <trkpt lat="45.82794" lon="4.80133">
        <ele>497.1</ele>
        <time>2020-06-07T07:33:02.000Z</time>
      </trkpt>
      <trkpt lat="45.82795" lon="4.80134">
        <ele>497.3</ele>
        <time>2020-06-07T07:33:03.000Z</time>
      </trkpt>
      <trkpt lat="45.82796" lon="4.80135">
        <ele>497.6</ele>
        <time>2020-06-07T07:33:04.000Z</time>
      </trkpt>
      <trkpt lat="45.82798" lon="4.80135">
        <ele>497.8</ele>
        <time>2020-06-07T07:33:05.000Z</time>
      </trkpt>
      <trkpt lat="45.82799" lon="4.80136">
        <ele>498</ele>
        <time>2020-06-07T07:33:06.000Z</time>
      </trkpt>
      <trkpt lat="45.828" lon="4.80137">
        <ele>498.2</ele>
        <time>2020-06-07T07:33:07.000Z</time>
      </trkpt>
      <trkpt lat="45.82802" lon="4.80137">
        <ele>498.4</ele>
        <time>2020-06-07T07:33:08.000Z</time>
      </trkpt>
      <trkpt lat="45.82803" lon="4.80138">
        <ele>498.6</ele>
        <time>2020-06-07T07:33:09.000Z</time>
      </trkpt>
      <trkpt lat="45.82805" lon="4.80139">
        <ele>498.9</ele>
        <time>2020-06-07T07:33:10.000Z</time>
      </trkpt>
      <trkpt lat="45.82807" lon="4.8014">
        <ele>499.1</ele>
        <time>2020-06-07T07:33:11.000Z</time>
      </trkpt>
      <trkpt lat="45.82808" lon="4.8014">
        <ele>499.2</ele>
        <time>2020-06-07T07:33:12.000Z</time>
      </trkpt>
      <trkpt lat="45.82809" lon="4.80141">
        <ele>499.4</ele>
        <time>2020-06-07T07:33:13.000Z</time>
      </trkpt>
      <trkpt lat="45.82811" lon="4.80141">
        <ele>499.5</ele>
        <time>2020-06-07T07:33:14.000Z</time>
      </trkpt>
      <trkpt lat="45.82812" lon="4.80142">
        <ele>499.7</ele>
        <time>2020-06-07T07:33:15.000Z</time>
      </trkpt>
      <trkpt lat="45.82813" lon="4.80142">
        <ele>499.8</ele>
        <time>2020-06-07T07:33:16.000Z</time>
      </trkpt>
      <trkpt lat="45.82814" lon="4.80143">
        <ele>500</ele>
        <time>2020-06-07T07:33:17.000Z</time>
      </trkpt>
      <trkpt lat="45.82816" lon="4.80143">
        <ele>500.1</ele>
        <time>2020-06-07T07:33:18.000Z</time>
      </trkpt>
      <trkpt lat="45.82817" lon="4.80143">
        <ele>500.3</ele>
        <time>2020-06-07T07:33:19.000Z</time>
      </trkpt>
      <trkpt lat="45.82818" lon="4.80142">
        <ele>500.4</ele>
        <time>2020-06-07T07:33:20.000Z</time>
      </trkpt>
      <trkpt lat="45.8282" lon="4.80142">
        <ele>500.6</ele>
        <time>2020-06-07T07:33:21.000Z</time>
      </trkpt>
      <trkpt lat="45.82821" lon="4.80142">
        <ele>500.7</ele>
        <time>2020-06-07T07:33:22.000Z</time>
      </trkpt>
      <trkpt lat="45.82822" lon="4.80141">
        <ele>500.9</ele>
        <time>2020-06-07T07:33:23.000Z</time>
      </trkpt>
      <trkpt lat="45.82824" lon="4.8014">
        <ele>501.1</ele>
        <time>2020-06-07T07:33:24.000Z</time>
      </trkpt>
      <trkpt lat="45.82825" lon="4.8014">
        <ele>501.3</ele>
        <time>2020-06-07T07:33:25.000Z</time>
      </trkpt>
      <trkpt lat="45.82826" lon="4.80139">
        <ele>501.4</ele>
        <time>2020-06-07T07:33:26.000Z</time>
      </trkpt>
      <trkpt lat="45.82827" lon="4.80139">
        <ele>501.6</ele>
        <time>2020-06-07T07:33:27.000Z</time>
      </trkpt>
      <trkpt lat="45.82829" lon="4.80139">
        <ele>501.8</ele>
        <time>2020-06-07T07:33:28.000Z</time>
      </trkpt>
      <trkpt lat="45.8283" lon="4.80138">
        <ele>502</ele>
        <time>2020-06-07T07:33:29.000Z</time>
      </trkpt>
      <trkpt lat="45.82832" lon="4.80137">
        <ele>502.2</ele>
        <time>2020-06-07T07:33:30.000Z</time>
      </trkpt>
      <trkpt lat="45.82833" lon="4.80136">
        <ele>502.5</ele>
        <time>2020-06-07T07:33:31.000Z</time>
      </trkpt>
      <trkpt lat="45.82834" lon="4.80134">
        <ele>502.7</ele>
        <time>2020-06-07T07:33:32.000Z</time>
      </trkpt>
      <trkpt lat="45.82836" lon="4.80133">
        <ele>503</ele>
        <time>2020-06-07T07:33:33.000Z</time>
      </trkpt>
      <trkpt lat="45.82837" lon="4.80131">
        <ele>503.2</ele>
        <time>2020-06-07T07:33:34.000Z</time>
      </trkpt>
      <trkpt lat="45.82837" lon="4.80129">
        <ele>503.4</ele>
        <time>2020-06-07T07:33:35.000Z</time>
      </trkpt>
      <trkpt lat="45.82839" lon="4.80128">
        <ele>503.6</ele>
        <time>2020-06-07T07:33:36.000Z</time>
      </trkpt>
      <trkpt lat="45.82841" lon="4.80126">
        <ele>503.9</ele>
        <time>2020-06-07T07:33:37.000Z</time>
      </trkpt>
      <trkpt lat="45.82842" lon="4.80125">
        <ele>504.1</ele>
        <time>2020-06-07T07:33:38.000Z</time>
      </trkpt>
      <trkpt lat="45.82842" lon="4.80124">
        <ele>504.3</ele>
        <time>2020-06-07T07:33:39.000Z</time>
      </trkpt>
      <trkpt lat="45.82843" lon="4.80122">
        <ele>504.5</ele>
        <time>2020-06-07T07:33:40.000Z</time>
      </trkpt>
      <trkpt lat="45.82844" lon="4.80121">
        <ele>504.7</ele>
        <time>2020-06-07T07:33:41.000Z</time>
      </trkpt>
      <trkpt lat="45.82846" lon="4.80119">
        <ele>504.9</ele>
        <time>2020-06-07T07:33:42.000Z</time>
      </trkpt>
      <trkpt lat="45.82847" lon="4.80118">
        <ele>505.1</ele>
        <time>2020-06-07T07:33:43.000Z</time>
      </trkpt>
      <trkpt lat="45.82848" lon="4.80117">
        <ele>505.3</ele>
        <time>2020-06-07T07:33:44.000Z</time>
      </trkpt>
      <trkpt lat="45.82849" lon="4.80115">
        <ele>505.5</ele>
        <time>2020-06-07T07:33:45.000Z</time>
      </trkpt>
      <trkpt lat="45.8285" lon="4.80114">
        <ele>505.8</ele>
        <time>2020-06-07T07:33:46.000Z</time>
      </trkpt>
      <trkpt lat="45.82851" lon="4.80112">
        <ele>506</ele>
        <time>2020-06-07T07:33:47.000Z</time>
      </trkpt>
      <trkpt lat="45.82853" lon="4.80111">
        <ele>506.2</ele>
        <time>2020-06-07T07:33:48.000Z</time>
      </trkpt>
      <trkpt lat="45.82853" lon="4.80109">
        <ele>507</ele>
        <time>2020-06-07T07:33:49.000Z</time>
      </trkpt>
      <trkpt lat="45.82854" lon="4.80108">
        <ele>507.2</ele>
        <time>2020-06-07T07:33:50.000Z</time>
      </trkpt>
      <trkpt lat="45.82855" lon="4.80106">
        <ele>507.4</ele>
        <time>2020-06-07T07:33:51.000Z</time>
      </trkpt>
      <trkpt lat="45.82856" lon="4.80104">
        <ele>507.6</ele>
        <time>2020-06-07T07:33:52.000Z</time>
      </trkpt>
      <trkpt lat="45.82857" lon="4.80102">
        <ele>507.8</ele>
        <time>2020-06-07T07:33:53.000Z</time>
      </trkpt>
      <trkpt lat="45.82858" lon="4.80101">
        <ele>508</ele>
        <time>2020-06-07T07:33:54.000Z</time>
      </trkpt>
      <trkpt lat="45.82858" lon="4.80099">
        <ele>508.1</ele>
        <time>2020-06-07T07:33:55.000Z</time>
      </trkpt>
      <trkpt lat="45.82859" lon="4.80097">
        <ele>508.3</ele>
        <time>2020-06-07T07:33:56.000Z</time>
      </trkpt>
      <trkpt lat="45.82859" lon="4.80096">
        <ele>508.5</ele>
        <time>2020-06-07T07:33:57.000Z</time>
      </trkpt>
      <trkpt lat="45.8286" lon="4.80094">
        <ele>508.6</ele>
        <time>2020-06-07T07:33:58.000Z</time>
      </trkpt>
      <trkpt lat="45.82861" lon="4.80093">
        <ele>508.8</ele>
        <time>2020-06-07T07:33:59.000Z</time>
      </trkpt>
      <trkpt lat="45.82861" lon="4.80091">
        <ele>509</ele>
        <time>2020-06-07T07:34:00.000Z</time>
      </trkpt>
      <trkpt lat="45.82862" lon="4.80089">
        <ele>509.2</ele>
        <time>2020-06-07T07:34:01.000Z</time>
      </trkpt>
      <trkpt lat="45.82863" lon="4.80087">
        <ele>509.3</ele>
        <time>2020-06-07T07:34:02.000Z</time>
      </trkpt>
      <trkpt lat="45.82863" lon="4.80086">
        <ele>509.5</ele>
        <time>2020-06-07T07:34:03.000Z</time>
      </trkpt>
      <trkpt lat="45.82864" lon="4.80084">
        <ele>509.7</ele>
        <time>2020-06-07T07:34:04.000Z</time>
      </trkpt>
      <trkpt lat="45.82865" lon="4.80082">
        <ele>509.9</ele>
        <time>2020-06-07T07:34:05.000Z</time>
      </trkpt>
      <trkpt lat="45.82866" lon="4.8008">
        <ele>510.1</ele>
        <time>2020-06-07T07:34:06.000Z</time>
      </trkpt>
      <trkpt lat="45.82867" lon="4.80079">
        <ele>510.3</ele>
        <time>2020-06-07T07:34:07.000Z</time>
      </trkpt>
      <trkpt lat="45.82867" lon="4.80077">
        <ele>510.4</ele>
        <time>2020-06-07T07:34:08.000Z</time>
      </trkpt>
      <trkpt lat="45.82868" lon="4.80076">
        <ele>510.6</ele>
        <time>2020-06-07T07:34:09.000Z</time>
      </trkpt>
      <trkpt lat="45.82869" lon="4.80074">
        <ele>510.8</ele>
        <time>2020-06-07T07:34:10.000Z</time>
      </trkpt>
      <trkpt lat="45.8287" lon="4.80072">
        <ele>510.9</ele>
        <time>2020-06-07T07:34:11.000Z</time>
      </trkpt>
      <trkpt lat="45.8287" lon="4.80071">
        <ele>511.1</ele>
        <time>2020-06-07T07:34:12.000Z</time>
      </trkpt>
      <trkpt lat="45.82871" lon="4.80069">
        <ele>511.3</ele>
        <time>2020-06-07T07:34:13.000Z</time>
      </trkpt>
      <trkpt lat="45.82871" lon="4.80067">
        <ele>511.4</ele>
        <time>2020-06-07T07:34:14.000Z</time>
      </trkpt>
      <trkpt lat="45.82872" lon="4.80066">
        <ele>511.6</ele>
        <time>2020-06-07T07:34:15.000Z</time>
      </trkpt>
      <trkpt lat="45.82873" lon="4.80064">
        <ele>511.7</ele>
        <time>2020-06-07T07:34:16.000Z</time>
      </trkpt>
      <trkpt lat="45.82874" lon="4.80063">
        <ele>511.9</ele>
        <time>2020-06-07T07:34:17.000Z</time>
      </trkpt>
      <trkpt lat="45.82875" lon="4.80062">
        <ele>512</ele>
        <time>2020-06-07T07:34:18.000Z</time>
      </trkpt>
      <trkpt lat="45.82876" lon="4.80061">
        <ele>512.2</ele>
        <time>2020-06-07T07:34:19.000Z</time>
      </trkpt>
      <trkpt lat="45.82876" lon="4.8006">
        <ele>512.3</ele>
        <time>2020-06-07T07:34:20.000Z</time>
      </trkpt>
      <trkpt lat="45.82877" lon="4.80059">
        <ele>512.4</ele>
        <time>2020-06-07T07:34:21.000Z</time>
      </trkpt>
      <trkpt lat="45.82878" lon="4.80058">
        <ele>512.6</ele>
        <time>2020-06-07T07:34:22.000Z</time>
      </trkpt>
      <trkpt lat="45.82879" lon="4.80057">
        <ele>512.7</ele>
        <time>2020-06-07T07:34:23.000Z</time>
      </trkpt>
      <trkpt lat="45.8288" lon="4.80056">
        <ele>512.9</ele>
        <time>2020-06-07T07:34:24.000Z</time>
      </trkpt>
      <trkpt lat="45.82882" lon="4.80054">
        <ele>513.1</ele>
        <time>2020-06-07T07:34:25.000Z</time>
      </trkpt>
      <trkpt lat="45.82882" lon="4.80053">
        <ele>513.3</ele>
        <time>2020-06-07T07:34:26.000Z</time>
      </trkpt>
      <trkpt lat="45.82883" lon="4.80051">
        <ele>513.4</ele>
        <time>2020-06-07T07:34:27.000Z</time>
      </trkpt>
      <trkpt lat="45.82884" lon="4.8005">
        <ele>513.5</ele>
        <time>2020-06-07T07:34:28.000Z</time>
      </trkpt>
      <trkpt lat="45.82885" lon="4.80049">
        <ele>513.7</ele>
        <time>2020-06-07T07:34:29.000Z</time>
      </trkpt>
      <trkpt lat="45.82886" lon="4.80049">
        <ele>513.8</ele>
        <time>2020-06-07T07:34:30.000Z</time>
      </trkpt>
      <trkpt lat="45.82887" lon="4.80048">
        <ele>514</ele>
        <time>2020-06-07T07:34:31.000Z</time>
      </trkpt>
      <trkpt lat="45.82888" lon="4.80047">
        <ele>514.1</ele>
        <time>2020-06-07T07:34:32.000Z</time>
      </trkpt>
      <trkpt lat="45.8289" lon="4.80046">
        <ele>514.3</ele>
        <time>2020-06-07T07:34:33.000Z</time>
      </trkpt>
      <trkpt lat="45.82891" lon="4.80045">
        <ele>514.4</ele>
        <time>2020-06-07T07:34:34.000Z</time>
      </trkpt>
      <trkpt lat="45.82892" lon="4.80044">
        <ele>514.6</ele>
        <time>2020-06-07T07:34:35.000Z</time>
      </trkpt>
      <trkpt lat="45.82893" lon="4.80043">
        <ele>514.7</ele>
        <time>2020-06-07T07:34:36.000Z</time>
      </trkpt>
      <trkpt lat="45.82894" lon="4.80042">
        <ele>514.9</ele>
        <time>2020-06-07T07:34:37.000Z</time>
      </trkpt>
      <trkpt lat="45.82895" lon="4.80041">
        <ele>515.1</ele>
        <time>2020-06-07T07:34:38.000Z</time>
      </trkpt>
      <trkpt lat="45.82896" lon="4.80039">
        <ele>515.2</ele>
        <time>2020-06-07T07:34:39.000Z</time>
      </trkpt>
      <trkpt lat="45.82897" lon="4.80037">
        <ele>515.4</ele>
        <time>2020-06-07T07:34:40.000Z</time>
      </trkpt>
      <trkpt lat="45.82898" lon="4.80036">
        <ele>515.6</ele>
        <time>2020-06-07T07:34:41.000Z</time>
      </trkpt>
      <trkpt lat="45.82899" lon="4.80034">
        <ele>515.7</ele>
        <time>2020-06-07T07:34:42.000Z</time>
      </trkpt>
      <trkpt lat="45.82901" lon="4.80033">
        <ele>515.9</ele>
        <time>2020-06-07T07:34:43.000Z</time>
      </trkpt>
      <trkpt lat="45.82902" lon="4.80032">
        <ele>516.1</ele>
        <time>2020-06-07T07:34:44.000Z</time>
      </trkpt>
      <trkpt lat="45.82904" lon="4.80031">
        <ele>516.3</ele>
        <time>2020-06-07T07:34:45.000Z</time>
      </trkpt>
      <trkpt lat="45.82905" lon="4.8003">
        <ele>516.5</ele>
        <time>2020-06-07T07:34:46.000Z</time>
      </trkpt>
      <trkpt lat="45.82906" lon="4.80029">
        <ele>516.7</ele>
        <time>2020-06-07T07:34:47.000Z</time>
      </trkpt>
      <trkpt lat="45.82908" lon="4.80028">
        <ele>516.8</ele>
        <time>2020-06-07T07:34:48.000Z</time>
      </trkpt>
      <trkpt lat="45.82909" lon="4.80028">
        <ele>517</ele>
        <time>2020-06-07T07:34:49.000Z</time>
      </trkpt>
      <trkpt lat="45.82911" lon="4.80027">
        <ele>517.2</ele>
        <time>2020-06-07T07:34:50.000Z</time>
      </trkpt>
      <trkpt lat="45.82913" lon="4.80027">
        <ele>517.4</ele>
        <time>2020-06-07T07:34:51.000Z</time>
      </trkpt>
      <trkpt lat="45.82914" lon="4.80026">
        <ele>517.5</ele>
        <time>2020-06-07T07:34:52.000Z</time>
      </trkpt>
      <trkpt lat="45.82915" lon="4.80025">
        <ele>517.6</ele>
        <time>2020-06-07T07:34:53.000Z</time>
      </trkpt>
      <trkpt lat="45.82917" lon="4.80025">
        <ele>517.8</ele>
        <time>2020-06-07T07:34:54.000Z</time>
      </trkpt>
      <trkpt lat="45.82918" lon="4.80024">
        <ele>518</ele>
        <time>2020-06-07T07:34:55.000Z</time>
      </trkpt>
      <trkpt lat="45.8292" lon="4.80023">
        <ele>518.1</ele>
        <time>2020-06-07T07:34:56.000Z</time>
      </trkpt>
      <trkpt lat="45.82921" lon="4.80022">
        <ele>518.3</ele>
        <time>2020-06-07T07:34:57.000Z</time>
      </trkpt>
      <trkpt lat="45.82922" lon="4.80021">
        <ele>518.4</ele>
        <time>2020-06-07T07:34:58.000Z</time>
      </trkpt>
      <trkpt lat="45.82924" lon="4.8002">
        <ele>518.6</ele>
        <time>2020-06-07T07:34:59.000Z</time>
      </trkpt>
      <trkpt lat="45.82925" lon="4.8002">
        <ele>518.7</ele>
        <time>2020-06-07T07:35:00.000Z</time>
      </trkpt>
      <trkpt lat="45.82927" lon="4.80019">
        <ele>518.9</ele>
        <time>2020-06-07T07:35:01.000Z</time>
      </trkpt>
      <trkpt lat="45.82928" lon="4.80018">
        <ele>519</ele>
        <time>2020-06-07T07:35:02.000Z</time>
      </trkpt>
      <trkpt lat="45.8293" lon="4.80017">
        <ele>519.1</ele>
        <time>2020-06-07T07:35:03.000Z</time>
      </trkpt>
      <trkpt lat="45.82931" lon="4.80017">
        <ele>519.3</ele>
        <time>2020-06-07T07:35:04.000Z</time>
      </trkpt>
      <trkpt lat="45.82932" lon="4.80016">
        <ele>519.4</ele>
        <time>2020-06-07T07:35:05.000Z</time>
      </trkpt>
      <trkpt lat="45.82934" lon="4.80015">
        <ele>519.5</ele>
        <time>2020-06-07T07:35:06.000Z</time>
      </trkpt>
      <trkpt lat="45.82935" lon="4.80014">
        <ele>519.7</ele>
        <time>2020-06-07T07:35:07.000Z</time>
      </trkpt>
      <trkpt lat="45.82936" lon="4.80013">
        <ele>519.8</ele>
        <time>2020-06-07T07:35:08.000Z</time>
      </trkpt>
      <trkpt lat="45.82938" lon="4.80012">
        <ele>519.9</ele>
        <time>2020-06-07T07:35:09.000Z</time>
      </trkpt>
      <trkpt lat="45.82939" lon="4.8001">
        <ele>520.1</ele>
        <time>2020-06-07T07:35:10.000Z</time>
      </trkpt>
      <trkpt lat="45.82941" lon="4.80009">
        <ele>520.3</ele>
        <time>2020-06-07T07:35:11.000Z</time>
      </trkpt>
      <trkpt lat="45.82943" lon="4.80008">
        <ele>520.5</ele>
        <time>2020-06-07T07:35:12.000Z</time>
      </trkpt>
      <trkpt lat="45.82944" lon="4.80007">
        <ele>520.6</ele>
        <time>2020-06-07T07:35:13.000Z</time>
      </trkpt>
      <trkpt lat="45.82946" lon="4.80005">
        <ele>520.7</ele>
        <time>2020-06-07T07:35:14.000Z</time>
      </trkpt>
      <trkpt lat="45.82948" lon="4.80004">
        <ele>520.9</ele>
        <time>2020-06-07T07:35:15.000Z</time>
      </trkpt>
      <trkpt lat="45.82949" lon="4.80003">
        <ele>521.1</ele>
        <time>2020-06-07T07:35:16.000Z</time>
      </trkpt>
      <trkpt lat="45.82951" lon="4.80002">
        <ele>521.2</ele>
        <time>2020-06-07T07:35:17.000Z</time>
      </trkpt>
      <trkpt lat="45.82952" lon="4.8">
        <ele>521.4</ele>
        <time>2020-06-07T07:35:18.000Z</time>
      </trkpt>
      <trkpt lat="45.82954" lon="4.79999">
        <ele>521.5</ele>
        <time>2020-06-07T07:35:19.000Z</time>
      </trkpt>
      <trkpt lat="45.82955" lon="4.79998">
        <ele>521.6</ele>
        <time>2020-06-07T07:35:20.000Z</time>
      </trkpt>
      <trkpt lat="45.82957" lon="4.79996">
        <ele>521.8</ele>
        <time>2020-06-07T07:35:21.000Z</time>
      </trkpt>
      <trkpt lat="45.82958" lon="4.79995">
        <ele>521.9</ele>
        <time>2020-06-07T07:35:22.000Z</time>
      </trkpt>
      <trkpt lat="45.82959" lon="4.79994">
        <ele>522.1</ele>
        <time>2020-06-07T07:35:23.000Z</time>
      </trkpt>
      <trkpt lat="45.82961" lon="4.79992">
        <ele>522.2</ele>
        <time>2020-06-07T07:35:24.000Z</time>
      </trkpt>
      <trkpt lat="45.82962" lon="4.79991">
        <ele>522.3</ele>
        <time>2020-06-07T07:35:25.000Z</time>
      </trkpt>
      <trkpt lat="45.82964" lon="4.7999">
        <ele>522.5</ele>
        <time>2020-06-07T07:35:26.000Z</time>
      </trkpt>
      <trkpt lat="45.82966" lon="4.79989">
        <ele>522.6</ele>
        <time>2020-06-07T07:35:27.000Z</time>
      </trkpt>
      <trkpt lat="45.82967" lon="4.79988">
        <ele>522.8</ele>
        <time>2020-06-07T07:35:28.000Z</time>
      </trkpt>
      <trkpt lat="45.82969" lon="4.79986">
        <ele>522.9</ele>
        <time>2020-06-07T07:35:29.000Z</time>
      </trkpt>
      <trkpt lat="45.8297" lon="4.79985">
        <ele>523.1</ele>
        <time>2020-06-07T07:35:30.000Z</time>
      </trkpt>
      <trkpt lat="45.82972" lon="4.79984">
        <ele>523.2</ele>
        <time>2020-06-07T07:35:31.000Z</time>
      </trkpt>
      <trkpt lat="45.82973" lon="4.79983">
        <ele>523.3</ele>
        <time>2020-06-07T07:35:32.000Z</time>
      </trkpt>
      <trkpt lat="45.82975" lon="4.79982">
        <ele>523.5</ele>
        <time>2020-06-07T07:35:33.000Z</time>
      </trkpt>
      <trkpt lat="45.82976" lon="4.79981">
        <ele>523.6</ele>
        <time>2020-06-07T07:35:34.000Z</time>
      </trkpt>
      <trkpt lat="45.82977" lon="4.7998">
        <ele>523.7</ele>
        <time>2020-06-07T07:35:35.000Z</time>
      </trkpt>
      <trkpt lat="45.82979" lon="4.79979">
        <ele>523.9</ele>
        <time>2020-06-07T07:35:36.000Z</time>
      </trkpt>
      <trkpt lat="45.8298" lon="4.79978">
        <ele>524</ele>
        <time>2020-06-07T07:35:37.000Z</time>
      </trkpt>
      <trkpt lat="45.82981" lon="4.79977">
        <ele>524.1</ele>
        <time>2020-06-07T07:35:38.000Z</time>
      </trkpt>
      <trkpt lat="45.82983" lon="4.79976">
        <ele>524.2</ele>
        <time>2020-06-07T07:35:39.000Z</time>
      </trkpt>
      <trkpt lat="45.82984" lon="4.79975">
        <ele>524.3</ele>
        <time>2020-06-07T07:35:40.000Z</time>
      </trkpt>
      <trkpt lat="45.82986" lon="4.79974">
        <ele>524.5</ele>
        <time>2020-06-07T07:35:41.000Z</time>
      </trkpt>
      <trkpt lat="45.82987" lon="4.79974">
        <ele>524.6</ele>
        <time>2020-06-07T07:35:42.000Z</time>
      </trkpt>
      <trkpt lat="45.82989" lon="4.79973">
        <ele>524.7</ele>
        <time>2020-06-07T07:35:43.000Z</time>
      </trkpt>
      <trkpt lat="45.82991" lon="4.79972">
        <ele>524.9</ele>
        <time>2020-06-07T07:35:44.000Z</time>
      </trkpt>
      <trkpt lat="45.82992" lon="4.79971">
        <ele>525</ele>
        <time>2020-06-07T07:35:45.000Z</time>
      </trkpt>
      <trkpt lat="45.82993" lon="4.7997">
        <ele>525.1</ele>
        <time>2020-06-07T07:35:46.000Z</time>
      </trkpt>
      <trkpt lat="45.82995" lon="4.79969">
        <ele>525.2</ele>
        <time>2020-06-07T07:35:47.000Z</time>
      </trkpt>
      <trkpt lat="45.82996" lon="4.79968">
        <ele>525.3</ele>
        <time>2020-06-07T07:35:48.000Z</time>
      </trkpt>
      <trkpt lat="45.82997" lon="4.79967">
        <ele>525.4</ele>
        <time>2020-06-07T07:35:49.000Z</time>
      </trkpt>
      <trkpt lat="45.82998" lon="4.79967">
        <ele>525.5</ele>
        <time>2020-06-07T07:35:50.000Z</time>
      </trkpt>
      <trkpt lat="45.82999" lon="4.79966">
        <ele>525.6</ele>
        <time>2020-06-07T07:35:51.000Z</time>
      </trkpt>
      <trkpt lat="45.83" lon="4.79965">
        <ele>525.7</ele>
        <time>2020-06-07T07:35:52.000Z</time>
      </trkpt>
      <trkpt lat="45.83001" lon="4.79964">
        <ele>525.8</ele>
        <time>2020-06-07T07:35:53.000Z</time>
      </trkpt>
      <trkpt lat="45.83002" lon="4.79963">
        <ele>525.9</ele>
        <time>2020-06-07T07:35:54.000Z</time>
      </trkpt>
      <trkpt lat="45.83003" lon="4.79962">
        <ele>525.9</ele>
        <time>2020-06-07T07:35:55.000Z</time>
      </trkpt>
      <trkpt lat="45.83003" lon="4.79961">
        <ele>526</ele>
        <time>2020-06-07T07:35:56.000Z</time>
      </trkpt>
      <trkpt lat="45.83003" lon="4.7996">
        <ele>526</ele>
        <time>2020-06-07T07:35:57.000Z</time>
      </trkpt>
      <trkpt lat="45.83003" lon="4.7996">
        <ele>526</ele>
        <time>2020-06-07T07:35:58.000Z</time>
      </trkpt>
      <trkpt lat="45.83004" lon="4.79965">
        <ele>526.4</ele>
        <time>2020-06-07T07:45:54.000Z</time>
      </trkpt>
      <trkpt lat="45.83003" lon="4.79967">
        <ele>526.5</ele>
        <time>2020-06-07T07:45:55.000Z</time>
      </trkpt>
      <trkpt lat="45.83001" lon="4.79968">
        <ele>526.7</ele>
        <time>2020-06-07T07:45:56.000Z</time>
      </trkpt>
      <trkpt lat="45.82998" lon="4.7997">
        <ele>526.9</ele>
        <time>2020-06-07T07:45:57.000Z</time>
      </trkpt>
      <trkpt lat="45.82996" lon="4.79972">
        <ele>527.2</ele>
        <time>2020-06-07T07:45:58.000Z</time>
      </trkpt>
      <trkpt lat="45.82993" lon="4.79973">
        <ele>527.4</ele>
        <time>2020-06-07T07:45:59.000Z</time>
      </trkpt>
      <trkpt lat="45.82991" lon="4.79975">
        <ele>527.6</ele>
        <time>2020-06-07T07:46:00.000Z</time>
      </trkpt>
      <trkpt lat="45.82989" lon="4.79976">
        <ele>527.8</ele>
        <time>2020-06-07T07:46:01.000Z</time>
      </trkpt>
      <trkpt lat="45.82986" lon="4.79977">
        <ele>528</ele>
        <time>2020-06-07T07:46:02.000Z</time>
      </trkpt>
      <trkpt lat="45.82984" lon="4.79979">
        <ele>528.2</ele>
        <time>2020-06-07T07:46:03.000Z</time>
      </trkpt>
      <trkpt lat="45.82982" lon="4.7998">
        <ele>528.4</ele>
        <time>2020-06-07T07:46:04.000Z</time>
      </trkpt>
      <trkpt lat="45.82979" lon="4.79981">
        <ele>528.5</ele>
        <time>2020-06-07T07:46:05.000Z</time>
      </trkpt>
      <trkpt lat="45.82977" lon="4.79983">
        <ele>528.6</ele>
        <time>2020-06-07T07:46:06.000Z</time>
      </trkpt>
      <trkpt lat="45.82976" lon="4.79983">
        <ele>528.7</ele>
        <time>2020-06-07T07:46:07.000Z</time>
      </trkpt>
      <trkpt lat="45.82975" lon="4.79983">
        <ele>528.7</ele>
        <time>2020-06-07T07:46:08.000Z</time>
      </trkpt>
      <trkpt lat="45.82975" lon="4.79983">
        <ele>528.7</ele>
        <time>2020-06-07T07:46:09.000Z</time>
      </trkpt>
      <trkpt lat="45.82991" lon="4.79972">
        <ele>528.9</ele>
        <time>2020-06-07T07:49:15.000Z</time>
      </trkpt>
      <trkpt lat="45.82992" lon="4.79971">
        <ele>529</ele>
        <time>2020-06-07T07:49:16.000Z</time>
      </trkpt>
      <trkpt lat="45.82993" lon="4.7997">
        <ele>529</ele>
        <time>2020-06-07T07:49:17.000Z</time>
      </trkpt>
      <trkpt lat="45.82994" lon="4.79969">
        <ele>529</ele>
        <time>2020-06-07T07:49:18.000Z</time>
      </trkpt>
      <trkpt lat="45.82995" lon="4.79969">
        <ele>529</ele>
        <time>2020-06-07T07:49:19.000Z</time>
      </trkpt>
      <trkpt lat="45.82997" lon="4.79968">
        <ele>529</ele>
        <time>2020-06-07T07:49:20.000Z</time>
      </trkpt>
      <trkpt lat="45.82998" lon="4.79967">
        <ele>529</ele>
        <time>2020-06-07T07:49:21.000Z</time>
      </trkpt>
      <trkpt lat="45.82999" lon="4.79967">
        <ele>529.1</ele>
        <time>2020-06-07T07:49:22.000Z</time>
      </trkpt>
      <trkpt lat="45.83" lon="4.79966">
        <ele>529.1</ele>
        <time>2020-06-07T07:49:23.000Z</time>
      </trkpt>
      <trkpt lat="45.83001" lon="4.79965">
        <ele>529.1</ele>
        <time>2020-06-07T07:49:24.000Z</time>
      </trkpt>
      <trkpt lat="45.83002" lon="4.79964">
        <ele>529.1</ele>
        <time>2020-06-07T07:49:25.000Z</time>
      </trkpt>
      <trkpt lat="45.83003" lon="4.79963">
        <ele>529.1</ele>
        <time>2020-06-07T07:49:26.000Z</time>
      </trkpt>
      <trkpt lat="45.83004" lon="4.79962">
        <ele>529.2</ele>
        <time>2020-06-07T07:49:27.000Z</time>
      </trkpt>
      <trkpt lat="45.83005" lon="4.7996">
        <ele>529.2</ele>
        <time>2020-06-07T07:49:28.000Z</time>
      </trkpt>
      <trkpt lat="45.83007" lon="4.79959">
        <ele>529.2</ele>
        <time>2020-06-07T07:49:29.000Z</time>
      </trkpt>
      <trkpt lat="45.83008" lon="4.79957">
        <ele>529.2</ele>
        <time>2020-06-07T07:49:30.000Z</time>
      </trkpt>
      <trkpt lat="45.83009" lon="4.79956">
        <ele>529.3</ele>
        <time>2020-06-07T07:49:31.000Z</time>
      </trkpt>
      <trkpt lat="45.83011" lon="4.79955">
        <ele>529.3</ele>
        <time>2020-06-07T07:49:32.000Z</time>
      </trkpt>
      <trkpt lat="45.83013" lon="4.79953">
        <ele>529.3</ele>
        <time>2020-06-07T07:49:33.000Z</time>
      </trkpt>
      <trkpt lat="45.83016" lon="4.7995">
        <ele>529.3</ele>
        <time>2020-06-07T07:49:34.000Z</time>
      </trkpt>
      <trkpt lat="45.83018" lon="4.79949">
        <ele>529.3</ele>
        <time>2020-06-07T07:49:35.000Z</time>
      </trkpt>
      <trkpt lat="45.8302" lon="4.79948">
        <ele>529.3</ele>
        <time>2020-06-07T07:49:36.000Z</time>
      </trkpt>
      <trkpt lat="45.83021" lon="4.79948">
        <ele>529.4</ele>
        <time>2020-06-07T07:49:37.000Z</time>
      </trkpt>
      <trkpt lat="45.83023" lon="4.79947">
        <ele>529.4</ele>
        <time>2020-06-07T07:49:38.000Z</time>
      </trkpt>
      <trkpt lat="45.83024" lon="4.79948">
        <ele>529.4</ele>
        <time>2020-06-07T07:49:39.000Z</time>
      </trkpt>
      <trkpt lat="45.83025" lon="4.79949">
        <ele>529.4</ele>
        <time>2020-06-07T07:49:40.000Z</time>
      </trkpt>
      <trkpt lat="45.83027" lon="4.7995">
        <ele>529.4</ele>
        <time>2020-06-07T07:49:41.000Z</time>
      </trkpt>
      <trkpt lat="45.83028" lon="4.79951">
        <ele>529.4</ele>
        <time>2020-06-07T07:49:42.000Z</time>
      </trkpt>
      <trkpt lat="45.83031" lon="4.79951">
        <ele>529.4</ele>
        <time>2020-06-07T07:49:43.000Z</time>
      </trkpt>
      <trkpt lat="45.83032" lon="4.7995">
        <ele>529.4</ele>
        <time>2020-06-07T07:49:44.000Z</time>
      </trkpt>
      <trkpt lat="45.83034" lon="4.7995">
        <ele>529.4</ele>
        <time>2020-06-07T07:49:45.000Z</time>
      </trkpt>
      <trkpt lat="45.83036" lon="4.79949">
        <ele>529.5</ele>
        <time>2020-06-07T07:49:46.000Z</time>
      </trkpt>
      <trkpt lat="45.83037" lon="4.79949">
        <ele>529.5</ele>
        <time>2020-06-07T07:49:47.000Z</time>
      </trkpt>
      <trkpt lat="45.83039" lon="4.79949">
        <ele>529.5</ele>
        <time>2020-06-07T07:49:48.000Z</time>
      </trkpt>
      <trkpt lat="45.8304" lon="4.79949">
        <ele>529.5</ele>
        <time>2020-06-07T07:49:49.000Z</time>
      </trkpt>
      <trkpt lat="45.83041" lon="4.79949">
        <ele>529.5</ele>
        <time>2020-06-07T07:49:50.000Z</time>
      </trkpt>
      <trkpt lat="45.83042" lon="4.79948">
        <ele>529.5</ele>
        <time>2020-06-07T07:49:51.000Z</time>
      </trkpt>
      <trkpt lat="45.83044" lon="4.79948">
        <ele>529.5</ele>
        <time>2020-06-07T07:49:52.000Z</time>
      </trkpt>
      <trkpt lat="45.83045" lon="4.79948">
        <ele>529.5</ele>
        <time>2020-06-07T07:49:53.000Z</time>
      </trkpt>
      <trkpt lat="45.83046" lon="4.79948">
        <ele>529.5</ele>
        <time>2020-06-07T07:49:54.000Z</time>
      </trkpt>
      <trkpt lat="45.83048" lon="4.79947">
        <ele>529.6</ele>
        <time>2020-06-07T07:49:55.000Z</time>
      </trkpt>
      <trkpt lat="45.83049" lon="4.79947">
        <ele>529.6</ele>
        <time>2020-06-07T07:49:56.000Z</time>
      </trkpt>
      <trkpt lat="45.83051" lon="4.79947">
        <ele>529.6</ele>
        <time>2020-06-07T07:49:57.000Z</time>
      </trkpt>
      <trkpt lat="45.83052" lon="4.79946">
        <ele>529.6</ele>
        <time>2020-06-07T07:49:58.000Z</time>
      </trkpt>
      <trkpt lat="45.83053" lon="4.79945">
        <ele>529.6</ele>
        <time>2020-06-07T07:49:59.000Z</time>
      </trkpt>
      <trkpt lat="45.83055" lon="4.79944">
        <ele>529.7</ele>
        <time>2020-06-07T07:50:00.000Z</time>
      </trkpt>
      <trkpt lat="45.83056" lon="4.79944">
        <ele>529.7</ele>
        <time>2020-06-07T07:50:01.000Z</time>
      </trkpt>
      <trkpt lat="45.83058" lon="4.79944">
        <ele>529.7</ele>
        <time>2020-06-07T07:50:02.000Z</time>
      </trkpt>
      <trkpt lat="45.83059" lon="4.79943">
        <ele>529.7</ele>
        <time>2020-06-07T07:50:03.000Z</time>
      </trkpt>
      <trkpt lat="45.83061" lon="4.79942">
        <ele>529.8</ele>
        <time>2020-06-07T07:50:04.000Z</time>
      </trkpt>
      <trkpt lat="45.83062" lon="4.79941">
        <ele>529.8</ele>
        <time>2020-06-07T07:50:05.000Z</time>
      </trkpt>
      <trkpt lat="45.83064" lon="4.79941">
        <ele>529.8</ele>
        <time>2020-06-07T07:50:06.000Z</time>
      </trkpt>
      <trkpt lat="45.83065" lon="4.7994">
        <ele>529.8</ele>
        <time>2020-06-07T07:50:07.000Z</time>
      </trkpt>
      <trkpt lat="45.83067" lon="4.7994">
        <ele>529.9</ele>
        <time>2020-06-07T07:50:08.000Z</time>
      </trkpt>
      <trkpt lat="45.83068" lon="4.7994">
        <ele>529.9</ele>
        <time>2020-06-07T07:50:09.000Z</time>
      </trkpt>
      <trkpt lat="45.8307" lon="4.79939">
        <ele>529.9</ele>
        <time>2020-06-07T07:50:10.000Z</time>
      </trkpt>
      <trkpt lat="45.83072" lon="4.79939">
        <ele>529.9</ele>
        <time>2020-06-07T07:50:11.000Z</time>
      </trkpt>
      <trkpt lat="45.83073" lon="4.79939">
        <ele>529.9</ele>
        <time>2020-06-07T07:50:12.000Z</time>
      </trkpt>
      <trkpt lat="45.83075" lon="4.79938">
        <ele>529.9</ele>
        <time>2020-06-07T07:50:13.000Z</time>
      </trkpt>
      <trkpt lat="45.83076" lon="4.79938">
        <ele>529.9</ele>
        <time>2020-06-07T07:50:14.000Z</time>
      </trkpt>
      <trkpt lat="45.83079" lon="4.79937">
        <ele>529.8</ele>
        <time>2020-06-07T07:50:15.000Z</time>
      </trkpt>
      <trkpt lat="45.83082" lon="4.79936">
        <ele>529.7</ele>
        <time>2020-06-07T07:50:16.000Z</time>
      </trkpt>
      <trkpt lat="45.83085" lon="4.79935">
        <ele>529.6</ele>
        <time>2020-06-07T07:50:17.000Z</time>
      </trkpt>
      <trkpt lat="45.83087" lon="4.79934">
        <ele>529.5</ele>
        <time>2020-06-07T07:50:18.000Z</time>
      </trkpt>
      <trkpt lat="45.8309" lon="4.79934">
        <ele>529.3</ele>
        <time>2020-06-07T07:50:19.000Z</time>
      </trkpt>
      <trkpt lat="45.83091" lon="4.79933">
        <ele>529.2</ele>
        <time>2020-06-07T07:50:20.000Z</time>
      </trkpt>
      <trkpt lat="45.83093" lon="4.79933">
        <ele>529.1</ele>
        <time>2020-06-07T07:50:21.000Z</time>
      </trkpt>
      <trkpt lat="45.83095" lon="4.79933">
        <ele>529</ele>
        <time>2020-06-07T07:50:22.000Z</time>
      </trkpt>
      <trkpt lat="45.83096" lon="4.79933">
        <ele>528.8</ele>
        <time>2020-06-07T07:50:23.000Z</time>
      </trkpt>
      <trkpt lat="45.83098" lon="4.79934">
        <ele>528.7</ele>
        <time>2020-06-07T07:50:24.000Z</time>
      </trkpt>
      <trkpt lat="45.83099" lon="4.79933">
        <ele>528.5</ele>
        <time>2020-06-07T07:50:25.000Z</time>
      </trkpt>
      <trkpt lat="45.83101" lon="4.79933">
        <ele>528.4</ele>
        <time>2020-06-07T07:50:26.000Z</time>
      </trkpt>
      <trkpt lat="45.83102" lon="4.79933">
        <ele>528.2</ele>
        <time>2020-06-07T07:50:27.000Z</time>
      </trkpt>
      <trkpt lat="45.83103" lon="4.79932">
        <ele>528</ele>
        <time>2020-06-07T07:50:28.000Z</time>
      </trkpt>
      <trkpt lat="45.83105" lon="4.79932">
        <ele>527.9</ele>
        <time>2020-06-07T07:50:29.000Z</time>
      </trkpt>
      <trkpt lat="45.83107" lon="4.79931">
        <ele>527.6</ele>
        <time>2020-06-07T07:50:30.000Z</time>
      </trkpt>
      <trkpt lat="45.83109" lon="4.79931">
        <ele>527.3</ele>
        <time>2020-06-07T07:50:31.000Z</time>
      </trkpt>
      <trkpt lat="45.83111" lon="4.79932">
        <ele>527</ele>
        <time>2020-06-07T07:50:32.000Z</time>
      </trkpt>
      <trkpt lat="45.83114" lon="4.79933">
        <ele>526.6</ele>
        <time>2020-06-07T07:50:33.000Z</time>
      </trkpt>
      <trkpt lat="45.83116" lon="4.79935">
        <ele>526.2</ele>
        <time>2020-06-07T07:50:34.000Z</time>
      </trkpt>
      <trkpt lat="45.83118" lon="4.79935">
        <ele>525.8</ele>
        <time>2020-06-07T07:50:35.000Z</time>
      </trkpt>
      <trkpt lat="45.8312" lon="4.79935">
        <ele>525.5</ele>
        <time>2020-06-07T07:50:36.000Z</time>
      </trkpt>
      <trkpt lat="45.83122" lon="4.79934">
        <ele>525.2</ele>
        <time>2020-06-07T07:50:37.000Z</time>
      </trkpt>
      <trkpt lat="45.83124" lon="4.79934">
        <ele>524.8</ele>
        <time>2020-06-07T07:50:38.000Z</time>
      </trkpt>
      <trkpt lat="45.83126" lon="4.79935">
        <ele>524.4</ele>
        <time>2020-06-07T07:50:39.000Z</time>
      </trkpt>
      <trkpt lat="45.83129" lon="4.79934">
        <ele>524</ele>
        <time>2020-06-07T07:50:40.000Z</time>
      </trkpt>
      <trkpt lat="45.8313" lon="4.79934">
        <ele>523.7</ele>
        <time>2020-06-07T07:50:41.000Z</time>
      </trkpt>
      <trkpt lat="45.83132" lon="4.79934">
        <ele>523.3</ele>
        <time>2020-06-07T07:50:42.000Z</time>
      </trkpt>
      <trkpt lat="45.83133" lon="4.79934">
        <ele>523</ele>
        <time>2020-06-07T07:50:43.000Z</time>
      </trkpt>
      <trkpt lat="45.83135" lon="4.79934">
        <ele>522.6</ele>
        <time>2020-06-07T07:50:44.000Z</time>
      </trkpt>
      <trkpt lat="45.83137" lon="4.79934">
        <ele>522.2</ele>
        <time>2020-06-07T07:50:45.000Z</time>
      </trkpt>
      <trkpt lat="45.83139" lon="4.79934">
        <ele>521.7</ele>
        <time>2020-06-07T07:50:46.000Z</time>
      </trkpt>
      <trkpt lat="45.83141" lon="4.79935">
        <ele>521.2</ele>
        <time>2020-06-07T07:50:47.000Z</time>
      </trkpt>
      <trkpt lat="45.83143" lon="4.79935">
        <ele>520.6</ele>
        <time>2020-06-07T07:50:48.000Z</time>
      </trkpt>
      <trkpt lat="45.83145" lon="4.79936">
        <ele>520.1</ele>
        <time>2020-06-07T07:50:49.000Z</time>
      </trkpt>
      <trkpt lat="45.83147" lon="4.79936">
        <ele>519.6</ele>
        <time>2020-06-07T07:50:50.000Z</time>
      </trkpt>
      <trkpt lat="45.83148" lon="4.79937">
        <ele>519.2</ele>
        <time>2020-06-07T07:50:51.000Z</time>
      </trkpt>
      <trkpt lat="45.8315" lon="4.79938">
        <ele>518.8</ele>
        <time>2020-06-07T07:50:52.000Z</time>
      </trkpt>
      <trkpt lat="45.83152" lon="4.79938">
        <ele>518.3</ele>
        <time>2020-06-07T07:50:53.000Z</time>
      </trkpt>
      <trkpt lat="45.83154" lon="4.79939">
        <ele>517.7</ele>
        <time>2020-06-07T07:50:54.000Z</time>
      </trkpt>
      <trkpt lat="45.83156" lon="4.7994">
        <ele>517</ele>
        <time>2020-06-07T07:50:55.000Z</time>
      </trkpt>
      <trkpt lat="45.83159" lon="4.79941">
        <ele>516.3</ele>
        <time>2020-06-07T07:50:56.000Z</time>
      </trkpt>
      <trkpt lat="45.83161" lon="4.79943">
        <ele>515.6</ele>
        <time>2020-06-07T07:50:57.000Z</time>
      </trkpt>
      <trkpt lat="45.83163" lon="4.79944">
        <ele>515</ele>
        <time>2020-06-07T07:50:58.000Z</time>
      </trkpt>
      <trkpt lat="45.83165" lon="4.79947">
        <ele>514.3</ele>
        <time>2020-06-07T07:50:59.000Z</time>
      </trkpt>
      <trkpt lat="45.83167" lon="4.79949">
        <ele>513.6</ele>
        <time>2020-06-07T07:51:00.000Z</time>
      </trkpt>
      <trkpt lat="45.83169" lon="4.79951">
        <ele>512.9</ele>
        <time>2020-06-07T07:51:01.000Z</time>
      </trkpt>
      <trkpt lat="45.83171" lon="4.79953">
        <ele>512.3</ele>
        <time>2020-06-07T07:51:02.000Z</time>
      </trkpt>
      <trkpt lat="45.83172" lon="4.79956">
        <ele>511.7</ele>
        <time>2020-06-07T07:51:03.000Z</time>
      </trkpt>
      <trkpt lat="45.83173" lon="4.79959">
        <ele>511.2</ele>
        <time>2020-06-07T07:51:04.000Z</time>
      </trkpt>
      <trkpt lat="45.83175" lon="4.79962">
        <ele>510.6</ele>
        <time>2020-06-07T07:51:05.000Z</time>
      </trkpt>
      <trkpt lat="45.83176" lon="4.79965">
        <ele>510</ele>
        <time>2020-06-07T07:51:06.000Z</time>
      </trkpt>
      <trkpt lat="45.83178" lon="4.79968">
        <ele>509.4</ele>
        <time>2020-06-07T07:51:07.000Z</time>
      </trkpt>
      <trkpt lat="45.83179" lon="4.79971">
        <ele>508.8</ele>
        <time>2020-06-07T07:51:08.000Z</time>
      </trkpt>
      <trkpt lat="45.8318" lon="4.79974">
        <ele>508.2</ele>
        <time>2020-06-07T07:51:09.000Z</time>
      </trkpt>
      <trkpt lat="45.83181" lon="4.79977">
        <ele>507.4</ele>
        <time>2020-06-07T07:51:10.000Z</time>
      </trkpt>
      <trkpt lat="45.83182" lon="4.79981">
        <ele>506.9</ele>
        <time>2020-06-07T07:51:11.000Z</time>
      </trkpt>
      <trkpt lat="45.83184" lon="4.79984">
        <ele>506.4</ele>
        <time>2020-06-07T07:51:12.000Z</time>
      </trkpt>
      <trkpt lat="45.83185" lon="4.79988">
        <ele>505.8</ele>
        <time>2020-06-07T07:51:13.000Z</time>
      </trkpt>
      <trkpt lat="45.83185" lon="4.79992">
        <ele>505.2</ele>
        <time>2020-06-07T07:51:14.000Z</time>
      </trkpt>
      <trkpt lat="45.83186" lon="4.79996">
        <ele>504.7</ele>
        <time>2020-06-07T07:51:15.000Z</time>
      </trkpt>
      <trkpt lat="45.83187" lon="4.8">
        <ele>504.3</ele>
        <time>2020-06-07T07:51:16.000Z</time>
      </trkpt>
      <trkpt lat="45.83187" lon="4.80003">
        <ele>503.8</ele>
        <time>2020-06-07T07:51:17.000Z</time>
      </trkpt>
      <trkpt lat="45.83188" lon="4.80005">
        <ele>503.6</ele>
        <time>2020-06-07T07:51:18.000Z</time>
      </trkpt>
      <trkpt lat="45.83189" lon="4.80007">
        <ele>503.3</ele>
        <time>2020-06-07T07:51:19.000Z</time>
      </trkpt>
      <trkpt lat="45.83191" lon="4.80009">
        <ele>499.2</ele>
        <time>2020-06-07T07:51:20.000Z</time>
      </trkpt>
      <trkpt lat="45.83193" lon="4.8001">
        <ele>499.1</ele>
        <time>2020-06-07T07:51:21.000Z</time>
      </trkpt>
      <trkpt lat="45.83194" lon="4.80012">
        <ele>499.1</ele>
        <time>2020-06-07T07:51:22.000Z</time>
      </trkpt>
      <trkpt lat="45.83195" lon="4.80012">
        <ele>499.1</ele>
        <time>2020-06-07T07:51:23.000Z</time>
      </trkpt>
      <trkpt lat="45.83196" lon="4.80012">
        <ele>499.1</ele>
        <time>2020-06-07T07:51:24.000Z</time>
      </trkpt>
      <trkpt lat="45.83197" lon="4.80011">
        <ele>499.1</ele>
        <time>2020-06-07T07:51:25.000Z</time>
      </trkpt>
      <trkpt lat="45.83198" lon="4.8001">
        <ele>499.1</ele>
        <time>2020-06-07T07:51:26.000Z</time>
      </trkpt>
      <trkpt lat="45.832" lon="4.80008">
        <ele>499.1</ele>
        <time>2020-06-07T07:51:27.000Z</time>
      </trkpt>
      <trkpt lat="45.832" lon="4.80007">
        <ele>499.1</ele>
        <time>2020-06-07T07:51:28.000Z</time>
      </trkpt>
      <trkpt lat="45.83201" lon="4.80007">
        <ele>499.1</ele>
        <time>2020-06-07T07:51:29.000Z</time>
      </trkpt>
      <trkpt lat="45.83203" lon="4.80006">
        <ele>499.1</ele>
        <time>2020-06-07T07:51:30.000Z</time>
      </trkpt>
      <trkpt lat="45.83203" lon="4.80005">
        <ele>499.1</ele>
        <time>2020-06-07T07:51:31.000Z</time>
      </trkpt>
      <trkpt lat="45.83204" lon="4.80006">
        <ele>499.1</ele>
        <time>2020-06-07T07:51:32.000Z</time>
      </trkpt>
      <trkpt lat="45.83205" lon="4.80006">
        <ele>499.1</ele>
        <time>2020-06-07T07:51:33.000Z</time>
      </trkpt>
      <trkpt lat="45.83206" lon="4.80007">
        <ele>499.1</ele>
        <time>2020-06-07T07:51:34.000Z</time>
      </trkpt>
      <trkpt lat="45.83207" lon="4.80007">
        <ele>499.1</ele>
        <time>2020-06-07T07:51:35.000Z</time>
      </trkpt>
      <trkpt lat="45.83209" lon="4.80006">
        <ele>499.1</ele>
        <time>2020-06-07T07:51:36.000Z</time>
      </trkpt>
      <trkpt lat="45.8321" lon="4.80005">
        <ele>499.1</ele>
        <time>2020-06-07T07:51:37.000Z</time>
      </trkpt>
      <trkpt lat="45.83213" lon="4.80004">
        <ele>499</ele>
        <time>2020-06-07T07:51:38.000Z</time>
      </trkpt>
      <trkpt lat="45.83215" lon="4.80003">
        <ele>499</ele>
        <time>2020-06-07T07:51:39.000Z</time>
      </trkpt>
      <trkpt lat="45.83217" lon="4.80002">
        <ele>499</ele>
        <time>2020-06-07T07:51:40.000Z</time>
      </trkpt>
      <trkpt lat="45.8322" lon="4.80001">
        <ele>499</ele>
        <time>2020-06-07T07:51:41.000Z</time>
      </trkpt>
      <trkpt lat="45.83223" lon="4.8">
        <ele>499</ele>
        <time>2020-06-07T07:51:42.000Z</time>
      </trkpt>
      <trkpt lat="45.83225" lon="4.79999">
        <ele>499</ele>
        <time>2020-06-07T07:51:43.000Z</time>
      </trkpt>
      <trkpt lat="45.83228" lon="4.79997">
        <ele>499</ele>
        <time>2020-06-07T07:51:44.000Z</time>
      </trkpt>
      <trkpt lat="45.8323" lon="4.79996">
        <ele>499</ele>
        <time>2020-06-07T07:51:45.000Z</time>
      </trkpt>
      <trkpt lat="45.83233" lon="4.79994">
        <ele>499</ele>
        <time>2020-06-07T07:51:46.000Z</time>
      </trkpt>
      <trkpt lat="45.83235" lon="4.79992">
        <ele>499</ele>
        <time>2020-06-07T07:51:47.000Z</time>
      </trkpt>
      <trkpt lat="45.83237" lon="4.79991">
        <ele>499</ele>
        <time>2020-06-07T07:51:48.000Z</time>
      </trkpt>
      <trkpt lat="45.83238" lon="4.7999">
        <ele>499</ele>
        <time>2020-06-07T07:51:49.000Z</time>
      </trkpt>
      <trkpt lat="45.8324" lon="4.7999">
        <ele>499</ele>
        <time>2020-06-07T07:51:50.000Z</time>
      </trkpt>
      <trkpt lat="45.83244" lon="4.79989">
        <ele>499</ele>
        <time>2020-06-07T07:51:51.000Z</time>
      </trkpt>
      <trkpt lat="45.83246" lon="4.79987">
        <ele>499.1</ele>
        <time>2020-06-07T07:51:52.000Z</time>
      </trkpt>
      <trkpt lat="45.83248" lon="4.79985">
        <ele>499.1</ele>
        <time>2020-06-07T07:51:53.000Z</time>
      </trkpt>
      <trkpt lat="45.8325" lon="4.79984">
        <ele>499.2</ele>
        <time>2020-06-07T07:51:54.000Z</time>
      </trkpt>
      <trkpt lat="45.83252" lon="4.79983">
        <ele>499.2</ele>
        <time>2020-06-07T07:51:55.000Z</time>
      </trkpt>
      <trkpt lat="45.83253" lon="4.79981">
        <ele>499.3</ele>
        <time>2020-06-07T07:51:56.000Z</time>
      </trkpt>
      <trkpt lat="45.83256" lon="4.7998">
        <ele>499.3</ele>
        <time>2020-06-07T07:51:57.000Z</time>
      </trkpt>
      <trkpt lat="45.83258" lon="4.79979">
        <ele>499.4</ele>
        <time>2020-06-07T07:51:58.000Z</time>
      </trkpt>
      <trkpt lat="45.8326" lon="4.79978">
        <ele>499.5</ele>
        <time>2020-06-07T07:51:59.000Z</time>
      </trkpt>
      <trkpt lat="45.83263" lon="4.79976">
        <ele>499.6</ele>
        <time>2020-06-07T07:52:00.000Z</time>
      </trkpt>
      <trkpt lat="45.83266" lon="4.79975">
        <ele>499.7</ele>
        <time>2020-06-07T07:52:01.000Z</time>
      </trkpt>
      <trkpt lat="45.83268" lon="4.79974">
        <ele>499.8</ele>
        <time>2020-06-07T07:52:02.000Z</time>
      </trkpt>
      <trkpt lat="45.8327" lon="4.79973">
        <ele>499.8</ele>
        <time>2020-06-07T07:52:03.000Z</time>
      </trkpt>
      <trkpt lat="45.83274" lon="4.79973">
        <ele>500</ele>
        <time>2020-06-07T07:52:04.000Z</time>
      </trkpt>
      <trkpt lat="45.83276" lon="4.79974">
        <ele>500</ele>
        <time>2020-06-07T07:52:05.000Z</time>
      </trkpt>
      <trkpt lat="45.83279" lon="4.79975">
        <ele>500.1</ele>
        <time>2020-06-07T07:52:06.000Z</time>
      </trkpt>
      <trkpt lat="45.83281" lon="4.79977">
        <ele>500.1</ele>
        <time>2020-06-07T07:52:07.000Z</time>
      </trkpt>
      <trkpt lat="45.83285" lon="4.79978">
        <ele>500.1</ele>
        <time>2020-06-07T07:52:08.000Z</time>
      </trkpt>
      <trkpt lat="45.83287" lon="4.79979">
        <ele>500.1</ele>
        <time>2020-06-07T07:52:09.000Z</time>
      </trkpt>
      <trkpt lat="45.8329" lon="4.79978">
        <ele>500.1</ele>
        <time>2020-06-07T07:52:10.000Z</time>
      </trkpt>
      <trkpt lat="45.83293" lon="4.79978">
        <ele>500.1</ele>
        <time>2020-06-07T07:52:11.000Z</time>
      </trkpt>
      <trkpt lat="45.83297" lon="4.79978">
        <ele>500.1</ele>
        <time>2020-06-07T07:52:12.000Z</time>
      </trkpt>
      <trkpt lat="45.833" lon="4.79977">
        <ele>500.1</ele>
        <time>2020-06-07T07:52:13.000Z</time>
      </trkpt>
      <trkpt lat="45.83303" lon="4.79976">
        <ele>500</ele>
        <time>2020-06-07T07:52:14.000Z</time>
      </trkpt>
      <trkpt lat="45.83306" lon="4.79975">
        <ele>500</ele>
        <time>2020-06-07T07:52:15.000Z</time>
      </trkpt>
      <trkpt lat="45.83309" lon="4.79975">
        <ele>500</ele>
        <time>2020-06-07T07:52:16.000Z</time>
      </trkpt>
      <trkpt lat="45.83312" lon="4.79974">
        <ele>500</ele>
        <time>2020-06-07T07:52:17.000Z</time>
      </trkpt>
      <trkpt lat="45.83315" lon="4.79973">
        <ele>500</ele>
        <time>2020-06-07T07:52:18.000Z</time>
      </trkpt>
      <trkpt lat="45.83317" lon="4.79972">
        <ele>500</ele>
        <time>2020-06-07T07:52:19.000Z</time>
      </trkpt>
      <trkpt lat="45.83319" lon="4.7997">
        <ele>500</ele>
        <time>2020-06-07T07:52:20.000Z</time>
      </trkpt>
      <trkpt lat="45.83322" lon="4.79969">
        <ele>500</ele>
        <time>2020-06-07T07:52:21.000Z</time>
      </trkpt>
      <trkpt lat="45.83324" lon="4.79968">
        <ele>500</ele>
        <time>2020-06-07T07:52:22.000Z</time>
      </trkpt>
      <trkpt lat="45.83326" lon="4.79967">
        <ele>500.1</ele>
        <time>2020-06-07T07:52:23.000Z</time>
      </trkpt>
      <trkpt lat="45.83329" lon="4.79967">
        <ele>500.1</ele>
        <time>2020-06-07T07:52:24.000Z</time>
      </trkpt>
      <trkpt lat="45.83332" lon="4.79966">
        <ele>500.2</ele>
        <time>2020-06-07T07:52:25.000Z</time>
      </trkpt>
      <trkpt lat="45.83334" lon="4.79965">
        <ele>500.3</ele>
        <time>2020-06-07T07:52:26.000Z</time>
      </trkpt>
      <trkpt lat="45.83337" lon="4.79964">
        <ele>500.4</ele>
        <time>2020-06-07T07:52:27.000Z</time>
      </trkpt>
      <trkpt lat="45.8334" lon="4.79963">
        <ele>500.4</ele>
        <time>2020-06-07T07:52:28.000Z</time>
      </trkpt>
      <trkpt lat="45.83343" lon="4.79962">
        <ele>500.5</ele>
        <time>2020-06-07T07:52:29.000Z</time>
      </trkpt>
      <trkpt lat="45.83346" lon="4.79961">
        <ele>500.6</ele>
        <time>2020-06-07T07:52:30.000Z</time>
      </trkpt>
      <trkpt lat="45.83349" lon="4.7996">
        <ele>500.7</ele>
        <time>2020-06-07T07:52:31.000Z</time>
      </trkpt>
      <trkpt lat="45.83353" lon="4.79959">
        <ele>500.8</ele>
        <time>2020-06-07T07:52:32.000Z</time>
      </trkpt>
      <trkpt lat="45.83356" lon="4.79957">
        <ele>500.9</ele>
        <time>2020-06-07T07:52:33.000Z</time>
      </trkpt>
      <trkpt lat="45.8336" lon="4.79956">
        <ele>501.1</ele>
        <time>2020-06-07T07:52:34.000Z</time>
      </trkpt>
      <trkpt lat="45.83363" lon="4.79954">
        <ele>501.2</ele>
        <time>2020-06-07T07:52:35.000Z</time>
      </trkpt>
      <trkpt lat="45.83366" lon="4.79953">
        <ele>501.2</ele>
        <time>2020-06-07T07:52:36.000Z</time>
      </trkpt>
      <trkpt lat="45.8337" lon="4.79952">
        <ele>501.3</ele>
        <time>2020-06-07T07:52:37.000Z</time>
      </trkpt>
      <trkpt lat="45.83373" lon="4.79951">
        <ele>501.4</ele>
        <time>2020-06-07T07:52:38.000Z</time>
      </trkpt>
      <trkpt lat="45.83377" lon="4.7995">
        <ele>501.4</ele>
        <time>2020-06-07T07:52:39.000Z</time>
      </trkpt>
      <trkpt lat="45.8338" lon="4.79949">
        <ele>501.5</ele>
        <time>2020-06-07T07:52:40.000Z</time>
      </trkpt>
      <trkpt lat="45.83385" lon="4.79947">
        <ele>501.6</ele>
        <time>2020-06-07T07:52:41.000Z</time>
      </trkpt>
      <trkpt lat="45.83389" lon="4.79946">
        <ele>501.7</ele>
        <time>2020-06-07T07:52:42.000Z</time>
      </trkpt>
      <trkpt lat="45.83394" lon="4.79944">
        <ele>501.9</ele>
        <time>2020-06-07T07:52:43.000Z</time>
      </trkpt>
      <trkpt lat="45.83398" lon="4.79943">
        <ele>502</ele>
        <time>2020-06-07T07:52:44.000Z</time>
      </trkpt>
      <trkpt lat="45.83401" lon="4.79942">
        <ele>502.1</ele>
        <time>2020-06-07T07:52:45.000Z</time>
      </trkpt>
      <trkpt lat="45.83404" lon="4.79941">
        <ele>502.2</ele>
        <time>2020-06-07T07:52:46.000Z</time>
      </trkpt>
      <trkpt lat="45.83406" lon="4.79939">
        <ele>502.3</ele>
        <time>2020-06-07T07:52:47.000Z</time>
      </trkpt>
      <trkpt lat="45.83409" lon="4.79938">
        <ele>502.4</ele>
        <time>2020-06-07T07:52:48.000Z</time>
      </trkpt>
      <trkpt lat="45.83411" lon="4.79937">
        <ele>502.5</ele>
        <time>2020-06-07T07:52:49.000Z</time>
      </trkpt>
      <trkpt lat="45.83414" lon="4.79936">
        <ele>502.5</ele>
        <time>2020-06-07T07:52:50.000Z</time>
      </trkpt>
      <trkpt lat="45.83417" lon="4.79935">
        <ele>502.6</ele>
        <time>2020-06-07T07:52:51.000Z</time>
      </trkpt>
      <trkpt lat="45.83419" lon="4.79933">
        <ele>502.7</ele>
        <time>2020-06-07T07:52:52.000Z</time>
      </trkpt>
      <trkpt lat="45.83422" lon="4.79933">
        <ele>502.8</ele>
        <time>2020-06-07T07:52:53.000Z</time>
      </trkpt>
      <trkpt lat="45.83425" lon="4.79932">
        <ele>502.9</ele>
        <time>2020-06-07T07:52:54.000Z</time>
      </trkpt>
      <trkpt lat="45.83428" lon="4.79931">
        <ele>503.1</ele>
        <time>2020-06-07T07:52:55.000Z</time>
      </trkpt>
      <trkpt lat="45.83432" lon="4.7993">
        <ele>503.3</ele>
        <time>2020-06-07T07:52:56.000Z</time>
      </trkpt>
      <trkpt lat="45.83435" lon="4.79928">
        <ele>503.5</ele>
        <time>2020-06-07T07:52:57.000Z</time>
      </trkpt>
      <trkpt lat="45.83438" lon="4.79927">
        <ele>503.7</ele>
        <time>2020-06-07T07:52:58.000Z</time>
      </trkpt>
      <trkpt lat="45.83441" lon="4.79926">
        <ele>503.8</ele>
        <time>2020-06-07T07:52:59.000Z</time>
      </trkpt>
      <trkpt lat="45.83443" lon="4.79926">
        <ele>504</ele>
        <time>2020-06-07T07:53:00.000Z</time>
      </trkpt>
      <trkpt lat="45.83446" lon="4.79925">
        <ele>504.1</ele>
        <time>2020-06-07T07:53:01.000Z</time>
      </trkpt>
      <trkpt lat="45.83448" lon="4.79924">
        <ele>504.3</ele>
        <time>2020-06-07T07:53:02.000Z</time>
      </trkpt>
      <trkpt lat="45.83451" lon="4.79924">
        <ele>504.4</ele>
        <time>2020-06-07T07:53:03.000Z</time>
      </trkpt>
      <trkpt lat="45.83453" lon="4.79923">
        <ele>504.6</ele>
        <time>2020-06-07T07:53:04.000Z</time>
      </trkpt>
      <trkpt lat="45.83457" lon="4.79922">
        <ele>504.8</ele>
        <time>2020-06-07T07:53:05.000Z</time>
      </trkpt>
      <trkpt lat="45.83461" lon="4.79921">
        <ele>505</ele>
        <time>2020-06-07T07:53:06.000Z</time>
      </trkpt>
      <trkpt lat="45.83464" lon="4.7992">
        <ele>505.1</ele>
        <time>2020-06-07T07:53:07.000Z</time>
      </trkpt>
      <trkpt lat="45.83467" lon="4.79919">
        <ele>505.2</ele>
        <time>2020-06-07T07:53:08.000Z</time>
      </trkpt>
      <trkpt lat="45.83469" lon="4.79917">
        <ele>505.3</ele>
        <time>2020-06-07T07:53:09.000Z</time>
      </trkpt>
      <trkpt lat="45.83472" lon="4.79916">
        <ele>505.4</ele>
        <time>2020-06-07T07:53:10.000Z</time>
      </trkpt>
      <trkpt lat="45.83474" lon="4.79916">
        <ele>505.5</ele>
        <time>2020-06-07T07:53:11.000Z</time>
      </trkpt>
      <trkpt lat="45.83477" lon="4.79915">
        <ele>505.6</ele>
        <time>2020-06-07T07:53:12.000Z</time>
      </trkpt>
      <trkpt lat="45.83479" lon="4.79914">
        <ele>505.7</ele>
        <time>2020-06-07T07:53:13.000Z</time>
      </trkpt>
      <trkpt lat="45.83482" lon="4.79913">
        <ele>505.8</ele>
        <time>2020-06-07T07:53:14.000Z</time>
      </trkpt>
      <trkpt lat="45.83485" lon="4.79913">
        <ele>506</ele>
        <time>2020-06-07T07:53:15.000Z</time>
      </trkpt>
      <trkpt lat="45.83488" lon="4.79912">
        <ele>506</ele>
        <time>2020-06-07T07:53:16.000Z</time>
      </trkpt>
      <trkpt lat="45.8349" lon="4.79911">
        <ele>506</ele>
        <time>2020-06-07T07:53:17.000Z</time>
      </trkpt>
      <trkpt lat="45.83493" lon="4.79911">
        <ele>506.1</ele>
        <time>2020-06-07T07:53:18.000Z</time>
      </trkpt>
      <trkpt lat="45.83495" lon="4.79912">
        <ele>506.1</ele>
        <time>2020-06-07T07:53:19.000Z</time>
      </trkpt>
      <trkpt lat="45.83498" lon="4.79912">
        <ele>506.1</ele>
        <time>2020-06-07T07:53:20.000Z</time>
      </trkpt>
      <trkpt lat="45.835" lon="4.79911">
        <ele>506.2</ele>
        <time>2020-06-07T07:53:21.000Z</time>
      </trkpt>
      <trkpt lat="45.83502" lon="4.79911">
        <ele>506.2</ele>
        <time>2020-06-07T07:53:22.000Z</time>
      </trkpt>
      <trkpt lat="45.83504" lon="4.79911">
        <ele>506.2</ele>
        <time>2020-06-07T07:53:23.000Z</time>
      </trkpt>
      <trkpt lat="45.83506" lon="4.79911">
        <ele>506.2</ele>
        <time>2020-06-07T07:53:24.000Z</time>
      </trkpt>
      <trkpt lat="45.83509" lon="4.7991">
        <ele>506.2</ele>
        <time>2020-06-07T07:53:25.000Z</time>
      </trkpt>
      <trkpt lat="45.83511" lon="4.79909">
        <ele>506.2</ele>
        <time>2020-06-07T07:53:26.000Z</time>
      </trkpt>
      <trkpt lat="45.83513" lon="4.79908">
        <ele>506.2</ele>
        <time>2020-06-07T07:53:27.000Z</time>
      </trkpt>
      <trkpt lat="45.83515" lon="4.79907">
        <ele>506.3</ele>
        <time>2020-06-07T07:53:28.000Z</time>
      </trkpt>
      <trkpt lat="45.83517" lon="4.79907">
        <ele>506.5</ele>
        <time>2020-06-07T07:53:29.000Z</time>
      </trkpt>
      <trkpt lat="45.83518" lon="4.79907">
        <ele>506.6</ele>
        <time>2020-06-07T07:53:30.000Z</time>
      </trkpt>
      <trkpt lat="45.8352" lon="4.79908">
        <ele>506.7</ele>
        <time>2020-06-07T07:53:31.000Z</time>
      </trkpt>
      <trkpt lat="45.83522" lon="4.7991">
        <ele>506.8</ele>
        <time>2020-06-07T07:53:32.000Z</time>
      </trkpt>
      <trkpt lat="45.83524" lon="4.7991">
        <ele>507</ele>
        <time>2020-06-07T07:53:33.000Z</time>
      </trkpt>
      <trkpt lat="45.83527" lon="4.7991">
        <ele>507.2</ele>
        <time>2020-06-07T07:53:34.000Z</time>
      </trkpt>
      <trkpt lat="45.83528" lon="4.79909">
        <ele>507.3</ele>
        <time>2020-06-07T07:53:35.000Z</time>
      </trkpt>
      <trkpt lat="45.8353" lon="4.79909">
        <ele>507.4</ele>
        <time>2020-06-07T07:53:36.000Z</time>
      </trkpt>
      <trkpt lat="45.83533" lon="4.79908">
        <ele>507.6</ele>
        <time>2020-06-07T07:53:37.000Z</time>
      </trkpt>
      <trkpt lat="45.83536" lon="4.79907">
        <ele>507.8</ele>
        <time>2020-06-07T07:53:38.000Z</time>
      </trkpt>
      <trkpt lat="45.83538" lon="4.79908">
        <ele>507.9</ele>
        <time>2020-06-07T07:53:39.000Z</time>
      </trkpt>
      <trkpt lat="45.8354" lon="4.79907">
        <ele>508</ele>
        <time>2020-06-07T07:53:40.000Z</time>
      </trkpt>
      <trkpt lat="45.83542" lon="4.79906">
        <ele>508.1</ele>
        <time>2020-06-07T07:53:41.000Z</time>
      </trkpt>
      <trkpt lat="45.83544" lon="4.79905">
        <ele>508.2</ele>
        <time>2020-06-07T07:53:42.000Z</time>
      </trkpt>
      <trkpt lat="45.83546" lon="4.79904">
        <ele>508.3</ele>
        <time>2020-06-07T07:53:43.000Z</time>
      </trkpt>
      <trkpt lat="45.83548" lon="4.79902">
        <ele>508.4</ele>
        <time>2020-06-07T07:53:44.000Z</time>
      </trkpt>
      <trkpt lat="45.8355" lon="4.79901">
        <ele>508.5</ele>
        <time>2020-06-07T07:53:45.000Z</time>
      </trkpt>
      <trkpt lat="45.83552" lon="4.79901">
        <ele>508.5</ele>
        <time>2020-06-07T07:53:46.000Z</time>
      </trkpt>
      <trkpt lat="45.83553" lon="4.79901">
        <ele>508.6</ele>
        <time>2020-06-07T07:53:47.000Z</time>
      </trkpt>
      <trkpt lat="45.83554" lon="4.79901">
        <ele>508.6</ele>
        <time>2020-06-07T07:53:48.000Z</time>
      </trkpt>
      <trkpt lat="45.83555" lon="4.79902">
        <ele>508.7</ele>
        <time>2020-06-07T07:53:49.000Z</time>
      </trkpt>
      <trkpt lat="45.83557" lon="4.79902">
        <ele>508.7</ele>
        <time>2020-06-07T07:53:50.000Z</time>
      </trkpt>
      <trkpt lat="45.83558" lon="4.79902">
        <ele>508.8</ele>
        <time>2020-06-07T07:53:51.000Z</time>
      </trkpt>
      <trkpt lat="45.8356" lon="4.79903">
        <ele>508.9</ele>
        <time>2020-06-07T07:53:52.000Z</time>
      </trkpt>
      <trkpt lat="45.83562" lon="4.79904">
        <ele>509</ele>
        <time>2020-06-07T07:53:53.000Z</time>
      </trkpt>
      <trkpt lat="45.83564" lon="4.79905">
        <ele>509.1</ele>
        <time>2020-06-07T07:53:54.000Z</time>
      </trkpt>
      <trkpt lat="45.83567" lon="4.79905">
        <ele>509.2</ele>
        <time>2020-06-07T07:53:55.000Z</time>
      </trkpt>
      <trkpt lat="45.83569" lon="4.79906">
        <ele>509.4</ele>
        <time>2020-06-07T07:53:56.000Z</time>
      </trkpt>
      <trkpt lat="45.83571" lon="4.79905">
        <ele>509.5</ele>
        <time>2020-06-07T07:53:57.000Z</time>
      </trkpt>
      <trkpt lat="45.83573" lon="4.79904">
        <ele>509.6</ele>
        <time>2020-06-07T07:53:58.000Z</time>
      </trkpt>
      <trkpt lat="45.83575" lon="4.79904">
        <ele>509.8</ele>
        <time>2020-06-07T07:53:59.000Z</time>
      </trkpt>
      <trkpt lat="45.83578" lon="4.79903">
        <ele>510</ele>
        <time>2020-06-07T07:54:00.000Z</time>
      </trkpt>
      <trkpt lat="45.8358" lon="4.79904">
        <ele>510.1</ele>
        <time>2020-06-07T07:54:01.000Z</time>
      </trkpt>
      <trkpt lat="45.83583" lon="4.79904">
        <ele>510.3</ele>
        <time>2020-06-07T07:54:02.000Z</time>
      </trkpt>
      <trkpt lat="45.83585" lon="4.79904">
        <ele>510.4</ele>
        <time>2020-06-07T07:54:03.000Z</time>
      </trkpt>
      <trkpt lat="45.83587" lon="4.79905">
        <ele>510.5</ele>
        <time>2020-06-07T07:54:04.000Z</time>
      </trkpt>
      <trkpt lat="45.83589" lon="4.79906">
        <ele>510.6</ele>
        <time>2020-06-07T07:54:05.000Z</time>
      </trkpt>
      <trkpt lat="45.83591" lon="4.79906">
        <ele>510.7</ele>
        <time>2020-06-07T07:54:06.000Z</time>
      </trkpt>
      <trkpt lat="45.83593" lon="4.79906">
        <ele>510.8</ele>
        <time>2020-06-07T07:54:07.000Z</time>
      </trkpt>
      <trkpt lat="45.83595" lon="4.79905">
        <ele>510.8</ele>
        <time>2020-06-07T07:54:08.000Z</time>
      </trkpt>
      <trkpt lat="45.83596" lon="4.79904">
        <ele>510.9</ele>
        <time>2020-06-07T07:54:09.000Z</time>
      </trkpt>
      <trkpt lat="45.83598" lon="4.79904">
        <ele>511</ele>
        <time>2020-06-07T07:54:10.000Z</time>
      </trkpt>
      <trkpt lat="45.836" lon="4.79904">
        <ele>511</ele>
        <time>2020-06-07T07:54:11.000Z</time>
      </trkpt>
      <trkpt lat="45.83601" lon="4.79904">
        <ele>511.1</ele>
        <time>2020-06-07T07:54:12.000Z</time>
      </trkpt>
      <trkpt lat="45.83603" lon="4.79904">
        <ele>511.1</ele>
        <time>2020-06-07T07:54:13.000Z</time>
      </trkpt>
      <trkpt lat="45.83605" lon="4.79904">
        <ele>511.2</ele>
        <time>2020-06-07T07:54:14.000Z</time>
      </trkpt>
      <trkpt lat="45.83606" lon="4.79903">
        <ele>511.2</ele>
        <time>2020-06-07T07:54:15.000Z</time>
      </trkpt>
      <trkpt lat="45.83608" lon="4.79903">
        <ele>511.3</ele>
        <time>2020-06-07T07:54:16.000Z</time>
      </trkpt>
      <trkpt lat="45.8361" lon="4.79902">
        <ele>511.3</ele>
        <time>2020-06-07T07:54:17.000Z</time>
      </trkpt>
      <trkpt lat="45.83612" lon="4.79901">
        <ele>511.4</ele>
        <time>2020-06-07T07:54:18.000Z</time>
      </trkpt>
      <trkpt lat="45.83614" lon="4.79901">
        <ele>511.4</ele>
        <time>2020-06-07T07:54:19.000Z</time>
      </trkpt>
      <trkpt lat="45.83616" lon="4.799">
        <ele>511.4</ele>
        <time>2020-06-07T07:54:20.000Z</time>
      </trkpt>
      <trkpt lat="45.83618" lon="4.799">
        <ele>511.5</ele>
        <time>2020-06-07T07:54:21.000Z</time>
      </trkpt>
      <trkpt lat="45.8362" lon="4.799">
        <ele>511.5</ele>
        <time>2020-06-07T07:54:22.000Z</time>
      </trkpt>
      <trkpt lat="45.83621" lon="4.799">
        <ele>511.6</ele>
        <time>2020-06-07T07:54:23.000Z</time>
      </trkpt>
      <trkpt lat="45.83623" lon="4.79899">
        <ele>511.6</ele>
        <time>2020-06-07T07:54:24.000Z</time>
      </trkpt>
      <trkpt lat="45.83624" lon="4.79898">
        <ele>511.7</ele>
        <time>2020-06-07T07:54:25.000Z</time>
      </trkpt>
      <trkpt lat="45.83625" lon="4.79898">
        <ele>511.7</ele>
        <time>2020-06-07T07:54:26.000Z</time>
      </trkpt>
      <trkpt lat="45.83626" lon="4.79898">
        <ele>511.8</ele>
        <time>2020-06-07T07:54:27.000Z</time>
      </trkpt>
      <trkpt lat="45.83628" lon="4.79899">
        <ele>511.8</ele>
        <time>2020-06-07T07:54:28.000Z</time>
      </trkpt>
      <trkpt lat="45.83628" lon="4.799">
        <ele>511.9</ele>
        <time>2020-06-07T07:54:29.000Z</time>
      </trkpt>
      <trkpt lat="45.8363" lon="4.799">
        <ele>511.9</ele>
        <time>2020-06-07T07:54:30.000Z</time>
      </trkpt>
      <trkpt lat="45.83631" lon="4.799">
        <ele>512</ele>
        <time>2020-06-07T07:54:31.000Z</time>
      </trkpt>
      <trkpt lat="45.83632" lon="4.799">
        <ele>512.1</ele>
        <time>2020-06-07T07:54:32.000Z</time>
      </trkpt>
      <trkpt lat="45.83634" lon="4.799">
        <ele>512.2</ele>
        <time>2020-06-07T07:54:33.000Z</time>
      </trkpt>
      <trkpt lat="45.83635" lon="4.799">
        <ele>512.3</ele>
        <time>2020-06-07T07:54:34.000Z</time>
      </trkpt>
      <trkpt lat="45.83637" lon="4.799">
        <ele>512.3</ele>
        <time>2020-06-07T07:54:35.000Z</time>
      </trkpt>
      <trkpt lat="45.83638" lon="4.799">
        <ele>512.5</ele>
        <time>2020-06-07T07:54:36.000Z</time>
      </trkpt>
      <trkpt lat="45.8364" lon="4.799">
        <ele>512.6</ele>
        <time>2020-06-07T07:54:37.000Z</time>
      </trkpt>
      <trkpt lat="45.83643" lon="4.799">
        <ele>512.8</ele>
        <time>2020-06-07T07:54:38.000Z</time>
      </trkpt>
      <trkpt lat="45.83645" lon="4.799">
        <ele>512.9</ele>
        <time>2020-06-07T07:54:39.000Z</time>
      </trkpt>
      <trkpt lat="45.83647" lon="4.799">
        <ele>513.1</ele>
        <time>2020-06-07T07:54:40.000Z</time>
      </trkpt>
      <trkpt lat="45.83649" lon="4.799">
        <ele>513.2</ele>
        <time>2020-06-07T07:54:41.000Z</time>
      </trkpt>
      <trkpt lat="45.8365" lon="4.799">
        <ele>513.4</ele>
        <time>2020-06-07T07:54:42.000Z</time>
      </trkpt>
      <trkpt lat="45.83652" lon="4.79902">
        <ele>513.5</ele>
        <time>2020-06-07T07:54:43.000Z</time>
      </trkpt>
      <trkpt lat="45.83653" lon="4.79902">
        <ele>513.6</ele>
        <time>2020-06-07T07:54:44.000Z</time>
      </trkpt>
      <trkpt lat="45.83654" lon="4.79903">
        <ele>513.7</ele>
        <time>2020-06-07T07:54:45.000Z</time>
      </trkpt>
      <trkpt lat="45.83655" lon="4.79904">
        <ele>513.8</ele>
        <time>2020-06-07T07:54:46.000Z</time>
      </trkpt>
      <trkpt lat="45.83708" lon="4.79918">
        <ele>519.1</ele>
        <time>2020-06-07T07:56:18.000Z</time>
      </trkpt>
      <trkpt lat="45.8371" lon="4.79918">
        <ele>519.2</ele>
        <time>2020-06-07T07:56:19.000Z</time>
      </trkpt>
      <trkpt lat="45.83712" lon="4.79918">
        <ele>519.3</ele>
        <time>2020-06-07T07:56:20.000Z</time>
      </trkpt>
      <trkpt lat="45.83714" lon="4.79918">
        <ele>519.4</ele>
        <time>2020-06-07T07:56:21.000Z</time>
      </trkpt>
      <trkpt lat="45.83716" lon="4.79918">
        <ele>519.6</ele>
        <time>2020-06-07T07:56:22.000Z</time>
      </trkpt>
      <trkpt lat="45.83718" lon="4.79918">
        <ele>519.7</ele>
        <time>2020-06-07T07:56:23.000Z</time>
      </trkpt>
      <trkpt lat="45.8372" lon="4.79918">
        <ele>519.8</ele>
        <time>2020-06-07T07:56:24.000Z</time>
      </trkpt>
      <trkpt lat="45.83722" lon="4.79918">
        <ele>520</ele>
        <time>2020-06-07T07:56:25.000Z</time>
      </trkpt>
      <trkpt lat="45.83724" lon="4.79918">
        <ele>520.1</ele>
        <time>2020-06-07T07:56:26.000Z</time>
      </trkpt>
      <trkpt lat="45.83726" lon="4.79918">
        <ele>520.2</ele>
        <time>2020-06-07T07:56:27.000Z</time>
      </trkpt>
      <trkpt lat="45.83728" lon="4.79918">
        <ele>520.3</ele>
        <time>2020-06-07T07:56:28.000Z</time>
      </trkpt>
      <trkpt lat="45.8373" lon="4.79918">
        <ele>520.5</ele>
        <time>2020-06-07T07:56:29.000Z</time>
      </trkpt>
      <trkpt lat="45.83731" lon="4.79919">
        <ele>520.6</ele>
        <time>2020-06-07T07:56:30.000Z</time>
      </trkpt>
      <trkpt lat="45.83733" lon="4.79918">
        <ele>520.7</ele>
        <time>2020-06-07T07:56:31.000Z</time>
      </trkpt>
      <trkpt lat="45.83735" lon="4.79918">
        <ele>520.8</ele>
        <time>2020-06-07T07:56:32.000Z</time>
      </trkpt>
      <trkpt lat="45.83736" lon="4.79918">
        <ele>520.9</ele>
        <time>2020-06-07T07:56:33.000Z</time>
      </trkpt>
      <trkpt lat="45.83738" lon="4.79918">
        <ele>521</ele>
        <time>2020-06-07T07:56:34.000Z</time>
      </trkpt>
      <trkpt lat="45.8374" lon="4.79918">
        <ele>521.1</ele>
        <time>2020-06-07T07:56:35.000Z</time>
      </trkpt>
      <trkpt lat="45.83742" lon="4.79918">
        <ele>521.3</ele>
        <time>2020-06-07T07:56:36.000Z</time>
      </trkpt>
      <trkpt lat="45.83744" lon="4.79918">
        <ele>521.4</ele>
        <time>2020-06-07T07:56:37.000Z</time>
      </trkpt>
      <trkpt lat="45.83747" lon="4.79918">
        <ele>521.6</ele>
        <time>2020-06-07T07:56:38.000Z</time>
      </trkpt>
      <trkpt lat="45.8375" lon="4.79918">
        <ele>521.8</ele>
        <time>2020-06-07T07:56:39.000Z</time>
      </trkpt>
      <trkpt lat="45.83752" lon="4.79918">
        <ele>521.9</ele>
        <time>2020-06-07T07:56:40.000Z</time>
      </trkpt>
      <trkpt lat="45.83755" lon="4.79918">
        <ele>522.1</ele>
        <time>2020-06-07T07:56:41.000Z</time>
      </trkpt>
      <trkpt lat="45.83757" lon="4.79918">
        <ele>522.3</ele>
        <time>2020-06-07T07:56:42.000Z</time>
      </trkpt>
      <trkpt lat="45.8376" lon="4.79918">
        <ele>522.5</ele>
        <time>2020-06-07T07:56:43.000Z</time>
      </trkpt>
      <trkpt lat="45.83762" lon="4.79918">
        <ele>522.6</ele>
        <time>2020-06-07T07:56:44.000Z</time>
      </trkpt>
      <trkpt lat="45.83765" lon="4.79919">
        <ele>523.3</ele>
        <time>2020-06-07T07:56:45.000Z</time>
      </trkpt>
      <trkpt lat="45.83767" lon="4.79919">
        <ele>523.4</ele>
        <time>2020-06-07T07:56:46.000Z</time>
      </trkpt>
      <trkpt lat="45.8377" lon="4.79918">
        <ele>523.4</ele>
        <time>2020-06-07T07:56:47.000Z</time>
      </trkpt>
      <trkpt lat="45.83772" lon="4.79917">
        <ele>523.4</ele>
        <time>2020-06-07T07:56:48.000Z</time>
      </trkpt>
      <trkpt lat="45.83775" lon="4.79917">
        <ele>523.4</ele>
        <time>2020-06-07T07:56:49.000Z</time>
      </trkpt>
      <trkpt lat="45.83777" lon="4.79917">
        <ele>523.7</ele>
        <time>2020-06-07T07:56:50.000Z</time>
      </trkpt>
      <trkpt lat="45.8378" lon="4.79916">
        <ele>523.9</ele>
        <time>2020-06-07T07:56:51.000Z</time>
      </trkpt>
      <trkpt lat="45.83782" lon="4.79916">
        <ele>524.1</ele>
        <time>2020-06-07T07:56:52.000Z</time>
      </trkpt>
      <trkpt lat="45.83785" lon="4.79915">
        <ele>524.3</ele>
        <time>2020-06-07T07:56:53.000Z</time>
      </trkpt>
      <trkpt lat="45.83787" lon="4.79915">
        <ele>524.5</ele>
        <time>2020-06-07T07:56:54.000Z</time>
      </trkpt>
      <trkpt lat="45.8379" lon="4.79914">
        <ele>524.7</ele>
        <time>2020-06-07T07:56:55.000Z</time>
      </trkpt>
      <trkpt lat="45.83792" lon="4.79913">
        <ele>524.9</ele>
        <time>2020-06-07T07:56:56.000Z</time>
      </trkpt>
      <trkpt lat="45.83795" lon="4.79913">
        <ele>525.2</ele>
        <time>2020-06-07T07:56:57.000Z</time>
      </trkpt>
      <trkpt lat="45.83797" lon="4.79912">
        <ele>525.4</ele>
        <time>2020-06-07T07:56:58.000Z</time>
      </trkpt>
      <trkpt lat="45.838" lon="4.79911">
        <ele>525.7</ele>
        <time>2020-06-07T07:56:59.000Z</time>
      </trkpt>
      <trkpt lat="45.83802" lon="4.7991">
        <ele>525.9</ele>
        <time>2020-06-07T07:57:00.000Z</time>
      </trkpt>
      <trkpt lat="45.83805" lon="4.79909">
        <ele>526.2</ele>
        <time>2020-06-07T07:57:01.000Z</time>
      </trkpt>
      <trkpt lat="45.83807" lon="4.79908">
        <ele>526.4</ele>
        <time>2020-06-07T07:57:02.000Z</time>
      </trkpt>
      <trkpt lat="45.83809" lon="4.79907">
        <ele>526.7</ele>
        <time>2020-06-07T07:57:03.000Z</time>
      </trkpt>
      <trkpt lat="45.83812" lon="4.79906">
        <ele>526.9</ele>
        <time>2020-06-07T07:57:04.000Z</time>
      </trkpt>
      <trkpt lat="45.83813" lon="4.79906">
        <ele>527.2</ele>
        <time>2020-06-07T07:57:05.000Z</time>
      </trkpt>
      <trkpt lat="45.83815" lon="4.79905">
        <ele>527.4</ele>
        <time>2020-06-07T07:57:06.000Z</time>
      </trkpt>
      <trkpt lat="45.83817" lon="4.79904">
        <ele>527.6</ele>
        <time>2020-06-07T07:57:07.000Z</time>
      </trkpt>
      <trkpt lat="45.83819" lon="4.79903">
        <ele>527.8</ele>
        <time>2020-06-07T07:57:08.000Z</time>
      </trkpt>
      <trkpt lat="45.83821" lon="4.79903">
        <ele>528</ele>
        <time>2020-06-07T07:57:09.000Z</time>
      </trkpt>
      <trkpt lat="45.83823" lon="4.79902">
        <ele>528.3</ele>
        <time>2020-06-07T07:57:10.000Z</time>
      </trkpt>
      <trkpt lat="45.83825" lon="4.79902">
        <ele>528.5</ele>
        <time>2020-06-07T07:57:11.000Z</time>
      </trkpt>
      <trkpt lat="45.83827" lon="4.79902">
        <ele>528.7</ele>
        <time>2020-06-07T07:57:12.000Z</time>
      </trkpt>
      <trkpt lat="45.83829" lon="4.79901">
        <ele>529</ele>
        <time>2020-06-07T07:57:13.000Z</time>
      </trkpt>
      <trkpt lat="45.83831" lon="4.799">
        <ele>529.2</ele>
        <time>2020-06-07T07:57:14.000Z</time>
      </trkpt>
      <trkpt lat="45.83834" lon="4.799">
        <ele>529.5</ele>
        <time>2020-06-07T07:57:15.000Z</time>
      </trkpt>
      <trkpt lat="45.83836" lon="4.799">
        <ele>529.7</ele>
        <time>2020-06-07T07:57:16.000Z</time>
      </trkpt>
      <trkpt lat="45.83838" lon="4.79899">
        <ele>530</ele>
        <time>2020-06-07T07:57:17.000Z</time>
      </trkpt>
      <trkpt lat="45.83841" lon="4.79899">
        <ele>530.3</ele>
        <time>2020-06-07T07:57:18.000Z</time>
      </trkpt>
      <trkpt lat="45.83844" lon="4.79899">
        <ele>530.6</ele>
        <time>2020-06-07T07:57:19.000Z</time>
      </trkpt>
      <trkpt lat="45.83846" lon="4.79898">
        <ele>530.9</ele>
        <time>2020-06-07T07:57:20.000Z</time>
      </trkpt>
      <trkpt lat="45.83849" lon="4.79897">
        <ele>531.2</ele>
        <time>2020-06-07T07:57:21.000Z</time>
      </trkpt>
      <trkpt lat="45.83852" lon="4.79897">
        <ele>531.5</ele>
        <time>2020-06-07T07:57:22.000Z</time>
      </trkpt>
      <trkpt lat="45.83854" lon="4.79897">
        <ele>531.8</ele>
        <time>2020-06-07T07:57:23.000Z</time>
      </trkpt>
      <trkpt lat="45.83856" lon="4.79896">
        <ele>532</ele>
        <time>2020-06-07T07:57:24.000Z</time>
      </trkpt>
      <trkpt lat="45.83858" lon="4.79896">
        <ele>532.2</ele>
        <time>2020-06-07T07:57:25.000Z</time>
      </trkpt>
      <trkpt lat="45.8386" lon="4.79895">
        <ele>532.4</ele>
        <time>2020-06-07T07:57:26.000Z</time>
      </trkpt>
      <trkpt lat="45.83862" lon="4.79895">
        <ele>532.7</ele>
        <time>2020-06-07T07:57:27.000Z</time>
      </trkpt>
      <trkpt lat="45.83864" lon="4.79895">
        <ele>532.9</ele>
        <time>2020-06-07T07:57:28.000Z</time>
      </trkpt>
      <trkpt lat="45.83866" lon="4.79895">
        <ele>533.2</ele>
        <time>2020-06-07T07:57:29.000Z</time>
      </trkpt>
      <trkpt lat="45.83869" lon="4.79895">
        <ele>533.5</ele>
        <time>2020-06-07T07:57:30.000Z</time>
      </trkpt>
      <trkpt lat="45.83871" lon="4.79895">
        <ele>533.8</ele>
        <time>2020-06-07T07:57:31.000Z</time>
      </trkpt>
      <trkpt lat="45.83873" lon="4.79895">
        <ele>534</ele>
        <time>2020-06-07T07:57:32.000Z</time>
      </trkpt>
      <trkpt lat="45.83875" lon="4.79896">
        <ele>534.3</ele>
        <time>2020-06-07T07:57:33.000Z</time>
      </trkpt>
      <trkpt lat="45.83877" lon="4.79896">
        <ele>534.5</ele>
        <time>2020-06-07T07:57:34.000Z</time>
      </trkpt>
      <trkpt lat="45.83879" lon="4.79897">
        <ele>534.7</ele>
        <time>2020-06-07T07:57:35.000Z</time>
      </trkpt>
      <trkpt lat="45.8388" lon="4.79898">
        <ele>534.9</ele>
        <time>2020-06-07T07:57:36.000Z</time>
      </trkpt>
      <trkpt lat="45.83882" lon="4.799">
        <ele>535.2</ele>
        <time>2020-06-07T07:57:37.000Z</time>
      </trkpt>
      <trkpt lat="45.83884" lon="4.79901">
        <ele>535.3</ele>
        <time>2020-06-07T07:57:38.000Z</time>
      </trkpt>
      <trkpt lat="45.83886" lon="4.79903">
        <ele>535.3</ele>
        <time>2020-06-07T07:57:39.000Z</time>
      </trkpt>
      <trkpt lat="45.83888" lon="4.79906">
        <ele>535.2</ele>
        <time>2020-06-07T07:57:40.000Z</time>
      </trkpt>
      <trkpt lat="45.8389" lon="4.79908">
        <ele>535.2</ele>
        <time>2020-06-07T07:57:41.000Z</time>
      </trkpt>
      <trkpt lat="45.83892" lon="4.79911">
        <ele>535.2</ele>
        <time>2020-06-07T07:57:42.000Z</time>
      </trkpt>
      <trkpt lat="45.83894" lon="4.79915">
        <ele>535.2</ele>
        <time>2020-06-07T07:57:43.000Z</time>
      </trkpt>
      <trkpt lat="45.83896" lon="4.7992">
        <ele>535.2</ele>
        <time>2020-06-07T07:57:44.000Z</time>
      </trkpt>
      <trkpt lat="45.83897" lon="4.79924">
        <ele>535.2</ele>
        <time>2020-06-07T07:57:45.000Z</time>
      </trkpt>
      <trkpt lat="45.83899" lon="4.79928">
        <ele>535.2</ele>
        <time>2020-06-07T07:57:46.000Z</time>
      </trkpt>
      <trkpt lat="45.83901" lon="4.79932">
        <ele>535.2</ele>
        <time>2020-06-07T07:57:47.000Z</time>
      </trkpt>
      <trkpt lat="45.83903" lon="4.79935">
        <ele>535.2</ele>
        <time>2020-06-07T07:57:48.000Z</time>
      </trkpt>
      <trkpt lat="45.83906" lon="4.79939">
        <ele>535.3</ele>
        <time>2020-06-07T07:57:49.000Z</time>
      </trkpt>
      <trkpt lat="45.83909" lon="4.79942">
        <ele>535.3</ele>
        <time>2020-06-07T07:57:50.000Z</time>
      </trkpt>
      <trkpt lat="45.83912" lon="4.79945">
        <ele>535.4</ele>
        <time>2020-06-07T07:57:51.000Z</time>
      </trkpt>
      <trkpt lat="45.83915" lon="4.79948">
        <ele>535.4</ele>
        <time>2020-06-07T07:57:52.000Z</time>
      </trkpt>
      <trkpt lat="45.83918" lon="4.79951">
        <ele>535.5</ele>
        <time>2020-06-07T07:57:53.000Z</time>
      </trkpt>
      <trkpt lat="45.8392" lon="4.79954">
        <ele>535.6</ele>
        <time>2020-06-07T07:57:54.000Z</time>
      </trkpt>
      <trkpt lat="45.83923" lon="4.79956">
        <ele>535.7</ele>
        <time>2020-06-07T07:57:55.000Z</time>
      </trkpt>
      <trkpt lat="45.83925" lon="4.79959">
        <ele>535.7</ele>
        <time>2020-06-07T07:57:56.000Z</time>
      </trkpt>
      <trkpt lat="45.83927" lon="4.79961">
        <ele>535.8</ele>
        <time>2020-06-07T07:57:57.000Z</time>
      </trkpt>
      <trkpt lat="45.83929" lon="4.79964">
        <ele>535.9</ele>
        <time>2020-06-07T07:57:58.000Z</time>
      </trkpt>
      <trkpt lat="45.83931" lon="4.79969">
        <ele>536</ele>
        <time>2020-06-07T07:57:59.000Z</time>
      </trkpt>
      <trkpt lat="45.83931" lon="4.79974">
        <ele>536.1</ele>
        <time>2020-06-07T07:58:00.000Z</time>
      </trkpt>
      <trkpt lat="45.83931" lon="4.79978">
        <ele>536.3</ele>
        <time>2020-06-07T07:58:01.000Z</time>
      </trkpt>
      <trkpt lat="45.83931" lon="4.79982">
        <ele>536.4</ele>
        <time>2020-06-07T07:58:02.000Z</time>
      </trkpt>
      <trkpt lat="45.83931" lon="4.79986">
        <ele>536.5</ele>
        <time>2020-06-07T07:58:03.000Z</time>
      </trkpt>
      <trkpt lat="45.83931" lon="4.79989">
        <ele>536.5</ele>
        <time>2020-06-07T07:58:04.000Z</time>
      </trkpt>
      <trkpt lat="45.83931" lon="4.79992">
        <ele>536.6</ele>
        <time>2020-06-07T07:58:05.000Z</time>
      </trkpt>
      <trkpt lat="45.83931" lon="4.79994">
        <ele>536.6</ele>
        <time>2020-06-07T07:58:06.000Z</time>
      </trkpt>
      <trkpt lat="45.83931" lon="4.79996">
        <ele>536.7</ele>
        <time>2020-06-07T07:58:07.000Z</time>
      </trkpt>
      <trkpt lat="45.83931" lon="4.79999">
        <ele>536.7</ele>
        <time>2020-06-07T07:58:08.000Z</time>
      </trkpt>
      <trkpt lat="45.8393" lon="4.80001">
        <ele>536.8</ele>
        <time>2020-06-07T07:58:09.000Z</time>
      </trkpt>
      <trkpt lat="45.8393" lon="4.80003">
        <ele>536.8</ele>
        <time>2020-06-07T07:58:10.000Z</time>
      </trkpt>
      <trkpt lat="45.83931" lon="4.80005">
        <ele>536.9</ele>
        <time>2020-06-07T07:58:11.000Z</time>
      </trkpt>
      <trkpt lat="45.83932" lon="4.80007">
        <ele>537</ele>
        <time>2020-06-07T07:58:12.000Z</time>
      </trkpt>
      <trkpt lat="45.83932" lon="4.80008">
        <ele>537.1</ele>
        <time>2020-06-07T07:58:13.000Z</time>
      </trkpt>
      <trkpt lat="45.83933" lon="4.8001">
        <ele>537.1</ele>
        <time>2020-06-07T07:58:14.000Z</time>
      </trkpt>
      <trkpt lat="45.83934" lon="4.80011">
        <ele>537.2</ele>
        <time>2020-06-07T07:58:15.000Z</time>
      </trkpt>
      <trkpt lat="45.83935" lon="4.80013">
        <ele>537.3</ele>
        <time>2020-06-07T07:58:16.000Z</time>
      </trkpt>
      <trkpt lat="45.83936" lon="4.80014">
        <ele>537.4</ele>
        <time>2020-06-07T07:58:17.000Z</time>
      </trkpt>
      <trkpt lat="45.83937" lon="4.80015">
        <ele>537.4</ele>
        <time>2020-06-07T07:58:18.000Z</time>
      </trkpt>
      <trkpt lat="45.83938" lon="4.80017">
        <ele>537.7</ele>
        <time>2020-06-07T07:58:19.000Z</time>
      </trkpt>
      <trkpt lat="45.83938" lon="4.8002">
        <ele>538</ele>
        <time>2020-06-07T07:58:20.000Z</time>
      </trkpt>
      <trkpt lat="45.83938" lon="4.80022">
        <ele>538.2</ele>
        <time>2020-06-07T07:58:21.000Z</time>
      </trkpt>
      <trkpt lat="45.83939" lon="4.80024">
        <ele>538.5</ele>
        <time>2020-06-07T07:58:22.000Z</time>
      </trkpt>
      <trkpt lat="45.8394" lon="4.80026">
        <ele>538.8</ele>
        <time>2020-06-07T07:58:23.000Z</time>
      </trkpt>
      <trkpt lat="45.8394" lon="4.80029">
        <ele>539.1</ele>
        <time>2020-06-07T07:58:24.000Z</time>
      </trkpt>
      <trkpt lat="45.8394" lon="4.80031">
        <ele>539.3</ele>
        <time>2020-06-07T07:58:25.000Z</time>
      </trkpt>
      <trkpt lat="45.83941" lon="4.80034">
        <ele>539.6</ele>
        <time>2020-06-07T07:58:26.000Z</time>
      </trkpt>
      <trkpt lat="45.83942" lon="4.80036">
        <ele>539.9</ele>
        <time>2020-06-07T07:58:27.000Z</time>
      </trkpt>
      <trkpt lat="45.83942" lon="4.80038">
        <ele>540.1</ele>
        <time>2020-06-07T07:58:28.000Z</time>
      </trkpt>
      <trkpt lat="45.83942" lon="4.80039">
        <ele>540.2</ele>
        <time>2020-06-07T07:58:29.000Z</time>
      </trkpt>
      <trkpt lat="45.83943" lon="4.80041">
        <ele>540.4</ele>
        <time>2020-06-07T07:58:30.000Z</time>
      </trkpt>
      <trkpt lat="45.83944" lon="4.80043">
        <ele>540.6</ele>
        <time>2020-06-07T07:58:31.000Z</time>
      </trkpt>
      <trkpt lat="45.83945" lon="4.80045">
        <ele>540.8</ele>
        <time>2020-06-07T07:58:32.000Z</time>
      </trkpt>
      <trkpt lat="45.83945" lon="4.80047">
        <ele>541</ele>
        <time>2020-06-07T07:58:33.000Z</time>
      </trkpt>
      <trkpt lat="45.83946" lon="4.80049">
        <ele>541.2</ele>
        <time>2020-06-07T07:58:34.000Z</time>
      </trkpt>
      <trkpt lat="45.83947" lon="4.80052">
        <ele>541.3</ele>
        <time>2020-06-07T07:58:35.000Z</time>
      </trkpt>
      <trkpt lat="45.83948" lon="4.80055">
        <ele>541.5</ele>
        <time>2020-06-07T07:58:36.000Z</time>
      </trkpt>
      <trkpt lat="45.83948" lon="4.80058">
        <ele>541.6</ele>
        <time>2020-06-07T07:58:37.000Z</time>
      </trkpt>
      <trkpt lat="45.83949" lon="4.80061">
        <ele>541.7</ele>
        <time>2020-06-07T07:58:38.000Z</time>
      </trkpt>
      <trkpt lat="45.83949" lon="4.80064">
        <ele>541.8</ele>
        <time>2020-06-07T07:58:39.000Z</time>
      </trkpt>
      <trkpt lat="45.8395" lon="4.80067">
        <ele>541.8</ele>
        <time>2020-06-07T07:58:40.000Z</time>
      </trkpt>
      <trkpt lat="45.8395" lon="4.80071">
        <ele>541.8</ele>
        <time>2020-06-07T07:58:41.000Z</time>
      </trkpt>
      <trkpt lat="45.83951" lon="4.80075">
        <ele>541.8</ele>
        <time>2020-06-07T07:58:42.000Z</time>
      </trkpt>
      <trkpt lat="45.83952" lon="4.80079">
        <ele>541.8</ele>
        <time>2020-06-07T07:58:43.000Z</time>
      </trkpt>
      <trkpt lat="45.83953" lon="4.80082">
        <ele>541.7</ele>
        <time>2020-06-07T07:58:44.000Z</time>
      </trkpt>
      <trkpt lat="45.83954" lon="4.80085">
        <ele>541.7</ele>
        <time>2020-06-07T07:58:45.000Z</time>
      </trkpt>
      <trkpt lat="45.83955" lon="4.80087">
        <ele>541.7</ele>
        <time>2020-06-07T07:58:46.000Z</time>
      </trkpt>
      <trkpt lat="45.83957" lon="4.80089">
        <ele>541.7</ele>
        <time>2020-06-07T07:58:47.000Z</time>
      </trkpt>
      <trkpt lat="45.83958" lon="4.80091">
        <ele>541.7</ele>
        <time>2020-06-07T07:58:48.000Z</time>
      </trkpt>
      <trkpt lat="45.83959" lon="4.80092">
        <ele>541.7</ele>
        <time>2020-06-07T07:58:49.000Z</time>
      </trkpt>
      <trkpt lat="45.8396" lon="4.80095">
        <ele>541.7</ele>
        <time>2020-06-07T07:58:50.000Z</time>
      </trkpt>
      <trkpt lat="45.83961" lon="4.80097">
        <ele>541.7</ele>
        <time>2020-06-07T07:58:51.000Z</time>
      </trkpt>
      <trkpt lat="45.83961" lon="4.80101">
        <ele>541.7</ele>
        <time>2020-06-07T07:58:52.000Z</time>
      </trkpt>
      <trkpt lat="45.83961" lon="4.80104">
        <ele>541.7</ele>
        <time>2020-06-07T07:58:53.000Z</time>
      </trkpt>
      <trkpt lat="45.83962" lon="4.80107">
        <ele>541.7</ele>
        <time>2020-06-07T07:58:54.000Z</time>
      </trkpt>
      <trkpt lat="45.83962" lon="4.8011">
        <ele>541.7</ele>
        <time>2020-06-07T07:58:55.000Z</time>
      </trkpt>
      <trkpt lat="45.83963" lon="4.80113">
        <ele>541.6</ele>
        <time>2020-06-07T07:58:56.000Z</time>
      </trkpt>
      <trkpt lat="45.83964" lon="4.80116">
        <ele>541.6</ele>
        <time>2020-06-07T07:58:57.000Z</time>
      </trkpt>
      <trkpt lat="45.83965" lon="4.8012">
        <ele>541.6</ele>
        <time>2020-06-07T07:58:58.000Z</time>
      </trkpt>
      <trkpt lat="45.83966" lon="4.80123">
        <ele>541.6</ele>
        <time>2020-06-07T07:58:59.000Z</time>
      </trkpt>
      <trkpt lat="45.83969" lon="4.80125">
        <ele>541.6</ele>
        <time>2020-06-07T07:59:00.000Z</time>
      </trkpt>
      <trkpt lat="45.8397" lon="4.80129">
        <ele>541.5</ele>
        <time>2020-06-07T07:59:01.000Z</time>
      </trkpt>
      <trkpt lat="45.83971" lon="4.80132">
        <ele>541.5</ele>
        <time>2020-06-07T07:59:02.000Z</time>
      </trkpt>
      <trkpt lat="45.83972" lon="4.80136">
        <ele>541.4</ele>
        <time>2020-06-07T07:59:03.000Z</time>
      </trkpt>
      <trkpt lat="45.83973" lon="4.8014">
        <ele>541.3</ele>
        <time>2020-06-07T07:59:04.000Z</time>
      </trkpt>
      <trkpt lat="45.83973" lon="4.80143">
        <ele>541.2</ele>
        <time>2020-06-07T07:59:05.000Z</time>
      </trkpt>
      <trkpt lat="45.83974" lon="4.80146">
        <ele>541.1</ele>
        <time>2020-06-07T07:59:06.000Z</time>
      </trkpt>
      <trkpt lat="45.83975" lon="4.80149">
        <ele>540.9</ele>
        <time>2020-06-07T07:59:07.000Z</time>
      </trkpt>
      <trkpt lat="45.83975" lon="4.80151">
        <ele>540.8</ele>
        <time>2020-06-07T07:59:08.000Z</time>
      </trkpt>
      <trkpt lat="45.83974" lon="4.80154">
        <ele>540.6</ele>
        <time>2020-06-07T07:59:09.000Z</time>
      </trkpt>
      <trkpt lat="45.83974" lon="4.80157">
        <ele>540.4</ele>
        <time>2020-06-07T07:59:10.000Z</time>
      </trkpt>
      <trkpt lat="45.83974" lon="4.80161">
        <ele>540.1</ele>
        <time>2020-06-07T07:59:11.000Z</time>
      </trkpt>
      <trkpt lat="45.83974" lon="4.80164">
        <ele>539.8</ele>
        <time>2020-06-07T07:59:12.000Z</time>
      </trkpt>
      <trkpt lat="45.83975" lon="4.80167">
        <ele>539.4</ele>
        <time>2020-06-07T07:59:13.000Z</time>
      </trkpt>
      <trkpt lat="45.83975" lon="4.8017">
        <ele>539.1</ele>
        <time>2020-06-07T07:59:14.000Z</time>
      </trkpt>
      <trkpt lat="45.83975" lon="4.80172">
        <ele>538.8</ele>
        <time>2020-06-07T07:59:15.000Z</time>
      </trkpt>
      <trkpt lat="45.83975" lon="4.80175">
        <ele>538.4</ele>
        <time>2020-06-07T07:59:16.000Z</time>
      </trkpt>
      <trkpt lat="45.83975" lon="4.80178">
        <ele>538</ele>
        <time>2020-06-07T07:59:17.000Z</time>
      </trkpt>
      <trkpt lat="45.83975" lon="4.80181">
        <ele>537.6</ele>
        <time>2020-06-07T07:59:18.000Z</time>
      </trkpt>
      <trkpt lat="45.83976" lon="4.80185">
        <ele>537</ele>
        <time>2020-06-07T07:59:19.000Z</time>
      </trkpt>
      <trkpt lat="45.83976" lon="4.80189">
        <ele>536.5</ele>
        <time>2020-06-07T07:59:20.000Z</time>
      </trkpt>
      <trkpt lat="45.83976" lon="4.80192">
        <ele>536.1</ele>
        <time>2020-06-07T07:59:21.000Z</time>
      </trkpt>
      <trkpt lat="45.83976" lon="4.80195">
        <ele>535.6</ele>
        <time>2020-06-07T07:59:22.000Z</time>
      </trkpt>
      <trkpt lat="45.83976" lon="4.80199">
        <ele>535</ele>
        <time>2020-06-07T07:59:23.000Z</time>
      </trkpt>
      <trkpt lat="45.83976" lon="4.80204">
        <ele>534.3</ele>
        <time>2020-06-07T07:59:24.000Z</time>
      </trkpt>
      <trkpt lat="45.83977" lon="4.80207">
        <ele>533.9</ele>
        <time>2020-06-07T07:59:25.000Z</time>
      </trkpt>
      <trkpt lat="45.83978" lon="4.80209">
        <ele>533.5</ele>
        <time>2020-06-07T07:59:26.000Z</time>
      </trkpt>
      <trkpt lat="45.83979" lon="4.8021">
        <ele>533.2</ele>
        <time>2020-06-07T07:59:27.000Z</time>
      </trkpt>
      <trkpt lat="45.83981" lon="4.80211">
        <ele>532.8</ele>
        <time>2020-06-07T07:59:28.000Z</time>
      </trkpt>
      <trkpt lat="45.83983" lon="4.80213">
        <ele>532.6</ele>
        <time>2020-06-07T07:59:29.000Z</time>
      </trkpt>
      <trkpt lat="45.83984" lon="4.80214">
        <ele>532.3</ele>
        <time>2020-06-07T07:59:30.000Z</time>
      </trkpt>
      <trkpt lat="45.83986" lon="4.80216">
        <ele>532.1</ele>
        <time>2020-06-07T07:59:31.000Z</time>
      </trkpt>
      <trkpt lat="45.83987" lon="4.80219">
        <ele>531.8</ele>
        <time>2020-06-07T07:59:32.000Z</time>
      </trkpt>
      <trkpt lat="45.83988" lon="4.80221">
        <ele>531.7</ele>
        <time>2020-06-07T07:59:33.000Z</time>
      </trkpt>
      <trkpt lat="45.83989" lon="4.80223">
        <ele>531.6</ele>
        <time>2020-06-07T07:59:34.000Z</time>
      </trkpt>
      <trkpt lat="45.83991" lon="4.80224">
        <ele>531.5</ele>
        <time>2020-06-07T07:59:35.000Z</time>
      </trkpt>
      <trkpt lat="45.83991" lon="4.80223">
        <ele>531.5</ele>
        <time>2020-06-07T07:59:36.000Z</time>
      </trkpt>
      <trkpt lat="45.83991" lon="4.80223">
        <ele>531.5</ele>
        <time>2020-06-07T07:59:37.000Z</time>
      </trkpt>
      <trkpt lat="45.83991" lon="4.80224">
        <ele>531.5</ele>
        <time>2020-06-07T07:59:38.000Z</time>
      </trkpt>
      <trkpt lat="45.83992" lon="4.80226">
        <ele>531.5</ele>
        <time>2020-06-07T07:59:39.000Z</time>
      </trkpt>
      <trkpt lat="45.83993" lon="4.80226">
        <ele>531.5</ele>
        <time>2020-06-07T07:59:40.000Z</time>
      </trkpt>
      <trkpt lat="45.83994" lon="4.80225">
        <ele>531.5</ele>
        <time>2020-06-07T07:59:41.000Z</time>
      </trkpt>
      <trkpt lat="45.83994" lon="4.80225">
        <ele>531.5</ele>
        <time>2020-06-07T07:59:42.000Z</time>
      </trkpt>
      <trkpt lat="45.83995" lon="4.80225">
        <ele>531.5</ele>
        <time>2020-06-07T07:59:43.000Z</time>
      </trkpt>
      <trkpt lat="45.83996" lon="4.80226">
        <ele>531.5</ele>
        <time>2020-06-07T07:59:44.000Z</time>
      </trkpt>
      <trkpt lat="45.83997" lon="4.80227">
        <ele>531.6</ele>
        <time>2020-06-07T07:59:45.000Z</time>
      </trkpt>
      <trkpt lat="45.83999" lon="4.80228">
        <ele>531.6</ele>
        <time>2020-06-07T07:59:46.000Z</time>
      </trkpt>
      <trkpt lat="45.84001" lon="4.80229">
        <ele>531.7</ele>
        <time>2020-06-07T07:59:47.000Z</time>
      </trkpt>
      <trkpt lat="45.84002" lon="4.8023">
        <ele>531.8</ele>
        <time>2020-06-07T07:59:48.000Z</time>
      </trkpt>
      <trkpt lat="45.84004" lon="4.80231">
        <ele>531.9</ele>
        <time>2020-06-07T07:59:49.000Z</time>
      </trkpt>
      <trkpt lat="45.84006" lon="4.80232">
        <ele>532</ele>
        <time>2020-06-07T07:59:50.000Z</time>
      </trkpt>
      <trkpt lat="45.84008" lon="4.80233">
        <ele>532.1</ele>
        <time>2020-06-07T07:59:51.000Z</time>
      </trkpt>
      <trkpt lat="45.84009" lon="4.80235">
        <ele>532.1</ele>
        <time>2020-06-07T07:59:52.000Z</time>
      </trkpt>
      <trkpt lat="45.84011" lon="4.80236">
        <ele>532.2</ele>
        <time>2020-06-07T07:59:53.000Z</time>
      </trkpt>
      <trkpt lat="45.84012" lon="4.80237">
        <ele>532.2</ele>
        <time>2020-06-07T07:59:54.000Z</time>
      </trkpt>
      <trkpt lat="45.84013" lon="4.80238">
        <ele>532.2</ele>
        <time>2020-06-07T07:59:55.000Z</time>
      </trkpt>
      <trkpt lat="45.84013" lon="4.80238">
        <ele>532.2</ele>
        <time>2020-06-07T07:59:56.000Z</time>
      </trkpt>
      <trkpt lat="45.84026" lon="4.80243">
        <ele>532.1</ele>
        <time>2020-06-07T08:00:05.000Z</time>
      </trkpt>
      <trkpt lat="45.84027" lon="4.80243">
        <ele>532.1</ele>
        <time>2020-06-07T08:00:06.000Z</time>
      </trkpt>
      <trkpt lat="45.84029" lon="4.80242">
        <ele>532.1</ele>
        <time>2020-06-07T08:00:07.000Z</time>
      </trkpt>
      <trkpt lat="45.84031" lon="4.80242">
        <ele>532.2</ele>
        <time>2020-06-07T08:00:08.000Z</time>
      </trkpt>
      <trkpt lat="45.84032" lon="4.80241">
        <ele>532.2</ele>
        <time>2020-06-07T08:00:09.000Z</time>
      </trkpt>
      <trkpt lat="45.84033" lon="4.80241">
        <ele>532.3</ele>
        <time>2020-06-07T08:00:10.000Z</time>
      </trkpt>
      <trkpt lat="45.84035" lon="4.80241">
        <ele>532.3</ele>
        <time>2020-06-07T08:00:11.000Z</time>
      </trkpt>
      <trkpt lat="45.84036" lon="4.8024">
        <ele>532.5</ele>
        <time>2020-06-07T08:00:12.000Z</time>
      </trkpt>
      <trkpt lat="45.84038" lon="4.80239">
        <ele>532.6</ele>
        <time>2020-06-07T08:00:13.000Z</time>
      </trkpt>
      <trkpt lat="45.84039" lon="4.80239">
        <ele>532.7</ele>
        <time>2020-06-07T08:00:14.000Z</time>
      </trkpt>
      <trkpt lat="45.84041" lon="4.80238">
        <ele>533.4</ele>
        <time>2020-06-07T08:00:15.000Z</time>
      </trkpt>
      <trkpt lat="45.84042" lon="4.80238">
        <ele>533.5</ele>
        <time>2020-06-07T08:00:16.000Z</time>
      </trkpt>
      <trkpt lat="45.84042" lon="4.80237">
        <ele>533.7</ele>
        <time>2020-06-07T08:00:17.000Z</time>
      </trkpt>
      <trkpt lat="45.84043" lon="4.80236">
        <ele>533.9</ele>
        <time>2020-06-07T08:00:18.000Z</time>
      </trkpt>
      <trkpt lat="45.84044" lon="4.80235">
        <ele>534.1</ele>
        <time>2020-06-07T08:00:19.000Z</time>
      </trkpt>
      <trkpt lat="45.84045" lon="4.80234">
        <ele>534.2</ele>
        <time>2020-06-07T08:00:20.000Z</time>
      </trkpt>
      <trkpt lat="45.84045" lon="4.80233">
        <ele>534.4</ele>
        <time>2020-06-07T08:00:21.000Z</time>
      </trkpt>
      <trkpt lat="45.84045" lon="4.80232">
        <ele>534.5</ele>
        <time>2020-06-07T08:00:22.000Z</time>
      </trkpt>
      <trkpt lat="45.84045" lon="4.8023">
        <ele>534.7</ele>
        <time>2020-06-07T08:00:23.000Z</time>
      </trkpt>
      <trkpt lat="45.84046" lon="4.80229">
        <ele>534.9</ele>
        <time>2020-06-07T08:00:24.000Z</time>
      </trkpt>
      <trkpt lat="45.84047" lon="4.80227">
        <ele>535.1</ele>
        <time>2020-06-07T08:00:25.000Z</time>
      </trkpt>
      <trkpt lat="45.84048" lon="4.80226">
        <ele>535.5</ele>
        <time>2020-06-07T08:00:26.000Z</time>
      </trkpt>
      <trkpt lat="45.84049" lon="4.80224">
        <ele>535.7</ele>
        <time>2020-06-07T08:00:27.000Z</time>
      </trkpt>
      <trkpt lat="45.84051" lon="4.80222">
        <ele>536</ele>
        <time>2020-06-07T08:00:28.000Z</time>
      </trkpt>
      <trkpt lat="45.84052" lon="4.8022">
        <ele>536.3</ele>
        <time>2020-06-07T08:00:29.000Z</time>
      </trkpt>
      <trkpt lat="45.84053" lon="4.80219">
        <ele>536.5</ele>
        <time>2020-06-07T08:00:30.000Z</time>
      </trkpt>
      <trkpt lat="45.84054" lon="4.80217">
        <ele>536.7</ele>
        <time>2020-06-07T08:00:31.000Z</time>
      </trkpt>
      <trkpt lat="45.84055" lon="4.80215">
        <ele>536.9</ele>
        <time>2020-06-07T08:00:32.000Z</time>
      </trkpt>
      <trkpt lat="45.84056" lon="4.80215">
        <ele>537.1</ele>
        <time>2020-06-07T08:00:33.000Z</time>
      </trkpt>
      <trkpt lat="45.84057" lon="4.80214">
        <ele>537.2</ele>
        <time>2020-06-07T08:00:34.000Z</time>
      </trkpt>
      <trkpt lat="45.84059" lon="4.80214">
        <ele>537.4</ele>
        <time>2020-06-07T08:00:35.000Z</time>
      </trkpt>
      <trkpt lat="45.8406" lon="4.80214">
        <ele>537.5</ele>
        <time>2020-06-07T08:00:36.000Z</time>
      </trkpt>
      <trkpt lat="45.8406" lon="4.80213">
        <ele>537.6</ele>
        <time>2020-06-07T08:00:37.000Z</time>
      </trkpt>
      <trkpt lat="45.8406" lon="4.80213">
        <ele>537.6</ele>
        <time>2020-06-07T08:00:38.000Z</time>
      </trkpt>
      <trkpt lat="45.8406" lon="4.80212">
        <ele>537.7</ele>
        <time>2020-06-07T08:00:39.000Z</time>
      </trkpt>
      <trkpt lat="45.84065" lon="4.80209">
        <ele>538.3</ele>
        <time>2020-06-07T08:01:30.000Z</time>
      </trkpt>
      <trkpt lat="45.84063" lon="4.8021">
        <ele>538.5</ele>
        <time>2020-06-07T08:01:31.000Z</time>
      </trkpt>
      <trkpt lat="45.84062" lon="4.80212">
        <ele>538.7</ele>
        <time>2020-06-07T08:01:32.000Z</time>
      </trkpt>
      <trkpt lat="45.84061" lon="4.80214">
        <ele>538.9</ele>
        <time>2020-06-07T08:01:33.000Z</time>
      </trkpt>
      <trkpt lat="45.8406" lon="4.80216">
        <ele>539.1</ele>
        <time>2020-06-07T08:01:34.000Z</time>
      </trkpt>
      <trkpt lat="45.84058" lon="4.80217">
        <ele>539.3</ele>
        <time>2020-06-07T08:01:35.000Z</time>
      </trkpt>
      <trkpt lat="45.84057" lon="4.80219">
        <ele>539.4</ele>
        <time>2020-06-07T08:01:36.000Z</time>
      </trkpt>
      <trkpt lat="45.84056" lon="4.80221">
        <ele>539.6</ele>
        <time>2020-06-07T08:01:37.000Z</time>
      </trkpt>
      <trkpt lat="45.84055" lon="4.80223">
        <ele>539.8</ele>
        <time>2020-06-07T08:01:38.000Z</time>
      </trkpt>
      <trkpt lat="45.84054" lon="4.80224">
        <ele>539.9</ele>
        <time>2020-06-07T08:01:39.000Z</time>
      </trkpt>
      <trkpt lat="45.84053" lon="4.80226">
        <ele>540.1</ele>
        <time>2020-06-07T08:01:40.000Z</time>
      </trkpt>
      <trkpt lat="45.84052" lon="4.80227">
        <ele>540.2</ele>
        <time>2020-06-07T08:01:41.000Z</time>
      </trkpt>
      <trkpt lat="45.84052" lon="4.80228">
        <ele>540.3</ele>
        <time>2020-06-07T08:01:42.000Z</time>
      </trkpt>
      <trkpt lat="45.84051" lon="4.80228">
        <ele>540.3</ele>
        <time>2020-06-07T08:01:43.000Z</time>
      </trkpt>
      <trkpt lat="45.84051" lon="4.80229">
        <ele>540.4</ele>
        <time>2020-06-07T08:01:44.000Z</time>
      </trkpt>
      <trkpt lat="45.84051" lon="4.80229">
        <ele>540.4</ele>
        <time>2020-06-07T08:01:45.000Z</time>
      </trkpt>
      <trkpt lat="45.8415" lon="4.80082">
        <ele>560.7</ele>
        <time>2020-06-07T08:04:47.000Z</time>
      </trkpt>
      <trkpt lat="45.84151" lon="4.80081">
        <ele>560.8</ele>
        <time>2020-06-07T08:04:48.000Z</time>
      </trkpt>
      <trkpt lat="45.84153" lon="4.8008">
        <ele>560.9</ele>
        <time>2020-06-07T08:04:49.000Z</time>
      </trkpt>
      <trkpt lat="45.84155" lon="4.8008">
        <ele>560.9</ele>
        <time>2020-06-07T08:04:50.000Z</time>
      </trkpt>
      <trkpt lat="45.84156" lon="4.80079">
        <ele>560.9</ele>
        <time>2020-06-07T08:04:51.000Z</time>
      </trkpt>
      <trkpt lat="45.84158" lon="4.80079">
        <ele>560.9</ele>
        <time>2020-06-07T08:04:52.000Z</time>
      </trkpt>
      <trkpt lat="45.8416" lon="4.80079">
        <ele>560.9</ele>
        <time>2020-06-07T08:04:53.000Z</time>
      </trkpt>
      <trkpt lat="45.84162" lon="4.8008">
        <ele>560.9</ele>
        <time>2020-06-07T08:04:54.000Z</time>
      </trkpt>
      <trkpt lat="45.84164" lon="4.8008">
        <ele>560.9</ele>
        <time>2020-06-07T08:04:55.000Z</time>
      </trkpt>
      <trkpt lat="45.84166" lon="4.8008">
        <ele>560.9</ele>
        <time>2020-06-07T08:04:56.000Z</time>
      </trkpt>
      <trkpt lat="45.84168" lon="4.80081">
        <ele>560.8</ele>
        <time>2020-06-07T08:04:57.000Z</time>
      </trkpt>
      <trkpt lat="45.8417" lon="4.80081">
        <ele>560.8</ele>
        <time>2020-06-07T08:04:58.000Z</time>
      </trkpt>
      <trkpt lat="45.84173" lon="4.80082">
        <ele>560.8</ele>
        <time>2020-06-07T08:04:59.000Z</time>
      </trkpt>
      <trkpt lat="45.84175" lon="4.80083">
        <ele>560.8</ele>
        <time>2020-06-07T08:05:00.000Z</time>
      </trkpt>
      <trkpt lat="45.84177" lon="4.80083">
        <ele>560.8</ele>
        <time>2020-06-07T08:05:01.000Z</time>
      </trkpt>
      <trkpt lat="45.8418" lon="4.80084">
        <ele>560.7</ele>
        <time>2020-06-07T08:05:02.000Z</time>
      </trkpt>
      <trkpt lat="45.84183" lon="4.80085">
        <ele>560.7</ele>
        <time>2020-06-07T08:05:03.000Z</time>
      </trkpt>
      <trkpt lat="45.84186" lon="4.80086">
        <ele>560.7</ele>
        <time>2020-06-07T08:05:04.000Z</time>
      </trkpt>
      <trkpt lat="45.84189" lon="4.80086">
        <ele>560.6</ele>
        <time>2020-06-07T08:05:05.000Z</time>
      </trkpt>
      <trkpt lat="45.84192" lon="4.80086">
        <ele>560.6</ele>
        <time>2020-06-07T08:05:06.000Z</time>
      </trkpt>
      <trkpt lat="45.84195" lon="4.80086">
        <ele>560.9</ele>
        <time>2020-06-07T08:05:07.000Z</time>
      </trkpt>
      <trkpt lat="45.84198" lon="4.80084">
        <ele>561.1</ele>
        <time>2020-06-07T08:05:08.000Z</time>
      </trkpt>
      <trkpt lat="45.84201" lon="4.80083">
        <ele>561.4</ele>
        <time>2020-06-07T08:05:09.000Z</time>
      </trkpt>
      <trkpt lat="45.84203" lon="4.80081">
        <ele>561.6</ele>
        <time>2020-06-07T08:05:10.000Z</time>
      </trkpt>
      <trkpt lat="45.84205" lon="4.80079">
        <ele>561.9</ele>
        <time>2020-06-07T08:05:11.000Z</time>
      </trkpt>
      <trkpt lat="45.84206" lon="4.80077">
        <ele>562.1</ele>
        <time>2020-06-07T08:05:12.000Z</time>
      </trkpt>
      <trkpt lat="45.84208" lon="4.80074">
        <ele>562.4</ele>
        <time>2020-06-07T08:05:13.000Z</time>
      </trkpt>
      <trkpt lat="45.84209" lon="4.80072">
        <ele>562.7</ele>
        <time>2020-06-07T08:05:14.000Z</time>
      </trkpt>
      <trkpt lat="45.8421" lon="4.80071">
        <ele>562.9</ele>
        <time>2020-06-07T08:05:15.000Z</time>
      </trkpt>
      <trkpt lat="45.84211" lon="4.80069">
        <ele>563.1</ele>
        <time>2020-06-07T08:05:16.000Z</time>
      </trkpt>
      <trkpt lat="45.84212" lon="4.80067">
        <ele>563.4</ele>
        <time>2020-06-07T08:05:17.000Z</time>
      </trkpt>
      <trkpt lat="45.84214" lon="4.80065">
        <ele>563.7</ele>
        <time>2020-06-07T08:05:18.000Z</time>
      </trkpt>
      <trkpt lat="45.84215" lon="4.80063">
        <ele>564</ele>
        <time>2020-06-07T08:05:19.000Z</time>
      </trkpt>
      <trkpt lat="45.84216" lon="4.8006">
        <ele>564.2</ele>
        <time>2020-06-07T08:05:20.000Z</time>
      </trkpt>
      <trkpt lat="45.84216" lon="4.80058">
        <ele>564.5</ele>
        <time>2020-06-07T08:05:21.000Z</time>
      </trkpt>
      <trkpt lat="45.84217" lon="4.80056">
        <ele>564.7</ele>
        <time>2020-06-07T08:05:22.000Z</time>
      </trkpt>
      <trkpt lat="45.84218" lon="4.80054">
        <ele>565</ele>
        <time>2020-06-07T08:05:23.000Z</time>
      </trkpt>
      <trkpt lat="45.84219" lon="4.80052">
        <ele>565.2</ele>
        <time>2020-06-07T08:05:24.000Z</time>
      </trkpt>
      <trkpt lat="45.8422" lon="4.8005">
        <ele>565.4</ele>
        <time>2020-06-07T08:05:25.000Z</time>
      </trkpt>
      <trkpt lat="45.8422" lon="4.80048">
        <ele>565.8</ele>
        <time>2020-06-07T08:05:26.000Z</time>
      </trkpt>
      <trkpt lat="45.84221" lon="4.80047">
        <ele>566</ele>
        <time>2020-06-07T08:05:27.000Z</time>
      </trkpt>
      <trkpt lat="45.84222" lon="4.80045">
        <ele>566.2</ele>
        <time>2020-06-07T08:05:28.000Z</time>
      </trkpt>
      <trkpt lat="45.84223" lon="4.80044">
        <ele>566.4</ele>
        <time>2020-06-07T08:05:29.000Z</time>
      </trkpt>
      <trkpt lat="45.84223" lon="4.80042">
        <ele>566.6</ele>
        <time>2020-06-07T08:05:30.000Z</time>
      </trkpt>
      <trkpt lat="45.84224" lon="4.8004">
        <ele>566.8</ele>
        <time>2020-06-07T08:05:31.000Z</time>
      </trkpt>
      <trkpt lat="45.84225" lon="4.80039">
        <ele>567</ele>
        <time>2020-06-07T08:05:32.000Z</time>
      </trkpt>
      <trkpt lat="45.84226" lon="4.80037">
        <ele>567.2</ele>
        <time>2020-06-07T08:05:33.000Z</time>
      </trkpt>
      <trkpt lat="45.84227" lon="4.80036">
        <ele>567.4</ele>
        <time>2020-06-07T08:05:34.000Z</time>
      </trkpt>
      <trkpt lat="45.84228" lon="4.80034">
        <ele>567.6</ele>
        <time>2020-06-07T08:05:35.000Z</time>
      </trkpt>
      <trkpt lat="45.84228" lon="4.80032">
        <ele>567.8</ele>
        <time>2020-06-07T08:05:36.000Z</time>
      </trkpt>
      <trkpt lat="45.84229" lon="4.80031">
        <ele>567.9</ele>
        <time>2020-06-07T08:05:37.000Z</time>
      </trkpt>
      <trkpt lat="45.8423" lon="4.80029">
        <ele>568.1</ele>
        <time>2020-06-07T08:05:38.000Z</time>
      </trkpt>
      <trkpt lat="45.84231" lon="4.80028">
        <ele>568.3</ele>
        <time>2020-06-07T08:05:39.000Z</time>
      </trkpt>
      <trkpt lat="45.84231" lon="4.80026">
        <ele>569.1</ele>
        <time>2020-06-07T08:05:40.000Z</time>
      </trkpt>
      <trkpt lat="45.84232" lon="4.80025">
        <ele>569.4</ele>
        <time>2020-06-07T08:05:41.000Z</time>
      </trkpt>
      <trkpt lat="45.84233" lon="4.80023">
        <ele>569.7</ele>
        <time>2020-06-07T08:05:42.000Z</time>
      </trkpt>
      <trkpt lat="45.84234" lon="4.80021">
        <ele>569.9</ele>
        <time>2020-06-07T08:05:43.000Z</time>
      </trkpt>
      <trkpt lat="45.84235" lon="4.80019">
        <ele>570.2</ele>
        <time>2020-06-07T08:05:44.000Z</time>
      </trkpt>
      <trkpt lat="45.84235" lon="4.80018">
        <ele>570.5</ele>
        <time>2020-06-07T08:05:45.000Z</time>
      </trkpt>
      <trkpt lat="45.84236" lon="4.80016">
        <ele>570.7</ele>
        <time>2020-06-07T08:05:46.000Z</time>
      </trkpt>
      <trkpt lat="45.84237" lon="4.80015">
        <ele>570.9</ele>
        <time>2020-06-07T08:05:47.000Z</time>
      </trkpt>
      <trkpt lat="45.84238" lon="4.80013">
        <ele>571.2</ele>
        <time>2020-06-07T08:05:48.000Z</time>
      </trkpt>
      <trkpt lat="45.84238" lon="4.80011">
        <ele>571.5</ele>
        <time>2020-06-07T08:05:49.000Z</time>
      </trkpt>
      <trkpt lat="45.84239" lon="4.80009">
        <ele>571.7</ele>
        <time>2020-06-07T08:05:50.000Z</time>
      </trkpt>
      <trkpt lat="45.8424" lon="4.80007">
        <ele>572</ele>
        <time>2020-06-07T08:05:51.000Z</time>
      </trkpt>
      <trkpt lat="45.8424" lon="4.80005">
        <ele>572.2</ele>
        <time>2020-06-07T08:05:52.000Z</time>
      </trkpt>
      <trkpt lat="45.84241" lon="4.80004">
        <ele>572.5</ele>
        <time>2020-06-07T08:05:53.000Z</time>
      </trkpt>
      <trkpt lat="45.84241" lon="4.80002">
        <ele>572.7</ele>
        <time>2020-06-07T08:05:54.000Z</time>
      </trkpt>
      <trkpt lat="45.84242" lon="4.8">
        <ele>573</ele>
        <time>2020-06-07T08:05:55.000Z</time>
      </trkpt>
      <trkpt lat="45.84242" lon="4.79999">
        <ele>573.2</ele>
        <time>2020-06-07T08:05:56.000Z</time>
      </trkpt>
      <trkpt lat="45.84243" lon="4.79997">
        <ele>573.4</ele>
        <time>2020-06-07T08:05:57.000Z</time>
      </trkpt>
      <trkpt lat="45.84243" lon="4.79995">
        <ele>573.7</ele>
        <time>2020-06-07T08:05:58.000Z</time>
      </trkpt>
      <trkpt lat="45.84244" lon="4.79993">
        <ele>573.9</ele>
        <time>2020-06-07T08:05:59.000Z</time>
      </trkpt>
      <trkpt lat="45.84244" lon="4.79991">
        <ele>574.1</ele>
        <time>2020-06-07T08:06:00.000Z</time>
      </trkpt>
      <trkpt lat="45.84244" lon="4.7999">
        <ele>574.4</ele>
        <time>2020-06-07T08:06:01.000Z</time>
      </trkpt>
      <trkpt lat="45.84244" lon="4.79988">
        <ele>574.6</ele>
        <time>2020-06-07T08:06:02.000Z</time>
      </trkpt>
      <trkpt lat="45.84245" lon="4.79986">
        <ele>574.9</ele>
        <time>2020-06-07T08:06:03.000Z</time>
      </trkpt>
      <trkpt lat="45.84245" lon="4.79984">
        <ele>575.1</ele>
        <time>2020-06-07T08:06:04.000Z</time>
      </trkpt>
      <trkpt lat="45.84245" lon="4.79982">
        <ele>575.3</ele>
        <time>2020-06-07T08:06:05.000Z</time>
      </trkpt>
      <trkpt lat="45.84245" lon="4.79981">
        <ele>575.5</ele>
        <time>2020-06-07T08:06:06.000Z</time>
      </trkpt>
      <trkpt lat="45.84246" lon="4.79979">
        <ele>575.7</ele>
        <time>2020-06-07T08:06:07.000Z</time>
      </trkpt>
      <trkpt lat="45.84246" lon="4.79977">
        <ele>575.9</ele>
        <time>2020-06-07T08:06:08.000Z</time>
      </trkpt>
      <trkpt lat="45.84246" lon="4.79976">
        <ele>576.1</ele>
        <time>2020-06-07T08:06:09.000Z</time>
      </trkpt>
      <trkpt lat="45.84246" lon="4.79974">
        <ele>576.3</ele>
        <time>2020-06-07T08:06:10.000Z</time>
      </trkpt>
      <trkpt lat="45.84246" lon="4.79972">
        <ele>576.6</ele>
        <time>2020-06-07T08:06:11.000Z</time>
      </trkpt>
      <trkpt lat="45.84247" lon="4.7997">
        <ele>576.8</ele>
        <time>2020-06-07T08:06:12.000Z</time>
      </trkpt>
      <trkpt lat="45.84246" lon="4.79969">
        <ele>577</ele>
        <time>2020-06-07T08:06:13.000Z</time>
      </trkpt>
      <trkpt lat="45.84247" lon="4.79967">
        <ele>577.2</ele>
        <time>2020-06-07T08:06:14.000Z</time>
      </trkpt>
      <trkpt lat="45.84247" lon="4.79965">
        <ele>577.4</ele>
        <time>2020-06-07T08:06:15.000Z</time>
      </trkpt>
      <trkpt lat="45.84247" lon="4.79963">
        <ele>577.6</ele>
        <time>2020-06-07T08:06:16.000Z</time>
      </trkpt>
      <trkpt lat="45.84247" lon="4.79962">
        <ele>577.8</ele>
        <time>2020-06-07T08:06:17.000Z</time>
      </trkpt>
      <trkpt lat="45.84248" lon="4.7996">
        <ele>578</ele>
        <time>2020-06-07T08:06:18.000Z</time>
      </trkpt>
      <trkpt lat="45.84248" lon="4.79958">
        <ele>578.2</ele>
        <time>2020-06-07T08:06:19.000Z</time>
      </trkpt>
      <trkpt lat="45.84248" lon="4.79956">
        <ele>578.4</ele>
        <time>2020-06-07T08:06:20.000Z</time>
      </trkpt>
      <trkpt lat="45.84248" lon="4.79955">
        <ele>578.6</ele>
        <time>2020-06-07T08:06:21.000Z</time>
      </trkpt>
      <trkpt lat="45.84248" lon="4.79953">
        <ele>578.8</ele>
        <time>2020-06-07T08:06:22.000Z</time>
      </trkpt>
      <trkpt lat="45.84248" lon="4.79951">
        <ele>579</ele>
        <time>2020-06-07T08:06:23.000Z</time>
      </trkpt>
      <trkpt lat="45.84248" lon="4.79949">
        <ele>579.2</ele>
        <time>2020-06-07T08:06:24.000Z</time>
      </trkpt>
      <trkpt lat="45.84248" lon="4.79947">
        <ele>579.4</ele>
        <time>2020-06-07T08:06:25.000Z</time>
      </trkpt>
      <trkpt lat="45.84248" lon="4.79945">
        <ele>579.6</ele>
        <time>2020-06-07T08:06:26.000Z</time>
      </trkpt>
      <trkpt lat="45.84248" lon="4.79944">
        <ele>579.7</ele>
        <time>2020-06-07T08:06:27.000Z</time>
      </trkpt>
      <trkpt lat="45.84248" lon="4.79942">
        <ele>579.9</ele>
        <time>2020-06-07T08:06:28.000Z</time>
      </trkpt>
      <trkpt lat="45.84248" lon="4.79941">
        <ele>580</ele>
        <time>2020-06-07T08:06:29.000Z</time>
      </trkpt>
      <trkpt lat="45.84248" lon="4.79939">
        <ele>580.2</ele>
        <time>2020-06-07T08:06:30.000Z</time>
      </trkpt>
      <trkpt lat="45.84249" lon="4.79937">
        <ele>580.4</ele>
        <time>2020-06-07T08:06:31.000Z</time>
      </trkpt>
      <trkpt lat="45.84249" lon="4.79935">
        <ele>580.6</ele>
        <time>2020-06-07T08:06:32.000Z</time>
      </trkpt>
      <trkpt lat="45.84249" lon="4.79933">
        <ele>580.8</ele>
        <time>2020-06-07T08:06:33.000Z</time>
      </trkpt>
      <trkpt lat="45.8425" lon="4.79932">
        <ele>580.9</ele>
        <time>2020-06-07T08:06:34.000Z</time>
      </trkpt>
      <trkpt lat="45.8425" lon="4.7993">
        <ele>581.1</ele>
        <time>2020-06-07T08:06:35.000Z</time>
      </trkpt>
      <trkpt lat="45.8425" lon="4.79928">
        <ele>581.2</ele>
        <time>2020-06-07T08:06:36.000Z</time>
      </trkpt>
      <trkpt lat="45.84251" lon="4.79926">
        <ele>581.4</ele>
        <time>2020-06-07T08:06:37.000Z</time>
      </trkpt>
      <trkpt lat="45.84251" lon="4.79924">
        <ele>581.6</ele>
        <time>2020-06-07T08:06:38.000Z</time>
      </trkpt>
      <trkpt lat="45.84251" lon="4.79922">
        <ele>581.8</ele>
        <time>2020-06-07T08:06:39.000Z</time>
      </trkpt>
      <trkpt lat="45.84251" lon="4.79921">
        <ele>581.9</ele>
        <time>2020-06-07T08:06:40.000Z</time>
      </trkpt>
      <trkpt lat="45.84251" lon="4.79919">
        <ele>582.1</ele>
        <time>2020-06-07T08:06:41.000Z</time>
      </trkpt>
      <trkpt lat="45.84251" lon="4.79917">
        <ele>582.3</ele>
        <time>2020-06-07T08:06:42.000Z</time>
      </trkpt>
      <trkpt lat="45.84251" lon="4.79915">
        <ele>582.4</ele>
        <time>2020-06-07T08:06:43.000Z</time>
      </trkpt>
      <trkpt lat="45.84251" lon="4.79913">
        <ele>582.6</ele>
        <time>2020-06-07T08:06:44.000Z</time>
      </trkpt>
      <trkpt lat="45.84251" lon="4.79911">
        <ele>582.7</ele>
        <time>2020-06-07T08:06:45.000Z</time>
      </trkpt>
      <trkpt lat="45.84251" lon="4.79909">
        <ele>582.9</ele>
        <time>2020-06-07T08:06:46.000Z</time>
      </trkpt>
      <trkpt lat="45.8425" lon="4.79907">
        <ele>583.1</ele>
        <time>2020-06-07T08:06:47.000Z</time>
      </trkpt>
      <trkpt lat="45.8425" lon="4.79905">
        <ele>583.3</ele>
        <time>2020-06-07T08:06:48.000Z</time>
      </trkpt>
      <trkpt lat="45.8425" lon="4.79903">
        <ele>583.4</ele>
        <time>2020-06-07T08:06:49.000Z</time>
      </trkpt>
      <trkpt lat="45.84249" lon="4.79901">
        <ele>583.6</ele>
        <time>2020-06-07T08:06:50.000Z</time>
      </trkpt>
      <trkpt lat="45.84249" lon="4.79899">
        <ele>583.8</ele>
        <time>2020-06-07T08:06:51.000Z</time>
      </trkpt>
      <trkpt lat="45.84249" lon="4.79897">
        <ele>583.9</ele>
        <time>2020-06-07T08:06:52.000Z</time>
      </trkpt>
      <trkpt lat="45.84248" lon="4.79896">
        <ele>584.1</ele>
        <time>2020-06-07T08:06:53.000Z</time>
      </trkpt>
      <trkpt lat="45.84248" lon="4.79894">
        <ele>584.3</ele>
        <time>2020-06-07T08:06:54.000Z</time>
      </trkpt>
      <trkpt lat="45.84248" lon="4.79892">
        <ele>584.4</ele>
        <time>2020-06-07T08:06:55.000Z</time>
      </trkpt>
      <trkpt lat="45.84247" lon="4.7989">
        <ele>584.6</ele>
        <time>2020-06-07T08:06:56.000Z</time>
      </trkpt>
      <trkpt lat="45.84247" lon="4.79888">
        <ele>584.7</ele>
        <time>2020-06-07T08:06:57.000Z</time>
      </trkpt>
      <trkpt lat="45.84246" lon="4.79887">
        <ele>584.9</ele>
        <time>2020-06-07T08:06:58.000Z</time>
      </trkpt>
      <trkpt lat="45.84245" lon="4.79885">
        <ele>585.1</ele>
        <time>2020-06-07T08:06:59.000Z</time>
      </trkpt>
      <trkpt lat="45.84245" lon="4.79883">
        <ele>585.2</ele>
        <time>2020-06-07T08:07:00.000Z</time>
      </trkpt>
      <trkpt lat="45.84244" lon="4.79881">
        <ele>585.4</ele>
        <time>2020-06-07T08:07:01.000Z</time>
      </trkpt>
      <trkpt lat="45.84243" lon="4.7988">
        <ele>585.5</ele>
        <time>2020-06-07T08:07:02.000Z</time>
      </trkpt>
      <trkpt lat="45.84242" lon="4.79878">
        <ele>585.7</ele>
        <time>2020-06-07T08:07:03.000Z</time>
      </trkpt>
      <trkpt lat="45.84241" lon="4.79876">
        <ele>585.8</ele>
        <time>2020-06-07T08:07:04.000Z</time>
      </trkpt>
      <trkpt lat="45.84241" lon="4.79875">
        <ele>586</ele>
        <time>2020-06-07T08:07:05.000Z</time>
      </trkpt>
      <trkpt lat="45.8424" lon="4.79873">
        <ele>586.1</ele>
        <time>2020-06-07T08:07:06.000Z</time>
      </trkpt>
      <trkpt lat="45.84239" lon="4.79872">
        <ele>586.3</ele>
        <time>2020-06-07T08:07:07.000Z</time>
      </trkpt>
      <trkpt lat="45.84238" lon="4.7987">
        <ele>586.8</ele>
        <time>2020-06-07T08:07:08.000Z</time>
      </trkpt>
      <trkpt lat="45.84237" lon="4.79868">
        <ele>587</ele>
        <time>2020-06-07T08:07:09.000Z</time>
      </trkpt>
      <trkpt lat="45.84236" lon="4.79866">
        <ele>587.2</ele>
        <time>2020-06-07T08:07:10.000Z</time>
      </trkpt>
      <trkpt lat="45.84235" lon="4.79864">
        <ele>587.4</ele>
        <time>2020-06-07T08:07:11.000Z</time>
      </trkpt>
      <trkpt lat="45.84235" lon="4.79862">
        <ele>587.6</ele>
        <time>2020-06-07T08:07:12.000Z</time>
      </trkpt>
      <trkpt lat="45.84234" lon="4.79861">
        <ele>587.8</ele>
        <time>2020-06-07T08:07:13.000Z</time>
      </trkpt>
      <trkpt lat="45.84233" lon="4.79859">
        <ele>587.9</ele>
        <time>2020-06-07T08:07:14.000Z</time>
      </trkpt>
      <trkpt lat="45.84232" lon="4.79857">
        <ele>588.1</ele>
        <time>2020-06-07T08:07:15.000Z</time>
      </trkpt>
      <trkpt lat="45.84232" lon="4.79855">
        <ele>588.3</ele>
        <time>2020-06-07T08:07:16.000Z</time>
      </trkpt>
      <trkpt lat="45.84231" lon="4.79853">
        <ele>588.4</ele>
        <time>2020-06-07T08:07:17.000Z</time>
      </trkpt>
      <trkpt lat="45.84231" lon="4.79851">
        <ele>588.6</ele>
        <time>2020-06-07T08:07:18.000Z</time>
      </trkpt>
      <trkpt lat="45.8423" lon="4.79849">
        <ele>588.8</ele>
        <time>2020-06-07T08:07:19.000Z</time>
      </trkpt>
      <trkpt lat="45.84229" lon="4.79847">
        <ele>588.9</ele>
        <time>2020-06-07T08:07:20.000Z</time>
      </trkpt>
      <trkpt lat="45.84229" lon="4.79846">
        <ele>589.1</ele>
        <time>2020-06-07T08:07:21.000Z</time>
      </trkpt>
      <trkpt lat="45.84229" lon="4.79843">
        <ele>589.3</ele>
        <time>2020-06-07T08:07:22.000Z</time>
      </trkpt>
      <trkpt lat="45.84229" lon="4.79841">
        <ele>589.4</ele>
        <time>2020-06-07T08:07:23.000Z</time>
      </trkpt>
      <trkpt lat="45.84228" lon="4.79839">
        <ele>589.6</ele>
        <time>2020-06-07T08:07:24.000Z</time>
      </trkpt>
      <trkpt lat="45.84228" lon="4.79837">
        <ele>589.8</ele>
        <time>2020-06-07T08:07:25.000Z</time>
      </trkpt>
      <trkpt lat="45.84227" lon="4.79836">
        <ele>589.9</ele>
        <time>2020-06-07T08:07:26.000Z</time>
      </trkpt>
      <trkpt lat="45.84227" lon="4.79834">
        <ele>590.1</ele>
        <time>2020-06-07T08:07:27.000Z</time>
      </trkpt>
      <trkpt lat="45.84227" lon="4.79832">
        <ele>590.2</ele>
        <time>2020-06-07T08:07:28.000Z</time>
      </trkpt>
      <trkpt lat="45.84226" lon="4.7983">
        <ele>590.4</ele>
        <time>2020-06-07T08:07:29.000Z</time>
      </trkpt>
      <trkpt lat="45.84226" lon="4.79828">
        <ele>590.5</ele>
        <time>2020-06-07T08:07:30.000Z</time>
      </trkpt>
      <trkpt lat="45.84225" lon="4.79826">
        <ele>590.7</ele>
        <time>2020-06-07T08:07:31.000Z</time>
      </trkpt>
      <trkpt lat="45.84225" lon="4.79824">
        <ele>590.8</ele>
        <time>2020-06-07T08:07:32.000Z</time>
      </trkpt>
      <trkpt lat="45.84224" lon="4.79823">
        <ele>591</ele>
        <time>2020-06-07T08:07:33.000Z</time>
      </trkpt>
      <trkpt lat="45.84224" lon="4.79821">
        <ele>591.1</ele>
        <time>2020-06-07T08:07:34.000Z</time>
      </trkpt>
      <trkpt lat="45.84223" lon="4.7982">
        <ele>591.2</ele>
        <time>2020-06-07T08:07:35.000Z</time>
      </trkpt>
      <trkpt lat="45.84223" lon="4.79818">
        <ele>591.3</ele>
        <time>2020-06-07T08:07:36.000Z</time>
      </trkpt>
      <trkpt lat="45.84222" lon="4.79817">
        <ele>591.4</ele>
        <time>2020-06-07T08:07:37.000Z</time>
      </trkpt>
      <trkpt lat="45.84222" lon="4.79815">
        <ele>592</ele>
        <time>2020-06-07T08:07:38.000Z</time>
      </trkpt>
      <trkpt lat="45.84222" lon="4.79814">
        <ele>591.9</ele>
        <time>2020-06-07T08:07:39.000Z</time>
      </trkpt>
      <trkpt lat="45.84222" lon="4.79814">
        <ele>591.9</ele>
        <time>2020-06-07T08:07:40.000Z</time>
      </trkpt>
      <trkpt lat="45.84222" lon="4.79813">
        <ele>591.9</ele>
        <time>2020-06-07T08:07:41.000Z</time>
      </trkpt>
      <trkpt lat="45.84222" lon="4.79814">
        <ele>591.9</ele>
        <time>2020-06-07T08:07:42.000Z</time>
      </trkpt>
      <trkpt lat="45.84229" lon="4.79822">
        <ele>591.2</ele>
        <time>2020-06-07T08:16:30.000Z</time>
      </trkpt>
      <trkpt lat="45.84232" lon="4.79823">
        <ele>591</ele>
        <time>2020-06-07T08:16:31.000Z</time>
      </trkpt>
      <trkpt lat="45.84235" lon="4.79824">
        <ele>590.8</ele>
        <time>2020-06-07T08:16:32.000Z</time>
      </trkpt>
      <trkpt lat="45.84238" lon="4.79825">
        <ele>590.5</ele>
        <time>2020-06-07T08:16:33.000Z</time>
      </trkpt>
      <trkpt lat="45.8424" lon="4.79827">
        <ele>590.2</ele>
        <time>2020-06-07T08:16:34.000Z</time>
      </trkpt>
      <trkpt lat="45.84243" lon="4.7983">
        <ele>589.9</ele>
        <time>2020-06-07T08:16:35.000Z</time>
      </trkpt>
      <trkpt lat="45.84246" lon="4.79833">
        <ele>589.6</ele>
        <time>2020-06-07T08:16:36.000Z</time>
      </trkpt>
      <trkpt lat="45.84248" lon="4.79836">
        <ele>589.2</ele>
        <time>2020-06-07T08:16:37.000Z</time>
      </trkpt>
      <trkpt lat="45.8425" lon="4.79839">
        <ele>588.9</ele>
        <time>2020-06-07T08:16:38.000Z</time>
      </trkpt>
      <trkpt lat="45.84252" lon="4.79843">
        <ele>588.6</ele>
        <time>2020-06-07T08:16:39.000Z</time>
      </trkpt>
      <trkpt lat="45.84255" lon="4.79845">
        <ele>588.3</ele>
        <time>2020-06-07T08:16:40.000Z</time>
      </trkpt>
      <trkpt lat="45.84257" lon="4.79848">
        <ele>587.9</ele>
        <time>2020-06-07T08:16:41.000Z</time>
      </trkpt>
      <trkpt lat="45.84259" lon="4.79852">
        <ele>587.6</ele>
        <time>2020-06-07T08:16:42.000Z</time>
      </trkpt>
      <trkpt lat="45.84262" lon="4.79855">
        <ele>587.2</ele>
        <time>2020-06-07T08:16:43.000Z</time>
      </trkpt>
      <trkpt lat="45.84265" lon="4.79859">
        <ele>586.7</ele>
        <time>2020-06-07T08:16:44.000Z</time>
      </trkpt>
      <trkpt lat="45.84268" lon="4.79863">
        <ele>586.3</ele>
        <time>2020-06-07T08:16:45.000Z</time>
      </trkpt>
      <trkpt lat="45.84271" lon="4.79867">
        <ele>585.8</ele>
        <time>2020-06-07T08:16:46.000Z</time>
      </trkpt>
      <trkpt lat="45.84274" lon="4.79871">
        <ele>585.4</ele>
        <time>2020-06-07T08:16:47.000Z</time>
      </trkpt>
      <trkpt lat="45.84278" lon="4.79875">
        <ele>584.8</ele>
        <time>2020-06-07T08:16:48.000Z</time>
      </trkpt>
      <trkpt lat="45.84281" lon="4.79879">
        <ele>584.4</ele>
        <time>2020-06-07T08:16:49.000Z</time>
      </trkpt>
      <trkpt lat="45.84285" lon="4.79883">
        <ele>584</ele>
        <time>2020-06-07T08:16:50.000Z</time>
      </trkpt>
      <trkpt lat="45.84288" lon="4.79885">
        <ele>583.6</ele>
        <time>2020-06-07T08:16:51.000Z</time>
      </trkpt>
      <trkpt lat="45.8429" lon="4.79888">
        <ele>583.3</ele>
        <time>2020-06-07T08:16:52.000Z</time>
      </trkpt>
      <trkpt lat="45.84293" lon="4.79891">
        <ele>583</ele>
        <time>2020-06-07T08:16:53.000Z</time>
      </trkpt>
      <trkpt lat="45.84295" lon="4.79894">
        <ele>582.7</ele>
        <time>2020-06-07T08:16:54.000Z</time>
      </trkpt>
      <trkpt lat="45.84298" lon="4.79897">
        <ele>582.4</ele>
        <time>2020-06-07T08:16:55.000Z</time>
      </trkpt>
      <trkpt lat="45.843" lon="4.799">
        <ele>582.1</ele>
        <time>2020-06-07T08:16:56.000Z</time>
      </trkpt>
      <trkpt lat="45.84303" lon="4.79903">
        <ele>581.7</ele>
        <time>2020-06-07T08:16:57.000Z</time>
      </trkpt>
      <trkpt lat="45.84306" lon="4.79906">
        <ele>581.4</ele>
        <time>2020-06-07T08:16:58.000Z</time>
      </trkpt>
      <trkpt lat="45.84308" lon="4.79909">
        <ele>581</ele>
        <time>2020-06-07T08:16:59.000Z</time>
      </trkpt>
      <trkpt lat="45.84311" lon="4.79911">
        <ele>580.7</ele>
        <time>2020-06-07T08:17:00.000Z</time>
      </trkpt>
      <trkpt lat="45.84313" lon="4.79913">
        <ele>580.3</ele>
        <time>2020-06-07T08:17:01.000Z</time>
      </trkpt>
      <trkpt lat="45.84315" lon="4.79915">
        <ele>580</ele>
        <time>2020-06-07T08:17:02.000Z</time>
      </trkpt>
      <trkpt lat="45.84317" lon="4.79918">
        <ele>579.7</ele>
        <time>2020-06-07T08:17:03.000Z</time>
      </trkpt>
      <trkpt lat="45.8432" lon="4.7992">
        <ele>579.4</ele>
        <time>2020-06-07T08:17:04.000Z</time>
      </trkpt>
      <trkpt lat="45.84322" lon="4.79923">
        <ele>579.1</ele>
        <time>2020-06-07T08:17:05.000Z</time>
      </trkpt>
      <trkpt lat="45.84324" lon="4.79925">
        <ele>578.7</ele>
        <time>2020-06-07T08:17:06.000Z</time>
      </trkpt>
      <trkpt lat="45.84326" lon="4.79928">
        <ele>577.9</ele>
        <time>2020-06-07T08:17:07.000Z</time>
      </trkpt>
      <trkpt lat="45.84328" lon="4.7993">
        <ele>577.6</ele>
        <time>2020-06-07T08:17:08.000Z</time>
      </trkpt>
      <trkpt lat="45.8433" lon="4.79932">
        <ele>577.2</ele>
        <time>2020-06-07T08:17:09.000Z</time>
      </trkpt>
      <trkpt lat="45.84332" lon="4.79933">
        <ele>577</ele>
        <time>2020-06-07T08:17:10.000Z</time>
      </trkpt>
      <trkpt lat="45.84334" lon="4.79932">
        <ele>576.7</ele>
        <time>2020-06-07T08:17:11.000Z</time>
      </trkpt>
      <trkpt lat="45.84336" lon="4.79931">
        <ele>576.4</ele>
        <time>2020-06-07T08:17:12.000Z</time>
      </trkpt>
      <trkpt lat="45.84338" lon="4.79929">
        <ele>576.1</ele>
        <time>2020-06-07T08:17:13.000Z</time>
      </trkpt>
      <trkpt lat="45.84339" lon="4.79928">
        <ele>575.8</ele>
        <time>2020-06-07T08:17:14.000Z</time>
      </trkpt>
      <trkpt lat="45.8434" lon="4.79926">
        <ele>575.5</ele>
        <time>2020-06-07T08:17:15.000Z</time>
      </trkpt>
      <trkpt lat="45.84341" lon="4.79926">
        <ele>575.4</ele>
        <time>2020-06-07T08:17:16.000Z</time>
      </trkpt>
      <trkpt lat="45.84342" lon="4.79925">
        <ele>575.2</ele>
        <time>2020-06-07T08:17:17.000Z</time>
      </trkpt>
      <trkpt lat="45.84342" lon="4.79925">
        <ele>575.1</ele>
        <time>2020-06-07T08:17:18.000Z</time>
      </trkpt>
      <trkpt lat="45.84343" lon="4.79924">
        <ele>574.9</ele>
        <time>2020-06-07T08:17:19.000Z</time>
      </trkpt>
      <trkpt lat="45.84344" lon="4.79924">
        <ele>574.8</ele>
        <time>2020-06-07T08:17:20.000Z</time>
      </trkpt>
      <trkpt lat="45.84345" lon="4.79925">
        <ele>574.5</ele>
        <time>2020-06-07T08:17:21.000Z</time>
      </trkpt>
      <trkpt lat="45.84347" lon="4.79925">
        <ele>574.3</ele>
        <time>2020-06-07T08:17:22.000Z</time>
      </trkpt>
      <trkpt lat="45.84348" lon="4.79927">
        <ele>574.1</ele>
        <time>2020-06-07T08:17:23.000Z</time>
      </trkpt>
      <trkpt lat="45.84349" lon="4.79927">
        <ele>573.9</ele>
        <time>2020-06-07T08:17:24.000Z</time>
      </trkpt>
      <trkpt lat="45.84349" lon="4.79927">
        <ele>573.7</ele>
        <time>2020-06-07T08:17:25.000Z</time>
      </trkpt>
      <trkpt lat="45.8435" lon="4.79928">
        <ele>573.6</ele>
        <time>2020-06-07T08:17:26.000Z</time>
      </trkpt>
      <trkpt lat="45.84354" lon="4.79933">
        <ele>572.6</ele>
        <time>2020-06-07T08:17:32.000Z</time>
      </trkpt>
      <trkpt lat="45.84355" lon="4.79934">
        <ele>572.3</ele>
        <time>2020-06-07T08:17:33.000Z</time>
      </trkpt>
      <trkpt lat="45.84356" lon="4.79936">
        <ele>572.1</ele>
        <time>2020-06-07T08:17:34.000Z</time>
      </trkpt>
      <trkpt lat="45.84357" lon="4.79937">
        <ele>571.9</ele>
        <time>2020-06-07T08:17:35.000Z</time>
      </trkpt>
      <trkpt lat="45.84358" lon="4.79938">
        <ele>571.7</ele>
        <time>2020-06-07T08:17:36.000Z</time>
      </trkpt>
      <trkpt lat="45.8436" lon="4.79939">
        <ele>571.4</ele>
        <time>2020-06-07T08:17:37.000Z</time>
      </trkpt>
      <trkpt lat="45.84361" lon="4.79941">
        <ele>571.1</ele>
        <time>2020-06-07T08:17:38.000Z</time>
      </trkpt>
      <trkpt lat="45.84362" lon="4.79942">
        <ele>570.9</ele>
        <time>2020-06-07T08:17:39.000Z</time>
      </trkpt>
      <trkpt lat="45.84363" lon="4.79944">
        <ele>570.6</ele>
        <time>2020-06-07T08:17:40.000Z</time>
      </trkpt>
      <trkpt lat="45.84364" lon="4.79946">
        <ele>570.4</ele>
        <time>2020-06-07T08:17:41.000Z</time>
      </trkpt>
      <trkpt lat="45.84365" lon="4.79947">
        <ele>570.2</ele>
        <time>2020-06-07T08:17:42.000Z</time>
      </trkpt>
      <trkpt lat="45.84367" lon="4.79948">
        <ele>569.9</ele>
        <time>2020-06-07T08:17:43.000Z</time>
      </trkpt>
      <trkpt lat="45.84369" lon="4.7995">
        <ele>569.7</ele>
        <time>2020-06-07T08:17:44.000Z</time>
      </trkpt>
      <trkpt lat="45.8437" lon="4.79954">
        <ele>569.4</ele>
        <time>2020-06-07T08:17:45.000Z</time>
      </trkpt>
      <trkpt lat="45.84371" lon="4.79956">
        <ele>569.2</ele>
        <time>2020-06-07T08:17:46.000Z</time>
      </trkpt>
      <trkpt lat="45.84372" lon="4.79959">
        <ele>569</ele>
        <time>2020-06-07T08:17:47.000Z</time>
      </trkpt>
      <trkpt lat="45.84373" lon="4.79961">
        <ele>568.9</ele>
        <time>2020-06-07T08:17:48.000Z</time>
      </trkpt>
      <trkpt lat="45.84374" lon="4.79963">
        <ele>568.8</ele>
        <time>2020-06-07T08:17:49.000Z</time>
      </trkpt>
      <trkpt lat="45.84375" lon="4.79965">
        <ele>568.6</ele>
        <time>2020-06-07T08:17:50.000Z</time>
      </trkpt>
      <trkpt lat="45.84376" lon="4.79967">
        <ele>568.5</ele>
        <time>2020-06-07T08:17:51.000Z</time>
      </trkpt>
      <trkpt lat="45.84378" lon="4.7997">
        <ele>568.3</ele>
        <time>2020-06-07T08:17:52.000Z</time>
      </trkpt>
      <trkpt lat="45.84381" lon="4.79974">
        <ele>568</ele>
        <time>2020-06-07T08:17:53.000Z</time>
      </trkpt>
      <trkpt lat="45.84384" lon="4.79978">
        <ele>567.7</ele>
        <time>2020-06-07T08:17:54.000Z</time>
      </trkpt>
      <trkpt lat="45.84387" lon="4.79981">
        <ele>567.3</ele>
        <time>2020-06-07T08:17:55.000Z</time>
      </trkpt>
      <trkpt lat="45.8439" lon="4.79985">
        <ele>566.9</ele>
        <time>2020-06-07T08:17:56.000Z</time>
      </trkpt>
      <trkpt lat="45.84392" lon="4.79989">
        <ele>566.5</ele>
        <time>2020-06-07T08:17:57.000Z</time>
      </trkpt>
      <trkpt lat="45.84394" lon="4.79992">
        <ele>566.2</ele>
        <time>2020-06-07T08:17:58.000Z</time>
      </trkpt>
      <trkpt lat="45.84396" lon="4.79995">
        <ele>565.9</ele>
        <time>2020-06-07T08:17:59.000Z</time>
      </trkpt>
      <trkpt lat="45.84397" lon="4.79997">
        <ele>565.6</ele>
        <time>2020-06-07T08:18:00.000Z</time>
      </trkpt>
      <trkpt lat="45.84398" lon="4.8">
        <ele>565.4</ele>
        <time>2020-06-07T08:18:01.000Z</time>
      </trkpt>
      <trkpt lat="45.84399" lon="4.80003">
        <ele>565.1</ele>
        <time>2020-06-07T08:18:02.000Z</time>
      </trkpt>
      <trkpt lat="45.844" lon="4.80005">
        <ele>565</ele>
        <time>2020-06-07T08:18:03.000Z</time>
      </trkpt>
      <trkpt lat="45.844" lon="4.80007">
        <ele>564.8</ele>
        <time>2020-06-07T08:18:04.000Z</time>
      </trkpt>
      <trkpt lat="45.84402" lon="4.80009">
        <ele>564.6</ele>
        <time>2020-06-07T08:18:05.000Z</time>
      </trkpt>
      <trkpt lat="45.84402" lon="4.80011">
        <ele>564.5</ele>
        <time>2020-06-07T08:18:06.000Z</time>
      </trkpt>
      <trkpt lat="45.84402" lon="4.80012">
        <ele>564.4</ele>
        <time>2020-06-07T08:18:07.000Z</time>
      </trkpt>
      <trkpt lat="45.84403" lon="4.80013">
        <ele>564.3</ele>
        <time>2020-06-07T08:18:08.000Z</time>
      </trkpt>
      <trkpt lat="45.84404" lon="4.80015">
        <ele>564.2</ele>
        <time>2020-06-07T08:18:09.000Z</time>
      </trkpt>
      <trkpt lat="45.84405" lon="4.80016">
        <ele>564.1</ele>
        <time>2020-06-07T08:18:10.000Z</time>
      </trkpt>
      <trkpt lat="45.84406" lon="4.80017">
        <ele>563.9</ele>
        <time>2020-06-07T08:18:11.000Z</time>
      </trkpt>
      <trkpt lat="45.84407" lon="4.80019">
        <ele>563.8</ele>
        <time>2020-06-07T08:18:12.000Z</time>
      </trkpt>
      <trkpt lat="45.84408" lon="4.80022">
        <ele>563.7</ele>
        <time>2020-06-07T08:18:13.000Z</time>
      </trkpt>
      <trkpt lat="45.84408" lon="4.80024">
        <ele>563.6</ele>
        <time>2020-06-07T08:18:14.000Z</time>
      </trkpt>
      <trkpt lat="45.8441" lon="4.80026">
        <ele>563.4</ele>
        <time>2020-06-07T08:18:15.000Z</time>
      </trkpt>
      <trkpt lat="45.84412" lon="4.80028">
        <ele>563.2</ele>
        <time>2020-06-07T08:18:16.000Z</time>
      </trkpt>
      <trkpt lat="45.84414" lon="4.8003">
        <ele>563</ele>
        <time>2020-06-07T08:18:17.000Z</time>
      </trkpt>
      <trkpt lat="45.84417" lon="4.80031">
        <ele>562.8</ele>
        <time>2020-06-07T08:18:18.000Z</time>
      </trkpt>
      <trkpt lat="45.84419" lon="4.80033">
        <ele>562.6</ele>
        <time>2020-06-07T08:18:19.000Z</time>
      </trkpt>
      <trkpt lat="45.84422" lon="4.80035">
        <ele>562.3</ele>
        <time>2020-06-07T08:18:20.000Z</time>
      </trkpt>
      <trkpt lat="45.84424" lon="4.80038">
        <ele>562.1</ele>
        <time>2020-06-07T08:18:21.000Z</time>
      </trkpt>
      <trkpt lat="45.84426" lon="4.80041">
        <ele>561.8</ele>
        <time>2020-06-07T08:18:22.000Z</time>
      </trkpt>
      <trkpt lat="45.8443" lon="4.80044">
        <ele>561.4</ele>
        <time>2020-06-07T08:18:23.000Z</time>
      </trkpt>
      <trkpt lat="45.84432" lon="4.80046">
        <ele>561.1</ele>
        <time>2020-06-07T08:18:24.000Z</time>
      </trkpt>
      <trkpt lat="45.84434" lon="4.80048">
        <ele>561</ele>
        <time>2020-06-07T08:18:25.000Z</time>
      </trkpt>
      <trkpt lat="45.84436" lon="4.8005">
        <ele>560.9</ele>
        <time>2020-06-07T08:18:26.000Z</time>
      </trkpt>
      <trkpt lat="45.84437" lon="4.80052">
        <ele>560.8</ele>
        <time>2020-06-07T08:18:27.000Z</time>
      </trkpt>
      <trkpt lat="45.84438" lon="4.80054">
        <ele>560.6</ele>
        <time>2020-06-07T08:18:28.000Z</time>
      </trkpt>
      <trkpt lat="45.84441" lon="4.80056">
        <ele>560.4</ele>
        <time>2020-06-07T08:18:29.000Z</time>
      </trkpt>
      <trkpt lat="45.84443" lon="4.80058">
        <ele>560.2</ele>
        <time>2020-06-07T08:18:30.000Z</time>
      </trkpt>
      <trkpt lat="45.84446" lon="4.80061">
        <ele>560</ele>
        <time>2020-06-07T08:18:31.000Z</time>
      </trkpt>
      <trkpt lat="45.84447" lon="4.80064">
        <ele>559.8</ele>
        <time>2020-06-07T08:18:32.000Z</time>
      </trkpt>
      <trkpt lat="45.84449" lon="4.80067">
        <ele>559.7</ele>
        <time>2020-06-07T08:18:33.000Z</time>
      </trkpt>
      <trkpt lat="45.84451" lon="4.8007">
        <ele>559.5</ele>
        <time>2020-06-07T08:18:34.000Z</time>
      </trkpt>
      <trkpt lat="45.84454" lon="4.80071">
        <ele>559.3</ele>
        <time>2020-06-07T08:18:35.000Z</time>
      </trkpt>
      <trkpt lat="45.84457" lon="4.80073">
        <ele>559</ele>
        <time>2020-06-07T08:18:36.000Z</time>
      </trkpt>
      <trkpt lat="45.84461" lon="4.80074">
        <ele>558.8</ele>
        <time>2020-06-07T08:18:37.000Z</time>
      </trkpt>
      <trkpt lat="45.84464" lon="4.80075">
        <ele>558.6</ele>
        <time>2020-06-07T08:18:38.000Z</time>
      </trkpt>
      <trkpt lat="45.84465" lon="4.80075">
        <ele>558.5</ele>
        <time>2020-06-07T08:18:39.000Z</time>
      </trkpt>
      <trkpt lat="45.84467" lon="4.80074">
        <ele>558.4</ele>
        <time>2020-06-07T08:18:40.000Z</time>
      </trkpt>
      <trkpt lat="45.84468" lon="4.80074">
        <ele>558.3</ele>
        <time>2020-06-07T08:18:41.000Z</time>
      </trkpt>
      <trkpt lat="45.84469" lon="4.80073">
        <ele>558.2</ele>
        <time>2020-06-07T08:18:42.000Z</time>
      </trkpt>
      <trkpt lat="45.8447" lon="4.80072">
        <ele>554.5</ele>
        <time>2020-06-07T08:18:43.000Z</time>
      </trkpt>
      <trkpt lat="45.84472" lon="4.80071">
        <ele>554.2</ele>
        <time>2020-06-07T08:18:44.000Z</time>
      </trkpt>
      <trkpt lat="45.84474" lon="4.8007">
        <ele>553.6</ele>
        <time>2020-06-07T08:18:45.000Z</time>
      </trkpt>
      <trkpt lat="45.84475" lon="4.80069">
        <ele>553.3</ele>
        <time>2020-06-07T08:18:46.000Z</time>
      </trkpt>
      <trkpt lat="45.84476" lon="4.80068">
        <ele>553</ele>
        <time>2020-06-07T08:18:47.000Z</time>
      </trkpt>
      <trkpt lat="45.84477" lon="4.80065">
        <ele>552.6</ele>
        <time>2020-06-07T08:18:48.000Z</time>
      </trkpt>
      <trkpt lat="45.84478" lon="4.80064">
        <ele>552.3</ele>
        <time>2020-06-07T08:18:49.000Z</time>
      </trkpt>
      <trkpt lat="45.84478" lon="4.80062">
        <ele>551.9</ele>
        <time>2020-06-07T08:18:50.000Z</time>
      </trkpt>
      <trkpt lat="45.84478" lon="4.8006">
        <ele>551.6</ele>
        <time>2020-06-07T08:18:51.000Z</time>
      </trkpt>
      <trkpt lat="45.84478" lon="4.80058">
        <ele>551.2</ele>
        <time>2020-06-07T08:18:52.000Z</time>
      </trkpt>
      <trkpt lat="45.84478" lon="4.80056">
        <ele>550.9</ele>
        <time>2020-06-07T08:18:53.000Z</time>
      </trkpt>
      <trkpt lat="45.84477" lon="4.80054">
        <ele>550.6</ele>
        <time>2020-06-07T08:18:54.000Z</time>
      </trkpt>
      <trkpt lat="45.84476" lon="4.80053">
        <ele>550.4</ele>
        <time>2020-06-07T08:18:55.000Z</time>
      </trkpt>
      <trkpt lat="45.84476" lon="4.80052">
        <ele>550.1</ele>
        <time>2020-06-07T08:18:56.000Z</time>
      </trkpt>
      <trkpt lat="45.84476" lon="4.80051">
        <ele>550</ele>
        <time>2020-06-07T08:18:57.000Z</time>
      </trkpt>
      <trkpt lat="45.84475" lon="4.8005">
        <ele>549.7</ele>
        <time>2020-06-07T08:18:58.000Z</time>
      </trkpt>
      <trkpt lat="45.84474" lon="4.80048">
        <ele>549.5</ele>
        <time>2020-06-07T08:18:59.000Z</time>
      </trkpt>
      <trkpt lat="45.84474" lon="4.80047">
        <ele>549.2</ele>
        <time>2020-06-07T08:19:00.000Z</time>
      </trkpt>
      <trkpt lat="45.84473" lon="4.80046">
        <ele>548.9</ele>
        <time>2020-06-07T08:19:01.000Z</time>
      </trkpt>
      <trkpt lat="45.84472" lon="4.80045">
        <ele>548.7</ele>
        <time>2020-06-07T08:19:02.000Z</time>
      </trkpt>
      <trkpt lat="45.84472" lon="4.80044">
        <ele>548.5</ele>
        <time>2020-06-07T08:19:03.000Z</time>
      </trkpt>
      <trkpt lat="45.84471" lon="4.80043">
        <ele>548.3</ele>
        <time>2020-06-07T08:19:04.000Z</time>
      </trkpt>
      <trkpt lat="45.84471" lon="4.80042">
        <ele>548.2</ele>
        <time>2020-06-07T08:19:05.000Z</time>
      </trkpt>
      <trkpt lat="45.84471" lon="4.8004">
        <ele>547.9</ele>
        <time>2020-06-07T08:19:06.000Z</time>
      </trkpt>
      <trkpt lat="45.84471" lon="4.80039">
        <ele>547.7</ele>
        <time>2020-06-07T08:19:07.000Z</time>
      </trkpt>
      <trkpt lat="45.8447" lon="4.80038">
        <ele>547.5</ele>
        <time>2020-06-07T08:19:08.000Z</time>
      </trkpt>
      <trkpt lat="45.8447" lon="4.80037">
        <ele>547.3</ele>
        <time>2020-06-07T08:19:09.000Z</time>
      </trkpt>
      <trkpt lat="45.84469" lon="4.80035">
        <ele>547</ele>
        <time>2020-06-07T08:19:10.000Z</time>
      </trkpt>
      <trkpt lat="45.84469" lon="4.80034">
        <ele>546.7</ele>
        <time>2020-06-07T08:19:11.000Z</time>
      </trkpt>
      <trkpt lat="45.84468" lon="4.80032">
        <ele>546.4</ele>
        <time>2020-06-07T08:19:12.000Z</time>
      </trkpt>
      <trkpt lat="45.84467" lon="4.80031">
        <ele>546</ele>
        <time>2020-06-07T08:19:13.000Z</time>
      </trkpt>
      <trkpt lat="45.84466" lon="4.80031">
        <ele>545.8</ele>
        <time>2020-06-07T08:19:14.000Z</time>
      </trkpt>
      <trkpt lat="45.84466" lon="4.8003">
        <ele>545.7</ele>
        <time>2020-06-07T08:19:15.000Z</time>
      </trkpt>
      <trkpt lat="45.84466" lon="4.80029">
        <ele>545.5</ele>
        <time>2020-06-07T08:19:16.000Z</time>
      </trkpt>
      <trkpt lat="45.84465" lon="4.80029">
        <ele>545.4</ele>
        <time>2020-06-07T08:19:17.000Z</time>
      </trkpt>
      <trkpt lat="45.84465" lon="4.80028">
        <ele>545.3</ele>
        <time>2020-06-07T08:19:18.000Z</time>
      </trkpt>
      <trkpt lat="45.84465" lon="4.80027">
        <ele>545.2</ele>
        <time>2020-06-07T08:19:19.000Z</time>
      </trkpt>
      <trkpt lat="45.84464" lon="4.80025">
        <ele>544.8</ele>
        <time>2020-06-07T08:19:20.000Z</time>
      </trkpt>
      <trkpt lat="45.84464" lon="4.79982">
        <ele>536.6</ele>
        <time>2020-06-07T08:19:51.000Z</time>
      </trkpt>
      <trkpt lat="45.84465" lon="4.79979">
        <ele>535.7</ele>
        <time>2020-06-07T08:19:52.000Z</time>
      </trkpt>
      <trkpt lat="45.84467" lon="4.79975">
        <ele>534.7</ele>
        <time>2020-06-07T08:19:53.000Z</time>
      </trkpt>
      <trkpt lat="45.84468" lon="4.79972">
        <ele>533.9</ele>
        <time>2020-06-07T08:19:54.000Z</time>
      </trkpt>
      <trkpt lat="45.84468" lon="4.79969">
        <ele>529.9</ele>
        <time>2020-06-07T08:19:55.000Z</time>
      </trkpt>
      <trkpt lat="45.84468" lon="4.79966">
        <ele>529.8</ele>
        <time>2020-06-07T08:19:56.000Z</time>
      </trkpt>
      <trkpt lat="45.84468" lon="4.79963">
        <ele>529.7</ele>
        <time>2020-06-07T08:19:57.000Z</time>
      </trkpt>
      <trkpt lat="45.84467" lon="4.79962">
        <ele>529.6</ele>
        <time>2020-06-07T08:19:58.000Z</time>
      </trkpt>
      <trkpt lat="45.84467" lon="4.79962">
        <ele>529.6</ele>
        <time>2020-06-07T08:19:59.000Z</time>
      </trkpt>
      <trkpt lat="45.84467" lon="4.7996">
        <ele>529.6</ele>
        <time>2020-06-07T08:20:00.000Z</time>
      </trkpt>
      <trkpt lat="45.84456" lon="4.79948">
        <ele>529.7</ele>
        <time>2020-06-07T08:20:37.000Z</time>
      </trkpt>
      <trkpt lat="45.84455" lon="4.79946">
        <ele>529.8</ele>
        <time>2020-06-07T08:20:38.000Z</time>
      </trkpt>
      <trkpt lat="45.84453" lon="4.79945">
        <ele>529.9</ele>
        <time>2020-06-07T08:20:39.000Z</time>
      </trkpt>
      <trkpt lat="45.84452" lon="4.79943">
        <ele>530</ele>
        <time>2020-06-07T08:20:40.000Z</time>
      </trkpt>
      <trkpt lat="45.8445" lon="4.79941">
        <ele>530.2</ele>
        <time>2020-06-07T08:20:41.000Z</time>
      </trkpt>
      <trkpt lat="45.84449" lon="4.7994">
        <ele>530.4</ele>
        <time>2020-06-07T08:20:42.000Z</time>
      </trkpt>
      <trkpt lat="45.84447" lon="4.79938">
        <ele>530.6</ele>
        <time>2020-06-07T08:20:43.000Z</time>
      </trkpt>
      <trkpt lat="45.84446" lon="4.79936">
        <ele>530.7</ele>
        <time>2020-06-07T08:20:44.000Z</time>
      </trkpt>
      <trkpt lat="45.84445" lon="4.79935">
        <ele>530.9</ele>
        <time>2020-06-07T08:20:45.000Z</time>
      </trkpt>
      <trkpt lat="45.84444" lon="4.79933">
        <ele>531.1</ele>
        <time>2020-06-07T08:20:46.000Z</time>
      </trkpt>
      <trkpt lat="45.84442" lon="4.79932">
        <ele>531.3</ele>
        <time>2020-06-07T08:20:47.000Z</time>
      </trkpt>
      <trkpt lat="45.8444" lon="4.7993">
        <ele>531.6</ele>
        <time>2020-06-07T08:20:48.000Z</time>
      </trkpt>
      <trkpt lat="45.84439" lon="4.79929">
        <ele>531.8</ele>
        <time>2020-06-07T08:20:49.000Z</time>
      </trkpt>
      <trkpt lat="45.84437" lon="4.79927">
        <ele>531.9</ele>
        <time>2020-06-07T08:20:50.000Z</time>
      </trkpt>
      <trkpt lat="45.84436" lon="4.79925">
        <ele>532.1</ele>
        <time>2020-06-07T08:20:51.000Z</time>
      </trkpt>
      <trkpt lat="45.84436" lon="4.79923">
        <ele>532.3</ele>
        <time>2020-06-07T08:20:52.000Z</time>
      </trkpt>
      <trkpt lat="45.84435" lon="4.79921">
        <ele>532.4</ele>
        <time>2020-06-07T08:20:53.000Z</time>
      </trkpt>
      <trkpt lat="45.84434" lon="4.79919">
        <ele>532.6</ele>
        <time>2020-06-07T08:20:54.000Z</time>
      </trkpt>
      <trkpt lat="45.84433" lon="4.79916">
        <ele>532.7</ele>
        <time>2020-06-07T08:20:55.000Z</time>
      </trkpt>
      <trkpt lat="45.84431" lon="4.79914">
        <ele>532.9</ele>
        <time>2020-06-07T08:20:56.000Z</time>
      </trkpt>
      <trkpt lat="45.84428" lon="4.79913">
        <ele>533.1</ele>
        <time>2020-06-07T08:20:57.000Z</time>
      </trkpt>
      <trkpt lat="45.84426" lon="4.79912">
        <ele>533.3</ele>
        <time>2020-06-07T08:20:58.000Z</time>
      </trkpt>
      <trkpt lat="45.84424" lon="4.79911">
        <ele>533.4</ele>
        <time>2020-06-07T08:20:59.000Z</time>
      </trkpt>
      <trkpt lat="45.84422" lon="4.7991">
        <ele>533.6</ele>
        <time>2020-06-07T08:21:00.000Z</time>
      </trkpt>
      <trkpt lat="45.84421" lon="4.79908">
        <ele>533.7</ele>
        <time>2020-06-07T08:21:01.000Z</time>
      </trkpt>
      <trkpt lat="45.84419" lon="4.79908">
        <ele>533.9</ele>
        <time>2020-06-07T08:21:02.000Z</time>
      </trkpt>
      <trkpt lat="45.84417" lon="4.79906">
        <ele>534</ele>
        <time>2020-06-07T08:21:03.000Z</time>
      </trkpt>
      <trkpt lat="45.84414" lon="4.79905">
        <ele>534.2</ele>
        <time>2020-06-07T08:21:04.000Z</time>
      </trkpt>
      <trkpt lat="45.84413" lon="4.79904">
        <ele>534.3</ele>
        <time>2020-06-07T08:21:05.000Z</time>
      </trkpt>
      <trkpt lat="45.84411" lon="4.79903">
        <ele>534.4</ele>
        <time>2020-06-07T08:21:06.000Z</time>
      </trkpt>
      <trkpt lat="45.8441" lon="4.79901">
        <ele>534.5</ele>
        <time>2020-06-07T08:21:07.000Z</time>
      </trkpt>
      <trkpt lat="45.84409" lon="4.79898">
        <ele>534.6</ele>
        <time>2020-06-07T08:21:08.000Z</time>
      </trkpt>
      <trkpt lat="45.84408" lon="4.79894">
        <ele>534.6</ele>
        <time>2020-06-07T08:21:09.000Z</time>
      </trkpt>
      <trkpt lat="45.84408" lon="4.7989">
        <ele>534.7</ele>
        <time>2020-06-07T08:21:10.000Z</time>
      </trkpt>
      <trkpt lat="45.84406" lon="4.79887">
        <ele>534.7</ele>
        <time>2020-06-07T08:21:11.000Z</time>
      </trkpt>
      <trkpt lat="45.84405" lon="4.79882">
        <ele>534.5</ele>
        <time>2020-06-07T08:21:12.000Z</time>
      </trkpt>
      <trkpt lat="45.84404" lon="4.79879">
        <ele>534.4</ele>
        <time>2020-06-07T08:21:13.000Z</time>
      </trkpt>
      <trkpt lat="45.84404" lon="4.79875">
        <ele>534.2</ele>
        <time>2020-06-07T08:21:14.000Z</time>
      </trkpt>
      <trkpt lat="45.84403" lon="4.7987">
        <ele>533.9</ele>
        <time>2020-06-07T08:21:15.000Z</time>
      </trkpt>
      <trkpt lat="45.84402" lon="4.79867">
        <ele>533.6</ele>
        <time>2020-06-07T08:21:16.000Z</time>
      </trkpt>
      <trkpt lat="45.84401" lon="4.79864">
        <ele>533.4</ele>
        <time>2020-06-07T08:21:17.000Z</time>
      </trkpt>
      <trkpt lat="45.84399" lon="4.7986">
        <ele>533.1</ele>
        <time>2020-06-07T08:21:18.000Z</time>
      </trkpt>
      <trkpt lat="45.84398" lon="4.79858">
        <ele>532.9</ele>
        <time>2020-06-07T08:21:19.000Z</time>
      </trkpt>
      <trkpt lat="45.84397" lon="4.79854">
        <ele>532.6</ele>
        <time>2020-06-07T08:21:20.000Z</time>
      </trkpt>
      <trkpt lat="45.84396" lon="4.7985">
        <ele>532.2</ele>
        <time>2020-06-07T08:21:21.000Z</time>
      </trkpt>
      <trkpt lat="45.84396" lon="4.79847">
        <ele>532</ele>
        <time>2020-06-07T08:21:22.000Z</time>
      </trkpt>
      <trkpt lat="45.84397" lon="4.79843">
        <ele>531.6</ele>
        <time>2020-06-07T08:21:23.000Z</time>
      </trkpt>
      <trkpt lat="45.84397" lon="4.79838">
        <ele>531.3</ele>
        <time>2020-06-07T08:21:24.000Z</time>
      </trkpt>
      <trkpt lat="45.84397" lon="4.79832">
        <ele>530.8</ele>
        <time>2020-06-07T08:21:25.000Z</time>
      </trkpt>
      <trkpt lat="45.84397" lon="4.79825">
        <ele>530.1</ele>
        <time>2020-06-07T08:21:26.000Z</time>
      </trkpt>
      <trkpt lat="45.84397" lon="4.79819">
        <ele>529.5</ele>
        <time>2020-06-07T08:21:27.000Z</time>
      </trkpt>
      <trkpt lat="45.84397" lon="4.79813">
        <ele>528.8</ele>
        <time>2020-06-07T08:21:28.000Z</time>
      </trkpt>
      <trkpt lat="45.84399" lon="4.79806">
        <ele>527.9</ele>
        <time>2020-06-07T08:21:29.000Z</time>
      </trkpt>
      <trkpt lat="45.844" lon="4.79799">
        <ele>526.9</ele>
        <time>2020-06-07T08:21:30.000Z</time>
      </trkpt>
      <trkpt lat="45.84401" lon="4.79789">
        <ele>525.7</ele>
        <time>2020-06-07T08:21:31.000Z</time>
      </trkpt>
      <trkpt lat="45.84403" lon="4.79772">
        <ele>523.8</ele>
        <time>2020-06-07T08:21:32.000Z</time>
      </trkpt>
      <trkpt lat="45.84404" lon="4.7976">
        <ele>522.8</ele>
        <time>2020-06-07T08:21:33.000Z</time>
      </trkpt>
      <trkpt lat="45.84405" lon="4.79742">
        <ele>521.4</ele>
        <time>2020-06-07T08:21:34.000Z</time>
      </trkpt>
      <trkpt lat="45.84405" lon="4.79729">
        <ele>520.5</ele>
        <time>2020-06-07T08:21:35.000Z</time>
      </trkpt>
      <trkpt lat="45.84405" lon="4.79717">
        <ele>519.8</ele>
        <time>2020-06-07T08:21:36.000Z</time>
      </trkpt>
      <trkpt lat="45.84405" lon="4.79706">
        <ele>519.2</ele>
        <time>2020-06-07T08:21:37.000Z</time>
      </trkpt>
      <trkpt lat="45.84406" lon="4.79697">
        <ele>518.7</ele>
        <time>2020-06-07T08:21:38.000Z</time>
      </trkpt>
      <trkpt lat="45.84406" lon="4.79687">
        <ele>518.1</ele>
        <time>2020-06-07T08:21:39.000Z</time>
      </trkpt>
      <trkpt lat="45.84406" lon="4.79677">
        <ele>517.4</ele>
        <time>2020-06-07T08:21:40.000Z</time>
      </trkpt>
      <trkpt lat="45.84407" lon="4.79669">
        <ele>516.8</ele>
        <time>2020-06-07T08:21:41.000Z</time>
      </trkpt>
      <trkpt lat="45.84409" lon="4.79661">
        <ele>516.1</ele>
        <time>2020-06-07T08:21:42.000Z</time>
      </trkpt>
      <trkpt lat="45.8441" lon="4.79653">
        <ele>515.6</ele>
        <time>2020-06-07T08:21:43.000Z</time>
      </trkpt>
      <trkpt lat="45.84411" lon="4.79645">
        <ele>515.1</ele>
        <time>2020-06-07T08:21:44.000Z</time>
      </trkpt>
      <trkpt lat="45.84412" lon="4.79637">
        <ele>514.6</ele>
        <time>2020-06-07T08:21:45.000Z</time>
      </trkpt>
      <trkpt lat="45.84413" lon="4.79629">
        <ele>514.3</ele>
        <time>2020-06-07T08:21:46.000Z</time>
      </trkpt>
      <trkpt lat="45.84413" lon="4.79622">
        <ele>514</ele>
        <time>2020-06-07T08:21:47.000Z</time>
      </trkpt>
      <trkpt lat="45.84413" lon="4.79614">
        <ele>513.9</ele>
        <time>2020-06-07T08:21:48.000Z</time>
      </trkpt>
      <trkpt lat="45.84413" lon="4.79608">
        <ele>513.8</ele>
        <time>2020-06-07T08:21:49.000Z</time>
      </trkpt>
      <trkpt lat="45.84412" lon="4.79602">
        <ele>513.8</ele>
        <time>2020-06-07T08:21:50.000Z</time>
      </trkpt>
      <trkpt lat="45.84412" lon="4.79596">
        <ele>513.8</ele>
        <time>2020-06-07T08:21:51.000Z</time>
      </trkpt>
      <trkpt lat="45.84412" lon="4.79592">
        <ele>513.8</ele>
        <time>2020-06-07T08:21:52.000Z</time>
      </trkpt>
      <trkpt lat="45.84413" lon="4.79587">
        <ele>513.8</ele>
        <time>2020-06-07T08:21:53.000Z</time>
      </trkpt>
      <trkpt lat="45.84414" lon="4.79582">
        <ele>513.7</ele>
        <time>2020-06-07T08:21:54.000Z</time>
      </trkpt>
      <trkpt lat="45.84416" lon="4.79577">
        <ele>513.7</ele>
        <time>2020-06-07T08:21:55.000Z</time>
      </trkpt>
      <trkpt lat="45.84417" lon="4.79571">
        <ele>513.7</ele>
        <time>2020-06-07T08:21:56.000Z</time>
      </trkpt>
      <trkpt lat="45.84419" lon="4.79565">
        <ele>513.5</ele>
        <time>2020-06-07T08:21:57.000Z</time>
      </trkpt>
      <trkpt lat="45.8442" lon="4.79558">
        <ele>513.4</ele>
        <time>2020-06-07T08:21:58.000Z</time>
      </trkpt>
      <trkpt lat="45.84422" lon="4.79551">
        <ele>513.2</ele>
        <time>2020-06-07T08:21:59.000Z</time>
      </trkpt>
      <trkpt lat="45.84424" lon="4.79544">
        <ele>512.9</ele>
        <time>2020-06-07T08:22:00.000Z</time>
      </trkpt>
      <trkpt lat="45.84426" lon="4.79536">
        <ele>512.6</ele>
        <time>2020-06-07T08:22:01.000Z</time>
      </trkpt>
      <trkpt lat="45.84428" lon="4.79529">
        <ele>512.4</ele>
        <time>2020-06-07T08:22:02.000Z</time>
      </trkpt>
      <trkpt lat="45.84431" lon="4.79521">
        <ele>512.2</ele>
        <time>2020-06-07T08:22:03.000Z</time>
      </trkpt>
      <trkpt lat="45.84433" lon="4.79514">
        <ele>512</ele>
        <time>2020-06-07T08:22:04.000Z</time>
      </trkpt>
      <trkpt lat="45.84435" lon="4.79507">
        <ele>511.9</ele>
        <time>2020-06-07T08:22:05.000Z</time>
      </trkpt>
      <trkpt lat="45.84437" lon="4.795">
        <ele>511.8</ele>
        <time>2020-06-07T08:22:06.000Z</time>
      </trkpt>
      <trkpt lat="45.84438" lon="4.79494">
        <ele>511.7</ele>
        <time>2020-06-07T08:22:07.000Z</time>
      </trkpt>
      <trkpt lat="45.8444" lon="4.79487">
        <ele>511.6</ele>
        <time>2020-06-07T08:22:08.000Z</time>
      </trkpt>
      <trkpt lat="45.84442" lon="4.7948">
        <ele>511.5</ele>
        <time>2020-06-07T08:22:09.000Z</time>
      </trkpt>
      <trkpt lat="45.84444" lon="4.79473">
        <ele>511.4</ele>
        <time>2020-06-07T08:22:10.000Z</time>
      </trkpt>
      <trkpt lat="45.84446" lon="4.79466">
        <ele>511.2</ele>
        <time>2020-06-07T08:22:11.000Z</time>
      </trkpt>
      <trkpt lat="45.84449" lon="4.7946">
        <ele>511.1</ele>
        <time>2020-06-07T08:22:12.000Z</time>
      </trkpt>
      <trkpt lat="45.84451" lon="4.79453">
        <ele>511</ele>
        <time>2020-06-07T08:22:13.000Z</time>
      </trkpt>
      <trkpt lat="45.84453" lon="4.79447">
        <ele>510.9</ele>
        <time>2020-06-07T08:22:14.000Z</time>
      </trkpt>
      <trkpt lat="45.84456" lon="4.79441">
        <ele>510.7</ele>
        <time>2020-06-07T08:22:15.000Z</time>
      </trkpt>
      <trkpt lat="45.84458" lon="4.79435">
        <ele>510.6</ele>
        <time>2020-06-07T08:22:16.000Z</time>
      </trkpt>
      <trkpt lat="45.8446" lon="4.79429">
        <ele>510.5</ele>
        <time>2020-06-07T08:22:17.000Z</time>
      </trkpt>
      <trkpt lat="45.84461" lon="4.79422">
        <ele>510.5</ele>
        <time>2020-06-07T08:22:18.000Z</time>
      </trkpt>
      <trkpt lat="45.84462" lon="4.79416">
        <ele>510.4</ele>
        <time>2020-06-07T08:22:19.000Z</time>
      </trkpt>
      <trkpt lat="45.84463" lon="4.79411">
        <ele>510.3</ele>
        <time>2020-06-07T08:22:20.000Z</time>
      </trkpt>
      <trkpt lat="45.84464" lon="4.79406">
        <ele>510.3</ele>
        <time>2020-06-07T08:22:21.000Z</time>
      </trkpt>
      <trkpt lat="45.84465" lon="4.79402">
        <ele>510.3</ele>
        <time>2020-06-07T08:22:22.000Z</time>
      </trkpt>
      <trkpt lat="45.84466" lon="4.79398">
        <ele>510.3</ele>
        <time>2020-06-07T08:22:23.000Z</time>
      </trkpt>
      <trkpt lat="45.84466" lon="4.79394">
        <ele>510.2</ele>
        <time>2020-06-07T08:22:24.000Z</time>
      </trkpt>
      <trkpt lat="45.84466" lon="4.79391">
        <ele>510.2</ele>
        <time>2020-06-07T08:22:25.000Z</time>
      </trkpt>
      <trkpt lat="45.84466" lon="4.79387">
        <ele>510.2</ele>
        <time>2020-06-07T08:22:26.000Z</time>
      </trkpt>
      <trkpt lat="45.84464" lon="4.79385">
        <ele>510.2</ele>
        <time>2020-06-07T08:22:27.000Z</time>
      </trkpt>
      <trkpt lat="45.84462" lon="4.79383">
        <ele>510.7</ele>
        <time>2020-06-07T08:22:28.000Z</time>
      </trkpt>
      <trkpt lat="45.8446" lon="4.79381">
        <ele>510.8</ele>
        <time>2020-06-07T08:22:29.000Z</time>
      </trkpt>
      <trkpt lat="45.84459" lon="4.7938">
        <ele>511</ele>
        <time>2020-06-07T08:22:30.000Z</time>
      </trkpt>
      <trkpt lat="45.84457" lon="4.79378">
        <ele>511.2</ele>
        <time>2020-06-07T08:22:31.000Z</time>
      </trkpt>
      <trkpt lat="45.84456" lon="4.79377">
        <ele>511.3</ele>
        <time>2020-06-07T08:22:32.000Z</time>
      </trkpt>
      <trkpt lat="45.84454" lon="4.79376">
        <ele>511.5</ele>
        <time>2020-06-07T08:22:33.000Z</time>
      </trkpt>
      <trkpt lat="45.84452" lon="4.79375">
        <ele>511.6</ele>
        <time>2020-06-07T08:22:34.000Z</time>
      </trkpt>
      <trkpt lat="45.84451" lon="4.79373">
        <ele>511.8</ele>
        <time>2020-06-07T08:22:35.000Z</time>
      </trkpt>
      <trkpt lat="45.84449" lon="4.79372">
        <ele>511.9</ele>
        <time>2020-06-07T08:22:36.000Z</time>
      </trkpt>
      <trkpt lat="45.84447" lon="4.7937">
        <ele>512.1</ele>
        <time>2020-06-07T08:22:37.000Z</time>
      </trkpt>
      <trkpt lat="45.84445" lon="4.79369">
        <ele>512.3</ele>
        <time>2020-06-07T08:22:38.000Z</time>
      </trkpt>
      <trkpt lat="45.84443" lon="4.79367">
        <ele>512.5</ele>
        <time>2020-06-07T08:22:39.000Z</time>
      </trkpt>
      <trkpt lat="45.84441" lon="4.79366">
        <ele>512.7</ele>
        <time>2020-06-07T08:22:40.000Z</time>
      </trkpt>
      <trkpt lat="45.84439" lon="4.79364">
        <ele>512.9</ele>
        <time>2020-06-07T08:22:41.000Z</time>
      </trkpt>
      <trkpt lat="45.84437" lon="4.79362">
        <ele>513.1</ele>
        <time>2020-06-07T08:22:42.000Z</time>
      </trkpt>
      <trkpt lat="45.84435" lon="4.79361">
        <ele>513.3</ele>
        <time>2020-06-07T08:22:43.000Z</time>
      </trkpt>
      <trkpt lat="45.84433" lon="4.79359">
        <ele>513.4</ele>
        <time>2020-06-07T08:22:44.000Z</time>
      </trkpt>
      <trkpt lat="45.84431" lon="4.79358">
        <ele>513.6</ele>
        <time>2020-06-07T08:22:45.000Z</time>
      </trkpt>
      <trkpt lat="45.84429" lon="4.79356">
        <ele>513.8</ele>
        <time>2020-06-07T08:22:46.000Z</time>
      </trkpt>
      <trkpt lat="45.84427" lon="4.79355">
        <ele>514</ele>
        <time>2020-06-07T08:22:47.000Z</time>
      </trkpt>
      <trkpt lat="45.84425" lon="4.79353">
        <ele>514.2</ele>
        <time>2020-06-07T08:22:48.000Z</time>
      </trkpt>
      <trkpt lat="45.84423" lon="4.79351">
        <ele>514.4</ele>
        <time>2020-06-07T08:22:49.000Z</time>
      </trkpt>
      <trkpt lat="45.84421" lon="4.7935">
        <ele>514.6</ele>
        <time>2020-06-07T08:22:50.000Z</time>
      </trkpt>
      <trkpt lat="45.84419" lon="4.79348">
        <ele>514.8</ele>
        <time>2020-06-07T08:22:51.000Z</time>
      </trkpt>
      <trkpt lat="45.84417" lon="4.79347">
        <ele>515</ele>
        <time>2020-06-07T08:22:52.000Z</time>
      </trkpt>
      <trkpt lat="45.84415" lon="4.79345">
        <ele>515.2</ele>
        <time>2020-06-07T08:22:53.000Z</time>
      </trkpt>
      <trkpt lat="45.84413" lon="4.79344">
        <ele>515.4</ele>
        <time>2020-06-07T08:22:54.000Z</time>
      </trkpt>
      <trkpt lat="45.84411" lon="4.79342">
        <ele>515.6</ele>
        <time>2020-06-07T08:22:55.000Z</time>
      </trkpt>
      <trkpt lat="45.84409" lon="4.79341">
        <ele>515.8</ele>
        <time>2020-06-07T08:22:56.000Z</time>
      </trkpt>
      <trkpt lat="45.84407" lon="4.79339">
        <ele>516</ele>
        <time>2020-06-07T08:22:57.000Z</time>
      </trkpt>
      <trkpt lat="45.84405" lon="4.79338">
        <ele>516.1</ele>
        <time>2020-06-07T08:22:58.000Z</time>
      </trkpt>
      <trkpt lat="45.84403" lon="4.79336">
        <ele>516.3</ele>
        <time>2020-06-07T08:22:59.000Z</time>
      </trkpt>
      <trkpt lat="45.84401" lon="4.79334">
        <ele>516.5</ele>
        <time>2020-06-07T08:23:00.000Z</time>
      </trkpt>
      <trkpt lat="45.84399" lon="4.79333">
        <ele>516.8</ele>
        <time>2020-06-07T08:23:01.000Z</time>
      </trkpt>
      <trkpt lat="45.84397" lon="4.79331">
        <ele>517</ele>
        <time>2020-06-07T08:23:02.000Z</time>
      </trkpt>
      <trkpt lat="45.84395" lon="4.7933">
        <ele>517.2</ele>
        <time>2020-06-07T08:23:03.000Z</time>
      </trkpt>
      <trkpt lat="45.84393" lon="4.79329">
        <ele>517.4</ele>
        <time>2020-06-07T08:23:04.000Z</time>
      </trkpt>
      <trkpt lat="45.8439" lon="4.79327">
        <ele>517.6</ele>
        <time>2020-06-07T08:23:05.000Z</time>
      </trkpt>
      <trkpt lat="45.84388" lon="4.79326">
        <ele>517.8</ele>
        <time>2020-06-07T08:23:06.000Z</time>
      </trkpt>
      <trkpt lat="45.84386" lon="4.79325">
        <ele>518</ele>
        <time>2020-06-07T08:23:07.000Z</time>
      </trkpt>
      <trkpt lat="45.84384" lon="4.79323">
        <ele>518.2</ele>
        <time>2020-06-07T08:23:08.000Z</time>
      </trkpt>
      <trkpt lat="45.84382" lon="4.79322">
        <ele>518.5</ele>
        <time>2020-06-07T08:23:09.000Z</time>
      </trkpt>
      <trkpt lat="45.8438" lon="4.79321">
        <ele>518.7</ele>
        <time>2020-06-07T08:23:10.000Z</time>
      </trkpt>
      <trkpt lat="45.84377" lon="4.7932">
        <ele>518.9</ele>
        <time>2020-06-07T08:23:11.000Z</time>
      </trkpt>
      <trkpt lat="45.84375" lon="4.79319">
        <ele>519.1</ele>
        <time>2020-06-07T08:23:12.000Z</time>
      </trkpt>
      <trkpt lat="45.84373" lon="4.79318">
        <ele>519.3</ele>
        <time>2020-06-07T08:23:13.000Z</time>
      </trkpt>
      <trkpt lat="45.84371" lon="4.79318">
        <ele>519.5</ele>
        <time>2020-06-07T08:23:14.000Z</time>
      </trkpt>
      <trkpt lat="45.84368" lon="4.79318">
        <ele>519.7</ele>
        <time>2020-06-07T08:23:15.000Z</time>
      </trkpt>
      <trkpt lat="45.84366" lon="4.79317">
        <ele>519.9</ele>
        <time>2020-06-07T08:23:16.000Z</time>
      </trkpt>
      <trkpt lat="45.84364" lon="4.79316">
        <ele>520.1</ele>
        <time>2020-06-07T08:23:17.000Z</time>
      </trkpt>
      <trkpt lat="45.84361" lon="4.79316">
        <ele>520.3</ele>
        <time>2020-06-07T08:23:18.000Z</time>
      </trkpt>
      <trkpt lat="45.84359" lon="4.79316">
        <ele>520.5</ele>
        <time>2020-06-07T08:23:19.000Z</time>
      </trkpt>
      <trkpt lat="45.84356" lon="4.79316">
        <ele>520.7</ele>
        <time>2020-06-07T08:23:20.000Z</time>
      </trkpt>
      <trkpt lat="45.84354" lon="4.79316">
        <ele>520.9</ele>
        <time>2020-06-07T08:23:21.000Z</time>
      </trkpt>
      <trkpt lat="45.84352" lon="4.79316">
        <ele>521</ele>
        <time>2020-06-07T08:23:22.000Z</time>
      </trkpt>
      <trkpt lat="45.84349" lon="4.79317">
        <ele>521.2</ele>
        <time>2020-06-07T08:23:23.000Z</time>
      </trkpt>
      <trkpt lat="45.84347" lon="4.79317">
        <ele>521.4</ele>
        <time>2020-06-07T08:23:24.000Z</time>
      </trkpt>
      <trkpt lat="45.84344" lon="4.79318">
        <ele>521.6</ele>
        <time>2020-06-07T08:23:25.000Z</time>
      </trkpt>
      <trkpt lat="45.84342" lon="4.79318">
        <ele>521.8</ele>
        <time>2020-06-07T08:23:26.000Z</time>
      </trkpt>
      <trkpt lat="45.84339" lon="4.79319">
        <ele>522.1</ele>
        <time>2020-06-07T08:23:27.000Z</time>
      </trkpt>
      <trkpt lat="45.84337" lon="4.79319">
        <ele>522.3</ele>
        <time>2020-06-07T08:23:28.000Z</time>
      </trkpt>
      <trkpt lat="45.84334" lon="4.7932">
        <ele>522.5</ele>
        <time>2020-06-07T08:23:29.000Z</time>
      </trkpt>
      <trkpt lat="45.84332" lon="4.7932">
        <ele>522.7</ele>
        <time>2020-06-07T08:23:30.000Z</time>
      </trkpt>
      <trkpt lat="45.84329" lon="4.79321">
        <ele>522.9</ele>
        <time>2020-06-07T08:23:31.000Z</time>
      </trkpt>
      <trkpt lat="45.84327" lon="4.79322">
        <ele>523</ele>
        <time>2020-06-07T08:23:32.000Z</time>
      </trkpt>
      <trkpt lat="45.84325" lon="4.79322">
        <ele>523.2</ele>
        <time>2020-06-07T08:23:33.000Z</time>
      </trkpt>
      <trkpt lat="45.84323" lon="4.79323">
        <ele>523.4</ele>
        <time>2020-06-07T08:23:34.000Z</time>
      </trkpt>
      <trkpt lat="45.8432" lon="4.79324">
        <ele>523.6</ele>
        <time>2020-06-07T08:23:35.000Z</time>
      </trkpt>
      <trkpt lat="45.84318" lon="4.79325">
        <ele>523.8</ele>
        <time>2020-06-07T08:23:36.000Z</time>
      </trkpt>
      <trkpt lat="45.84316" lon="4.79325">
        <ele>524</ele>
        <time>2020-06-07T08:23:37.000Z</time>
      </trkpt>
      <trkpt lat="45.84313" lon="4.79326">
        <ele>524.1</ele>
        <time>2020-06-07T08:23:38.000Z</time>
      </trkpt>
      <trkpt lat="45.84311" lon="4.79327">
        <ele>524.3</ele>
        <time>2020-06-07T08:23:39.000Z</time>
      </trkpt>
      <trkpt lat="45.84309" lon="4.79327">
        <ele>524.5</ele>
        <time>2020-06-07T08:23:40.000Z</time>
      </trkpt>
      <trkpt lat="45.84306" lon="4.79328">
        <ele>524.7</ele>
        <time>2020-06-07T08:23:41.000Z</time>
      </trkpt>
      <trkpt lat="45.84304" lon="4.79329">
        <ele>524.9</ele>
        <time>2020-06-07T08:23:42.000Z</time>
      </trkpt>
      <trkpt lat="45.84301" lon="4.79329">
        <ele>525.1</ele>
        <time>2020-06-07T08:23:43.000Z</time>
      </trkpt>
      <trkpt lat="45.84299" lon="4.7933">
        <ele>525.3</ele>
        <time>2020-06-07T08:23:44.000Z</time>
      </trkpt>
      <trkpt lat="45.84297" lon="4.79331">
        <ele>525.4</ele>
        <time>2020-06-07T08:23:45.000Z</time>
      </trkpt>
      <trkpt lat="45.84295" lon="4.79332">
        <ele>525.6</ele>
        <time>2020-06-07T08:23:46.000Z</time>
      </trkpt>
      <trkpt lat="45.84293" lon="4.79332">
        <ele>525.7</ele>
        <time>2020-06-07T08:23:47.000Z</time>
      </trkpt>
      <trkpt lat="45.84291" lon="4.79332">
        <ele>525.8</ele>
        <time>2020-06-07T08:23:48.000Z</time>
      </trkpt>
      <trkpt lat="45.84289" lon="4.79333">
        <ele>525.9</ele>
        <time>2020-06-07T08:23:49.000Z</time>
      </trkpt>
      <trkpt lat="45.84287" lon="4.79334">
        <ele>526</ele>
        <time>2020-06-07T08:23:50.000Z</time>
      </trkpt>
      <trkpt lat="45.84285" lon="4.79334">
        <ele>526.1</ele>
        <time>2020-06-07T08:23:51.000Z</time>
      </trkpt>
      <trkpt lat="45.84283" lon="4.79334">
        <ele>526.2</ele>
        <time>2020-06-07T08:23:52.000Z</time>
      </trkpt>
      <trkpt lat="45.8428" lon="4.79334">
        <ele>526.4</ele>
        <time>2020-06-07T08:23:53.000Z</time>
      </trkpt>
      <trkpt lat="45.84277" lon="4.79334">
        <ele>526.5</ele>
        <time>2020-06-07T08:23:54.000Z</time>
      </trkpt>
      <trkpt lat="45.84274" lon="4.79335">
        <ele>526.3</ele>
        <time>2020-06-07T08:23:55.000Z</time>
      </trkpt>
      <trkpt lat="45.84271" lon="4.79335">
        <ele>526.2</ele>
        <time>2020-06-07T08:23:56.000Z</time>
      </trkpt>
      <trkpt lat="45.84267" lon="4.79336">
        <ele>526.1</ele>
        <time>2020-06-07T08:23:57.000Z</time>
      </trkpt>
      <trkpt lat="45.84264" lon="4.79337">
        <ele>526</ele>
        <time>2020-06-07T08:23:58.000Z</time>
      </trkpt>
      <trkpt lat="45.8426" lon="4.79337">
        <ele>525.9</ele>
        <time>2020-06-07T08:23:59.000Z</time>
      </trkpt>
      <trkpt lat="45.84256" lon="4.79337">
        <ele>525.7</ele>
        <time>2020-06-07T08:24:00.000Z</time>
      </trkpt>
      <trkpt lat="45.84252" lon="4.79338">
        <ele>525.6</ele>
        <time>2020-06-07T08:24:01.000Z</time>
      </trkpt>
      <trkpt lat="45.84247" lon="4.79339">
        <ele>525.4</ele>
        <time>2020-06-07T08:24:02.000Z</time>
      </trkpt>
      <trkpt lat="45.84243" lon="4.79339">
        <ele>525.2</ele>
        <time>2020-06-07T08:24:03.000Z</time>
      </trkpt>
      <trkpt lat="45.84238" lon="4.79339">
        <ele>525.1</ele>
        <time>2020-06-07T08:24:04.000Z</time>
      </trkpt>
      <trkpt lat="45.84235" lon="4.79336">
        <ele>524.9</ele>
        <time>2020-06-07T08:24:05.000Z</time>
      </trkpt>
      <trkpt lat="45.84233" lon="4.79331">
        <ele>524.8</ele>
        <time>2020-06-07T08:24:06.000Z</time>
      </trkpt>
      <trkpt lat="45.84232" lon="4.79326">
        <ele>524.6</ele>
        <time>2020-06-07T08:24:07.000Z</time>
      </trkpt>
      <trkpt lat="45.84232" lon="4.79319">
        <ele>525.2</ele>
        <time>2020-06-07T08:24:08.000Z</time>
      </trkpt>
      <trkpt lat="45.84232" lon="4.79314">
        <ele>525.5</ele>
        <time>2020-06-07T08:24:09.000Z</time>
      </trkpt>
      <trkpt lat="45.84233" lon="4.79309">
        <ele>525.7</ele>
        <time>2020-06-07T08:24:10.000Z</time>
      </trkpt>
      <trkpt lat="45.84234" lon="4.79305">
        <ele>525.9</ele>
        <time>2020-06-07T08:24:11.000Z</time>
      </trkpt>
      <trkpt lat="45.84236" lon="4.79301">
        <ele>526.1</ele>
        <time>2020-06-07T08:24:12.000Z</time>
      </trkpt>
      <trkpt lat="45.84237" lon="4.79297">
        <ele>526.3</ele>
        <time>2020-06-07T08:24:13.000Z</time>
      </trkpt>
      <trkpt lat="45.84238" lon="4.79293">
        <ele>526.5</ele>
        <time>2020-06-07T08:24:14.000Z</time>
      </trkpt>
      <trkpt lat="45.84239" lon="4.79289">
        <ele>526.7</ele>
        <time>2020-06-07T08:24:15.000Z</time>
      </trkpt>
      <trkpt lat="45.8424" lon="4.79286">
        <ele>526.9</ele>
        <time>2020-06-07T08:24:16.000Z</time>
      </trkpt>
      <trkpt lat="45.84241" lon="4.79282">
        <ele>527.1</ele>
        <time>2020-06-07T08:24:17.000Z</time>
      </trkpt>
      <trkpt lat="45.84241" lon="4.79278">
        <ele>527.3</ele>
        <time>2020-06-07T08:24:18.000Z</time>
      </trkpt>
      <trkpt lat="45.84241" lon="4.79274">
        <ele>527.4</ele>
        <time>2020-06-07T08:24:19.000Z</time>
      </trkpt>
      <trkpt lat="45.8424" lon="4.79271">
        <ele>527.6</ele>
        <time>2020-06-07T08:24:20.000Z</time>
      </trkpt>
      <trkpt lat="45.8424" lon="4.79267">
        <ele>527.7</ele>
        <time>2020-06-07T08:24:21.000Z</time>
      </trkpt>
      <trkpt lat="45.84239" lon="4.79263">
        <ele>527.9</ele>
        <time>2020-06-07T08:24:22.000Z</time>
      </trkpt>
      <trkpt lat="45.84238" lon="4.7926">
        <ele>528.1</ele>
        <time>2020-06-07T08:24:23.000Z</time>
      </trkpt>
      <trkpt lat="45.84237" lon="4.79256">
        <ele>528.2</ele>
        <time>2020-06-07T08:24:24.000Z</time>
      </trkpt>
      <trkpt lat="45.84236" lon="4.79253">
        <ele>528.4</ele>
        <time>2020-06-07T08:24:25.000Z</time>
      </trkpt>
      <trkpt lat="45.84235" lon="4.79249">
        <ele>528.6</ele>
        <time>2020-06-07T08:24:26.000Z</time>
      </trkpt>
      <trkpt lat="45.84233" lon="4.79246">
        <ele>528.7</ele>
        <time>2020-06-07T08:24:27.000Z</time>
      </trkpt>
      <trkpt lat="45.84231" lon="4.79243">
        <ele>528.9</ele>
        <time>2020-06-07T08:24:28.000Z</time>
      </trkpt>
      <trkpt lat="45.8423" lon="4.7924">
        <ele>529</ele>
        <time>2020-06-07T08:24:29.000Z</time>
      </trkpt>
      <trkpt lat="45.84228" lon="4.79237">
        <ele>529.2</ele>
        <time>2020-06-07T08:24:30.000Z</time>
      </trkpt>
      <trkpt lat="45.84226" lon="4.79234">
        <ele>529.4</ele>
        <time>2020-06-07T08:24:31.000Z</time>
      </trkpt>
      <trkpt lat="45.84224" lon="4.79232">
        <ele>529.5</ele>
        <time>2020-06-07T08:24:32.000Z</time>
      </trkpt>
      <trkpt lat="45.84222" lon="4.79229">
        <ele>529.7</ele>
        <time>2020-06-07T08:24:33.000Z</time>
      </trkpt>
      <trkpt lat="45.8422" lon="4.79227">
        <ele>529.8</ele>
        <time>2020-06-07T08:24:34.000Z</time>
      </trkpt>
      <trkpt lat="45.84218" lon="4.79224">
        <ele>529.9</ele>
        <time>2020-06-07T08:24:35.000Z</time>
      </trkpt>
      <trkpt lat="45.84216" lon="4.79221">
        <ele>530.1</ele>
        <time>2020-06-07T08:24:36.000Z</time>
      </trkpt>
      <trkpt lat="45.84214" lon="4.79218">
        <ele>530.2</ele>
        <time>2020-06-07T08:24:37.000Z</time>
      </trkpt>
      <trkpt lat="45.84212" lon="4.79216">
        <ele>530.4</ele>
        <time>2020-06-07T08:24:38.000Z</time>
      </trkpt>
      <trkpt lat="45.84209" lon="4.79213">
        <ele>530.5</ele>
        <time>2020-06-07T08:24:39.000Z</time>
      </trkpt>
      <trkpt lat="45.84207" lon="4.7921">
        <ele>530.7</ele>
        <time>2020-06-07T08:24:40.000Z</time>
      </trkpt>
      <trkpt lat="45.84205" lon="4.79208">
        <ele>530.8</ele>
        <time>2020-06-07T08:24:41.000Z</time>
      </trkpt>
      <trkpt lat="45.84202" lon="4.79204">
        <ele>530.9</ele>
        <time>2020-06-07T08:24:42.000Z</time>
      </trkpt>
      <trkpt lat="45.842" lon="4.79201">
        <ele>531.1</ele>
        <time>2020-06-07T08:24:43.000Z</time>
      </trkpt>
      <trkpt lat="45.84198" lon="4.79198">
        <ele>531.3</ele>
        <time>2020-06-07T08:24:44.000Z</time>
      </trkpt>
      <trkpt lat="45.84196" lon="4.79195">
        <ele>531.4</ele>
        <time>2020-06-07T08:24:45.000Z</time>
      </trkpt>
      <trkpt lat="45.84193" lon="4.79191">
        <ele>531.6</ele>
        <time>2020-06-07T08:24:46.000Z</time>
      </trkpt>
      <trkpt lat="45.84191" lon="4.79188">
        <ele>531.7</ele>
        <time>2020-06-07T08:24:47.000Z</time>
      </trkpt>
      <trkpt lat="45.84188" lon="4.79185">
        <ele>531.9</ele>
        <time>2020-06-07T08:24:48.000Z</time>
      </trkpt>
      <trkpt lat="45.84186" lon="4.79182">
        <ele>532</ele>
        <time>2020-06-07T08:24:49.000Z</time>
      </trkpt>
      <trkpt lat="45.84184" lon="4.79179">
        <ele>532.2</ele>
        <time>2020-06-07T08:24:50.000Z</time>
      </trkpt>
      <trkpt lat="45.84181" lon="4.79176">
        <ele>532.3</ele>
        <time>2020-06-07T08:24:51.000Z</time>
      </trkpt>
      <trkpt lat="45.84179" lon="4.79173">
        <ele>532.4</ele>
        <time>2020-06-07T08:24:52.000Z</time>
      </trkpt>
      <trkpt lat="45.84177" lon="4.79169">
        <ele>532.6</ele>
        <time>2020-06-07T08:24:53.000Z</time>
      </trkpt>
      <trkpt lat="45.84175" lon="4.79165">
        <ele>532.7</ele>
        <time>2020-06-07T08:24:54.000Z</time>
      </trkpt>
      <trkpt lat="45.84173" lon="4.79162">
        <ele>532.8</ele>
        <time>2020-06-07T08:24:55.000Z</time>
      </trkpt>
      <trkpt lat="45.84172" lon="4.79158">
        <ele>533</ele>
        <time>2020-06-07T08:24:56.000Z</time>
      </trkpt>
      <trkpt lat="45.8417" lon="4.79155">
        <ele>533.1</ele>
        <time>2020-06-07T08:24:57.000Z</time>
      </trkpt>
      <trkpt lat="45.84168" lon="4.79152">
        <ele>533.3</ele>
        <time>2020-06-07T08:24:58.000Z</time>
      </trkpt>
      <trkpt lat="45.84166" lon="4.79149">
        <ele>533.4</ele>
        <time>2020-06-07T08:24:59.000Z</time>
      </trkpt>
      <trkpt lat="45.84165" lon="4.79146">
        <ele>533.6</ele>
        <time>2020-06-07T08:25:00.000Z</time>
      </trkpt>
      <trkpt lat="45.84164" lon="4.79143">
        <ele>533.7</ele>
        <time>2020-06-07T08:25:01.000Z</time>
      </trkpt>
      <trkpt lat="45.84162" lon="4.7914">
        <ele>533.8</ele>
        <time>2020-06-07T08:25:02.000Z</time>
      </trkpt>
      <trkpt lat="45.8416" lon="4.79138">
        <ele>533.9</ele>
        <time>2020-06-07T08:25:03.000Z</time>
      </trkpt>
      <trkpt lat="45.84158" lon="4.79135">
        <ele>534.1</ele>
        <time>2020-06-07T08:25:04.000Z</time>
      </trkpt>
      <trkpt lat="45.84155" lon="4.79133">
        <ele>534.2</ele>
        <time>2020-06-07T08:25:05.000Z</time>
      </trkpt>
      <trkpt lat="45.84153" lon="4.79131">
        <ele>534.3</ele>
        <time>2020-06-07T08:25:06.000Z</time>
      </trkpt>
      <trkpt lat="45.8415" lon="4.79129">
        <ele>534.5</ele>
        <time>2020-06-07T08:25:07.000Z</time>
      </trkpt>
      <trkpt lat="45.84148" lon="4.79127">
        <ele>534.6</ele>
        <time>2020-06-07T08:25:08.000Z</time>
      </trkpt>
      <trkpt lat="45.84145" lon="4.79124">
        <ele>534.8</ele>
        <time>2020-06-07T08:25:09.000Z</time>
      </trkpt>
      <trkpt lat="45.84143" lon="4.79122">
        <ele>534.9</ele>
        <time>2020-06-07T08:25:10.000Z</time>
      </trkpt>
      <trkpt lat="45.84141" lon="4.79119">
        <ele>535.1</ele>
        <time>2020-06-07T08:25:11.000Z</time>
      </trkpt>
      <trkpt lat="45.84139" lon="4.79116">
        <ele>535.2</ele>
        <time>2020-06-07T08:25:12.000Z</time>
      </trkpt>
      <trkpt lat="45.84136" lon="4.79113">
        <ele>535.4</ele>
        <time>2020-06-07T08:25:13.000Z</time>
      </trkpt>
      <trkpt lat="45.84134" lon="4.7911">
        <ele>535.6</ele>
        <time>2020-06-07T08:25:14.000Z</time>
      </trkpt>
      <trkpt lat="45.84132" lon="4.79107">
        <ele>535.7</ele>
        <time>2020-06-07T08:25:15.000Z</time>
      </trkpt>
      <trkpt lat="45.84129" lon="4.79104">
        <ele>535.9</ele>
        <time>2020-06-07T08:25:16.000Z</time>
      </trkpt>
      <trkpt lat="45.84127" lon="4.79101">
        <ele>536</ele>
        <time>2020-06-07T08:25:17.000Z</time>
      </trkpt>
      <trkpt lat="45.84125" lon="4.79098">
        <ele>536.2</ele>
        <time>2020-06-07T08:25:18.000Z</time>
      </trkpt>
      <trkpt lat="45.84123" lon="4.79095">
        <ele>536.3</ele>
        <time>2020-06-07T08:25:19.000Z</time>
      </trkpt>
      <trkpt lat="45.84121" lon="4.79093">
        <ele>536.5</ele>
        <time>2020-06-07T08:25:20.000Z</time>
      </trkpt>
      <trkpt lat="45.84118" lon="4.7909">
        <ele>536.6</ele>
        <time>2020-06-07T08:25:21.000Z</time>
      </trkpt>
      <trkpt lat="45.84116" lon="4.79086">
        <ele>536.8</ele>
        <time>2020-06-07T08:25:22.000Z</time>
      </trkpt>
      <trkpt lat="45.84114" lon="4.79084">
        <ele>537</ele>
        <time>2020-06-07T08:25:23.000Z</time>
      </trkpt>
      <trkpt lat="45.84112" lon="4.79081">
        <ele>537.1</ele>
        <time>2020-06-07T08:25:24.000Z</time>
      </trkpt>
      <trkpt lat="45.84109" lon="4.79078">
        <ele>537.3</ele>
        <time>2020-06-07T08:25:25.000Z</time>
      </trkpt>
      <trkpt lat="45.84107" lon="4.79075">
        <ele>537.5</ele>
        <time>2020-06-07T08:25:26.000Z</time>
      </trkpt>
      <trkpt lat="45.84105" lon="4.79072">
        <ele>537.6</ele>
        <time>2020-06-07T08:25:27.000Z</time>
      </trkpt>
      <trkpt lat="45.84103" lon="4.79069">
        <ele>537.8</ele>
        <time>2020-06-07T08:25:28.000Z</time>
      </trkpt>
      <trkpt lat="45.84101" lon="4.79066">
        <ele>537.9</ele>
        <time>2020-06-07T08:25:29.000Z</time>
      </trkpt>
      <trkpt lat="45.84099" lon="4.79063">
        <ele>538.1</ele>
        <time>2020-06-07T08:25:30.000Z</time>
      </trkpt>
      <trkpt lat="45.84097" lon="4.79061">
        <ele>538.2</ele>
        <time>2020-06-07T08:25:31.000Z</time>
      </trkpt>
      <trkpt lat="45.84095" lon="4.79058">
        <ele>538.4</ele>
        <time>2020-06-07T08:25:32.000Z</time>
      </trkpt>
      <trkpt lat="45.84093" lon="4.79055">
        <ele>538.5</ele>
        <time>2020-06-07T08:25:33.000Z</time>
      </trkpt>
      <trkpt lat="45.84091" lon="4.79053">
        <ele>538.7</ele>
        <time>2020-06-07T08:25:34.000Z</time>
      </trkpt>
      <trkpt lat="45.84089" lon="4.7905">
        <ele>538.8</ele>
        <time>2020-06-07T08:25:35.000Z</time>
      </trkpt>
      <trkpt lat="45.84087" lon="4.79048">
        <ele>538.9</ele>
        <time>2020-06-07T08:25:36.000Z</time>
      </trkpt>
      <trkpt lat="45.84084" lon="4.79045">
        <ele>539.5</ele>
        <time>2020-06-07T08:25:37.000Z</time>
      </trkpt>
      <trkpt lat="45.84082" lon="4.79043">
        <ele>539.6</ele>
        <time>2020-06-07T08:25:38.000Z</time>
      </trkpt>
      <trkpt lat="45.84079" lon="4.79041">
        <ele>539.8</ele>
        <time>2020-06-07T08:25:39.000Z</time>
      </trkpt>
      <trkpt lat="45.84077" lon="4.79038">
        <ele>540</ele>
        <time>2020-06-07T08:25:40.000Z</time>
      </trkpt>
      <trkpt lat="45.84074" lon="4.79036">
        <ele>540.2</ele>
        <time>2020-06-07T08:25:41.000Z</time>
      </trkpt>
      <trkpt lat="45.84071" lon="4.79034">
        <ele>540.4</ele>
        <time>2020-06-07T08:25:42.000Z</time>
      </trkpt>
      <trkpt lat="45.84069" lon="4.79032">
        <ele>540.6</ele>
        <time>2020-06-07T08:25:43.000Z</time>
      </trkpt>
      <trkpt lat="45.84066" lon="4.7903">
        <ele>540.8</ele>
        <time>2020-06-07T08:25:44.000Z</time>
      </trkpt>
      <trkpt lat="45.84063" lon="4.79029">
        <ele>541</ele>
        <time>2020-06-07T08:25:45.000Z</time>
      </trkpt>
      <trkpt lat="45.84061" lon="4.79027">
        <ele>541.2</ele>
        <time>2020-06-07T08:25:46.000Z</time>
      </trkpt>
      <trkpt lat="45.84058" lon="4.79026">
        <ele>541.4</ele>
        <time>2020-06-07T08:25:47.000Z</time>
      </trkpt>
      <trkpt lat="45.84055" lon="4.79025">
        <ele>541.6</ele>
        <time>2020-06-07T08:25:48.000Z</time>
      </trkpt>
      <trkpt lat="45.84052" lon="4.79024">
        <ele>541.8</ele>
        <time>2020-06-07T08:25:49.000Z</time>
      </trkpt>
      <trkpt lat="45.8405" lon="4.79023">
        <ele>542</ele>
        <time>2020-06-07T08:25:50.000Z</time>
      </trkpt>
      <trkpt lat="45.84047" lon="4.79022">
        <ele>542.2</ele>
        <time>2020-06-07T08:25:51.000Z</time>
      </trkpt>
      <trkpt lat="45.84044" lon="4.79021">
        <ele>542.4</ele>
        <time>2020-06-07T08:25:52.000Z</time>
      </trkpt>
      <trkpt lat="45.84041" lon="4.7902">
        <ele>542.6</ele>
        <time>2020-06-07T08:25:53.000Z</time>
      </trkpt>
      <trkpt lat="45.84038" lon="4.79019">
        <ele>542.8</ele>
        <time>2020-06-07T08:25:54.000Z</time>
      </trkpt>
      <trkpt lat="45.84036" lon="4.79018">
        <ele>543</ele>
        <time>2020-06-07T08:25:55.000Z</time>
      </trkpt>
      <trkpt lat="45.84033" lon="4.79016">
        <ele>543.3</ele>
        <time>2020-06-07T08:25:56.000Z</time>
      </trkpt>
      <trkpt lat="45.8403" lon="4.79014">
        <ele>543.5</ele>
        <time>2020-06-07T08:25:57.000Z</time>
      </trkpt>
      <trkpt lat="45.84028" lon="4.79012">
        <ele>543.7</ele>
        <time>2020-06-07T08:25:58.000Z</time>
      </trkpt>
      <trkpt lat="45.84026" lon="4.79009">
        <ele>544</ele>
        <time>2020-06-07T08:25:59.000Z</time>
      </trkpt>
      <trkpt lat="45.84024" lon="4.79006">
        <ele>544.2</ele>
        <time>2020-06-07T08:26:00.000Z</time>
      </trkpt>
      <trkpt lat="45.84022" lon="4.79002">
        <ele>544.4</ele>
        <time>2020-06-07T08:26:01.000Z</time>
      </trkpt>
      <trkpt lat="45.84021" lon="4.78999">
        <ele>544.7</ele>
        <time>2020-06-07T08:26:02.000Z</time>
      </trkpt>
      <trkpt lat="45.8402" lon="4.78995">
        <ele>544.9</ele>
        <time>2020-06-07T08:26:03.000Z</time>
      </trkpt>
      <trkpt lat="45.84019" lon="4.78991">
        <ele>545.1</ele>
        <time>2020-06-07T08:26:04.000Z</time>
      </trkpt>
      <trkpt lat="45.84019" lon="4.78987">
        <ele>545.2</ele>
        <time>2020-06-07T08:26:05.000Z</time>
      </trkpt>
      <trkpt lat="45.8402" lon="4.78983">
        <ele>545.4</ele>
        <time>2020-06-07T08:26:06.000Z</time>
      </trkpt>
      <trkpt lat="45.8402" lon="4.7898">
        <ele>545.6</ele>
        <time>2020-06-07T08:26:07.000Z</time>
      </trkpt>
      <trkpt lat="45.8402" lon="4.78976">
        <ele>546</ele>
        <time>2020-06-07T08:26:08.000Z</time>
      </trkpt>
      <trkpt lat="45.8402" lon="4.78973">
        <ele>546.3</ele>
        <time>2020-06-07T08:26:09.000Z</time>
      </trkpt>
      <trkpt lat="45.84019" lon="4.7897">
        <ele>546.6</ele>
        <time>2020-06-07T08:26:10.000Z</time>
      </trkpt>
      <trkpt lat="45.84019" lon="4.78967">
        <ele>546.9</ele>
        <time>2020-06-07T08:26:11.000Z</time>
      </trkpt>
      <trkpt lat="45.84018" lon="4.78964">
        <ele>547.2</ele>
        <time>2020-06-07T08:26:12.000Z</time>
      </trkpt>
      <trkpt lat="45.84017" lon="4.78961">
        <ele>547.5</ele>
        <time>2020-06-07T08:26:13.000Z</time>
      </trkpt>
      <trkpt lat="45.84016" lon="4.78958">
        <ele>547.8</ele>
        <time>2020-06-07T08:26:14.000Z</time>
      </trkpt>
      <trkpt lat="45.84015" lon="4.78955">
        <ele>548</ele>
        <time>2020-06-07T08:26:15.000Z</time>
      </trkpt>
      <trkpt lat="45.84013" lon="4.78953">
        <ele>548.3</ele>
        <time>2020-06-07T08:26:16.000Z</time>
      </trkpt>
      <trkpt lat="45.84012" lon="4.7895">
        <ele>548.6</ele>
        <time>2020-06-07T08:26:17.000Z</time>
      </trkpt>
      <trkpt lat="45.8401" lon="4.78949">
        <ele>548.9</ele>
        <time>2020-06-07T08:26:18.000Z</time>
      </trkpt>
      <trkpt lat="45.84008" lon="4.78947">
        <ele>549.1</ele>
        <time>2020-06-07T08:26:19.000Z</time>
      </trkpt>
      <trkpt lat="45.84007" lon="4.78945">
        <ele>549.3</ele>
        <time>2020-06-07T08:26:20.000Z</time>
      </trkpt>
      <trkpt lat="45.84005" lon="4.78943">
        <ele>549.6</ele>
        <time>2020-06-07T08:26:21.000Z</time>
      </trkpt>
      <trkpt lat="45.84004" lon="4.78942">
        <ele>549.8</ele>
        <time>2020-06-07T08:26:22.000Z</time>
      </trkpt>
      <trkpt lat="45.84002" lon="4.7894">
        <ele>550.1</ele>
        <time>2020-06-07T08:26:23.000Z</time>
      </trkpt>
      <trkpt lat="45.84" lon="4.78938">
        <ele>550.4</ele>
        <time>2020-06-07T08:26:24.000Z</time>
      </trkpt>
      <trkpt lat="45.83998" lon="4.78936">
        <ele>550.7</ele>
        <time>2020-06-07T08:26:25.000Z</time>
      </trkpt>
      <trkpt lat="45.83996" lon="4.78934">
        <ele>550.9</ele>
        <time>2020-06-07T08:26:26.000Z</time>
      </trkpt>
      <trkpt lat="45.83994" lon="4.78932">
        <ele>551.1</ele>
        <time>2020-06-07T08:26:27.000Z</time>
      </trkpt>
      <trkpt lat="45.83993" lon="4.7893">
        <ele>551.3</ele>
        <time>2020-06-07T08:26:28.000Z</time>
      </trkpt>
      <trkpt lat="45.83991" lon="4.78929">
        <ele>551.5</ele>
        <time>2020-06-07T08:26:29.000Z</time>
      </trkpt>
      <trkpt lat="45.83989" lon="4.78927">
        <ele>551.7</ele>
        <time>2020-06-07T08:26:30.000Z</time>
      </trkpt>
      <trkpt lat="45.83987" lon="4.78925">
        <ele>551.9</ele>
        <time>2020-06-07T08:26:31.000Z</time>
      </trkpt>
      <trkpt lat="45.83985" lon="4.78923">
        <ele>552.1</ele>
        <time>2020-06-07T08:26:32.000Z</time>
      </trkpt>
      <trkpt lat="45.83982" lon="4.78921">
        <ele>552.2</ele>
        <time>2020-06-07T08:26:33.000Z</time>
      </trkpt>
      <trkpt lat="45.8398" lon="4.78919">
        <ele>552.4</ele>
        <time>2020-06-07T08:26:34.000Z</time>
      </trkpt>
      <trkpt lat="45.83978" lon="4.78917">
        <ele>552.6</ele>
        <time>2020-06-07T08:26:35.000Z</time>
      </trkpt>
      <trkpt lat="45.83976" lon="4.78915">
        <ele>552.8</ele>
        <time>2020-06-07T08:26:36.000Z</time>
      </trkpt>
      <trkpt lat="45.83973" lon="4.78913">
        <ele>553</ele>
        <time>2020-06-07T08:26:37.000Z</time>
      </trkpt>
      <trkpt lat="45.83971" lon="4.78911">
        <ele>553.2</ele>
        <time>2020-06-07T08:26:38.000Z</time>
      </trkpt>
      <trkpt lat="45.83968" lon="4.78909">
        <ele>553.4</ele>
        <time>2020-06-07T08:26:39.000Z</time>
      </trkpt>
      <trkpt lat="45.83966" lon="4.78907">
        <ele>553.6</ele>
        <time>2020-06-07T08:26:40.000Z</time>
      </trkpt>
      <trkpt lat="45.83963" lon="4.78906">
        <ele>553.8</ele>
        <time>2020-06-07T08:26:41.000Z</time>
      </trkpt>
      <trkpt lat="45.83961" lon="4.78905">
        <ele>554</ele>
        <time>2020-06-07T08:26:42.000Z</time>
      </trkpt>
      <trkpt lat="45.83959" lon="4.78903">
        <ele>554.1</ele>
        <time>2020-06-07T08:26:43.000Z</time>
      </trkpt>
      <trkpt lat="45.83956" lon="4.78901">
        <ele>554.3</ele>
        <time>2020-06-07T08:26:44.000Z</time>
      </trkpt>
      <trkpt lat="45.83954" lon="4.78899">
        <ele>554.5</ele>
        <time>2020-06-07T08:26:45.000Z</time>
      </trkpt>
      <trkpt lat="45.83952" lon="4.78897">
        <ele>554.7</ele>
        <time>2020-06-07T08:26:46.000Z</time>
      </trkpt>
      <trkpt lat="45.83949" lon="4.78897">
        <ele>554.9</ele>
        <time>2020-06-07T08:26:47.000Z</time>
      </trkpt>
      <trkpt lat="45.83947" lon="4.78895">
        <ele>555.1</ele>
        <time>2020-06-07T08:26:48.000Z</time>
      </trkpt>
      <trkpt lat="45.83945" lon="4.78894">
        <ele>555.2</ele>
        <time>2020-06-07T08:26:49.000Z</time>
      </trkpt>
      <trkpt lat="45.83943" lon="4.78893">
        <ele>555.4</ele>
        <time>2020-06-07T08:26:50.000Z</time>
      </trkpt>
      <trkpt lat="45.83941" lon="4.78891">
        <ele>555.5</ele>
        <time>2020-06-07T08:26:51.000Z</time>
      </trkpt>
      <trkpt lat="45.83939" lon="4.78889">
        <ele>555.7</ele>
        <time>2020-06-07T08:26:52.000Z</time>
      </trkpt>
      <trkpt lat="45.83937" lon="4.78886">
        <ele>555.9</ele>
        <time>2020-06-07T08:26:53.000Z</time>
      </trkpt>
      <trkpt lat="45.83934" lon="4.78884">
        <ele>556.1</ele>
        <time>2020-06-07T08:26:54.000Z</time>
      </trkpt>
      <trkpt lat="45.83932" lon="4.78882">
        <ele>556.3</ele>
        <time>2020-06-07T08:26:55.000Z</time>
      </trkpt>
      <trkpt lat="45.8393" lon="4.7888">
        <ele>556.5</ele>
        <time>2020-06-07T08:26:56.000Z</time>
      </trkpt>
      <trkpt lat="45.83928" lon="4.78877">
        <ele>556.7</ele>
        <time>2020-06-07T08:26:57.000Z</time>
      </trkpt>
      <trkpt lat="45.83926" lon="4.78875">
        <ele>556.9</ele>
        <time>2020-06-07T08:26:58.000Z</time>
      </trkpt>
      <trkpt lat="45.83924" lon="4.78873">
        <ele>557.2</ele>
        <time>2020-06-07T08:26:59.000Z</time>
      </trkpt>
      <trkpt lat="45.83921" lon="4.78871">
        <ele>557.4</ele>
        <time>2020-06-07T08:27:00.000Z</time>
      </trkpt>
      <trkpt lat="45.83919" lon="4.78869">
        <ele>557.6</ele>
        <time>2020-06-07T08:27:01.000Z</time>
      </trkpt>
      <trkpt lat="45.83917" lon="4.78867">
        <ele>557.8</ele>
        <time>2020-06-07T08:27:02.000Z</time>
      </trkpt>
      <trkpt lat="45.83915" lon="4.78865">
        <ele>558</ele>
        <time>2020-06-07T08:27:03.000Z</time>
      </trkpt>
      <trkpt lat="45.83912" lon="4.78862">
        <ele>558.2</ele>
        <time>2020-06-07T08:27:04.000Z</time>
      </trkpt>
      <trkpt lat="45.8391" lon="4.7886">
        <ele>558.4</ele>
        <time>2020-06-07T08:27:05.000Z</time>
      </trkpt>
      <trkpt lat="45.83908" lon="4.78858">
        <ele>558.6</ele>
        <time>2020-06-07T08:27:06.000Z</time>
      </trkpt>
      <trkpt lat="45.83906" lon="4.78856">
        <ele>558.8</ele>
        <time>2020-06-07T08:27:07.000Z</time>
      </trkpt>
      <trkpt lat="45.83904" lon="4.78853">
        <ele>559</ele>
        <time>2020-06-07T08:27:08.000Z</time>
      </trkpt>
      <trkpt lat="45.83901" lon="4.78851">
        <ele>559.2</ele>
        <time>2020-06-07T08:27:09.000Z</time>
      </trkpt>
      <trkpt lat="45.83899" lon="4.78849">
        <ele>559.4</ele>
        <time>2020-06-07T08:27:10.000Z</time>
      </trkpt>
      <trkpt lat="45.83897" lon="4.78846">
        <ele>559.6</ele>
        <time>2020-06-07T08:27:11.000Z</time>
      </trkpt>
      <trkpt lat="45.83895" lon="4.78844">
        <ele>559.8</ele>
        <time>2020-06-07T08:27:12.000Z</time>
      </trkpt>
      <trkpt lat="45.83892" lon="4.78842">
        <ele>560.1</ele>
        <time>2020-06-07T08:27:13.000Z</time>
      </trkpt>
      <trkpt lat="45.8389" lon="4.7884">
        <ele>560.3</ele>
        <time>2020-06-07T08:27:14.000Z</time>
      </trkpt>
      <trkpt lat="45.83888" lon="4.78837">
        <ele>560.5</ele>
        <time>2020-06-07T08:27:15.000Z</time>
      </trkpt>
      <trkpt lat="45.83886" lon="4.78835">
        <ele>560.7</ele>
        <time>2020-06-07T08:27:16.000Z</time>
      </trkpt>
      <trkpt lat="45.83884" lon="4.78833">
        <ele>560.9</ele>
        <time>2020-06-07T08:27:17.000Z</time>
      </trkpt>
      <trkpt lat="45.83881" lon="4.78831">
        <ele>561.1</ele>
        <time>2020-06-07T08:27:18.000Z</time>
      </trkpt>
      <trkpt lat="45.83879" lon="4.78829">
        <ele>561.3</ele>
        <time>2020-06-07T08:27:19.000Z</time>
      </trkpt>
      <trkpt lat="45.83877" lon="4.78827">
        <ele>561.5</ele>
        <time>2020-06-07T08:27:20.000Z</time>
      </trkpt>
      <trkpt lat="45.83875" lon="4.78825">
        <ele>561.8</ele>
        <time>2020-06-07T08:27:21.000Z</time>
      </trkpt>
      <trkpt lat="45.83872" lon="4.78824">
        <ele>562</ele>
        <time>2020-06-07T08:27:22.000Z</time>
      </trkpt>
      <trkpt lat="45.8387" lon="4.78822">
        <ele>562.2</ele>
        <time>2020-06-07T08:27:23.000Z</time>
      </trkpt>
      <trkpt lat="45.83868" lon="4.78821">
        <ele>562.4</ele>
        <time>2020-06-07T08:27:24.000Z</time>
      </trkpt>
      <trkpt lat="45.83865" lon="4.78819">
        <ele>562.6</ele>
        <time>2020-06-07T08:27:25.000Z</time>
      </trkpt>
      <trkpt lat="45.83863" lon="4.78818">
        <ele>562.8</ele>
        <time>2020-06-07T08:27:26.000Z</time>
      </trkpt>
      <trkpt lat="45.8386" lon="4.78816">
        <ele>563</ele>
        <time>2020-06-07T08:27:27.000Z</time>
      </trkpt>
      <trkpt lat="45.83858" lon="4.78815">
        <ele>563.3</ele>
        <time>2020-06-07T08:27:28.000Z</time>
      </trkpt>
      <trkpt lat="45.83855" lon="4.78812">
        <ele>563.5</ele>
        <time>2020-06-07T08:27:29.000Z</time>
      </trkpt>
      <trkpt lat="45.83853" lon="4.7881">
        <ele>563.8</ele>
        <time>2020-06-07T08:27:30.000Z</time>
      </trkpt>
      <trkpt lat="45.83851" lon="4.78808">
        <ele>564</ele>
        <time>2020-06-07T08:27:31.000Z</time>
      </trkpt>
      <trkpt lat="45.83848" lon="4.78807">
        <ele>564.2</ele>
        <time>2020-06-07T08:27:32.000Z</time>
      </trkpt>
      <trkpt lat="45.83846" lon="4.78806">
        <ele>564.4</ele>
        <time>2020-06-07T08:27:33.000Z</time>
      </trkpt>
      <trkpt lat="45.83843" lon="4.78805">
        <ele>564.7</ele>
        <time>2020-06-07T08:27:34.000Z</time>
      </trkpt>
      <trkpt lat="45.83841" lon="4.78804">
        <ele>564.9</ele>
        <time>2020-06-07T08:27:35.000Z</time>
      </trkpt>
      <trkpt lat="45.83838" lon="4.78802">
        <ele>565.1</ele>
        <time>2020-06-07T08:27:36.000Z</time>
      </trkpt>
      <trkpt lat="45.83836" lon="4.788">
        <ele>565.3</ele>
        <time>2020-06-07T08:27:37.000Z</time>
      </trkpt>
      <trkpt lat="45.83834" lon="4.78797">
        <ele>565.6</ele>
        <time>2020-06-07T08:27:38.000Z</time>
      </trkpt>
      <trkpt lat="45.83832" lon="4.78795">
        <ele>565.8</ele>
        <time>2020-06-07T08:27:39.000Z</time>
      </trkpt>
      <trkpt lat="45.8383" lon="4.78793">
        <ele>566</ele>
        <time>2020-06-07T08:27:40.000Z</time>
      </trkpt>
      <trkpt lat="45.83828" lon="4.78791">
        <ele>566.2</ele>
        <time>2020-06-07T08:27:41.000Z</time>
      </trkpt>
      <trkpt lat="45.83826" lon="4.78789">
        <ele>566.3</ele>
        <time>2020-06-07T08:27:42.000Z</time>
      </trkpt>
      <trkpt lat="45.83824" lon="4.78787">
        <ele>566.5</ele>
        <time>2020-06-07T08:27:43.000Z</time>
      </trkpt>
      <trkpt lat="45.83822" lon="4.78786">
        <ele>566.9</ele>
        <time>2020-06-07T08:27:44.000Z</time>
      </trkpt>
      <trkpt lat="45.8382" lon="4.78784">
        <ele>567.1</ele>
        <time>2020-06-07T08:27:45.000Z</time>
      </trkpt>
      <trkpt lat="45.83818" lon="4.78783">
        <ele>567.3</ele>
        <time>2020-06-07T08:27:46.000Z</time>
      </trkpt>
      <trkpt lat="45.83816" lon="4.7878">
        <ele>567.5</ele>
        <time>2020-06-07T08:27:47.000Z</time>
      </trkpt>
      <trkpt lat="45.83814" lon="4.78779">
        <ele>567.7</ele>
        <time>2020-06-07T08:27:48.000Z</time>
      </trkpt>
      <trkpt lat="45.83811" lon="4.78777">
        <ele>567.9</ele>
        <time>2020-06-07T08:27:49.000Z</time>
      </trkpt>
      <trkpt lat="45.83809" lon="4.78775">
        <ele>568.1</ele>
        <time>2020-06-07T08:27:50.000Z</time>
      </trkpt>
      <trkpt lat="45.83807" lon="4.78773">
        <ele>568.3</ele>
        <time>2020-06-07T08:27:51.000Z</time>
      </trkpt>
      <trkpt lat="45.83804" lon="4.7877">
        <ele>568.4</ele>
        <time>2020-06-07T08:27:52.000Z</time>
      </trkpt>
      <trkpt lat="45.83802" lon="4.78768">
        <ele>568.6</ele>
        <time>2020-06-07T08:27:53.000Z</time>
      </trkpt>
      <trkpt lat="45.83799" lon="4.78766">
        <ele>568.8</ele>
        <time>2020-06-07T08:27:54.000Z</time>
      </trkpt>
      <trkpt lat="45.83797" lon="4.78764">
        <ele>569</ele>
        <time>2020-06-07T08:27:55.000Z</time>
      </trkpt>
      <trkpt lat="45.83794" lon="4.78763">
        <ele>569.1</ele>
        <time>2020-06-07T08:27:56.000Z</time>
      </trkpt>
      <trkpt lat="45.83792" lon="4.78761">
        <ele>569.3</ele>
        <time>2020-06-07T08:27:57.000Z</time>
      </trkpt>
      <trkpt lat="45.83789" lon="4.78759">
        <ele>569.5</ele>
        <time>2020-06-07T08:27:58.000Z</time>
      </trkpt>
      <trkpt lat="45.83787" lon="4.78757">
        <ele>569.6</ele>
        <time>2020-06-07T08:27:59.000Z</time>
      </trkpt>
      <trkpt lat="45.83784" lon="4.78756">
        <ele>569.7</ele>
        <time>2020-06-07T08:28:00.000Z</time>
      </trkpt>
      <trkpt lat="45.83782" lon="4.78754">
        <ele>569.9</ele>
        <time>2020-06-07T08:28:01.000Z</time>
      </trkpt>
      <trkpt lat="45.83779" lon="4.78753">
        <ele>570</ele>
        <time>2020-06-07T08:28:02.000Z</time>
      </trkpt>
      <trkpt lat="45.83777" lon="4.78751">
        <ele>570.2</ele>
        <time>2020-06-07T08:28:03.000Z</time>
      </trkpt>
      <trkpt lat="45.83774" lon="4.7875">
        <ele>570.3</ele>
        <time>2020-06-07T08:28:04.000Z</time>
      </trkpt>
      <trkpt lat="45.83771" lon="4.78749">
        <ele>570.4</ele>
        <time>2020-06-07T08:28:05.000Z</time>
      </trkpt>
      <trkpt lat="45.83769" lon="4.78747">
        <ele>570.6</ele>
        <time>2020-06-07T08:28:06.000Z</time>
      </trkpt>
      <trkpt lat="45.83766" lon="4.78745">
        <ele>570.7</ele>
        <time>2020-06-07T08:28:07.000Z</time>
      </trkpt>
      <trkpt lat="45.83763" lon="4.78743">
        <ele>570.9</ele>
        <time>2020-06-07T08:28:08.000Z</time>
      </trkpt>
      <trkpt lat="45.8376" lon="4.78741">
        <ele>571.1</ele>
        <time>2020-06-07T08:28:09.000Z</time>
      </trkpt>
      <trkpt lat="45.83757" lon="4.78739">
        <ele>571.3</ele>
        <time>2020-06-07T08:28:10.000Z</time>
      </trkpt>
      <trkpt lat="45.83755" lon="4.78737">
        <ele>571.4</ele>
        <time>2020-06-07T08:28:11.000Z</time>
      </trkpt>
      <trkpt lat="45.83752" lon="4.78733">
        <ele>571.6</ele>
        <time>2020-06-07T08:28:12.000Z</time>
      </trkpt>
      <trkpt lat="45.8375" lon="4.78729">
        <ele>571.8</ele>
        <time>2020-06-07T08:28:13.000Z</time>
      </trkpt>
      <trkpt lat="45.8375" lon="4.78724">
        <ele>572.1</ele>
        <time>2020-06-07T08:28:14.000Z</time>
      </trkpt>
      <trkpt lat="45.83748" lon="4.78719">
        <ele>572.3</ele>
        <time>2020-06-07T08:28:15.000Z</time>
      </trkpt>
      <trkpt lat="45.83747" lon="4.78715">
        <ele>572.4</ele>
        <time>2020-06-07T08:28:16.000Z</time>
      </trkpt>
      <trkpt lat="45.83746" lon="4.78711">
        <ele>572.7</ele>
        <time>2020-06-07T08:28:17.000Z</time>
      </trkpt>
      <trkpt lat="45.83744" lon="4.78707">
        <ele>572.8</ele>
        <time>2020-06-07T08:28:18.000Z</time>
      </trkpt>
      <trkpt lat="45.83743" lon="4.78704">
        <ele>573</ele>
        <time>2020-06-07T08:28:19.000Z</time>
      </trkpt>
      <trkpt lat="45.83742" lon="4.78701">
        <ele>573.2</ele>
        <time>2020-06-07T08:28:20.000Z</time>
      </trkpt>
      <trkpt lat="45.8374" lon="4.78697">
        <ele>573.5</ele>
        <time>2020-06-07T08:28:21.000Z</time>
      </trkpt>
      <trkpt lat="45.83739" lon="4.78694">
        <ele>573.7</ele>
        <time>2020-06-07T08:28:22.000Z</time>
      </trkpt>
      <trkpt lat="45.83737" lon="4.78691">
        <ele>573.8</ele>
        <time>2020-06-07T08:28:23.000Z</time>
      </trkpt>
      <trkpt lat="45.83734" lon="4.78689">
        <ele>573.9</ele>
        <time>2020-06-07T08:28:24.000Z</time>
      </trkpt>
      <trkpt lat="45.83732" lon="4.78688">
        <ele>574.1</ele>
        <time>2020-06-07T08:28:25.000Z</time>
      </trkpt>
      <trkpt lat="45.8373" lon="4.78687">
        <ele>574.2</ele>
        <time>2020-06-07T08:28:26.000Z</time>
      </trkpt>
      <trkpt lat="45.83727" lon="4.78686">
        <ele>574.3</ele>
        <time>2020-06-07T08:28:27.000Z</time>
      </trkpt>
      <trkpt lat="45.83724" lon="4.78684">
        <ele>574.3</ele>
        <time>2020-06-07T08:28:28.000Z</time>
      </trkpt>
      <trkpt lat="45.83721" lon="4.78683">
        <ele>574.4</ele>
        <time>2020-06-07T08:28:29.000Z</time>
      </trkpt>
      <trkpt lat="45.83719" lon="4.78683">
        <ele>574.5</ele>
        <time>2020-06-07T08:28:30.000Z</time>
      </trkpt>
      <trkpt lat="45.83716" lon="4.78683">
        <ele>574.5</ele>
        <time>2020-06-07T08:28:31.000Z</time>
      </trkpt>
      <trkpt lat="45.83713" lon="4.78684">
        <ele>574.6</ele>
        <time>2020-06-07T08:28:32.000Z</time>
      </trkpt>
      <trkpt lat="45.8371" lon="4.78684">
        <ele>574.6</ele>
        <time>2020-06-07T08:28:33.000Z</time>
      </trkpt>
      <trkpt lat="45.83707" lon="4.78685">
        <ele>574.6</ele>
        <time>2020-06-07T08:28:34.000Z</time>
      </trkpt>
      <trkpt lat="45.83705" lon="4.78686">
        <ele>574.6</ele>
        <time>2020-06-07T08:28:35.000Z</time>
      </trkpt>
      <trkpt lat="45.83701" lon="4.78686">
        <ele>574.6</ele>
        <time>2020-06-07T08:28:36.000Z</time>
      </trkpt>
      <trkpt lat="45.83698" lon="4.78686">
        <ele>574.6</ele>
        <time>2020-06-07T08:28:37.000Z</time>
      </trkpt>
      <trkpt lat="45.83694" lon="4.78686">
        <ele>574.5</ele>
        <time>2020-06-07T08:28:38.000Z</time>
      </trkpt>
      <trkpt lat="45.83691" lon="4.78685">
        <ele>574.5</ele>
        <time>2020-06-07T08:28:39.000Z</time>
      </trkpt>
      <trkpt lat="45.83687" lon="4.78685">
        <ele>574.5</ele>
        <time>2020-06-07T08:28:40.000Z</time>
      </trkpt>
      <trkpt lat="45.83684" lon="4.78686">
        <ele>574.5</ele>
        <time>2020-06-07T08:28:41.000Z</time>
      </trkpt>
      <trkpt lat="45.8368" lon="4.78687">
        <ele>574.4</ele>
        <time>2020-06-07T08:28:42.000Z</time>
      </trkpt>
      <trkpt lat="45.83676" lon="4.78688">
        <ele>574.4</ele>
        <time>2020-06-07T08:28:43.000Z</time>
      </trkpt>
      <trkpt lat="45.83672" lon="4.78688">
        <ele>574.4</ele>
        <time>2020-06-07T08:28:44.000Z</time>
      </trkpt>
      <trkpt lat="45.83667" lon="4.78689">
        <ele>574.3</ele>
        <time>2020-06-07T08:28:45.000Z</time>
      </trkpt>
      <trkpt lat="45.83662" lon="4.78692">
        <ele>574.3</ele>
        <time>2020-06-07T08:28:46.000Z</time>
      </trkpt>
      <trkpt lat="45.83657" lon="4.78692">
        <ele>574.4</ele>
        <time>2020-06-07T08:28:47.000Z</time>
      </trkpt>
      <trkpt lat="45.83653" lon="4.78692">
        <ele>574.5</ele>
        <time>2020-06-07T08:28:48.000Z</time>
      </trkpt>
      <trkpt lat="45.83649" lon="4.78692">
        <ele>574.6</ele>
        <time>2020-06-07T08:28:49.000Z</time>
      </trkpt>
      <trkpt lat="45.83645" lon="4.78691">
        <ele>574.7</ele>
        <time>2020-06-07T08:28:50.000Z</time>
      </trkpt>
      <trkpt lat="45.83641" lon="4.78689">
        <ele>574.9</ele>
        <time>2020-06-07T08:28:51.000Z</time>
      </trkpt>
      <trkpt lat="45.83637" lon="4.78687">
        <ele>575.1</ele>
        <time>2020-06-07T08:28:52.000Z</time>
      </trkpt>
      <trkpt lat="45.83635" lon="4.78685">
        <ele>575.2</ele>
        <time>2020-06-07T08:28:53.000Z</time>
      </trkpt>
      <trkpt lat="45.83632" lon="4.78684">
        <ele>575.3</ele>
        <time>2020-06-07T08:28:54.000Z</time>
      </trkpt>
      <trkpt lat="45.83631" lon="4.78681">
        <ele>575.4</ele>
        <time>2020-06-07T08:28:55.000Z</time>
      </trkpt>
      <trkpt lat="45.83629" lon="4.78679">
        <ele>575.5</ele>
        <time>2020-06-07T08:28:56.000Z</time>
      </trkpt>
      <trkpt lat="45.83628" lon="4.78678">
        <ele>575.5</ele>
        <time>2020-06-07T08:28:57.000Z</time>
      </trkpt>
      <trkpt lat="45.83627" lon="4.78677">
        <ele>575.6</ele>
        <time>2020-06-07T08:28:58.000Z</time>
      </trkpt>
      <trkpt lat="45.83626" lon="4.78677">
        <ele>575.6</ele>
        <time>2020-06-07T08:28:59.000Z</time>
      </trkpt>
      <trkpt lat="45.83625" lon="4.78676">
        <ele>575.7</ele>
        <time>2020-06-07T08:29:00.000Z</time>
      </trkpt>
      <trkpt lat="45.83624" lon="4.78676">
        <ele>575.7</ele>
        <time>2020-06-07T08:29:01.000Z</time>
      </trkpt>
      <trkpt lat="45.83623" lon="4.78676">
        <ele>575.8</ele>
        <time>2020-06-07T08:29:02.000Z</time>
      </trkpt>
      <trkpt lat="45.83622" lon="4.78677">
        <ele>575.9</ele>
        <time>2020-06-07T08:29:03.000Z</time>
      </trkpt>
      <trkpt lat="45.8362" lon="4.78677">
        <ele>575.8</ele>
        <time>2020-06-07T08:29:04.000Z</time>
      </trkpt>
      <trkpt lat="45.83619" lon="4.78677">
        <ele>575.7</ele>
        <time>2020-06-07T08:29:05.000Z</time>
      </trkpt>
      <trkpt lat="45.83617" lon="4.78676">
        <ele>575.6</ele>
        <time>2020-06-07T08:29:06.000Z</time>
      </trkpt>
      <trkpt lat="45.83616" lon="4.78676">
        <ele>575.4</ele>
        <time>2020-06-07T08:29:07.000Z</time>
      </trkpt>
      <trkpt lat="45.83613" lon="4.78677">
        <ele>575.2</ele>
        <time>2020-06-07T08:29:08.000Z</time>
      </trkpt>
      <trkpt lat="45.83611" lon="4.78678">
        <ele>574.9</ele>
        <time>2020-06-07T08:29:09.000Z</time>
      </trkpt>
      <trkpt lat="45.83608" lon="4.78678">
        <ele>574.6</ele>
        <time>2020-06-07T08:29:10.000Z</time>
      </trkpt>
      <trkpt lat="45.83605" lon="4.7868">
        <ele>574.3</ele>
        <time>2020-06-07T08:29:11.000Z</time>
      </trkpt>
      <trkpt lat="45.83602" lon="4.7868">
        <ele>573.9</ele>
        <time>2020-06-07T08:29:12.000Z</time>
      </trkpt>
      <trkpt lat="45.83598" lon="4.78681">
        <ele>573.5</ele>
        <time>2020-06-07T08:29:13.000Z</time>
      </trkpt>
      <trkpt lat="45.83594" lon="4.78682">
        <ele>573</ele>
        <time>2020-06-07T08:29:14.000Z</time>
      </trkpt>
      <trkpt lat="45.8359" lon="4.78684">
        <ele>572.5</ele>
        <time>2020-06-07T08:29:15.000Z</time>
      </trkpt>
      <trkpt lat="45.83586" lon="4.78686">
        <ele>572</ele>
        <time>2020-06-07T08:29:16.000Z</time>
      </trkpt>
      <trkpt lat="45.83581" lon="4.78689">
        <ele>571.4</ele>
        <time>2020-06-07T08:29:17.000Z</time>
      </trkpt>
      <trkpt lat="45.83575" lon="4.78692">
        <ele>570.6</ele>
        <time>2020-06-07T08:29:18.000Z</time>
      </trkpt>
      <trkpt lat="45.83569" lon="4.78695">
        <ele>569.9</ele>
        <time>2020-06-07T08:29:19.000Z</time>
      </trkpt>
      <trkpt lat="45.83562" lon="4.78699">
        <ele>569.1</ele>
        <time>2020-06-07T08:29:20.000Z</time>
      </trkpt>
      <trkpt lat="45.83557" lon="4.78701">
        <ele>568.4</ele>
        <time>2020-06-07T08:29:21.000Z</time>
      </trkpt>
      <trkpt lat="45.83551" lon="4.78704">
        <ele>567.7</ele>
        <time>2020-06-07T08:29:22.000Z</time>
      </trkpt>
      <trkpt lat="45.83545" lon="4.78706">
        <ele>566.9</ele>
        <time>2020-06-07T08:29:23.000Z</time>
      </trkpt>
      <trkpt lat="45.8354" lon="4.78708">
        <ele>566.3</ele>
        <time>2020-06-07T08:29:24.000Z</time>
      </trkpt>
      <trkpt lat="45.83536" lon="4.78709">
        <ele>565.8</ele>
        <time>2020-06-07T08:29:25.000Z</time>
      </trkpt>
      <trkpt lat="45.83531" lon="4.78711">
        <ele>565.3</ele>
        <time>2020-06-07T08:29:26.000Z</time>
      </trkpt>
      <trkpt lat="45.83527" lon="4.78712">
        <ele>564.8</ele>
        <time>2020-06-07T08:29:27.000Z</time>
      </trkpt>
      <trkpt lat="45.83522" lon="4.78714">
        <ele>564.2</ele>
        <time>2020-06-07T08:29:28.000Z</time>
      </trkpt>
      <trkpt lat="45.83516" lon="4.78717">
        <ele>563.6</ele>
        <time>2020-06-07T08:29:29.000Z</time>
      </trkpt>
      <trkpt lat="45.8351" lon="4.7872">
        <ele>562.9</ele>
        <time>2020-06-07T08:29:30.000Z</time>
      </trkpt>
      <trkpt lat="45.83505" lon="4.78722">
        <ele>562.2</ele>
        <time>2020-06-07T08:29:31.000Z</time>
      </trkpt>
      <trkpt lat="45.835" lon="4.78725">
        <ele>561.6</ele>
        <time>2020-06-07T08:29:32.000Z</time>
      </trkpt>
      <trkpt lat="45.83495" lon="4.78727">
        <ele>561</ele>
        <time>2020-06-07T08:29:33.000Z</time>
      </trkpt>
      <trkpt lat="45.8349" lon="4.78729">
        <ele>560.5</ele>
        <time>2020-06-07T08:29:34.000Z</time>
      </trkpt>
      <trkpt lat="45.83486" lon="4.78731">
        <ele>559.9</ele>
        <time>2020-06-07T08:29:35.000Z</time>
      </trkpt>
      <trkpt lat="45.83483" lon="4.78733">
        <ele>559.5</ele>
        <time>2020-06-07T08:29:36.000Z</time>
      </trkpt>
      <trkpt lat="45.8348" lon="4.78734">
        <ele>559.1</ele>
        <time>2020-06-07T08:29:37.000Z</time>
      </trkpt>
      <trkpt lat="45.83477" lon="4.78735">
        <ele>558.7</ele>
        <time>2020-06-07T08:29:38.000Z</time>
      </trkpt>
      <trkpt lat="45.83474" lon="4.78736">
        <ele>558.4</ele>
        <time>2020-06-07T08:29:39.000Z</time>
      </trkpt>
      <trkpt lat="45.83472" lon="4.78737">
        <ele>558.1</ele>
        <time>2020-06-07T08:29:40.000Z</time>
      </trkpt>
      <trkpt lat="45.8347" lon="4.78738">
        <ele>557.7</ele>
        <time>2020-06-07T08:29:41.000Z</time>
      </trkpt>
      <trkpt lat="45.83468" lon="4.78739">
        <ele>557.5</ele>
        <time>2020-06-07T08:29:42.000Z</time>
      </trkpt>
      <trkpt lat="45.83466" lon="4.7874">
        <ele>557.2</ele>
        <time>2020-06-07T08:29:43.000Z</time>
      </trkpt>
      <trkpt lat="45.83463" lon="4.78741">
        <ele>556.8</ele>
        <time>2020-06-07T08:29:44.000Z</time>
      </trkpt>
      <trkpt lat="45.8346" lon="4.78742">
        <ele>556.4</ele>
        <time>2020-06-07T08:29:45.000Z</time>
      </trkpt>
      <trkpt lat="45.83457" lon="4.78744">
        <ele>555.9</ele>
        <time>2020-06-07T08:29:46.000Z</time>
      </trkpt>
      <trkpt lat="45.83453" lon="4.78745">
        <ele>555.4</ele>
        <time>2020-06-07T08:29:47.000Z</time>
      </trkpt>
      <trkpt lat="45.83448" lon="4.78747">
        <ele>554.6</ele>
        <time>2020-06-07T08:29:48.000Z</time>
      </trkpt>
      <trkpt lat="45.83443" lon="4.78749">
        <ele>553.9</ele>
        <time>2020-06-07T08:29:49.000Z</time>
      </trkpt>
      <trkpt lat="45.83438" lon="4.7875">
        <ele>553.1</ele>
        <time>2020-06-07T08:29:50.000Z</time>
      </trkpt>
      <trkpt lat="45.83431" lon="4.78753">
        <ele>552.1</ele>
        <time>2020-06-07T08:29:51.000Z</time>
      </trkpt>
      <trkpt lat="45.83423" lon="4.78755">
        <ele>551.1</ele>
        <time>2020-06-07T08:29:52.000Z</time>
      </trkpt>
      <trkpt lat="45.83417" lon="4.78756">
        <ele>550.2</ele>
        <time>2020-06-07T08:29:53.000Z</time>
      </trkpt>
      <trkpt lat="45.83409" lon="4.78759">
        <ele>548.9</ele>
        <time>2020-06-07T08:29:54.000Z</time>
      </trkpt>
      <trkpt lat="45.83403" lon="4.7876">
        <ele>548.6</ele>
        <time>2020-06-07T08:29:55.000Z</time>
      </trkpt>
      <trkpt lat="45.83396" lon="4.78762">
        <ele>548.4</ele>
        <time>2020-06-07T08:29:56.000Z</time>
      </trkpt>
      <trkpt lat="45.8339" lon="4.78764">
        <ele>548.1</ele>
        <time>2020-06-07T08:29:57.000Z</time>
      </trkpt>
      <trkpt lat="45.83383" lon="4.78767">
        <ele>547.5</ele>
        <time>2020-06-07T08:29:58.000Z</time>
      </trkpt>
      <trkpt lat="45.83378" lon="4.7877">
        <ele>547.1</ele>
        <time>2020-06-07T08:29:59.000Z</time>
      </trkpt>
      <trkpt lat="45.83373" lon="4.78773">
        <ele>546.6</ele>
        <time>2020-06-07T08:30:00.000Z</time>
      </trkpt>
      <trkpt lat="45.83368" lon="4.78776">
        <ele>546.2</ele>
        <time>2020-06-07T08:30:01.000Z</time>
      </trkpt>
      <trkpt lat="45.83364" lon="4.78779">
        <ele>545.8</ele>
        <time>2020-06-07T08:30:02.000Z</time>
      </trkpt>
      <trkpt lat="45.8336" lon="4.78782">
        <ele>545.4</ele>
        <time>2020-06-07T08:30:03.000Z</time>
      </trkpt>
      <trkpt lat="45.83355" lon="4.78786">
        <ele>544.8</ele>
        <time>2020-06-07T08:30:04.000Z</time>
      </trkpt>
      <trkpt lat="45.83349" lon="4.7879">
        <ele>544.2</ele>
        <time>2020-06-07T08:30:05.000Z</time>
      </trkpt>
      <trkpt lat="45.83343" lon="4.78795">
        <ele>543.5</ele>
        <time>2020-06-07T08:30:06.000Z</time>
      </trkpt>
      <trkpt lat="45.83337" lon="4.78799">
        <ele>542.8</ele>
        <time>2020-06-07T08:30:07.000Z</time>
      </trkpt>
      <trkpt lat="45.83332" lon="4.78802">
        <ele>542.2</ele>
        <time>2020-06-07T08:30:08.000Z</time>
      </trkpt>
      <trkpt lat="45.83328" lon="4.78806">
        <ele>541.8</ele>
        <time>2020-06-07T08:30:09.000Z</time>
      </trkpt>
      <trkpt lat="45.83324" lon="4.7881">
        <ele>541.3</ele>
        <time>2020-06-07T08:30:10.000Z</time>
      </trkpt>
      <trkpt lat="45.8332" lon="4.78814">
        <ele>540.7</ele>
        <time>2020-06-07T08:30:11.000Z</time>
      </trkpt>
      <trkpt lat="45.83316" lon="4.78818">
        <ele>540.1</ele>
        <time>2020-06-07T08:30:12.000Z</time>
      </trkpt>
      <trkpt lat="45.83311" lon="4.78822">
        <ele>539.4</ele>
        <time>2020-06-07T08:30:13.000Z</time>
      </trkpt>
      <trkpt lat="45.83306" lon="4.78825">
        <ele>538.6</ele>
        <time>2020-06-07T08:30:14.000Z</time>
      </trkpt>
      <trkpt lat="45.83301" lon="4.78828">
        <ele>537.9</ele>
        <time>2020-06-07T08:30:15.000Z</time>
      </trkpt>
      <trkpt lat="45.83296" lon="4.78831">
        <ele>537.2</ele>
        <time>2020-06-07T08:30:16.000Z</time>
      </trkpt>
      <trkpt lat="45.83291" lon="4.78834">
        <ele>536.5</ele>
        <time>2020-06-07T08:30:17.000Z</time>
      </trkpt>
      <trkpt lat="45.83287" lon="4.78836">
        <ele>535.9</ele>
        <time>2020-06-07T08:30:18.000Z</time>
      </trkpt>
      <trkpt lat="45.83282" lon="4.78837">
        <ele>535.3</ele>
        <time>2020-06-07T08:30:19.000Z</time>
      </trkpt>
      <trkpt lat="45.83278" lon="4.78839">
        <ele>534.7</ele>
        <time>2020-06-07T08:30:20.000Z</time>
      </trkpt>
      <trkpt lat="45.83275" lon="4.7884">
        <ele>534.3</ele>
        <time>2020-06-07T08:30:21.000Z</time>
      </trkpt>
      <trkpt lat="45.83271" lon="4.78841">
        <ele>533.7</ele>
        <time>2020-06-07T08:30:22.000Z</time>
      </trkpt>
      <trkpt lat="45.83267" lon="4.78843">
        <ele>533.1</ele>
        <time>2020-06-07T08:30:23.000Z</time>
      </trkpt>
      <trkpt lat="45.83263" lon="4.78845">
        <ele>532.4</ele>
        <time>2020-06-07T08:30:24.000Z</time>
      </trkpt>
      <trkpt lat="45.83257" lon="4.78849">
        <ele>531.6</ele>
        <time>2020-06-07T08:30:25.000Z</time>
      </trkpt>
      <trkpt lat="45.83252" lon="4.78852">
        <ele>530.8</ele>
        <time>2020-06-07T08:30:26.000Z</time>
      </trkpt>
      <trkpt lat="45.83247" lon="4.78856">
        <ele>529.9</ele>
        <time>2020-06-07T08:30:27.000Z</time>
      </trkpt>
      <trkpt lat="45.83242" lon="4.7886">
        <ele>529.1</ele>
        <time>2020-06-07T08:30:28.000Z</time>
      </trkpt>
      <trkpt lat="45.83237" lon="4.78864">
        <ele>528.3</ele>
        <time>2020-06-07T08:30:29.000Z</time>
      </trkpt>
      <trkpt lat="45.83232" lon="4.78868">
        <ele>527.4</ele>
        <time>2020-06-07T08:30:30.000Z</time>
      </trkpt>
      <trkpt lat="45.83226" lon="4.78871">
        <ele>526.5</ele>
        <time>2020-06-07T08:30:31.000Z</time>
      </trkpt>
      <trkpt lat="45.83221" lon="4.78874">
        <ele>525.7</ele>
        <time>2020-06-07T08:30:32.000Z</time>
      </trkpt>
      <trkpt lat="45.83215" lon="4.78878">
        <ele>524.9</ele>
        <time>2020-06-07T08:30:33.000Z</time>
      </trkpt>
      <trkpt lat="45.8321" lon="4.78881">
        <ele>524.1</ele>
        <time>2020-06-07T08:30:34.000Z</time>
      </trkpt>
      <trkpt lat="45.83205" lon="4.78884">
        <ele>523.4</ele>
        <time>2020-06-07T08:30:35.000Z</time>
      </trkpt>
      <trkpt lat="45.832" lon="4.78886">
        <ele>522.8</ele>
        <time>2020-06-07T08:30:36.000Z</time>
      </trkpt>
      <trkpt lat="45.83196" lon="4.78888">
        <ele>522.2</ele>
        <time>2020-06-07T08:30:37.000Z</time>
      </trkpt>
      <trkpt lat="45.83192" lon="4.7889">
        <ele>521.6</ele>
        <time>2020-06-07T08:30:38.000Z</time>
      </trkpt>
      <trkpt lat="45.83188" lon="4.78891">
        <ele>519.6</ele>
        <time>2020-06-07T08:30:39.000Z</time>
      </trkpt>
      <trkpt lat="45.83186" lon="4.7889">
        <ele>519.6</ele>
        <time>2020-06-07T08:30:40.000Z</time>
      </trkpt>
      <trkpt lat="45.83184" lon="4.78889">
        <ele>519.7</ele>
        <time>2020-06-07T08:30:41.000Z</time>
      </trkpt>
      <trkpt lat="45.83183" lon="4.78888">
        <ele>519.7</ele>
        <time>2020-06-07T08:30:42.000Z</time>
      </trkpt>
      <trkpt lat="45.83184" lon="4.78886">
        <ele>519.7</ele>
        <time>2020-06-07T08:30:43.000Z</time>
      </trkpt>
      <trkpt lat="45.83185" lon="4.78883">
        <ele>519.7</ele>
        <time>2020-06-07T08:30:44.000Z</time>
      </trkpt>
      <trkpt lat="45.83186" lon="4.78881">
        <ele>519.8</ele>
        <time>2020-06-07T08:30:45.000Z</time>
      </trkpt>
      <trkpt lat="45.83188" lon="4.78878">
        <ele>519.8</ele>
        <time>2020-06-07T08:30:46.000Z</time>
      </trkpt>
      <trkpt lat="45.8319" lon="4.78874">
        <ele>519.9</ele>
        <time>2020-06-07T08:30:47.000Z</time>
      </trkpt>
      <trkpt lat="45.83192" lon="4.7887">
        <ele>519.9</ele>
        <time>2020-06-07T08:30:48.000Z</time>
      </trkpt>
      <trkpt lat="45.83195" lon="4.78866">
        <ele>520</ele>
        <time>2020-06-07T08:30:49.000Z</time>
      </trkpt>
      <trkpt lat="45.83197" lon="4.78862">
        <ele>520</ele>
        <time>2020-06-07T08:30:50.000Z</time>
      </trkpt>
      <trkpt lat="45.83199" lon="4.78858">
        <ele>520.1</ele>
        <time>2020-06-07T08:30:51.000Z</time>
      </trkpt>
      <trkpt lat="45.83201" lon="4.78853">
        <ele>520.2</ele>
        <time>2020-06-07T08:30:52.000Z</time>
      </trkpt>
      <trkpt lat="45.83203" lon="4.78847">
        <ele>520.4</ele>
        <time>2020-06-07T08:30:53.000Z</time>
      </trkpt>
      <trkpt lat="45.83205" lon="4.78842">
        <ele>520.5</ele>
        <time>2020-06-07T08:30:54.000Z</time>
      </trkpt>
      <trkpt lat="45.83207" lon="4.78837">
        <ele>520.6</ele>
        <time>2020-06-07T08:30:55.000Z</time>
      </trkpt>
      <trkpt lat="45.83209" lon="4.78832">
        <ele>520.8</ele>
        <time>2020-06-07T08:30:56.000Z</time>
      </trkpt>
      <trkpt lat="45.83211" lon="4.78828">
        <ele>520.9</ele>
        <time>2020-06-07T08:30:57.000Z</time>
      </trkpt>
      <trkpt lat="45.83214" lon="4.78824">
        <ele>521.1</ele>
        <time>2020-06-07T08:30:58.000Z</time>
      </trkpt>
      <trkpt lat="45.83216" lon="4.7882">
        <ele>521.3</ele>
        <time>2020-06-07T08:30:59.000Z</time>
      </trkpt>
      <trkpt lat="45.83219" lon="4.78816">
        <ele>521.5</ele>
        <time>2020-06-07T08:31:00.000Z</time>
      </trkpt>
      <trkpt lat="45.83222" lon="4.78812">
        <ele>521.7</ele>
        <time>2020-06-07T08:31:01.000Z</time>
      </trkpt>
      <trkpt lat="45.83224" lon="4.78808">
        <ele>521.9</ele>
        <time>2020-06-07T08:31:02.000Z</time>
      </trkpt>
      <trkpt lat="45.83227" lon="4.78805">
        <ele>522.1</ele>
        <time>2020-06-07T08:31:03.000Z</time>
      </trkpt>
      <trkpt lat="45.83229" lon="4.78802">
        <ele>522.4</ele>
        <time>2020-06-07T08:31:04.000Z</time>
      </trkpt>
      <trkpt lat="45.83232" lon="4.78799">
        <ele>522.6</ele>
        <time>2020-06-07T08:31:05.000Z</time>
      </trkpt>
      <trkpt lat="45.83235" lon="4.78796">
        <ele>522.8</ele>
        <time>2020-06-07T08:31:06.000Z</time>
      </trkpt>
      <trkpt lat="45.83237" lon="4.78793">
        <ele>523</ele>
        <time>2020-06-07T08:31:07.000Z</time>
      </trkpt>
      <trkpt lat="45.8324" lon="4.7879">
        <ele>523.3</ele>
        <time>2020-06-07T08:31:08.000Z</time>
      </trkpt>
      <trkpt lat="45.83244" lon="4.78787">
        <ele>523.5</ele>
        <time>2020-06-07T08:31:09.000Z</time>
      </trkpt>
      <trkpt lat="45.83247" lon="4.78785">
        <ele>523.7</ele>
        <time>2020-06-07T08:31:10.000Z</time>
      </trkpt>
      <trkpt lat="45.8325" lon="4.78783">
        <ele>523.9</ele>
        <time>2020-06-07T08:31:11.000Z</time>
      </trkpt>
      <trkpt lat="45.83252" lon="4.7878">
        <ele>524.2</ele>
        <time>2020-06-07T08:31:12.000Z</time>
      </trkpt>
      <trkpt lat="45.83255" lon="4.78779">
        <ele>524.4</ele>
        <time>2020-06-07T08:31:13.000Z</time>
      </trkpt>
      <trkpt lat="45.83257" lon="4.78777">
        <ele>524.5</ele>
        <time>2020-06-07T08:31:14.000Z</time>
      </trkpt>
      <trkpt lat="45.83259" lon="4.78776">
        <ele>524.7</ele>
        <time>2020-06-07T08:31:15.000Z</time>
      </trkpt>
      <trkpt lat="45.83262" lon="4.78773">
        <ele>525</ele>
        <time>2020-06-07T08:31:16.000Z</time>
      </trkpt>
      <trkpt lat="45.83265" lon="4.78771">
        <ele>525.2</ele>
        <time>2020-06-07T08:31:17.000Z</time>
      </trkpt>
      <trkpt lat="45.83266" lon="4.7877">
        <ele>525.4</ele>
        <time>2020-06-07T08:31:18.000Z</time>
      </trkpt>
      <trkpt lat="45.83269" lon="4.78769">
        <ele>525.6</ele>
        <time>2020-06-07T08:31:19.000Z</time>
      </trkpt>
      <trkpt lat="45.83271" lon="4.78768">
        <ele>525.8</ele>
        <time>2020-06-07T08:31:20.000Z</time>
      </trkpt>
      <trkpt lat="45.83272" lon="4.78767">
        <ele>525.9</ele>
        <time>2020-06-07T08:31:21.000Z</time>
      </trkpt>
      <trkpt lat="45.83274" lon="4.78765">
        <ele>526.1</ele>
        <time>2020-06-07T08:31:22.000Z</time>
      </trkpt>
      <trkpt lat="45.83276" lon="4.78764">
        <ele>526.3</ele>
        <time>2020-06-07T08:31:23.000Z</time>
      </trkpt>
      <trkpt lat="45.83278" lon="4.78762">
        <ele>526.5</ele>
        <time>2020-06-07T08:31:24.000Z</time>
      </trkpt>
      <trkpt lat="45.8328" lon="4.7876">
        <ele>526.7</ele>
        <time>2020-06-07T08:31:25.000Z</time>
      </trkpt>
      <trkpt lat="45.83282" lon="4.78759">
        <ele>526.9</ele>
        <time>2020-06-07T08:31:26.000Z</time>
      </trkpt>
      <trkpt lat="45.83284" lon="4.78757">
        <ele>527.1</ele>
        <time>2020-06-07T08:31:27.000Z</time>
      </trkpt>
      <trkpt lat="45.83287" lon="4.78755">
        <ele>527.3</ele>
        <time>2020-06-07T08:31:28.000Z</time>
      </trkpt>
      <trkpt lat="45.83289" lon="4.78753">
        <ele>527.5</ele>
        <time>2020-06-07T08:31:29.000Z</time>
      </trkpt>
      <trkpt lat="45.83292" lon="4.78751">
        <ele>527.8</ele>
        <time>2020-06-07T08:31:30.000Z</time>
      </trkpt>
      <trkpt lat="45.83294" lon="4.78749">
        <ele>527.9</ele>
        <time>2020-06-07T08:31:31.000Z</time>
      </trkpt>
      <trkpt lat="45.83296" lon="4.78748">
        <ele>528.1</ele>
        <time>2020-06-07T08:31:32.000Z</time>
      </trkpt>
      <trkpt lat="45.83297" lon="4.78747">
        <ele>528.2</ele>
        <time>2020-06-07T08:31:33.000Z</time>
      </trkpt>
      <trkpt lat="45.83298" lon="4.78746">
        <ele>528.3</ele>
        <time>2020-06-07T08:31:34.000Z</time>
      </trkpt>
      <trkpt lat="45.833" lon="4.78745">
        <ele>528.5</ele>
        <time>2020-06-07T08:31:35.000Z</time>
      </trkpt>
      <trkpt lat="45.83302" lon="4.78744">
        <ele>528.6</ele>
        <time>2020-06-07T08:31:36.000Z</time>
      </trkpt>
      <trkpt lat="45.83303" lon="4.78743">
        <ele>528.8</ele>
        <time>2020-06-07T08:31:37.000Z</time>
      </trkpt>
      <trkpt lat="45.83304" lon="4.78742">
        <ele>528.9</ele>
        <time>2020-06-07T08:31:38.000Z</time>
      </trkpt>
      <trkpt lat="45.83306" lon="4.78742">
        <ele>529.1</ele>
        <time>2020-06-07T08:31:39.000Z</time>
      </trkpt>
      <trkpt lat="45.83307" lon="4.78741">
        <ele>529.2</ele>
        <time>2020-06-07T08:31:40.000Z</time>
      </trkpt>
      <trkpt lat="45.83309" lon="4.78741">
        <ele>529.3</ele>
        <time>2020-06-07T08:31:41.000Z</time>
      </trkpt>
      <trkpt lat="45.8331" lon="4.78741">
        <ele>529.5</ele>
        <time>2020-06-07T08:31:42.000Z</time>
      </trkpt>
      <trkpt lat="45.83312" lon="4.78741">
        <ele>529.7</ele>
        <time>2020-06-07T08:31:43.000Z</time>
      </trkpt>
      <trkpt lat="45.83313" lon="4.7874">
        <ele>529.9</ele>
        <time>2020-06-07T08:31:44.000Z</time>
      </trkpt>
      <trkpt lat="45.83315" lon="4.7874">
        <ele>530.1</ele>
        <time>2020-06-07T08:31:45.000Z</time>
      </trkpt>
      <trkpt lat="45.83317" lon="4.78739">
        <ele>530.2</ele>
        <time>2020-06-07T08:31:46.000Z</time>
      </trkpt>
      <trkpt lat="45.83318" lon="4.78739">
        <ele>530.4</ele>
        <time>2020-06-07T08:31:47.000Z</time>
      </trkpt>
      <trkpt lat="45.83319" lon="4.78739">
        <ele>530.6</ele>
        <time>2020-06-07T08:31:48.000Z</time>
      </trkpt>
      <trkpt lat="45.83321" lon="4.78739">
        <ele>530.7</ele>
        <time>2020-06-07T08:31:49.000Z</time>
      </trkpt>
      <trkpt lat="45.83322" lon="4.78739">
        <ele>530.9</ele>
        <time>2020-06-07T08:31:50.000Z</time>
      </trkpt>
      <trkpt lat="45.83324" lon="4.78739">
        <ele>531.1</ele>
        <time>2020-06-07T08:31:51.000Z</time>
      </trkpt>
      <trkpt lat="45.83325" lon="4.78739">
        <ele>531.3</ele>
        <time>2020-06-07T08:31:52.000Z</time>
      </trkpt>
      <trkpt lat="45.83326" lon="4.78738">
        <ele>531.5</ele>
        <time>2020-06-07T08:31:53.000Z</time>
      </trkpt>
      <trkpt lat="45.83327" lon="4.78738">
        <ele>531.7</ele>
        <time>2020-06-07T08:31:54.000Z</time>
      </trkpt>
      <trkpt lat="45.83329" lon="4.78737">
        <ele>531.9</ele>
        <time>2020-06-07T08:31:55.000Z</time>
      </trkpt>
      <trkpt lat="45.8333" lon="4.78736">
        <ele>532.1</ele>
        <time>2020-06-07T08:31:56.000Z</time>
      </trkpt>
      <trkpt lat="45.83332" lon="4.78735">
        <ele>532.3</ele>
        <time>2020-06-07T08:31:57.000Z</time>
      </trkpt>
      <trkpt lat="45.83334" lon="4.78735">
        <ele>532.6</ele>
        <time>2020-06-07T08:31:58.000Z</time>
      </trkpt>
      <trkpt lat="45.83335" lon="4.78734">
        <ele>532.8</ele>
        <time>2020-06-07T08:31:59.000Z</time>
      </trkpt>
      <trkpt lat="45.83338" lon="4.78734">
        <ele>533.1</ele>
        <time>2020-06-07T08:32:00.000Z</time>
      </trkpt>
      <trkpt lat="45.8334" lon="4.78733">
        <ele>533.3</ele>
        <time>2020-06-07T08:32:01.000Z</time>
      </trkpt>
      <trkpt lat="45.83342" lon="4.78732">
        <ele>533.6</ele>
        <time>2020-06-07T08:32:02.000Z</time>
      </trkpt>
      <trkpt lat="45.83344" lon="4.78731">
        <ele>533.8</ele>
        <time>2020-06-07T08:32:03.000Z</time>
      </trkpt>
      <trkpt lat="45.83346" lon="4.7873">
        <ele>534</ele>
        <time>2020-06-07T08:32:04.000Z</time>
      </trkpt>
      <trkpt lat="45.83348" lon="4.78729">
        <ele>534.2</ele>
        <time>2020-06-07T08:32:05.000Z</time>
      </trkpt>
      <trkpt lat="45.8335" lon="4.78728">
        <ele>534.4</ele>
        <time>2020-06-07T08:32:06.000Z</time>
      </trkpt>
      <trkpt lat="45.83352" lon="4.78727">
        <ele>534.6</ele>
        <time>2020-06-07T08:32:07.000Z</time>
      </trkpt>
      <trkpt lat="45.83354" lon="4.78727">
        <ele>534.8</ele>
        <time>2020-06-07T08:32:08.000Z</time>
      </trkpt>
      <trkpt lat="45.83355" lon="4.78726">
        <ele>534.9</ele>
        <time>2020-06-07T08:32:09.000Z</time>
      </trkpt>
      <trkpt lat="45.83357" lon="4.78725">
        <ele>535.1</ele>
        <time>2020-06-07T08:32:10.000Z</time>
      </trkpt>
      <trkpt lat="45.83359" lon="4.78725">
        <ele>535.3</ele>
        <time>2020-06-07T08:32:11.000Z</time>
      </trkpt>
      <trkpt lat="45.8336" lon="4.78724">
        <ele>535.4</ele>
        <time>2020-06-07T08:32:12.000Z</time>
      </trkpt>
      <trkpt lat="45.83362" lon="4.78723">
        <ele>535.5</ele>
        <time>2020-06-07T08:32:13.000Z</time>
      </trkpt>
      <trkpt lat="45.83363" lon="4.78723">
        <ele>535.7</ele>
        <time>2020-06-07T08:32:14.000Z</time>
      </trkpt>
      <trkpt lat="45.83364" lon="4.78722">
        <ele>535.8</ele>
        <time>2020-06-07T08:32:15.000Z</time>
      </trkpt>
      <trkpt lat="45.83366" lon="4.78722">
        <ele>535.9</ele>
        <time>2020-06-07T08:32:16.000Z</time>
      </trkpt>
      <trkpt lat="45.83367" lon="4.78721">
        <ele>536.3</ele>
        <time>2020-06-07T08:32:17.000Z</time>
      </trkpt>
      <trkpt lat="45.83369" lon="4.78721">
        <ele>536.5</ele>
        <time>2020-06-07T08:32:18.000Z</time>
      </trkpt>
      <trkpt lat="45.8337" lon="4.78721">
        <ele>536.6</ele>
        <time>2020-06-07T08:32:19.000Z</time>
      </trkpt>
      <trkpt lat="45.83371" lon="4.7872">
        <ele>536.8</ele>
        <time>2020-06-07T08:32:20.000Z</time>
      </trkpt>
      <trkpt lat="45.83373" lon="4.78719">
        <ele>537.1</ele>
        <time>2020-06-07T08:32:21.000Z</time>
      </trkpt>
      <trkpt lat="45.83374" lon="4.78718">
        <ele>537.2</ele>
        <time>2020-06-07T08:32:22.000Z</time>
      </trkpt>
      <trkpt lat="45.83374" lon="4.78718">
        <ele>537.2</ele>
        <time>2020-06-07T08:32:23.000Z</time>
      </trkpt>
      <trkpt lat="45.83375" lon="4.78718">
        <ele>537.4</ele>
        <time>2020-06-07T08:32:24.000Z</time>
      </trkpt>
      <trkpt lat="45.83376" lon="4.78718">
        <ele>537.6</ele>
        <time>2020-06-07T08:32:25.000Z</time>
      </trkpt>
      <trkpt lat="45.83378" lon="4.78717">
        <ele>537.7</ele>
        <time>2020-06-07T08:32:26.000Z</time>
      </trkpt>
      <trkpt lat="45.83379" lon="4.78716">
        <ele>538</ele>
        <time>2020-06-07T08:32:27.000Z</time>
      </trkpt>
      <trkpt lat="45.83381" lon="4.78715">
        <ele>538.2</ele>
        <time>2020-06-07T08:32:28.000Z</time>
      </trkpt>
      <trkpt lat="45.83382" lon="4.78715">
        <ele>538.3</ele>
        <time>2020-06-07T08:32:29.000Z</time>
      </trkpt>
      <trkpt lat="45.83383" lon="4.78714">
        <ele>538.5</ele>
        <time>2020-06-07T08:32:30.000Z</time>
      </trkpt>
      <trkpt lat="45.83385" lon="4.78712">
        <ele>538.8</ele>
        <time>2020-06-07T08:32:31.000Z</time>
      </trkpt>
      <trkpt lat="45.83386" lon="4.78711">
        <ele>539</ele>
        <time>2020-06-07T08:32:32.000Z</time>
      </trkpt>
      <trkpt lat="45.83388" lon="4.7871">
        <ele>539.2</ele>
        <time>2020-06-07T08:32:33.000Z</time>
      </trkpt>
      <trkpt lat="45.83389" lon="4.78709">
        <ele>539.5</ele>
        <time>2020-06-07T08:32:34.000Z</time>
      </trkpt>
      <trkpt lat="45.83391" lon="4.78708">
        <ele>539.6</ele>
        <time>2020-06-07T08:32:35.000Z</time>
      </trkpt>
      <trkpt lat="45.83392" lon="4.78706">
        <ele>539.8</ele>
        <time>2020-06-07T08:32:36.000Z</time>
      </trkpt>
      <trkpt lat="45.83394" lon="4.78705">
        <ele>540.1</ele>
        <time>2020-06-07T08:32:37.000Z</time>
      </trkpt>
      <trkpt lat="45.83395" lon="4.78704">
        <ele>540.2</ele>
        <time>2020-06-07T08:32:38.000Z</time>
      </trkpt>
      <trkpt lat="45.83397" lon="4.78703">
        <ele>540.4</ele>
        <time>2020-06-07T08:32:39.000Z</time>
      </trkpt>
      <trkpt lat="45.83398" lon="4.78702">
        <ele>540.5</ele>
        <time>2020-06-07T08:32:40.000Z</time>
      </trkpt>
      <trkpt lat="45.83399" lon="4.78701">
        <ele>540.6</ele>
        <time>2020-06-07T08:32:41.000Z</time>
      </trkpt>
      <trkpt lat="45.834" lon="4.78701">
        <ele>540.7</ele>
        <time>2020-06-07T08:32:42.000Z</time>
      </trkpt>
      <trkpt lat="45.83402" lon="4.787">
        <ele>540.9</ele>
        <time>2020-06-07T08:32:43.000Z</time>
      </trkpt>
      <trkpt lat="45.83403" lon="4.78699">
        <ele>541</ele>
        <time>2020-06-07T08:32:44.000Z</time>
      </trkpt>
      <trkpt lat="45.83404" lon="4.78698">
        <ele>541.2</ele>
        <time>2020-06-07T08:32:45.000Z</time>
      </trkpt>
      <trkpt lat="45.83406" lon="4.78696">
        <ele>541.3</ele>
        <time>2020-06-07T08:32:46.000Z</time>
      </trkpt>
      <trkpt lat="45.83408" lon="4.78695">
        <ele>541.5</ele>
        <time>2020-06-07T08:32:47.000Z</time>
      </trkpt>
      <trkpt lat="45.8341" lon="4.78694">
        <ele>541.7</ele>
        <time>2020-06-07T08:32:48.000Z</time>
      </trkpt>
      <trkpt lat="45.83412" lon="4.78692">
        <ele>542</ele>
        <time>2020-06-07T08:32:49.000Z</time>
      </trkpt>
      <trkpt lat="45.83415" lon="4.78689">
        <ele>542.2</ele>
        <time>2020-06-07T08:32:50.000Z</time>
      </trkpt>
      <trkpt lat="45.83417" lon="4.78687">
        <ele>542.4</ele>
        <time>2020-06-07T08:32:51.000Z</time>
      </trkpt>
      <trkpt lat="45.8342" lon="4.78685">
        <ele>542.7</ele>
        <time>2020-06-07T08:32:52.000Z</time>
      </trkpt>
      <trkpt lat="45.83422" lon="4.78683">
        <ele>542.9</ele>
        <time>2020-06-07T08:32:53.000Z</time>
      </trkpt>
      <trkpt lat="45.83423" lon="4.78681">
        <ele>543.1</ele>
        <time>2020-06-07T08:32:54.000Z</time>
      </trkpt>
      <trkpt lat="45.83425" lon="4.7868">
        <ele>543.2</ele>
        <time>2020-06-07T08:32:55.000Z</time>
      </trkpt>
      <trkpt lat="45.83426" lon="4.78678">
        <ele>543.4</ele>
        <time>2020-06-07T08:32:56.000Z</time>
      </trkpt>
      <trkpt lat="45.83428" lon="4.78677">
        <ele>543.5</ele>
        <time>2020-06-07T08:32:57.000Z</time>
      </trkpt>
      <trkpt lat="45.8343" lon="4.78675">
        <ele>543.7</ele>
        <time>2020-06-07T08:32:58.000Z</time>
      </trkpt>
      <trkpt lat="45.83432" lon="4.78673">
        <ele>543.9</ele>
        <time>2020-06-07T08:32:59.000Z</time>
      </trkpt>
      <trkpt lat="45.83435" lon="4.78671">
        <ele>544.2</ele>
        <time>2020-06-07T08:33:00.000Z</time>
      </trkpt>
      <trkpt lat="45.83437" lon="4.78669">
        <ele>544.4</ele>
        <time>2020-06-07T08:33:01.000Z</time>
      </trkpt>
      <trkpt lat="45.8344" lon="4.78667">
        <ele>544.6</ele>
        <time>2020-06-07T08:33:02.000Z</time>
      </trkpt>
      <trkpt lat="45.83442" lon="4.78665">
        <ele>544.7</ele>
        <time>2020-06-07T08:33:03.000Z</time>
      </trkpt>
      <trkpt lat="45.83445" lon="4.78662">
        <ele>545</ele>
        <time>2020-06-07T08:33:04.000Z</time>
      </trkpt>
      <trkpt lat="45.83447" lon="4.7866">
        <ele>545.1</ele>
        <time>2020-06-07T08:33:05.000Z</time>
      </trkpt>
      <trkpt lat="45.83448" lon="4.78658">
        <ele>545.3</ele>
        <time>2020-06-07T08:33:06.000Z</time>
      </trkpt>
      <trkpt lat="45.8345" lon="4.78656">
        <ele>545.4</ele>
        <time>2020-06-07T08:33:07.000Z</time>
      </trkpt>
      <trkpt lat="45.83452" lon="4.78653">
        <ele>545.6</ele>
        <time>2020-06-07T08:33:08.000Z</time>
      </trkpt>
      <trkpt lat="45.83455" lon="4.78651">
        <ele>545.8</ele>
        <time>2020-06-07T08:33:09.000Z</time>
      </trkpt>
      <trkpt lat="45.83456" lon="4.78649">
        <ele>546</ele>
        <time>2020-06-07T08:33:10.000Z</time>
      </trkpt>
      <trkpt lat="45.83458" lon="4.78647">
        <ele>546.1</ele>
        <time>2020-06-07T08:33:11.000Z</time>
      </trkpt>
      <trkpt lat="45.8346" lon="4.78645">
        <ele>546.3</ele>
        <time>2020-06-07T08:33:12.000Z</time>
      </trkpt>
      <trkpt lat="45.83462" lon="4.78643">
        <ele>546.4</ele>
        <time>2020-06-07T08:33:13.000Z</time>
      </trkpt>
      <trkpt lat="45.83464" lon="4.78642">
        <ele>546.6</ele>
        <time>2020-06-07T08:33:14.000Z</time>
      </trkpt>
      <trkpt lat="45.83466" lon="4.7864">
        <ele>546.8</ele>
        <time>2020-06-07T08:33:15.000Z</time>
      </trkpt>
      <trkpt lat="45.83468" lon="4.78638">
        <ele>546.9</ele>
        <time>2020-06-07T08:33:16.000Z</time>
      </trkpt>
      <trkpt lat="45.83469" lon="4.78636">
        <ele>547.1</ele>
        <time>2020-06-07T08:33:17.000Z</time>
      </trkpt>
      <trkpt lat="45.83471" lon="4.78634">
        <ele>547.2</ele>
        <time>2020-06-07T08:33:18.000Z</time>
      </trkpt>
      <trkpt lat="45.83473" lon="4.78632">
        <ele>547.4</ele>
        <time>2020-06-07T08:33:19.000Z</time>
      </trkpt>
      <trkpt lat="45.83475" lon="4.7863">
        <ele>547.6</ele>
        <time>2020-06-07T08:33:20.000Z</time>
      </trkpt>
      <trkpt lat="45.83477" lon="4.78627">
        <ele>547.8</ele>
        <time>2020-06-07T08:33:21.000Z</time>
      </trkpt>
      <trkpt lat="45.83478" lon="4.78625">
        <ele>548</ele>
        <time>2020-06-07T08:33:22.000Z</time>
      </trkpt>
      <trkpt lat="45.8348" lon="4.78623">
        <ele>548.2</ele>
        <time>2020-06-07T08:33:23.000Z</time>
      </trkpt>
      <trkpt lat="45.83482" lon="4.7862">
        <ele>548.4</ele>
        <time>2020-06-07T08:33:24.000Z</time>
      </trkpt>
      <trkpt lat="45.83486" lon="4.78617">
        <ele>548.8</ele>
        <time>2020-06-07T08:33:25.000Z</time>
      </trkpt>
      <trkpt lat="45.83489" lon="4.78614">
        <ele>549.1</ele>
        <time>2020-06-07T08:33:26.000Z</time>
      </trkpt>
      <trkpt lat="45.83491" lon="4.78612">
        <ele>549.3</ele>
        <time>2020-06-07T08:33:27.000Z</time>
      </trkpt>
      <trkpt lat="45.83493" lon="4.7861">
        <ele>549.5</ele>
        <time>2020-06-07T08:33:28.000Z</time>
      </trkpt>
      <trkpt lat="45.83495" lon="4.78608">
        <ele>549.7</ele>
        <time>2020-06-07T08:33:29.000Z</time>
      </trkpt>
      <trkpt lat="45.83496" lon="4.78607">
        <ele>549.9</ele>
        <time>2020-06-07T08:33:30.000Z</time>
      </trkpt>
      <trkpt lat="45.83498" lon="4.78605">
        <ele>550</ele>
        <time>2020-06-07T08:33:31.000Z</time>
      </trkpt>
      <trkpt lat="45.835" lon="4.78603">
        <ele>550.2</ele>
        <time>2020-06-07T08:33:32.000Z</time>
      </trkpt>
      <trkpt lat="45.83502" lon="4.78601">
        <ele>550.5</ele>
        <time>2020-06-07T08:33:33.000Z</time>
      </trkpt>
      <trkpt lat="45.83504" lon="4.786">
        <ele>550.7</ele>
        <time>2020-06-07T08:33:34.000Z</time>
      </trkpt>
      <trkpt lat="45.83506" lon="4.78598">
        <ele>550.9</ele>
        <time>2020-06-07T08:33:35.000Z</time>
      </trkpt>
      <trkpt lat="45.83508" lon="4.78596">
        <ele>551.1</ele>
        <time>2020-06-07T08:33:36.000Z</time>
      </trkpt>
      <trkpt lat="45.8351" lon="4.78595">
        <ele>551.2</ele>
        <time>2020-06-07T08:33:37.000Z</time>
      </trkpt>
      <trkpt lat="45.83512" lon="4.78593">
        <ele>551.4</ele>
        <time>2020-06-07T08:33:38.000Z</time>
      </trkpt>
      <trkpt lat="45.83514" lon="4.78592">
        <ele>551.6</ele>
        <time>2020-06-07T08:33:39.000Z</time>
      </trkpt>
      <trkpt lat="45.83516" lon="4.78591">
        <ele>551.8</ele>
        <time>2020-06-07T08:33:40.000Z</time>
      </trkpt>
      <trkpt lat="45.83517" lon="4.78589">
        <ele>551.9</ele>
        <time>2020-06-07T08:33:41.000Z</time>
      </trkpt>
      <trkpt lat="45.83519" lon="4.78588">
        <ele>552.1</ele>
        <time>2020-06-07T08:33:42.000Z</time>
      </trkpt>
      <trkpt lat="45.83522" lon="4.78586">
        <ele>552.3</ele>
        <time>2020-06-07T08:33:43.000Z</time>
      </trkpt>
      <trkpt lat="45.83524" lon="4.78584">
        <ele>552.5</ele>
        <time>2020-06-07T08:33:44.000Z</time>
      </trkpt>
      <trkpt lat="45.83527" lon="4.78581">
        <ele>552.7</ele>
        <time>2020-06-07T08:33:45.000Z</time>
      </trkpt>
      <trkpt lat="45.8353" lon="4.78578">
        <ele>552.9</ele>
        <time>2020-06-07T08:33:46.000Z</time>
      </trkpt>
      <trkpt lat="45.83532" lon="4.78575">
        <ele>553.3</ele>
        <time>2020-06-07T08:33:47.000Z</time>
      </trkpt>
      <trkpt lat="45.83534" lon="4.78571">
        <ele>553.5</ele>
        <time>2020-06-07T08:33:48.000Z</time>
      </trkpt>
      <trkpt lat="45.83536" lon="4.78568">
        <ele>553.8</ele>
        <time>2020-06-07T08:33:49.000Z</time>
      </trkpt>
      <trkpt lat="45.83538" lon="4.78566">
        <ele>554</ele>
        <time>2020-06-07T08:33:50.000Z</time>
      </trkpt>
      <trkpt lat="45.83539" lon="4.78564">
        <ele>554.1</ele>
        <time>2020-06-07T08:33:51.000Z</time>
      </trkpt>
      <trkpt lat="45.83541" lon="4.78561">
        <ele>554.3</ele>
        <time>2020-06-07T08:33:52.000Z</time>
      </trkpt>
      <trkpt lat="45.83542" lon="4.78558">
        <ele>554.5</ele>
        <time>2020-06-07T08:33:53.000Z</time>
      </trkpt>
      <trkpt lat="45.83544" lon="4.78553">
        <ele>554.7</ele>
        <time>2020-06-07T08:33:54.000Z</time>
      </trkpt>
      <trkpt lat="45.83547" lon="4.78549">
        <ele>554.9</ele>
        <time>2020-06-07T08:33:55.000Z</time>
      </trkpt>
      <trkpt lat="45.8355" lon="4.78545">
        <ele>555.1</ele>
        <time>2020-06-07T08:33:56.000Z</time>
      </trkpt>
      <trkpt lat="45.83554" lon="4.7854">
        <ele>555.3</ele>
        <time>2020-06-07T08:33:57.000Z</time>
      </trkpt>
      <trkpt lat="45.83558" lon="4.78535">
        <ele>555.4</ele>
        <time>2020-06-07T08:33:58.000Z</time>
      </trkpt>
      <trkpt lat="45.83561" lon="4.78531">
        <ele>555.5</ele>
        <time>2020-06-07T08:33:59.000Z</time>
      </trkpt>
      <trkpt lat="45.83563" lon="4.78526">
        <ele>555.6</ele>
        <time>2020-06-07T08:34:00.000Z</time>
      </trkpt>
      <trkpt lat="45.83565" lon="4.78522">
        <ele>555.6</ele>
        <time>2020-06-07T08:34:01.000Z</time>
      </trkpt>
      <trkpt lat="45.83568" lon="4.78518">
        <ele>555.6</ele>
        <time>2020-06-07T08:34:02.000Z</time>
      </trkpt>
      <trkpt lat="45.8357" lon="4.78514">
        <ele>555.6</ele>
        <time>2020-06-07T08:34:03.000Z</time>
      </trkpt>
      <trkpt lat="45.83573" lon="4.78509">
        <ele>555.6</ele>
        <time>2020-06-07T08:34:04.000Z</time>
      </trkpt>
      <trkpt lat="45.83577" lon="4.78504">
        <ele>555.6</ele>
        <time>2020-06-07T08:34:05.000Z</time>
      </trkpt>
      <trkpt lat="45.8358" lon="4.785">
        <ele>555.5</ele>
        <time>2020-06-07T08:34:06.000Z</time>
      </trkpt>
      <trkpt lat="45.83582" lon="4.78496">
        <ele>555.4</ele>
        <time>2020-06-07T08:34:07.000Z</time>
      </trkpt>
      <trkpt lat="45.83585" lon="4.78492">
        <ele>555.3</ele>
        <time>2020-06-07T08:34:08.000Z</time>
      </trkpt>
      <trkpt lat="45.83588" lon="4.78487">
        <ele>555.2</ele>
        <time>2020-06-07T08:34:09.000Z</time>
      </trkpt>
      <trkpt lat="45.83592" lon="4.78483">
        <ele>555</ele>
        <time>2020-06-07T08:34:10.000Z</time>
      </trkpt>
      <trkpt lat="45.83596" lon="4.78478">
        <ele>554.9</ele>
        <time>2020-06-07T08:34:11.000Z</time>
      </trkpt>
      <trkpt lat="45.836" lon="4.78473">
        <ele>554.7</ele>
        <time>2020-06-07T08:34:12.000Z</time>
      </trkpt>
      <trkpt lat="45.83603" lon="4.78468">
        <ele>554.5</ele>
        <time>2020-06-07T08:34:13.000Z</time>
      </trkpt>
      <trkpt lat="45.83608" lon="4.78463">
        <ele>554.2</ele>
        <time>2020-06-07T08:34:14.000Z</time>
      </trkpt>
      <trkpt lat="45.83615" lon="4.78457">
        <ele>553.8</ele>
        <time>2020-06-07T08:34:15.000Z</time>
      </trkpt>
      <trkpt lat="45.8362" lon="4.78452">
        <ele>553.4</ele>
        <time>2020-06-07T08:34:16.000Z</time>
      </trkpt>
      <trkpt lat="45.83624" lon="4.78448">
        <ele>553.1</ele>
        <time>2020-06-07T08:34:17.000Z</time>
      </trkpt>
      <trkpt lat="45.83629" lon="4.78444">
        <ele>552.8</ele>
        <time>2020-06-07T08:34:18.000Z</time>
      </trkpt>
      <trkpt lat="45.83634" lon="4.7844">
        <ele>552.5</ele>
        <time>2020-06-07T08:34:19.000Z</time>
      </trkpt>
      <trkpt lat="45.83639" lon="4.78436">
        <ele>552.1</ele>
        <time>2020-06-07T08:34:20.000Z</time>
      </trkpt>
      <trkpt lat="45.83644" lon="4.78433">
        <ele>551.8</ele>
        <time>2020-06-07T08:34:21.000Z</time>
      </trkpt>
      <trkpt lat="45.83648" lon="4.7843">
        <ele>551.5</ele>
        <time>2020-06-07T08:34:22.000Z</time>
      </trkpt>
      <trkpt lat="45.83652" lon="4.78428">
        <ele>551.2</ele>
        <time>2020-06-07T08:34:23.000Z</time>
      </trkpt>
      <trkpt lat="45.83656" lon="4.78427">
        <ele>551</ele>
        <time>2020-06-07T08:34:24.000Z</time>
      </trkpt>
      <trkpt lat="45.83661" lon="4.78426">
        <ele>550.6</ele>
        <time>2020-06-07T08:34:25.000Z</time>
      </trkpt>
      <trkpt lat="45.83665" lon="4.78426">
        <ele>550.3</ele>
        <time>2020-06-07T08:34:26.000Z</time>
      </trkpt>
      <trkpt lat="45.8367" lon="4.78426">
        <ele>549.9</ele>
        <time>2020-06-07T08:34:27.000Z</time>
      </trkpt>
      <trkpt lat="45.83676" lon="4.78426">
        <ele>549.5</ele>
        <time>2020-06-07T08:34:28.000Z</time>
      </trkpt>
      <trkpt lat="45.83682" lon="4.78425">
        <ele>549.1</ele>
        <time>2020-06-07T08:34:29.000Z</time>
      </trkpt>
      <trkpt lat="45.83688" lon="4.78424">
        <ele>548.6</ele>
        <time>2020-06-07T08:34:30.000Z</time>
      </trkpt>
      <trkpt lat="45.83693" lon="4.78424">
        <ele>548.2</ele>
        <time>2020-06-07T08:34:31.000Z</time>
      </trkpt>
      <trkpt lat="45.83698" lon="4.78424">
        <ele>547.7</ele>
        <time>2020-06-07T08:34:32.000Z</time>
      </trkpt>
      <trkpt lat="45.83702" lon="4.78424">
        <ele>547.4</ele>
        <time>2020-06-07T08:34:33.000Z</time>
      </trkpt>
      <trkpt lat="45.83706" lon="4.78424">
        <ele>547.1</ele>
        <time>2020-06-07T08:34:34.000Z</time>
      </trkpt>
      <trkpt lat="45.83709" lon="4.78424">
        <ele>546.9</ele>
        <time>2020-06-07T08:34:35.000Z</time>
      </trkpt>
      <trkpt lat="45.83712" lon="4.78423">
        <ele>546.7</ele>
        <time>2020-06-07T08:34:36.000Z</time>
      </trkpt>
      <trkpt lat="45.83717" lon="4.78422">
        <ele>546.5</ele>
        <time>2020-06-07T08:34:37.000Z</time>
      </trkpt>
      <trkpt lat="45.83721" lon="4.78422">
        <ele>546.3</ele>
        <time>2020-06-07T08:34:38.000Z</time>
      </trkpt>
      <trkpt lat="45.83727" lon="4.78421">
        <ele>546.2</ele>
        <time>2020-06-07T08:34:39.000Z</time>
      </trkpt>
      <trkpt lat="45.83731" lon="4.78421">
        <ele>546.1</ele>
        <time>2020-06-07T08:34:40.000Z</time>
      </trkpt>
      <trkpt lat="45.83737" lon="4.78421">
        <ele>546</ele>
        <time>2020-06-07T08:34:41.000Z</time>
      </trkpt>
      <trkpt lat="45.83742" lon="4.78421">
        <ele>546</ele>
        <time>2020-06-07T08:34:42.000Z</time>
      </trkpt>
      <trkpt lat="45.83747" lon="4.7842">
        <ele>546</ele>
        <time>2020-06-07T08:34:43.000Z</time>
      </trkpt>
      <trkpt lat="45.83752" lon="4.7842">
        <ele>545.9</ele>
        <time>2020-06-07T08:34:44.000Z</time>
      </trkpt>
      <trkpt lat="45.83756" lon="4.78419">
        <ele>545.9</ele>
        <time>2020-06-07T08:34:45.000Z</time>
      </trkpt>
      <trkpt lat="45.83761" lon="4.78418">
        <ele>545.8</ele>
        <time>2020-06-07T08:34:46.000Z</time>
      </trkpt>
      <trkpt lat="45.83766" lon="4.78415">
        <ele>545.7</ele>
        <time>2020-06-07T08:34:47.000Z</time>
      </trkpt>
      <trkpt lat="45.83771" lon="4.78413">
        <ele>545.7</ele>
        <time>2020-06-07T08:34:48.000Z</time>
      </trkpt>
      <trkpt lat="45.83776" lon="4.78409">
        <ele>545.7</ele>
        <time>2020-06-07T08:34:49.000Z</time>
      </trkpt>
      <trkpt lat="45.8378" lon="4.78407">
        <ele>545.6</ele>
        <time>2020-06-07T08:34:50.000Z</time>
      </trkpt>
      <trkpt lat="45.83784" lon="4.78405">
        <ele>545.6</ele>
        <time>2020-06-07T08:34:51.000Z</time>
      </trkpt>
      <trkpt lat="45.83787" lon="4.78403">
        <ele>545.6</ele>
        <time>2020-06-07T08:34:52.000Z</time>
      </trkpt>
      <trkpt lat="45.83791" lon="4.78402">
        <ele>545.6</ele>
        <time>2020-06-07T08:34:53.000Z</time>
      </trkpt>
      <trkpt lat="45.83793" lon="4.78401">
        <ele>545.6</ele>
        <time>2020-06-07T08:34:54.000Z</time>
      </trkpt>
      <trkpt lat="45.83797" lon="4.78399">
        <ele>545.6</ele>
        <time>2020-06-07T08:34:55.000Z</time>
      </trkpt>
      <trkpt lat="45.83801" lon="4.78397">
        <ele>545.7</ele>
        <time>2020-06-07T08:34:56.000Z</time>
      </trkpt>
      <trkpt lat="45.83805" lon="4.78395">
        <ele>545.9</ele>
        <time>2020-06-07T08:34:57.000Z</time>
      </trkpt>
      <trkpt lat="45.83808" lon="4.78392">
        <ele>546</ele>
        <time>2020-06-07T08:34:58.000Z</time>
      </trkpt>
      <trkpt lat="45.83811" lon="4.7839">
        <ele>546.2</ele>
        <time>2020-06-07T08:34:59.000Z</time>
      </trkpt>
      <trkpt lat="45.83815" lon="4.78389">
        <ele>546.3</ele>
        <time>2020-06-07T08:35:00.000Z</time>
      </trkpt>
      <trkpt lat="45.83818" lon="4.78387">
        <ele>546.5</ele>
        <time>2020-06-07T08:35:01.000Z</time>
      </trkpt>
      <trkpt lat="45.83821" lon="4.78386">
        <ele>546.7</ele>
        <time>2020-06-07T08:35:02.000Z</time>
      </trkpt>
      <trkpt lat="45.83823" lon="4.78384">
        <ele>546.8</ele>
        <time>2020-06-07T08:35:03.000Z</time>
      </trkpt>
      <trkpt lat="45.83826" lon="4.78384">
        <ele>547</ele>
        <time>2020-06-07T08:35:04.000Z</time>
      </trkpt>
      <trkpt lat="45.83829" lon="4.78383">
        <ele>547.2</ele>
        <time>2020-06-07T08:35:05.000Z</time>
      </trkpt>
      <trkpt lat="45.83832" lon="4.78382">
        <ele>547.4</ele>
        <time>2020-06-07T08:35:06.000Z</time>
      </trkpt>
      <trkpt lat="45.83835" lon="4.78381">
        <ele>547.6</ele>
        <time>2020-06-07T08:35:07.000Z</time>
      </trkpt>
      <trkpt lat="45.83839" lon="4.78379">
        <ele>547.8</ele>
        <time>2020-06-07T08:35:08.000Z</time>
      </trkpt>
      <trkpt lat="45.83841" lon="4.78378">
        <ele>548</ele>
        <time>2020-06-07T08:35:09.000Z</time>
      </trkpt>
      <trkpt lat="45.83844" lon="4.78377">
        <ele>548.1</ele>
        <time>2020-06-07T08:35:10.000Z</time>
      </trkpt>
      <trkpt lat="45.83846" lon="4.78377">
        <ele>548.3</ele>
        <time>2020-06-07T08:35:11.000Z</time>
      </trkpt>
      <trkpt lat="45.8385" lon="4.78377">
        <ele>548.4</ele>
        <time>2020-06-07T08:35:12.000Z</time>
      </trkpt>
      <trkpt lat="45.83854" lon="4.78377">
        <ele>548.6</ele>
        <time>2020-06-07T08:35:13.000Z</time>
      </trkpt>
      <trkpt lat="45.83859" lon="4.78378">
        <ele>548.7</ele>
        <time>2020-06-07T08:35:14.000Z</time>
      </trkpt>
      <trkpt lat="45.83863" lon="4.78378">
        <ele>548.9</ele>
        <time>2020-06-07T08:35:15.000Z</time>
      </trkpt>
      <trkpt lat="45.83866" lon="4.78378">
        <ele>549</ele>
        <time>2020-06-07T08:35:16.000Z</time>
      </trkpt>
      <trkpt lat="45.83869" lon="4.78378">
        <ele>549.1</ele>
        <time>2020-06-07T08:35:17.000Z</time>
      </trkpt>
      <trkpt lat="45.83874" lon="4.78378">
        <ele>549.1</ele>
        <time>2020-06-07T08:35:18.000Z</time>
      </trkpt>
      <trkpt lat="45.83879" lon="4.78377">
        <ele>549.1</ele>
        <time>2020-06-07T08:35:19.000Z</time>
      </trkpt>
      <trkpt lat="45.83885" lon="4.78376">
        <ele>549.1</ele>
        <time>2020-06-07T08:35:20.000Z</time>
      </trkpt>
      <trkpt lat="45.83891" lon="4.78376">
        <ele>549</ele>
        <time>2020-06-07T08:35:21.000Z</time>
      </trkpt>
      <trkpt lat="45.83896" lon="4.78375">
        <ele>548.9</ele>
        <time>2020-06-07T08:35:22.000Z</time>
      </trkpt>
      <trkpt lat="45.83901" lon="4.78375">
        <ele>548.8</ele>
        <time>2020-06-07T08:35:23.000Z</time>
      </trkpt>
      <trkpt lat="45.83906" lon="4.78374">
        <ele>548.8</ele>
        <time>2020-06-07T08:35:24.000Z</time>
      </trkpt>
      <trkpt lat="45.8391" lon="4.78374">
        <ele>548.9</ele>
        <time>2020-06-07T08:35:25.000Z</time>
      </trkpt>
      <trkpt lat="45.83913" lon="4.78374">
        <ele>548.9</ele>
        <time>2020-06-07T08:35:26.000Z</time>
      </trkpt>
      <trkpt lat="45.83916" lon="4.78373">
        <ele>549</ele>
        <time>2020-06-07T08:35:27.000Z</time>
      </trkpt>
      <trkpt lat="45.83918" lon="4.78373">
        <ele>549.1</ele>
        <time>2020-06-07T08:35:28.000Z</time>
      </trkpt>
      <trkpt lat="45.83921" lon="4.78372">
        <ele>549.3</ele>
        <time>2020-06-07T08:35:29.000Z</time>
      </trkpt>
      <trkpt lat="45.83924" lon="4.78371">
        <ele>549.4</ele>
        <time>2020-06-07T08:35:30.000Z</time>
      </trkpt>
      <trkpt lat="45.83927" lon="4.78371">
        <ele>549.6</ele>
        <time>2020-06-07T08:35:31.000Z</time>
      </trkpt>
      <trkpt lat="45.83929" lon="4.78371">
        <ele>549.7</ele>
        <time>2020-06-07T08:35:32.000Z</time>
      </trkpt>
      <trkpt lat="45.83931" lon="4.78371">
        <ele>549.8</ele>
        <time>2020-06-07T08:35:33.000Z</time>
      </trkpt>
      <trkpt lat="45.83933" lon="4.78372">
        <ele>550</ele>
        <time>2020-06-07T08:35:34.000Z</time>
      </trkpt>
      <trkpt lat="45.83936" lon="4.78372">
        <ele>550.1</ele>
        <time>2020-06-07T08:35:35.000Z</time>
      </trkpt>
      <trkpt lat="45.83939" lon="4.78371">
        <ele>550.3</ele>
        <time>2020-06-07T08:35:36.000Z</time>
      </trkpt>
      <trkpt lat="45.83942" lon="4.78371">
        <ele>550.5</ele>
        <time>2020-06-07T08:35:37.000Z</time>
      </trkpt>
      <trkpt lat="45.83946" lon="4.7837">
        <ele>550.7</ele>
        <time>2020-06-07T08:35:38.000Z</time>
      </trkpt>
      <trkpt lat="45.8395" lon="4.78369">
        <ele>550.8</ele>
        <time>2020-06-07T08:35:39.000Z</time>
      </trkpt>
      <trkpt lat="45.83953" lon="4.78368">
        <ele>550.9</ele>
        <time>2020-06-07T08:35:40.000Z</time>
      </trkpt>
      <trkpt lat="45.83958" lon="4.78367">
        <ele>550.9</ele>
        <time>2020-06-07T08:35:41.000Z</time>
      </trkpt>
      <trkpt lat="45.83963" lon="4.78366">
        <ele>550.8</ele>
        <time>2020-06-07T08:35:42.000Z</time>
      </trkpt>
      <trkpt lat="45.83969" lon="4.78365">
        <ele>550.5</ele>
        <time>2020-06-07T08:35:43.000Z</time>
      </trkpt>
      <trkpt lat="45.83975" lon="4.78365">
        <ele>550.3</ele>
        <time>2020-06-07T08:35:44.000Z</time>
      </trkpt>
      <trkpt lat="45.8398" lon="4.78364">
        <ele>550</ele>
        <time>2020-06-07T08:35:45.000Z</time>
      </trkpt>
      <trkpt lat="45.83986" lon="4.78363">
        <ele>549.6</ele>
        <time>2020-06-07T08:35:46.000Z</time>
      </trkpt>
      <trkpt lat="45.83992" lon="4.78362">
        <ele>549.3</ele>
        <time>2020-06-07T08:35:47.000Z</time>
      </trkpt>
      <trkpt lat="45.83998" lon="4.78361">
        <ele>549</ele>
        <time>2020-06-07T08:35:48.000Z</time>
      </trkpt>
      <trkpt lat="45.84005" lon="4.78361">
        <ele>548.6</ele>
        <time>2020-06-07T08:35:49.000Z</time>
      </trkpt>
      <trkpt lat="45.84011" lon="4.78362">
        <ele>548.4</ele>
        <time>2020-06-07T08:35:50.000Z</time>
      </trkpt>
      <trkpt lat="45.84018" lon="4.78362">
        <ele>548.1</ele>
        <time>2020-06-07T08:35:51.000Z</time>
      </trkpt>
      <trkpt lat="45.84025" lon="4.78362">
        <ele>547.9</ele>
        <time>2020-06-07T08:35:52.000Z</time>
      </trkpt>
      <trkpt lat="45.84031" lon="4.78361">
        <ele>547.7</ele>
        <time>2020-06-07T08:35:53.000Z</time>
      </trkpt>
      <trkpt lat="45.84037" lon="4.78361">
        <ele>547.5</ele>
        <time>2020-06-07T08:35:54.000Z</time>
      </trkpt>
      <trkpt lat="45.84044" lon="4.78362">
        <ele>547.3</ele>
        <time>2020-06-07T08:35:55.000Z</time>
      </trkpt>
      <trkpt lat="45.84052" lon="4.78362">
        <ele>547.2</ele>
        <time>2020-06-07T08:35:56.000Z</time>
      </trkpt>
      <trkpt lat="45.84059" lon="4.78363">
        <ele>547.2</ele>
        <time>2020-06-07T08:35:57.000Z</time>
      </trkpt>
      <trkpt lat="45.84065" lon="4.78364">
        <ele>547.2</ele>
        <time>2020-06-07T08:35:58.000Z</time>
      </trkpt>
      <trkpt lat="45.8407" lon="4.78364">
        <ele>547.2</ele>
        <time>2020-06-07T08:35:59.000Z</time>
      </trkpt>
      <trkpt lat="45.84075" lon="4.78364">
        <ele>547.2</ele>
        <time>2020-06-07T08:36:00.000Z</time>
      </trkpt>
      <trkpt lat="45.84081" lon="4.78364">
        <ele>547.3</ele>
        <time>2020-06-07T08:36:01.000Z</time>
      </trkpt>
      <trkpt lat="45.84086" lon="4.78365">
        <ele>547.4</ele>
        <time>2020-06-07T08:36:02.000Z</time>
      </trkpt>
      <trkpt lat="45.84091" lon="4.78365">
        <ele>547.5</ele>
        <time>2020-06-07T08:36:03.000Z</time>
      </trkpt>
      <trkpt lat="45.84095" lon="4.78366">
        <ele>547.6</ele>
        <time>2020-06-07T08:36:04.000Z</time>
      </trkpt>
      <trkpt lat="45.84099" lon="4.78367">
        <ele>547.7</ele>
        <time>2020-06-07T08:36:05.000Z</time>
      </trkpt>
      <trkpt lat="45.84103" lon="4.78367">
        <ele>547.9</ele>
        <time>2020-06-07T08:36:06.000Z</time>
      </trkpt>
      <trkpt lat="45.84106" lon="4.78367">
        <ele>548</ele>
        <time>2020-06-07T08:36:07.000Z</time>
      </trkpt>
      <trkpt lat="45.84109" lon="4.78366">
        <ele>548.1</ele>
        <time>2020-06-07T08:36:08.000Z</time>
      </trkpt>
      <trkpt lat="45.84113" lon="4.78366">
        <ele>548.1</ele>
        <time>2020-06-07T08:36:09.000Z</time>
      </trkpt>
      <trkpt lat="45.84116" lon="4.78365">
        <ele>548.2</ele>
        <time>2020-06-07T08:36:10.000Z</time>
      </trkpt>
      <trkpt lat="45.84121" lon="4.78365">
        <ele>548.2</ele>
        <time>2020-06-07T08:36:11.000Z</time>
      </trkpt>
      <trkpt lat="45.84126" lon="4.78364">
        <ele>548.2</ele>
        <time>2020-06-07T08:36:12.000Z</time>
      </trkpt>
      <trkpt lat="45.84131" lon="4.78363">
        <ele>548.2</ele>
        <time>2020-06-07T08:36:13.000Z</time>
      </trkpt>
      <trkpt lat="45.84135" lon="4.78363">
        <ele>548.1</ele>
        <time>2020-06-07T08:36:14.000Z</time>
      </trkpt>
      <trkpt lat="45.84139" lon="4.78362">
        <ele>548.1</ele>
        <time>2020-06-07T08:36:15.000Z</time>
      </trkpt>
      <trkpt lat="45.84143" lon="4.78361">
        <ele>548</ele>
        <time>2020-06-07T08:36:16.000Z</time>
      </trkpt>
      <trkpt lat="45.84148" lon="4.7836">
        <ele>548</ele>
        <time>2020-06-07T08:36:17.000Z</time>
      </trkpt>
      <trkpt lat="45.84151" lon="4.78359">
        <ele>547.9</ele>
        <time>2020-06-07T08:36:18.000Z</time>
      </trkpt>
      <trkpt lat="45.84155" lon="4.78358">
        <ele>547.8</ele>
        <time>2020-06-07T08:36:19.000Z</time>
      </trkpt>
      <trkpt lat="45.84157" lon="4.78358">
        <ele>547.8</ele>
        <time>2020-06-07T08:36:20.000Z</time>
      </trkpt>
      <trkpt lat="45.8416" lon="4.78357">
        <ele>547.7</ele>
        <time>2020-06-07T08:36:21.000Z</time>
      </trkpt>
      <trkpt lat="45.84162" lon="4.78357">
        <ele>547.7</ele>
        <time>2020-06-07T08:36:22.000Z</time>
      </trkpt>
      <trkpt lat="45.84163" lon="4.78357">
        <ele>547.6</ele>
        <time>2020-06-07T08:36:23.000Z</time>
      </trkpt>
      <trkpt lat="45.84164" lon="4.78357">
        <ele>547.6</ele>
        <time>2020-06-07T08:36:24.000Z</time>
      </trkpt>
      <trkpt lat="45.84165" lon="4.78356">
        <ele>547.6</ele>
        <time>2020-06-07T08:36:25.000Z</time>
      </trkpt>
      <trkpt lat="45.84179" lon="4.78341">
        <ele>546.9</ele>
        <time>2020-06-07T08:37:53.000Z</time>
      </trkpt>
      <trkpt lat="45.84181" lon="4.78337">
        <ele>546.8</ele>
        <time>2020-06-07T08:37:54.000Z</time>
      </trkpt>
      <trkpt lat="45.84183" lon="4.78333">
        <ele>546.7</ele>
        <time>2020-06-07T08:37:55.000Z</time>
      </trkpt>
      <trkpt lat="45.84184" lon="4.78329">
        <ele>546.6</ele>
        <time>2020-06-07T08:37:56.000Z</time>
      </trkpt>
      <trkpt lat="45.84185" lon="4.78325">
        <ele>546.5</ele>
        <time>2020-06-07T08:37:57.000Z</time>
      </trkpt>
      <trkpt lat="45.84187" lon="4.78321">
        <ele>546.5</ele>
        <time>2020-06-07T08:37:58.000Z</time>
      </trkpt>
      <trkpt lat="45.84188" lon="4.78317">
        <ele>546.5</ele>
        <time>2020-06-07T08:37:59.000Z</time>
      </trkpt>
      <trkpt lat="45.84189" lon="4.78313">
        <ele>546.5</ele>
        <time>2020-06-07T08:38:00.000Z</time>
      </trkpt>
      <trkpt lat="45.8419" lon="4.7831">
        <ele>546.5</ele>
        <time>2020-06-07T08:38:01.000Z</time>
      </trkpt>
      <trkpt lat="45.84191" lon="4.78307">
        <ele>546.5</ele>
        <time>2020-06-07T08:38:02.000Z</time>
      </trkpt>
      <trkpt lat="45.84192" lon="4.78304">
        <ele>546.6</ele>
        <time>2020-06-07T08:38:03.000Z</time>
      </trkpt>
      <trkpt lat="45.84194" lon="4.78301">
        <ele>546.6</ele>
        <time>2020-06-07T08:38:04.000Z</time>
      </trkpt>
      <trkpt lat="45.84196" lon="4.78298">
        <ele>546.7</ele>
        <time>2020-06-07T08:38:05.000Z</time>
      </trkpt>
      <trkpt lat="45.84198" lon="4.78294">
        <ele>546.8</ele>
        <time>2020-06-07T08:38:06.000Z</time>
      </trkpt>
      <trkpt lat="45.842" lon="4.78291">
        <ele>546.9</ele>
        <time>2020-06-07T08:38:07.000Z</time>
      </trkpt>
      <trkpt lat="45.84202" lon="4.78288">
        <ele>547.1</ele>
        <time>2020-06-07T08:38:08.000Z</time>
      </trkpt>
      <trkpt lat="45.84203" lon="4.78286">
        <ele>547.2</ele>
        <time>2020-06-07T08:38:09.000Z</time>
      </trkpt>
      <trkpt lat="45.84206" lon="4.78283">
        <ele>547.3</ele>
        <time>2020-06-07T08:38:10.000Z</time>
      </trkpt>
      <trkpt lat="45.84207" lon="4.78281">
        <ele>547.4</ele>
        <time>2020-06-07T08:38:11.000Z</time>
      </trkpt>
      <trkpt lat="45.84209" lon="4.7828">
        <ele>547.5</ele>
        <time>2020-06-07T08:38:12.000Z</time>
      </trkpt>
      <trkpt lat="45.84211" lon="4.78279">
        <ele>547.6</ele>
        <time>2020-06-07T08:38:13.000Z</time>
      </trkpt>
      <trkpt lat="45.84213" lon="4.78278">
        <ele>547.6</ele>
        <time>2020-06-07T08:38:14.000Z</time>
      </trkpt>
      <trkpt lat="45.84215" lon="4.78277">
        <ele>547.7</ele>
        <time>2020-06-07T08:38:15.000Z</time>
      </trkpt>
      <trkpt lat="45.84216" lon="4.78277">
        <ele>547.7</ele>
        <time>2020-06-07T08:38:16.000Z</time>
      </trkpt>
      <trkpt lat="45.84219" lon="4.78276">
        <ele>547.8</ele>
        <time>2020-06-07T08:38:17.000Z</time>
      </trkpt>
      <trkpt lat="45.84221" lon="4.78276">
        <ele>547.7</ele>
        <time>2020-06-07T08:38:18.000Z</time>
      </trkpt>
      <trkpt lat="45.84223" lon="4.78275">
        <ele>547.6</ele>
        <time>2020-06-07T08:38:19.000Z</time>
      </trkpt>
      <trkpt lat="45.84226" lon="4.78274">
        <ele>547.6</ele>
        <time>2020-06-07T08:38:20.000Z</time>
      </trkpt>
      <trkpt lat="45.84229" lon="4.78273">
        <ele>547.6</ele>
        <time>2020-06-07T08:38:21.000Z</time>
      </trkpt>
      <trkpt lat="45.84232" lon="4.78272">
        <ele>547.7</ele>
        <time>2020-06-07T08:38:22.000Z</time>
      </trkpt>
      <trkpt lat="45.84236" lon="4.78271">
        <ele>547.8</ele>
        <time>2020-06-07T08:38:23.000Z</time>
      </trkpt>
      <trkpt lat="45.84239" lon="4.7827">
        <ele>547.8</ele>
        <time>2020-06-07T08:38:24.000Z</time>
      </trkpt>
      <trkpt lat="45.84243" lon="4.78269">
        <ele>547.9</ele>
        <time>2020-06-07T08:38:25.000Z</time>
      </trkpt>
      <trkpt lat="45.84246" lon="4.78267">
        <ele>548</ele>
        <time>2020-06-07T08:38:26.000Z</time>
      </trkpt>
      <trkpt lat="45.84249" lon="4.78266">
        <ele>548.2</ele>
        <time>2020-06-07T08:38:27.000Z</time>
      </trkpt>
      <trkpt lat="45.84252" lon="4.78265">
        <ele>548.3</ele>
        <time>2020-06-07T08:38:28.000Z</time>
      </trkpt>
      <trkpt lat="45.84255" lon="4.78264">
        <ele>548.4</ele>
        <time>2020-06-07T08:38:29.000Z</time>
      </trkpt>
      <trkpt lat="45.84257" lon="4.78263">
        <ele>548.5</ele>
        <time>2020-06-07T08:38:30.000Z</time>
      </trkpt>
      <trkpt lat="45.8426" lon="4.78263">
        <ele>548.7</ele>
        <time>2020-06-07T08:38:31.000Z</time>
      </trkpt>
      <trkpt lat="45.84263" lon="4.78262">
        <ele>548.8</ele>
        <time>2020-06-07T08:38:32.000Z</time>
      </trkpt>
      <trkpt lat="45.84265" lon="4.78262">
        <ele>549</ele>
        <time>2020-06-07T08:38:33.000Z</time>
      </trkpt>
      <trkpt lat="45.84267" lon="4.78261">
        <ele>549.1</ele>
        <time>2020-06-07T08:38:34.000Z</time>
      </trkpt>
      <trkpt lat="45.8427" lon="4.78261">
        <ele>549.3</ele>
        <time>2020-06-07T08:38:35.000Z</time>
      </trkpt>
      <trkpt lat="45.84272" lon="4.7826">
        <ele>549.4</ele>
        <time>2020-06-07T08:38:36.000Z</time>
      </trkpt>
      <trkpt lat="45.84275" lon="4.78259">
        <ele>549.6</ele>
        <time>2020-06-07T08:38:37.000Z</time>
      </trkpt>
      <trkpt lat="45.84277" lon="4.78258">
        <ele>549.8</ele>
        <time>2020-06-07T08:38:38.000Z</time>
      </trkpt>
      <trkpt lat="45.8428" lon="4.78258">
        <ele>549.9</ele>
        <time>2020-06-07T08:38:39.000Z</time>
      </trkpt>
      <trkpt lat="45.84282" lon="4.78257">
        <ele>550.1</ele>
        <time>2020-06-07T08:38:40.000Z</time>
      </trkpt>
      <trkpt lat="45.84285" lon="4.78256">
        <ele>550.3</ele>
        <time>2020-06-07T08:38:41.000Z</time>
      </trkpt>
      <trkpt lat="45.84287" lon="4.78255">
        <ele>550.4</ele>
        <time>2020-06-07T08:38:42.000Z</time>
      </trkpt>
      <trkpt lat="45.84289" lon="4.78254">
        <ele>550.6</ele>
        <time>2020-06-07T08:38:43.000Z</time>
      </trkpt>
      <trkpt lat="45.84291" lon="4.78254">
        <ele>550.7</ele>
        <time>2020-06-07T08:38:44.000Z</time>
      </trkpt>
      <trkpt lat="45.84294" lon="4.78253">
        <ele>550.9</ele>
        <time>2020-06-07T08:38:45.000Z</time>
      </trkpt>
      <trkpt lat="45.84296" lon="4.78252">
        <ele>551.1</ele>
        <time>2020-06-07T08:38:46.000Z</time>
      </trkpt>
      <trkpt lat="45.84298" lon="4.78251">
        <ele>551.2</ele>
        <time>2020-06-07T08:38:47.000Z</time>
      </trkpt>
      <trkpt lat="45.843" lon="4.78251">
        <ele>551.4</ele>
        <time>2020-06-07T08:38:48.000Z</time>
      </trkpt>
      <trkpt lat="45.84303" lon="4.7825">
        <ele>551.6</ele>
        <time>2020-06-07T08:38:49.000Z</time>
      </trkpt>
      <trkpt lat="45.84305" lon="4.78249">
        <ele>551.8</ele>
        <time>2020-06-07T08:38:50.000Z</time>
      </trkpt>
      <trkpt lat="45.84307" lon="4.78249">
        <ele>551.9</ele>
        <time>2020-06-07T08:38:51.000Z</time>
      </trkpt>
      <trkpt lat="45.84309" lon="4.78248">
        <ele>552.1</ele>
        <time>2020-06-07T08:38:52.000Z</time>
      </trkpt>
      <trkpt lat="45.84311" lon="4.78247">
        <ele>552.3</ele>
        <time>2020-06-07T08:38:53.000Z</time>
      </trkpt>
      <trkpt lat="45.84313" lon="4.78247">
        <ele>552.4</ele>
        <time>2020-06-07T08:38:54.000Z</time>
      </trkpt>
      <trkpt lat="45.84315" lon="4.78247">
        <ele>552.6</ele>
        <time>2020-06-07T08:38:55.000Z</time>
      </trkpt>
      <trkpt lat="45.84317" lon="4.78247">
        <ele>552.7</ele>
        <time>2020-06-07T08:38:56.000Z</time>
      </trkpt>
      <trkpt lat="45.84321" lon="4.78245">
        <ele>553.1</ele>
        <time>2020-06-07T08:38:57.000Z</time>
      </trkpt>
      <trkpt lat="45.84324" lon="4.78244">
        <ele>553.3</ele>
        <time>2020-06-07T08:38:58.000Z</time>
      </trkpt>
      <trkpt lat="45.84327" lon="4.78243">
        <ele>553.6</ele>
        <time>2020-06-07T08:38:59.000Z</time>
      </trkpt>
      <trkpt lat="45.8433" lon="4.78241">
        <ele>553.9</ele>
        <time>2020-06-07T08:39:00.000Z</time>
      </trkpt>
      <trkpt lat="45.84332" lon="4.7824">
        <ele>554.1</ele>
        <time>2020-06-07T08:39:01.000Z</time>
      </trkpt>
      <trkpt lat="45.84335" lon="4.7824">
        <ele>554.2</ele>
        <time>2020-06-07T08:39:02.000Z</time>
      </trkpt>
      <trkpt lat="45.84337" lon="4.78239">
        <ele>554.4</ele>
        <time>2020-06-07T08:39:03.000Z</time>
      </trkpt>
      <trkpt lat="45.8434" lon="4.78238">
        <ele>554.6</ele>
        <time>2020-06-07T08:39:04.000Z</time>
      </trkpt>
      <trkpt lat="45.84342" lon="4.78237">
        <ele>554.8</ele>
        <time>2020-06-07T08:39:05.000Z</time>
      </trkpt>
      <trkpt lat="45.84345" lon="4.78237">
        <ele>555</ele>
        <time>2020-06-07T08:39:06.000Z</time>
      </trkpt>
      <trkpt lat="45.84347" lon="4.78236">
        <ele>555.2</ele>
        <time>2020-06-07T08:39:07.000Z</time>
      </trkpt>
      <trkpt lat="45.8435" lon="4.78235">
        <ele>555.4</ele>
        <time>2020-06-07T08:39:08.000Z</time>
      </trkpt>
      <trkpt lat="45.84353" lon="4.78235">
        <ele>555.6</ele>
        <time>2020-06-07T08:39:09.000Z</time>
      </trkpt>
      <trkpt lat="45.84356" lon="4.78234">
        <ele>555.8</ele>
        <time>2020-06-07T08:39:10.000Z</time>
      </trkpt>
      <trkpt lat="45.84358" lon="4.78234">
        <ele>556</ele>
        <time>2020-06-07T08:39:11.000Z</time>
      </trkpt>
      <trkpt lat="45.84361" lon="4.78234">
        <ele>556.2</ele>
        <time>2020-06-07T08:39:12.000Z</time>
      </trkpt>
      <trkpt lat="45.84364" lon="4.78234">
        <ele>556.4</ele>
        <time>2020-06-07T08:39:13.000Z</time>
      </trkpt>
      <trkpt lat="45.84366" lon="4.78234">
        <ele>556.5</ele>
        <time>2020-06-07T08:39:14.000Z</time>
      </trkpt>
      <trkpt lat="45.84369" lon="4.78234">
        <ele>556.7</ele>
        <time>2020-06-07T08:39:15.000Z</time>
      </trkpt>
      <trkpt lat="45.84371" lon="4.78235">
        <ele>556.9</ele>
        <time>2020-06-07T08:39:16.000Z</time>
      </trkpt>
      <trkpt lat="45.84373" lon="4.78236">
        <ele>557.1</ele>
        <time>2020-06-07T08:39:17.000Z</time>
      </trkpt>
      <trkpt lat="45.84375" lon="4.78237">
        <ele>557.2</ele>
        <time>2020-06-07T08:39:18.000Z</time>
      </trkpt>
      <trkpt lat="45.84377" lon="4.78237">
        <ele>557.4</ele>
        <time>2020-06-07T08:39:19.000Z</time>
      </trkpt>
      <trkpt lat="45.84379" lon="4.78238">
        <ele>557.5</ele>
        <time>2020-06-07T08:39:20.000Z</time>
      </trkpt>
      <trkpt lat="45.84382" lon="4.78238">
        <ele>557.7</ele>
        <time>2020-06-07T08:39:21.000Z</time>
      </trkpt>
      <trkpt lat="45.84384" lon="4.78239">
        <ele>557.8</ele>
        <time>2020-06-07T08:39:22.000Z</time>
      </trkpt>
      <trkpt lat="45.84386" lon="4.7824">
        <ele>558</ele>
        <time>2020-06-07T08:39:23.000Z</time>
      </trkpt>
      <trkpt lat="45.84388" lon="4.78241">
        <ele>558.2</ele>
        <time>2020-06-07T08:39:24.000Z</time>
      </trkpt>
      <trkpt lat="45.84391" lon="4.78241">
        <ele>558.4</ele>
        <time>2020-06-07T08:39:25.000Z</time>
      </trkpt>
      <trkpt lat="45.84393" lon="4.78241">
        <ele>558.6</ele>
        <time>2020-06-07T08:39:26.000Z</time>
      </trkpt>
      <trkpt lat="45.84396" lon="4.78242">
        <ele>558.8</ele>
        <time>2020-06-07T08:39:27.000Z</time>
      </trkpt>
      <trkpt lat="45.84398" lon="4.78243">
        <ele>559</ele>
        <time>2020-06-07T08:39:28.000Z</time>
      </trkpt>
      <trkpt lat="45.84401" lon="4.78243">
        <ele>559.2</ele>
        <time>2020-06-07T08:39:29.000Z</time>
      </trkpt>
      <trkpt lat="45.84403" lon="4.78243">
        <ele>559.4</ele>
        <time>2020-06-07T08:39:30.000Z</time>
      </trkpt>
      <trkpt lat="45.84406" lon="4.78244">
        <ele>559.6</ele>
        <time>2020-06-07T08:39:31.000Z</time>
      </trkpt>
      <trkpt lat="45.84409" lon="4.78245">
        <ele>559.8</ele>
        <time>2020-06-07T08:39:32.000Z</time>
      </trkpt>
      <trkpt lat="45.84411" lon="4.78246">
        <ele>560</ele>
        <time>2020-06-07T08:39:33.000Z</time>
      </trkpt>
      <trkpt lat="45.84413" lon="4.78248">
        <ele>560.2</ele>
        <time>2020-06-07T08:39:34.000Z</time>
      </trkpt>
      <trkpt lat="45.84415" lon="4.7825">
        <ele>560.3</ele>
        <time>2020-06-07T08:39:35.000Z</time>
      </trkpt>
      <trkpt lat="45.84418" lon="4.7825">
        <ele>560.6</ele>
        <time>2020-06-07T08:39:36.000Z</time>
      </trkpt>
      <trkpt lat="45.8442" lon="4.78251">
        <ele>560.8</ele>
        <time>2020-06-07T08:39:37.000Z</time>
      </trkpt>
      <trkpt lat="45.84423" lon="4.78252">
        <ele>561</ele>
        <time>2020-06-07T08:39:38.000Z</time>
      </trkpt>
      <trkpt lat="45.84426" lon="4.78252">
        <ele>561.3</ele>
        <time>2020-06-07T08:39:39.000Z</time>
      </trkpt>
      <trkpt lat="45.84429" lon="4.78252">
        <ele>561.5</ele>
        <time>2020-06-07T08:39:40.000Z</time>
      </trkpt>
      <trkpt lat="45.84431" lon="4.78253">
        <ele>561.7</ele>
        <time>2020-06-07T08:39:41.000Z</time>
      </trkpt>
      <trkpt lat="45.84433" lon="4.78253">
        <ele>561.9</ele>
        <time>2020-06-07T08:39:42.000Z</time>
      </trkpt>
      <trkpt lat="45.84436" lon="4.78254">
        <ele>562.1</ele>
        <time>2020-06-07T08:39:43.000Z</time>
      </trkpt>
      <trkpt lat="45.84438" lon="4.78254">
        <ele>562.3</ele>
        <time>2020-06-07T08:39:44.000Z</time>
      </trkpt>
      <trkpt lat="45.84441" lon="4.78254">
        <ele>562.5</ele>
        <time>2020-06-07T08:39:45.000Z</time>
      </trkpt>
      <trkpt lat="45.84443" lon="4.78255">
        <ele>562.7</ele>
        <time>2020-06-07T08:39:46.000Z</time>
      </trkpt>
      <trkpt lat="45.84446" lon="4.78255">
        <ele>562.8</ele>
        <time>2020-06-07T08:39:47.000Z</time>
      </trkpt>
      <trkpt lat="45.84448" lon="4.78256">
        <ele>563</ele>
        <time>2020-06-07T08:39:48.000Z</time>
      </trkpt>
      <trkpt lat="45.8445" lon="4.78256">
        <ele>563.2</ele>
        <time>2020-06-07T08:39:49.000Z</time>
      </trkpt>
      <trkpt lat="45.84452" lon="4.78257">
        <ele>563.3</ele>
        <time>2020-06-07T08:39:50.000Z</time>
      </trkpt>
      <trkpt lat="45.84454" lon="4.78257">
        <ele>563.5</ele>
        <time>2020-06-07T08:39:51.000Z</time>
      </trkpt>
      <trkpt lat="45.84456" lon="4.78258">
        <ele>563.6</ele>
        <time>2020-06-07T08:39:52.000Z</time>
      </trkpt>
      <trkpt lat="45.84458" lon="4.78258">
        <ele>563.8</ele>
        <time>2020-06-07T08:39:53.000Z</time>
      </trkpt>
      <trkpt lat="45.8446" lon="4.78259">
        <ele>563.9</ele>
        <time>2020-06-07T08:39:54.000Z</time>
      </trkpt>
      <trkpt lat="45.84462" lon="4.7826">
        <ele>564.1</ele>
        <time>2020-06-07T08:39:55.000Z</time>
      </trkpt>
      <trkpt lat="45.84464" lon="4.78261">
        <ele>564.3</ele>
        <time>2020-06-07T08:39:56.000Z</time>
      </trkpt>
      <trkpt lat="45.84466" lon="4.78261">
        <ele>564.4</ele>
        <time>2020-06-07T08:39:57.000Z</time>
      </trkpt>
      <trkpt lat="45.84469" lon="4.78262">
        <ele>564.6</ele>
        <time>2020-06-07T08:39:58.000Z</time>
      </trkpt>
      <trkpt lat="45.84471" lon="4.78263">
        <ele>564.8</ele>
        <time>2020-06-07T08:39:59.000Z</time>
      </trkpt>
      <trkpt lat="45.84473" lon="4.78263">
        <ele>565</ele>
        <time>2020-06-07T08:40:00.000Z</time>
      </trkpt>
      <trkpt lat="45.84476" lon="4.78263">
        <ele>565.2</ele>
        <time>2020-06-07T08:40:01.000Z</time>
      </trkpt>
      <trkpt lat="45.84479" lon="4.78264">
        <ele>565.4</ele>
        <time>2020-06-07T08:40:02.000Z</time>
      </trkpt>
      <trkpt lat="45.84481" lon="4.78264">
        <ele>565.6</ele>
        <time>2020-06-07T08:40:03.000Z</time>
      </trkpt>
      <trkpt lat="45.84484" lon="4.78265">
        <ele>565.7</ele>
        <time>2020-06-07T08:40:04.000Z</time>
      </trkpt>
      <trkpt lat="45.84487" lon="4.78265">
        <ele>565.9</ele>
        <time>2020-06-07T08:40:05.000Z</time>
      </trkpt>
      <trkpt lat="45.84489" lon="4.78265">
        <ele>566.1</ele>
        <time>2020-06-07T08:40:06.000Z</time>
      </trkpt>
      <trkpt lat="45.84492" lon="4.78265">
        <ele>566.3</ele>
        <time>2020-06-07T08:40:07.000Z</time>
      </trkpt>
      <trkpt lat="45.84495" lon="4.78266">
        <ele>566.5</ele>
        <time>2020-06-07T08:40:08.000Z</time>
      </trkpt>
      <trkpt lat="45.84498" lon="4.78266">
        <ele>566.7</ele>
        <time>2020-06-07T08:40:09.000Z</time>
      </trkpt>
      <trkpt lat="45.84501" lon="4.78266">
        <ele>566.8</ele>
        <time>2020-06-07T08:40:10.000Z</time>
      </trkpt>
      <trkpt lat="45.84503" lon="4.78266">
        <ele>567</ele>
        <time>2020-06-07T08:40:11.000Z</time>
      </trkpt>
      <trkpt lat="45.84506" lon="4.78267">
        <ele>567.2</ele>
        <time>2020-06-07T08:40:12.000Z</time>
      </trkpt>
      <trkpt lat="45.84508" lon="4.78267">
        <ele>567.3</ele>
        <time>2020-06-07T08:40:13.000Z</time>
      </trkpt>
      <trkpt lat="45.84511" lon="4.78268">
        <ele>567.5</ele>
        <time>2020-06-07T08:40:14.000Z</time>
      </trkpt>
      <trkpt lat="45.84513" lon="4.78268">
        <ele>567.7</ele>
        <time>2020-06-07T08:40:15.000Z</time>
      </trkpt>
      <trkpt lat="45.84516" lon="4.78268">
        <ele>567.9</ele>
        <time>2020-06-07T08:40:16.000Z</time>
      </trkpt>
      <trkpt lat="45.84519" lon="4.78268">
        <ele>568</ele>
        <time>2020-06-07T08:40:17.000Z</time>
      </trkpt>
      <trkpt lat="45.84521" lon="4.78268">
        <ele>568.2</ele>
        <time>2020-06-07T08:40:18.000Z</time>
      </trkpt>
      <trkpt lat="45.84524" lon="4.78268">
        <ele>568.4</ele>
        <time>2020-06-07T08:40:19.000Z</time>
      </trkpt>
      <trkpt lat="45.84527" lon="4.78268">
        <ele>568.6</ele>
        <time>2020-06-07T08:40:20.000Z</time>
      </trkpt>
      <trkpt lat="45.84529" lon="4.78269">
        <ele>568.7</ele>
        <time>2020-06-07T08:40:21.000Z</time>
      </trkpt>
      <trkpt lat="45.84531" lon="4.78269">
        <ele>568.9</ele>
        <time>2020-06-07T08:40:22.000Z</time>
      </trkpt>
      <trkpt lat="45.84534" lon="4.78269">
        <ele>569.1</ele>
        <time>2020-06-07T08:40:23.000Z</time>
      </trkpt>
      <trkpt lat="45.84537" lon="4.78269">
        <ele>569.3</ele>
        <time>2020-06-07T08:40:24.000Z</time>
      </trkpt>
      <trkpt lat="45.84539" lon="4.78269">
        <ele>569.4</ele>
        <time>2020-06-07T08:40:25.000Z</time>
      </trkpt>
      <trkpt lat="45.84542" lon="4.7827">
        <ele>569.6</ele>
        <time>2020-06-07T08:40:26.000Z</time>
      </trkpt>
      <trkpt lat="45.84544" lon="4.78271">
        <ele>569.8</ele>
        <time>2020-06-07T08:40:27.000Z</time>
      </trkpt>
      <trkpt lat="45.84547" lon="4.78271">
        <ele>570</ele>
        <time>2020-06-07T08:40:28.000Z</time>
      </trkpt>
      <trkpt lat="45.8455" lon="4.78271">
        <ele>570.2</ele>
        <time>2020-06-07T08:40:29.000Z</time>
      </trkpt>
      <trkpt lat="45.84552" lon="4.78272">
        <ele>570.4</ele>
        <time>2020-06-07T08:40:30.000Z</time>
      </trkpt>
      <trkpt lat="45.84555" lon="4.78272">
        <ele>570.6</ele>
        <time>2020-06-07T08:40:31.000Z</time>
      </trkpt>
      <trkpt lat="45.84558" lon="4.78272">
        <ele>570.8</ele>
        <time>2020-06-07T08:40:32.000Z</time>
      </trkpt>
      <trkpt lat="45.8456" lon="4.78272">
        <ele>571</ele>
        <time>2020-06-07T08:40:33.000Z</time>
      </trkpt>
      <trkpt lat="45.84563" lon="4.78272">
        <ele>571.1</ele>
        <time>2020-06-07T08:40:34.000Z</time>
      </trkpt>
      <trkpt lat="45.84565" lon="4.78272">
        <ele>571.3</ele>
        <time>2020-06-07T08:40:35.000Z</time>
      </trkpt>
      <trkpt lat="45.84568" lon="4.78272">
        <ele>571.5</ele>
        <time>2020-06-07T08:40:36.000Z</time>
      </trkpt>
      <trkpt lat="45.8457" lon="4.78272">
        <ele>571.7</ele>
        <time>2020-06-07T08:40:37.000Z</time>
      </trkpt>
      <trkpt lat="45.84573" lon="4.78272">
        <ele>571.9</ele>
        <time>2020-06-07T08:40:38.000Z</time>
      </trkpt>
      <trkpt lat="45.84576" lon="4.78272">
        <ele>572</ele>
        <time>2020-06-07T08:40:39.000Z</time>
      </trkpt>
      <trkpt lat="45.84579" lon="4.78272">
        <ele>572.2</ele>
        <time>2020-06-07T08:40:40.000Z</time>
      </trkpt>
      <trkpt lat="45.84581" lon="4.78271">
        <ele>572.4</ele>
        <time>2020-06-07T08:40:41.000Z</time>
      </trkpt>
      <trkpt lat="45.84584" lon="4.78271">
        <ele>572.6</ele>
        <time>2020-06-07T08:40:42.000Z</time>
      </trkpt>
      <trkpt lat="45.84587" lon="4.7827">
        <ele>572.7</ele>
        <time>2020-06-07T08:40:43.000Z</time>
      </trkpt>
      <trkpt lat="45.8459" lon="4.78269">
        <ele>572.9</ele>
        <time>2020-06-07T08:40:44.000Z</time>
      </trkpt>
      <trkpt lat="45.84592" lon="4.78268">
        <ele>573.1</ele>
        <time>2020-06-07T08:40:45.000Z</time>
      </trkpt>
      <trkpt lat="45.84595" lon="4.78266">
        <ele>573.3</ele>
        <time>2020-06-07T08:40:46.000Z</time>
      </trkpt>
      <trkpt lat="45.84598" lon="4.78265">
        <ele>573.5</ele>
        <time>2020-06-07T08:40:47.000Z</time>
      </trkpt>
      <trkpt lat="45.846" lon="4.78264">
        <ele>573.7</ele>
        <time>2020-06-07T08:40:48.000Z</time>
      </trkpt>
      <trkpt lat="45.84603" lon="4.78263">
        <ele>573.9</ele>
        <time>2020-06-07T08:40:49.000Z</time>
      </trkpt>
      <trkpt lat="45.84605" lon="4.78261">
        <ele>574.1</ele>
        <time>2020-06-07T08:40:50.000Z</time>
      </trkpt>
      <trkpt lat="45.84608" lon="4.78259">
        <ele>574.2</ele>
        <time>2020-06-07T08:40:51.000Z</time>
      </trkpt>
      <trkpt lat="45.8461" lon="4.78257">
        <ele>574.4</ele>
        <time>2020-06-07T08:40:52.000Z</time>
      </trkpt>
      <trkpt lat="45.84612" lon="4.78255">
        <ele>574.6</ele>
        <time>2020-06-07T08:40:53.000Z</time>
      </trkpt>
      <trkpt lat="45.84614" lon="4.78252">
        <ele>574.8</ele>
        <time>2020-06-07T08:40:54.000Z</time>
      </trkpt>
      <trkpt lat="45.84617" lon="4.7825">
        <ele>575</ele>
        <time>2020-06-07T08:40:55.000Z</time>
      </trkpt>
      <trkpt lat="45.84619" lon="4.78247">
        <ele>575.2</ele>
        <time>2020-06-07T08:40:56.000Z</time>
      </trkpt>
      <trkpt lat="45.84621" lon="4.78244">
        <ele>575.4</ele>
        <time>2020-06-07T08:40:57.000Z</time>
      </trkpt>
      <trkpt lat="45.84623" lon="4.78242">
        <ele>575.6</ele>
        <time>2020-06-07T08:40:58.000Z</time>
      </trkpt>
      <trkpt lat="45.84625" lon="4.78239">
        <ele>575.8</ele>
        <time>2020-06-07T08:40:59.000Z</time>
      </trkpt>
      <trkpt lat="45.84627" lon="4.78235">
        <ele>576</ele>
        <time>2020-06-07T08:41:00.000Z</time>
      </trkpt>
      <trkpt lat="45.84629" lon="4.78232">
        <ele>576.2</ele>
        <time>2020-06-07T08:41:01.000Z</time>
      </trkpt>
      <trkpt lat="45.8463" lon="4.78229">
        <ele>576.4</ele>
        <time>2020-06-07T08:41:02.000Z</time>
      </trkpt>
      <trkpt lat="45.84632" lon="4.78226">
        <ele>576.6</ele>
        <time>2020-06-07T08:41:03.000Z</time>
      </trkpt>
      <trkpt lat="45.84633" lon="4.78222">
        <ele>576.8</ele>
        <time>2020-06-07T08:41:04.000Z</time>
      </trkpt>
      <trkpt lat="45.84633" lon="4.78218">
        <ele>577</ele>
        <time>2020-06-07T08:41:05.000Z</time>
      </trkpt>
      <trkpt lat="45.84634" lon="4.78214">
        <ele>577.2</ele>
        <time>2020-06-07T08:41:06.000Z</time>
      </trkpt>
      <trkpt lat="45.84635" lon="4.7821">
        <ele>577.3</ele>
        <time>2020-06-07T08:41:07.000Z</time>
      </trkpt>
      <trkpt lat="45.84636" lon="4.78207">
        <ele>577.5</ele>
        <time>2020-06-07T08:41:08.000Z</time>
      </trkpt>
      <trkpt lat="45.84637" lon="4.78204">
        <ele>577.7</ele>
        <time>2020-06-07T08:41:09.000Z</time>
      </trkpt>
      <trkpt lat="45.84637" lon="4.782">
        <ele>577.9</ele>
        <time>2020-06-07T08:41:10.000Z</time>
      </trkpt>
      <trkpt lat="45.84638" lon="4.78197">
        <ele>578</ele>
        <time>2020-06-07T08:41:11.000Z</time>
      </trkpt>
      <trkpt lat="45.84638" lon="4.78193">
        <ele>578.4</ele>
        <time>2020-06-07T08:41:12.000Z</time>
      </trkpt>
      <trkpt lat="45.84639" lon="4.7819">
        <ele>578.6</ele>
        <time>2020-06-07T08:41:13.000Z</time>
      </trkpt>
      <trkpt lat="45.8464" lon="4.78187">
        <ele>578.8</ele>
        <time>2020-06-07T08:41:14.000Z</time>
      </trkpt>
      <trkpt lat="45.84641" lon="4.78183">
        <ele>579.1</ele>
        <time>2020-06-07T08:41:15.000Z</time>
      </trkpt>
      <trkpt lat="45.84641" lon="4.78179">
        <ele>579.3</ele>
        <time>2020-06-07T08:41:16.000Z</time>
      </trkpt>
      <trkpt lat="45.84642" lon="4.78176">
        <ele>579.5</ele>
        <time>2020-06-07T08:41:17.000Z</time>
      </trkpt>
      <trkpt lat="45.84643" lon="4.78172">
        <ele>579.8</ele>
        <time>2020-06-07T08:41:18.000Z</time>
      </trkpt>
      <trkpt lat="45.84644" lon="4.78167">
        <ele>580</ele>
        <time>2020-06-07T08:41:19.000Z</time>
      </trkpt>
      <trkpt lat="45.84645" lon="4.78163">
        <ele>580.3</ele>
        <time>2020-06-07T08:41:20.000Z</time>
      </trkpt>
      <trkpt lat="45.84646" lon="4.78159">
        <ele>580.5</ele>
        <time>2020-06-07T08:41:21.000Z</time>
      </trkpt>
      <trkpt lat="45.84646" lon="4.78156">
        <ele>580.7</ele>
        <time>2020-06-07T08:41:22.000Z</time>
      </trkpt>
      <trkpt lat="45.84647" lon="4.78152">
        <ele>580.9</ele>
        <time>2020-06-07T08:41:23.000Z</time>
      </trkpt>
      <trkpt lat="45.84647" lon="4.78148">
        <ele>581.1</ele>
        <time>2020-06-07T08:41:24.000Z</time>
      </trkpt>
      <trkpt lat="45.84648" lon="4.78143">
        <ele>581.4</ele>
        <time>2020-06-07T08:41:25.000Z</time>
      </trkpt>
      <trkpt lat="45.84648" lon="4.7814">
        <ele>581.6</ele>
        <time>2020-06-07T08:41:26.000Z</time>
      </trkpt>
      <trkpt lat="45.84649" lon="4.78136">
        <ele>581.8</ele>
        <time>2020-06-07T08:41:27.000Z</time>
      </trkpt>
      <trkpt lat="45.84649" lon="4.78132">
        <ele>582</ele>
        <time>2020-06-07T08:41:28.000Z</time>
      </trkpt>
      <trkpt lat="45.8465" lon="4.78129">
        <ele>582.2</ele>
        <time>2020-06-07T08:41:29.000Z</time>
      </trkpt>
      <trkpt lat="45.8465" lon="4.78125">
        <ele>582.4</ele>
        <time>2020-06-07T08:41:30.000Z</time>
      </trkpt>
      <trkpt lat="45.84651" lon="4.78122">
        <ele>582.6</ele>
        <time>2020-06-07T08:41:31.000Z</time>
      </trkpt>
      <trkpt lat="45.84652" lon="4.78119">
        <ele>582.8</ele>
        <time>2020-06-07T08:41:32.000Z</time>
      </trkpt>
      <trkpt lat="45.84652" lon="4.78116">
        <ele>583</ele>
        <time>2020-06-07T08:41:33.000Z</time>
      </trkpt>
      <trkpt lat="45.84653" lon="4.78113">
        <ele>583.1</ele>
        <time>2020-06-07T08:41:34.000Z</time>
      </trkpt>
      <trkpt lat="45.84653" lon="4.7811">
        <ele>583.3</ele>
        <time>2020-06-07T08:41:35.000Z</time>
      </trkpt>
      <trkpt lat="45.84654" lon="4.78107">
        <ele>583.5</ele>
        <time>2020-06-07T08:41:36.000Z</time>
      </trkpt>
      <trkpt lat="45.84655" lon="4.78103">
        <ele>583.7</ele>
        <time>2020-06-07T08:41:37.000Z</time>
      </trkpt>
      <trkpt lat="45.84656" lon="4.781">
        <ele>583.9</ele>
        <time>2020-06-07T08:41:38.000Z</time>
      </trkpt>
      <trkpt lat="45.84657" lon="4.78096">
        <ele>584.1</ele>
        <time>2020-06-07T08:41:39.000Z</time>
      </trkpt>
      <trkpt lat="45.84658" lon="4.78093">
        <ele>584.3</ele>
        <time>2020-06-07T08:41:40.000Z</time>
      </trkpt>
      <trkpt lat="45.84659" lon="4.78089">
        <ele>584.5</ele>
        <time>2020-06-07T08:41:41.000Z</time>
      </trkpt>
      <trkpt lat="45.8466" lon="4.78085">
        <ele>584.8</ele>
        <time>2020-06-07T08:41:42.000Z</time>
      </trkpt>
      <trkpt lat="45.84661" lon="4.78082">
        <ele>585</ele>
        <time>2020-06-07T08:41:43.000Z</time>
      </trkpt>
      <trkpt lat="45.84663" lon="4.78077">
        <ele>585.2</ele>
        <time>2020-06-07T08:41:44.000Z</time>
      </trkpt>
      <trkpt lat="45.84664" lon="4.78073">
        <ele>585.5</ele>
        <time>2020-06-07T08:41:45.000Z</time>
      </trkpt>
      <trkpt lat="45.84665" lon="4.78069">
        <ele>585.7</ele>
        <time>2020-06-07T08:41:46.000Z</time>
      </trkpt>
      <trkpt lat="45.84666" lon="4.78065">
        <ele>585.9</ele>
        <time>2020-06-07T08:41:47.000Z</time>
      </trkpt>
      <trkpt lat="45.84668" lon="4.7806">
        <ele>586.1</ele>
        <time>2020-06-07T08:41:48.000Z</time>
      </trkpt>
      <trkpt lat="45.84668" lon="4.78055">
        <ele>586.2</ele>
        <time>2020-06-07T08:41:49.000Z</time>
      </trkpt>
      <trkpt lat="45.84669" lon="4.78051">
        <ele>586.4</ele>
        <time>2020-06-07T08:41:50.000Z</time>
      </trkpt>
      <trkpt lat="45.8467" lon="4.78045">
        <ele>586.6</ele>
        <time>2020-06-07T08:41:51.000Z</time>
      </trkpt>
      <trkpt lat="45.84671" lon="4.78041">
        <ele>586.7</ele>
        <time>2020-06-07T08:41:52.000Z</time>
      </trkpt>
      <trkpt lat="45.84674" lon="4.78036">
        <ele>586.9</ele>
        <time>2020-06-07T08:41:53.000Z</time>
      </trkpt>
      <trkpt lat="45.84675" lon="4.78031">
        <ele>586.8</ele>
        <time>2020-06-07T08:41:54.000Z</time>
      </trkpt>
      <trkpt lat="45.84676" lon="4.78027">
        <ele>586.8</ele>
        <time>2020-06-07T08:41:55.000Z</time>
      </trkpt>
      <trkpt lat="45.84678" lon="4.78022">
        <ele>586.7</ele>
        <time>2020-06-07T08:41:56.000Z</time>
      </trkpt>
      <trkpt lat="45.84678" lon="4.78017">
        <ele>586.7</ele>
        <time>2020-06-07T08:41:57.000Z</time>
      </trkpt>
      <trkpt lat="45.8468" lon="4.78012">
        <ele>586.6</ele>
        <time>2020-06-07T08:41:58.000Z</time>
      </trkpt>
      <trkpt lat="45.8468" lon="4.78007">
        <ele>586.2</ele>
        <time>2020-06-07T08:41:59.000Z</time>
      </trkpt>
      <trkpt lat="45.84681" lon="4.78002">
        <ele>585.9</ele>
        <time>2020-06-07T08:42:00.000Z</time>
      </trkpt>
      <trkpt lat="45.84682" lon="4.77997">
        <ele>585.7</ele>
        <time>2020-06-07T08:42:01.000Z</time>
      </trkpt>
      <trkpt lat="45.84682" lon="4.77992">
        <ele>585.5</ele>
        <time>2020-06-07T08:42:02.000Z</time>
      </trkpt>
      <trkpt lat="45.84684" lon="4.77987">
        <ele>585.2</ele>
        <time>2020-06-07T08:42:03.000Z</time>
      </trkpt>
      <trkpt lat="45.84685" lon="4.77981">
        <ele>584.9</ele>
        <time>2020-06-07T08:42:04.000Z</time>
      </trkpt>
      <trkpt lat="45.84687" lon="4.77975">
        <ele>584.4</ele>
        <time>2020-06-07T08:42:05.000Z</time>
      </trkpt>
      <trkpt lat="45.84689" lon="4.77969">
        <ele>584</ele>
        <time>2020-06-07T08:42:06.000Z</time>
      </trkpt>
      <trkpt lat="45.84692" lon="4.77963">
        <ele>583.6</ele>
        <time>2020-06-07T08:42:07.000Z</time>
      </trkpt>
      <trkpt lat="45.84694" lon="4.77957">
        <ele>583.3</ele>
        <time>2020-06-07T08:42:08.000Z</time>
      </trkpt>
      <trkpt lat="45.84697" lon="4.77951">
        <ele>582.9</ele>
        <time>2020-06-07T08:42:09.000Z</time>
      </trkpt>
      <trkpt lat="45.847" lon="4.77947">
        <ele>583</ele>
        <time>2020-06-07T08:42:10.000Z</time>
      </trkpt>
      <trkpt lat="45.84704" lon="4.77943">
        <ele>583.1</ele>
        <time>2020-06-07T08:42:11.000Z</time>
      </trkpt>
      <trkpt lat="45.84706" lon="4.77941">
        <ele>583.3</ele>
        <time>2020-06-07T08:42:12.000Z</time>
      </trkpt>
      <trkpt lat="45.84707" lon="4.77939">
        <ele>583.4</ele>
        <time>2020-06-07T08:42:13.000Z</time>
      </trkpt>
      <trkpt lat="45.84708" lon="4.77939">
        <ele>583.4</ele>
        <time>2020-06-07T08:42:14.000Z</time>
      </trkpt>
      <trkpt lat="45.84708" lon="4.77938">
        <ele>583.4</ele>
        <time>2020-06-07T08:42:15.000Z</time>
      </trkpt>
      <trkpt lat="45.84709" lon="4.77938">
        <ele>583.4</ele>
        <time>2020-06-07T08:42:16.000Z</time>
      </trkpt>
      <trkpt lat="45.84716" lon="4.77927">
        <ele>584.2</ele>
        <time>2020-06-07T08:42:31.000Z</time>
      </trkpt>
      <trkpt lat="45.84717" lon="4.77925">
        <ele>584.3</ele>
        <time>2020-06-07T08:42:32.000Z</time>
      </trkpt>
      <trkpt lat="45.84719" lon="4.77923">
        <ele>584.4</ele>
        <time>2020-06-07T08:42:33.000Z</time>
      </trkpt>
      <trkpt lat="45.8472" lon="4.77921">
        <ele>584.5</ele>
        <time>2020-06-07T08:42:34.000Z</time>
      </trkpt>
      <trkpt lat="45.84722" lon="4.77918">
        <ele>584.6</ele>
        <time>2020-06-07T08:42:35.000Z</time>
      </trkpt>
      <trkpt lat="45.84724" lon="4.77915">
        <ele>584.7</ele>
        <time>2020-06-07T08:42:36.000Z</time>
      </trkpt>
      <trkpt lat="45.84726" lon="4.77912">
        <ele>584.8</ele>
        <time>2020-06-07T08:42:37.000Z</time>
      </trkpt>
      <trkpt lat="45.84728" lon="4.7791">
        <ele>584.8</ele>
        <time>2020-06-07T08:42:38.000Z</time>
      </trkpt>
      <trkpt lat="45.84729" lon="4.77908">
        <ele>584.9</ele>
        <time>2020-06-07T08:42:39.000Z</time>
      </trkpt>
      <trkpt lat="45.84731" lon="4.77906">
        <ele>585</ele>
        <time>2020-06-07T08:42:40.000Z</time>
      </trkpt>
      <trkpt lat="45.84733" lon="4.77904">
        <ele>585</ele>
        <time>2020-06-07T08:42:41.000Z</time>
      </trkpt>
      <trkpt lat="45.84734" lon="4.77901">
        <ele>585.1</ele>
        <time>2020-06-07T08:42:42.000Z</time>
      </trkpt>
      <trkpt lat="45.84735" lon="4.77899">
        <ele>585.2</ele>
        <time>2020-06-07T08:42:43.000Z</time>
      </trkpt>
      <trkpt lat="45.84736" lon="4.77896">
        <ele>585.2</ele>
        <time>2020-06-07T08:42:44.000Z</time>
      </trkpt>
      <trkpt lat="45.84737" lon="4.77894">
        <ele>585.3</ele>
        <time>2020-06-07T08:42:45.000Z</time>
      </trkpt>
      <trkpt lat="45.84737" lon="4.77892">
        <ele>585.4</ele>
        <time>2020-06-07T08:42:46.000Z</time>
      </trkpt>
      <trkpt lat="45.84738" lon="4.7789">
        <ele>585.5</ele>
        <time>2020-06-07T08:42:47.000Z</time>
      </trkpt>
      <trkpt lat="45.84739" lon="4.77889">
        <ele>585.6</ele>
        <time>2020-06-07T08:42:48.000Z</time>
      </trkpt>
      <trkpt lat="45.8474" lon="4.77889">
        <ele>585.7</ele>
        <time>2020-06-07T08:42:49.000Z</time>
      </trkpt>
      <trkpt lat="45.84741" lon="4.7789">
        <ele>585.8</ele>
        <time>2020-06-07T08:42:50.000Z</time>
      </trkpt>
      <trkpt lat="45.84743" lon="4.7789">
        <ele>585.9</ele>
        <time>2020-06-07T08:42:51.000Z</time>
      </trkpt>
      <trkpt lat="45.84743" lon="4.77889">
        <ele>586</ele>
        <time>2020-06-07T08:42:52.000Z</time>
      </trkpt>
      <trkpt lat="45.84745" lon="4.77889">
        <ele>586.1</ele>
        <time>2020-06-07T08:42:53.000Z</time>
      </trkpt>
      <trkpt lat="45.84745" lon="4.77888">
        <ele>586.2</ele>
        <time>2020-06-07T08:42:54.000Z</time>
      </trkpt>
      <trkpt lat="45.84746" lon="4.77887">
        <ele>586.4</ele>
        <time>2020-06-07T08:42:55.000Z</time>
      </trkpt>
      <trkpt lat="45.84747" lon="4.77885">
        <ele>586.5</ele>
        <time>2020-06-07T08:42:56.000Z</time>
      </trkpt>
      <trkpt lat="45.84749" lon="4.77885">
        <ele>586.7</ele>
        <time>2020-06-07T08:42:57.000Z</time>
      </trkpt>
      <trkpt lat="45.8475" lon="4.77885">
        <ele>586.9</ele>
        <time>2020-06-07T08:42:58.000Z</time>
      </trkpt>
      <trkpt lat="45.84752" lon="4.77884">
        <ele>587</ele>
        <time>2020-06-07T08:42:59.000Z</time>
      </trkpt>
      <trkpt lat="45.84753" lon="4.77883">
        <ele>587.2</ele>
        <time>2020-06-07T08:43:00.000Z</time>
      </trkpt>
      <trkpt lat="45.84755" lon="4.77883">
        <ele>587.4</ele>
        <time>2020-06-07T08:43:01.000Z</time>
      </trkpt>
      <trkpt lat="45.84756" lon="4.77882">
        <ele>587.6</ele>
        <time>2020-06-07T08:43:02.000Z</time>
      </trkpt>
      <trkpt lat="45.84758" lon="4.77881">
        <ele>587.8</ele>
        <time>2020-06-07T08:43:03.000Z</time>
      </trkpt>
      <trkpt lat="45.8476" lon="4.7788">
        <ele>587.9</ele>
        <time>2020-06-07T08:43:04.000Z</time>
      </trkpt>
      <trkpt lat="45.84761" lon="4.77879">
        <ele>588.1</ele>
        <time>2020-06-07T08:43:05.000Z</time>
      </trkpt>
      <trkpt lat="45.84762" lon="4.77879">
        <ele>588.3</ele>
        <time>2020-06-07T08:43:06.000Z</time>
      </trkpt>
      <trkpt lat="45.84764" lon="4.77879">
        <ele>588.4</ele>
        <time>2020-06-07T08:43:07.000Z</time>
      </trkpt>
      <trkpt lat="45.84765" lon="4.7788">
        <ele>588.5</ele>
        <time>2020-06-07T08:43:08.000Z</time>
      </trkpt>
      <trkpt lat="45.84766" lon="4.7788">
        <ele>588.6</ele>
        <time>2020-06-07T08:43:09.000Z</time>
      </trkpt>
      <trkpt lat="45.84767" lon="4.7788">
        <ele>588.7</ele>
        <time>2020-06-07T08:43:10.000Z</time>
      </trkpt>
      <trkpt lat="45.84768" lon="4.77879">
        <ele>588.9</ele>
        <time>2020-06-07T08:43:11.000Z</time>
      </trkpt>
      <trkpt lat="45.84769" lon="4.77878">
        <ele>589</ele>
        <time>2020-06-07T08:43:12.000Z</time>
      </trkpt>
      <trkpt lat="45.84772" lon="4.77877">
        <ele>589.2</ele>
        <time>2020-06-07T08:43:13.000Z</time>
      </trkpt>
      <trkpt lat="45.84774" lon="4.77875">
        <ele>589.4</ele>
        <time>2020-06-07T08:43:14.000Z</time>
      </trkpt>
      <trkpt lat="45.84776" lon="4.77873">
        <ele>589.5</ele>
        <time>2020-06-07T08:43:15.000Z</time>
      </trkpt>
      <trkpt lat="45.84778" lon="4.77871">
        <ele>589.5</ele>
        <time>2020-06-07T08:43:16.000Z</time>
      </trkpt>
      <trkpt lat="45.84779" lon="4.77871">
        <ele>589.6</ele>
        <time>2020-06-07T08:43:17.000Z</time>
      </trkpt>
      <trkpt lat="45.84781" lon="4.7787">
        <ele>589.6</ele>
        <time>2020-06-07T08:43:18.000Z</time>
      </trkpt>
      <trkpt lat="45.84781" lon="4.77868">
        <ele>589.6</ele>
        <time>2020-06-07T08:43:19.000Z</time>
      </trkpt>
      <trkpt lat="45.84782" lon="4.77866">
        <ele>589.5</ele>
        <time>2020-06-07T08:43:20.000Z</time>
      </trkpt>
      <trkpt lat="45.84783" lon="4.77864">
        <ele>589.5</ele>
        <time>2020-06-07T08:43:21.000Z</time>
      </trkpt>
      <trkpt lat="45.84784" lon="4.77862">
        <ele>589.4</ele>
        <time>2020-06-07T08:43:22.000Z</time>
      </trkpt>
      <trkpt lat="45.84785" lon="4.7786">
        <ele>589.3</ele>
        <time>2020-06-07T08:43:23.000Z</time>
      </trkpt>
      <trkpt lat="45.84786" lon="4.7786">
        <ele>589.3</ele>
        <time>2020-06-07T08:43:24.000Z</time>
      </trkpt>
      <trkpt lat="45.84787" lon="4.77859">
        <ele>589.2</ele>
        <time>2020-06-07T08:43:25.000Z</time>
      </trkpt>
      <trkpt lat="45.84787" lon="4.77858">
        <ele>589.1</ele>
        <time>2020-06-07T08:43:26.000Z</time>
      </trkpt>
      <trkpt lat="45.84788" lon="4.77857">
        <ele>589.1</ele>
        <time>2020-06-07T08:43:27.000Z</time>
      </trkpt>
      <trkpt lat="45.84788" lon="4.77856">
        <ele>589</ele>
        <time>2020-06-07T08:43:28.000Z</time>
      </trkpt>
      <trkpt lat="45.84788" lon="4.77854">
        <ele>588.9</ele>
        <time>2020-06-07T08:43:29.000Z</time>
      </trkpt>
      <trkpt lat="45.84787" lon="4.77852">
        <ele>588.7</ele>
        <time>2020-06-07T08:43:30.000Z</time>
      </trkpt>
      <trkpt lat="45.84787" lon="4.7785">
        <ele>588.5</ele>
        <time>2020-06-07T08:43:31.000Z</time>
      </trkpt>
      <trkpt lat="45.84787" lon="4.77848">
        <ele>588.3</ele>
        <time>2020-06-07T08:43:32.000Z</time>
      </trkpt>
      <trkpt lat="45.84788" lon="4.77845">
        <ele>587.9</ele>
        <time>2020-06-07T08:43:33.000Z</time>
      </trkpt>
      <trkpt lat="45.84787" lon="4.77842">
        <ele>587.5</ele>
        <time>2020-06-07T08:43:34.000Z</time>
      </trkpt>
      <trkpt lat="45.84788" lon="4.77839">
        <ele>587.1</ele>
        <time>2020-06-07T08:43:35.000Z</time>
      </trkpt>
      <trkpt lat="45.84787" lon="4.77835">
        <ele>586.5</ele>
        <time>2020-06-07T08:43:36.000Z</time>
      </trkpt>
      <trkpt lat="45.84787" lon="4.77831">
        <ele>585.9</ele>
        <time>2020-06-07T08:43:37.000Z</time>
      </trkpt>
      <trkpt lat="45.84787" lon="4.77829">
        <ele>585.6</ele>
        <time>2020-06-07T08:43:38.000Z</time>
      </trkpt>
      <trkpt lat="45.84789" lon="4.77827">
        <ele>585.1</ele>
        <time>2020-06-07T08:43:39.000Z</time>
      </trkpt>
      <trkpt lat="45.84791" lon="4.77826">
        <ele>584.6</ele>
        <time>2020-06-07T08:43:40.000Z</time>
      </trkpt>
      <trkpt lat="45.84793" lon="4.77824">
        <ele>584.2</ele>
        <time>2020-06-07T08:43:41.000Z</time>
      </trkpt>
      <trkpt lat="45.84795" lon="4.77822">
        <ele>583.9</ele>
        <time>2020-06-07T08:43:42.000Z</time>
      </trkpt>
      <trkpt lat="45.84797" lon="4.7782">
        <ele>583.6</ele>
        <time>2020-06-07T08:43:43.000Z</time>
      </trkpt>
      <trkpt lat="45.84799" lon="4.77818">
        <ele>583.5</ele>
        <time>2020-06-07T08:43:44.000Z</time>
      </trkpt>
      <trkpt lat="45.848" lon="4.77817">
        <ele>583.4</ele>
        <time>2020-06-07T08:43:45.000Z</time>
      </trkpt>
      <trkpt lat="45.84802" lon="4.77816">
        <ele>583.3</ele>
        <time>2020-06-07T08:43:46.000Z</time>
      </trkpt>
      <trkpt lat="45.84804" lon="4.77816">
        <ele>583.3</ele>
        <time>2020-06-07T08:43:47.000Z</time>
      </trkpt>
      <trkpt lat="45.84806" lon="4.77815">
        <ele>583.3</ele>
        <time>2020-06-07T08:43:48.000Z</time>
      </trkpt>
      <trkpt lat="45.84807" lon="4.77814">
        <ele>583.4</ele>
        <time>2020-06-07T08:43:49.000Z</time>
      </trkpt>
      <trkpt lat="45.84809" lon="4.77814">
        <ele>583.4</ele>
        <time>2020-06-07T08:43:50.000Z</time>
      </trkpt>
      <trkpt lat="45.8481" lon="4.77813">
        <ele>583.5</ele>
        <time>2020-06-07T08:43:51.000Z</time>
      </trkpt>
      <trkpt lat="45.84812" lon="4.77812">
        <ele>583.6</ele>
        <time>2020-06-07T08:43:52.000Z</time>
      </trkpt>
      <trkpt lat="45.84813" lon="4.77811">
        <ele>583.7</ele>
        <time>2020-06-07T08:43:53.000Z</time>
      </trkpt>
      <trkpt lat="45.84814" lon="4.7781">
        <ele>583.8</ele>
        <time>2020-06-07T08:43:54.000Z</time>
      </trkpt>
      <trkpt lat="45.84815" lon="4.77809">
        <ele>583.9</ele>
        <time>2020-06-07T08:43:55.000Z</time>
      </trkpt>
      <trkpt lat="45.84817" lon="4.77808">
        <ele>584</ele>
        <time>2020-06-07T08:43:56.000Z</time>
      </trkpt>
      <trkpt lat="45.84818" lon="4.77806">
        <ele>584.2</ele>
        <time>2020-06-07T08:43:57.000Z</time>
      </trkpt>
      <trkpt lat="45.8482" lon="4.77804">
        <ele>584.4</ele>
        <time>2020-06-07T08:43:58.000Z</time>
      </trkpt>
      <trkpt lat="45.84822" lon="4.77802">
        <ele>584.5</ele>
        <time>2020-06-07T08:43:59.000Z</time>
      </trkpt>
      <trkpt lat="45.84823" lon="4.778">
        <ele>584.7</ele>
        <time>2020-06-07T08:44:00.000Z</time>
      </trkpt>
      <trkpt lat="45.84826" lon="4.77799">
        <ele>584.9</ele>
        <time>2020-06-07T08:44:01.000Z</time>
      </trkpt>
      <trkpt lat="45.84828" lon="4.77798">
        <ele>585.1</ele>
        <time>2020-06-07T08:44:02.000Z</time>
      </trkpt>
      <trkpt lat="45.84831" lon="4.77797">
        <ele>585.2</ele>
        <time>2020-06-07T08:44:03.000Z</time>
      </trkpt>
      <trkpt lat="45.84832" lon="4.77796">
        <ele>585.3</ele>
        <time>2020-06-07T08:44:04.000Z</time>
      </trkpt>
      <trkpt lat="45.84833" lon="4.77795">
        <ele>585.4</ele>
        <time>2020-06-07T08:44:05.000Z</time>
      </trkpt>
      <trkpt lat="45.84834" lon="4.77794">
        <ele>585.4</ele>
        <time>2020-06-07T08:44:06.000Z</time>
      </trkpt>
      <trkpt lat="45.84834" lon="4.77794">
        <ele>585.4</ele>
        <time>2020-06-07T08:44:07.000Z</time>
      </trkpt>
      <trkpt lat="45.84848" lon="4.77786">
        <ele>586.1</ele>
        <time>2020-06-07T08:45:05.000Z</time>
      </trkpt>
      <trkpt lat="45.8485" lon="4.77786">
        <ele>586.2</ele>
        <time>2020-06-07T08:45:06.000Z</time>
      </trkpt>
      <trkpt lat="45.84852" lon="4.77786">
        <ele>586.3</ele>
        <time>2020-06-07T08:45:07.000Z</time>
      </trkpt>
      <trkpt lat="45.84853" lon="4.77787">
        <ele>586.4</ele>
        <time>2020-06-07T08:45:08.000Z</time>
      </trkpt>
      <trkpt lat="45.84855" lon="4.77787">
        <ele>586.5</ele>
        <time>2020-06-07T08:45:09.000Z</time>
      </trkpt>
      <trkpt lat="45.84857" lon="4.77786">
        <ele>586.6</ele>
        <time>2020-06-07T08:45:10.000Z</time>
      </trkpt>
      <trkpt lat="45.84858" lon="4.77786">
        <ele>586.7</ele>
        <time>2020-06-07T08:45:11.000Z</time>
      </trkpt>
      <trkpt lat="45.8486" lon="4.77785">
        <ele>586.8</ele>
        <time>2020-06-07T08:45:12.000Z</time>
      </trkpt>
      <trkpt lat="45.84861" lon="4.77784">
        <ele>586.8</ele>
        <time>2020-06-07T08:45:13.000Z</time>
      </trkpt>
      <trkpt lat="45.84863" lon="4.77783">
        <ele>586.9</ele>
        <time>2020-06-07T08:45:14.000Z</time>
      </trkpt>
      <trkpt lat="45.84865" lon="4.77782">
        <ele>587</ele>
        <time>2020-06-07T08:45:15.000Z</time>
      </trkpt>
      <trkpt lat="45.84868" lon="4.77781">
        <ele>587.1</ele>
        <time>2020-06-07T08:45:16.000Z</time>
      </trkpt>
      <trkpt lat="45.8487" lon="4.77781">
        <ele>587.1</ele>
        <time>2020-06-07T08:45:17.000Z</time>
      </trkpt>
      <trkpt lat="45.84871" lon="4.77781">
        <ele>587.2</ele>
        <time>2020-06-07T08:45:18.000Z</time>
      </trkpt>
      <trkpt lat="45.84873" lon="4.77781">
        <ele>587.2</ele>
        <time>2020-06-07T08:45:19.000Z</time>
      </trkpt>
      <trkpt lat="45.84874" lon="4.77779">
        <ele>587.2</ele>
        <time>2020-06-07T08:45:20.000Z</time>
      </trkpt>
      <trkpt lat="45.84875" lon="4.77779">
        <ele>587.3</ele>
        <time>2020-06-07T08:45:21.000Z</time>
      </trkpt>
      <trkpt lat="45.84877" lon="4.77779">
        <ele>587.3</ele>
        <time>2020-06-07T08:45:22.000Z</time>
      </trkpt>
      <trkpt lat="45.84879" lon="4.77779">
        <ele>587.3</ele>
        <time>2020-06-07T08:45:23.000Z</time>
      </trkpt>
      <trkpt lat="45.84882" lon="4.77778">
        <ele>587.4</ele>
        <time>2020-06-07T08:45:24.000Z</time>
      </trkpt>
      <trkpt lat="45.84884" lon="4.77778">
        <ele>587.4</ele>
        <time>2020-06-07T08:45:25.000Z</time>
      </trkpt>
      <trkpt lat="45.84885" lon="4.77777">
        <ele>587.4</ele>
        <time>2020-06-07T08:45:26.000Z</time>
      </trkpt>
      <trkpt lat="45.84887" lon="4.77776">
        <ele>587.5</ele>
        <time>2020-06-07T08:45:27.000Z</time>
      </trkpt>
      <trkpt lat="45.84889" lon="4.77776">
        <ele>587.5</ele>
        <time>2020-06-07T08:45:28.000Z</time>
      </trkpt>
      <trkpt lat="45.84891" lon="4.77775">
        <ele>587.6</ele>
        <time>2020-06-07T08:45:29.000Z</time>
      </trkpt>
      <trkpt lat="45.84893" lon="4.77775">
        <ele>587.7</ele>
        <time>2020-06-07T08:45:30.000Z</time>
      </trkpt>
      <trkpt lat="45.84896" lon="4.77775">
        <ele>587.7</ele>
        <time>2020-06-07T08:45:31.000Z</time>
      </trkpt>
      <trkpt lat="45.84899" lon="4.77775">
        <ele>587.8</ele>
        <time>2020-06-07T08:45:32.000Z</time>
      </trkpt>
      <trkpt lat="45.84902" lon="4.77774">
        <ele>587.9</ele>
        <time>2020-06-07T08:45:33.000Z</time>
      </trkpt>
      <trkpt lat="45.84905" lon="4.77774">
        <ele>588</ele>
        <time>2020-06-07T08:45:34.000Z</time>
      </trkpt>
      <trkpt lat="45.84907" lon="4.77773">
        <ele>588.1</ele>
        <time>2020-06-07T08:45:35.000Z</time>
      </trkpt>
      <trkpt lat="45.84909" lon="4.77772">
        <ele>588.2</ele>
        <time>2020-06-07T08:45:36.000Z</time>
      </trkpt>
      <trkpt lat="45.84911" lon="4.77772">
        <ele>588.2</ele>
        <time>2020-06-07T08:45:37.000Z</time>
      </trkpt>
      <trkpt lat="45.84912" lon="4.77771">
        <ele>588.2</ele>
        <time>2020-06-07T08:45:38.000Z</time>
      </trkpt>
      <trkpt lat="45.84913" lon="4.77771">
        <ele>588.3</ele>
        <time>2020-06-07T08:45:39.000Z</time>
      </trkpt>
      <trkpt lat="45.84915" lon="4.77771">
        <ele>588.3</ele>
        <time>2020-06-07T08:45:40.000Z</time>
      </trkpt>
      <trkpt lat="45.84917" lon="4.77771">
        <ele>588.4</ele>
        <time>2020-06-07T08:45:41.000Z</time>
      </trkpt>
      <trkpt lat="45.84919" lon="4.77772">
        <ele>588.4</ele>
        <time>2020-06-07T08:45:42.000Z</time>
      </trkpt>
      <trkpt lat="45.8492" lon="4.77772">
        <ele>588.5</ele>
        <time>2020-06-07T08:45:43.000Z</time>
      </trkpt>
      <trkpt lat="45.84922" lon="4.77773">
        <ele>588.5</ele>
        <time>2020-06-07T08:45:44.000Z</time>
      </trkpt>
      <trkpt lat="45.84923" lon="4.77774">
        <ele>588.6</ele>
        <time>2020-06-07T08:45:45.000Z</time>
      </trkpt>
      <trkpt lat="45.84924" lon="4.77775">
        <ele>588.6</ele>
        <time>2020-06-07T08:45:46.000Z</time>
      </trkpt>
      <trkpt lat="45.84926" lon="4.77775">
        <ele>588.7</ele>
        <time>2020-06-07T08:45:47.000Z</time>
      </trkpt>
      <trkpt lat="45.84928" lon="4.77774">
        <ele>588.7</ele>
        <time>2020-06-07T08:45:48.000Z</time>
      </trkpt>
      <trkpt lat="45.8493" lon="4.77773">
        <ele>588.8</ele>
        <time>2020-06-07T08:45:49.000Z</time>
      </trkpt>
      <trkpt lat="45.84932" lon="4.77772">
        <ele>588.8</ele>
        <time>2020-06-07T08:45:50.000Z</time>
      </trkpt>
      <trkpt lat="45.84934" lon="4.7777">
        <ele>588.8</ele>
        <time>2020-06-07T08:45:51.000Z</time>
      </trkpt>
      <trkpt lat="45.84936" lon="4.77768">
        <ele>588.8</ele>
        <time>2020-06-07T08:45:52.000Z</time>
      </trkpt>
      <trkpt lat="45.84938" lon="4.77767">
        <ele>588.7</ele>
        <time>2020-06-07T08:45:53.000Z</time>
      </trkpt>
      <trkpt lat="45.84941" lon="4.77767">
        <ele>588.6</ele>
        <time>2020-06-07T08:45:54.000Z</time>
      </trkpt>
      <trkpt lat="45.84943" lon="4.77766">
        <ele>588.4</ele>
        <time>2020-06-07T08:45:55.000Z</time>
      </trkpt>
      <trkpt lat="45.84947" lon="4.77766">
        <ele>588.1</ele>
        <time>2020-06-07T08:45:56.000Z</time>
      </trkpt>
      <trkpt lat="45.84949" lon="4.77767">
        <ele>587.9</ele>
        <time>2020-06-07T08:45:57.000Z</time>
      </trkpt>
      <trkpt lat="45.84951" lon="4.77767">
        <ele>587.7</ele>
        <time>2020-06-07T08:45:58.000Z</time>
      </trkpt>
      <trkpt lat="45.84953" lon="4.77767">
        <ele>587.5</ele>
        <time>2020-06-07T08:45:59.000Z</time>
      </trkpt>
      <trkpt lat="45.84955" lon="4.77765">
        <ele>587.3</ele>
        <time>2020-06-07T08:46:00.000Z</time>
      </trkpt>
      <trkpt lat="45.84957" lon="4.77763">
        <ele>587.1</ele>
        <time>2020-06-07T08:46:01.000Z</time>
      </trkpt>
      <trkpt lat="45.84959" lon="4.77762">
        <ele>586.9</ele>
        <time>2020-06-07T08:46:02.000Z</time>
      </trkpt>
      <trkpt lat="45.84961" lon="4.77761">
        <ele>586.7</ele>
        <time>2020-06-07T08:46:03.000Z</time>
      </trkpt>
      <trkpt lat="45.84963" lon="4.77762">
        <ele>586.5</ele>
        <time>2020-06-07T08:46:04.000Z</time>
      </trkpt>
      <trkpt lat="45.84965" lon="4.77762">
        <ele>586.3</ele>
        <time>2020-06-07T08:46:05.000Z</time>
      </trkpt>
      <trkpt lat="45.84967" lon="4.77762">
        <ele>586.2</ele>
        <time>2020-06-07T08:46:06.000Z</time>
      </trkpt>
      <trkpt lat="45.84968" lon="4.77761">
        <ele>586.1</ele>
        <time>2020-06-07T08:46:07.000Z</time>
      </trkpt>
      <trkpt lat="45.8497" lon="4.77761">
        <ele>586</ele>
        <time>2020-06-07T08:46:08.000Z</time>
      </trkpt>
      <trkpt lat="45.84972" lon="4.7776">
        <ele>585.8</ele>
        <time>2020-06-07T08:46:09.000Z</time>
      </trkpt>
      <trkpt lat="45.84974" lon="4.77759">
        <ele>585.6</ele>
        <time>2020-06-07T08:46:10.000Z</time>
      </trkpt>
      <trkpt lat="45.84976" lon="4.77758">
        <ele>585.4</ele>
        <time>2020-06-07T08:46:11.000Z</time>
      </trkpt>
      <trkpt lat="45.84978" lon="4.77757">
        <ele>585.2</ele>
        <time>2020-06-07T08:46:12.000Z</time>
      </trkpt>
      <trkpt lat="45.8498" lon="4.77756">
        <ele>585.1</ele>
        <time>2020-06-07T08:46:13.000Z</time>
      </trkpt>
      <trkpt lat="45.84981" lon="4.77755">
        <ele>584.9</ele>
        <time>2020-06-07T08:46:14.000Z</time>
      </trkpt>
      <trkpt lat="45.84984" lon="4.77753">
        <ele>584.6</ele>
        <time>2020-06-07T08:46:15.000Z</time>
      </trkpt>
      <trkpt lat="45.84985" lon="4.77751">
        <ele>584.5</ele>
        <time>2020-06-07T08:46:16.000Z</time>
      </trkpt>
      <trkpt lat="45.84987" lon="4.77751">
        <ele>584.3</ele>
        <time>2020-06-07T08:46:17.000Z</time>
      </trkpt>
      <trkpt lat="45.84988" lon="4.77752">
        <ele>584.1</ele>
        <time>2020-06-07T08:46:18.000Z</time>
      </trkpt>
      <trkpt lat="45.8499" lon="4.77752">
        <ele>583.9</ele>
        <time>2020-06-07T08:46:19.000Z</time>
      </trkpt>
      <trkpt lat="45.84993" lon="4.77752">
        <ele>583.7</ele>
        <time>2020-06-07T08:46:20.000Z</time>
      </trkpt>
      <trkpt lat="45.84996" lon="4.77752">
        <ele>583.6</ele>
        <time>2020-06-07T08:46:21.000Z</time>
      </trkpt>
      <trkpt lat="45.84998" lon="4.77752">
        <ele>583.5</ele>
        <time>2020-06-07T08:46:22.000Z</time>
      </trkpt>
      <trkpt lat="45.85" lon="4.77753">
        <ele>583.4</ele>
        <time>2020-06-07T08:46:23.000Z</time>
      </trkpt>
      <trkpt lat="45.85001" lon="4.77754">
        <ele>583.4</ele>
        <time>2020-06-07T08:46:24.000Z</time>
      </trkpt>
      <trkpt lat="45.85002" lon="4.77755">
        <ele>583.3</ele>
        <time>2020-06-07T08:46:25.000Z</time>
      </trkpt>
      <trkpt lat="45.85003" lon="4.77756">
        <ele>583.3</ele>
        <time>2020-06-07T08:46:26.000Z</time>
      </trkpt>
      <trkpt lat="45.85004" lon="4.77757">
        <ele>583.3</ele>
        <time>2020-06-07T08:46:27.000Z</time>
      </trkpt>
      <trkpt lat="45.85006" lon="4.77758">
        <ele>583.3</ele>
        <time>2020-06-07T08:46:28.000Z</time>
      </trkpt>
      <trkpt lat="45.85008" lon="4.77759">
        <ele>583.3</ele>
        <time>2020-06-07T08:46:29.000Z</time>
      </trkpt>
      <trkpt lat="45.8501" lon="4.7776">
        <ele>583.3</ele>
        <time>2020-06-07T08:46:30.000Z</time>
      </trkpt>
      <trkpt lat="45.85013" lon="4.7776">
        <ele>583.3</ele>
        <time>2020-06-07T08:46:31.000Z</time>
      </trkpt>
      <trkpt lat="45.85015" lon="4.77761">
        <ele>583.2</ele>
        <time>2020-06-07T08:46:32.000Z</time>
      </trkpt>
      <trkpt lat="45.85017" lon="4.77761">
        <ele>583.1</ele>
        <time>2020-06-07T08:46:33.000Z</time>
      </trkpt>
      <trkpt lat="45.8502" lon="4.77761">
        <ele>583</ele>
        <time>2020-06-07T08:46:34.000Z</time>
      </trkpt>
      <trkpt lat="45.85022" lon="4.7776">
        <ele>582.8</ele>
        <time>2020-06-07T08:46:35.000Z</time>
      </trkpt>
      <trkpt lat="45.85024" lon="4.7776">
        <ele>582.6</ele>
        <time>2020-06-07T08:46:36.000Z</time>
      </trkpt>
      <trkpt lat="45.85025" lon="4.7776">
        <ele>582.5</ele>
        <time>2020-06-07T08:46:37.000Z</time>
      </trkpt>
      <trkpt lat="45.85026" lon="4.77762">
        <ele>582.2</ele>
        <time>2020-06-07T08:46:38.000Z</time>
      </trkpt>
      <trkpt lat="45.85026" lon="4.77763">
        <ele>582.1</ele>
        <time>2020-06-07T08:46:39.000Z</time>
      </trkpt>
      <trkpt lat="45.85027" lon="4.77764">
        <ele>582</ele>
        <time>2020-06-07T08:46:40.000Z</time>
      </trkpt>
      <trkpt lat="45.85027" lon="4.77766">
        <ele>581.9</ele>
        <time>2020-06-07T08:46:41.000Z</time>
      </trkpt>
      <trkpt lat="45.85027" lon="4.77766">
        <ele>581.8</ele>
        <time>2020-06-07T08:46:42.000Z</time>
      </trkpt>
      <trkpt lat="45.85028" lon="4.77767">
        <ele>581.7</ele>
        <time>2020-06-07T08:46:43.000Z</time>
      </trkpt>
      <trkpt lat="45.85028" lon="4.77767">
        <ele>581.7</ele>
        <time>2020-06-07T08:46:44.000Z</time>
      </trkpt>
      <trkpt lat="45.85028" lon="4.77767">
        <ele>581.6</ele>
        <time>2020-06-07T08:46:45.000Z</time>
      </trkpt>
      <trkpt lat="45.85039" lon="4.77762">
        <ele>580</ele>
        <time>2020-06-07T08:46:56.000Z</time>
      </trkpt>
      <trkpt lat="45.85039" lon="4.77764">
        <ele>579.8</ele>
        <time>2020-06-07T08:46:57.000Z</time>
      </trkpt>
      <trkpt lat="45.8504" lon="4.77765">
        <ele>579.6</ele>
        <time>2020-06-07T08:46:58.000Z</time>
      </trkpt>
      <trkpt lat="45.85041" lon="4.77767">
        <ele>579.5</ele>
        <time>2020-06-07T08:46:59.000Z</time>
      </trkpt>
      <trkpt lat="45.85041" lon="4.77768">
        <ele>579.4</ele>
        <time>2020-06-07T08:47:00.000Z</time>
      </trkpt>
      <trkpt lat="45.85041" lon="4.77769">
        <ele>579.3</ele>
        <time>2020-06-07T08:47:01.000Z</time>
      </trkpt>
      <trkpt lat="45.85041" lon="4.7777">
        <ele>579.3</ele>
        <time>2020-06-07T08:47:02.000Z</time>
      </trkpt>
      <trkpt lat="45.85041" lon="4.7777">
        <ele>579.2</ele>
        <time>2020-06-07T08:47:03.000Z</time>
      </trkpt>
      <trkpt lat="45.85052" lon="4.77782">
        <ele>578.3</ele>
        <time>2020-06-07T08:47:15.000Z</time>
      </trkpt>
      <trkpt lat="45.85054" lon="4.77784">
        <ele>578.1</ele>
        <time>2020-06-07T08:47:16.000Z</time>
      </trkpt>
      <trkpt lat="45.85055" lon="4.77785">
        <ele>578</ele>
        <time>2020-06-07T08:47:17.000Z</time>
      </trkpt>
      <trkpt lat="45.85056" lon="4.77785">
        <ele>577.8</ele>
        <time>2020-06-07T08:47:18.000Z</time>
      </trkpt>
      <trkpt lat="45.85057" lon="4.77786">
        <ele>577.7</ele>
        <time>2020-06-07T08:47:19.000Z</time>
      </trkpt>
      <trkpt lat="45.85057" lon="4.77789">
        <ele>577.5</ele>
        <time>2020-06-07T08:47:20.000Z</time>
      </trkpt>
      <trkpt lat="45.85058" lon="4.77791">
        <ele>577.3</ele>
        <time>2020-06-07T08:47:21.000Z</time>
      </trkpt>
      <trkpt lat="45.85058" lon="4.77793">
        <ele>577.2</ele>
        <time>2020-06-07T08:47:22.000Z</time>
      </trkpt>
      <trkpt lat="45.85059" lon="4.77795">
        <ele>577.1</ele>
        <time>2020-06-07T08:47:23.000Z</time>
      </trkpt>
      <trkpt lat="45.85059" lon="4.77797">
        <ele>577</ele>
        <time>2020-06-07T08:47:24.000Z</time>
      </trkpt>
      <trkpt lat="45.85059" lon="4.77799">
        <ele>576.9</ele>
        <time>2020-06-07T08:47:25.000Z</time>
      </trkpt>
      <trkpt lat="45.85059" lon="4.778">
        <ele>576.8</ele>
        <time>2020-06-07T08:47:26.000Z</time>
      </trkpt>
      <trkpt lat="45.85059" lon="4.77802">
        <ele>576.7</ele>
        <time>2020-06-07T08:47:27.000Z</time>
      </trkpt>
      <trkpt lat="45.85059" lon="4.77804">
        <ele>576.6</ele>
        <time>2020-06-07T08:47:28.000Z</time>
      </trkpt>
      <trkpt lat="45.85059" lon="4.77806">
        <ele>576.5</ele>
        <time>2020-06-07T08:47:29.000Z</time>
      </trkpt>
      <trkpt lat="45.8506" lon="4.77807">
        <ele>576.4</ele>
        <time>2020-06-07T08:47:30.000Z</time>
      </trkpt>
      <trkpt lat="45.8506" lon="4.77809">
        <ele>576.4</ele>
        <time>2020-06-07T08:47:31.000Z</time>
      </trkpt>
      <trkpt lat="45.85059" lon="4.77812">
        <ele>576.3</ele>
        <time>2020-06-07T08:47:32.000Z</time>
      </trkpt>
      <trkpt lat="45.85061" lon="4.77814">
        <ele>576.1</ele>
        <time>2020-06-07T08:47:33.000Z</time>
      </trkpt>
      <trkpt lat="45.85062" lon="4.77816">
        <ele>576.1</ele>
        <time>2020-06-07T08:47:34.000Z</time>
      </trkpt>
      <trkpt lat="45.85062" lon="4.77818">
        <ele>576</ele>
        <time>2020-06-07T08:47:35.000Z</time>
      </trkpt>
      <trkpt lat="45.85062" lon="4.77822">
        <ele>575.9</ele>
        <time>2020-06-07T08:47:36.000Z</time>
      </trkpt>
      <trkpt lat="45.85063" lon="4.77826">
        <ele>575.6</ele>
        <time>2020-06-07T08:47:37.000Z</time>
      </trkpt>
      <trkpt lat="45.85063" lon="4.77831">
        <ele>575.3</ele>
        <time>2020-06-07T08:47:38.000Z</time>
      </trkpt>
      <trkpt lat="45.85064" lon="4.77836">
        <ele>574.9</ele>
        <time>2020-06-07T08:47:39.000Z</time>
      </trkpt>
      <trkpt lat="45.85065" lon="4.77839">
        <ele>574.6</ele>
        <time>2020-06-07T08:47:40.000Z</time>
      </trkpt>
      <trkpt lat="45.85071" lon="4.77842">
        <ele>573.7</ele>
        <time>2020-06-07T08:47:41.000Z</time>
      </trkpt>
      <trkpt lat="45.85073" lon="4.77843">
        <ele>573.5</ele>
        <time>2020-06-07T08:47:42.000Z</time>
      </trkpt>
      <trkpt lat="45.85083" lon="4.77863">
        <ele>572.5</ele>
        <time>2020-06-07T08:50:53.000Z</time>
      </trkpt>
      <trkpt lat="45.85084" lon="4.77865">
        <ele>572.5</ele>
        <time>2020-06-07T08:50:54.000Z</time>
      </trkpt>
      <trkpt lat="45.85086" lon="4.77867">
        <ele>572.4</ele>
        <time>2020-06-07T08:50:55.000Z</time>
      </trkpt>
      <trkpt lat="45.85087" lon="4.77869">
        <ele>572.4</ele>
        <time>2020-06-07T08:50:56.000Z</time>
      </trkpt>
      <trkpt lat="45.85088" lon="4.77872">
        <ele>572.3</ele>
        <time>2020-06-07T08:50:57.000Z</time>
      </trkpt>
      <trkpt lat="45.85089" lon="4.77874">
        <ele>572.3</ele>
        <time>2020-06-07T08:50:58.000Z</time>
      </trkpt>
      <trkpt lat="45.8509" lon="4.77877">
        <ele>572.2</ele>
        <time>2020-06-07T08:50:59.000Z</time>
      </trkpt>
      <trkpt lat="45.85091" lon="4.7788">
        <ele>572.2</ele>
        <time>2020-06-07T08:51:00.000Z</time>
      </trkpt>
      <trkpt lat="45.85093" lon="4.77882">
        <ele>571.9</ele>
        <time>2020-06-07T08:51:01.000Z</time>
      </trkpt>
      <trkpt lat="45.85094" lon="4.77885">
        <ele>571.9</ele>
        <time>2020-06-07T08:51:02.000Z</time>
      </trkpt>
      <trkpt lat="45.85095" lon="4.77887">
        <ele>571.9</ele>
        <time>2020-06-07T08:51:03.000Z</time>
      </trkpt>
      <trkpt lat="45.85097" lon="4.7789">
        <ele>571.8</ele>
        <time>2020-06-07T08:51:04.000Z</time>
      </trkpt>
      <trkpt lat="45.85099" lon="4.77893">
        <ele>571.7</ele>
        <time>2020-06-07T08:51:05.000Z</time>
      </trkpt>
      <trkpt lat="45.851" lon="4.77896">
        <ele>571.7</ele>
        <time>2020-06-07T08:51:06.000Z</time>
      </trkpt>
      <trkpt lat="45.85102" lon="4.77899">
        <ele>571.5</ele>
        <time>2020-06-07T08:51:07.000Z</time>
      </trkpt>
      <trkpt lat="45.85104" lon="4.77902">
        <ele>571.4</ele>
        <time>2020-06-07T08:51:08.000Z</time>
      </trkpt>
      <trkpt lat="45.85105" lon="4.77905">
        <ele>571.3</ele>
        <time>2020-06-07T08:51:09.000Z</time>
      </trkpt>
      <trkpt lat="45.85106" lon="4.77908">
        <ele>571.2</ele>
        <time>2020-06-07T08:51:10.000Z</time>
      </trkpt>
      <trkpt lat="45.85108" lon="4.7791">
        <ele>571</ele>
        <time>2020-06-07T08:51:11.000Z</time>
      </trkpt>
      <trkpt lat="45.85109" lon="4.77913">
        <ele>570.8</ele>
        <time>2020-06-07T08:51:12.000Z</time>
      </trkpt>
      <trkpt lat="45.85111" lon="4.77916">
        <ele>570.5</ele>
        <time>2020-06-07T08:51:13.000Z</time>
      </trkpt>
      <trkpt lat="45.85113" lon="4.77919">
        <ele>570.3</ele>
        <time>2020-06-07T08:51:14.000Z</time>
      </trkpt>
      <trkpt lat="45.85115" lon="4.77921">
        <ele>570</ele>
        <time>2020-06-07T08:51:15.000Z</time>
      </trkpt>
      <trkpt lat="45.85117" lon="4.77924">
        <ele>569.7</ele>
        <time>2020-06-07T08:51:16.000Z</time>
      </trkpt>
      <trkpt lat="45.85118" lon="4.77926">
        <ele>569.4</ele>
        <time>2020-06-07T08:51:17.000Z</time>
      </trkpt>
      <trkpt lat="45.85119" lon="4.7793">
        <ele>569.1</ele>
        <time>2020-06-07T08:51:18.000Z</time>
      </trkpt>
      <trkpt lat="45.8512" lon="4.77934">
        <ele>568.8</ele>
        <time>2020-06-07T08:51:19.000Z</time>
      </trkpt>
      <trkpt lat="45.8512" lon="4.77939">
        <ele>568.4</ele>
        <time>2020-06-07T08:51:20.000Z</time>
      </trkpt>
      <trkpt lat="45.85121" lon="4.77944">
        <ele>568.1</ele>
        <time>2020-06-07T08:51:21.000Z</time>
      </trkpt>
      <trkpt lat="45.85121" lon="4.77949">
        <ele>567.8</ele>
        <time>2020-06-07T08:51:22.000Z</time>
      </trkpt>
      <trkpt lat="45.85121" lon="4.77953">
        <ele>567.6</ele>
        <time>2020-06-07T08:51:23.000Z</time>
      </trkpt>
      <trkpt lat="45.85122" lon="4.77958">
        <ele>567.4</ele>
        <time>2020-06-07T08:51:24.000Z</time>
      </trkpt>
      <trkpt lat="45.85122" lon="4.77964">
        <ele>567.1</ele>
        <time>2020-06-07T08:51:25.000Z</time>
      </trkpt>
      <trkpt lat="45.85122" lon="4.7797">
        <ele>566.9</ele>
        <time>2020-06-07T08:51:26.000Z</time>
      </trkpt>
      <trkpt lat="45.85123" lon="4.77976">
        <ele>566.7</ele>
        <time>2020-06-07T08:51:27.000Z</time>
      </trkpt>
      <trkpt lat="45.85124" lon="4.77982">
        <ele>566.5</ele>
        <time>2020-06-07T08:51:28.000Z</time>
      </trkpt>
      <trkpt lat="45.85126" lon="4.77988">
        <ele>566.3</ele>
        <time>2020-06-07T08:51:29.000Z</time>
      </trkpt>
      <trkpt lat="45.85127" lon="4.77994">
        <ele>566.1</ele>
        <time>2020-06-07T08:51:30.000Z</time>
      </trkpt>
      <trkpt lat="45.85127" lon="4.78">
        <ele>566</ele>
        <time>2020-06-07T08:51:31.000Z</time>
      </trkpt>
      <trkpt lat="45.85128" lon="4.78005">
        <ele>565.8</ele>
        <time>2020-06-07T08:51:32.000Z</time>
      </trkpt>
      <trkpt lat="45.85128" lon="4.7801">
        <ele>565.7</ele>
        <time>2020-06-07T08:51:33.000Z</time>
      </trkpt>
      <trkpt lat="45.85128" lon="4.78015">
        <ele>565.6</ele>
        <time>2020-06-07T08:51:34.000Z</time>
      </trkpt>
      <trkpt lat="45.85129" lon="4.78019">
        <ele>565.5</ele>
        <time>2020-06-07T08:51:35.000Z</time>
      </trkpt>
      <trkpt lat="45.8513" lon="4.78024">
        <ele>565.4</ele>
        <time>2020-06-07T08:51:36.000Z</time>
      </trkpt>
      <trkpt lat="45.85131" lon="4.78031">
        <ele>565.3</ele>
        <time>2020-06-07T08:51:37.000Z</time>
      </trkpt>
      <trkpt lat="45.85132" lon="4.78036">
        <ele>565.1</ele>
        <time>2020-06-07T08:51:38.000Z</time>
      </trkpt>
      <trkpt lat="45.85134" lon="4.78041">
        <ele>564.8</ele>
        <time>2020-06-07T08:51:39.000Z</time>
      </trkpt>
      <trkpt lat="45.85136" lon="4.78046">
        <ele>564.6</ele>
        <time>2020-06-07T08:51:40.000Z</time>
      </trkpt>
      <trkpt lat="45.85137" lon="4.78051">
        <ele>564.4</ele>
        <time>2020-06-07T08:51:41.000Z</time>
      </trkpt>
      <trkpt lat="45.85141" lon="4.78055">
        <ele>564</ele>
        <time>2020-06-07T08:51:42.000Z</time>
      </trkpt>
      <trkpt lat="45.85143" lon="4.78062">
        <ele>563.5</ele>
        <time>2020-06-07T08:51:43.000Z</time>
      </trkpt>
      <trkpt lat="45.85145" lon="4.78067">
        <ele>563.2</ele>
        <time>2020-06-07T08:51:44.000Z</time>
      </trkpt>
      <trkpt lat="45.85147" lon="4.78072">
        <ele>562.8</ele>
        <time>2020-06-07T08:51:45.000Z</time>
      </trkpt>
      <trkpt lat="45.85151" lon="4.78078">
        <ele>562.3</ele>
        <time>2020-06-07T08:51:46.000Z</time>
      </trkpt>
      <trkpt lat="45.85155" lon="4.78083">
        <ele>561.9</ele>
        <time>2020-06-07T08:51:47.000Z</time>
      </trkpt>
      <trkpt lat="45.85157" lon="4.78088">
        <ele>561.6</ele>
        <time>2020-06-07T08:51:48.000Z</time>
      </trkpt>
      <trkpt lat="45.85164" lon="4.78094">
        <ele>561.1</ele>
        <time>2020-06-07T08:51:49.000Z</time>
      </trkpt>
      <trkpt lat="45.8517" lon="4.781">
        <ele>560.8</ele>
        <time>2020-06-07T08:51:50.000Z</time>
      </trkpt>
      <trkpt lat="45.85173" lon="4.78108">
        <ele>560.5</ele>
        <time>2020-06-07T08:51:51.000Z</time>
      </trkpt>
      <trkpt lat="45.85175" lon="4.78114">
        <ele>560.3</ele>
        <time>2020-06-07T08:51:52.000Z</time>
      </trkpt>
      <trkpt lat="45.85177" lon="4.78119">
        <ele>560.1</ele>
        <time>2020-06-07T08:51:53.000Z</time>
      </trkpt>
      <trkpt lat="45.85182" lon="4.78124">
        <ele>559.9</ele>
        <time>2020-06-07T08:51:54.000Z</time>
      </trkpt>
      <trkpt lat="45.85185" lon="4.78129">
        <ele>559.7</ele>
        <time>2020-06-07T08:51:55.000Z</time>
      </trkpt>
      <trkpt lat="45.85188" lon="4.78133">
        <ele>559.5</ele>
        <time>2020-06-07T08:51:56.000Z</time>
      </trkpt>
      <trkpt lat="45.8519" lon="4.78138">
        <ele>559.3</ele>
        <time>2020-06-07T08:51:57.000Z</time>
      </trkpt>
      <trkpt lat="45.85192" lon="4.78143">
        <ele>559.1</ele>
        <time>2020-06-07T08:51:58.000Z</time>
      </trkpt>
      <trkpt lat="45.85196" lon="4.78148">
        <ele>558.9</ele>
        <time>2020-06-07T08:51:59.000Z</time>
      </trkpt>
      <trkpt lat="45.85199" lon="4.78153">
        <ele>558.7</ele>
        <time>2020-06-07T08:52:00.000Z</time>
      </trkpt>
      <trkpt lat="45.852" lon="4.78158">
        <ele>558.5</ele>
        <time>2020-06-07T08:52:01.000Z</time>
      </trkpt>
      <trkpt lat="45.85204" lon="4.78162">
        <ele>558.3</ele>
        <time>2020-06-07T08:52:02.000Z</time>
      </trkpt>
      <trkpt lat="45.85205" lon="4.78167">
        <ele>558.2</ele>
        <time>2020-06-07T08:52:03.000Z</time>
      </trkpt>
      <trkpt lat="45.85205" lon="4.78174">
        <ele>558</ele>
        <time>2020-06-07T08:52:04.000Z</time>
      </trkpt>
      <trkpt lat="45.85208" lon="4.7818">
        <ele>557.8</ele>
        <time>2020-06-07T08:52:05.000Z</time>
      </trkpt>
      <trkpt lat="45.85212" lon="4.78185">
        <ele>557.7</ele>
        <time>2020-06-07T08:52:06.000Z</time>
      </trkpt>
      <trkpt lat="45.85214" lon="4.7819">
        <ele>557.5</ele>
        <time>2020-06-07T08:52:07.000Z</time>
      </trkpt>
      <trkpt lat="45.85218" lon="4.78196">
        <ele>557.4</ele>
        <time>2020-06-07T08:52:08.000Z</time>
      </trkpt>
      <trkpt lat="45.85219" lon="4.78202">
        <ele>557.3</ele>
        <time>2020-06-07T08:52:09.000Z</time>
      </trkpt>
      <trkpt lat="45.85221" lon="4.78205">
        <ele>557.2</ele>
        <time>2020-06-07T08:52:10.000Z</time>
      </trkpt>
      <trkpt lat="45.85227" lon="4.7821">
        <ele>557.2</ele>
        <time>2020-06-07T08:52:11.000Z</time>
      </trkpt>
      <trkpt lat="45.85233" lon="4.78213">
        <ele>557.2</ele>
        <time>2020-06-07T08:52:12.000Z</time>
      </trkpt>
      <trkpt lat="45.85237" lon="4.78216">
        <ele>557.2</ele>
        <time>2020-06-07T08:52:13.000Z</time>
      </trkpt>
      <trkpt lat="45.8524" lon="4.7822">
        <ele>557.2</ele>
        <time>2020-06-07T08:52:14.000Z</time>
      </trkpt>
      <trkpt lat="45.85246" lon="4.78224">
        <ele>557.3</ele>
        <time>2020-06-07T08:52:15.000Z</time>
      </trkpt>
      <trkpt lat="45.85251" lon="4.78229">
        <ele>557.3</ele>
        <time>2020-06-07T08:52:16.000Z</time>
      </trkpt>
      <trkpt lat="45.85256" lon="4.78233">
        <ele>557.3</ele>
        <time>2020-06-07T08:52:17.000Z</time>
      </trkpt>
      <trkpt lat="45.8526" lon="4.78238">
        <ele>557.2</ele>
        <time>2020-06-07T08:52:18.000Z</time>
      </trkpt>
      <trkpt lat="45.85262" lon="4.78242">
        <ele>557.1</ele>
        <time>2020-06-07T08:52:19.000Z</time>
      </trkpt>
      <trkpt lat="45.85265" lon="4.78247">
        <ele>557</ele>
        <time>2020-06-07T08:52:20.000Z</time>
      </trkpt>
      <trkpt lat="45.85269" lon="4.78253">
        <ele>556.7</ele>
        <time>2020-06-07T08:52:21.000Z</time>
      </trkpt>
      <trkpt lat="45.85272" lon="4.78259">
        <ele>556.5</ele>
        <time>2020-06-07T08:52:22.000Z</time>
      </trkpt>
      <trkpt lat="45.85276" lon="4.78265">
        <ele>556.2</ele>
        <time>2020-06-07T08:52:23.000Z</time>
      </trkpt>
      <trkpt lat="45.85279" lon="4.78271">
        <ele>556</ele>
        <time>2020-06-07T08:52:24.000Z</time>
      </trkpt>
      <trkpt lat="45.85283" lon="4.78277">
        <ele>555.8</ele>
        <time>2020-06-07T08:52:25.000Z</time>
      </trkpt>
      <trkpt lat="45.85286" lon="4.78285">
        <ele>555.7</ele>
        <time>2020-06-07T08:52:26.000Z</time>
      </trkpt>
      <trkpt lat="45.85288" lon="4.78292">
        <ele>555.5</ele>
        <time>2020-06-07T08:52:27.000Z</time>
      </trkpt>
      <trkpt lat="45.85291" lon="4.78299">
        <ele>555.4</ele>
        <time>2020-06-07T08:52:28.000Z</time>
      </trkpt>
      <trkpt lat="45.85297" lon="4.78304">
        <ele>555.3</ele>
        <time>2020-06-07T08:52:29.000Z</time>
      </trkpt>
      <trkpt lat="45.85301" lon="4.7831">
        <ele>555.2</ele>
        <time>2020-06-07T08:52:30.000Z</time>
      </trkpt>
      <trkpt lat="45.85304" lon="4.78317">
        <ele>555.1</ele>
        <time>2020-06-07T08:52:31.000Z</time>
      </trkpt>
      <trkpt lat="45.85311" lon="4.78321">
        <ele>555</ele>
        <time>2020-06-07T08:52:32.000Z</time>
      </trkpt>
      <trkpt lat="45.85324" lon="4.78325">
        <ele>554.7</ele>
        <time>2020-06-07T08:52:33.000Z</time>
      </trkpt>
      <trkpt lat="45.85332" lon="4.7833">
        <ele>554.5</ele>
        <time>2020-06-07T08:52:34.000Z</time>
      </trkpt>
      <trkpt lat="45.85339" lon="4.78335">
        <ele>554.3</ele>
        <time>2020-06-07T08:52:35.000Z</time>
      </trkpt>
      <trkpt lat="45.85344" lon="4.78341">
        <ele>554</ele>
        <time>2020-06-07T08:52:36.000Z</time>
      </trkpt>
      <trkpt lat="45.85348" lon="4.78346">
        <ele>553.8</ele>
        <time>2020-06-07T08:52:37.000Z</time>
      </trkpt>
      <trkpt lat="45.85353" lon="4.78353">
        <ele>553.6</ele>
        <time>2020-06-07T08:52:38.000Z</time>
      </trkpt>
      <trkpt lat="45.85356" lon="4.78359">
        <ele>553.6</ele>
        <time>2020-06-07T08:52:39.000Z</time>
      </trkpt>
      <trkpt lat="45.85358" lon="4.78365">
        <ele>553.6</ele>
        <time>2020-06-07T08:52:40.000Z</time>
      </trkpt>
      <trkpt lat="45.85361" lon="4.78371">
        <ele>553.5</ele>
        <time>2020-06-07T08:52:41.000Z</time>
      </trkpt>
      <trkpt lat="45.85365" lon="4.78376">
        <ele>553.5</ele>
        <time>2020-06-07T08:52:42.000Z</time>
      </trkpt>
      <trkpt lat="45.85367" lon="4.78382">
        <ele>553.4</ele>
        <time>2020-06-07T08:52:43.000Z</time>
      </trkpt>
      <trkpt lat="45.8537" lon="4.78388">
        <ele>553.3</ele>
        <time>2020-06-07T08:52:44.000Z</time>
      </trkpt>
      <trkpt lat="45.85372" lon="4.78394">
        <ele>553.2</ele>
        <time>2020-06-07T08:52:45.000Z</time>
      </trkpt>
      <trkpt lat="45.85375" lon="4.78399">
        <ele>553.1</ele>
        <time>2020-06-07T08:52:46.000Z</time>
      </trkpt>
      <trkpt lat="45.85378" lon="4.78405">
        <ele>553</ele>
        <time>2020-06-07T08:52:47.000Z</time>
      </trkpt>
      <trkpt lat="45.85381" lon="4.7841">
        <ele>552.9</ele>
        <time>2020-06-07T08:52:48.000Z</time>
      </trkpt>
      <trkpt lat="45.85385" lon="4.78415">
        <ele>552.7</ele>
        <time>2020-06-07T08:52:49.000Z</time>
      </trkpt>
      <trkpt lat="45.85389" lon="4.78419">
        <ele>552.6</ele>
        <time>2020-06-07T08:52:50.000Z</time>
      </trkpt>
      <trkpt lat="45.85393" lon="4.78424">
        <ele>552.5</ele>
        <time>2020-06-07T08:52:51.000Z</time>
      </trkpt>
      <trkpt lat="45.85397" lon="4.78429">
        <ele>552.4</ele>
        <time>2020-06-07T08:52:52.000Z</time>
      </trkpt>
      <trkpt lat="45.85401" lon="4.78434">
        <ele>552.2</ele>
        <time>2020-06-07T08:52:53.000Z</time>
      </trkpt>
      <trkpt lat="45.85406" lon="4.78439">
        <ele>552.1</ele>
        <time>2020-06-07T08:52:54.000Z</time>
      </trkpt>
      <trkpt lat="45.85411" lon="4.78445">
        <ele>551.9</ele>
        <time>2020-06-07T08:52:55.000Z</time>
      </trkpt>
      <trkpt lat="45.85416" lon="4.7845">
        <ele>551.6</ele>
        <time>2020-06-07T08:52:56.000Z</time>
      </trkpt>
      <trkpt lat="45.85421" lon="4.78455">
        <ele>551.4</ele>
        <time>2020-06-07T08:52:57.000Z</time>
      </trkpt>
      <trkpt lat="45.85426" lon="4.78461">
        <ele>551.1</ele>
        <time>2020-06-07T08:52:58.000Z</time>
      </trkpt>
      <trkpt lat="45.85432" lon="4.78468">
        <ele>550.8</ele>
        <time>2020-06-07T08:52:59.000Z</time>
      </trkpt>
      <trkpt lat="45.85437" lon="4.78474">
        <ele>550.5</ele>
        <time>2020-06-07T08:53:00.000Z</time>
      </trkpt>
      <trkpt lat="45.85442" lon="4.78481">
        <ele>550.2</ele>
        <time>2020-06-07T08:53:01.000Z</time>
      </trkpt>
      <trkpt lat="45.85448" lon="4.78488">
        <ele>550</ele>
        <time>2020-06-07T08:53:02.000Z</time>
      </trkpt>
      <trkpt lat="45.85453" lon="4.78495">
        <ele>549.7</ele>
        <time>2020-06-07T08:53:03.000Z</time>
      </trkpt>
      <trkpt lat="45.85458" lon="4.78501">
        <ele>549.5</ele>
        <time>2020-06-07T08:53:04.000Z</time>
      </trkpt>
      <trkpt lat="45.85463" lon="4.78508">
        <ele>549.3</ele>
        <time>2020-06-07T08:53:05.000Z</time>
      </trkpt>
      <trkpt lat="45.85469" lon="4.78515">
        <ele>549</ele>
        <time>2020-06-07T08:53:06.000Z</time>
      </trkpt>
      <trkpt lat="45.85474" lon="4.78521">
        <ele>548.3</ele>
        <time>2020-06-07T08:53:07.000Z</time>
      </trkpt>
      <trkpt lat="45.8548" lon="4.78527">
        <ele>547.8</ele>
        <time>2020-06-07T08:53:08.000Z</time>
      </trkpt>
      <trkpt lat="45.85485" lon="4.78533">
        <ele>547.4</ele>
        <time>2020-06-07T08:53:09.000Z</time>
      </trkpt>
      <trkpt lat="45.85491" lon="4.78539">
        <ele>547</ele>
        <time>2020-06-07T08:53:10.000Z</time>
      </trkpt>
      <trkpt lat="45.85497" lon="4.78545">
        <ele>546.6</ele>
        <time>2020-06-07T08:53:11.000Z</time>
      </trkpt>
      <trkpt lat="45.85503" lon="4.78551">
        <ele>546.1</ele>
        <time>2020-06-07T08:53:12.000Z</time>
      </trkpt>
      <trkpt lat="45.85508" lon="4.78557">
        <ele>545.7</ele>
        <time>2020-06-07T08:53:13.000Z</time>
      </trkpt>
      <trkpt lat="45.85514" lon="4.78562">
        <ele>545.2</ele>
        <time>2020-06-07T08:53:14.000Z</time>
      </trkpt>
      <trkpt lat="45.8552" lon="4.78568">
        <ele>544.9</ele>
        <time>2020-06-07T08:53:15.000Z</time>
      </trkpt>
      <trkpt lat="45.85525" lon="4.78573">
        <ele>544.6</ele>
        <time>2020-06-07T08:53:16.000Z</time>
      </trkpt>
      <trkpt lat="45.85531" lon="4.78579">
        <ele>544.4</ele>
        <time>2020-06-07T08:53:17.000Z</time>
      </trkpt>
      <trkpt lat="45.85536" lon="4.78584">
        <ele>544.3</ele>
        <time>2020-06-07T08:53:18.000Z</time>
      </trkpt>
      <trkpt lat="45.85542" lon="4.78587">
        <ele>544.3</ele>
        <time>2020-06-07T08:53:19.000Z</time>
      </trkpt>
      <trkpt lat="45.85549" lon="4.78589">
        <ele>544.3</ele>
        <time>2020-06-07T08:53:20.000Z</time>
      </trkpt>
      <trkpt lat="45.85555" lon="4.78591">
        <ele>544.2</ele>
        <time>2020-06-07T08:53:21.000Z</time>
      </trkpt>
      <trkpt lat="45.8556" lon="4.78592">
        <ele>544.1</ele>
        <time>2020-06-07T08:53:22.000Z</time>
      </trkpt>
      <trkpt lat="45.85566" lon="4.78595">
        <ele>544.1</ele>
        <time>2020-06-07T08:53:23.000Z</time>
      </trkpt>
      <trkpt lat="45.85571" lon="4.78598">
        <ele>544</ele>
        <time>2020-06-07T08:53:24.000Z</time>
      </trkpt>
      <trkpt lat="45.85576" lon="4.78601">
        <ele>543.9</ele>
        <time>2020-06-07T08:53:25.000Z</time>
      </trkpt>
      <trkpt lat="45.85581" lon="4.78605">
        <ele>543.8</ele>
        <time>2020-06-07T08:53:26.000Z</time>
      </trkpt>
      <trkpt lat="45.85587" lon="4.78609">
        <ele>543.7</ele>
        <time>2020-06-07T08:53:27.000Z</time>
      </trkpt>
      <trkpt lat="45.85591" lon="4.78613">
        <ele>543.6</ele>
        <time>2020-06-07T08:53:28.000Z</time>
      </trkpt>
      <trkpt lat="45.85596" lon="4.78616">
        <ele>543.6</ele>
        <time>2020-06-07T08:53:29.000Z</time>
      </trkpt>
      <trkpt lat="45.85601" lon="4.78619">
        <ele>543.6</ele>
        <time>2020-06-07T08:53:30.000Z</time>
      </trkpt>
      <trkpt lat="45.85606" lon="4.78621">
        <ele>543.6</ele>
        <time>2020-06-07T08:53:31.000Z</time>
      </trkpt>
      <trkpt lat="45.8561" lon="4.78624">
        <ele>543.6</ele>
        <time>2020-06-07T08:53:32.000Z</time>
      </trkpt>
      <trkpt lat="45.85614" lon="4.78626">
        <ele>543.5</ele>
        <time>2020-06-07T08:53:33.000Z</time>
      </trkpt>
      <trkpt lat="45.85618" lon="4.78628">
        <ele>543.5</ele>
        <time>2020-06-07T08:53:34.000Z</time>
      </trkpt>
      <trkpt lat="45.85621" lon="4.7863">
        <ele>543.5</ele>
        <time>2020-06-07T08:53:35.000Z</time>
      </trkpt>
      <trkpt lat="45.85624" lon="4.78633">
        <ele>543.5</ele>
        <time>2020-06-07T08:53:36.000Z</time>
      </trkpt>
      <trkpt lat="45.85627" lon="4.78635">
        <ele>543.4</ele>
        <time>2020-06-07T08:53:37.000Z</time>
      </trkpt>
      <trkpt lat="45.8563" lon="4.78638">
        <ele>543.4</ele>
        <time>2020-06-07T08:53:38.000Z</time>
      </trkpt>
      <trkpt lat="45.85634" lon="4.7864">
        <ele>543.3</ele>
        <time>2020-06-07T08:53:39.000Z</time>
      </trkpt>
      <trkpt lat="45.85638" lon="4.78643">
        <ele>543.2</ele>
        <time>2020-06-07T08:53:40.000Z</time>
      </trkpt>
      <trkpt lat="45.85643" lon="4.78645">
        <ele>543.2</ele>
        <time>2020-06-07T08:53:41.000Z</time>
      </trkpt>
      <trkpt lat="45.85648" lon="4.78647">
        <ele>543.1</ele>
        <time>2020-06-07T08:53:42.000Z</time>
      </trkpt>
      <trkpt lat="45.85652" lon="4.7865">
        <ele>543.1</ele>
        <time>2020-06-07T08:53:43.000Z</time>
      </trkpt>
      <trkpt lat="45.85657" lon="4.78653">
        <ele>543.1</ele>
        <time>2020-06-07T08:53:44.000Z</time>
      </trkpt>
      <trkpt lat="45.85662" lon="4.78657">
        <ele>543</ele>
        <time>2020-06-07T08:53:45.000Z</time>
      </trkpt>
      <trkpt lat="45.85667" lon="4.78661">
        <ele>542.9</ele>
        <time>2020-06-07T08:53:46.000Z</time>
      </trkpt>
      <trkpt lat="45.85671" lon="4.78666">
        <ele>542.8</ele>
        <time>2020-06-07T08:53:47.000Z</time>
      </trkpt>
      <trkpt lat="45.85676" lon="4.78671">
        <ele>542.6</ele>
        <time>2020-06-07T08:53:48.000Z</time>
      </trkpt>
      <trkpt lat="45.85681" lon="4.78676">
        <ele>542.4</ele>
        <time>2020-06-07T08:53:49.000Z</time>
      </trkpt>
      <trkpt lat="45.85686" lon="4.7868">
        <ele>542.2</ele>
        <time>2020-06-07T08:53:50.000Z</time>
      </trkpt>
      <trkpt lat="45.85691" lon="4.78685">
        <ele>542</ele>
        <time>2020-06-07T08:53:51.000Z</time>
      </trkpt>
      <trkpt lat="45.85696" lon="4.7869">
        <ele>541.7</ele>
        <time>2020-06-07T08:53:52.000Z</time>
      </trkpt>
      <trkpt lat="45.85701" lon="4.78695">
        <ele>541.5</ele>
        <time>2020-06-07T08:53:53.000Z</time>
      </trkpt>
      <trkpt lat="45.85706" lon="4.78699">
        <ele>541.1</ele>
        <time>2020-06-07T08:53:54.000Z</time>
      </trkpt>
      <trkpt lat="45.85712" lon="4.78703">
        <ele>540.8</ele>
        <time>2020-06-07T08:53:55.000Z</time>
      </trkpt>
      <trkpt lat="45.85718" lon="4.78708">
        <ele>540.5</ele>
        <time>2020-06-07T08:53:56.000Z</time>
      </trkpt>
      <trkpt lat="45.85722" lon="4.78714">
        <ele>540.2</ele>
        <time>2020-06-07T08:53:57.000Z</time>
      </trkpt>
      <trkpt lat="45.85725" lon="4.78718">
        <ele>540</ele>
        <time>2020-06-07T08:53:58.000Z</time>
      </trkpt>
      <trkpt lat="45.85726" lon="4.78721">
        <ele>539.8</ele>
        <time>2020-06-07T08:53:59.000Z</time>
      </trkpt>
      <trkpt lat="45.85727" lon="4.78723">
        <ele>539.7</ele>
        <time>2020-06-07T08:54:00.000Z</time>
      </trkpt>
      <trkpt lat="45.85728" lon="4.78724">
        <ele>539.6</ele>
        <time>2020-06-07T08:54:01.000Z</time>
      </trkpt>
      <trkpt lat="45.85729" lon="4.78726">
        <ele>539.5</ele>
        <time>2020-06-07T08:54:02.000Z</time>
      </trkpt>
      <trkpt lat="45.8573" lon="4.78729">
        <ele>539.4</ele>
        <time>2020-06-07T08:54:03.000Z</time>
      </trkpt>
      <trkpt lat="45.85731" lon="4.78731">
        <ele>539</ele>
        <time>2020-06-07T08:54:04.000Z</time>
      </trkpt>
      <trkpt lat="45.85731" lon="4.78735">
        <ele>538.9</ele>
        <time>2020-06-07T08:54:05.000Z</time>
      </trkpt>
      <trkpt lat="45.85734" lon="4.78737">
        <ele>538.7</ele>
        <time>2020-06-07T08:54:06.000Z</time>
      </trkpt>
      <trkpt lat="45.85737" lon="4.78739">
        <ele>538.5</ele>
        <time>2020-06-07T08:54:07.000Z</time>
      </trkpt>
      <trkpt lat="45.85739" lon="4.78742">
        <ele>538.3</ele>
        <time>2020-06-07T08:54:08.000Z</time>
      </trkpt>
      <trkpt lat="45.8574" lon="4.78744">
        <ele>538.1</ele>
        <time>2020-06-07T08:54:09.000Z</time>
      </trkpt>
      <trkpt lat="45.85742" lon="4.78748">
        <ele>537.8</ele>
        <time>2020-06-07T08:54:10.000Z</time>
      </trkpt>
      <trkpt lat="45.85743" lon="4.78752">
        <ele>537.6</ele>
        <time>2020-06-07T08:54:11.000Z</time>
      </trkpt>
      <trkpt lat="45.85744" lon="4.78756">
        <ele>537.3</ele>
        <time>2020-06-07T08:54:12.000Z</time>
      </trkpt>
      <trkpt lat="45.85747" lon="4.78757">
        <ele>537.1</ele>
        <time>2020-06-07T08:54:13.000Z</time>
      </trkpt>
      <trkpt lat="45.8575" lon="4.78758">
        <ele>536.8</ele>
        <time>2020-06-07T08:54:14.000Z</time>
      </trkpt>
      <trkpt lat="45.85753" lon="4.7876">
        <ele>536.5</ele>
        <time>2020-06-07T08:54:15.000Z</time>
      </trkpt>
      <trkpt lat="45.85756" lon="4.78761">
        <ele>536.2</ele>
        <time>2020-06-07T08:54:16.000Z</time>
      </trkpt>
      <trkpt lat="45.8576" lon="4.78763">
        <ele>535.9</ele>
        <time>2020-06-07T08:54:17.000Z</time>
      </trkpt>
      <trkpt lat="45.85764" lon="4.78766">
        <ele>535.5</ele>
        <time>2020-06-07T08:54:18.000Z</time>
      </trkpt>
      <trkpt lat="45.85768" lon="4.7877">
        <ele>535.1</ele>
        <time>2020-06-07T08:54:19.000Z</time>
      </trkpt>
      <trkpt lat="45.85777" lon="4.78774">
        <ele>534.6</ele>
        <time>2020-06-07T08:54:20.000Z</time>
      </trkpt>
      <trkpt lat="45.85784" lon="4.78778">
        <ele>534.2</ele>
        <time>2020-06-07T08:54:21.000Z</time>
      </trkpt>
      <trkpt lat="45.85792" lon="4.78782">
        <ele>533.8</ele>
        <time>2020-06-07T08:54:22.000Z</time>
      </trkpt>
      <trkpt lat="45.85799" lon="4.78785">
        <ele>533.5</ele>
        <time>2020-06-07T08:54:23.000Z</time>
      </trkpt>
      <trkpt lat="45.85805" lon="4.78787">
        <ele>533.4</ele>
        <time>2020-06-07T08:54:24.000Z</time>
      </trkpt>
      <trkpt lat="45.8581" lon="4.78789">
        <ele>533.2</ele>
        <time>2020-06-07T08:54:25.000Z</time>
      </trkpt>
      <trkpt lat="45.85813" lon="4.78791">
        <ele>533.1</ele>
        <time>2020-06-07T08:54:26.000Z</time>
      </trkpt>
      <trkpt lat="45.85818" lon="4.78794">
        <ele>533.1</ele>
        <time>2020-06-07T08:54:27.000Z</time>
      </trkpt>
      <trkpt lat="45.85821" lon="4.78796">
        <ele>533</ele>
        <time>2020-06-07T08:54:28.000Z</time>
      </trkpt>
      <trkpt lat="45.85823" lon="4.78799">
        <ele>533</ele>
        <time>2020-06-07T08:54:29.000Z</time>
      </trkpt>
      <trkpt lat="45.85825" lon="4.78799">
        <ele>533.4</ele>
        <time>2020-06-07T08:54:30.000Z</time>
      </trkpt>
      <trkpt lat="45.85826" lon="4.78799">
        <ele>533.5</ele>
        <time>2020-06-07T08:54:31.000Z</time>
      </trkpt>
      <trkpt lat="45.85828" lon="4.78799">
        <ele>533.5</ele>
        <time>2020-06-07T08:54:32.000Z</time>
      </trkpt>
      <trkpt lat="45.85828" lon="4.78801">
        <ele>533.6</ele>
        <time>2020-06-07T08:54:33.000Z</time>
      </trkpt>
      <trkpt lat="45.85829" lon="4.78802">
        <ele>533.6</ele>
        <time>2020-06-07T08:54:34.000Z</time>
      </trkpt>
      <trkpt lat="45.8583" lon="4.78804">
        <ele>533.7</ele>
        <time>2020-06-07T08:54:35.000Z</time>
      </trkpt>
      <trkpt lat="45.85831" lon="4.78805">
        <ele>533.8</ele>
        <time>2020-06-07T08:54:36.000Z</time>
      </trkpt>
      <trkpt lat="45.85832" lon="4.78807">
        <ele>533.9</ele>
        <time>2020-06-07T08:54:37.000Z</time>
      </trkpt>
      <trkpt lat="45.85833" lon="4.78808">
        <ele>534</ele>
        <time>2020-06-07T08:54:38.000Z</time>
      </trkpt>
      <trkpt lat="45.85835" lon="4.7881">
        <ele>534.1</ele>
        <time>2020-06-07T08:54:39.000Z</time>
      </trkpt>
      <trkpt lat="45.85836" lon="4.78811">
        <ele>534.2</ele>
        <time>2020-06-07T08:54:40.000Z</time>
      </trkpt>
      <trkpt lat="45.85837" lon="4.78813">
        <ele>534.3</ele>
        <time>2020-06-07T08:54:41.000Z</time>
      </trkpt>
      <trkpt lat="45.85838" lon="4.78814">
        <ele>534.4</ele>
        <time>2020-06-07T08:54:42.000Z</time>
      </trkpt>
      <trkpt lat="45.85839" lon="4.78816">
        <ele>534.5</ele>
        <time>2020-06-07T08:54:43.000Z</time>
      </trkpt>
      <trkpt lat="45.85839" lon="4.78817">
        <ele>534.6</ele>
        <time>2020-06-07T08:54:44.000Z</time>
      </trkpt>
      <trkpt lat="45.8584" lon="4.78819">
        <ele>534.7</ele>
        <time>2020-06-07T08:54:45.000Z</time>
      </trkpt>
      <trkpt lat="45.85841" lon="4.7882">
        <ele>535.6</ele>
        <time>2020-06-07T08:54:46.000Z</time>
      </trkpt>
      <trkpt lat="45.85841" lon="4.78822">
        <ele>535.7</ele>
        <time>2020-06-07T08:54:47.000Z</time>
      </trkpt>
      <trkpt lat="45.85842" lon="4.78823">
        <ele>535.8</ele>
        <time>2020-06-07T08:54:48.000Z</time>
      </trkpt>
      <trkpt lat="45.85843" lon="4.78824">
        <ele>536</ele>
        <time>2020-06-07T08:54:49.000Z</time>
      </trkpt>
      <trkpt lat="45.85844" lon="4.78825">
        <ele>536.1</ele>
        <time>2020-06-07T08:54:50.000Z</time>
      </trkpt>
      <trkpt lat="45.85846" lon="4.78825">
        <ele>536.2</ele>
        <time>2020-06-07T08:54:51.000Z</time>
      </trkpt>
      <trkpt lat="45.85847" lon="4.78825">
        <ele>536.3</ele>
        <time>2020-06-07T08:54:52.000Z</time>
      </trkpt>
      <trkpt lat="45.85848" lon="4.78825">
        <ele>536.3</ele>
        <time>2020-06-07T08:54:53.000Z</time>
      </trkpt>
      <trkpt lat="45.85849" lon="4.78825">
        <ele>536.3</ele>
        <time>2020-06-07T08:54:54.000Z</time>
      </trkpt>
      <trkpt lat="45.85851" lon="4.78824">
        <ele>536.4</ele>
        <time>2020-06-07T08:54:55.000Z</time>
      </trkpt>
      <trkpt lat="45.85853" lon="4.78824">
        <ele>536.4</ele>
        <time>2020-06-07T08:54:56.000Z</time>
      </trkpt>
      <trkpt lat="45.85855" lon="4.78823">
        <ele>536.3</ele>
        <time>2020-06-07T08:54:57.000Z</time>
      </trkpt>
      <trkpt lat="45.85858" lon="4.78823">
        <ele>536.3</ele>
        <time>2020-06-07T08:54:58.000Z</time>
      </trkpt>
      <trkpt lat="45.8586" lon="4.78822">
        <ele>536.1</ele>
        <time>2020-06-07T08:54:59.000Z</time>
      </trkpt>
      <trkpt lat="45.85863" lon="4.78821">
        <ele>536</ele>
        <time>2020-06-07T08:55:00.000Z</time>
      </trkpt>
      <trkpt lat="45.85866" lon="4.78821">
        <ele>535.8</ele>
        <time>2020-06-07T08:55:01.000Z</time>
      </trkpt>
      <trkpt lat="45.85869" lon="4.78821">
        <ele>535.5</ele>
        <time>2020-06-07T08:55:02.000Z</time>
      </trkpt>
      <trkpt lat="45.85872" lon="4.78821">
        <ele>535.3</ele>
        <time>2020-06-07T08:55:03.000Z</time>
      </trkpt>
      <trkpt lat="45.85875" lon="4.78821">
        <ele>535</ele>
        <time>2020-06-07T08:55:04.000Z</time>
      </trkpt>
      <trkpt lat="45.85878" lon="4.78821">
        <ele>534.7</ele>
        <time>2020-06-07T08:55:05.000Z</time>
      </trkpt>
      <trkpt lat="45.85881" lon="4.78821">
        <ele>534.3</ele>
        <time>2020-06-07T08:55:06.000Z</time>
      </trkpt>
      <trkpt lat="45.85886" lon="4.78821">
        <ele>533.8</ele>
        <time>2020-06-07T08:55:07.000Z</time>
      </trkpt>
      <trkpt lat="45.85891" lon="4.78821">
        <ele>533.3</ele>
        <time>2020-06-07T08:55:08.000Z</time>
      </trkpt>
      <trkpt lat="45.85897" lon="4.78822">
        <ele>532.6</ele>
        <time>2020-06-07T08:55:09.000Z</time>
      </trkpt>
      <trkpt lat="45.85902" lon="4.78823">
        <ele>532</ele>
        <time>2020-06-07T08:55:10.000Z</time>
      </trkpt>
      <trkpt lat="45.85906" lon="4.78823">
        <ele>531.5</ele>
        <time>2020-06-07T08:55:11.000Z</time>
      </trkpt>
      <trkpt lat="45.8591" lon="4.78824">
        <ele>531</ele>
        <time>2020-06-07T08:55:12.000Z</time>
      </trkpt>
      <trkpt lat="45.85913" lon="4.78824">
        <ele>530.6</ele>
        <time>2020-06-07T08:55:13.000Z</time>
      </trkpt>
      <trkpt lat="45.85915" lon="4.78825">
        <ele>530.4</ele>
        <time>2020-06-07T08:55:14.000Z</time>
      </trkpt>
      <trkpt lat="45.85916" lon="4.78825">
        <ele>530.2</ele>
        <time>2020-06-07T08:55:15.000Z</time>
      </trkpt>
      <trkpt lat="45.85917" lon="4.78826">
        <ele>530.1</ele>
        <time>2020-06-07T08:55:16.000Z</time>
      </trkpt>
      <trkpt lat="45.85918" lon="4.78827">
        <ele>529.9</ele>
        <time>2020-06-07T08:55:17.000Z</time>
      </trkpt>
      <trkpt lat="45.85919" lon="4.78827">
        <ele>529.7</ele>
        <time>2020-06-07T08:55:18.000Z</time>
      </trkpt>
      <trkpt lat="45.85921" lon="4.78826">
        <ele>529.5</ele>
        <time>2020-06-07T08:55:19.000Z</time>
      </trkpt>
      <trkpt lat="45.85924" lon="4.78827">
        <ele>529.2</ele>
        <time>2020-06-07T08:55:20.000Z</time>
      </trkpt>
      <trkpt lat="45.85926" lon="4.78826">
        <ele>528.9</ele>
        <time>2020-06-07T08:55:21.000Z</time>
      </trkpt>
      <trkpt lat="45.85929" lon="4.78826">
        <ele>528.5</ele>
        <time>2020-06-07T08:55:22.000Z</time>
      </trkpt>
      <trkpt lat="45.85932" lon="4.78825">
        <ele>528</ele>
        <time>2020-06-07T08:55:23.000Z</time>
      </trkpt>
      <trkpt lat="45.85937" lon="4.78825">
        <ele>527.4</ele>
        <time>2020-06-07T08:55:24.000Z</time>
      </trkpt>
      <trkpt lat="45.85942" lon="4.78826">
        <ele>526.8</ele>
        <time>2020-06-07T08:55:25.000Z</time>
      </trkpt>
      <trkpt lat="45.85947" lon="4.78827">
        <ele>526.3</ele>
        <time>2020-06-07T08:55:26.000Z</time>
      </trkpt>
      <trkpt lat="45.85952" lon="4.78828">
        <ele>525.8</ele>
        <time>2020-06-07T08:55:27.000Z</time>
      </trkpt>
      <trkpt lat="45.85957" lon="4.7883">
        <ele>525.3</ele>
        <time>2020-06-07T08:55:28.000Z</time>
      </trkpt>
      <trkpt lat="45.85962" lon="4.78832">
        <ele>524.8</ele>
        <time>2020-06-07T08:55:29.000Z</time>
      </trkpt>
      <trkpt lat="45.85968" lon="4.78834">
        <ele>524.3</ele>
        <time>2020-06-07T08:55:30.000Z</time>
      </trkpt>
      <trkpt lat="45.85973" lon="4.78836">
        <ele>523.9</ele>
        <time>2020-06-07T08:55:31.000Z</time>
      </trkpt>
      <trkpt lat="45.85978" lon="4.78838">
        <ele>523.5</ele>
        <time>2020-06-07T08:55:32.000Z</time>
      </trkpt>
      <trkpt lat="45.85983" lon="4.7884">
        <ele>523.1</ele>
        <time>2020-06-07T08:55:33.000Z</time>
      </trkpt>
      <trkpt lat="45.85988" lon="4.78842">
        <ele>522.7</ele>
        <time>2020-06-07T08:55:34.000Z</time>
      </trkpt>
      <trkpt lat="45.85992" lon="4.78844">
        <ele>522.3</ele>
        <time>2020-06-07T08:55:35.000Z</time>
      </trkpt>
      <trkpt lat="45.85998" lon="4.78846">
        <ele>521.9</ele>
        <time>2020-06-07T08:55:36.000Z</time>
      </trkpt>
      <trkpt lat="45.86003" lon="4.78848">
        <ele>521.6</ele>
        <time>2020-06-07T08:55:37.000Z</time>
      </trkpt>
      <trkpt lat="45.8601" lon="4.78851">
        <ele>521.2</ele>
        <time>2020-06-07T08:55:38.000Z</time>
      </trkpt>
      <trkpt lat="45.86017" lon="4.78854">
        <ele>520.9</ele>
        <time>2020-06-07T08:55:39.000Z</time>
      </trkpt>
      <trkpt lat="45.86023" lon="4.78857">
        <ele>520.7</ele>
        <time>2020-06-07T08:55:40.000Z</time>
      </trkpt>
      <trkpt lat="45.86028" lon="4.7886">
        <ele>520.6</ele>
        <time>2020-06-07T08:55:41.000Z</time>
      </trkpt>
      <trkpt lat="45.86033" lon="4.78863">
        <ele>520.4</ele>
        <time>2020-06-07T08:55:42.000Z</time>
      </trkpt>
      <trkpt lat="45.86037" lon="4.78865">
        <ele>520.2</ele>
        <time>2020-06-07T08:55:43.000Z</time>
      </trkpt>
      <trkpt lat="45.86041" lon="4.78868">
        <ele>520</ele>
        <time>2020-06-07T08:55:44.000Z</time>
      </trkpt>
      <trkpt lat="45.86046" lon="4.7887">
        <ele>519.8</ele>
        <time>2020-06-07T08:55:45.000Z</time>
      </trkpt>
      <trkpt lat="45.86051" lon="4.78873">
        <ele>519.5</ele>
        <time>2020-06-07T08:55:46.000Z</time>
      </trkpt>
      <trkpt lat="45.86055" lon="4.78875">
        <ele>519.2</ele>
        <time>2020-06-07T08:55:47.000Z</time>
      </trkpt>
      <trkpt lat="45.8606" lon="4.78878">
        <ele>518.9</ele>
        <time>2020-06-07T08:55:48.000Z</time>
      </trkpt>
      <trkpt lat="45.86065" lon="4.78882">
        <ele>518.5</ele>
        <time>2020-06-07T08:55:49.000Z</time>
      </trkpt>
      <trkpt lat="45.86069" lon="4.78885">
        <ele>518.2</ele>
        <time>2020-06-07T08:55:50.000Z</time>
      </trkpt>
      <trkpt lat="45.86075" lon="4.78888">
        <ele>517.8</ele>
        <time>2020-06-07T08:55:51.000Z</time>
      </trkpt>
      <trkpt lat="45.86079" lon="4.78892">
        <ele>517.5</ele>
        <time>2020-06-07T08:55:52.000Z</time>
      </trkpt>
      <trkpt lat="45.86083" lon="4.78896">
        <ele>517.3</ele>
        <time>2020-06-07T08:55:53.000Z</time>
      </trkpt>
      <trkpt lat="45.86087" lon="4.789">
        <ele>517</ele>
        <time>2020-06-07T08:55:54.000Z</time>
      </trkpt>
      <trkpt lat="45.86092" lon="4.78906">
        <ele>516.7</ele>
        <time>2020-06-07T08:55:55.000Z</time>
      </trkpt>
      <trkpt lat="45.86094" lon="4.78913">
        <ele>516.4</ele>
        <time>2020-06-07T08:55:56.000Z</time>
      </trkpt>
      <trkpt lat="45.86098" lon="4.78918">
        <ele>516.2</ele>
        <time>2020-06-07T08:55:57.000Z</time>
      </trkpt>
      <trkpt lat="45.86101" lon="4.78924">
        <ele>516</ele>
        <time>2020-06-07T08:55:58.000Z</time>
      </trkpt>
      <trkpt lat="45.86104" lon="4.78928">
        <ele>515.9</ele>
        <time>2020-06-07T08:55:59.000Z</time>
      </trkpt>
      <trkpt lat="45.86106" lon="4.78933">
        <ele>515.8</ele>
        <time>2020-06-07T08:56:00.000Z</time>
      </trkpt>
      <trkpt lat="45.86109" lon="4.78937">
        <ele>515.8</ele>
        <time>2020-06-07T08:56:01.000Z</time>
      </trkpt>
      <trkpt lat="45.86111" lon="4.78942">
        <ele>515.8</ele>
        <time>2020-06-07T08:56:02.000Z</time>
      </trkpt>
      <trkpt lat="45.86113" lon="4.78948">
        <ele>515.7</ele>
        <time>2020-06-07T08:56:03.000Z</time>
      </trkpt>
      <trkpt lat="45.86115" lon="4.78955">
        <ele>515.8</ele>
        <time>2020-06-07T08:56:04.000Z</time>
      </trkpt>
      <trkpt lat="45.86117" lon="4.7896">
        <ele>515.8</ele>
        <time>2020-06-07T08:56:05.000Z</time>
      </trkpt>
      <trkpt lat="45.8612" lon="4.78965">
        <ele>515.8</ele>
        <time>2020-06-07T08:56:06.000Z</time>
      </trkpt>
      <trkpt lat="45.86122" lon="4.78969">
        <ele>515.8</ele>
        <time>2020-06-07T08:56:07.000Z</time>
      </trkpt>
      <trkpt lat="45.86125" lon="4.78973">
        <ele>515.8</ele>
        <time>2020-06-07T08:56:08.000Z</time>
      </trkpt>
      <trkpt lat="45.86128" lon="4.78977">
        <ele>515.7</ele>
        <time>2020-06-07T08:56:09.000Z</time>
      </trkpt>
      <trkpt lat="45.8613" lon="4.78979">
        <ele>515.7</ele>
        <time>2020-06-07T08:56:10.000Z</time>
      </trkpt>
      <trkpt lat="45.86132" lon="4.78982">
        <ele>515.7</ele>
        <time>2020-06-07T08:56:11.000Z</time>
      </trkpt>
      <trkpt lat="45.86133" lon="4.78985">
        <ele>515.7</ele>
        <time>2020-06-07T08:56:12.000Z</time>
      </trkpt>
      <trkpt lat="45.86134" lon="4.78988">
        <ele>515.7</ele>
        <time>2020-06-07T08:56:13.000Z</time>
      </trkpt>
      <trkpt lat="45.86136" lon="4.78991">
        <ele>515.6</ele>
        <time>2020-06-07T08:56:14.000Z</time>
      </trkpt>
      <trkpt lat="45.86136" lon="4.78995">
        <ele>515.6</ele>
        <time>2020-06-07T08:56:15.000Z</time>
      </trkpt>
      <trkpt lat="45.86137" lon="4.78999">
        <ele>515.6</ele>
        <time>2020-06-07T08:56:16.000Z</time>
      </trkpt>
      <trkpt lat="45.86138" lon="4.79002">
        <ele>515.5</ele>
        <time>2020-06-07T08:56:17.000Z</time>
      </trkpt>
      <trkpt lat="45.8614" lon="4.79004">
        <ele>515.5</ele>
        <time>2020-06-07T08:56:18.000Z</time>
      </trkpt>
      <trkpt lat="45.86143" lon="4.79006">
        <ele>515.4</ele>
        <time>2020-06-07T08:56:19.000Z</time>
      </trkpt>
      <trkpt lat="45.86146" lon="4.79009">
        <ele>515.3</ele>
        <time>2020-06-07T08:56:20.000Z</time>
      </trkpt>
      <trkpt lat="45.86149" lon="4.79011">
        <ele>515.2</ele>
        <time>2020-06-07T08:56:21.000Z</time>
      </trkpt>
      <trkpt lat="45.8615" lon="4.79015">
        <ele>515.1</ele>
        <time>2020-06-07T08:56:22.000Z</time>
      </trkpt>
      <trkpt lat="45.86152" lon="4.79018">
        <ele>515</ele>
        <time>2020-06-07T08:56:23.000Z</time>
      </trkpt>
      <trkpt lat="45.86155" lon="4.79021">
        <ele>514.9</ele>
        <time>2020-06-07T08:56:24.000Z</time>
      </trkpt>
      <trkpt lat="45.86158" lon="4.79026">
        <ele>514.7</ele>
        <time>2020-06-07T08:56:25.000Z</time>
      </trkpt>
      <trkpt lat="45.86163" lon="4.79031">
        <ele>514.5</ele>
        <time>2020-06-07T08:56:26.000Z</time>
      </trkpt>
      <trkpt lat="45.86169" lon="4.79036">
        <ele>514.2</ele>
        <time>2020-06-07T08:56:27.000Z</time>
      </trkpt>
      <trkpt lat="45.86173" lon="4.79041">
        <ele>514</ele>
        <time>2020-06-07T08:56:28.000Z</time>
      </trkpt>
      <trkpt lat="45.86178" lon="4.79047">
        <ele>513.5</ele>
        <time>2020-06-07T08:56:29.000Z</time>
      </trkpt>
      <trkpt lat="45.86183" lon="4.79052">
        <ele>513</ele>
        <time>2020-06-07T08:56:30.000Z</time>
      </trkpt>
      <trkpt lat="45.86188" lon="4.79056">
        <ele>512.5</ele>
        <time>2020-06-07T08:56:31.000Z</time>
      </trkpt>
      <trkpt lat="45.86193" lon="4.79061">
        <ele>511.8</ele>
        <time>2020-06-07T08:56:32.000Z</time>
      </trkpt>
      <trkpt lat="45.86196" lon="4.79067">
        <ele>511.2</ele>
        <time>2020-06-07T08:56:33.000Z</time>
      </trkpt>
      <trkpt lat="45.86201" lon="4.79072">
        <ele>510.4</ele>
        <time>2020-06-07T08:56:34.000Z</time>
      </trkpt>
      <trkpt lat="45.86207" lon="4.79078">
        <ele>509.4</ele>
        <time>2020-06-07T08:56:35.000Z</time>
      </trkpt>
      <trkpt lat="45.86214" lon="4.79085">
        <ele>508.3</ele>
        <time>2020-06-07T08:56:36.000Z</time>
      </trkpt>
      <trkpt lat="45.8622" lon="4.79092">
        <ele>507.2</ele>
        <time>2020-06-07T08:56:37.000Z</time>
      </trkpt>
      <trkpt lat="45.86224" lon="4.79099">
        <ele>506.5</ele>
        <time>2020-06-07T08:56:38.000Z</time>
      </trkpt>
      <trkpt lat="45.86228" lon="4.79107">
        <ele>505.8</ele>
        <time>2020-06-07T08:56:39.000Z</time>
      </trkpt>
      <trkpt lat="45.86232" lon="4.79113">
        <ele>505.4</ele>
        <time>2020-06-07T08:56:40.000Z</time>
      </trkpt>
      <trkpt lat="45.86235" lon="4.79122">
        <ele>505</ele>
        <time>2020-06-07T08:56:41.000Z</time>
      </trkpt>
      <trkpt lat="45.86236" lon="4.79131">
        <ele>504.7</ele>
        <time>2020-06-07T08:56:42.000Z</time>
      </trkpt>
      <trkpt lat="45.86239" lon="4.79138">
        <ele>504.5</ele>
        <time>2020-06-07T08:56:43.000Z</time>
      </trkpt>
      <trkpt lat="45.86244" lon="4.79144">
        <ele>504.2</ele>
        <time>2020-06-07T08:56:44.000Z</time>
      </trkpt>
      <trkpt lat="45.86251" lon="4.79149">
        <ele>503.8</ele>
        <time>2020-06-07T08:56:45.000Z</time>
      </trkpt>
      <trkpt lat="45.86257" lon="4.79152">
        <ele>503.5</ele>
        <time>2020-06-07T08:56:46.000Z</time>
      </trkpt>
      <trkpt lat="45.86262" lon="4.79157">
        <ele>503.3</ele>
        <time>2020-06-07T08:56:47.000Z</time>
      </trkpt>
      <trkpt lat="45.86268" lon="4.7916">
        <ele>503</ele>
        <time>2020-06-07T08:56:48.000Z</time>
      </trkpt>
      <trkpt lat="45.86274" lon="4.79164">
        <ele>502.8</ele>
        <time>2020-06-07T08:56:49.000Z</time>
      </trkpt>
      <trkpt lat="45.86278" lon="4.79169">
        <ele>502.6</ele>
        <time>2020-06-07T08:56:50.000Z</time>
      </trkpt>
      <trkpt lat="45.86283" lon="4.79174">
        <ele>502.4</ele>
        <time>2020-06-07T08:56:51.000Z</time>
      </trkpt>
      <trkpt lat="45.86286" lon="4.7918">
        <ele>502.3</ele>
        <time>2020-06-07T08:56:52.000Z</time>
      </trkpt>
      <trkpt lat="45.8629" lon="4.79185">
        <ele>502.1</ele>
        <time>2020-06-07T08:56:53.000Z</time>
      </trkpt>
      <trkpt lat="45.86294" lon="4.79189">
        <ele>501.8</ele>
        <time>2020-06-07T08:56:54.000Z</time>
      </trkpt>
      <trkpt lat="45.86298" lon="4.79193">
        <ele>501.6</ele>
        <time>2020-06-07T08:56:55.000Z</time>
      </trkpt>
      <trkpt lat="45.863" lon="4.79198">
        <ele>501.4</ele>
        <time>2020-06-07T08:56:56.000Z</time>
      </trkpt>
      <trkpt lat="45.863" lon="4.79202">
        <ele>501.1</ele>
        <time>2020-06-07T08:56:57.000Z</time>
      </trkpt>
      <trkpt lat="45.86303" lon="4.79206">
        <ele>500.9</ele>
        <time>2020-06-07T08:56:58.000Z</time>
      </trkpt>
      <trkpt lat="45.86306" lon="4.7921">
        <ele>500.6</ele>
        <time>2020-06-07T08:56:59.000Z</time>
      </trkpt>
      <trkpt lat="45.86309" lon="4.79214">
        <ele>500.2</ele>
        <time>2020-06-07T08:57:00.000Z</time>
      </trkpt>
      <trkpt lat="45.86312" lon="4.79217">
        <ele>499.9</ele>
        <time>2020-06-07T08:57:01.000Z</time>
      </trkpt>
      <trkpt lat="45.86318" lon="4.79221">
        <ele>499.4</ele>
        <time>2020-06-07T08:57:02.000Z</time>
      </trkpt>
      <trkpt lat="45.86321" lon="4.79226">
        <ele>498.9</ele>
        <time>2020-06-07T08:57:03.000Z</time>
      </trkpt>
      <trkpt lat="45.86324" lon="4.7923">
        <ele>498.5</ele>
        <time>2020-06-07T08:57:04.000Z</time>
      </trkpt>
      <trkpt lat="45.86328" lon="4.79234">
        <ele>498</ele>
        <time>2020-06-07T08:57:05.000Z</time>
      </trkpt>
      <trkpt lat="45.86331" lon="4.79237">
        <ele>497.6</ele>
        <time>2020-06-07T08:57:06.000Z</time>
      </trkpt>
      <trkpt lat="45.86333" lon="4.7924">
        <ele>497.3</ele>
        <time>2020-06-07T08:57:07.000Z</time>
      </trkpt>
      <trkpt lat="45.86337" lon="4.79243">
        <ele>496.7</ele>
        <time>2020-06-07T08:57:08.000Z</time>
      </trkpt>
      <trkpt lat="45.86342" lon="4.79246">
        <ele>496.2</ele>
        <time>2020-06-07T08:57:09.000Z</time>
      </trkpt>
      <trkpt lat="45.86346" lon="4.79251">
        <ele>495.6</ele>
        <time>2020-06-07T08:57:10.000Z</time>
      </trkpt>
      <trkpt lat="45.8635" lon="4.79254">
        <ele>495.1</ele>
        <time>2020-06-07T08:57:11.000Z</time>
      </trkpt>
      <trkpt lat="45.86354" lon="4.79259">
        <ele>494.6</ele>
        <time>2020-06-07T08:57:12.000Z</time>
      </trkpt>
      <trkpt lat="45.86359" lon="4.79263">
        <ele>494.1</ele>
        <time>2020-06-07T08:57:13.000Z</time>
      </trkpt>
      <trkpt lat="45.86362" lon="4.79268">
        <ele>493.6</ele>
        <time>2020-06-07T08:57:14.000Z</time>
      </trkpt>
      <trkpt lat="45.86368" lon="4.79272">
        <ele>492.9</ele>
        <time>2020-06-07T08:57:15.000Z</time>
      </trkpt>
      <trkpt lat="45.86373" lon="4.79276">
        <ele>492.2</ele>
        <time>2020-06-07T08:57:16.000Z</time>
      </trkpt>
      <trkpt lat="45.86378" lon="4.79282">
        <ele>491.4</ele>
        <time>2020-06-07T08:57:17.000Z</time>
      </trkpt>
      <trkpt lat="45.86383" lon="4.79288">
        <ele>490.7</ele>
        <time>2020-06-07T08:57:18.000Z</time>
      </trkpt>
      <trkpt lat="45.86387" lon="4.79294">
        <ele>490</ele>
        <time>2020-06-07T08:57:19.000Z</time>
      </trkpt>
      <trkpt lat="45.86392" lon="4.79301">
        <ele>489.3</ele>
        <time>2020-06-07T08:57:20.000Z</time>
      </trkpt>
      <trkpt lat="45.86396" lon="4.79307">
        <ele>488.7</ele>
        <time>2020-06-07T08:57:21.000Z</time>
      </trkpt>
      <trkpt lat="45.864" lon="4.79314">
        <ele>488.1</ele>
        <time>2020-06-07T08:57:22.000Z</time>
      </trkpt>
      <trkpt lat="45.86406" lon="4.79321">
        <ele>487.4</ele>
        <time>2020-06-07T08:57:23.000Z</time>
      </trkpt>
      <trkpt lat="45.86411" lon="4.79328">
        <ele>486.7</ele>
        <time>2020-06-07T08:57:24.000Z</time>
      </trkpt>
      <trkpt lat="45.86418" lon="4.79335">
        <ele>485.9</ele>
        <time>2020-06-07T08:57:25.000Z</time>
      </trkpt>
      <trkpt lat="45.86424" lon="4.79343">
        <ele>485.2</ele>
        <time>2020-06-07T08:57:26.000Z</time>
      </trkpt>
      <trkpt lat="45.8643" lon="4.7935">
        <ele>484.4</ele>
        <time>2020-06-07T08:57:27.000Z</time>
      </trkpt>
      <trkpt lat="45.86436" lon="4.79357">
        <ele>483.8</ele>
        <time>2020-06-07T08:57:28.000Z</time>
      </trkpt>
      <trkpt lat="45.86443" lon="4.79363">
        <ele>483</ele>
        <time>2020-06-07T08:57:29.000Z</time>
      </trkpt>
      <trkpt lat="45.86451" lon="4.79369">
        <ele>482.2</ele>
        <time>2020-06-07T08:57:30.000Z</time>
      </trkpt>
      <trkpt lat="45.86458" lon="4.79376">
        <ele>481.4</ele>
        <time>2020-06-07T08:57:31.000Z</time>
      </trkpt>
      <trkpt lat="45.86465" lon="4.79383">
        <ele>480.7</ele>
        <time>2020-06-07T08:57:32.000Z</time>
      </trkpt>
      <trkpt lat="45.86472" lon="4.79389">
        <ele>480</ele>
        <time>2020-06-07T08:57:33.000Z</time>
      </trkpt>
      <trkpt lat="45.86481" lon="4.79395">
        <ele>479.3</ele>
        <time>2020-06-07T08:57:34.000Z</time>
      </trkpt>
      <trkpt lat="45.86488" lon="4.79401">
        <ele>478.6</ele>
        <time>2020-06-07T08:57:35.000Z</time>
      </trkpt>
      <trkpt lat="45.86497" lon="4.79406">
        <ele>477.8</ele>
        <time>2020-06-07T08:57:36.000Z</time>
      </trkpt>
      <trkpt lat="45.86503" lon="4.79413">
        <ele>477.2</ele>
        <time>2020-06-07T08:57:37.000Z</time>
      </trkpt>
      <trkpt lat="45.8651" lon="4.7942">
        <ele>476.6</ele>
        <time>2020-06-07T08:57:38.000Z</time>
      </trkpt>
      <trkpt lat="45.86516" lon="4.79427">
        <ele>475.9</ele>
        <time>2020-06-07T08:57:39.000Z</time>
      </trkpt>
      <trkpt lat="45.86522" lon="4.79434">
        <ele>475.2</ele>
        <time>2020-06-07T08:57:40.000Z</time>
      </trkpt>
      <trkpt lat="45.86529" lon="4.79441">
        <ele>474.5</ele>
        <time>2020-06-07T08:57:41.000Z</time>
      </trkpt>
      <trkpt lat="45.86534" lon="4.79448">
        <ele>473.9</ele>
        <time>2020-06-07T08:57:42.000Z</time>
      </trkpt>
      <trkpt lat="45.86538" lon="4.79454">
        <ele>473.3</ele>
        <time>2020-06-07T08:57:43.000Z</time>
      </trkpt>
      <trkpt lat="45.86543" lon="4.79461">
        <ele>472.8</ele>
        <time>2020-06-07T08:57:44.000Z</time>
      </trkpt>
      <trkpt lat="45.86545" lon="4.79467">
        <ele>472.3</ele>
        <time>2020-06-07T08:57:45.000Z</time>
      </trkpt>
      <trkpt lat="45.86549" lon="4.79472">
        <ele>471.9</ele>
        <time>2020-06-07T08:57:46.000Z</time>
      </trkpt>
      <trkpt lat="45.86552" lon="4.79476">
        <ele>471.5</ele>
        <time>2020-06-07T08:57:47.000Z</time>
      </trkpt>
      <trkpt lat="45.86558" lon="4.7948">
        <ele>470.9</ele>
        <time>2020-06-07T08:57:48.000Z</time>
      </trkpt>
      <trkpt lat="45.86561" lon="4.79484">
        <ele>470.5</ele>
        <time>2020-06-07T08:57:49.000Z</time>
      </trkpt>
      <trkpt lat="45.86566" lon="4.79489">
        <ele>470</ele>
        <time>2020-06-07T08:57:50.000Z</time>
      </trkpt>
      <trkpt lat="45.86569" lon="4.79493">
        <ele>469.5</ele>
        <time>2020-06-07T08:57:51.000Z</time>
      </trkpt>
      <trkpt lat="45.86571" lon="4.795">
        <ele>469</ele>
        <time>2020-06-07T08:57:52.000Z</time>
      </trkpt>
      <trkpt lat="45.86575" lon="4.79506">
        <ele>468.4</ele>
        <time>2020-06-07T08:57:53.000Z</time>
      </trkpt>
      <trkpt lat="45.86579" lon="4.79512">
        <ele>467.7</ele>
        <time>2020-06-07T08:57:54.000Z</time>
      </trkpt>
      <trkpt lat="45.86582" lon="4.7952">
        <ele>466.8</ele>
        <time>2020-06-07T08:57:55.000Z</time>
      </trkpt>
      <trkpt lat="45.86588" lon="4.79528">
        <ele>465.8</ele>
        <time>2020-06-07T08:57:56.000Z</time>
      </trkpt>
      <trkpt lat="45.86593" lon="4.79535">
        <ele>464.8</ele>
        <time>2020-06-07T08:57:57.000Z</time>
      </trkpt>
      <trkpt lat="45.86596" lon="4.79541">
        <ele>464</ele>
        <time>2020-06-07T08:57:58.000Z</time>
      </trkpt>
      <trkpt lat="45.866" lon="4.79548">
        <ele>463.1</ele>
        <time>2020-06-07T08:57:59.000Z</time>
      </trkpt>
      <trkpt lat="45.86606" lon="4.79556">
        <ele>462.1</ele>
        <time>2020-06-07T08:58:00.000Z</time>
      </trkpt>
      <trkpt lat="45.86609" lon="4.79564">
        <ele>461.1</ele>
        <time>2020-06-07T08:58:01.000Z</time>
      </trkpt>
      <trkpt lat="45.86613" lon="4.79572">
        <ele>460.1</ele>
        <time>2020-06-07T08:58:02.000Z</time>
      </trkpt>
      <trkpt lat="45.86617" lon="4.7958">
        <ele>459</ele>
        <time>2020-06-07T08:58:03.000Z</time>
      </trkpt>
      <trkpt lat="45.8662" lon="4.79588">
        <ele>458</ele>
        <time>2020-06-07T08:58:04.000Z</time>
      </trkpt>
      <trkpt lat="45.86623" lon="4.79595">
        <ele>457.1</ele>
        <time>2020-06-07T08:58:05.000Z</time>
      </trkpt>
      <trkpt lat="45.86624" lon="4.79603">
        <ele>456.2</ele>
        <time>2020-06-07T08:58:06.000Z</time>
      </trkpt>
      <trkpt lat="45.86625" lon="4.7961">
        <ele>455.3</ele>
        <time>2020-06-07T08:58:07.000Z</time>
      </trkpt>
      <trkpt lat="45.86626" lon="4.79616">
        <ele>454.7</ele>
        <time>2020-06-07T08:58:08.000Z</time>
      </trkpt>
      <trkpt lat="45.86627" lon="4.79621">
        <ele>454.2</ele>
        <time>2020-06-07T08:58:09.000Z</time>
      </trkpt>
      <trkpt lat="45.86628" lon="4.79626">
        <ele>453.6</ele>
        <time>2020-06-07T08:58:10.000Z</time>
      </trkpt>
      <trkpt lat="45.86629" lon="4.79632">
        <ele>453</ele>
        <time>2020-06-07T08:58:11.000Z</time>
      </trkpt>
      <trkpt lat="45.86632" lon="4.79636">
        <ele>452.4</ele>
        <time>2020-06-07T08:58:12.000Z</time>
      </trkpt>
      <trkpt lat="45.86635" lon="4.79641">
        <ele>451.8</ele>
        <time>2020-06-07T08:58:13.000Z</time>
      </trkpt>
      <trkpt lat="45.86637" lon="4.79644">
        <ele>451.3</ele>
        <time>2020-06-07T08:58:14.000Z</time>
      </trkpt>
      <trkpt lat="45.8664" lon="4.79648">
        <ele>450.8</ele>
        <time>2020-06-07T08:58:15.000Z</time>
      </trkpt>
      <trkpt lat="45.86641" lon="4.79653">
        <ele>449.2</ele>
        <time>2020-06-07T08:58:16.000Z</time>
      </trkpt>
      <trkpt lat="45.86642" lon="4.79657">
        <ele>448.9</ele>
        <time>2020-06-07T08:58:17.000Z</time>
      </trkpt>
      <trkpt lat="45.86645" lon="4.79662">
        <ele>448.5</ele>
        <time>2020-06-07T08:58:18.000Z</time>
      </trkpt>
      <trkpt lat="45.86647" lon="4.79666">
        <ele>448.1</ele>
        <time>2020-06-07T08:58:19.000Z</time>
      </trkpt>
      <trkpt lat="45.86647" lon="4.79671">
        <ele>447.8</ele>
        <time>2020-06-07T08:58:20.000Z</time>
      </trkpt>
      <trkpt lat="45.86647" lon="4.79677">
        <ele>447.4</ele>
        <time>2020-06-07T08:58:21.000Z</time>
      </trkpt>
      <trkpt lat="45.86648" lon="4.79683">
        <ele>447</ele>
        <time>2020-06-07T08:58:22.000Z</time>
      </trkpt>
      <trkpt lat="45.86649" lon="4.7969">
        <ele>446.5</ele>
        <time>2020-06-07T08:58:23.000Z</time>
      </trkpt>
      <trkpt lat="45.8665" lon="4.79696">
        <ele>446.2</ele>
        <time>2020-06-07T08:58:24.000Z</time>
      </trkpt>
      <trkpt lat="45.8665" lon="4.79702">
        <ele>445.8</ele>
        <time>2020-06-07T08:58:25.000Z</time>
      </trkpt>
      <trkpt lat="45.8665" lon="4.79708">
        <ele>445.5</ele>
        <time>2020-06-07T08:58:26.000Z</time>
      </trkpt>
      <trkpt lat="45.86648" lon="4.79715">
        <ele>444.6</ele>
        <time>2020-06-07T08:58:27.000Z</time>
      </trkpt>
      <trkpt lat="45.86646" lon="4.79721">
        <ele>444.7</ele>
        <time>2020-06-07T08:58:28.000Z</time>
      </trkpt>
      <trkpt lat="45.86644" lon="4.79727">
        <ele>444.8</ele>
        <time>2020-06-07T08:58:29.000Z</time>
      </trkpt>
      <trkpt lat="45.86642" lon="4.79732">
        <ele>444.9</ele>
        <time>2020-06-07T08:58:30.000Z</time>
      </trkpt>
      <trkpt lat="45.86641" lon="4.79738">
        <ele>445.1</ele>
        <time>2020-06-07T08:58:31.000Z</time>
      </trkpt>
      <trkpt lat="45.8664" lon="4.79742">
        <ele>445.2</ele>
        <time>2020-06-07T08:58:32.000Z</time>
      </trkpt>
      <trkpt lat="45.86638" lon="4.79746">
        <ele>445.4</ele>
        <time>2020-06-07T08:58:33.000Z</time>
      </trkpt>
      <trkpt lat="45.86637" lon="4.7975">
        <ele>445.5</ele>
        <time>2020-06-07T08:58:34.000Z</time>
      </trkpt>
      <trkpt lat="45.86635" lon="4.79753">
        <ele>445.6</ele>
        <time>2020-06-07T08:58:35.000Z</time>
      </trkpt>
      <trkpt lat="45.86635" lon="4.79755">
        <ele>445.7</ele>
        <time>2020-06-07T08:58:36.000Z</time>
      </trkpt>
      <trkpt lat="45.86634" lon="4.79758">
        <ele>445.9</ele>
        <time>2020-06-07T08:58:37.000Z</time>
      </trkpt>
      <trkpt lat="45.86633" lon="4.79761">
        <ele>446</ele>
        <time>2020-06-07T08:58:38.000Z</time>
      </trkpt>
      <trkpt lat="45.86632" lon="4.79764">
        <ele>446.1</ele>
        <time>2020-06-07T08:58:39.000Z</time>
      </trkpt>
      <trkpt lat="45.86632" lon="4.79767">
        <ele>446.2</ele>
        <time>2020-06-07T08:58:40.000Z</time>
      </trkpt>
      <trkpt lat="45.86631" lon="4.79769">
        <ele>446.4</ele>
        <time>2020-06-07T08:58:41.000Z</time>
      </trkpt>
      <trkpt lat="45.86629" lon="4.79773">
        <ele>446.5</ele>
        <time>2020-06-07T08:58:42.000Z</time>
      </trkpt>
      <trkpt lat="45.86628" lon="4.79776">
        <ele>446.7</ele>
        <time>2020-06-07T08:58:43.000Z</time>
      </trkpt>
      <trkpt lat="45.86628" lon="4.79779">
        <ele>446.8</ele>
        <time>2020-06-07T08:58:44.000Z</time>
      </trkpt>
      <trkpt lat="45.86628" lon="4.79784">
        <ele>447</ele>
        <time>2020-06-07T08:58:45.000Z</time>
      </trkpt>
      <trkpt lat="45.86626" lon="4.79789">
        <ele>447.3</ele>
        <time>2020-06-07T08:58:46.000Z</time>
      </trkpt>
      <trkpt lat="45.86625" lon="4.79793">
        <ele>447.5</ele>
        <time>2020-06-07T08:58:47.000Z</time>
      </trkpt>
      <trkpt lat="45.86625" lon="4.79797">
        <ele>447.7</ele>
        <time>2020-06-07T08:58:48.000Z</time>
      </trkpt>
      <trkpt lat="45.86623" lon="4.798">
        <ele>447.8</ele>
        <time>2020-06-07T08:58:49.000Z</time>
      </trkpt>
      <trkpt lat="45.86623" lon="4.79804">
        <ele>448</ele>
        <time>2020-06-07T08:58:50.000Z</time>
      </trkpt>
      <trkpt lat="45.86622" lon="4.79807">
        <ele>448.1</ele>
        <time>2020-06-07T08:58:51.000Z</time>
      </trkpt>
      <trkpt lat="45.8662" lon="4.79811">
        <ele>448.4</ele>
        <time>2020-06-07T08:58:52.000Z</time>
      </trkpt>
      <trkpt lat="45.86619" lon="4.79814">
        <ele>448.6</ele>
        <time>2020-06-07T08:58:53.000Z</time>
      </trkpt>
      <trkpt lat="45.86617" lon="4.79818">
        <ele>448.8</ele>
        <time>2020-06-07T08:58:54.000Z</time>
      </trkpt>
      <trkpt lat="45.86616" lon="4.79821">
        <ele>449</ele>
        <time>2020-06-07T08:58:55.000Z</time>
      </trkpt>
      <trkpt lat="45.86613" lon="4.79825">
        <ele>449.4</ele>
        <time>2020-06-07T08:58:56.000Z</time>
      </trkpt>
      <trkpt lat="45.86611" lon="4.79829">
        <ele>449.6</ele>
        <time>2020-06-07T08:58:57.000Z</time>
      </trkpt>
      <trkpt lat="45.86611" lon="4.79832">
        <ele>449.8</ele>
        <time>2020-06-07T08:58:58.000Z</time>
      </trkpt>
      <trkpt lat="45.8661" lon="4.79835">
        <ele>449.9</ele>
        <time>2020-06-07T08:58:59.000Z</time>
      </trkpt>
      <trkpt lat="45.86611" lon="4.79838">
        <ele>450.1</ele>
        <time>2020-06-07T08:59:00.000Z</time>
      </trkpt>
      <trkpt lat="45.86612" lon="4.7984">
        <ele>450.2</ele>
        <time>2020-06-07T08:59:01.000Z</time>
      </trkpt>
      <trkpt lat="45.86611" lon="4.79842">
        <ele>450.4</ele>
        <time>2020-06-07T08:59:02.000Z</time>
      </trkpt>
      <trkpt lat="45.8661" lon="4.79844">
        <ele>450.5</ele>
        <time>2020-06-07T08:59:03.000Z</time>
      </trkpt>
      <trkpt lat="45.86609" lon="4.79846">
        <ele>450.6</ele>
        <time>2020-06-07T08:59:04.000Z</time>
      </trkpt>
      <trkpt lat="45.86609" lon="4.79848">
        <ele>450.7</ele>
        <time>2020-06-07T08:59:05.000Z</time>
      </trkpt>
      <trkpt lat="45.86609" lon="4.7985">
        <ele>450.8</ele>
        <time>2020-06-07T08:59:06.000Z</time>
      </trkpt>
      <trkpt lat="45.86608" lon="4.79852">
        <ele>450.9</ele>
        <time>2020-06-07T08:59:07.000Z</time>
      </trkpt>
      <trkpt lat="45.86607" lon="4.79854">
        <ele>451</ele>
        <time>2020-06-07T08:59:08.000Z</time>
      </trkpt>
      <trkpt lat="45.86605" lon="4.79856">
        <ele>451.2</ele>
        <time>2020-06-07T08:59:09.000Z</time>
      </trkpt>
      <trkpt lat="45.86604" lon="4.79858">
        <ele>451.3</ele>
        <time>2020-06-07T08:59:10.000Z</time>
      </trkpt>
      <trkpt lat="45.86603" lon="4.7986">
        <ele>451.5</ele>
        <time>2020-06-07T08:59:11.000Z</time>
      </trkpt>
      <trkpt lat="45.86602" lon="4.79863">
        <ele>451.6</ele>
        <time>2020-06-07T08:59:12.000Z</time>
      </trkpt>
      <trkpt lat="45.86602" lon="4.79865">
        <ele>451.7</ele>
        <time>2020-06-07T08:59:13.000Z</time>
      </trkpt>
      <trkpt lat="45.86603" lon="4.79868">
        <ele>451.8</ele>
        <time>2020-06-07T08:59:14.000Z</time>
      </trkpt>
      <trkpt lat="45.86602" lon="4.7987">
        <ele>451.9</ele>
        <time>2020-06-07T08:59:15.000Z</time>
      </trkpt>
      <trkpt lat="45.86599" lon="4.79873">
        <ele>452.1</ele>
        <time>2020-06-07T08:59:16.000Z</time>
      </trkpt>
      <trkpt lat="45.86597" lon="4.79875">
        <ele>452.3</ele>
        <time>2020-06-07T08:59:17.000Z</time>
      </trkpt>
      <trkpt lat="45.86594" lon="4.79879">
        <ele>452.5</ele>
        <time>2020-06-07T08:59:18.000Z</time>
      </trkpt>
      <trkpt lat="45.86592" lon="4.79883">
        <ele>452.7</ele>
        <time>2020-06-07T08:59:19.000Z</time>
      </trkpt>
      <trkpt lat="45.8659" lon="4.79888">
        <ele>452.9</ele>
        <time>2020-06-07T08:59:20.000Z</time>
      </trkpt>
      <trkpt lat="45.8659" lon="4.79892">
        <ele>452.8</ele>
        <time>2020-06-07T08:59:21.000Z</time>
      </trkpt>
      <trkpt lat="45.86591" lon="4.79896">
        <ele>452.7</ele>
        <time>2020-06-07T08:59:22.000Z</time>
      </trkpt>
      <trkpt lat="45.86592" lon="4.799">
        <ele>452.5</ele>
        <time>2020-06-07T08:59:23.000Z</time>
      </trkpt>
      <trkpt lat="45.86593" lon="4.79904">
        <ele>452.4</ele>
        <time>2020-06-07T08:59:24.000Z</time>
      </trkpt>
      <trkpt lat="45.86596" lon="4.79908">
        <ele>452.2</ele>
        <time>2020-06-07T08:59:25.000Z</time>
      </trkpt>
      <trkpt lat="45.86598" lon="4.7991">
        <ele>452</ele>
        <time>2020-06-07T08:59:26.000Z</time>
      </trkpt>
      <trkpt lat="45.86601" lon="4.79913">
        <ele>451.8</ele>
        <time>2020-06-07T08:59:27.000Z</time>
      </trkpt>
      <trkpt lat="45.86604" lon="4.79915">
        <ele>451.6</ele>
        <time>2020-06-07T08:59:28.000Z</time>
      </trkpt>
      <trkpt lat="45.86608" lon="4.79917">
        <ele>451.5</ele>
        <time>2020-06-07T08:59:29.000Z</time>
      </trkpt>
      <trkpt lat="45.86611" lon="4.7992">
        <ele>451.4</ele>
        <time>2020-06-07T08:59:30.000Z</time>
      </trkpt>
      <trkpt lat="45.86615" lon="4.79922">
        <ele>451.2</ele>
        <time>2020-06-07T08:59:31.000Z</time>
      </trkpt>
      <trkpt lat="45.86619" lon="4.79925">
        <ele>451.1</ele>
        <time>2020-06-07T08:59:32.000Z</time>
      </trkpt>
      <trkpt lat="45.86622" lon="4.79927">
        <ele>450.9</ele>
        <time>2020-06-07T08:59:33.000Z</time>
      </trkpt>
      <trkpt lat="45.86626" lon="4.7993">
        <ele>450.8</ele>
        <time>2020-06-07T08:59:34.000Z</time>
      </trkpt>
      <trkpt lat="45.8663" lon="4.79932">
        <ele>450.7</ele>
        <time>2020-06-07T08:59:35.000Z</time>
      </trkpt>
      <trkpt lat="45.86634" lon="4.79934">
        <ele>450.6</ele>
        <time>2020-06-07T08:59:36.000Z</time>
      </trkpt>
      <trkpt lat="45.86638" lon="4.79937">
        <ele>450.5</ele>
        <time>2020-06-07T08:59:37.000Z</time>
      </trkpt>
      <trkpt lat="45.86641" lon="4.79939">
        <ele>450.4</ele>
        <time>2020-06-07T08:59:38.000Z</time>
      </trkpt>
      <trkpt lat="45.86645" lon="4.79941">
        <ele>450.3</ele>
        <time>2020-06-07T08:59:39.000Z</time>
      </trkpt>
      <trkpt lat="45.86649" lon="4.79943">
        <ele>450.2</ele>
        <time>2020-06-07T08:59:40.000Z</time>
      </trkpt>
      <trkpt lat="45.86652" lon="4.79946">
        <ele>450.1</ele>
        <time>2020-06-07T08:59:41.000Z</time>
      </trkpt>
      <trkpt lat="45.86656" lon="4.79949">
        <ele>450</ele>
        <time>2020-06-07T08:59:42.000Z</time>
      </trkpt>
      <trkpt lat="45.8666" lon="4.79953">
        <ele>449.9</ele>
        <time>2020-06-07T08:59:43.000Z</time>
      </trkpt>
      <trkpt lat="45.86663" lon="4.79956">
        <ele>449.8</ele>
        <time>2020-06-07T08:59:44.000Z</time>
      </trkpt>
      <trkpt lat="45.86666" lon="4.7996">
        <ele>449.8</ele>
        <time>2020-06-07T08:59:45.000Z</time>
      </trkpt>
      <trkpt lat="45.86669" lon="4.79964">
        <ele>449.7</ele>
        <time>2020-06-07T08:59:46.000Z</time>
      </trkpt>
      <trkpt lat="45.86671" lon="4.79967">
        <ele>449.6</ele>
        <time>2020-06-07T08:59:47.000Z</time>
      </trkpt>
      <trkpt lat="45.86674" lon="4.79971">
        <ele>449.6</ele>
        <time>2020-06-07T08:59:48.000Z</time>
      </trkpt>
      <trkpt lat="45.86676" lon="4.79975">
        <ele>449.6</ele>
        <time>2020-06-07T08:59:49.000Z</time>
      </trkpt>
      <trkpt lat="45.86678" lon="4.79979">
        <ele>449.6</ele>
        <time>2020-06-07T08:59:50.000Z</time>
      </trkpt>
      <trkpt lat="45.86681" lon="4.79983">
        <ele>449.6</ele>
        <time>2020-06-07T08:59:51.000Z</time>
      </trkpt>
      <trkpt lat="45.86683" lon="4.79987">
        <ele>449.6</ele>
        <time>2020-06-07T08:59:52.000Z</time>
      </trkpt>
      <trkpt lat="45.86685" lon="4.79991">
        <ele>449.6</ele>
        <time>2020-06-07T08:59:53.000Z</time>
      </trkpt>
      <trkpt lat="45.86688" lon="4.79995">
        <ele>449.6</ele>
        <time>2020-06-07T08:59:54.000Z</time>
      </trkpt>
      <trkpt lat="45.86691" lon="4.79999">
        <ele>449.6</ele>
        <time>2020-06-07T08:59:55.000Z</time>
      </trkpt>
      <trkpt lat="45.86694" lon="4.80002">
        <ele>449.9</ele>
        <time>2020-06-07T08:59:56.000Z</time>
      </trkpt>
      <trkpt lat="45.86697" lon="4.80004">
        <ele>450.1</ele>
        <time>2020-06-07T08:59:57.000Z</time>
      </trkpt>
      <trkpt lat="45.867" lon="4.80006">
        <ele>450.3</ele>
        <time>2020-06-07T08:59:58.000Z</time>
      </trkpt>
      <trkpt lat="45.86703" lon="4.80007">
        <ele>450.6</ele>
        <time>2020-06-07T08:59:59.000Z</time>
      </trkpt>
      <trkpt lat="45.86705" lon="4.80009">
        <ele>450.8</ele>
        <time>2020-06-07T09:00:00.000Z</time>
      </trkpt>
      <trkpt lat="45.86706" lon="4.80011">
        <ele>451</ele>
        <time>2020-06-07T09:00:01.000Z</time>
      </trkpt>
      <trkpt lat="45.86708" lon="4.80013">
        <ele>451.2</ele>
        <time>2020-06-07T09:00:02.000Z</time>
      </trkpt>
      <trkpt lat="45.8671" lon="4.80015">
        <ele>451.4</ele>
        <time>2020-06-07T09:00:03.000Z</time>
      </trkpt>
      <trkpt lat="45.86712" lon="4.80017">
        <ele>451.6</ele>
        <time>2020-06-07T09:00:04.000Z</time>
      </trkpt>
      <trkpt lat="45.86714" lon="4.8002">
        <ele>451.9</ele>
        <time>2020-06-07T09:00:05.000Z</time>
      </trkpt>
      <trkpt lat="45.86716" lon="4.80022">
        <ele>452.1</ele>
        <time>2020-06-07T09:00:06.000Z</time>
      </trkpt>
      <trkpt lat="45.86717" lon="4.80025">
        <ele>452.4</ele>
        <time>2020-06-07T09:00:07.000Z</time>
      </trkpt>
      <trkpt lat="45.86719" lon="4.80027">
        <ele>452.6</ele>
        <time>2020-06-07T09:00:08.000Z</time>
      </trkpt>
      <trkpt lat="45.86721" lon="4.80031">
        <ele>452.9</ele>
        <time>2020-06-07T09:00:09.000Z</time>
      </trkpt>
      <trkpt lat="45.86722" lon="4.80034">
        <ele>453.1</ele>
        <time>2020-06-07T09:00:10.000Z</time>
      </trkpt>
      <trkpt lat="45.86723" lon="4.80036">
        <ele>453.3</ele>
        <time>2020-06-07T09:00:11.000Z</time>
      </trkpt>
      <trkpt lat="45.86724" lon="4.80039">
        <ele>453.6</ele>
        <time>2020-06-07T09:00:12.000Z</time>
      </trkpt>
      <trkpt lat="45.86725" lon="4.80042">
        <ele>453.8</ele>
        <time>2020-06-07T09:00:13.000Z</time>
      </trkpt>
      <trkpt lat="45.86726" lon="4.80045">
        <ele>454</ele>
        <time>2020-06-07T09:00:14.000Z</time>
      </trkpt>
      <trkpt lat="45.86727" lon="4.80047">
        <ele>454.3</ele>
        <time>2020-06-07T09:00:15.000Z</time>
      </trkpt>
      <trkpt lat="45.86728" lon="4.8005">
        <ele>454.5</ele>
        <time>2020-06-07T09:00:16.000Z</time>
      </trkpt>
      <trkpt lat="45.86729" lon="4.80053">
        <ele>454.8</ele>
        <time>2020-06-07T09:00:17.000Z</time>
      </trkpt>
      <trkpt lat="45.8673" lon="4.80056">
        <ele>455</ele>
        <time>2020-06-07T09:00:18.000Z</time>
      </trkpt>
      <trkpt lat="45.86731" lon="4.80058">
        <ele>455.2</ele>
        <time>2020-06-07T09:00:19.000Z</time>
      </trkpt>
      <trkpt lat="45.86731" lon="4.80061">
        <ele>455.4</ele>
        <time>2020-06-07T09:00:20.000Z</time>
      </trkpt>
      <trkpt lat="45.86732" lon="4.80063">
        <ele>455.6</ele>
        <time>2020-06-07T09:00:21.000Z</time>
      </trkpt>
      <trkpt lat="45.86732" lon="4.80065">
        <ele>455.8</ele>
        <time>2020-06-07T09:00:22.000Z</time>
      </trkpt>
      <trkpt lat="45.86731" lon="4.80067">
        <ele>456</ele>
        <time>2020-06-07T09:00:23.000Z</time>
      </trkpt>
      <trkpt lat="45.86731" lon="4.80069">
        <ele>456.2</ele>
        <time>2020-06-07T09:00:24.000Z</time>
      </trkpt>
      <trkpt lat="45.86731" lon="4.80072">
        <ele>456.4</ele>
        <time>2020-06-07T09:00:25.000Z</time>
      </trkpt>
      <trkpt lat="45.86731" lon="4.80074">
        <ele>456.6</ele>
        <time>2020-06-07T09:00:26.000Z</time>
      </trkpt>
      <trkpt lat="45.86731" lon="4.80077">
        <ele>456.8</ele>
        <time>2020-06-07T09:00:27.000Z</time>
      </trkpt>
      <trkpt lat="45.86731" lon="4.80079">
        <ele>457</ele>
        <time>2020-06-07T09:00:28.000Z</time>
      </trkpt>
      <trkpt lat="45.86732" lon="4.80081">
        <ele>457.2</ele>
        <time>2020-06-07T09:00:29.000Z</time>
      </trkpt>
      <trkpt lat="45.86733" lon="4.80083">
        <ele>457.4</ele>
        <time>2020-06-07T09:00:30.000Z</time>
      </trkpt>
      <trkpt lat="45.86734" lon="4.80086">
        <ele>457.6</ele>
        <time>2020-06-07T09:00:31.000Z</time>
      </trkpt>
      <trkpt lat="45.86734" lon="4.80088">
        <ele>457.7</ele>
        <time>2020-06-07T09:00:32.000Z</time>
      </trkpt>
      <trkpt lat="45.86735" lon="4.80091">
        <ele>458</ele>
        <time>2020-06-07T09:00:33.000Z</time>
      </trkpt>
      <trkpt lat="45.86736" lon="4.80093">
        <ele>458.2</ele>
        <time>2020-06-07T09:00:34.000Z</time>
      </trkpt>
      <trkpt lat="45.86737" lon="4.80096">
        <ele>458.4</ele>
        <time>2020-06-07T09:00:35.000Z</time>
      </trkpt>
      <trkpt lat="45.86738" lon="4.80098">
        <ele>458.6</ele>
        <time>2020-06-07T09:00:36.000Z</time>
      </trkpt>
      <trkpt lat="45.86739" lon="4.80101">
        <ele>458.9</ele>
        <time>2020-06-07T09:00:37.000Z</time>
      </trkpt>
      <trkpt lat="45.8674" lon="4.80103">
        <ele>459.1</ele>
        <time>2020-06-07T09:00:38.000Z</time>
      </trkpt>
      <trkpt lat="45.86741" lon="4.80105">
        <ele>459.2</ele>
        <time>2020-06-07T09:00:39.000Z</time>
      </trkpt>
      <trkpt lat="45.86741" lon="4.80108">
        <ele>459.4</ele>
        <time>2020-06-07T09:00:40.000Z</time>
      </trkpt>
      <trkpt lat="45.86741" lon="4.8011">
        <ele>459.6</ele>
        <time>2020-06-07T09:00:41.000Z</time>
      </trkpt>
      <trkpt lat="45.86742" lon="4.80111">
        <ele>459.7</ele>
        <time>2020-06-07T09:00:42.000Z</time>
      </trkpt>
      <trkpt lat="45.86743" lon="4.80112">
        <ele>459.9</ele>
        <time>2020-06-07T09:00:43.000Z</time>
      </trkpt>
      <trkpt lat="45.86744" lon="4.80114">
        <ele>460.1</ele>
        <time>2020-06-07T09:00:44.000Z</time>
      </trkpt>
      <trkpt lat="45.86745" lon="4.80117">
        <ele>460.3</ele>
        <time>2020-06-07T09:00:45.000Z</time>
      </trkpt>
      <trkpt lat="45.86745" lon="4.80119">
        <ele>460.5</ele>
        <time>2020-06-07T09:00:46.000Z</time>
      </trkpt>
      <trkpt lat="45.86745" lon="4.80122">
        <ele>460.8</ele>
        <time>2020-06-07T09:00:47.000Z</time>
      </trkpt>
      <trkpt lat="45.86745" lon="4.80125">
        <ele>461.1</ele>
        <time>2020-06-07T09:00:48.000Z</time>
      </trkpt>
      <trkpt lat="45.86745" lon="4.80129">
        <ele>461.5</ele>
        <time>2020-06-07T09:00:49.000Z</time>
      </trkpt>
      <trkpt lat="45.86745" lon="4.80132">
        <ele>461.7</ele>
        <time>2020-06-07T09:00:50.000Z</time>
      </trkpt>
      <trkpt lat="45.86745" lon="4.80134">
        <ele>462</ele>
        <time>2020-06-07T09:00:51.000Z</time>
      </trkpt>
      <trkpt lat="45.86746" lon="4.80137">
        <ele>462.4</ele>
        <time>2020-06-07T09:00:52.000Z</time>
      </trkpt>
      <trkpt lat="45.86747" lon="4.8014">
        <ele>462.6</ele>
        <time>2020-06-07T09:00:53.000Z</time>
      </trkpt>
      <trkpt lat="45.86747" lon="4.80142">
        <ele>462.8</ele>
        <time>2020-06-07T09:00:54.000Z</time>
      </trkpt>
      <trkpt lat="45.86748" lon="4.80145">
        <ele>463</ele>
        <time>2020-06-07T09:00:55.000Z</time>
      </trkpt>
      <trkpt lat="45.86749" lon="4.80147">
        <ele>463.2</ele>
        <time>2020-06-07T09:00:56.000Z</time>
      </trkpt>
      <trkpt lat="45.8675" lon="4.80151">
        <ele>463.4</ele>
        <time>2020-06-07T09:00:57.000Z</time>
      </trkpt>
      <trkpt lat="45.86752" lon="4.80153">
        <ele>463.6</ele>
        <time>2020-06-07T09:00:58.000Z</time>
      </trkpt>
      <trkpt lat="45.86755" lon="4.80156">
        <ele>463.9</ele>
        <time>2020-06-07T09:00:59.000Z</time>
      </trkpt>
      <trkpt lat="45.86758" lon="4.80157">
        <ele>464.1</ele>
        <time>2020-06-07T09:01:00.000Z</time>
      </trkpt>
      <trkpt lat="45.86761" lon="4.80158">
        <ele>464.3</ele>
        <time>2020-06-07T09:01:01.000Z</time>
      </trkpt>
      <trkpt lat="45.86763" lon="4.80159">
        <ele>464.4</ele>
        <time>2020-06-07T09:01:02.000Z</time>
      </trkpt>
      <trkpt lat="45.86766" lon="4.80159">
        <ele>464.5</ele>
        <time>2020-06-07T09:01:03.000Z</time>
      </trkpt>
      <trkpt lat="45.86768" lon="4.80158">
        <ele>464.5</ele>
        <time>2020-06-07T09:01:04.000Z</time>
      </trkpt>
      <trkpt lat="45.86771" lon="4.80158">
        <ele>464.6</ele>
        <time>2020-06-07T09:01:05.000Z</time>
      </trkpt>
      <trkpt lat="45.86773" lon="4.80157">
        <ele>464.5</ele>
        <time>2020-06-07T09:01:06.000Z</time>
      </trkpt>
      <trkpt lat="45.86774" lon="4.80158">
        <ele>464.4</ele>
        <time>2020-06-07T09:01:07.000Z</time>
      </trkpt>
      <trkpt lat="45.86776" lon="4.80158">
        <ele>464.2</ele>
        <time>2020-06-07T09:01:08.000Z</time>
      </trkpt>
      <trkpt lat="45.86777" lon="4.8016">
        <ele>464.1</ele>
        <time>2020-06-07T09:01:09.000Z</time>
      </trkpt>
      <trkpt lat="45.86779" lon="4.80161">
        <ele>464</ele>
        <time>2020-06-07T09:01:10.000Z</time>
      </trkpt>
      <trkpt lat="45.8678" lon="4.80162">
        <ele>463.8</ele>
        <time>2020-06-07T09:01:11.000Z</time>
      </trkpt>
      <trkpt lat="45.86781" lon="4.80164">
        <ele>463.7</ele>
        <time>2020-06-07T09:01:12.000Z</time>
      </trkpt>
      <trkpt lat="45.86782" lon="4.80166">
        <ele>463.5</ele>
        <time>2020-06-07T09:01:13.000Z</time>
      </trkpt>
      <trkpt lat="45.86784" lon="4.80168">
        <ele>463.3</ele>
        <time>2020-06-07T09:01:14.000Z</time>
      </trkpt>
      <trkpt lat="45.86785" lon="4.8017">
        <ele>463.1</ele>
        <time>2020-06-07T09:01:15.000Z</time>
      </trkpt>
      <trkpt lat="45.86787" lon="4.80172">
        <ele>462.8</ele>
        <time>2020-06-07T09:01:16.000Z</time>
      </trkpt>
      <trkpt lat="45.86789" lon="4.80174">
        <ele>462.6</ele>
        <time>2020-06-07T09:01:17.000Z</time>
      </trkpt>
      <trkpt lat="45.86789" lon="4.80176">
        <ele>462.4</ele>
        <time>2020-06-07T09:01:18.000Z</time>
      </trkpt>
      <trkpt lat="45.8679" lon="4.80178">
        <ele>462.2</ele>
        <time>2020-06-07T09:01:19.000Z</time>
      </trkpt>
      <trkpt lat="45.86791" lon="4.8018">
        <ele>462</ele>
        <time>2020-06-07T09:01:20.000Z</time>
      </trkpt>
      <trkpt lat="45.86793" lon="4.80184">
        <ele>461.6</ele>
        <time>2020-06-07T09:01:21.000Z</time>
      </trkpt>
      <trkpt lat="45.86795" lon="4.80188">
        <ele>461.2</ele>
        <time>2020-06-07T09:01:22.000Z</time>
      </trkpt>
      <trkpt lat="45.86795" lon="4.80193">
        <ele>460.7</ele>
        <time>2020-06-07T09:01:23.000Z</time>
      </trkpt>
      <trkpt lat="45.86796" lon="4.80198">
        <ele>460.3</ele>
        <time>2020-06-07T09:01:24.000Z</time>
      </trkpt>
      <trkpt lat="45.86798" lon="4.80201">
        <ele>459.9</ele>
        <time>2020-06-07T09:01:25.000Z</time>
      </trkpt>
      <trkpt lat="45.86799" lon="4.80205">
        <ele>459.5</ele>
        <time>2020-06-07T09:01:26.000Z</time>
      </trkpt>
      <trkpt lat="45.86801" lon="4.80209">
        <ele>459.1</ele>
        <time>2020-06-07T09:01:27.000Z</time>
      </trkpt>
      <trkpt lat="45.86803" lon="4.80212">
        <ele>458.6</ele>
        <time>2020-06-07T09:01:28.000Z</time>
      </trkpt>
      <trkpt lat="45.86806" lon="4.80216">
        <ele>458.1</ele>
        <time>2020-06-07T09:01:29.000Z</time>
      </trkpt>
      <trkpt lat="45.86808" lon="4.8022">
        <ele>457.6</ele>
        <time>2020-06-07T09:01:30.000Z</time>
      </trkpt>
      <trkpt lat="45.8681" lon="4.80223">
        <ele>457.1</ele>
        <time>2020-06-07T09:01:31.000Z</time>
      </trkpt>
      <trkpt lat="45.86813" lon="4.80227">
        <ele>456.6</ele>
        <time>2020-06-07T09:01:32.000Z</time>
      </trkpt>
      <trkpt lat="45.86814" lon="4.8023">
        <ele>456.1</ele>
        <time>2020-06-07T09:01:33.000Z</time>
      </trkpt>
      <trkpt lat="45.86815" lon="4.80234">
        <ele>455.7</ele>
        <time>2020-06-07T09:01:34.000Z</time>
      </trkpt>
      <trkpt lat="45.86816" lon="4.80237">
        <ele>455.3</ele>
        <time>2020-06-07T09:01:35.000Z</time>
      </trkpt>
      <trkpt lat="45.86818" lon="4.8024">
        <ele>455</ele>
        <time>2020-06-07T09:01:36.000Z</time>
      </trkpt>
      <trkpt lat="45.8682" lon="4.80242">
        <ele>454.6</ele>
        <time>2020-06-07T09:01:37.000Z</time>
      </trkpt>
      <trkpt lat="45.8682" lon="4.80245">
        <ele>454.2</ele>
        <time>2020-06-07T09:01:38.000Z</time>
      </trkpt>
      <trkpt lat="45.86821" lon="4.80248">
        <ele>454</ele>
        <time>2020-06-07T09:01:39.000Z</time>
      </trkpt>
      <trkpt lat="45.86821" lon="4.80249">
        <ele>453.8</ele>
        <time>2020-06-07T09:01:40.000Z</time>
      </trkpt>
      <trkpt lat="45.86825" lon="4.8025">
        <ele>453.1</ele>
        <time>2020-06-07T09:01:41.000Z</time>
      </trkpt>
      <trkpt lat="45.86826" lon="4.80251">
        <ele>452.9</ele>
        <time>2020-06-07T09:01:42.000Z</time>
      </trkpt>
      <trkpt lat="45.86825" lon="4.80268">
        <ele>450.9</ele>
        <time>2020-06-07T09:01:57.000Z</time>
      </trkpt>
      <trkpt lat="45.86822" lon="4.8027">
        <ele>450.5</ele>
        <time>2020-06-07T09:01:58.000Z</time>
      </trkpt>
      <trkpt lat="45.8682" lon="4.80272">
        <ele>450</ele>
        <time>2020-06-07T09:01:59.000Z</time>
      </trkpt>
      <trkpt lat="45.86818" lon="4.80273">
        <ele>449.6</ele>
        <time>2020-06-07T09:02:00.000Z</time>
      </trkpt>
      <trkpt lat="45.86817" lon="4.80275">
        <ele>449.3</ele>
        <time>2020-06-07T09:02:01.000Z</time>
      </trkpt>
      <trkpt lat="45.86816" lon="4.80278">
        <ele>449</ele>
        <time>2020-06-07T09:02:02.000Z</time>
      </trkpt>
      <trkpt lat="45.86815" lon="4.8028">
        <ele>448.6</ele>
        <time>2020-06-07T09:02:03.000Z</time>
      </trkpt>
      <trkpt lat="45.86814" lon="4.80283">
        <ele>448.3</ele>
        <time>2020-06-07T09:02:04.000Z</time>
      </trkpt>
      <trkpt lat="45.86814" lon="4.80286">
        <ele>447.9</ele>
        <time>2020-06-07T09:02:05.000Z</time>
      </trkpt>
      <trkpt lat="45.86813" lon="4.80289">
        <ele>447.6</ele>
        <time>2020-06-07T09:02:06.000Z</time>
      </trkpt>
      <trkpt lat="45.86812" lon="4.8029">
        <ele>447.3</ele>
        <time>2020-06-07T09:02:07.000Z</time>
      </trkpt>
      <trkpt lat="45.86811" lon="4.80292">
        <ele>447</ele>
        <time>2020-06-07T09:02:08.000Z</time>
      </trkpt>
      <trkpt lat="45.86809" lon="4.80294">
        <ele>446.6</ele>
        <time>2020-06-07T09:02:09.000Z</time>
      </trkpt>
      <trkpt lat="45.86808" lon="4.80298">
        <ele>446.1</ele>
        <time>2020-06-07T09:02:10.000Z</time>
      </trkpt>
      <trkpt lat="45.86807" lon="4.803">
        <ele>445.7</ele>
        <time>2020-06-07T09:02:11.000Z</time>
      </trkpt>
      <trkpt lat="45.86807" lon="4.80303">
        <ele>445.3</ele>
        <time>2020-06-07T09:02:12.000Z</time>
      </trkpt>
      <trkpt lat="45.86807" lon="4.80306">
        <ele>444.9</ele>
        <time>2020-06-07T09:02:13.000Z</time>
      </trkpt>
      <trkpt lat="45.86807" lon="4.8031">
        <ele>444.4</ele>
        <time>2020-06-07T09:02:14.000Z</time>
      </trkpt>
      <trkpt lat="45.86808" lon="4.80313">
        <ele>444</ele>
        <time>2020-06-07T09:02:15.000Z</time>
      </trkpt>
      <trkpt lat="45.86808" lon="4.80316">
        <ele>443.5</ele>
        <time>2020-06-07T09:02:16.000Z</time>
      </trkpt>
      <trkpt lat="45.86809" lon="4.80319">
        <ele>443.1</ele>
        <time>2020-06-07T09:02:17.000Z</time>
      </trkpt>
      <trkpt lat="45.86811" lon="4.80322">
        <ele>442.5</ele>
        <time>2020-06-07T09:02:18.000Z</time>
      </trkpt>
      <trkpt lat="45.86812" lon="4.80325">
        <ele>442.1</ele>
        <time>2020-06-07T09:02:19.000Z</time>
      </trkpt>
      <trkpt lat="45.86812" lon="4.80327">
        <ele>441.7</ele>
        <time>2020-06-07T09:02:20.000Z</time>
      </trkpt>
      <trkpt lat="45.86813" lon="4.80328">
        <ele>441.4</ele>
        <time>2020-06-07T09:02:21.000Z</time>
      </trkpt>
      <trkpt lat="45.86813" lon="4.80329">
        <ele>441.3</ele>
        <time>2020-06-07T09:02:22.000Z</time>
      </trkpt>
      <trkpt lat="45.86813" lon="4.80331">
        <ele>441.1</ele>
        <time>2020-06-07T09:02:23.000Z</time>
      </trkpt>
      <trkpt lat="45.86811" lon="4.80334">
        <ele>440.5</ele>
        <time>2020-06-07T09:02:24.000Z</time>
      </trkpt>
      <trkpt lat="45.8681" lon="4.80338">
        <ele>439.9</ele>
        <time>2020-06-07T09:02:25.000Z</time>
      </trkpt>
      <trkpt lat="45.8681" lon="4.80341">
        <ele>439.5</ele>
        <time>2020-06-07T09:02:26.000Z</time>
      </trkpt>
      <trkpt lat="45.8681" lon="4.80344">
        <ele>439</ele>
        <time>2020-06-07T09:02:27.000Z</time>
      </trkpt>
      <trkpt lat="45.8681" lon="4.80347">
        <ele>438.6</ele>
        <time>2020-06-07T09:02:28.000Z</time>
      </trkpt>
      <trkpt lat="45.86809" lon="4.80349">
        <ele>438.3</ele>
        <time>2020-06-07T09:02:29.000Z</time>
      </trkpt>
      <trkpt lat="45.8681" lon="4.80352">
        <ele>438</ele>
        <time>2020-06-07T09:02:30.000Z</time>
      </trkpt>
      <trkpt lat="45.86811" lon="4.80355">
        <ele>437.5</ele>
        <time>2020-06-07T09:02:31.000Z</time>
      </trkpt>
      <trkpt lat="45.86811" lon="4.8036">
        <ele>436.8</ele>
        <time>2020-06-07T09:02:32.000Z</time>
      </trkpt>
      <trkpt lat="45.8681" lon="4.80367">
        <ele>435.8</ele>
        <time>2020-06-07T09:02:33.000Z</time>
      </trkpt>
      <trkpt lat="45.86811" lon="4.8037">
        <ele>435.2</ele>
        <time>2020-06-07T09:02:34.000Z</time>
      </trkpt>
      <trkpt lat="45.86813" lon="4.80373">
        <ele>434.7</ele>
        <time>2020-06-07T09:02:35.000Z</time>
      </trkpt>
      <trkpt lat="45.86815" lon="4.80376">
        <ele>434.2</ele>
        <time>2020-06-07T09:02:36.000Z</time>
      </trkpt>
      <trkpt lat="45.86816" lon="4.80379">
        <ele>433.8</ele>
        <time>2020-06-07T09:02:37.000Z</time>
      </trkpt>
      <trkpt lat="45.86817" lon="4.80382">
        <ele>433.4</ele>
        <time>2020-06-07T09:02:38.000Z</time>
      </trkpt>
      <trkpt lat="45.86815" lon="4.80386">
        <ele>432.9</ele>
        <time>2020-06-07T09:02:39.000Z</time>
      </trkpt>
      <trkpt lat="45.86814" lon="4.80389">
        <ele>432.6</ele>
        <time>2020-06-07T09:02:40.000Z</time>
      </trkpt>
      <trkpt lat="45.86813" lon="4.80391">
        <ele>432.3</ele>
        <time>2020-06-07T09:02:41.000Z</time>
      </trkpt>
      <trkpt lat="45.86812" lon="4.80392">
        <ele>432.2</ele>
        <time>2020-06-07T09:02:42.000Z</time>
      </trkpt>
      <trkpt lat="45.86812" lon="4.80392">
        <ele>432.1</ele>
        <time>2020-06-07T09:02:43.000Z</time>
      </trkpt>
      <trkpt lat="45.86811" lon="4.80393">
        <ele>432</ele>
        <time>2020-06-07T09:02:44.000Z</time>
      </trkpt>
      <trkpt lat="45.86814" lon="4.80408">
        <ele>430.7</ele>
        <time>2020-06-07T09:03:07.000Z</time>
      </trkpt>
      <trkpt lat="45.86818" lon="4.80409">
        <ele>430.3</ele>
        <time>2020-06-07T09:03:08.000Z</time>
      </trkpt>
      <trkpt lat="45.86821" lon="4.80411">
        <ele>430.1</ele>
        <time>2020-06-07T09:03:09.000Z</time>
      </trkpt>
      <trkpt lat="45.86825" lon="4.80412">
        <ele>430.1</ele>
        <time>2020-06-07T09:03:10.000Z</time>
      </trkpt>
      <trkpt lat="45.86829" lon="4.80413">
        <ele>430</ele>
        <time>2020-06-07T09:03:11.000Z</time>
      </trkpt>
      <trkpt lat="45.86831" lon="4.80414">
        <ele>429.9</ele>
        <time>2020-06-07T09:03:12.000Z</time>
      </trkpt>
      <trkpt lat="45.86832" lon="4.80416">
        <ele>429.9</ele>
        <time>2020-06-07T09:03:13.000Z</time>
      </trkpt>
      <trkpt lat="45.86834" lon="4.80418">
        <ele>429.8</ele>
        <time>2020-06-07T09:03:14.000Z</time>
      </trkpt>
      <trkpt lat="45.86838" lon="4.8042">
        <ele>429.6</ele>
        <time>2020-06-07T09:03:15.000Z</time>
      </trkpt>
      <trkpt lat="45.86841" lon="4.80421">
        <ele>429.5</ele>
        <time>2020-06-07T09:03:16.000Z</time>
      </trkpt>
      <trkpt lat="45.86843" lon="4.80422">
        <ele>429.4</ele>
        <time>2020-06-07T09:03:17.000Z</time>
      </trkpt>
      <trkpt lat="45.86847" lon="4.80424">
        <ele>429.2</ele>
        <time>2020-06-07T09:03:18.000Z</time>
      </trkpt>
      <trkpt lat="45.86849" lon="4.80425">
        <ele>429.1</ele>
        <time>2020-06-07T09:03:19.000Z</time>
      </trkpt>
      <trkpt lat="45.86851" lon="4.80427">
        <ele>428.9</ele>
        <time>2020-06-07T09:03:20.000Z</time>
      </trkpt>
      <trkpt lat="45.86854" lon="4.80429">
        <ele>428.7</ele>
        <time>2020-06-07T09:03:21.000Z</time>
      </trkpt>
      <trkpt lat="45.86856" lon="4.80431">
        <ele>428.5</ele>
        <time>2020-06-07T09:03:22.000Z</time>
      </trkpt>
      <trkpt lat="45.86859" lon="4.80432">
        <ele>428.3</ele>
        <time>2020-06-07T09:03:23.000Z</time>
      </trkpt>
      <trkpt lat="45.86861" lon="4.80433">
        <ele>428.2</ele>
        <time>2020-06-07T09:03:24.000Z</time>
      </trkpt>
      <trkpt lat="45.86862" lon="4.80434">
        <ele>428.1</ele>
        <time>2020-06-07T09:03:25.000Z</time>
      </trkpt>
      <trkpt lat="45.86864" lon="4.80436">
        <ele>427.9</ele>
        <time>2020-06-07T09:03:26.000Z</time>
      </trkpt>
      <trkpt lat="45.86866" lon="4.80438">
        <ele>427.8</ele>
        <time>2020-06-07T09:03:27.000Z</time>
      </trkpt>
      <trkpt lat="45.86867" lon="4.80439">
        <ele>427.6</ele>
        <time>2020-06-07T09:03:28.000Z</time>
      </trkpt>
      <trkpt lat="45.86869" lon="4.8044">
        <ele>427.5</ele>
        <time>2020-06-07T09:03:29.000Z</time>
      </trkpt>
      <trkpt lat="45.86872" lon="4.8044">
        <ele>427.3</ele>
        <time>2020-06-07T09:03:30.000Z</time>
      </trkpt>
      <trkpt lat="45.86874" lon="4.80441">
        <ele>427.1</ele>
        <time>2020-06-07T09:03:31.000Z</time>
      </trkpt>
      <trkpt lat="45.86876" lon="4.80441">
        <ele>427</ele>
        <time>2020-06-07T09:03:32.000Z</time>
      </trkpt>
      <trkpt lat="45.86879" lon="4.80442">
        <ele>426.8</ele>
        <time>2020-06-07T09:03:33.000Z</time>
      </trkpt>
      <trkpt lat="45.8688" lon="4.80442">
        <ele>426.7</ele>
        <time>2020-06-07T09:03:34.000Z</time>
      </trkpt>
      <trkpt lat="45.86881" lon="4.80442">
        <ele>426.7</ele>
        <time>2020-06-07T09:03:35.000Z</time>
      </trkpt>
      <trkpt lat="45.86882" lon="4.80442">
        <ele>426.6</ele>
        <time>2020-06-07T09:03:36.000Z</time>
      </trkpt>
      <trkpt lat="45.86883" lon="4.80443">
        <ele>426.5</ele>
        <time>2020-06-07T09:03:37.000Z</time>
      </trkpt>
      <trkpt lat="45.86884" lon="4.80443">
        <ele>426.5</ele>
        <time>2020-06-07T09:03:38.000Z</time>
      </trkpt>
      <trkpt lat="45.86885" lon="4.80443">
        <ele>426.4</ele>
        <time>2020-06-07T09:03:39.000Z</time>
      </trkpt>
      <trkpt lat="45.86887" lon="4.80443">
        <ele>426.3</ele>
        <time>2020-06-07T09:03:40.000Z</time>
      </trkpt>
      <trkpt lat="45.86892" lon="4.80449">
        <ele>425.9</ele>
        <time>2020-06-07T09:03:51.000Z</time>
      </trkpt>
      <trkpt lat="45.86893" lon="4.80449">
        <ele>425.9</ele>
        <time>2020-06-07T09:03:52.000Z</time>
      </trkpt>
      <trkpt lat="45.86894" lon="4.80449">
        <ele>425.8</ele>
        <time>2020-06-07T09:03:53.000Z</time>
      </trkpt>
      <trkpt lat="45.86893" lon="4.80449">
        <ele>425.8</ele>
        <time>2020-06-07T09:03:54.000Z</time>
      </trkpt>
      <trkpt lat="45.86894" lon="4.8045">
        <ele>425.8</ele>
        <time>2020-06-07T09:03:55.000Z</time>
      </trkpt>
      <trkpt lat="45.86895" lon="4.8045">
        <ele>425.8</ele>
        <time>2020-06-07T09:03:56.000Z</time>
      </trkpt>
      <trkpt lat="45.86896" lon="4.80451">
        <ele>425.7</ele>
        <time>2020-06-07T09:03:57.000Z</time>
      </trkpt>
      <trkpt lat="45.86897" lon="4.80452">
        <ele>425.7</ele>
        <time>2020-06-07T09:03:58.000Z</time>
      </trkpt>
      <trkpt lat="45.86898" lon="4.80452">
        <ele>425.6</ele>
        <time>2020-06-07T09:03:59.000Z</time>
      </trkpt>
      <trkpt lat="45.86899" lon="4.80452">
        <ele>425.6</ele>
        <time>2020-06-07T09:04:00.000Z</time>
      </trkpt>
      <trkpt lat="45.869" lon="4.80452">
        <ele>425.6</ele>
        <time>2020-06-07T09:04:01.000Z</time>
      </trkpt>
      <trkpt lat="45.86901" lon="4.80451">
        <ele>425.5</ele>
        <time>2020-06-07T09:04:02.000Z</time>
      </trkpt>
      <trkpt lat="45.86902" lon="4.8045">
        <ele>425.5</ele>
        <time>2020-06-07T09:04:03.000Z</time>
      </trkpt>
      <trkpt lat="45.86903" lon="4.80449">
        <ele>425.5</ele>
        <time>2020-06-07T09:04:04.000Z</time>
      </trkpt>
      <trkpt lat="45.86904" lon="4.80449">
        <ele>425.4</ele>
        <time>2020-06-07T09:04:05.000Z</time>
      </trkpt>
      <trkpt lat="45.86905" lon="4.80449">
        <ele>425.4</ele>
        <time>2020-06-07T09:04:06.000Z</time>
      </trkpt>
      <trkpt lat="45.86906" lon="4.80449">
        <ele>425.3</ele>
        <time>2020-06-07T09:04:07.000Z</time>
      </trkpt>
      <trkpt lat="45.86906" lon="4.80449">
        <ele>425.3</ele>
        <time>2020-06-07T09:04:08.000Z</time>
      </trkpt>
      <trkpt lat="45.86907" lon="4.80449">
        <ele>425.3</ele>
        <time>2020-06-07T09:04:09.000Z</time>
      </trkpt>
      <trkpt lat="45.86907" lon="4.80449">
        <ele>425.3</ele>
        <time>2020-06-07T09:04:10.000Z</time>
      </trkpt>
      <trkpt lat="45.86908" lon="4.80449">
        <ele>425.2</ele>
        <time>2020-06-07T09:04:11.000Z</time>
      </trkpt>
      <trkpt lat="45.86908" lon="4.80449">
        <ele>425.2</ele>
        <time>2020-06-07T09:04:12.000Z</time>
      </trkpt>
      <trkpt lat="45.86908" lon="4.80449">
        <ele>425.2</ele>
        <time>2020-06-07T09:04:13.000Z</time>
      </trkpt>
      <trkpt lat="45.86933" lon="4.80459">
        <ele>422.7</ele>
        <time>2020-06-07T09:08:00.000Z</time>
      </trkpt>
      <trkpt lat="45.86935" lon="4.80461">
        <ele>422.4</ele>
        <time>2020-06-07T09:08:01.000Z</time>
      </trkpt>
      <trkpt lat="45.86937" lon="4.80463">
        <ele>422.1</ele>
        <time>2020-06-07T09:08:02.000Z</time>
      </trkpt>
      <trkpt lat="45.86938" lon="4.80464">
        <ele>421.8</ele>
        <time>2020-06-07T09:08:03.000Z</time>
      </trkpt>
      <trkpt lat="45.8694" lon="4.80466">
        <ele>421.6</ele>
        <time>2020-06-07T09:08:04.000Z</time>
      </trkpt>
      <trkpt lat="45.86941" lon="4.80467">
        <ele>421.3</ele>
        <time>2020-06-07T09:08:05.000Z</time>
      </trkpt>
      <trkpt lat="45.86943" lon="4.80469">
        <ele>421.1</ele>
        <time>2020-06-07T09:08:06.000Z</time>
      </trkpt>
      <trkpt lat="45.86944" lon="4.80471">
        <ele>420.8</ele>
        <time>2020-06-07T09:08:07.000Z</time>
      </trkpt>
      <trkpt lat="45.86945" lon="4.80473">
        <ele>420.5</ele>
        <time>2020-06-07T09:08:08.000Z</time>
      </trkpt>
      <trkpt lat="45.86946" lon="4.80476">
        <ele>420.3</ele>
        <time>2020-06-07T09:08:09.000Z</time>
      </trkpt>
      <trkpt lat="45.86947" lon="4.80478">
        <ele>419.9</ele>
        <time>2020-06-07T09:08:10.000Z</time>
      </trkpt>
      <trkpt lat="45.86948" lon="4.80481">
        <ele>419.6</ele>
        <time>2020-06-07T09:08:11.000Z</time>
      </trkpt>
      <trkpt lat="45.8695" lon="4.80483">
        <ele>419.3</ele>
        <time>2020-06-07T09:08:12.000Z</time>
      </trkpt>
      <trkpt lat="45.86952" lon="4.80485">
        <ele>418.9</ele>
        <time>2020-06-07T09:08:13.000Z</time>
      </trkpt>
      <trkpt lat="45.86953" lon="4.80487">
        <ele>418.5</ele>
        <time>2020-06-07T09:08:14.000Z</time>
      </trkpt>
      <trkpt lat="45.86955" lon="4.8049">
        <ele>418.1</ele>
        <time>2020-06-07T09:08:15.000Z</time>
      </trkpt>
      <trkpt lat="45.86956" lon="4.80493">
        <ele>417.7</ele>
        <time>2020-06-07T09:08:16.000Z</time>
      </trkpt>
      <trkpt lat="45.86958" lon="4.80497">
        <ele>417.2</ele>
        <time>2020-06-07T09:08:17.000Z</time>
      </trkpt>
      <trkpt lat="45.8696" lon="4.805">
        <ele>416.6</ele>
        <time>2020-06-07T09:08:18.000Z</time>
      </trkpt>
      <trkpt lat="45.86962" lon="4.80504">
        <ele>416</ele>
        <time>2020-06-07T09:08:19.000Z</time>
      </trkpt>
      <trkpt lat="45.86964" lon="4.80507">
        <ele>415.5</ele>
        <time>2020-06-07T09:08:20.000Z</time>
      </trkpt>
      <trkpt lat="45.86965" lon="4.80512">
        <ele>414.9</ele>
        <time>2020-06-07T09:08:21.000Z</time>
      </trkpt>
      <trkpt lat="45.86966" lon="4.80516">
        <ele>414.4</ele>
        <time>2020-06-07T09:08:22.000Z</time>
      </trkpt>
      <trkpt lat="45.86967" lon="4.80518">
        <ele>414</ele>
        <time>2020-06-07T09:08:23.000Z</time>
      </trkpt>
      <trkpt lat="45.86968" lon="4.80521">
        <ele>413.7</ele>
        <time>2020-06-07T09:08:24.000Z</time>
      </trkpt>
      <trkpt lat="45.8697" lon="4.80523">
        <ele>413.3</ele>
        <time>2020-06-07T09:08:25.000Z</time>
      </trkpt>
      <trkpt lat="45.86971" lon="4.80525">
        <ele>413</ele>
        <time>2020-06-07T09:08:26.000Z</time>
      </trkpt>
      <trkpt lat="45.86972" lon="4.80527">
        <ele>412.6</ele>
        <time>2020-06-07T09:08:27.000Z</time>
      </trkpt>
      <trkpt lat="45.86973" lon="4.8053">
        <ele>412.3</ele>
        <time>2020-06-07T09:08:28.000Z</time>
      </trkpt>
      <trkpt lat="45.86973" lon="4.80532">
        <ele>411.9</ele>
        <time>2020-06-07T09:08:29.000Z</time>
      </trkpt>
      <trkpt lat="45.86973" lon="4.80535">
        <ele>411.5</ele>
        <time>2020-06-07T09:08:30.000Z</time>
      </trkpt>
      <trkpt lat="45.86973" lon="4.80539">
        <ele>411.1</ele>
        <time>2020-06-07T09:08:31.000Z</time>
      </trkpt>
      <trkpt lat="45.86974" lon="4.80541">
        <ele>410.8</ele>
        <time>2020-06-07T09:08:32.000Z</time>
      </trkpt>
      <trkpt lat="45.86974" lon="4.80542">
        <ele>410.6</ele>
        <time>2020-06-07T09:08:33.000Z</time>
      </trkpt>
      <trkpt lat="45.86974" lon="4.80545">
        <ele>410.3</ele>
        <time>2020-06-07T09:08:34.000Z</time>
      </trkpt>
      <trkpt lat="45.86973" lon="4.80547">
        <ele>410</ele>
        <time>2020-06-07T09:08:35.000Z</time>
      </trkpt>
      <trkpt lat="45.86973" lon="4.80549">
        <ele>409.6</ele>
        <time>2020-06-07T09:08:36.000Z</time>
      </trkpt>
      <trkpt lat="45.86972" lon="4.80552">
        <ele>409.3</ele>
        <time>2020-06-07T09:08:37.000Z</time>
      </trkpt>
      <trkpt lat="45.86972" lon="4.80555">
        <ele>408.9</ele>
        <time>2020-06-07T09:08:38.000Z</time>
      </trkpt>
      <trkpt lat="45.86973" lon="4.80558">
        <ele>408.6</ele>
        <time>2020-06-07T09:08:39.000Z</time>
      </trkpt>
      <trkpt lat="45.86973" lon="4.80562">
        <ele>408.2</ele>
        <time>2020-06-07T09:08:40.000Z</time>
      </trkpt>
      <trkpt lat="45.86973" lon="4.80564">
        <ele>408</ele>
        <time>2020-06-07T09:08:41.000Z</time>
      </trkpt>
      <trkpt lat="45.86973" lon="4.80566">
        <ele>407.8</ele>
        <time>2020-06-07T09:08:42.000Z</time>
      </trkpt>
      <trkpt lat="45.86973" lon="4.80568">
        <ele>407.6</ele>
        <time>2020-06-07T09:08:43.000Z</time>
      </trkpt>
      <trkpt lat="45.86972" lon="4.8057">
        <ele>407.4</ele>
        <time>2020-06-07T09:08:44.000Z</time>
      </trkpt>
      <trkpt lat="45.86972" lon="4.80573">
        <ele>407.1</ele>
        <time>2020-06-07T09:08:45.000Z</time>
      </trkpt>
      <trkpt lat="45.86972" lon="4.80576">
        <ele>406.9</ele>
        <time>2020-06-07T09:08:46.000Z</time>
      </trkpt>
      <trkpt lat="45.86972" lon="4.80579">
        <ele>406.6</ele>
        <time>2020-06-07T09:08:47.000Z</time>
      </trkpt>
      <trkpt lat="45.86972" lon="4.8058">
        <ele>406.5</ele>
        <time>2020-06-07T09:08:48.000Z</time>
      </trkpt>
      <trkpt lat="45.86973" lon="4.80582">
        <ele>406.3</ele>
        <time>2020-06-07T09:08:49.000Z</time>
      </trkpt>
      <trkpt lat="45.86973" lon="4.80584">
        <ele>406.2</ele>
        <time>2020-06-07T09:08:50.000Z</time>
      </trkpt>
      <trkpt lat="45.86974" lon="4.80587">
        <ele>406</ele>
        <time>2020-06-07T09:08:51.000Z</time>
      </trkpt>
      <trkpt lat="45.86976" lon="4.8059">
        <ele>405.7</ele>
        <time>2020-06-07T09:08:52.000Z</time>
      </trkpt>
      <trkpt lat="45.86976" lon="4.80594">
        <ele>405.5</ele>
        <time>2020-06-07T09:08:53.000Z</time>
      </trkpt>
      <trkpt lat="45.86976" lon="4.80598">
        <ele>405.2</ele>
        <time>2020-06-07T09:08:54.000Z</time>
      </trkpt>
      <trkpt lat="45.86975" lon="4.80601">
        <ele>405.1</ele>
        <time>2020-06-07T09:08:55.000Z</time>
      </trkpt>
      <trkpt lat="45.86975" lon="4.80604">
        <ele>405</ele>
        <time>2020-06-07T09:08:56.000Z</time>
      </trkpt>
      <trkpt lat="45.86975" lon="4.80606">
        <ele>404.8</ele>
        <time>2020-06-07T09:08:57.000Z</time>
      </trkpt>
      <trkpt lat="45.86975" lon="4.80609">
        <ele>404.7</ele>
        <time>2020-06-07T09:08:58.000Z</time>
      </trkpt>
      <trkpt lat="45.86975" lon="4.80613">
        <ele>404.6</ele>
        <time>2020-06-07T09:08:59.000Z</time>
      </trkpt>
      <trkpt lat="45.86975" lon="4.80616">
        <ele>404.4</ele>
        <time>2020-06-07T09:09:00.000Z</time>
      </trkpt>
      <trkpt lat="45.86975" lon="4.80619">
        <ele>404.4</ele>
        <time>2020-06-07T09:09:01.000Z</time>
      </trkpt>
      <trkpt lat="45.86976" lon="4.80621">
        <ele>404.3</ele>
        <time>2020-06-07T09:09:02.000Z</time>
      </trkpt>
      <trkpt lat="45.86977" lon="4.80622">
        <ele>404.2</ele>
        <time>2020-06-07T09:09:03.000Z</time>
      </trkpt>
      <trkpt lat="45.86977" lon="4.80624">
        <ele>404.2</ele>
        <time>2020-06-07T09:09:04.000Z</time>
      </trkpt>
      <trkpt lat="45.86978" lon="4.80626">
        <ele>404.1</ele>
        <time>2020-06-07T09:09:05.000Z</time>
      </trkpt>
      <trkpt lat="45.86978" lon="4.80629">
        <ele>404</ele>
        <time>2020-06-07T09:09:06.000Z</time>
      </trkpt>
      <trkpt lat="45.86979" lon="4.80631">
        <ele>403.9</ele>
        <time>2020-06-07T09:09:07.000Z</time>
      </trkpt>
      <trkpt lat="45.86979" lon="4.80633">
        <ele>403.9</ele>
        <time>2020-06-07T09:09:08.000Z</time>
      </trkpt>
      <trkpt lat="45.86978" lon="4.80636">
        <ele>403.8</ele>
        <time>2020-06-07T09:09:09.000Z</time>
      </trkpt>
      <trkpt lat="45.86978" lon="4.80637">
        <ele>403.7</ele>
        <time>2020-06-07T09:09:10.000Z</time>
      </trkpt>
      <trkpt lat="45.86978" lon="4.80639">
        <ele>403.7</ele>
        <time>2020-06-07T09:09:11.000Z</time>
      </trkpt>
      <trkpt lat="45.86978" lon="4.80641">
        <ele>403.6</ele>
        <time>2020-06-07T09:09:12.000Z</time>
      </trkpt>
      <trkpt lat="45.86978" lon="4.80644">
        <ele>403.5</ele>
        <time>2020-06-07T09:09:13.000Z</time>
      </trkpt>
      <trkpt lat="45.86978" lon="4.80646">
        <ele>403.4</ele>
        <time>2020-06-07T09:09:14.000Z</time>
      </trkpt>
      <trkpt lat="45.86977" lon="4.80648">
        <ele>403.4</ele>
        <time>2020-06-07T09:09:15.000Z</time>
      </trkpt>
      <trkpt lat="45.86977" lon="4.8065">
        <ele>403.3</ele>
        <time>2020-06-07T09:09:16.000Z</time>
      </trkpt>
      <trkpt lat="45.86977" lon="4.80653">
        <ele>403.1</ele>
        <time>2020-06-07T09:09:17.000Z</time>
      </trkpt>
      <trkpt lat="45.86977" lon="4.80655">
        <ele>403.3</ele>
        <time>2020-06-07T09:09:18.000Z</time>
      </trkpt>
      <trkpt lat="45.86977" lon="4.80657">
        <ele>403.5</ele>
        <time>2020-06-07T09:09:19.000Z</time>
      </trkpt>
      <trkpt lat="45.86977" lon="4.80659">
        <ele>403.7</ele>
        <time>2020-06-07T09:09:20.000Z</time>
      </trkpt>
      <trkpt lat="45.86977" lon="4.8066">
        <ele>403.8</ele>
        <time>2020-06-07T09:09:21.000Z</time>
      </trkpt>
      <trkpt lat="45.86977" lon="4.80663">
        <ele>404.1</ele>
        <time>2020-06-07T09:09:22.000Z</time>
      </trkpt>
      <trkpt lat="45.86977" lon="4.80664">
        <ele>404.2</ele>
        <time>2020-06-07T09:09:23.000Z</time>
      </trkpt>
      <trkpt lat="45.86977" lon="4.80665">
        <ele>404.3</ele>
        <time>2020-06-07T09:09:24.000Z</time>
      </trkpt>
      <trkpt lat="45.86983" lon="4.80693">
        <ele>405.5</ele>
        <time>2020-06-07T09:09:42.000Z</time>
      </trkpt>
      <trkpt lat="45.86987" lon="4.80694">
        <ele>405.4</ele>
        <time>2020-06-07T09:09:43.000Z</time>
      </trkpt>
      <trkpt lat="45.8699" lon="4.80696">
        <ele>405.2</ele>
        <time>2020-06-07T09:09:44.000Z</time>
      </trkpt>
      <trkpt lat="45.86994" lon="4.80699">
        <ele>404.9</ele>
        <time>2020-06-07T09:09:45.000Z</time>
      </trkpt>
      <trkpt lat="45.86997" lon="4.80702">
        <ele>404.5</ele>
        <time>2020-06-07T09:09:46.000Z</time>
      </trkpt>
      <trkpt lat="45.87" lon="4.80707">
        <ele>404.1</ele>
        <time>2020-06-07T09:09:47.000Z</time>
      </trkpt>
      <trkpt lat="45.87003" lon="4.8071">
        <ele>403.7</ele>
        <time>2020-06-07T09:09:48.000Z</time>
      </trkpt>
      <trkpt lat="45.87008" lon="4.80714">
        <ele>403.2</ele>
        <time>2020-06-07T09:09:49.000Z</time>
      </trkpt>
      <trkpt lat="45.8701" lon="4.80719">
        <ele>402.7</ele>
        <time>2020-06-07T09:09:50.000Z</time>
      </trkpt>
      <trkpt lat="45.87012" lon="4.80723">
        <ele>402.3</ele>
        <time>2020-06-07T09:09:51.000Z</time>
      </trkpt>
      <trkpt lat="45.87015" lon="4.80727">
        <ele>401.9</ele>
        <time>2020-06-07T09:09:52.000Z</time>
      </trkpt>
      <trkpt lat="45.87018" lon="4.80729">
        <ele>401.5</ele>
        <time>2020-06-07T09:09:53.000Z</time>
      </trkpt>
      <trkpt lat="45.87021" lon="4.80731">
        <ele>401.1</ele>
        <time>2020-06-07T09:09:54.000Z</time>
      </trkpt>
      <trkpt lat="45.87023" lon="4.80734">
        <ele>400.7</ele>
        <time>2020-06-07T09:09:55.000Z</time>
      </trkpt>
      <trkpt lat="45.87025" lon="4.80738">
        <ele>400.3</ele>
        <time>2020-06-07T09:09:56.000Z</time>
      </trkpt>
      <trkpt lat="45.87028" lon="4.80743">
        <ele>399.7</ele>
        <time>2020-06-07T09:09:57.000Z</time>
      </trkpt>
      <trkpt lat="45.8703" lon="4.80748">
        <ele>399.1</ele>
        <time>2020-06-07T09:09:58.000Z</time>
      </trkpt>
      <trkpt lat="45.87033" lon="4.80752">
        <ele>398.5</ele>
        <time>2020-06-07T09:09:59.000Z</time>
      </trkpt>
      <trkpt lat="45.87034" lon="4.80756">
        <ele>398.1</ele>
        <time>2020-06-07T09:10:00.000Z</time>
      </trkpt>
      <trkpt lat="45.87036" lon="4.8076">
        <ele>397.6</ele>
        <time>2020-06-07T09:10:01.000Z</time>
      </trkpt>
      <trkpt lat="45.87039" lon="4.80765">
        <ele>397</ele>
        <time>2020-06-07T09:10:02.000Z</time>
      </trkpt>
      <trkpt lat="45.87041" lon="4.8077">
        <ele>396.3</ele>
        <time>2020-06-07T09:10:03.000Z</time>
      </trkpt>
      <trkpt lat="45.87043" lon="4.80776">
        <ele>395.6</ele>
        <time>2020-06-07T09:10:04.000Z</time>
      </trkpt>
      <trkpt lat="45.87046" lon="4.80781">
        <ele>394.8</ele>
        <time>2020-06-07T09:10:05.000Z</time>
      </trkpt>
      <trkpt lat="45.87049" lon="4.80786">
        <ele>393.9</ele>
        <time>2020-06-07T09:10:06.000Z</time>
      </trkpt>
      <trkpt lat="45.87051" lon="4.8079">
        <ele>393.2</ele>
        <time>2020-06-07T09:10:07.000Z</time>
      </trkpt>
      <trkpt lat="45.87054" lon="4.80794">
        <ele>392.5</ele>
        <time>2020-06-07T09:10:08.000Z</time>
      </trkpt>
      <trkpt lat="45.87055" lon="4.80797">
        <ele>392</ele>
        <time>2020-06-07T09:10:09.000Z</time>
      </trkpt>
      <trkpt lat="45.87055" lon="4.80801">
        <ele>391.4</ele>
        <time>2020-06-07T09:10:10.000Z</time>
      </trkpt>
      <trkpt lat="45.87056" lon="4.80803">
        <ele>391</ele>
        <time>2020-06-07T09:10:11.000Z</time>
      </trkpt>
      <trkpt lat="45.87057" lon="4.80806">
        <ele>390.5</ele>
        <time>2020-06-07T09:10:12.000Z</time>
      </trkpt>
      <trkpt lat="45.87058" lon="4.80807">
        <ele>390.3</ele>
        <time>2020-06-07T09:10:13.000Z</time>
      </trkpt>
      <trkpt lat="45.8706" lon="4.80809">
        <ele>389.8</ele>
        <time>2020-06-07T09:10:14.000Z</time>
      </trkpt>
      <trkpt lat="45.8706" lon="4.80812">
        <ele>389.4</ele>
        <time>2020-06-07T09:10:15.000Z</time>
      </trkpt>
      <trkpt lat="45.87059" lon="4.80815">
        <ele>388.9</ele>
        <time>2020-06-07T09:10:16.000Z</time>
      </trkpt>
      <trkpt lat="45.87061" lon="4.80817">
        <ele>388.4</ele>
        <time>2020-06-07T09:10:17.000Z</time>
      </trkpt>
      <trkpt lat="45.8706" lon="4.80819">
        <ele>385</ele>
        <time>2020-06-07T09:10:18.000Z</time>
      </trkpt>
      <trkpt lat="45.8706" lon="4.8082">
        <ele>384.9</ele>
        <time>2020-06-07T09:10:19.000Z</time>
      </trkpt>
      <trkpt lat="45.87058" lon="4.80821">
        <ele>384.8</ele>
        <time>2020-06-07T09:10:20.000Z</time>
      </trkpt>
      <trkpt lat="45.87056" lon="4.80823">
        <ele>384.7</ele>
        <time>2020-06-07T09:10:21.000Z</time>
      </trkpt>
      <trkpt lat="45.87053" lon="4.80826">
        <ele>384.5</ele>
        <time>2020-06-07T09:10:22.000Z</time>
      </trkpt>
      <trkpt lat="45.87052" lon="4.80827">
        <ele>384.4</ele>
        <time>2020-06-07T09:10:23.000Z</time>
      </trkpt>
      <trkpt lat="45.87053" lon="4.80829">
        <ele>384.4</ele>
        <time>2020-06-07T09:10:24.000Z</time>
      </trkpt>
      <trkpt lat="45.87056" lon="4.80842">
        <ele>383.7</ele>
        <time>2020-06-07T09:10:32.000Z</time>
      </trkpt>
      <trkpt lat="45.87054" lon="4.80846">
        <ele>383.5</ele>
        <time>2020-06-07T09:10:33.000Z</time>
      </trkpt>
      <trkpt lat="45.87052" lon="4.80851">
        <ele>383.3</ele>
        <time>2020-06-07T09:10:34.000Z</time>
      </trkpt>
      <trkpt lat="45.87049" lon="4.80855">
        <ele>383.1</ele>
        <time>2020-06-07T09:10:35.000Z</time>
      </trkpt>
      <trkpt lat="45.87047" lon="4.8086">
        <ele>383</ele>
        <time>2020-06-07T09:10:36.000Z</time>
      </trkpt>
      <trkpt lat="45.87045" lon="4.80865">
        <ele>382.8</ele>
        <time>2020-06-07T09:10:37.000Z</time>
      </trkpt>
      <trkpt lat="45.87042" lon="4.8087">
        <ele>382.7</ele>
        <time>2020-06-07T09:10:38.000Z</time>
      </trkpt>
      <trkpt lat="45.8704" lon="4.80874">
        <ele>382.6</ele>
        <time>2020-06-07T09:10:39.000Z</time>
      </trkpt>
      <trkpt lat="45.87037" lon="4.80879">
        <ele>382.5</ele>
        <time>2020-06-07T09:10:40.000Z</time>
      </trkpt>
      <trkpt lat="45.87034" lon="4.80884">
        <ele>382.4</ele>
        <time>2020-06-07T09:10:41.000Z</time>
      </trkpt>
      <trkpt lat="45.87032" lon="4.80889">
        <ele>382.4</ele>
        <time>2020-06-07T09:10:42.000Z</time>
      </trkpt>
      <trkpt lat="45.87029" lon="4.80893">
        <ele>382.3</ele>
        <time>2020-06-07T09:10:43.000Z</time>
      </trkpt>
      <trkpt lat="45.87027" lon="4.80898">
        <ele>382.2</ele>
        <time>2020-06-07T09:10:44.000Z</time>
      </trkpt>
      <trkpt lat="45.87024" lon="4.80903">
        <ele>382.2</ele>
        <time>2020-06-07T09:10:45.000Z</time>
      </trkpt>
      <trkpt lat="45.87022" lon="4.80907">
        <ele>382.1</ele>
        <time>2020-06-07T09:10:46.000Z</time>
      </trkpt>
      <trkpt lat="45.87019" lon="4.80911">
        <ele>382.1</ele>
        <time>2020-06-07T09:10:47.000Z</time>
      </trkpt>
      <trkpt lat="45.87016" lon="4.80915">
        <ele>382.1</ele>
        <time>2020-06-07T09:10:48.000Z</time>
      </trkpt>
      <trkpt lat="45.87014" lon="4.80918">
        <ele>382.1</ele>
        <time>2020-06-07T09:10:49.000Z</time>
      </trkpt>
      <trkpt lat="45.87013" lon="4.80921">
        <ele>382.1</ele>
        <time>2020-06-07T09:10:50.000Z</time>
      </trkpt>
      <trkpt lat="45.8701" lon="4.80926">
        <ele>382.1</ele>
        <time>2020-06-07T09:10:51.000Z</time>
      </trkpt>
      <trkpt lat="45.87008" lon="4.8093">
        <ele>382.2</ele>
        <time>2020-06-07T09:10:52.000Z</time>
      </trkpt>
      <trkpt lat="45.87008" lon="4.80936">
        <ele>382.2</ele>
        <time>2020-06-07T09:10:53.000Z</time>
      </trkpt>
      <trkpt lat="45.87006" lon="4.80945">
        <ele>382.3</ele>
        <time>2020-06-07T09:10:54.000Z</time>
      </trkpt>
      <trkpt lat="45.87003" lon="4.80952">
        <ele>382.2</ele>
        <time>2020-06-07T09:10:55.000Z</time>
      </trkpt>
      <trkpt lat="45.87002" lon="4.8096">
        <ele>382.1</ele>
        <time>2020-06-07T09:10:56.000Z</time>
      </trkpt>
      <trkpt lat="45.86999" lon="4.80967">
        <ele>382.1</ele>
        <time>2020-06-07T09:10:57.000Z</time>
      </trkpt>
      <trkpt lat="45.87001" lon="4.80974">
        <ele>382</ele>
        <time>2020-06-07T09:10:58.000Z</time>
      </trkpt>
      <trkpt lat="45.87002" lon="4.80981">
        <ele>381.8</ele>
        <time>2020-06-07T09:10:59.000Z</time>
      </trkpt>
      <trkpt lat="45.87002" lon="4.80987">
        <ele>381.7</ele>
        <time>2020-06-07T09:11:00.000Z</time>
      </trkpt>
      <trkpt lat="45.87001" lon="4.80994">
        <ele>381.6</ele>
        <time>2020-06-07T09:11:01.000Z</time>
      </trkpt>
      <trkpt lat="45.87" lon="4.81001">
        <ele>381.4</ele>
        <time>2020-06-07T09:11:02.000Z</time>
      </trkpt>
      <trkpt lat="45.86999" lon="4.81007">
        <ele>381.2</ele>
        <time>2020-06-07T09:11:03.000Z</time>
      </trkpt>
      <trkpt lat="45.86997" lon="4.81014">
        <ele>381.1</ele>
        <time>2020-06-07T09:11:04.000Z</time>
      </trkpt>
      <trkpt lat="45.86995" lon="4.8102">
        <ele>381</ele>
        <time>2020-06-07T09:11:05.000Z</time>
      </trkpt>
      <trkpt lat="45.86993" lon="4.81027">
        <ele>380.8</ele>
        <time>2020-06-07T09:11:06.000Z</time>
      </trkpt>
      <trkpt lat="45.86991" lon="4.81033">
        <ele>380.7</ele>
        <time>2020-06-07T09:11:07.000Z</time>
      </trkpt>
      <trkpt lat="45.86989" lon="4.81039">
        <ele>380.6</ele>
        <time>2020-06-07T09:11:08.000Z</time>
      </trkpt>
      <trkpt lat="45.86986" lon="4.81045">
        <ele>380.5</ele>
        <time>2020-06-07T09:11:09.000Z</time>
      </trkpt>
      <trkpt lat="45.86983" lon="4.81051">
        <ele>380.3</ele>
        <time>2020-06-07T09:11:10.000Z</time>
      </trkpt>
      <trkpt lat="45.86979" lon="4.81057">
        <ele>380.1</ele>
        <time>2020-06-07T09:11:11.000Z</time>
      </trkpt>
      <trkpt lat="45.86975" lon="4.81064">
        <ele>379.9</ele>
        <time>2020-06-07T09:11:12.000Z</time>
      </trkpt>
      <trkpt lat="45.86972" lon="4.8107">
        <ele>379.7</ele>
        <time>2020-06-07T09:11:13.000Z</time>
      </trkpt>
      <trkpt lat="45.86968" lon="4.81076">
        <ele>379.5</ele>
        <time>2020-06-07T09:11:14.000Z</time>
      </trkpt>
      <trkpt lat="45.86965" lon="4.81082">
        <ele>379.2</ele>
        <time>2020-06-07T09:11:15.000Z</time>
      </trkpt>
      <trkpt lat="45.86961" lon="4.81088">
        <ele>379</ele>
        <time>2020-06-07T09:11:16.000Z</time>
      </trkpt>
      <trkpt lat="45.86957" lon="4.81095">
        <ele>378.7</ele>
        <time>2020-06-07T09:11:17.000Z</time>
      </trkpt>
      <trkpt lat="45.86955" lon="4.81101">
        <ele>378.4</ele>
        <time>2020-06-07T09:11:18.000Z</time>
      </trkpt>
      <trkpt lat="45.86952" lon="4.81109">
        <ele>378.1</ele>
        <time>2020-06-07T09:11:19.000Z</time>
      </trkpt>
      <trkpt lat="45.86949" lon="4.81115">
        <ele>377.8</ele>
        <time>2020-06-07T09:11:20.000Z</time>
      </trkpt>
      <trkpt lat="45.86946" lon="4.81121">
        <ele>377.4</ele>
        <time>2020-06-07T09:11:21.000Z</time>
      </trkpt>
      <trkpt lat="45.86943" lon="4.81127">
        <ele>377.1</ele>
        <time>2020-06-07T09:11:22.000Z</time>
      </trkpt>
      <trkpt lat="45.8694" lon="4.81132">
        <ele>376.8</ele>
        <time>2020-06-07T09:11:23.000Z</time>
      </trkpt>
      <trkpt lat="45.86937" lon="4.81137">
        <ele>376.4</ele>
        <time>2020-06-07T09:11:24.000Z</time>
      </trkpt>
      <trkpt lat="45.86934" lon="4.81142">
        <ele>376</ele>
        <time>2020-06-07T09:11:25.000Z</time>
      </trkpt>
      <trkpt lat="45.8693" lon="4.81147">
        <ele>375.5</ele>
        <time>2020-06-07T09:11:26.000Z</time>
      </trkpt>
      <trkpt lat="45.86927" lon="4.8115">
        <ele>375.1</ele>
        <time>2020-06-07T09:11:27.000Z</time>
      </trkpt>
      <trkpt lat="45.86925" lon="4.81153">
        <ele>374.8</ele>
        <time>2020-06-07T09:11:28.000Z</time>
      </trkpt>
      <trkpt lat="45.86923" lon="4.81155">
        <ele>374.5</ele>
        <time>2020-06-07T09:11:29.000Z</time>
      </trkpt>
      <trkpt lat="45.86921" lon="4.81156">
        <ele>374.2</ele>
        <time>2020-06-07T09:11:30.000Z</time>
      </trkpt>
      <trkpt lat="45.86919" lon="4.81158">
        <ele>373.8</ele>
        <time>2020-06-07T09:11:31.000Z</time>
      </trkpt>
      <trkpt lat="45.86916" lon="4.8116">
        <ele>370.9</ele>
        <time>2020-06-07T09:11:32.000Z</time>
      </trkpt>
      <trkpt lat="45.86914" lon="4.81161">
        <ele>371.2</ele>
        <time>2020-06-07T09:11:33.000Z</time>
      </trkpt>
      <trkpt lat="45.86912" lon="4.81162">
        <ele>371.4</ele>
        <time>2020-06-07T09:11:34.000Z</time>
      </trkpt>
      <trkpt lat="45.8691" lon="4.81162">
        <ele>371.6</ele>
        <time>2020-06-07T09:11:35.000Z</time>
      </trkpt>
      <trkpt lat="45.86909" lon="4.81161">
        <ele>371.8</ele>
        <time>2020-06-07T09:11:36.000Z</time>
      </trkpt>
      <trkpt lat="45.86909" lon="4.81159">
        <ele>372</ele>
        <time>2020-06-07T09:11:37.000Z</time>
      </trkpt>
      <trkpt lat="45.86908" lon="4.81157">
        <ele>372.1</ele>
        <time>2020-06-07T09:11:38.000Z</time>
      </trkpt>
      <trkpt lat="45.86908" lon="4.81155">
        <ele>372.3</ele>
        <time>2020-06-07T09:11:39.000Z</time>
      </trkpt>
      <trkpt lat="45.86908" lon="4.81154">
        <ele>372.4</ele>
        <time>2020-06-07T09:11:40.000Z</time>
      </trkpt>
      <trkpt lat="45.86907" lon="4.81152">
        <ele>372.6</ele>
        <time>2020-06-07T09:11:41.000Z</time>
      </trkpt>
      <trkpt lat="45.86907" lon="4.8115">
        <ele>372.8</ele>
        <time>2020-06-07T09:11:42.000Z</time>
      </trkpt>
      <trkpt lat="45.86906" lon="4.81148">
        <ele>372.9</ele>
        <time>2020-06-07T09:11:43.000Z</time>
      </trkpt>
      <trkpt lat="45.86906" lon="4.81146">
        <ele>373</ele>
        <time>2020-06-07T09:11:44.000Z</time>
      </trkpt>
      <trkpt lat="45.86906" lon="4.81144">
        <ele>373.2</ele>
        <time>2020-06-07T09:11:45.000Z</time>
      </trkpt>
      <trkpt lat="45.86904" lon="4.81142">
        <ele>373.4</ele>
        <time>2020-06-07T09:11:46.000Z</time>
      </trkpt>
      <trkpt lat="45.86904" lon="4.81139">
        <ele>373.7</ele>
        <time>2020-06-07T09:11:47.000Z</time>
      </trkpt>
      <trkpt lat="45.86903" lon="4.81136">
        <ele>374</ele>
        <time>2020-06-07T09:11:48.000Z</time>
      </trkpt>
      <trkpt lat="45.86903" lon="4.81132">
        <ele>374.2</ele>
        <time>2020-06-07T09:11:49.000Z</time>
      </trkpt>
      <trkpt lat="45.86902" lon="4.81129">
        <ele>374.5</ele>
        <time>2020-06-07T09:11:50.000Z</time>
      </trkpt>
      <trkpt lat="45.86901" lon="4.81126">
        <ele>374.8</ele>
        <time>2020-06-07T09:11:51.000Z</time>
      </trkpt>
      <trkpt lat="45.86901" lon="4.81123">
        <ele>375.1</ele>
        <time>2020-06-07T09:11:52.000Z</time>
      </trkpt>
      <trkpt lat="45.869" lon="4.81119">
        <ele>375.4</ele>
        <time>2020-06-07T09:11:53.000Z</time>
      </trkpt>
      <trkpt lat="45.86898" lon="4.81115">
        <ele>375.7</ele>
        <time>2020-06-07T09:11:54.000Z</time>
      </trkpt>
      <trkpt lat="45.86897" lon="4.81112">
        <ele>376</ele>
        <time>2020-06-07T09:11:55.000Z</time>
      </trkpt>
      <trkpt lat="45.86896" lon="4.81109">
        <ele>376.3</ele>
        <time>2020-06-07T09:11:56.000Z</time>
      </trkpt>
      <trkpt lat="45.86896" lon="4.81106">
        <ele>376.5</ele>
        <time>2020-06-07T09:11:57.000Z</time>
      </trkpt>
      <trkpt lat="45.86895" lon="4.81104">
        <ele>376.7</ele>
        <time>2020-06-07T09:11:58.000Z</time>
      </trkpt>
      <trkpt lat="45.86895" lon="4.81101">
        <ele>376.9</ele>
        <time>2020-06-07T09:11:59.000Z</time>
      </trkpt>
      <trkpt lat="45.86894" lon="4.81099">
        <ele>377.1</ele>
        <time>2020-06-07T09:12:00.000Z</time>
      </trkpt>
      <trkpt lat="45.86893" lon="4.81097">
        <ele>377.3</ele>
        <time>2020-06-07T09:12:01.000Z</time>
      </trkpt>
      <trkpt lat="45.86892" lon="4.81095">
        <ele>377.5</ele>
        <time>2020-06-07T09:12:02.000Z</time>
      </trkpt>
      <trkpt lat="45.86892" lon="4.81093">
        <ele>377.6</ele>
        <time>2020-06-07T09:12:03.000Z</time>
      </trkpt>
      <trkpt lat="45.86892" lon="4.81091">
        <ele>377.8</ele>
        <time>2020-06-07T09:12:04.000Z</time>
      </trkpt>
      <trkpt lat="45.86891" lon="4.81089">
        <ele>378</ele>
        <time>2020-06-07T09:12:05.000Z</time>
      </trkpt>
      <trkpt lat="45.86891" lon="4.81085">
        <ele>378.3</ele>
        <time>2020-06-07T09:12:06.000Z</time>
      </trkpt>
      <trkpt lat="45.8689" lon="4.81082">
        <ele>378.5</ele>
        <time>2020-06-07T09:12:07.000Z</time>
      </trkpt>
      <trkpt lat="45.86889" lon="4.81079">
        <ele>378.8</ele>
        <time>2020-06-07T09:12:08.000Z</time>
      </trkpt>
      <trkpt lat="45.86887" lon="4.81076">
        <ele>379</ele>
        <time>2020-06-07T09:12:09.000Z</time>
      </trkpt>
      <trkpt lat="45.86886" lon="4.81074">
        <ele>379.3</ele>
        <time>2020-06-07T09:12:10.000Z</time>
      </trkpt>
      <trkpt lat="45.86885" lon="4.81072">
        <ele>379.5</ele>
        <time>2020-06-07T09:12:11.000Z</time>
      </trkpt>
      <trkpt lat="45.86884" lon="4.81068">
        <ele>379.7</ele>
        <time>2020-06-07T09:12:12.000Z</time>
      </trkpt>
      <trkpt lat="45.86884" lon="4.81065">
        <ele>380</ele>
        <time>2020-06-07T09:12:13.000Z</time>
      </trkpt>
      <trkpt lat="45.86883" lon="4.81062">
        <ele>380.2</ele>
        <time>2020-06-07T09:12:14.000Z</time>
      </trkpt>
      <trkpt lat="45.86883" lon="4.81059">
        <ele>380.5</ele>
        <time>2020-06-07T09:12:15.000Z</time>
      </trkpt>
      <trkpt lat="45.86882" lon="4.81057">
        <ele>380.7</ele>
        <time>2020-06-07T09:12:16.000Z</time>
      </trkpt>
      <trkpt lat="45.86882" lon="4.81054">
        <ele>380.9</ele>
        <time>2020-06-07T09:12:17.000Z</time>
      </trkpt>
      <trkpt lat="45.86881" lon="4.81052">
        <ele>381.1</ele>
        <time>2020-06-07T09:12:18.000Z</time>
      </trkpt>
      <trkpt lat="45.8688" lon="4.81049">
        <ele>381.3</ele>
        <time>2020-06-07T09:12:19.000Z</time>
      </trkpt>
      <trkpt lat="45.86879" lon="4.81047">
        <ele>381.5</ele>
        <time>2020-06-07T09:12:20.000Z</time>
      </trkpt>
      <trkpt lat="45.86878" lon="4.81045">
        <ele>381.7</ele>
        <time>2020-06-07T09:12:21.000Z</time>
      </trkpt>
      <trkpt lat="45.86878" lon="4.81042">
        <ele>381.9</ele>
        <time>2020-06-07T09:12:22.000Z</time>
      </trkpt>
      <trkpt lat="45.86877" lon="4.81041">
        <ele>382</ele>
        <time>2020-06-07T09:12:23.000Z</time>
      </trkpt>
      <trkpt lat="45.86876" lon="4.81039">
        <ele>382.2</ele>
        <time>2020-06-07T09:12:24.000Z</time>
      </trkpt>
      <trkpt lat="45.86876" lon="4.81037">
        <ele>382.3</ele>
        <time>2020-06-07T09:12:25.000Z</time>
      </trkpt>
      <trkpt lat="45.86876" lon="4.81036">
        <ele>382.4</ele>
        <time>2020-06-07T09:12:26.000Z</time>
      </trkpt>
      <trkpt lat="45.86875" lon="4.81034">
        <ele>382.6</ele>
        <time>2020-06-07T09:12:27.000Z</time>
      </trkpt>
      <trkpt lat="45.86875" lon="4.81033">
        <ele>382.7</ele>
        <time>2020-06-07T09:12:28.000Z</time>
      </trkpt>
      <trkpt lat="45.86875" lon="4.81031">
        <ele>382.8</ele>
        <time>2020-06-07T09:12:29.000Z</time>
      </trkpt>
      <trkpt lat="45.86875" lon="4.81031">
        <ele>382.8</ele>
        <time>2020-06-07T09:12:30.000Z</time>
      </trkpt>
      <trkpt lat="45.8688" lon="4.81048">
        <ele>384.2</ele>
        <time>2020-06-07T09:13:00.000Z</time>
      </trkpt>
      <trkpt lat="45.86881" lon="4.8105">
        <ele>384.3</ele>
        <time>2020-06-07T09:13:01.000Z</time>
      </trkpt>
      <trkpt lat="45.86882" lon="4.81051">
        <ele>384.4</ele>
        <time>2020-06-07T09:13:02.000Z</time>
      </trkpt>
      <trkpt lat="45.86882" lon="4.81053">
        <ele>384.5</ele>
        <time>2020-06-07T09:13:03.000Z</time>
      </trkpt>
      <trkpt lat="45.86882" lon="4.81053">
        <ele>384.5</ele>
        <time>2020-06-07T09:13:04.000Z</time>
      </trkpt>
      <trkpt lat="45.86882" lon="4.81054">
        <ele>384.5</ele>
        <time>2020-06-07T09:13:05.000Z</time>
      </trkpt>
      <trkpt lat="45.86878" lon="4.81037">
        <ele>385.4</ele>
        <time>2020-06-07T09:17:07.000Z</time>
      </trkpt>
      <trkpt lat="45.86878" lon="4.81034">
        <ele>385.5</ele>
        <time>2020-06-07T09:17:08.000Z</time>
      </trkpt>
      <trkpt lat="45.86877" lon="4.81031">
        <ele>385.6</ele>
        <time>2020-06-07T09:17:09.000Z</time>
      </trkpt>
      <trkpt lat="45.86876" lon="4.81029">
        <ele>385.7</ele>
        <time>2020-06-07T09:17:10.000Z</time>
      </trkpt>
      <trkpt lat="45.86875" lon="4.81026">
        <ele>385.8</ele>
        <time>2020-06-07T09:17:11.000Z</time>
      </trkpt>
      <trkpt lat="45.86874" lon="4.81024">
        <ele>385.9</ele>
        <time>2020-06-07T09:17:12.000Z</time>
      </trkpt>
      <trkpt lat="45.86873" lon="4.81022">
        <ele>386</ele>
        <time>2020-06-07T09:17:13.000Z</time>
      </trkpt>
      <trkpt lat="45.86873" lon="4.8102">
        <ele>386.1</ele>
        <time>2020-06-07T09:17:14.000Z</time>
      </trkpt>
      <trkpt lat="45.86872" lon="4.81017">
        <ele>386.2</ele>
        <time>2020-06-07T09:17:15.000Z</time>
      </trkpt>
      <trkpt lat="45.86872" lon="4.81014">
        <ele>386.3</ele>
        <time>2020-06-07T09:17:16.000Z</time>
      </trkpt>
      <trkpt lat="45.86871" lon="4.8101">
        <ele>386.4</ele>
        <time>2020-06-07T09:17:17.000Z</time>
      </trkpt>
      <trkpt lat="45.8687" lon="4.81006">
        <ele>386.6</ele>
        <time>2020-06-07T09:17:18.000Z</time>
      </trkpt>
      <trkpt lat="45.86869" lon="4.81002">
        <ele>386.7</ele>
        <time>2020-06-07T09:17:19.000Z</time>
      </trkpt>
      <trkpt lat="45.86868" lon="4.80999">
        <ele>386.8</ele>
        <time>2020-06-07T09:17:20.000Z</time>
      </trkpt>
      <trkpt lat="45.86867" lon="4.80995">
        <ele>386.9</ele>
        <time>2020-06-07T09:17:21.000Z</time>
      </trkpt>
      <trkpt lat="45.86866" lon="4.80992">
        <ele>387</ele>
        <time>2020-06-07T09:17:22.000Z</time>
      </trkpt>
      <trkpt lat="45.86866" lon="4.80989">
        <ele>387.1</ele>
        <time>2020-06-07T09:17:23.000Z</time>
      </trkpt>
      <trkpt lat="45.86865" lon="4.80986">
        <ele>387.2</ele>
        <time>2020-06-07T09:17:24.000Z</time>
      </trkpt>
      <trkpt lat="45.86864" lon="4.80983">
        <ele>387.4</ele>
        <time>2020-06-07T09:17:25.000Z</time>
      </trkpt>
      <trkpt lat="45.86863" lon="4.80979">
        <ele>387.5</ele>
        <time>2020-06-07T09:17:26.000Z</time>
      </trkpt>
      <trkpt lat="45.86862" lon="4.80975">
        <ele>387.6</ele>
        <time>2020-06-07T09:17:27.000Z</time>
      </trkpt>
      <trkpt lat="45.86861" lon="4.80971">
        <ele>387.8</ele>
        <time>2020-06-07T09:17:28.000Z</time>
      </trkpt>
      <trkpt lat="45.8686" lon="4.80968">
        <ele>387.9</ele>
        <time>2020-06-07T09:17:29.000Z</time>
      </trkpt>
      <trkpt lat="45.8686" lon="4.80965">
        <ele>388</ele>
        <time>2020-06-07T09:17:30.000Z</time>
      </trkpt>
      <trkpt lat="45.86859" lon="4.80961">
        <ele>388.1</ele>
        <time>2020-06-07T09:17:31.000Z</time>
      </trkpt>
      <trkpt lat="45.86859" lon="4.80959">
        <ele>388.2</ele>
        <time>2020-06-07T09:17:32.000Z</time>
      </trkpt>
      <trkpt lat="45.86859" lon="4.80956">
        <ele>388.3</ele>
        <time>2020-06-07T09:17:33.000Z</time>
      </trkpt>
      <trkpt lat="45.86858" lon="4.80954">
        <ele>388.4</ele>
        <time>2020-06-07T09:17:34.000Z</time>
      </trkpt>
      <trkpt lat="45.86858" lon="4.80952">
        <ele>388.5</ele>
        <time>2020-06-07T09:17:35.000Z</time>
      </trkpt>
      <trkpt lat="45.86857" lon="4.80948">
        <ele>388.7</ele>
        <time>2020-06-07T09:17:36.000Z</time>
      </trkpt>
      <trkpt lat="45.86857" lon="4.80945">
        <ele>388.8</ele>
        <time>2020-06-07T09:17:37.000Z</time>
      </trkpt>
      <trkpt lat="45.86855" lon="4.80942">
        <ele>389</ele>
        <time>2020-06-07T09:17:38.000Z</time>
      </trkpt>
      <trkpt lat="45.86855" lon="4.8094">
        <ele>389.1</ele>
        <time>2020-06-07T09:17:39.000Z</time>
      </trkpt>
      <trkpt lat="45.86854" lon="4.80937">
        <ele>389.2</ele>
        <time>2020-06-07T09:17:40.000Z</time>
      </trkpt>
      <trkpt lat="45.86853" lon="4.80934">
        <ele>389.4</ele>
        <time>2020-06-07T09:17:41.000Z</time>
      </trkpt>
      <trkpt lat="45.86853" lon="4.80931">
        <ele>389.5</ele>
        <time>2020-06-07T09:17:42.000Z</time>
      </trkpt>
      <trkpt lat="45.86852" lon="4.80928">
        <ele>389.7</ele>
        <time>2020-06-07T09:17:43.000Z</time>
      </trkpt>
      <trkpt lat="45.86852" lon="4.80925">
        <ele>389.8</ele>
        <time>2020-06-07T09:17:44.000Z</time>
      </trkpt>
      <trkpt lat="45.86851" lon="4.80922">
        <ele>390</ele>
        <time>2020-06-07T09:17:45.000Z</time>
      </trkpt>
      <trkpt lat="45.86851" lon="4.8092">
        <ele>390.1</ele>
        <time>2020-06-07T09:17:46.000Z</time>
      </trkpt>
      <trkpt lat="45.86851" lon="4.80916">
        <ele>390.3</ele>
        <time>2020-06-07T09:17:47.000Z</time>
      </trkpt>
      <trkpt lat="45.8685" lon="4.80913">
        <ele>390.4</ele>
        <time>2020-06-07T09:17:48.000Z</time>
      </trkpt>
      <trkpt lat="45.8685" lon="4.80909">
        <ele>390.6</ele>
        <time>2020-06-07T09:17:49.000Z</time>
      </trkpt>
      <trkpt lat="45.8685" lon="4.80906">
        <ele>390.7</ele>
        <time>2020-06-07T09:17:50.000Z</time>
      </trkpt>
      <trkpt lat="45.8685" lon="4.80903">
        <ele>390.8</ele>
        <time>2020-06-07T09:17:51.000Z</time>
      </trkpt>
      <trkpt lat="45.86849" lon="4.80899">
        <ele>391</ele>
        <time>2020-06-07T09:17:52.000Z</time>
      </trkpt>
      <trkpt lat="45.86849" lon="4.80893">
        <ele>391.2</ele>
        <time>2020-06-07T09:17:53.000Z</time>
      </trkpt>
      <trkpt lat="45.86849" lon="4.80889">
        <ele>391.4</ele>
        <time>2020-06-07T09:17:54.000Z</time>
      </trkpt>
      <trkpt lat="45.86849" lon="4.80885">
        <ele>391.6</ele>
        <time>2020-06-07T09:17:55.000Z</time>
      </trkpt>
      <trkpt lat="45.86848" lon="4.80881">
        <ele>391.8</ele>
        <time>2020-06-07T09:17:56.000Z</time>
      </trkpt>
      <trkpt lat="45.86848" lon="4.80877">
        <ele>391.9</ele>
        <time>2020-06-07T09:17:57.000Z</time>
      </trkpt>
      <trkpt lat="45.86847" lon="4.80873">
        <ele>392</ele>
        <time>2020-06-07T09:17:58.000Z</time>
      </trkpt>
      <trkpt lat="45.86846" lon="4.80869">
        <ele>392.1</ele>
        <time>2020-06-07T09:17:59.000Z</time>
      </trkpt>
      <trkpt lat="45.86845" lon="4.80865">
        <ele>392.3</ele>
        <time>2020-06-07T09:18:00.000Z</time>
      </trkpt>
      <trkpt lat="45.86845" lon="4.80861">
        <ele>392.4</ele>
        <time>2020-06-07T09:18:01.000Z</time>
      </trkpt>
      <trkpt lat="45.86843" lon="4.80856">
        <ele>392.5</ele>
        <time>2020-06-07T09:18:02.000Z</time>
      </trkpt>
      <trkpt lat="45.86843" lon="4.80851">
        <ele>392.7</ele>
        <time>2020-06-07T09:18:03.000Z</time>
      </trkpt>
      <trkpt lat="45.86842" lon="4.80847">
        <ele>392.8</ele>
        <time>2020-06-07T09:18:04.000Z</time>
      </trkpt>
      <trkpt lat="45.86842" lon="4.80843">
        <ele>393</ele>
        <time>2020-06-07T09:18:05.000Z</time>
      </trkpt>
      <trkpt lat="45.86841" lon="4.80839">
        <ele>393.1</ele>
        <time>2020-06-07T09:18:06.000Z</time>
      </trkpt>
      <trkpt lat="45.86841" lon="4.80835">
        <ele>393.3</ele>
        <time>2020-06-07T09:18:07.000Z</time>
      </trkpt>
      <trkpt lat="45.86841" lon="4.80831">
        <ele>393.5</ele>
        <time>2020-06-07T09:18:08.000Z</time>
      </trkpt>
      <trkpt lat="45.8684" lon="4.80827">
        <ele>393.7</ele>
        <time>2020-06-07T09:18:09.000Z</time>
      </trkpt>
      <trkpt lat="45.8684" lon="4.80824">
        <ele>393.8</ele>
        <time>2020-06-07T09:18:10.000Z</time>
      </trkpt>
      <trkpt lat="45.8684" lon="4.80819">
        <ele>394.1</ele>
        <time>2020-06-07T09:18:11.000Z</time>
      </trkpt>
      <trkpt lat="45.8684" lon="4.80817">
        <ele>394.2</ele>
        <time>2020-06-07T09:18:12.000Z</time>
      </trkpt>
      <trkpt lat="45.86839" lon="4.80812">
        <ele>394.4</ele>
        <time>2020-06-07T09:18:13.000Z</time>
      </trkpt>
      <trkpt lat="45.86839" lon="4.80809">
        <ele>394.6</ele>
        <time>2020-06-07T09:18:14.000Z</time>
      </trkpt>
      <trkpt lat="45.86837" lon="4.80804">
        <ele>394.9</ele>
        <time>2020-06-07T09:18:15.000Z</time>
      </trkpt>
      <trkpt lat="45.86836" lon="4.80799">
        <ele>395.1</ele>
        <time>2020-06-07T09:18:16.000Z</time>
      </trkpt>
      <trkpt lat="45.86836" lon="4.80796">
        <ele>395.3</ele>
        <time>2020-06-07T09:18:17.000Z</time>
      </trkpt>
      <trkpt lat="45.86836" lon="4.80792">
        <ele>395.5</ele>
        <time>2020-06-07T09:18:18.000Z</time>
      </trkpt>
      <trkpt lat="45.86835" lon="4.80789">
        <ele>395.7</ele>
        <time>2020-06-07T09:18:19.000Z</time>
      </trkpt>
      <trkpt lat="45.86835" lon="4.80786">
        <ele>395.9</ele>
        <time>2020-06-07T09:18:20.000Z</time>
      </trkpt>
      <trkpt lat="45.86835" lon="4.80782">
        <ele>396.1</ele>
        <time>2020-06-07T09:18:21.000Z</time>
      </trkpt>
      <trkpt lat="45.86833" lon="4.80777">
        <ele>396.4</ele>
        <time>2020-06-07T09:18:22.000Z</time>
      </trkpt>
      <trkpt lat="45.86833" lon="4.80774">
        <ele>396.6</ele>
        <time>2020-06-07T09:18:23.000Z</time>
      </trkpt>
      <trkpt lat="45.86832" lon="4.8077">
        <ele>396.8</ele>
        <time>2020-06-07T09:18:24.000Z</time>
      </trkpt>
      <trkpt lat="45.8683" lon="4.80766">
        <ele>397</ele>
        <time>2020-06-07T09:18:25.000Z</time>
      </trkpt>
      <trkpt lat="45.86829" lon="4.80762">
        <ele>397.2</ele>
        <time>2020-06-07T09:18:26.000Z</time>
      </trkpt>
      <trkpt lat="45.86829" lon="4.8076">
        <ele>397.4</ele>
        <time>2020-06-07T09:18:27.000Z</time>
      </trkpt>
      <trkpt lat="45.86828" lon="4.80757">
        <ele>397.5</ele>
        <time>2020-06-07T09:18:28.000Z</time>
      </trkpt>
      <trkpt lat="45.86828" lon="4.80755">
        <ele>397.6</ele>
        <time>2020-06-07T09:18:29.000Z</time>
      </trkpt>
      <trkpt lat="45.86827" lon="4.80754">
        <ele>397.7</ele>
        <time>2020-06-07T09:18:30.000Z</time>
      </trkpt>
      <trkpt lat="45.86826" lon="4.80753">
        <ele>397.8</ele>
        <time>2020-06-07T09:18:31.000Z</time>
      </trkpt>
      <trkpt lat="45.86825" lon="4.80753">
        <ele>397.9</ele>
        <time>2020-06-07T09:18:32.000Z</time>
      </trkpt>
      <trkpt lat="45.86823" lon="4.80752">
        <ele>398</ele>
        <time>2020-06-07T09:18:33.000Z</time>
      </trkpt>
      <trkpt lat="45.86822" lon="4.80751">
        <ele>399.2</ele>
        <time>2020-06-07T09:18:34.000Z</time>
      </trkpt>
      <trkpt lat="45.86821" lon="4.80751">
        <ele>398.9</ele>
        <time>2020-06-07T09:18:35.000Z</time>
      </trkpt>
      <trkpt lat="45.8682" lon="4.8075">
        <ele>398.6</ele>
        <time>2020-06-07T09:18:36.000Z</time>
      </trkpt>
      <trkpt lat="45.86819" lon="4.8075">
        <ele>398.3</ele>
        <time>2020-06-07T09:18:37.000Z</time>
      </trkpt>
      <trkpt lat="45.86818" lon="4.80749">
        <ele>398.1</ele>
        <time>2020-06-07T09:18:38.000Z</time>
      </trkpt>
      <trkpt lat="45.86817" lon="4.80748">
        <ele>397.7</ele>
        <time>2020-06-07T09:18:39.000Z</time>
      </trkpt>
      <trkpt lat="45.86816" lon="4.80748">
        <ele>397.6</ele>
        <time>2020-06-07T09:18:40.000Z</time>
      </trkpt>
      <trkpt lat="45.86808" lon="4.80753">
        <ele>394.7</ele>
        <time>2020-06-07T09:18:59.000Z</time>
      </trkpt>
      <trkpt lat="45.86806" lon="4.80754">
        <ele>394.1</ele>
        <time>2020-06-07T09:19:00.000Z</time>
      </trkpt>
      <trkpt lat="45.86804" lon="4.80754">
        <ele>393.5</ele>
        <time>2020-06-07T09:19:01.000Z</time>
      </trkpt>
      <trkpt lat="45.86803" lon="4.80754">
        <ele>393</ele>
        <time>2020-06-07T09:19:02.000Z</time>
      </trkpt>
      <trkpt lat="45.86801" lon="4.80754">
        <ele>392.2</ele>
        <time>2020-06-07T09:19:03.000Z</time>
      </trkpt>
      <trkpt lat="45.86798" lon="4.80754">
        <ele>391.4</ele>
        <time>2020-06-07T09:19:04.000Z</time>
      </trkpt>
      <trkpt lat="45.86797" lon="4.80754">
        <ele>390.9</ele>
        <time>2020-06-07T09:19:05.000Z</time>
      </trkpt>
      <trkpt lat="45.86795" lon="4.80754">
        <ele>390.3</ele>
        <time>2020-06-07T09:19:06.000Z</time>
      </trkpt>
      <trkpt lat="45.86793" lon="4.80753">
        <ele>389.6</ele>
        <time>2020-06-07T09:19:07.000Z</time>
      </trkpt>
      <trkpt lat="45.86791" lon="4.80753">
        <ele>388.9</ele>
        <time>2020-06-07T09:19:08.000Z</time>
      </trkpt>
      <trkpt lat="45.86789" lon="4.80753">
        <ele>388.2</ele>
        <time>2020-06-07T09:19:09.000Z</time>
      </trkpt>
      <trkpt lat="45.86787" lon="4.80754">
        <ele>387.5</ele>
        <time>2020-06-07T09:19:10.000Z</time>
      </trkpt>
      <trkpt lat="45.86785" lon="4.80753">
        <ele>386.8</ele>
        <time>2020-06-07T09:19:11.000Z</time>
      </trkpt>
      <trkpt lat="45.86784" lon="4.80751">
        <ele>386</ele>
        <time>2020-06-07T09:19:12.000Z</time>
      </trkpt>
      <trkpt lat="45.86782" lon="4.8075">
        <ele>385.4</ele>
        <time>2020-06-07T09:19:13.000Z</time>
      </trkpt>
      <trkpt lat="45.86781" lon="4.80748">
        <ele>384.7</ele>
        <time>2020-06-07T09:19:14.000Z</time>
      </trkpt>
      <trkpt lat="45.86779" lon="4.80746">
        <ele>384.1</ele>
        <time>2020-06-07T09:19:15.000Z</time>
      </trkpt>
      <trkpt lat="45.86778" lon="4.80745">
        <ele>383.5</ele>
        <time>2020-06-07T09:19:16.000Z</time>
      </trkpt>
      <trkpt lat="45.86776" lon="4.80744">
        <ele>382.7</ele>
        <time>2020-06-07T09:19:17.000Z</time>
      </trkpt>
      <trkpt lat="45.86774" lon="4.80743">
        <ele>381.9</ele>
        <time>2020-06-07T09:19:18.000Z</time>
      </trkpt>
      <trkpt lat="45.86772" lon="4.80743">
        <ele>381.3</ele>
        <time>2020-06-07T09:19:19.000Z</time>
      </trkpt>
      <trkpt lat="45.8677" lon="4.80743">
        <ele>380.5</ele>
        <time>2020-06-07T09:19:20.000Z</time>
      </trkpt>
      <trkpt lat="45.86767" lon="4.80743">
        <ele>379.6</ele>
        <time>2020-06-07T09:19:21.000Z</time>
      </trkpt>
      <trkpt lat="45.86765" lon="4.80743">
        <ele>378.8</ele>
        <time>2020-06-07T09:19:22.000Z</time>
      </trkpt>
      <trkpt lat="45.86763" lon="4.80744">
        <ele>378.3</ele>
        <time>2020-06-07T09:19:23.000Z</time>
      </trkpt>
      <trkpt lat="45.86762" lon="4.80743">
        <ele>377.7</ele>
        <time>2020-06-07T09:19:24.000Z</time>
      </trkpt>
      <trkpt lat="45.8676" lon="4.80741">
        <ele>377.1</ele>
        <time>2020-06-07T09:19:25.000Z</time>
      </trkpt>
      <trkpt lat="45.86759" lon="4.80739">
        <ele>376.4</ele>
        <time>2020-06-07T09:19:26.000Z</time>
      </trkpt>
      <trkpt lat="45.86757" lon="4.80735">
        <ele>375.4</ele>
        <time>2020-06-07T09:19:27.000Z</time>
      </trkpt>
      <trkpt lat="45.86755" lon="4.80733">
        <ele>374.5</ele>
        <time>2020-06-07T09:19:28.000Z</time>
      </trkpt>
      <trkpt lat="45.86753" lon="4.80732">
        <ele>373.8</ele>
        <time>2020-06-07T09:19:29.000Z</time>
      </trkpt>
      <trkpt lat="45.86751" lon="4.80732">
        <ele>373</ele>
        <time>2020-06-07T09:19:30.000Z</time>
      </trkpt>
      <trkpt lat="45.86749" lon="4.80731">
        <ele>372.3</ele>
        <time>2020-06-07T09:19:31.000Z</time>
      </trkpt>
      <trkpt lat="45.86747" lon="4.80731">
        <ele>371.5</ele>
        <time>2020-06-07T09:19:32.000Z</time>
      </trkpt>
      <trkpt lat="45.86744" lon="4.80731">
        <ele>370.8</ele>
        <time>2020-06-07T09:19:33.000Z</time>
      </trkpt>
      <trkpt lat="45.86743" lon="4.80731">
        <ele>370.3</ele>
        <time>2020-06-07T09:19:34.000Z</time>
      </trkpt>
      <trkpt lat="45.86742" lon="4.80732">
        <ele>369.7</ele>
        <time>2020-06-07T09:19:35.000Z</time>
      </trkpt>
      <trkpt lat="45.86741" lon="4.80733">
        <ele>369.3</ele>
        <time>2020-06-07T09:19:36.000Z</time>
      </trkpt>
      <trkpt lat="45.86739" lon="4.80735">
        <ele>368.5</ele>
        <time>2020-06-07T09:19:37.000Z</time>
      </trkpt>
      <trkpt lat="45.86737" lon="4.80737">
        <ele>367.5</ele>
        <time>2020-06-07T09:19:38.000Z</time>
      </trkpt>
      <trkpt lat="45.86735" lon="4.80739">
        <ele>366.6</ele>
        <time>2020-06-07T09:19:39.000Z</time>
      </trkpt>
      <trkpt lat="45.86734" lon="4.8074">
        <ele>366.1</ele>
        <time>2020-06-07T09:19:40.000Z</time>
      </trkpt>
      <trkpt lat="45.86732" lon="4.80742">
        <ele>365.3</ele>
        <time>2020-06-07T09:19:41.000Z</time>
      </trkpt>
      <trkpt lat="45.86731" lon="4.80744">
        <ele>364.7</ele>
        <time>2020-06-07T09:19:42.000Z</time>
      </trkpt>
      <trkpt lat="45.86731" lon="4.80746">
        <ele>364.1</ele>
        <time>2020-06-07T09:19:43.000Z</time>
      </trkpt>
      <trkpt lat="45.86731" lon="4.80749">
        <ele>363.2</ele>
        <time>2020-06-07T09:19:44.000Z</time>
      </trkpt>
      <trkpt lat="45.86729" lon="4.80753">
        <ele>362.3</ele>
        <time>2020-06-07T09:19:45.000Z</time>
      </trkpt>
      <trkpt lat="45.86728" lon="4.80756">
        <ele>361.3</ele>
        <time>2020-06-07T09:19:46.000Z</time>
      </trkpt>
      <trkpt lat="45.86728" lon="4.80759">
        <ele>360.6</ele>
        <time>2020-06-07T09:19:47.000Z</time>
      </trkpt>
      <trkpt lat="45.86727" lon="4.80761">
        <ele>360</ele>
        <time>2020-06-07T09:19:48.000Z</time>
      </trkpt>
      <trkpt lat="45.86727" lon="4.80763">
        <ele>359.4</ele>
        <time>2020-06-07T09:19:49.000Z</time>
      </trkpt>
      <trkpt lat="45.86727" lon="4.80765">
        <ele>359</ele>
        <time>2020-06-07T09:19:50.000Z</time>
      </trkpt>
      <trkpt lat="45.86727" lon="4.80766">
        <ele>358.7</ele>
        <time>2020-06-07T09:19:51.000Z</time>
      </trkpt>
      <trkpt lat="45.86726" lon="4.80766">
        <ele>358.3</ele>
        <time>2020-06-07T09:19:52.000Z</time>
      </trkpt>
      <trkpt lat="45.86726" lon="4.80766">
        <ele>358.2</ele>
        <time>2020-06-07T09:19:53.000Z</time>
      </trkpt>
      <trkpt lat="45.86726" lon="4.80779">
        <ele>355.2</ele>
        <time>2020-06-07T09:20:16.000Z</time>
      </trkpt>
      <trkpt lat="45.86725" lon="4.80782">
        <ele>354.4</ele>
        <time>2020-06-07T09:20:17.000Z</time>
      </trkpt>
      <trkpt lat="45.86724" lon="4.80786">
        <ele>353.7</ele>
        <time>2020-06-07T09:20:18.000Z</time>
      </trkpt>
      <trkpt lat="45.86724" lon="4.80789">
        <ele>352.9</ele>
        <time>2020-06-07T09:20:19.000Z</time>
      </trkpt>
      <trkpt lat="45.86724" lon="4.80793">
        <ele>352.2</ele>
        <time>2020-06-07T09:20:20.000Z</time>
      </trkpt>
      <trkpt lat="45.86724" lon="4.80796">
        <ele>351.5</ele>
        <time>2020-06-07T09:20:21.000Z</time>
      </trkpt>
      <trkpt lat="45.86725" lon="4.80801">
        <ele>350.7</ele>
        <time>2020-06-07T09:20:22.000Z</time>
      </trkpt>
      <trkpt lat="45.86727" lon="4.80807">
        <ele>349.5</ele>
        <time>2020-06-07T09:20:23.000Z</time>
      </trkpt>
      <trkpt lat="45.86728" lon="4.80815">
        <ele>348.4</ele>
        <time>2020-06-07T09:20:24.000Z</time>
      </trkpt>
      <trkpt lat="45.8673" lon="4.80823">
        <ele>347.1</ele>
        <time>2020-06-07T09:20:25.000Z</time>
      </trkpt>
      <trkpt lat="45.86731" lon="4.80831">
        <ele>346</ele>
        <time>2020-06-07T09:20:26.000Z</time>
      </trkpt>
      <trkpt lat="45.86733" lon="4.80838">
        <ele>345.1</ele>
        <time>2020-06-07T09:20:27.000Z</time>
      </trkpt>
      <trkpt lat="45.86734" lon="4.80845">
        <ele>344.2</ele>
        <time>2020-06-07T09:20:28.000Z</time>
      </trkpt>
      <trkpt lat="45.86734" lon="4.80852">
        <ele>343.4</ele>
        <time>2020-06-07T09:20:29.000Z</time>
      </trkpt>
      <trkpt lat="45.86732" lon="4.80863">
        <ele>341.9</ele>
        <time>2020-06-07T09:20:30.000Z</time>
      </trkpt>
      <trkpt lat="45.86729" lon="4.80874">
        <ele>340.4</ele>
        <time>2020-06-07T09:20:31.000Z</time>
      </trkpt>
      <trkpt lat="45.86728" lon="4.80882">
        <ele>339</ele>
        <time>2020-06-07T09:20:32.000Z</time>
      </trkpt>
      <trkpt lat="45.86727" lon="4.80889">
        <ele>337.6</ele>
        <time>2020-06-07T09:20:33.000Z</time>
      </trkpt>
      <trkpt lat="45.86726" lon="4.80897">
        <ele>336.1</ele>
        <time>2020-06-07T09:20:34.000Z</time>
      </trkpt>
      <trkpt lat="45.86725" lon="4.80906">
        <ele>334.2</ele>
        <time>2020-06-07T09:20:35.000Z</time>
      </trkpt>
      <trkpt lat="45.86726" lon="4.80915">
        <ele>332.6</ele>
        <time>2020-06-07T09:20:36.000Z</time>
      </trkpt>
      <trkpt lat="45.86726" lon="4.80923">
        <ele>331</ele>
        <time>2020-06-07T09:20:37.000Z</time>
      </trkpt>
      <trkpt lat="45.86728" lon="4.80932">
        <ele>329.4</ele>
        <time>2020-06-07T09:20:38.000Z</time>
      </trkpt>
      <trkpt lat="45.8673" lon="4.80941">
        <ele>327.9</ele>
        <time>2020-06-07T09:20:39.000Z</time>
      </trkpt>
      <trkpt lat="45.86733" lon="4.8095">
        <ele>326.3</ele>
        <time>2020-06-07T09:20:40.000Z</time>
      </trkpt>
      <trkpt lat="45.86736" lon="4.8096">
        <ele>324.7</ele>
        <time>2020-06-07T09:20:41.000Z</time>
      </trkpt>
      <trkpt lat="45.86738" lon="4.80972">
        <ele>323.2</ele>
        <time>2020-06-07T09:20:42.000Z</time>
      </trkpt>
      <trkpt lat="45.8674" lon="4.80983">
        <ele>321.9</ele>
        <time>2020-06-07T09:20:43.000Z</time>
      </trkpt>
      <trkpt lat="45.86739" lon="4.80995">
        <ele>320.4</ele>
        <time>2020-06-07T09:20:44.000Z</time>
      </trkpt>
      <trkpt lat="45.86738" lon="4.81003">
        <ele>319.1</ele>
        <time>2020-06-07T09:20:45.000Z</time>
      </trkpt>
      <trkpt lat="45.86736" lon="4.81009">
        <ele>318</ele>
        <time>2020-06-07T09:20:46.000Z</time>
      </trkpt>
      <trkpt lat="45.86733" lon="4.81014">
        <ele>317.2</ele>
        <time>2020-06-07T09:20:47.000Z</time>
      </trkpt>
      <trkpt lat="45.8673" lon="4.81016">
        <ele>316.5</ele>
        <time>2020-06-07T09:20:48.000Z</time>
      </trkpt>
      <trkpt lat="45.86728" lon="4.81017">
        <ele>316.1</ele>
        <time>2020-06-07T09:20:49.000Z</time>
      </trkpt>
      <trkpt lat="45.86726" lon="4.81018">
        <ele>315.8</ele>
        <time>2020-06-07T09:20:50.000Z</time>
      </trkpt>
      <trkpt lat="45.86724" lon="4.8102">
        <ele>315.4</ele>
        <time>2020-06-07T09:20:51.000Z</time>
      </trkpt>
      <trkpt lat="45.86722" lon="4.81023">
        <ele>314.8</ele>
        <time>2020-06-07T09:20:52.000Z</time>
      </trkpt>
      <trkpt lat="45.8672" lon="4.81026">
        <ele>314.2</ele>
        <time>2020-06-07T09:20:53.000Z</time>
      </trkpt>
      <trkpt lat="45.86717" lon="4.81029">
        <ele>313.4</ele>
        <time>2020-06-07T09:20:54.000Z</time>
      </trkpt>
      <trkpt lat="45.86713" lon="4.81032">
        <ele>312.7</ele>
        <time>2020-06-07T09:20:55.000Z</time>
      </trkpt>
      <trkpt lat="45.8671" lon="4.81034">
        <ele>311.9</ele>
        <time>2020-06-07T09:20:56.000Z</time>
      </trkpt>
      <trkpt lat="45.86708" lon="4.81038">
        <ele>311.3</ele>
        <time>2020-06-07T09:20:57.000Z</time>
      </trkpt>
      <trkpt lat="45.86707" lon="4.81042">
        <ele>310.7</ele>
        <time>2020-06-07T09:20:58.000Z</time>
      </trkpt>
      <trkpt lat="45.86707" lon="4.81046">
        <ele>309.5</ele>
        <time>2020-06-07T09:20:59.000Z</time>
      </trkpt>
      <trkpt lat="45.86708" lon="4.81049">
        <ele>309.1</ele>
        <time>2020-06-07T09:21:00.000Z</time>
      </trkpt>
      <trkpt lat="45.8671" lon="4.81054">
        <ele>308.7</ele>
        <time>2020-06-07T09:21:01.000Z</time>
      </trkpt>
      <trkpt lat="45.86712" lon="4.8106">
        <ele>308</ele>
        <time>2020-06-07T09:21:02.000Z</time>
      </trkpt>
      <trkpt lat="45.86715" lon="4.81067">
        <ele>307.3</ele>
        <time>2020-06-07T09:21:03.000Z</time>
      </trkpt>
      <trkpt lat="45.86719" lon="4.81075">
        <ele>306.4</ele>
        <time>2020-06-07T09:21:04.000Z</time>
      </trkpt>
      <trkpt lat="45.86722" lon="4.81084">
        <ele>305.4</ele>
        <time>2020-06-07T09:21:05.000Z</time>
      </trkpt>
      <trkpt lat="45.86725" lon="4.81094">
        <ele>304.3</ele>
        <time>2020-06-07T09:21:06.000Z</time>
      </trkpt>
      <trkpt lat="45.86729" lon="4.81105">
        <ele>302.3</ele>
        <time>2020-06-07T09:21:07.000Z</time>
      </trkpt>
      <trkpt lat="45.86732" lon="4.81117">
        <ele>301.1</ele>
        <time>2020-06-07T09:21:08.000Z</time>
      </trkpt>
      <trkpt lat="45.86734" lon="4.8113">
        <ele>299.7</ele>
        <time>2020-06-07T09:21:09.000Z</time>
      </trkpt>
      <trkpt lat="45.86738" lon="4.81143">
        <ele>298.3</ele>
        <time>2020-06-07T09:21:10.000Z</time>
      </trkpt>
      <trkpt lat="45.86741" lon="4.81157">
        <ele>296.9</ele>
        <time>2020-06-07T09:21:11.000Z</time>
      </trkpt>
      <trkpt lat="45.86745" lon="4.8117">
        <ele>295.6</ele>
        <time>2020-06-07T09:21:12.000Z</time>
      </trkpt>
      <trkpt lat="45.8675" lon="4.81183">
        <ele>294.3</ele>
        <time>2020-06-07T09:21:13.000Z</time>
      </trkpt>
      <trkpt lat="45.86754" lon="4.81196">
        <ele>292.8</ele>
        <time>2020-06-07T09:21:14.000Z</time>
      </trkpt>
      <trkpt lat="45.86759" lon="4.8121">
        <ele>291.2</ele>
        <time>2020-06-07T09:21:15.000Z</time>
      </trkpt>
      <trkpt lat="45.86764" lon="4.81224">
        <ele>289.8</ele>
        <time>2020-06-07T09:21:16.000Z</time>
      </trkpt>
      <trkpt lat="45.86768" lon="4.81238">
        <ele>288.4</ele>
        <time>2020-06-07T09:21:17.000Z</time>
      </trkpt>
      <trkpt lat="45.86772" lon="4.81252">
        <ele>287.2</ele>
        <time>2020-06-07T09:21:18.000Z</time>
      </trkpt>
      <trkpt lat="45.86777" lon="4.81266">
        <ele>285.9</ele>
        <time>2020-06-07T09:21:19.000Z</time>
      </trkpt>
      <trkpt lat="45.86781" lon="4.81279">
        <ele>284.6</ele>
        <time>2020-06-07T09:21:20.000Z</time>
      </trkpt>
      <trkpt lat="45.86786" lon="4.81291">
        <ele>283.4</ele>
        <time>2020-06-07T09:21:21.000Z</time>
      </trkpt>
      <trkpt lat="45.8679" lon="4.81304">
        <ele>282.3</ele>
        <time>2020-06-07T09:21:22.000Z</time>
      </trkpt>
      <trkpt lat="45.86794" lon="4.81317">
        <ele>281.2</ele>
        <time>2020-06-07T09:21:23.000Z</time>
      </trkpt>
      <trkpt lat="45.86798" lon="4.81331">
        <ele>280.1</ele>
        <time>2020-06-07T09:21:24.000Z</time>
      </trkpt>
      <trkpt lat="45.86801" lon="4.81347">
        <ele>278.9</ele>
        <time>2020-06-07T09:21:25.000Z</time>
      </trkpt>
      <trkpt lat="45.86805" lon="4.81363">
        <ele>277.6</ele>
        <time>2020-06-07T09:21:26.000Z</time>
      </trkpt>
      <trkpt lat="45.86808" lon="4.8138">
        <ele>276.4</ele>
        <time>2020-06-07T09:21:27.000Z</time>
      </trkpt>
      <trkpt lat="45.86811" lon="4.81398">
        <ele>275.1</ele>
        <time>2020-06-07T09:21:28.000Z</time>
      </trkpt>
      <trkpt lat="45.86814" lon="4.81415">
        <ele>273.8</ele>
        <time>2020-06-07T09:21:29.000Z</time>
      </trkpt>
      <trkpt lat="45.86817" lon="4.81432">
        <ele>272.6</ele>
        <time>2020-06-07T09:21:30.000Z</time>
      </trkpt>
      <trkpt lat="45.86821" lon="4.81448">
        <ele>271.4</ele>
        <time>2020-06-07T09:21:31.000Z</time>
      </trkpt>
      <trkpt lat="45.86825" lon="4.81464">
        <ele>270</ele>
        <time>2020-06-07T09:21:32.000Z</time>
      </trkpt>
      <trkpt lat="45.86829" lon="4.81478">
        <ele>268.6</ele>
        <time>2020-06-07T09:21:33.000Z</time>
      </trkpt>
      <trkpt lat="45.86832" lon="4.81492">
        <ele>267.2</ele>
        <time>2020-06-07T09:21:34.000Z</time>
      </trkpt>
      <trkpt lat="45.86834" lon="4.81506">
        <ele>265.5</ele>
        <time>2020-06-07T09:21:35.000Z</time>
      </trkpt>
      <trkpt lat="45.86836" lon="4.81521">
        <ele>263.9</ele>
        <time>2020-06-07T09:21:36.000Z</time>
      </trkpt>
      <trkpt lat="45.86838" lon="4.81535">
        <ele>262.1</ele>
        <time>2020-06-07T09:21:37.000Z</time>
      </trkpt>
      <trkpt lat="45.86839" lon="4.81549">
        <ele>260.4</ele>
        <time>2020-06-07T09:21:38.000Z</time>
      </trkpt>
      <trkpt lat="45.86841" lon="4.81562">
        <ele>258.7</ele>
        <time>2020-06-07T09:21:39.000Z</time>
      </trkpt>
      <trkpt lat="45.86841" lon="4.81576">
        <ele>257.2</ele>
        <time>2020-06-07T09:21:40.000Z</time>
      </trkpt>
      <trkpt lat="45.86841" lon="4.81589">
        <ele>255.8</ele>
        <time>2020-06-07T09:21:41.000Z</time>
      </trkpt>
      <trkpt lat="45.86841" lon="4.81603">
        <ele>254.3</ele>
        <time>2020-06-07T09:21:42.000Z</time>
      </trkpt>
      <trkpt lat="45.8684" lon="4.81615">
        <ele>252.9</ele>
        <time>2020-06-07T09:21:43.000Z</time>
      </trkpt>
      <trkpt lat="45.8684" lon="4.81627">
        <ele>251.6</ele>
        <time>2020-06-07T09:21:44.000Z</time>
      </trkpt>
      <trkpt lat="45.86838" lon="4.8164">
        <ele>250.1</ele>
        <time>2020-06-07T09:21:45.000Z</time>
      </trkpt>
      <trkpt lat="45.86835" lon="4.81653">
        <ele>248.3</ele>
        <time>2020-06-07T09:21:46.000Z</time>
      </trkpt>
      <trkpt lat="45.86833" lon="4.81667">
        <ele>246.6</ele>
        <time>2020-06-07T09:21:47.000Z</time>
      </trkpt>
      <trkpt lat="45.86831" lon="4.81681">
        <ele>244.7</ele>
        <time>2020-06-07T09:21:48.000Z</time>
      </trkpt>
      <trkpt lat="45.86828" lon="4.81696">
        <ele>242.6</ele>
        <time>2020-06-07T09:21:49.000Z</time>
      </trkpt>
      <trkpt lat="45.86826" lon="4.8171">
        <ele>240.6</ele>
        <time>2020-06-07T09:21:50.000Z</time>
      </trkpt>
      <trkpt lat="45.86825" lon="4.81723">
        <ele>238.8</ele>
        <time>2020-06-07T09:21:51.000Z</time>
      </trkpt>
      <trkpt lat="45.86824" lon="4.81736">
        <ele>237</ele>
        <time>2020-06-07T09:21:52.000Z</time>
      </trkpt>
      <trkpt lat="45.86824" lon="4.81748">
        <ele>235.3</ele>
        <time>2020-06-07T09:21:53.000Z</time>
      </trkpt>
      <trkpt lat="45.86825" lon="4.81759">
        <ele>233.8</ele>
        <time>2020-06-07T09:21:54.000Z</time>
      </trkpt>
      <trkpt lat="45.86826" lon="4.8177">
        <ele>232.4</ele>
        <time>2020-06-07T09:21:55.000Z</time>
      </trkpt>
      <trkpt lat="45.86827" lon="4.81778">
        <ele>231.2</ele>
        <time>2020-06-07T09:21:56.000Z</time>
      </trkpt>
      <trkpt lat="45.86829" lon="4.81785">
        <ele>230.3</ele>
        <time>2020-06-07T09:21:57.000Z</time>
      </trkpt>
      <trkpt lat="45.8683" lon="4.81791">
        <ele>229</ele>
        <time>2020-06-07T09:21:58.000Z</time>
      </trkpt>
      <trkpt lat="45.86832" lon="4.81797">
        <ele>228.9</ele>
        <time>2020-06-07T09:21:59.000Z</time>
      </trkpt>
      <trkpt lat="45.86835" lon="4.81802">
        <ele>228.7</ele>
        <time>2020-06-07T09:22:00.000Z</time>
      </trkpt>
      <trkpt lat="45.86837" lon="4.81807">
        <ele>228.6</ele>
        <time>2020-06-07T09:22:01.000Z</time>
      </trkpt>
      <trkpt lat="45.8684" lon="4.81813">
        <ele>228.5</ele>
        <time>2020-06-07T09:22:02.000Z</time>
      </trkpt>
      <trkpt lat="45.86843" lon="4.81818">
        <ele>228.3</ele>
        <time>2020-06-07T09:22:03.000Z</time>
      </trkpt>
      <trkpt lat="45.86846" lon="4.81824">
        <ele>228.2</ele>
        <time>2020-06-07T09:22:04.000Z</time>
      </trkpt>
      <trkpt lat="45.86848" lon="4.8183">
        <ele>228</ele>
        <time>2020-06-07T09:22:05.000Z</time>
      </trkpt>
      <trkpt lat="45.86851" lon="4.81837">
        <ele>227.9</ele>
        <time>2020-06-07T09:22:06.000Z</time>
      </trkpt>
      <trkpt lat="45.86853" lon="4.81843">
        <ele>227.7</ele>
        <time>2020-06-07T09:22:07.000Z</time>
      </trkpt>
      <trkpt lat="45.86856" lon="4.81849">
        <ele>227.6</ele>
        <time>2020-06-07T09:22:08.000Z</time>
      </trkpt>
      <trkpt lat="45.86858" lon="4.81854">
        <ele>227.5</ele>
        <time>2020-06-07T09:22:09.000Z</time>
      </trkpt>
      <trkpt lat="45.86861" lon="4.81859">
        <ele>227.4</ele>
        <time>2020-06-07T09:22:10.000Z</time>
      </trkpt>
      <trkpt lat="45.86863" lon="4.81863">
        <ele>227.4</ele>
        <time>2020-06-07T09:22:11.000Z</time>
      </trkpt>
      <trkpt lat="45.86866" lon="4.81867">
        <ele>227.3</ele>
        <time>2020-06-07T09:22:12.000Z</time>
      </trkpt>
      <trkpt lat="45.86868" lon="4.8187">
        <ele>227.2</ele>
        <time>2020-06-07T09:22:13.000Z</time>
      </trkpt>
      <trkpt lat="45.8687" lon="4.81875">
        <ele>227.1</ele>
        <time>2020-06-07T09:22:14.000Z</time>
      </trkpt>
      <trkpt lat="45.86871" lon="4.8188">
        <ele>227</ele>
        <time>2020-06-07T09:22:15.000Z</time>
      </trkpt>
      <trkpt lat="45.86873" lon="4.81884">
        <ele>227</ele>
        <time>2020-06-07T09:22:16.000Z</time>
      </trkpt>
      <trkpt lat="45.86875" lon="4.81888">
        <ele>226.9</ele>
        <time>2020-06-07T09:22:17.000Z</time>
      </trkpt>
      <trkpt lat="45.86877" lon="4.81893">
        <ele>226.8</ele>
        <time>2020-06-07T09:22:18.000Z</time>
      </trkpt>
      <trkpt lat="45.8688" lon="4.81897">
        <ele>226.8</ele>
        <time>2020-06-07T09:22:19.000Z</time>
      </trkpt>
      <trkpt lat="45.86882" lon="4.81902">
        <ele>226.7</ele>
        <time>2020-06-07T09:22:20.000Z</time>
      </trkpt>
      <trkpt lat="45.86884" lon="4.81906">
        <ele>226.6</ele>
        <time>2020-06-07T09:22:21.000Z</time>
      </trkpt>
      <trkpt lat="45.86887" lon="4.81911">
        <ele>226.6</ele>
        <time>2020-06-07T09:22:22.000Z</time>
      </trkpt>
      <trkpt lat="45.8689" lon="4.81916">
        <ele>226.3</ele>
        <time>2020-06-07T09:22:23.000Z</time>
      </trkpt>
      <trkpt lat="45.86892" lon="4.81921">
        <ele>226</ele>
        <time>2020-06-07T09:22:24.000Z</time>
      </trkpt>
      <trkpt lat="45.86896" lon="4.81927">
        <ele>225.7</ele>
        <time>2020-06-07T09:22:25.000Z</time>
      </trkpt>
      <trkpt lat="45.86899" lon="4.81932">
        <ele>225.3</ele>
        <time>2020-06-07T09:22:26.000Z</time>
      </trkpt>
      <trkpt lat="45.86902" lon="4.81938">
        <ele>225</ele>
        <time>2020-06-07T09:22:27.000Z</time>
      </trkpt>
      <trkpt lat="45.86906" lon="4.81943">
        <ele>224.6</ele>
        <time>2020-06-07T09:22:28.000Z</time>
      </trkpt>
      <trkpt lat="45.8691" lon="4.81949">
        <ele>224.2</ele>
        <time>2020-06-07T09:22:29.000Z</time>
      </trkpt>
      <trkpt lat="45.86915" lon="4.81955">
        <ele>223.8</ele>
        <time>2020-06-07T09:22:30.000Z</time>
      </trkpt>
      <trkpt lat="45.86919" lon="4.81961">
        <ele>223.3</ele>
        <time>2020-06-07T09:22:31.000Z</time>
      </trkpt>
      <trkpt lat="45.86924" lon="4.81967">
        <ele>222.9</ele>
        <time>2020-06-07T09:22:32.000Z</time>
      </trkpt>
      <trkpt lat="45.86929" lon="4.81973">
        <ele>222.4</ele>
        <time>2020-06-07T09:22:33.000Z</time>
      </trkpt>
      <trkpt lat="45.86935" lon="4.81979">
        <ele>221.9</ele>
        <time>2020-06-07T09:22:34.000Z</time>
      </trkpt>
      <trkpt lat="45.86941" lon="4.81985">
        <ele>221.4</ele>
        <time>2020-06-07T09:22:35.000Z</time>
      </trkpt>
      <trkpt lat="45.86947" lon="4.8199">
        <ele>220.9</ele>
        <time>2020-06-07T09:22:36.000Z</time>
      </trkpt>
      <trkpt lat="45.86953" lon="4.81994">
        <ele>220.5</ele>
        <time>2020-06-07T09:22:37.000Z</time>
      </trkpt>
      <trkpt lat="45.86958" lon="4.81999">
        <ele>220.3</ele>
        <time>2020-06-07T09:22:38.000Z</time>
      </trkpt>
      <trkpt lat="45.86962" lon="4.82002">
        <ele>220.1</ele>
        <time>2020-06-07T09:22:39.000Z</time>
      </trkpt>
      <trkpt lat="45.86966" lon="4.82005">
        <ele>219.9</ele>
        <time>2020-06-07T09:22:40.000Z</time>
      </trkpt>
      <trkpt lat="45.86968" lon="4.82007">
        <ele>219.8</ele>
        <time>2020-06-07T09:22:41.000Z</time>
      </trkpt>
      <trkpt lat="45.86971" lon="4.82009">
        <ele>219.7</ele>
        <time>2020-06-07T09:22:42.000Z</time>
      </trkpt>
      <trkpt lat="45.86972" lon="4.8201">
        <ele>219.6</ele>
        <time>2020-06-07T09:22:43.000Z</time>
      </trkpt>
      <trkpt lat="45.86973" lon="4.82011">
        <ele>219.6</ele>
        <time>2020-06-07T09:22:44.000Z</time>
      </trkpt>
      <trkpt lat="45.86974" lon="4.82012">
        <ele>219.5</ele>
        <time>2020-06-07T09:22:45.000Z</time>
      </trkpt>
      <trkpt lat="45.86975" lon="4.82012">
        <ele>219.5</ele>
        <time>2020-06-07T09:22:46.000Z</time>
      </trkpt>
      <trkpt lat="45.86976" lon="4.82013">
        <ele>219.4</ele>
        <time>2020-06-07T09:22:47.000Z</time>
      </trkpt>
      <trkpt lat="45.86977" lon="4.82013">
        <ele>219.4</ele>
        <time>2020-06-07T09:22:48.000Z</time>
      </trkpt>
      <trkpt lat="45.86978" lon="4.82014">
        <ele>219.3</ele>
        <time>2020-06-07T09:22:49.000Z</time>
      </trkpt>
      <trkpt lat="45.86979" lon="4.82014">
        <ele>219.3</ele>
        <time>2020-06-07T09:22:50.000Z</time>
      </trkpt>
      <trkpt lat="45.8698" lon="4.82015">
        <ele>219.2</ele>
        <time>2020-06-07T09:22:51.000Z</time>
      </trkpt>
      <trkpt lat="45.8698" lon="4.82016">
        <ele>219.2</ele>
        <time>2020-06-07T09:22:52.000Z</time>
      </trkpt>
      <trkpt lat="45.86981" lon="4.82017">
        <ele>219.2</ele>
        <time>2020-06-07T09:22:53.000Z</time>
      </trkpt>
      <trkpt lat="45.86981" lon="4.82019">
        <ele>219.1</ele>
        <time>2020-06-07T09:22:54.000Z</time>
      </trkpt>
      <trkpt lat="45.86982" lon="4.8202">
        <ele>219.1</ele>
        <time>2020-06-07T09:22:55.000Z</time>
      </trkpt>
      <trkpt lat="45.86983" lon="4.82021">
        <ele>219.1</ele>
        <time>2020-06-07T09:22:56.000Z</time>
      </trkpt>
      <trkpt lat="45.86984" lon="4.82021">
        <ele>219.1</ele>
        <time>2020-06-07T09:22:57.000Z</time>
      </trkpt>
      <trkpt lat="45.86986" lon="4.82022">
        <ele>219.1</ele>
        <time>2020-06-07T09:22:58.000Z</time>
      </trkpt>
      <trkpt lat="45.86988" lon="4.82023">
        <ele>219.1</ele>
        <time>2020-06-07T09:22:59.000Z</time>
      </trkpt>
      <trkpt lat="45.8699" lon="4.82025">
        <ele>219.1</ele>
        <time>2020-06-07T09:23:00.000Z</time>
      </trkpt>
      <trkpt lat="45.86993" lon="4.82026">
        <ele>218.3</ele>
        <time>2020-06-07T09:23:01.000Z</time>
      </trkpt>
      <trkpt lat="45.86996" lon="4.82028">
        <ele>217.9</ele>
        <time>2020-06-07T09:23:02.000Z</time>
      </trkpt>
      <trkpt lat="45.87001" lon="4.8203">
        <ele>217.5</ele>
        <time>2020-06-07T09:23:03.000Z</time>
      </trkpt>
      <trkpt lat="45.87005" lon="4.82033">
        <ele>217</ele>
        <time>2020-06-07T09:23:04.000Z</time>
      </trkpt>
      <trkpt lat="45.87011" lon="4.82037">
        <ele>216.4</ele>
        <time>2020-06-07T09:23:05.000Z</time>
      </trkpt>
      <trkpt lat="45.87016" lon="4.8204">
        <ele>215.9</ele>
        <time>2020-06-07T09:23:06.000Z</time>
      </trkpt>
      <trkpt lat="45.87022" lon="4.82044">
        <ele>215.2</ele>
        <time>2020-06-07T09:23:07.000Z</time>
      </trkpt>
      <trkpt lat="45.87029" lon="4.82048">
        <ele>214.6</ele>
        <time>2020-06-07T09:23:08.000Z</time>
      </trkpt>
      <trkpt lat="45.87036" lon="4.82052">
        <ele>213.8</ele>
        <time>2020-06-07T09:23:09.000Z</time>
      </trkpt>
      <trkpt lat="45.87042" lon="4.82057">
        <ele>213.8</ele>
        <time>2020-06-07T09:23:10.000Z</time>
      </trkpt>
      <trkpt lat="45.87049" lon="4.82061">
        <ele>213.8</ele>
        <time>2020-06-07T09:23:11.000Z</time>
      </trkpt>
      <trkpt lat="45.87055" lon="4.82065">
        <ele>213.8</ele>
        <time>2020-06-07T09:23:12.000Z</time>
      </trkpt>
      <trkpt lat="45.87062" lon="4.82069">
        <ele>213.4</ele>
        <time>2020-06-07T09:23:13.000Z</time>
      </trkpt>
      <trkpt lat="45.87068" lon="4.82073">
        <ele>212.6</ele>
        <time>2020-06-07T09:23:14.000Z</time>
      </trkpt>
      <trkpt lat="45.87075" lon="4.82077">
        <ele>211.8</ele>
        <time>2020-06-07T09:23:15.000Z</time>
      </trkpt>
      <trkpt lat="45.87081" lon="4.82082">
        <ele>211.8</ele>
        <time>2020-06-07T09:23:16.000Z</time>
      </trkpt>
      <trkpt lat="45.87088" lon="4.82087">
        <ele>211.8</ele>
        <time>2020-06-07T09:23:17.000Z</time>
      </trkpt>
      <trkpt lat="45.87095" lon="4.82092">
        <ele>211.4</ele>
        <time>2020-06-07T09:23:18.000Z</time>
      </trkpt>
      <trkpt lat="45.87102" lon="4.82097">
        <ele>210.1</ele>
        <time>2020-06-07T09:23:19.000Z</time>
      </trkpt>
      <trkpt lat="45.87109" lon="4.82102">
        <ele>209.5</ele>
        <time>2020-06-07T09:23:20.000Z</time>
      </trkpt>
      <trkpt lat="45.87117" lon="4.82107">
        <ele>209</ele>
        <time>2020-06-07T09:23:21.000Z</time>
      </trkpt>
      <trkpt lat="45.87124" lon="4.82113">
        <ele>208.5</ele>
        <time>2020-06-07T09:23:22.000Z</time>
      </trkpt>
      <trkpt lat="45.87132" lon="4.82118">
        <ele>208</ele>
        <time>2020-06-07T09:23:23.000Z</time>
      </trkpt>
      <trkpt lat="45.87139" lon="4.82124">
        <ele>207.5</ele>
        <time>2020-06-07T09:23:24.000Z</time>
      </trkpt>
      <trkpt lat="45.87146" lon="4.8213">
        <ele>207</ele>
        <time>2020-06-07T09:23:25.000Z</time>
      </trkpt>
      <trkpt lat="45.87153" lon="4.82137">
        <ele>206.5</ele>
        <time>2020-06-07T09:23:26.000Z</time>
      </trkpt>
      <trkpt lat="45.87159" lon="4.82145">
        <ele>206</ele>
        <time>2020-06-07T09:23:27.000Z</time>
      </trkpt>
      <trkpt lat="45.87164" lon="4.82155">
        <ele>205.7</ele>
        <time>2020-06-07T09:23:28.000Z</time>
      </trkpt>
      <trkpt lat="45.87168" lon="4.82165">
        <ele>205.4</ele>
        <time>2020-06-07T09:23:29.000Z</time>
      </trkpt>
      <trkpt lat="45.87172" lon="4.82175">
        <ele>205.2</ele>
        <time>2020-06-07T09:23:30.000Z</time>
      </trkpt>
      <trkpt lat="45.87176" lon="4.82185">
        <ele>205</ele>
        <time>2020-06-07T09:23:31.000Z</time>
      </trkpt>
      <trkpt lat="45.8718" lon="4.82196">
        <ele>204.8</ele>
        <time>2020-06-07T09:23:32.000Z</time>
      </trkpt>
      <trkpt lat="45.87184" lon="4.82207">
        <ele>204.6</ele>
        <time>2020-06-07T09:23:33.000Z</time>
      </trkpt>
      <trkpt lat="45.87188" lon="4.82219">
        <ele>204.6</ele>
        <time>2020-06-07T09:23:34.000Z</time>
      </trkpt>
      <trkpt lat="45.87191" lon="4.8223">
        <ele>204.5</ele>
        <time>2020-06-07T09:23:35.000Z</time>
      </trkpt>
      <trkpt lat="45.87195" lon="4.82241">
        <ele>204.6</ele>
        <time>2020-06-07T09:23:36.000Z</time>
      </trkpt>
      <trkpt lat="45.87198" lon="4.82252">
        <ele>204.8</ele>
        <time>2020-06-07T09:23:37.000Z</time>
      </trkpt>
      <trkpt lat="45.87202" lon="4.82263">
        <ele>205.1</ele>
        <time>2020-06-07T09:23:38.000Z</time>
      </trkpt>
      <trkpt lat="45.87206" lon="4.82275">
        <ele>205.4</ele>
        <time>2020-06-07T09:23:39.000Z</time>
      </trkpt>
      <trkpt lat="45.87209" lon="4.82286">
        <ele>205.4</ele>
        <time>2020-06-07T09:23:40.000Z</time>
      </trkpt>
      <trkpt lat="45.87213" lon="4.82296">
        <ele>205.6</ele>
        <time>2020-06-07T09:23:41.000Z</time>
      </trkpt>
      <trkpt lat="45.87218" lon="4.82306">
        <ele>205.8</ele>
        <time>2020-06-07T09:23:42.000Z</time>
      </trkpt>
      <trkpt lat="45.87223" lon="4.82315">
        <ele>206.2</ele>
        <time>2020-06-07T09:23:43.000Z</time>
      </trkpt>
      <trkpt lat="45.87228" lon="4.82324">
        <ele>206.6</ele>
        <time>2020-06-07T09:23:44.000Z</time>
      </trkpt>
      <trkpt lat="45.87233" lon="4.82333">
        <ele>207</ele>
        <time>2020-06-07T09:23:45.000Z</time>
      </trkpt>
      <trkpt lat="45.87237" lon="4.82342">
        <ele>207.4</ele>
        <time>2020-06-07T09:23:46.000Z</time>
      </trkpt>
      <trkpt lat="45.87242" lon="4.82351">
        <ele>208.1</ele>
        <time>2020-06-07T09:23:47.000Z</time>
      </trkpt>
      <trkpt lat="45.87247" lon="4.82359">
        <ele>208.7</ele>
        <time>2020-06-07T09:23:48.000Z</time>
      </trkpt>
      <trkpt lat="45.87252" lon="4.82367">
        <ele>209.4</ele>
        <time>2020-06-07T09:23:49.000Z</time>
      </trkpt>
      <trkpt lat="45.87258" lon="4.82376">
        <ele>210</ele>
        <time>2020-06-07T09:23:50.000Z</time>
      </trkpt>
      <trkpt lat="45.87263" lon="4.82384">
        <ele>210.7</ele>
        <time>2020-06-07T09:23:51.000Z</time>
      </trkpt>
      <trkpt lat="45.87268" lon="4.82393">
        <ele>211.3</ele>
        <time>2020-06-07T09:23:52.000Z</time>
      </trkpt>
      <trkpt lat="45.87273" lon="4.82401">
        <ele>212</ele>
        <time>2020-06-07T09:23:53.000Z</time>
      </trkpt>
      <trkpt lat="45.87277" lon="4.8241">
        <ele>212.6</ele>
        <time>2020-06-07T09:23:54.000Z</time>
      </trkpt>
      <trkpt lat="45.87282" lon="4.82418">
        <ele>212.8</ele>
        <time>2020-06-07T09:23:55.000Z</time>
      </trkpt>
      <trkpt lat="45.87286" lon="4.82426">
        <ele>213.1</ele>
        <time>2020-06-07T09:23:56.000Z</time>
      </trkpt>
      <trkpt lat="45.87291" lon="4.82432">
        <ele>213.4</ele>
        <time>2020-06-07T09:23:57.000Z</time>
      </trkpt>
      <trkpt lat="45.87295" lon="4.82439">
        <ele>213.6</ele>
        <time>2020-06-07T09:23:58.000Z</time>
      </trkpt>
      <trkpt lat="45.87298" lon="4.82445">
        <ele>213.8</ele>
        <time>2020-06-07T09:23:59.000Z</time>
      </trkpt>
      <trkpt lat="45.87301" lon="4.82451">
        <ele>214</ele>
        <time>2020-06-07T09:24:00.000Z</time>
      </trkpt>
      <trkpt lat="45.87304" lon="4.82457">
        <ele>214.2</ele>
        <time>2020-06-07T09:24:01.000Z</time>
      </trkpt>
      <trkpt lat="45.87307" lon="4.82463">
        <ele>214.3</ele>
        <time>2020-06-07T09:24:02.000Z</time>
      </trkpt>
      <trkpt lat="45.8731" lon="4.82468">
        <ele>214.4</ele>
        <time>2020-06-07T09:24:03.000Z</time>
      </trkpt>
      <trkpt lat="45.87314" lon="4.82473">
        <ele>214.5</ele>
        <time>2020-06-07T09:24:04.000Z</time>
      </trkpt>
      <trkpt lat="45.87317" lon="4.82478">
        <ele>214.5</ele>
        <time>2020-06-07T09:24:05.000Z</time>
      </trkpt>
      <trkpt lat="45.8732" lon="4.82484">
        <ele>214.6</ele>
        <time>2020-06-07T09:24:06.000Z</time>
      </trkpt>
      <trkpt lat="45.87323" lon="4.82489">
        <ele>214.7</ele>
        <time>2020-06-07T09:24:07.000Z</time>
      </trkpt>
      <trkpt lat="45.87326" lon="4.82494">
        <ele>214.8</ele>
        <time>2020-06-07T09:24:08.000Z</time>
      </trkpt>
      <trkpt lat="45.87329" lon="4.825">
        <ele>214.9</ele>
        <time>2020-06-07T09:24:09.000Z</time>
      </trkpt>
      <trkpt lat="45.87332" lon="4.82506">
        <ele>215</ele>
        <time>2020-06-07T09:24:10.000Z</time>
      </trkpt>
      <trkpt lat="45.87335" lon="4.82512">
        <ele>215</ele>
        <time>2020-06-07T09:24:11.000Z</time>
      </trkpt>
      <trkpt lat="45.87337" lon="4.82518">
        <ele>215.1</ele>
        <time>2020-06-07T09:24:12.000Z</time>
      </trkpt>
      <trkpt lat="45.8734" lon="4.82525">
        <ele>215.1</ele>
        <time>2020-06-07T09:24:13.000Z</time>
      </trkpt>
      <trkpt lat="45.87342" lon="4.82531">
        <ele>215.1</ele>
        <time>2020-06-07T09:24:14.000Z</time>
      </trkpt>
      <trkpt lat="45.87344" lon="4.82538">
        <ele>215.1</ele>
        <time>2020-06-07T09:24:15.000Z</time>
      </trkpt>
      <trkpt lat="45.87347" lon="4.82544">
        <ele>215.1</ele>
        <time>2020-06-07T09:24:16.000Z</time>
      </trkpt>
      <trkpt lat="45.87349" lon="4.8255">
        <ele>215.1</ele>
        <time>2020-06-07T09:24:17.000Z</time>
      </trkpt>
      <trkpt lat="45.87352" lon="4.82557">
        <ele>215.1</ele>
        <time>2020-06-07T09:24:18.000Z</time>
      </trkpt>
      <trkpt lat="45.87355" lon="4.82564">
        <ele>215.1</ele>
        <time>2020-06-07T09:24:19.000Z</time>
      </trkpt>
      <trkpt lat="45.87358" lon="4.82571">
        <ele>215.1</ele>
        <time>2020-06-07T09:24:20.000Z</time>
      </trkpt>
      <trkpt lat="45.8736" lon="4.82578">
        <ele>215.1</ele>
        <time>2020-06-07T09:24:21.000Z</time>
      </trkpt>
      <trkpt lat="45.87363" lon="4.82585">
        <ele>215.1</ele>
        <time>2020-06-07T09:24:22.000Z</time>
      </trkpt>
      <trkpt lat="45.87366" lon="4.82594">
        <ele>215.1</ele>
        <time>2020-06-07T09:24:23.000Z</time>
      </trkpt>
      <trkpt lat="45.8737" lon="4.82602">
        <ele>215</ele>
        <time>2020-06-07T09:24:24.000Z</time>
      </trkpt>
      <trkpt lat="45.87373" lon="4.82611">
        <ele>215</ele>
        <time>2020-06-07T09:24:25.000Z</time>
      </trkpt>
      <trkpt lat="45.87375" lon="4.82619">
        <ele>214.9</ele>
        <time>2020-06-07T09:24:26.000Z</time>
      </trkpt>
      <trkpt lat="45.87379" lon="4.82628">
        <ele>214.8</ele>
        <time>2020-06-07T09:24:27.000Z</time>
      </trkpt>
      <trkpt lat="45.87382" lon="4.82636">
        <ele>214.6</ele>
        <time>2020-06-07T09:24:28.000Z</time>
      </trkpt>
      <trkpt lat="45.87385" lon="4.82644">
        <ele>214.6</ele>
        <time>2020-06-07T09:24:29.000Z</time>
      </trkpt>
      <trkpt lat="45.87389" lon="4.82652">
        <ele>214.3</ele>
        <time>2020-06-07T09:24:30.000Z</time>
      </trkpt>
      <trkpt lat="45.87393" lon="4.8266">
        <ele>214.3</ele>
        <time>2020-06-07T09:24:31.000Z</time>
      </trkpt>
      <trkpt lat="45.87397" lon="4.82668">
        <ele>214</ele>
        <time>2020-06-07T09:24:32.000Z</time>
      </trkpt>
      <trkpt lat="45.87401" lon="4.82676">
        <ele>213.8</ele>
        <time>2020-06-07T09:24:33.000Z</time>
      </trkpt>
      <trkpt lat="45.87405" lon="4.82684">
        <ele>213.7</ele>
        <time>2020-06-07T09:24:34.000Z</time>
      </trkpt>
      <trkpt lat="45.8741" lon="4.82693">
        <ele>213.6</ele>
        <time>2020-06-07T09:24:35.000Z</time>
      </trkpt>
      <trkpt lat="45.87414" lon="4.827">
        <ele>213.5</ele>
        <time>2020-06-07T09:24:36.000Z</time>
      </trkpt>
      <trkpt lat="45.87419" lon="4.82708">
        <ele>213.4</ele>
        <time>2020-06-07T09:24:37.000Z</time>
      </trkpt>
      <trkpt lat="45.87423" lon="4.82716">
        <ele>213.3</ele>
        <time>2020-06-07T09:24:38.000Z</time>
      </trkpt>
      <trkpt lat="45.87427" lon="4.82724">
        <ele>213.2</ele>
        <time>2020-06-07T09:24:39.000Z</time>
      </trkpt>
      <trkpt lat="45.87432" lon="4.82732">
        <ele>213.1</ele>
        <time>2020-06-07T09:24:40.000Z</time>
      </trkpt>
      <trkpt lat="45.87435" lon="4.82741">
        <ele>213.3</ele>
        <time>2020-06-07T09:24:41.000Z</time>
      </trkpt>
      <trkpt lat="45.87439" lon="4.82749">
        <ele>213.4</ele>
        <time>2020-06-07T09:24:42.000Z</time>
      </trkpt>
      <trkpt lat="45.87444" lon="4.82757">
        <ele>213.2</ele>
        <time>2020-06-07T09:24:43.000Z</time>
      </trkpt>
      <trkpt lat="45.87448" lon="4.82764">
        <ele>212.8</ele>
        <time>2020-06-07T09:24:44.000Z</time>
      </trkpt>
      <trkpt lat="45.87452" lon="4.82772">
        <ele>212.4</ele>
        <time>2020-06-07T09:24:45.000Z</time>
      </trkpt>
      <trkpt lat="45.87456" lon="4.8278">
        <ele>212.4</ele>
        <time>2020-06-07T09:24:46.000Z</time>
      </trkpt>
      <trkpt lat="45.8746" lon="4.82788">
        <ele>212.5</ele>
        <time>2020-06-07T09:24:47.000Z</time>
      </trkpt>
      <trkpt lat="45.87463" lon="4.82796">
        <ele>212.5</ele>
        <time>2020-06-07T09:24:48.000Z</time>
      </trkpt>
      <trkpt lat="45.87467" lon="4.82804">
        <ele>212.2</ele>
        <time>2020-06-07T09:24:49.000Z</time>
      </trkpt>
      <trkpt lat="45.8747" lon="4.82812">
        <ele>212</ele>
        <time>2020-06-07T09:24:50.000Z</time>
      </trkpt>
      <trkpt lat="45.87474" lon="4.8282">
        <ele>211.7</ele>
        <time>2020-06-07T09:24:51.000Z</time>
      </trkpt>
      <trkpt lat="45.87478" lon="4.82828">
        <ele>211.5</ele>
        <time>2020-06-07T09:24:52.000Z</time>
      </trkpt>
      <trkpt lat="45.87482" lon="4.82836">
        <ele>211.2</ele>
        <time>2020-06-07T09:24:53.000Z</time>
      </trkpt>
      <trkpt lat="45.87485" lon="4.82844">
        <ele>211.1</ele>
        <time>2020-06-07T09:24:54.000Z</time>
      </trkpt>
      <trkpt lat="45.87489" lon="4.82853">
        <ele>211.1</ele>
        <time>2020-06-07T09:24:55.000Z</time>
      </trkpt>
      <trkpt lat="45.87492" lon="4.82862">
        <ele>209.9</ele>
        <time>2020-06-07T09:24:56.000Z</time>
      </trkpt>
      <trkpt lat="45.87495" lon="4.82871">
        <ele>209.3</ele>
        <time>2020-06-07T09:24:57.000Z</time>
      </trkpt>
      <trkpt lat="45.87498" lon="4.8288">
        <ele>208.6</ele>
        <time>2020-06-07T09:24:58.000Z</time>
      </trkpt>
      <trkpt lat="45.87502" lon="4.8289">
        <ele>208.3</ele>
        <time>2020-06-07T09:24:59.000Z</time>
      </trkpt>
      <trkpt lat="45.87506" lon="4.829">
        <ele>207.9</ele>
        <time>2020-06-07T09:25:00.000Z</time>
      </trkpt>
      <trkpt lat="45.8751" lon="4.8291">
        <ele>207.5</ele>
        <time>2020-06-07T09:25:01.000Z</time>
      </trkpt>
      <trkpt lat="45.87514" lon="4.82921">
        <ele>207</ele>
        <time>2020-06-07T09:25:02.000Z</time>
      </trkpt>
      <trkpt lat="45.87518" lon="4.82932">
        <ele>206.6</ele>
        <time>2020-06-07T09:25:03.000Z</time>
      </trkpt>
      <trkpt lat="45.87522" lon="4.82943">
        <ele>205.5</ele>
        <time>2020-06-07T09:25:04.000Z</time>
      </trkpt>
      <trkpt lat="45.87526" lon="4.82956">
        <ele>204.9</ele>
        <time>2020-06-07T09:25:05.000Z</time>
      </trkpt>
      <trkpt lat="45.87529" lon="4.82968">
        <ele>204.4</ele>
        <time>2020-06-07T09:25:06.000Z</time>
      </trkpt>
      <trkpt lat="45.87533" lon="4.82982">
        <ele>203.7</ele>
        <time>2020-06-07T09:25:07.000Z</time>
      </trkpt>
      <trkpt lat="45.87536" lon="4.82995">
        <ele>203</ele>
        <time>2020-06-07T09:25:08.000Z</time>
      </trkpt>
      <trkpt lat="45.87537" lon="4.8301">
        <ele>202.3</ele>
        <time>2020-06-07T09:25:09.000Z</time>
      </trkpt>
      <trkpt lat="45.87537" lon="4.83024">
        <ele>202.1</ele>
        <time>2020-06-07T09:25:10.000Z</time>
      </trkpt>
      <trkpt lat="45.87536" lon="4.83038">
        <ele>201.2</ele>
        <time>2020-06-07T09:25:11.000Z</time>
      </trkpt>
      <trkpt lat="45.87533" lon="4.83053">
        <ele>200.3</ele>
        <time>2020-06-07T09:25:12.000Z</time>
      </trkpt>
      <trkpt lat="45.87529" lon="4.83067">
        <ele>199.3</ele>
        <time>2020-06-07T09:25:13.000Z</time>
      </trkpt>
      <trkpt lat="45.87522" lon="4.83079">
        <ele>198.2</ele>
        <time>2020-06-07T09:25:14.000Z</time>
      </trkpt>
      <trkpt lat="45.87515" lon="4.83091">
        <ele>197.2</ele>
        <time>2020-06-07T09:25:15.000Z</time>
      </trkpt>
      <trkpt lat="45.87507" lon="4.83102">
        <ele>196.1</ele>
        <time>2020-06-07T09:25:16.000Z</time>
      </trkpt>
      <trkpt lat="45.87499" lon="4.83111">
        <ele>195.1</ele>
        <time>2020-06-07T09:25:17.000Z</time>
      </trkpt>
      <trkpt lat="45.87492" lon="4.8312">
        <ele>194.3</ele>
        <time>2020-06-07T09:25:18.000Z</time>
      </trkpt>
      <trkpt lat="45.87485" lon="4.8313">
        <ele>193.5</ele>
        <time>2020-06-07T09:25:19.000Z</time>
      </trkpt>
      <trkpt lat="45.8748" lon="4.83141">
        <ele>192.7</ele>
        <time>2020-06-07T09:25:20.000Z</time>
      </trkpt>
      <trkpt lat="45.87479" lon="4.83149">
        <ele>192.2</ele>
        <time>2020-06-07T09:25:21.000Z</time>
      </trkpt>
      <trkpt lat="45.87486" lon="4.83156">
        <ele>191.4</ele>
        <time>2020-06-07T09:25:22.000Z</time>
      </trkpt>
      <trkpt lat="45.87496" lon="4.83162">
        <ele>190.4</ele>
        <time>2020-06-07T09:25:23.000Z</time>
      </trkpt>
      <trkpt lat="45.87505" lon="4.83164">
        <ele>189.4</ele>
        <time>2020-06-07T09:25:24.000Z</time>
      </trkpt>
      <trkpt lat="45.87512" lon="4.83162">
        <ele>189.3</ele>
        <time>2020-06-07T09:25:25.000Z</time>
      </trkpt>
      <trkpt lat="45.87523" lon="4.83161">
        <ele>189</ele>
        <time>2020-06-07T09:25:26.000Z</time>
      </trkpt>
      <trkpt lat="45.87532" lon="4.83161">
        <ele>188.9</ele>
        <time>2020-06-07T09:25:27.000Z</time>
      </trkpt>
      <trkpt lat="45.87541" lon="4.83166">
        <ele>188.2</ele>
        <time>2020-06-07T09:25:28.000Z</time>
      </trkpt>
      <trkpt lat="45.87549" lon="4.83173">
        <ele>186.7</ele>
        <time>2020-06-07T09:25:29.000Z</time>
      </trkpt>
      <trkpt lat="45.87556" lon="4.83182">
        <ele>185.6</ele>
        <time>2020-06-07T09:25:30.000Z</time>
      </trkpt>
      <trkpt lat="45.87562" lon="4.83192">
        <ele>184.8</ele>
        <time>2020-06-07T09:25:31.000Z</time>
      </trkpt>
      <trkpt lat="45.87567" lon="4.83202">
        <ele>184.4</ele>
        <time>2020-06-07T09:25:32.000Z</time>
      </trkpt>
      <trkpt lat="45.87571" lon="4.83212">
        <ele>184</ele>
        <time>2020-06-07T09:25:33.000Z</time>
      </trkpt>
      <trkpt lat="45.87573" lon="4.83222">
        <ele>183.7</ele>
        <time>2020-06-07T09:25:34.000Z</time>
      </trkpt>
      <trkpt lat="45.87573" lon="4.83233">
        <ele>183.3</ele>
        <time>2020-06-07T09:25:35.000Z</time>
      </trkpt>
      <trkpt lat="45.87569" lon="4.83242">
        <ele>182.6</ele>
        <time>2020-06-07T09:25:36.000Z</time>
      </trkpt>
      <trkpt lat="45.87564" lon="4.8325">
        <ele>181.9</ele>
        <time>2020-06-07T09:25:37.000Z</time>
      </trkpt>
      <trkpt lat="45.87557" lon="4.83257">
        <ele>181.2</ele>
        <time>2020-06-07T09:25:38.000Z</time>
      </trkpt>
      <trkpt lat="45.87553" lon="4.83264">
        <ele>180.7</ele>
        <time>2020-06-07T09:25:39.000Z</time>
      </trkpt>
      <trkpt lat="45.87546" lon="4.83273">
        <ele>180</ele>
        <time>2020-06-07T09:25:40.000Z</time>
      </trkpt>
      <trkpt lat="45.87543" lon="4.83284">
        <ele>178.7</ele>
        <time>2020-06-07T09:25:41.000Z</time>
      </trkpt>
      <trkpt lat="45.87543" lon="4.83296">
        <ele>178</ele>
        <time>2020-06-07T09:25:42.000Z</time>
      </trkpt>
      <trkpt lat="45.87546" lon="4.83307">
        <ele>177.3</ele>
        <time>2020-06-07T09:25:43.000Z</time>
      </trkpt>
      <trkpt lat="45.87551" lon="4.83318">
        <ele>176.7</ele>
        <time>2020-06-07T09:25:44.000Z</time>
      </trkpt>
      <trkpt lat="45.87556" lon="4.83328">
        <ele>176.1</ele>
        <time>2020-06-07T09:25:45.000Z</time>
      </trkpt>
      <trkpt lat="45.87562" lon="4.83339">
        <ele>175.6</ele>
        <time>2020-06-07T09:25:46.000Z</time>
      </trkpt>
      <trkpt lat="45.87569" lon="4.83349">
        <ele>175.2</ele>
        <time>2020-06-07T09:25:47.000Z</time>
      </trkpt>
      <trkpt lat="45.87576" lon="4.83359">
        <ele>174.7</ele>
        <time>2020-06-07T09:25:48.000Z</time>
      </trkpt>
      <trkpt lat="45.87584" lon="4.83369">
        <ele>174.3</ele>
        <time>2020-06-07T09:25:49.000Z</time>
      </trkpt>
      <trkpt lat="45.87592" lon="4.83379">
        <ele>174</ele>
        <time>2020-06-07T09:25:50.000Z</time>
      </trkpt>
      <trkpt lat="45.876" lon="4.83388">
        <ele>173.7</ele>
        <time>2020-06-07T09:25:51.000Z</time>
      </trkpt>
      <trkpt lat="45.87608" lon="4.83396">
        <ele>173.5</ele>
        <time>2020-06-07T09:25:52.000Z</time>
      </trkpt>
      <trkpt lat="45.87616" lon="4.83404">
        <ele>173.3</ele>
        <time>2020-06-07T09:25:53.000Z</time>
      </trkpt>
      <trkpt lat="45.87623" lon="4.83411">
        <ele>173.1</ele>
        <time>2020-06-07T09:25:54.000Z</time>
      </trkpt>
      <trkpt lat="45.8763" lon="4.83418">
        <ele>173</ele>
        <time>2020-06-07T09:25:55.000Z</time>
      </trkpt>
      <trkpt lat="45.87636" lon="4.83425">
        <ele>173</ele>
        <time>2020-06-07T09:25:56.000Z</time>
      </trkpt>
      <trkpt lat="45.87642" lon="4.83432">
        <ele>172.9</ele>
        <time>2020-06-07T09:25:57.000Z</time>
      </trkpt>
      <trkpt lat="45.87647" lon="4.83438">
        <ele>172.9</ele>
        <time>2020-06-07T09:25:58.000Z</time>
      </trkpt>
      <trkpt lat="45.87651" lon="4.83445">
        <ele>172.9</ele>
        <time>2020-06-07T09:25:59.000Z</time>
      </trkpt>
      <trkpt lat="45.87655" lon="4.8345">
        <ele>173</ele>
        <time>2020-06-07T09:26:00.000Z</time>
      </trkpt>
      <trkpt lat="45.87659" lon="4.83455">
        <ele>173.1</ele>
        <time>2020-06-07T09:26:01.000Z</time>
      </trkpt>
      <trkpt lat="45.87663" lon="4.8346">
        <ele>173.2</ele>
        <time>2020-06-07T09:26:02.000Z</time>
      </trkpt>
      <trkpt lat="45.87665" lon="4.83465">
        <ele>173.2</ele>
        <time>2020-06-07T09:26:03.000Z</time>
      </trkpt>
      <trkpt lat="45.87667" lon="4.83468">
        <ele>173.1</ele>
        <time>2020-06-07T09:26:04.000Z</time>
      </trkpt>
      <trkpt lat="45.87669" lon="4.8347">
        <ele>173.1</ele>
        <time>2020-06-07T09:26:05.000Z</time>
      </trkpt>
      <trkpt lat="45.8767" lon="4.83473">
        <ele>173</ele>
        <time>2020-06-07T09:26:06.000Z</time>
      </trkpt>
      <trkpt lat="45.87671" lon="4.83475">
        <ele>173</ele>
        <time>2020-06-07T09:26:07.000Z</time>
      </trkpt>
      <trkpt lat="45.87673" lon="4.83477">
        <ele>173</ele>
        <time>2020-06-07T09:26:08.000Z</time>
      </trkpt>
      <trkpt lat="45.87673" lon="4.83479">
        <ele>172.9</ele>
        <time>2020-06-07T09:26:09.000Z</time>
      </trkpt>
      <trkpt lat="45.87674" lon="4.83481">
        <ele>172.9</ele>
        <time>2020-06-07T09:26:10.000Z</time>
      </trkpt>
      <trkpt lat="45.87675" lon="4.83483">
        <ele>172.9</ele>
        <time>2020-06-07T09:26:11.000Z</time>
      </trkpt>
      <trkpt lat="45.87675" lon="4.83486">
        <ele>172.8</ele>
        <time>2020-06-07T09:26:12.000Z</time>
      </trkpt>
      <trkpt lat="45.87675" lon="4.83488">
        <ele>172.8</ele>
        <time>2020-06-07T09:26:13.000Z</time>
      </trkpt>
      <trkpt lat="45.87675" lon="4.83491">
        <ele>172.9</ele>
        <time>2020-06-07T09:26:14.000Z</time>
      </trkpt>
      <trkpt lat="45.87675" lon="4.83494">
        <ele>172.9</ele>
        <time>2020-06-07T09:26:15.000Z</time>
      </trkpt>
      <trkpt lat="45.87675" lon="4.83496">
        <ele>172.9</ele>
        <time>2020-06-07T09:26:16.000Z</time>
      </trkpt>
      <trkpt lat="45.87676" lon="4.83499">
        <ele>172.9</ele>
        <time>2020-06-07T09:26:17.000Z</time>
      </trkpt>
      <trkpt lat="45.87676" lon="4.83502">
        <ele>172.9</ele>
        <time>2020-06-07T09:26:18.000Z</time>
      </trkpt>
      <trkpt lat="45.87676" lon="4.83505">
        <ele>172.9</ele>
        <time>2020-06-07T09:26:19.000Z</time>
      </trkpt>
      <trkpt lat="45.87676" lon="4.83508">
        <ele>172.9</ele>
        <time>2020-06-07T09:26:20.000Z</time>
      </trkpt>
      <trkpt lat="45.87676" lon="4.83511">
        <ele>172.9</ele>
        <time>2020-06-07T09:26:21.000Z</time>
      </trkpt>
      <trkpt lat="45.87676" lon="4.83515">
        <ele>173.1</ele>
        <time>2020-06-07T09:26:22.000Z</time>
      </trkpt>
      <trkpt lat="45.87676" lon="4.83518">
        <ele>173.1</ele>
        <time>2020-06-07T09:26:23.000Z</time>
      </trkpt>
      <trkpt lat="45.87677" lon="4.83521">
        <ele>173</ele>
        <time>2020-06-07T09:26:24.000Z</time>
      </trkpt>
      <trkpt lat="45.87678" lon="4.83524">
        <ele>173</ele>
        <time>2020-06-07T09:26:25.000Z</time>
      </trkpt>
      <trkpt lat="45.87678" lon="4.83525">
        <ele>173</ele>
        <time>2020-06-07T09:26:26.000Z</time>
      </trkpt>
      <trkpt lat="45.87677" lon="4.83527">
        <ele>173</ele>
        <time>2020-06-07T09:26:27.000Z</time>
      </trkpt>
      <trkpt lat="45.87677" lon="4.83528">
        <ele>173</ele>
        <time>2020-06-07T09:26:28.000Z</time>
      </trkpt>
      <trkpt lat="45.87676" lon="4.83529">
        <ele>173</ele>
        <time>2020-06-07T09:26:29.000Z</time>
      </trkpt>
      <trkpt lat="45.87676" lon="4.8353">
        <ele>173</ele>
        <time>2020-06-07T09:26:30.000Z</time>
      </trkpt>
      <trkpt lat="45.87676" lon="4.8353">
        <ele>173</ele>
        <time>2020-06-07T09:26:31.000Z</time>
      </trkpt>
      <trkpt lat="45.87675" lon="4.8353">
        <ele>173</ele>
        <time>2020-06-07T09:26:32.000Z</time>
      </trkpt>
      <trkpt lat="45.87675" lon="4.83537">
        <ele>172.7</ele>
        <time>2020-06-07T09:26:36.000Z</time>
      </trkpt>
      <trkpt lat="45.87675" lon="4.83541">
        <ele>172.8</ele>
        <time>2020-06-07T09:26:37.000Z</time>
      </trkpt>
      <trkpt lat="45.87675" lon="4.83545">
        <ele>172.9</ele>
        <time>2020-06-07T09:26:38.000Z</time>
      </trkpt>
      <trkpt lat="45.87676" lon="4.8355">
        <ele>173</ele>
        <time>2020-06-07T09:26:39.000Z</time>
      </trkpt>
      <trkpt lat="45.87677" lon="4.83554">
        <ele>173</ele>
        <time>2020-06-07T09:26:40.000Z</time>
      </trkpt>
      <trkpt lat="45.87678" lon="4.83559">
        <ele>173.1</ele>
        <time>2020-06-07T09:26:41.000Z</time>
      </trkpt>
      <trkpt lat="45.87678" lon="4.83564">
        <ele>173.4</ele>
        <time>2020-06-07T09:26:42.000Z</time>
      </trkpt>
      <trkpt lat="45.87679" lon="4.83569">
        <ele>173.5</ele>
        <time>2020-06-07T09:26:43.000Z</time>
      </trkpt>
      <trkpt lat="45.87679" lon="4.83574">
        <ele>173.5</ele>
        <time>2020-06-07T09:26:44.000Z</time>
      </trkpt>
      <trkpt lat="45.8768" lon="4.83581">
        <ele>173.6</ele>
        <time>2020-06-07T09:26:45.000Z</time>
      </trkpt>
      <trkpt lat="45.8768" lon="4.83587">
        <ele>173.7</ele>
        <time>2020-06-07T09:26:46.000Z</time>
      </trkpt>
      <trkpt lat="45.8768" lon="4.83593">
        <ele>173.8</ele>
        <time>2020-06-07T09:26:47.000Z</time>
      </trkpt>
      <trkpt lat="45.87681" lon="4.836">
        <ele>173.9</ele>
        <time>2020-06-07T09:26:48.000Z</time>
      </trkpt>
      <trkpt lat="45.87682" lon="4.83607">
        <ele>174.1</ele>
        <time>2020-06-07T09:26:49.000Z</time>
      </trkpt>
      <trkpt lat="45.87682" lon="4.83614">
        <ele>174.2</ele>
        <time>2020-06-07T09:26:50.000Z</time>
      </trkpt>
      <trkpt lat="45.87683" lon="4.83621">
        <ele>174.4</ele>
        <time>2020-06-07T09:26:51.000Z</time>
      </trkpt>
      <trkpt lat="45.87684" lon="4.83627">
        <ele>174.5</ele>
        <time>2020-06-07T09:26:52.000Z</time>
      </trkpt>
      <trkpt lat="45.87685" lon="4.83633">
        <ele>174.6</ele>
        <time>2020-06-07T09:26:53.000Z</time>
      </trkpt>
      <trkpt lat="45.87686" lon="4.8364">
        <ele>174.8</ele>
        <time>2020-06-07T09:26:54.000Z</time>
      </trkpt>
      <trkpt lat="45.87686" lon="4.83646">
        <ele>174.9</ele>
        <time>2020-06-07T09:26:55.000Z</time>
      </trkpt>
      <trkpt lat="45.87687" lon="4.83653">
        <ele>175</ele>
        <time>2020-06-07T09:26:56.000Z</time>
      </trkpt>
      <trkpt lat="45.87688" lon="4.8366">
        <ele>175.2</ele>
        <time>2020-06-07T09:26:57.000Z</time>
      </trkpt>
      <trkpt lat="45.87688" lon="4.83666">
        <ele>175.3</ele>
        <time>2020-06-07T09:26:58.000Z</time>
      </trkpt>
      <trkpt lat="45.87689" lon="4.83673">
        <ele>175.4</ele>
        <time>2020-06-07T09:26:59.000Z</time>
      </trkpt>
      <trkpt lat="45.87689" lon="4.83679">
        <ele>175.5</ele>
        <time>2020-06-07T09:27:00.000Z</time>
      </trkpt>
      <trkpt lat="45.8769" lon="4.83686">
        <ele>175.5</ele>
        <time>2020-06-07T09:27:01.000Z</time>
      </trkpt>
      <trkpt lat="45.8769" lon="4.83693">
        <ele>175.5</ele>
        <time>2020-06-07T09:27:02.000Z</time>
      </trkpt>
      <trkpt lat="45.87691" lon="4.83699">
        <ele>175.5</ele>
        <time>2020-06-07T09:27:03.000Z</time>
      </trkpt>
      <trkpt lat="45.87692" lon="4.83706">
        <ele>175.5</ele>
        <time>2020-06-07T09:27:04.000Z</time>
      </trkpt>
      <trkpt lat="45.87692" lon="4.83713">
        <ele>175.5</ele>
        <time>2020-06-07T09:27:05.000Z</time>
      </trkpt>
      <trkpt lat="45.87693" lon="4.8372">
        <ele>175.5</ele>
        <time>2020-06-07T09:27:06.000Z</time>
      </trkpt>
      <trkpt lat="45.87694" lon="4.83727">
        <ele>175.4</ele>
        <time>2020-06-07T09:27:07.000Z</time>
      </trkpt>
      <trkpt lat="45.87694" lon="4.83735">
        <ele>175.3</ele>
        <time>2020-06-07T09:27:08.000Z</time>
      </trkpt>
      <trkpt lat="45.87695" lon="4.83743">
        <ele>175.1</ele>
        <time>2020-06-07T09:27:09.000Z</time>
      </trkpt>
      <trkpt lat="45.87695" lon="4.83751">
        <ele>174.9</ele>
        <time>2020-06-07T09:27:10.000Z</time>
      </trkpt>
      <trkpt lat="45.87696" lon="4.83759">
        <ele>174.8</ele>
        <time>2020-06-07T09:27:11.000Z</time>
      </trkpt>
      <trkpt lat="45.87697" lon="4.83767">
        <ele>174.6</ele>
        <time>2020-06-07T09:27:12.000Z</time>
      </trkpt>
      <trkpt lat="45.87697" lon="4.83774">
        <ele>174.5</ele>
        <time>2020-06-07T09:27:13.000Z</time>
      </trkpt>
      <trkpt lat="45.87698" lon="4.8378">
        <ele>174.4</ele>
        <time>2020-06-07T09:27:14.000Z</time>
      </trkpt>
      <trkpt lat="45.87698" lon="4.83785">
        <ele>174.3</ele>
        <time>2020-06-07T09:27:15.000Z</time>
      </trkpt>
      <trkpt lat="45.87699" lon="4.83788">
        <ele>174.2</ele>
        <time>2020-06-07T09:27:16.000Z</time>
      </trkpt>
      <trkpt lat="45.87699" lon="4.83792">
        <ele>174.1</ele>
        <time>2020-06-07T09:27:17.000Z</time>
      </trkpt>
      <trkpt lat="45.87699" lon="4.83794">
        <ele>174.1</ele>
        <time>2020-06-07T09:27:18.000Z</time>
      </trkpt>
      <trkpt lat="45.87699" lon="4.83797">
        <ele>174</ele>
        <time>2020-06-07T09:27:19.000Z</time>
      </trkpt>
      <trkpt lat="45.87699" lon="4.83801">
        <ele>173.9</ele>
        <time>2020-06-07T09:27:20.000Z</time>
      </trkpt>
      <trkpt lat="45.877" lon="4.83805">
        <ele>173.8</ele>
        <time>2020-06-07T09:27:21.000Z</time>
      </trkpt>
      <trkpt lat="45.877" lon="4.8381">
        <ele>173.6</ele>
        <time>2020-06-07T09:27:22.000Z</time>
      </trkpt>
      <trkpt lat="45.877" lon="4.83814">
        <ele>173.5</ele>
        <time>2020-06-07T09:27:23.000Z</time>
      </trkpt>
      <trkpt lat="45.87699" lon="4.83819">
        <ele>173.5</ele>
        <time>2020-06-07T09:27:24.000Z</time>
      </trkpt>
      <trkpt lat="45.87696" lon="4.83823">
        <ele>173.6</ele>
        <time>2020-06-07T09:27:25.000Z</time>
      </trkpt>
      <trkpt lat="45.87693" lon="4.83827">
        <ele>173.7</ele>
        <time>2020-06-07T09:27:26.000Z</time>
      </trkpt>
      <trkpt lat="45.87689" lon="4.83829">
        <ele>173.6</ele>
        <time>2020-06-07T09:27:27.000Z</time>
      </trkpt>
      <trkpt lat="45.87686" lon="4.8383">
        <ele>173.4</ele>
        <time>2020-06-07T09:27:28.000Z</time>
      </trkpt>
      <trkpt lat="45.87683" lon="4.83831">
        <ele>173.3</ele>
        <time>2020-06-07T09:27:29.000Z</time>
      </trkpt>
      <trkpt lat="45.8768" lon="4.83831">
        <ele>173.2</ele>
        <time>2020-06-07T09:27:30.000Z</time>
      </trkpt>
      <trkpt lat="45.87677" lon="4.83831">
        <ele>173.1</ele>
        <time>2020-06-07T09:27:31.000Z</time>
      </trkpt>
      <trkpt lat="45.87674" lon="4.83832">
        <ele>173</ele>
        <time>2020-06-07T09:27:32.000Z</time>
      </trkpt>
      <trkpt lat="45.87672" lon="4.83832">
        <ele>173</ele>
        <time>2020-06-07T09:27:33.000Z</time>
      </trkpt>
      <trkpt lat="45.8767" lon="4.83833">
        <ele>172.9</ele>
        <time>2020-06-07T09:27:34.000Z</time>
      </trkpt>
      <trkpt lat="45.87668" lon="4.83833">
        <ele>172.8</ele>
        <time>2020-06-07T09:27:35.000Z</time>
      </trkpt>
      <trkpt lat="45.87666" lon="4.83833">
        <ele>172.8</ele>
        <time>2020-06-07T09:27:36.000Z</time>
      </trkpt>
      <trkpt lat="45.87663" lon="4.83834">
        <ele>172.7</ele>
        <time>2020-06-07T09:27:37.000Z</time>
      </trkpt>
      <trkpt lat="45.8766" lon="4.83835">
        <ele>172.5</ele>
        <time>2020-06-07T09:27:38.000Z</time>
      </trkpt>
      <trkpt lat="45.87657" lon="4.83835">
        <ele>171.9</ele>
        <time>2020-06-07T09:27:39.000Z</time>
      </trkpt>
      <trkpt lat="45.87655" lon="4.83835">
        <ele>171.9</ele>
        <time>2020-06-07T09:27:40.000Z</time>
      </trkpt>
      <trkpt lat="45.87654" lon="4.83834">
        <ele>171.9</ele>
        <time>2020-06-07T09:27:41.000Z</time>
      </trkpt>
      <trkpt lat="45.87653" lon="4.83832">
        <ele>171.8</ele>
        <time>2020-06-07T09:27:42.000Z</time>
      </trkpt>
      <trkpt lat="45.87652" lon="4.83829">
        <ele>171.8</ele>
        <time>2020-06-07T09:27:43.000Z</time>
      </trkpt>
      <trkpt lat="45.87652" lon="4.83826">
        <ele>171.8</ele>
        <time>2020-06-07T09:27:44.000Z</time>
      </trkpt>
      <trkpt lat="45.87652" lon="4.83823">
        <ele>171.8</ele>
        <time>2020-06-07T09:27:45.000Z</time>
      </trkpt>
      <trkpt lat="45.87651" lon="4.83819">
        <ele>171.7</ele>
        <time>2020-06-07T09:27:46.000Z</time>
      </trkpt>
      <trkpt lat="45.87651" lon="4.83816">
        <ele>171.7</ele>
        <time>2020-06-07T09:27:47.000Z</time>
      </trkpt>
      <trkpt lat="45.8765" lon="4.83813">
        <ele>171</ele>
        <time>2020-06-07T09:27:48.000Z</time>
      </trkpt>
      <trkpt lat="45.87649" lon="4.83811">
        <ele>170.7</ele>
        <time>2020-06-07T09:27:49.000Z</time>
      </trkpt>
      <trkpt lat="45.87649" lon="4.83809">
        <ele>170.5</ele>
        <time>2020-06-07T09:27:50.000Z</time>
      </trkpt>
      <trkpt lat="45.87649" lon="4.83809">
        <ele>170.5</ele>
        <time>2020-06-07T09:27:51.000Z</time>
      </trkpt>
      <trkpt lat="45.87649" lon="4.83809">
        <ele>170.5</ele>
        <time>2020-06-07T09:27:52.000Z</time>
      </trkpt>
      <trkpt lat="45.87649" lon="4.83794">
        <ele>168.7</ele>
        <time>2020-06-07T09:30:26.000Z</time>
      </trkpt>
      <trkpt lat="45.87648" lon="4.83791">
        <ele>168.2</ele>
        <time>2020-06-07T09:30:27.000Z</time>
      </trkpt>
      <trkpt lat="45.87647" lon="4.83787">
        <ele>167.7</ele>
        <time>2020-06-07T09:30:28.000Z</time>
      </trkpt>
      <trkpt lat="45.87644" lon="4.83785">
        <ele>167.7</ele>
        <time>2020-06-07T09:30:29.000Z</time>
      </trkpt>
      <trkpt lat="45.87641" lon="4.83784">
        <ele>167.7</ele>
        <time>2020-06-07T09:30:30.000Z</time>
      </trkpt>
      <trkpt lat="45.87637" lon="4.83785">
        <ele>167.7</ele>
        <time>2020-06-07T09:30:31.000Z</time>
      </trkpt>
      <trkpt lat="45.87634" lon="4.83786">
        <ele>167.7</ele>
        <time>2020-06-07T09:30:32.000Z</time>
      </trkpt>
      <trkpt lat="45.8763" lon="4.83786">
        <ele>167.7</ele>
        <time>2020-06-07T09:30:33.000Z</time>
      </trkpt>
      <trkpt lat="45.87626" lon="4.83786">
        <ele>167.7</ele>
        <time>2020-06-07T09:30:34.000Z</time>
      </trkpt>
      <trkpt lat="45.87622" lon="4.83785">
        <ele>167.7</ele>
        <time>2020-06-07T09:30:35.000Z</time>
      </trkpt>
      <trkpt lat="45.87618" lon="4.83785">
        <ele>167.7</ele>
        <time>2020-06-07T09:30:36.000Z</time>
      </trkpt>
      <trkpt lat="45.87614" lon="4.83784">
        <ele>167.7</ele>
        <time>2020-06-07T09:30:37.000Z</time>
      </trkpt>
      <trkpt lat="45.8761" lon="4.83784">
        <ele>167.8</ele>
        <time>2020-06-07T09:30:38.000Z</time>
      </trkpt>
      <trkpt lat="45.87605" lon="4.83783">
        <ele>167.8</ele>
        <time>2020-06-07T09:30:39.000Z</time>
      </trkpt>
      <trkpt lat="45.87601" lon="4.83783">
        <ele>167.8</ele>
        <time>2020-06-07T09:30:40.000Z</time>
      </trkpt>
      <trkpt lat="45.87596" lon="4.83782">
        <ele>167.8</ele>
        <time>2020-06-07T09:30:41.000Z</time>
      </trkpt>
      <trkpt lat="45.87592" lon="4.83782">
        <ele>167.9</ele>
        <time>2020-06-07T09:30:42.000Z</time>
      </trkpt>
      <trkpt lat="45.87587" lon="4.83782">
        <ele>167.9</ele>
        <time>2020-06-07T09:30:43.000Z</time>
      </trkpt>
      <trkpt lat="45.87583" lon="4.83781">
        <ele>167.9</ele>
        <time>2020-06-07T09:30:44.000Z</time>
      </trkpt>
      <trkpt lat="45.87578" lon="4.83781">
        <ele>167.9</ele>
        <time>2020-06-07T09:30:45.000Z</time>
      </trkpt>
      <trkpt lat="45.87574" lon="4.8378">
        <ele>168</ele>
        <time>2020-06-07T09:30:46.000Z</time>
      </trkpt>
      <trkpt lat="45.87569" lon="4.83781">
        <ele>168</ele>
        <time>2020-06-07T09:30:47.000Z</time>
      </trkpt>
      <trkpt lat="45.87564" lon="4.83782">
        <ele>168</ele>
        <time>2020-06-07T09:30:48.000Z</time>
      </trkpt>
      <trkpt lat="45.8756" lon="4.83782">
        <ele>168</ele>
        <time>2020-06-07T09:30:49.000Z</time>
      </trkpt>
      <trkpt lat="45.87555" lon="4.83781">
        <ele>168</ele>
        <time>2020-06-07T09:30:50.000Z</time>
      </trkpt>
      <trkpt lat="45.8755" lon="4.8378">
        <ele>168</ele>
        <time>2020-06-07T09:30:51.000Z</time>
      </trkpt>
      <trkpt lat="45.87544" lon="4.83779">
        <ele>168</ele>
        <time>2020-06-07T09:30:52.000Z</time>
      </trkpt>
      <trkpt lat="45.87539" lon="4.83777">
        <ele>168</ele>
        <time>2020-06-07T09:30:53.000Z</time>
      </trkpt>
      <trkpt lat="45.87533" lon="4.83776">
        <ele>167.9</ele>
        <time>2020-06-07T09:30:54.000Z</time>
      </trkpt>
      <trkpt lat="45.87528" lon="4.83775">
        <ele>167.9</ele>
        <time>2020-06-07T09:30:55.000Z</time>
      </trkpt>
      <trkpt lat="45.87522" lon="4.83774">
        <ele>167.9</ele>
        <time>2020-06-07T09:30:56.000Z</time>
      </trkpt>
      <trkpt lat="45.87516" lon="4.83772">
        <ele>167.9</ele>
        <time>2020-06-07T09:30:57.000Z</time>
      </trkpt>
      <trkpt lat="45.8751" lon="4.83771">
        <ele>167.9</ele>
        <time>2020-06-07T09:30:58.000Z</time>
      </trkpt>
      <trkpt lat="45.87503" lon="4.8377">
        <ele>167.9</ele>
        <time>2020-06-07T09:30:59.000Z</time>
      </trkpt>
      <trkpt lat="45.87497" lon="4.83769">
        <ele>167.9</ele>
        <time>2020-06-07T09:31:00.000Z</time>
      </trkpt>
      <trkpt lat="45.87491" lon="4.83768">
        <ele>167.9</ele>
        <time>2020-06-07T09:31:01.000Z</time>
      </trkpt>
      <trkpt lat="45.87485" lon="4.83767">
        <ele>167.9</ele>
        <time>2020-06-07T09:31:02.000Z</time>
      </trkpt>
      <trkpt lat="45.8748" lon="4.83767">
        <ele>167.9</ele>
        <time>2020-06-07T09:31:03.000Z</time>
      </trkpt>
      <trkpt lat="45.87474" lon="4.83766">
        <ele>167.9</ele>
        <time>2020-06-07T09:31:04.000Z</time>
      </trkpt>
      <trkpt lat="45.87468" lon="4.83765">
        <ele>167.9</ele>
        <time>2020-06-07T09:31:05.000Z</time>
      </trkpt>
      <trkpt lat="45.87462" lon="4.83763">
        <ele>167.8</ele>
        <time>2020-06-07T09:31:06.000Z</time>
      </trkpt>
      <trkpt lat="45.87457" lon="4.83761">
        <ele>167.8</ele>
        <time>2020-06-07T09:31:07.000Z</time>
      </trkpt>
      <trkpt lat="45.87451" lon="4.8376">
        <ele>167.8</ele>
        <time>2020-06-07T09:31:08.000Z</time>
      </trkpt>
      <trkpt lat="45.87445" lon="4.83758">
        <ele>167.7</ele>
        <time>2020-06-07T09:31:09.000Z</time>
      </trkpt>
      <trkpt lat="45.87439" lon="4.83757">
        <ele>167.7</ele>
        <time>2020-06-07T09:31:10.000Z</time>
      </trkpt>
      <trkpt lat="45.87433" lon="4.83756">
        <ele>167.6</ele>
        <time>2020-06-07T09:31:11.000Z</time>
      </trkpt>
      <trkpt lat="45.87427" lon="4.83755">
        <ele>167.6</ele>
        <time>2020-06-07T09:31:12.000Z</time>
      </trkpt>
      <trkpt lat="45.87422" lon="4.83754">
        <ele>167.5</ele>
        <time>2020-06-07T09:31:13.000Z</time>
      </trkpt>
      <trkpt lat="45.87416" lon="4.83754">
        <ele>167.5</ele>
        <time>2020-06-07T09:31:14.000Z</time>
      </trkpt>
      <trkpt lat="45.8741" lon="4.83753">
        <ele>167.5</ele>
        <time>2020-06-07T09:31:15.000Z</time>
      </trkpt>
      <trkpt lat="45.87404" lon="4.83753">
        <ele>167.4</ele>
        <time>2020-06-07T09:31:16.000Z</time>
      </trkpt>
      <trkpt lat="45.87398" lon="4.83753">
        <ele>167.4</ele>
        <time>2020-06-07T09:31:17.000Z</time>
      </trkpt>
      <trkpt lat="45.87392" lon="4.83753">
        <ele>167.3</ele>
        <time>2020-06-07T09:31:18.000Z</time>
      </trkpt>
      <trkpt lat="45.87386" lon="4.83751">
        <ele>167.3</ele>
        <time>2020-06-07T09:31:19.000Z</time>
      </trkpt>
      <trkpt lat="45.8738" lon="4.83749">
        <ele>167.3</ele>
        <time>2020-06-07T09:31:20.000Z</time>
      </trkpt>
      <trkpt lat="45.87374" lon="4.83748">
        <ele>167.3</ele>
        <time>2020-06-07T09:31:21.000Z</time>
      </trkpt>
      <trkpt lat="45.87369" lon="4.83747">
        <ele>167.3</ele>
        <time>2020-06-07T09:31:22.000Z</time>
      </trkpt>
      <trkpt lat="45.87363" lon="4.83745">
        <ele>167.3</ele>
        <time>2020-06-07T09:31:23.000Z</time>
      </trkpt>
      <trkpt lat="45.87357" lon="4.83744">
        <ele>167.3</ele>
        <time>2020-06-07T09:31:24.000Z</time>
      </trkpt>
      <trkpt lat="45.8735" lon="4.83744">
        <ele>167.3</ele>
        <time>2020-06-07T09:31:25.000Z</time>
      </trkpt>
      <trkpt lat="45.87344" lon="4.83743">
        <ele>167.3</ele>
        <time>2020-06-07T09:31:26.000Z</time>
      </trkpt>
      <trkpt lat="45.87337" lon="4.83742">
        <ele>167.3</ele>
        <time>2020-06-07T09:31:27.000Z</time>
      </trkpt>
      <trkpt lat="45.87331" lon="4.8374">
        <ele>167.3</ele>
        <time>2020-06-07T09:31:28.000Z</time>
      </trkpt>
      <trkpt lat="45.87324" lon="4.83739">
        <ele>167.3</ele>
        <time>2020-06-07T09:31:29.000Z</time>
      </trkpt>
      <trkpt lat="45.87318" lon="4.83738">
        <ele>167.3</ele>
        <time>2020-06-07T09:31:30.000Z</time>
      </trkpt>
      <trkpt lat="45.87312" lon="4.83737">
        <ele>167.3</ele>
        <time>2020-06-07T09:31:31.000Z</time>
      </trkpt>
      <trkpt lat="45.87305" lon="4.83736">
        <ele>167.3</ele>
        <time>2020-06-07T09:31:32.000Z</time>
      </trkpt>
      <trkpt lat="45.87299" lon="4.83735">
        <ele>167.2</ele>
        <time>2020-06-07T09:31:33.000Z</time>
      </trkpt>
      <trkpt lat="45.87293" lon="4.83734">
        <ele>167.2</ele>
        <time>2020-06-07T09:31:34.000Z</time>
      </trkpt>
      <trkpt lat="45.87287" lon="4.83734">
        <ele>167.2</ele>
        <time>2020-06-07T09:31:35.000Z</time>
      </trkpt>
      <trkpt lat="45.87281" lon="4.83734">
        <ele>167.2</ele>
        <time>2020-06-07T09:31:36.000Z</time>
      </trkpt>
      <trkpt lat="45.87276" lon="4.83735">
        <ele>167.2</ele>
        <time>2020-06-07T09:31:37.000Z</time>
      </trkpt>
      <trkpt lat="45.8727" lon="4.83735">
        <ele>167.2</ele>
        <time>2020-06-07T09:31:38.000Z</time>
      </trkpt>
      <trkpt lat="45.87265" lon="4.83735">
        <ele>167.2</ele>
        <time>2020-06-07T09:31:39.000Z</time>
      </trkpt>
      <trkpt lat="45.87259" lon="4.83734">
        <ele>167.2</ele>
        <time>2020-06-07T09:31:40.000Z</time>
      </trkpt>
      <trkpt lat="45.87253" lon="4.83732">
        <ele>167.2</ele>
        <time>2020-06-07T09:31:41.000Z</time>
      </trkpt>
      <trkpt lat="45.87247" lon="4.8373">
        <ele>167.2</ele>
        <time>2020-06-07T09:31:42.000Z</time>
      </trkpt>
      <trkpt lat="45.87242" lon="4.83729">
        <ele>167.3</ele>
        <time>2020-06-07T09:31:43.000Z</time>
      </trkpt>
      <trkpt lat="45.87236" lon="4.83727">
        <ele>167.3</ele>
        <time>2020-06-07T09:31:44.000Z</time>
      </trkpt>
      <trkpt lat="45.87231" lon="4.83726">
        <ele>167.3</ele>
        <time>2020-06-07T09:31:45.000Z</time>
      </trkpt>
      <trkpt lat="45.87226" lon="4.83725">
        <ele>167.3</ele>
        <time>2020-06-07T09:31:46.000Z</time>
      </trkpt>
      <trkpt lat="45.87222" lon="4.83725">
        <ele>167.3</ele>
        <time>2020-06-07T09:31:47.000Z</time>
      </trkpt>
      <trkpt lat="45.87218" lon="4.83725">
        <ele>167.3</ele>
        <time>2020-06-07T09:31:48.000Z</time>
      </trkpt>
      <trkpt lat="45.87215" lon="4.83724">
        <ele>167.3</ele>
        <time>2020-06-07T09:31:49.000Z</time>
      </trkpt>
      <trkpt lat="45.87211" lon="4.83724">
        <ele>167.3</ele>
        <time>2020-06-07T09:31:50.000Z</time>
      </trkpt>
      <trkpt lat="45.87208" lon="4.83725">
        <ele>167.3</ele>
        <time>2020-06-07T09:31:51.000Z</time>
      </trkpt>
      <trkpt lat="45.87203" lon="4.83726">
        <ele>167.3</ele>
        <time>2020-06-07T09:31:52.000Z</time>
      </trkpt>
      <trkpt lat="45.87199" lon="4.83726">
        <ele>167.3</ele>
        <time>2020-06-07T09:31:53.000Z</time>
      </trkpt>
      <trkpt lat="45.87194" lon="4.83726">
        <ele>167.3</ele>
        <time>2020-06-07T09:31:54.000Z</time>
      </trkpt>
      <trkpt lat="45.87189" lon="4.83726">
        <ele>167.3</ele>
        <time>2020-06-07T09:31:55.000Z</time>
      </trkpt>
      <trkpt lat="45.87184" lon="4.83725">
        <ele>167.3</ele>
        <time>2020-06-07T09:31:56.000Z</time>
      </trkpt>
      <trkpt lat="45.8718" lon="4.83723">
        <ele>167.3</ele>
        <time>2020-06-07T09:31:57.000Z</time>
      </trkpt>
      <trkpt lat="45.87175" lon="4.83722">
        <ele>167.3</ele>
        <time>2020-06-07T09:31:58.000Z</time>
      </trkpt>
      <trkpt lat="45.8717" lon="4.83721">
        <ele>167.3</ele>
        <time>2020-06-07T09:31:59.000Z</time>
      </trkpt>
      <trkpt lat="45.87165" lon="4.83719">
        <ele>167.3</ele>
        <time>2020-06-07T09:32:00.000Z</time>
      </trkpt>
      <trkpt lat="45.8716" lon="4.83718">
        <ele>167.2</ele>
        <time>2020-06-07T09:32:01.000Z</time>
      </trkpt>
      <trkpt lat="45.87154" lon="4.83716">
        <ele>167.2</ele>
        <time>2020-06-07T09:32:02.000Z</time>
      </trkpt>
      <trkpt lat="45.87148" lon="4.83715">
        <ele>167.2</ele>
        <time>2020-06-07T09:32:03.000Z</time>
      </trkpt>
      <trkpt lat="45.87142" lon="4.83714">
        <ele>167.2</ele>
        <time>2020-06-07T09:32:04.000Z</time>
      </trkpt>
      <trkpt lat="45.87136" lon="4.83712">
        <ele>167.2</ele>
        <time>2020-06-07T09:32:05.000Z</time>
      </trkpt>
      <trkpt lat="45.87129" lon="4.83711">
        <ele>167.2</ele>
        <time>2020-06-07T09:32:06.000Z</time>
      </trkpt>
      <trkpt lat="45.87123" lon="4.83709">
        <ele>167.2</ele>
        <time>2020-06-07T09:32:07.000Z</time>
      </trkpt>
      <trkpt lat="45.87117" lon="4.83707">
        <ele>167.2</ele>
        <time>2020-06-07T09:32:08.000Z</time>
      </trkpt>
      <trkpt lat="45.8711" lon="4.83705">
        <ele>167.2</ele>
        <time>2020-06-07T09:32:09.000Z</time>
      </trkpt>
      <trkpt lat="45.87103" lon="4.83703">
        <ele>167.2</ele>
        <time>2020-06-07T09:32:10.000Z</time>
      </trkpt>
      <trkpt lat="45.87097" lon="4.83703">
        <ele>167.2</ele>
        <time>2020-06-07T09:32:11.000Z</time>
      </trkpt>
      <trkpt lat="45.8709" lon="4.83703">
        <ele>167.2</ele>
        <time>2020-06-07T09:32:12.000Z</time>
      </trkpt>
      <trkpt lat="45.87083" lon="4.83703">
        <ele>167.2</ele>
        <time>2020-06-07T09:32:13.000Z</time>
      </trkpt>
      <trkpt lat="45.87076" lon="4.83702">
        <ele>167.2</ele>
        <time>2020-06-07T09:32:14.000Z</time>
      </trkpt>
      <trkpt lat="45.87069" lon="4.83701">
        <ele>167.2</ele>
        <time>2020-06-07T09:32:15.000Z</time>
      </trkpt>
      <trkpt lat="45.87062" lon="4.83701">
        <ele>167.2</ele>
        <time>2020-06-07T09:32:16.000Z</time>
      </trkpt>
      <trkpt lat="45.87055" lon="4.83701">
        <ele>167.3</ele>
        <time>2020-06-07T09:32:17.000Z</time>
      </trkpt>
      <trkpt lat="45.87048" lon="4.83701">
        <ele>167.3</ele>
        <time>2020-06-07T09:32:18.000Z</time>
      </trkpt>
      <trkpt lat="45.87041" lon="4.837">
        <ele>167.3</ele>
        <time>2020-06-07T09:32:19.000Z</time>
      </trkpt>
      <trkpt lat="45.87035" lon="4.837">
        <ele>167.2</ele>
        <time>2020-06-07T09:32:20.000Z</time>
      </trkpt>
      <trkpt lat="45.87028" lon="4.83699">
        <ele>167.2</ele>
        <time>2020-06-07T09:32:21.000Z</time>
      </trkpt>
      <trkpt lat="45.8702" lon="4.83699">
        <ele>167.2</ele>
        <time>2020-06-07T09:32:22.000Z</time>
      </trkpt>
      <trkpt lat="45.87014" lon="4.83699">
        <ele>167.2</ele>
        <time>2020-06-07T09:32:23.000Z</time>
      </trkpt>
      <trkpt lat="45.87007" lon="4.83699">
        <ele>167.2</ele>
        <time>2020-06-07T09:32:24.000Z</time>
      </trkpt>
      <trkpt lat="45.87" lon="4.83699">
        <ele>167.2</ele>
        <time>2020-06-07T09:32:25.000Z</time>
      </trkpt>
      <trkpt lat="45.86993" lon="4.83699">
        <ele>167.2</ele>
        <time>2020-06-07T09:32:26.000Z</time>
      </trkpt>
      <trkpt lat="45.86986" lon="4.837">
        <ele>167.3</ele>
        <time>2020-06-07T09:32:27.000Z</time>
      </trkpt>
      <trkpt lat="45.86979" lon="4.83701">
        <ele>167.3</ele>
        <time>2020-06-07T09:32:28.000Z</time>
      </trkpt>
      <trkpt lat="45.86973" lon="4.83701">
        <ele>167.3</ele>
        <time>2020-06-07T09:32:29.000Z</time>
      </trkpt>
      <trkpt lat="45.86966" lon="4.83701">
        <ele>167.3</ele>
        <time>2020-06-07T09:32:30.000Z</time>
      </trkpt>
      <trkpt lat="45.86959" lon="4.83701">
        <ele>167.4</ele>
        <time>2020-06-07T09:32:31.000Z</time>
      </trkpt>
      <trkpt lat="45.86953" lon="4.83701">
        <ele>167.4</ele>
        <time>2020-06-07T09:32:32.000Z</time>
      </trkpt>
      <trkpt lat="45.86946" lon="4.83702">
        <ele>167.4</ele>
        <time>2020-06-07T09:32:33.000Z</time>
      </trkpt>
      <trkpt lat="45.8694" lon="4.83703">
        <ele>167.4</ele>
        <time>2020-06-07T09:32:34.000Z</time>
      </trkpt>
      <trkpt lat="45.86933" lon="4.83705">
        <ele>167.5</ele>
        <time>2020-06-07T09:32:35.000Z</time>
      </trkpt>
      <trkpt lat="45.86927" lon="4.83706">
        <ele>167.5</ele>
        <time>2020-06-07T09:32:36.000Z</time>
      </trkpt>
      <trkpt lat="45.8692" lon="4.83708">
        <ele>167.5</ele>
        <time>2020-06-07T09:32:37.000Z</time>
      </trkpt>
      <trkpt lat="45.86914" lon="4.83709">
        <ele>167.5</ele>
        <time>2020-06-07T09:32:38.000Z</time>
      </trkpt>
      <trkpt lat="45.86907" lon="4.8371">
        <ele>167.5</ele>
        <time>2020-06-07T09:32:39.000Z</time>
      </trkpt>
      <trkpt lat="45.86901" lon="4.83711">
        <ele>167.5</ele>
        <time>2020-06-07T09:32:40.000Z</time>
      </trkpt>
      <trkpt lat="45.86894" lon="4.83713">
        <ele>167.5</ele>
        <time>2020-06-07T09:32:41.000Z</time>
      </trkpt>
      <trkpt lat="45.86888" lon="4.83714">
        <ele>167.5</ele>
        <time>2020-06-07T09:32:42.000Z</time>
      </trkpt>
      <trkpt lat="45.86882" lon="4.83716">
        <ele>167.6</ele>
        <time>2020-06-07T09:32:43.000Z</time>
      </trkpt>
      <trkpt lat="45.86875" lon="4.83718">
        <ele>167.6</ele>
        <time>2020-06-07T09:32:44.000Z</time>
      </trkpt>
      <trkpt lat="45.86869" lon="4.83721">
        <ele>167.6</ele>
        <time>2020-06-07T09:32:45.000Z</time>
      </trkpt>
      <trkpt lat="45.86864" lon="4.83725">
        <ele>167.6</ele>
        <time>2020-06-07T09:32:46.000Z</time>
      </trkpt>
      <trkpt lat="45.86859" lon="4.83729">
        <ele>167.7</ele>
        <time>2020-06-07T09:32:47.000Z</time>
      </trkpt>
      <trkpt lat="45.86854" lon="4.83733">
        <ele>167.7</ele>
        <time>2020-06-07T09:32:48.000Z</time>
      </trkpt>
      <trkpt lat="45.86849" lon="4.83737">
        <ele>167.7</ele>
        <time>2020-06-07T09:32:49.000Z</time>
      </trkpt>
      <trkpt lat="45.86845" lon="4.83741">
        <ele>167.7</ele>
        <time>2020-06-07T09:32:50.000Z</time>
      </trkpt>
      <trkpt lat="45.8684" lon="4.83744">
        <ele>167.7</ele>
        <time>2020-06-07T09:32:51.000Z</time>
      </trkpt>
      <trkpt lat="45.86836" lon="4.83746">
        <ele>167.7</ele>
        <time>2020-06-07T09:32:52.000Z</time>
      </trkpt>
      <trkpt lat="45.86832" lon="4.83749">
        <ele>167.8</ele>
        <time>2020-06-07T09:32:53.000Z</time>
      </trkpt>
      <trkpt lat="45.86828" lon="4.83752">
        <ele>167.8</ele>
        <time>2020-06-07T09:32:54.000Z</time>
      </trkpt>
      <trkpt lat="45.86824" lon="4.83755">
        <ele>167.8</ele>
        <time>2020-06-07T09:32:55.000Z</time>
      </trkpt>
      <trkpt lat="45.86819" lon="4.83758">
        <ele>167.9</ele>
        <time>2020-06-07T09:32:56.000Z</time>
      </trkpt>
      <trkpt lat="45.86815" lon="4.8376">
        <ele>167.9</ele>
        <time>2020-06-07T09:32:57.000Z</time>
      </trkpt>
      <trkpt lat="45.8681" lon="4.83762">
        <ele>167.9</ele>
        <time>2020-06-07T09:32:58.000Z</time>
      </trkpt>
      <trkpt lat="45.86805" lon="4.83765">
        <ele>167.9</ele>
        <time>2020-06-07T09:32:59.000Z</time>
      </trkpt>
      <trkpt lat="45.868" lon="4.83769">
        <ele>168</ele>
        <time>2020-06-07T09:33:00.000Z</time>
      </trkpt>
      <trkpt lat="45.86795" lon="4.83772">
        <ele>168</ele>
        <time>2020-06-07T09:33:01.000Z</time>
      </trkpt>
      <trkpt lat="45.8679" lon="4.83776">
        <ele>168</ele>
        <time>2020-06-07T09:33:02.000Z</time>
      </trkpt>
      <trkpt lat="45.86785" lon="4.83779">
        <ele>168.1</ele>
        <time>2020-06-07T09:33:03.000Z</time>
      </trkpt>
      <trkpt lat="45.86781" lon="4.83783">
        <ele>168.1</ele>
        <time>2020-06-07T09:33:04.000Z</time>
      </trkpt>
      <trkpt lat="45.86775" lon="4.83788">
        <ele>168.1</ele>
        <time>2020-06-07T09:33:05.000Z</time>
      </trkpt>
      <trkpt lat="45.86771" lon="4.83793">
        <ele>168.2</ele>
        <time>2020-06-07T09:33:06.000Z</time>
      </trkpt>
      <trkpt lat="45.86766" lon="4.83798">
        <ele>168.2</ele>
        <time>2020-06-07T09:33:07.000Z</time>
      </trkpt>
      <trkpt lat="45.86762" lon="4.83803">
        <ele>168.2</ele>
        <time>2020-06-07T09:33:08.000Z</time>
      </trkpt>
      <trkpt lat="45.86758" lon="4.83808">
        <ele>168.2</ele>
        <time>2020-06-07T09:33:09.000Z</time>
      </trkpt>
      <trkpt lat="45.86754" lon="4.83811">
        <ele>168.2</ele>
        <time>2020-06-07T09:33:10.000Z</time>
      </trkpt>
      <trkpt lat="45.8675" lon="4.83815">
        <ele>168.3</ele>
        <time>2020-06-07T09:33:11.000Z</time>
      </trkpt>
      <trkpt lat="45.86746" lon="4.83818">
        <ele>168.3</ele>
        <time>2020-06-07T09:33:12.000Z</time>
      </trkpt>
      <trkpt lat="45.86742" lon="4.83822">
        <ele>168.3</ele>
        <time>2020-06-07T09:33:13.000Z</time>
      </trkpt>
      <trkpt lat="45.86737" lon="4.83826">
        <ele>168.3</ele>
        <time>2020-06-07T09:33:14.000Z</time>
      </trkpt>
      <trkpt lat="45.86731" lon="4.83831">
        <ele>168.3</ele>
        <time>2020-06-07T09:33:15.000Z</time>
      </trkpt>
      <trkpt lat="45.86726" lon="4.83835">
        <ele>168.3</ele>
        <time>2020-06-07T09:33:16.000Z</time>
      </trkpt>
      <trkpt lat="45.86721" lon="4.83839">
        <ele>168.3</ele>
        <time>2020-06-07T09:33:17.000Z</time>
      </trkpt>
      <trkpt lat="45.86715" lon="4.83845">
        <ele>168.3</ele>
        <time>2020-06-07T09:33:18.000Z</time>
      </trkpt>
      <trkpt lat="45.8671" lon="4.8385">
        <ele>168.3</ele>
        <time>2020-06-07T09:33:19.000Z</time>
      </trkpt>
      <trkpt lat="45.86704" lon="4.83856">
        <ele>168.3</ele>
        <time>2020-06-07T09:33:20.000Z</time>
      </trkpt>
      <trkpt lat="45.86698" lon="4.83861">
        <ele>168.3</ele>
        <time>2020-06-07T09:33:21.000Z</time>
      </trkpt>
      <trkpt lat="45.86693" lon="4.83866">
        <ele>168.3</ele>
        <time>2020-06-07T09:33:22.000Z</time>
      </trkpt>
      <trkpt lat="45.86688" lon="4.83872">
        <ele>168.3</ele>
        <time>2020-06-07T09:33:23.000Z</time>
      </trkpt>
      <trkpt lat="45.86684" lon="4.83878">
        <ele>168.3</ele>
        <time>2020-06-07T09:33:24.000Z</time>
      </trkpt>
      <trkpt lat="45.8668" lon="4.83883">
        <ele>168.3</ele>
        <time>2020-06-07T09:33:25.000Z</time>
      </trkpt>
      <trkpt lat="45.86676" lon="4.83888">
        <ele>168.3</ele>
        <time>2020-06-07T09:33:26.000Z</time>
      </trkpt>
      <trkpt lat="45.86671" lon="4.83893">
        <ele>168.3</ele>
        <time>2020-06-07T09:33:27.000Z</time>
      </trkpt>
      <trkpt lat="45.86667" lon="4.83897">
        <ele>168.3</ele>
        <time>2020-06-07T09:33:28.000Z</time>
      </trkpt>
      <trkpt lat="45.86663" lon="4.83902">
        <ele>168.3</ele>
        <time>2020-06-07T09:33:29.000Z</time>
      </trkpt>
      <trkpt lat="45.8666" lon="4.83907">
        <ele>168.3</ele>
        <time>2020-06-07T09:33:30.000Z</time>
      </trkpt>
      <trkpt lat="45.86659" lon="4.83912">
        <ele>168.3</ele>
        <time>2020-06-07T09:33:31.000Z</time>
      </trkpt>
      <trkpt lat="45.86658" lon="4.83915">
        <ele>168.3</ele>
        <time>2020-06-07T09:33:32.000Z</time>
      </trkpt>
      <trkpt lat="45.86658" lon="4.83917">
        <ele>168.3</ele>
        <time>2020-06-07T09:33:33.000Z</time>
      </trkpt>
      <trkpt lat="45.86659" lon="4.8392">
        <ele>168.4</ele>
        <time>2020-06-07T09:33:34.000Z</time>
      </trkpt>
      <trkpt lat="45.86659" lon="4.83923">
        <ele>168.4</ele>
        <time>2020-06-07T09:33:35.000Z</time>
      </trkpt>
      <trkpt lat="45.8666" lon="4.83926">
        <ele>168.4</ele>
        <time>2020-06-07T09:33:36.000Z</time>
      </trkpt>
      <trkpt lat="45.86659" lon="4.83929">
        <ele>168.4</ele>
        <time>2020-06-07T09:33:37.000Z</time>
      </trkpt>
      <trkpt lat="45.86658" lon="4.83933">
        <ele>168.4</ele>
        <time>2020-06-07T09:33:38.000Z</time>
      </trkpt>
      <trkpt lat="45.86656" lon="4.83935">
        <ele>168.5</ele>
        <time>2020-06-07T09:33:39.000Z</time>
      </trkpt>
      <trkpt lat="45.86653" lon="4.83937">
        <ele>168.5</ele>
        <time>2020-06-07T09:33:40.000Z</time>
      </trkpt>
      <trkpt lat="45.86651" lon="4.83939">
        <ele>168.5</ele>
        <time>2020-06-07T09:33:41.000Z</time>
      </trkpt>
      <trkpt lat="45.86648" lon="4.8394">
        <ele>168.6</ele>
        <time>2020-06-07T09:33:42.000Z</time>
      </trkpt>
      <trkpt lat="45.86644" lon="4.83942">
        <ele>168.6</ele>
        <time>2020-06-07T09:33:43.000Z</time>
      </trkpt>
      <trkpt lat="45.86641" lon="4.83943">
        <ele>168.7</ele>
        <time>2020-06-07T09:33:44.000Z</time>
      </trkpt>
      <trkpt lat="45.86638" lon="4.83944">
        <ele>168.8</ele>
        <time>2020-06-07T09:33:45.000Z</time>
      </trkpt>
      <trkpt lat="45.86635" lon="4.83945">
        <ele>168.9</ele>
        <time>2020-06-07T09:33:46.000Z</time>
      </trkpt>
      <trkpt lat="45.86631" lon="4.83946">
        <ele>169</ele>
        <time>2020-06-07T09:33:47.000Z</time>
      </trkpt>
      <trkpt lat="45.86627" lon="4.83948">
        <ele>169.1</ele>
        <time>2020-06-07T09:33:48.000Z</time>
      </trkpt>
      <trkpt lat="45.86623" lon="4.8395">
        <ele>169.3</ele>
        <time>2020-06-07T09:33:49.000Z</time>
      </trkpt>
      <trkpt lat="45.86618" lon="4.8395">
        <ele>169.1</ele>
        <time>2020-06-07T09:33:50.000Z</time>
      </trkpt>
      <trkpt lat="45.86614" lon="4.83951">
        <ele>169.1</ele>
        <time>2020-06-07T09:33:51.000Z</time>
      </trkpt>
      <trkpt lat="45.8661" lon="4.83952">
        <ele>169</ele>
        <time>2020-06-07T09:33:52.000Z</time>
      </trkpt>
      <trkpt lat="45.86607" lon="4.83953">
        <ele>169</ele>
        <time>2020-06-07T09:33:53.000Z</time>
      </trkpt>
      <trkpt lat="45.86604" lon="4.83954">
        <ele>169</ele>
        <time>2020-06-07T09:33:54.000Z</time>
      </trkpt>
      <trkpt lat="45.86602" lon="4.83956">
        <ele>169</ele>
        <time>2020-06-07T09:33:55.000Z</time>
      </trkpt>
      <trkpt lat="45.86602" lon="4.83958">
        <ele>169</ele>
        <time>2020-06-07T09:33:56.000Z</time>
      </trkpt>
      <trkpt lat="45.86601" lon="4.8396">
        <ele>168.9</ele>
        <time>2020-06-07T09:33:57.000Z</time>
      </trkpt>
      <trkpt lat="45.866" lon="4.83962">
        <ele>168.9</ele>
        <time>2020-06-07T09:33:58.000Z</time>
      </trkpt>
      <trkpt lat="45.866" lon="4.83964">
        <ele>168.8</ele>
        <time>2020-06-07T09:33:59.000Z</time>
      </trkpt>
      <trkpt lat="45.86599" lon="4.83965">
        <ele>168.9</ele>
        <time>2020-06-07T09:34:00.000Z</time>
      </trkpt>
      <trkpt lat="45.86598" lon="4.83967">
        <ele>169</ele>
        <time>2020-06-07T09:34:01.000Z</time>
      </trkpt>
      <trkpt lat="45.86598" lon="4.83969">
        <ele>169.1</ele>
        <time>2020-06-07T09:34:02.000Z</time>
      </trkpt>
      <trkpt lat="45.86597" lon="4.83971">
        <ele>169.1</ele>
        <time>2020-06-07T09:34:03.000Z</time>
      </trkpt>
      <trkpt lat="45.86596" lon="4.83973">
        <ele>169.2</ele>
        <time>2020-06-07T09:34:48.000Z</time>
      </trkpt>
      <trkpt lat="45.86596" lon="4.83975">
        <ele>169.3</ele>
        <time>2020-06-07T09:34:49.000Z</time>
      </trkpt>
      <trkpt lat="45.86594" lon="4.83981">
        <ele>169.5</ele>
        <time>2020-06-07T09:34:50.000Z</time>
      </trkpt>
      <trkpt lat="45.86593" lon="4.83988">
        <ele>169.8</ele>
        <time>2020-06-07T09:34:51.000Z</time>
      </trkpt>
      <trkpt lat="45.86591" lon="4.83994">
        <ele>170</ele>
        <time>2020-06-07T09:34:52.000Z</time>
      </trkpt>
      <trkpt lat="45.8659" lon="4.84">
        <ele>170.3</ele>
        <time>2020-06-07T09:34:53.000Z</time>
      </trkpt>
      <trkpt lat="45.86589" lon="4.84006">
        <ele>170.5</ele>
        <time>2020-06-07T09:34:54.000Z</time>
      </trkpt>
      <trkpt lat="45.86587" lon="4.84011">
        <ele>170.8</ele>
        <time>2020-06-07T09:34:55.000Z</time>
      </trkpt>
      <trkpt lat="45.86586" lon="4.84016">
        <ele>171</ele>
        <time>2020-06-07T09:34:56.000Z</time>
      </trkpt>
      <trkpt lat="45.86584" lon="4.84021">
        <ele>171.2</ele>
        <time>2020-06-07T09:34:57.000Z</time>
      </trkpt>
      <trkpt lat="45.86582" lon="4.84026">
        <ele>171.4</ele>
        <time>2020-06-07T09:34:58.000Z</time>
      </trkpt>
      <trkpt lat="45.86581" lon="4.8403">
        <ele>171.6</ele>
        <time>2020-06-07T09:34:59.000Z</time>
      </trkpt>
      <trkpt lat="45.8658" lon="4.84035">
        <ele>171.8</ele>
        <time>2020-06-07T09:35:00.000Z</time>
      </trkpt>
      <trkpt lat="45.86579" lon="4.8404">
        <ele>172</ele>
        <time>2020-06-07T09:35:01.000Z</time>
      </trkpt>
      <trkpt lat="45.86578" lon="4.84044">
        <ele>172.2</ele>
        <time>2020-06-07T09:35:02.000Z</time>
      </trkpt>
      <trkpt lat="45.86578" lon="4.84049">
        <ele>172.4</ele>
        <time>2020-06-07T09:35:03.000Z</time>
      </trkpt>
      <trkpt lat="45.86578" lon="4.84054">
        <ele>172.6</ele>
        <time>2020-06-07T09:35:04.000Z</time>
      </trkpt>
      <trkpt lat="45.86578" lon="4.84059">
        <ele>172.7</ele>
        <time>2020-06-07T09:35:05.000Z</time>
      </trkpt>
      <trkpt lat="45.86577" lon="4.84064">
        <ele>172.9</ele>
        <time>2020-06-07T09:35:06.000Z</time>
      </trkpt>
      <trkpt lat="45.86577" lon="4.8407">
        <ele>173.1</ele>
        <time>2020-06-07T09:35:07.000Z</time>
      </trkpt>
      <trkpt lat="45.86577" lon="4.84075">
        <ele>173.3</ele>
        <time>2020-06-07T09:35:08.000Z</time>
      </trkpt>
      <trkpt lat="45.86577" lon="4.84081">
        <ele>173.4</ele>
        <time>2020-06-07T09:35:09.000Z</time>
      </trkpt>
      <trkpt lat="45.86576" lon="4.84087">
        <ele>173.6</ele>
        <time>2020-06-07T09:35:10.000Z</time>
      </trkpt>
      <trkpt lat="45.86576" lon="4.84093">
        <ele>173.8</ele>
        <time>2020-06-07T09:35:11.000Z</time>
      </trkpt>
      <trkpt lat="45.86576" lon="4.84099">
        <ele>174</ele>
        <time>2020-06-07T09:35:12.000Z</time>
      </trkpt>
      <trkpt lat="45.86576" lon="4.84105">
        <ele>174.3</ele>
        <time>2020-06-07T09:35:13.000Z</time>
      </trkpt>
      <trkpt lat="45.86576" lon="4.84111">
        <ele>174.5</ele>
        <time>2020-06-07T09:35:14.000Z</time>
      </trkpt>
      <trkpt lat="45.86575" lon="4.84117">
        <ele>174.7</ele>
        <time>2020-06-07T09:35:15.000Z</time>
      </trkpt>
      <trkpt lat="45.86575" lon="4.84123">
        <ele>174.9</ele>
        <time>2020-06-07T09:35:16.000Z</time>
      </trkpt>
      <trkpt lat="45.86575" lon="4.84128">
        <ele>175.1</ele>
        <time>2020-06-07T09:35:17.000Z</time>
      </trkpt>
      <trkpt lat="45.86575" lon="4.84134">
        <ele>175.2</ele>
        <time>2020-06-07T09:35:18.000Z</time>
      </trkpt>
      <trkpt lat="45.86575" lon="4.84139">
        <ele>175.4</ele>
        <time>2020-06-07T09:35:19.000Z</time>
      </trkpt>
      <trkpt lat="45.86574" lon="4.84144">
        <ele>175.6</ele>
        <time>2020-06-07T09:35:20.000Z</time>
      </trkpt>
      <trkpt lat="45.86573" lon="4.8415">
        <ele>175.8</ele>
        <time>2020-06-07T09:35:21.000Z</time>
      </trkpt>
      <trkpt lat="45.86573" lon="4.84156">
        <ele>176.1</ele>
        <time>2020-06-07T09:35:22.000Z</time>
      </trkpt>
      <trkpt lat="45.86572" lon="4.84162">
        <ele>176.3</ele>
        <time>2020-06-07T09:35:23.000Z</time>
      </trkpt>
      <trkpt lat="45.86571" lon="4.84168">
        <ele>176.5</ele>
        <time>2020-06-07T09:35:24.000Z</time>
      </trkpt>
      <trkpt lat="45.8657" lon="4.84174">
        <ele>176.7</ele>
        <time>2020-06-07T09:35:25.000Z</time>
      </trkpt>
      <trkpt lat="45.86568" lon="4.84179">
        <ele>176.9</ele>
        <time>2020-06-07T09:35:26.000Z</time>
      </trkpt>
      <trkpt lat="45.86567" lon="4.84185">
        <ele>177.2</ele>
        <time>2020-06-07T09:35:27.000Z</time>
      </trkpt>
      <trkpt lat="45.86567" lon="4.84191">
        <ele>177.3</ele>
        <time>2020-06-07T09:35:28.000Z</time>
      </trkpt>
      <trkpt lat="45.86566" lon="4.84196">
        <ele>177.4</ele>
        <time>2020-06-07T09:35:29.000Z</time>
      </trkpt>
      <trkpt lat="45.86562" lon="4.84201">
        <ele>177.5</ele>
        <time>2020-06-07T09:35:30.000Z</time>
      </trkpt>
      <trkpt lat="45.86559" lon="4.84206">
        <ele>177.7</ele>
        <time>2020-06-07T09:35:31.000Z</time>
      </trkpt>
      <trkpt lat="45.86557" lon="4.84212">
        <ele>177.8</ele>
        <time>2020-06-07T09:35:32.000Z</time>
      </trkpt>
      <trkpt lat="45.86556" lon="4.84217">
        <ele>178</ele>
        <time>2020-06-07T09:35:33.000Z</time>
      </trkpt>
      <trkpt lat="45.86554" lon="4.84222">
        <ele>178.1</ele>
        <time>2020-06-07T09:35:34.000Z</time>
      </trkpt>
      <trkpt lat="45.86553" lon="4.84226">
        <ele>178.2</ele>
        <time>2020-06-07T09:35:35.000Z</time>
      </trkpt>
      <trkpt lat="45.86551" lon="4.84231">
        <ele>178.3</ele>
        <time>2020-06-07T09:35:36.000Z</time>
      </trkpt>
      <trkpt lat="45.86549" lon="4.84236">
        <ele>178.5</ele>
        <time>2020-06-07T09:35:37.000Z</time>
      </trkpt>
      <trkpt lat="45.86548" lon="4.84242">
        <ele>178.6</ele>
        <time>2020-06-07T09:35:38.000Z</time>
      </trkpt>
      <trkpt lat="45.86546" lon="4.84247">
        <ele>178.8</ele>
        <time>2020-06-07T09:35:39.000Z</time>
      </trkpt>
      <trkpt lat="45.86545" lon="4.84253">
        <ele>178.9</ele>
        <time>2020-06-07T09:35:40.000Z</time>
      </trkpt>
      <trkpt lat="45.86542" lon="4.84259">
        <ele>179.1</ele>
        <time>2020-06-07T09:35:41.000Z</time>
      </trkpt>
      <trkpt lat="45.86541" lon="4.84264">
        <ele>179.2</ele>
        <time>2020-06-07T09:35:42.000Z</time>
      </trkpt>
      <trkpt lat="45.86538" lon="4.8427">
        <ele>179.3</ele>
        <time>2020-06-07T09:35:43.000Z</time>
      </trkpt>
      <trkpt lat="45.86537" lon="4.84276">
        <ele>179.5</ele>
        <time>2020-06-07T09:35:44.000Z</time>
      </trkpt>
      <trkpt lat="45.86535" lon="4.84282">
        <ele>179.6</ele>
        <time>2020-06-07T09:35:45.000Z</time>
      </trkpt>
      <trkpt lat="45.86534" lon="4.84287">
        <ele>179.7</ele>
        <time>2020-06-07T09:35:46.000Z</time>
      </trkpt>
      <trkpt lat="45.86533" lon="4.84293">
        <ele>179.8</ele>
        <time>2020-06-07T09:35:47.000Z</time>
      </trkpt>
      <trkpt lat="45.86533" lon="4.84299">
        <ele>179.9</ele>
        <time>2020-06-07T09:35:48.000Z</time>
      </trkpt>
      <trkpt lat="45.86533" lon="4.84305">
        <ele>179.9</ele>
        <time>2020-06-07T09:35:49.000Z</time>
      </trkpt>
      <trkpt lat="45.86531" lon="4.8431">
        <ele>180</ele>
        <time>2020-06-07T09:35:50.000Z</time>
      </trkpt>
      <trkpt lat="45.8653" lon="4.84316">
        <ele>180.1</ele>
        <time>2020-06-07T09:35:51.000Z</time>
      </trkpt>
      <trkpt lat="45.86529" lon="4.84322">
        <ele>180.2</ele>
        <time>2020-06-07T09:35:52.000Z</time>
      </trkpt>
      <trkpt lat="45.86529" lon="4.84328">
        <ele>180.3</ele>
        <time>2020-06-07T09:35:53.000Z</time>
      </trkpt>
      <trkpt lat="45.86528" lon="4.84333">
        <ele>180.3</ele>
        <time>2020-06-07T09:35:54.000Z</time>
      </trkpt>
      <trkpt lat="45.86529" lon="4.84338">
        <ele>180.4</ele>
        <time>2020-06-07T09:35:55.000Z</time>
      </trkpt>
      <trkpt lat="45.86529" lon="4.84342">
        <ele>180.4</ele>
        <time>2020-06-07T09:35:56.000Z</time>
      </trkpt>
      <trkpt lat="45.86529" lon="4.84345">
        <ele>180.5</ele>
        <time>2020-06-07T09:35:57.000Z</time>
      </trkpt>
      <trkpt lat="45.86529" lon="4.84349">
        <ele>180.5</ele>
        <time>2020-06-07T09:35:58.000Z</time>
      </trkpt>
      <trkpt lat="45.86529" lon="4.84353">
        <ele>180.6</ele>
        <time>2020-06-07T09:35:59.000Z</time>
      </trkpt>
      <trkpt lat="45.86529" lon="4.84358">
        <ele>180.7</ele>
        <time>2020-06-07T09:36:00.000Z</time>
      </trkpt>
      <trkpt lat="45.86529" lon="4.84363">
        <ele>180.8</ele>
        <time>2020-06-07T09:36:01.000Z</time>
      </trkpt>
      <trkpt lat="45.86529" lon="4.84368">
        <ele>180.9</ele>
        <time>2020-06-07T09:36:02.000Z</time>
      </trkpt>
      <trkpt lat="45.86529" lon="4.84373">
        <ele>181.1</ele>
        <time>2020-06-07T09:36:03.000Z</time>
      </trkpt>
      <trkpt lat="45.86529" lon="4.84378">
        <ele>181.2</ele>
        <time>2020-06-07T09:36:04.000Z</time>
      </trkpt>
      <trkpt lat="45.86527" lon="4.84383">
        <ele>181.4</ele>
        <time>2020-06-07T09:36:05.000Z</time>
      </trkpt>
      <trkpt lat="45.86529" lon="4.84388">
        <ele>181.6</ele>
        <time>2020-06-07T09:36:06.000Z</time>
      </trkpt>
      <trkpt lat="45.86529" lon="4.84392">
        <ele>181.7</ele>
        <time>2020-06-07T09:36:07.000Z</time>
      </trkpt>
      <trkpt lat="45.8653" lon="4.84397">
        <ele>181.9</ele>
        <time>2020-06-07T09:36:08.000Z</time>
      </trkpt>
      <trkpt lat="45.8653" lon="4.84401">
        <ele>182</ele>
        <time>2020-06-07T09:36:09.000Z</time>
      </trkpt>
      <trkpt lat="45.86531" lon="4.84406">
        <ele>182.2</ele>
        <time>2020-06-07T09:36:10.000Z</time>
      </trkpt>
      <trkpt lat="45.86531" lon="4.84411">
        <ele>182.3</ele>
        <time>2020-06-07T09:36:11.000Z</time>
      </trkpt>
      <trkpt lat="45.86531" lon="4.84416">
        <ele>182.5</ele>
        <time>2020-06-07T09:36:12.000Z</time>
      </trkpt>
      <trkpt lat="45.86531" lon="4.84421">
        <ele>182.7</ele>
        <time>2020-06-07T09:36:13.000Z</time>
      </trkpt>
      <trkpt lat="45.86531" lon="4.84426">
        <ele>182.9</ele>
        <time>2020-06-07T09:36:14.000Z</time>
      </trkpt>
      <trkpt lat="45.86531" lon="4.84431">
        <ele>183.1</ele>
        <time>2020-06-07T09:36:15.000Z</time>
      </trkpt>
      <trkpt lat="45.86531" lon="4.84436">
        <ele>183.3</ele>
        <time>2020-06-07T09:36:16.000Z</time>
      </trkpt>
      <trkpt lat="45.8653" lon="4.84441">
        <ele>183.5</ele>
        <time>2020-06-07T09:36:17.000Z</time>
      </trkpt>
      <trkpt lat="45.86529" lon="4.84445">
        <ele>183.7</ele>
        <time>2020-06-07T09:36:18.000Z</time>
      </trkpt>
      <trkpt lat="45.8653" lon="4.8445">
        <ele>183.9</ele>
        <time>2020-06-07T09:36:19.000Z</time>
      </trkpt>
      <trkpt lat="45.86532" lon="4.84455">
        <ele>184.2</ele>
        <time>2020-06-07T09:36:20.000Z</time>
      </trkpt>
      <trkpt lat="45.86534" lon="4.84459">
        <ele>184.4</ele>
        <time>2020-06-07T09:36:21.000Z</time>
      </trkpt>
      <trkpt lat="45.86538" lon="4.84463">
        <ele>184.7</ele>
        <time>2020-06-07T09:36:22.000Z</time>
      </trkpt>
      <trkpt lat="45.8654" lon="4.84467">
        <ele>185</ele>
        <time>2020-06-07T09:36:23.000Z</time>
      </trkpt>
      <trkpt lat="45.86543" lon="4.84471">
        <ele>185.2</ele>
        <time>2020-06-07T09:36:24.000Z</time>
      </trkpt>
      <trkpt lat="45.86546" lon="4.84473">
        <ele>185.5</ele>
        <time>2020-06-07T09:36:25.000Z</time>
      </trkpt>
      <trkpt lat="45.86548" lon="4.84476">
        <ele>185.7</ele>
        <time>2020-06-07T09:36:26.000Z</time>
      </trkpt>
      <trkpt lat="45.86549" lon="4.84479">
        <ele>185.8</ele>
        <time>2020-06-07T09:36:27.000Z</time>
      </trkpt>
      <trkpt lat="45.86551" lon="4.84481">
        <ele>186</ele>
        <time>2020-06-07T09:36:28.000Z</time>
      </trkpt>
      <trkpt lat="45.86554" lon="4.84484">
        <ele>186.3</ele>
        <time>2020-06-07T09:36:29.000Z</time>
      </trkpt>
      <trkpt lat="45.86555" lon="4.84488">
        <ele>186.5</ele>
        <time>2020-06-07T09:36:30.000Z</time>
      </trkpt>
      <trkpt lat="45.86557" lon="4.84491">
        <ele>186.7</ele>
        <time>2020-06-07T09:36:31.000Z</time>
      </trkpt>
      <trkpt lat="45.86559" lon="4.84493">
        <ele>186.9</ele>
        <time>2020-06-07T09:36:32.000Z</time>
      </trkpt>
      <trkpt lat="45.86561" lon="4.84495">
        <ele>187.2</ele>
        <time>2020-06-07T09:36:33.000Z</time>
      </trkpt>
      <trkpt lat="45.86563" lon="4.84497">
        <ele>187.4</ele>
        <time>2020-06-07T09:36:34.000Z</time>
      </trkpt>
      <trkpt lat="45.86565" lon="4.845">
        <ele>187.6</ele>
        <time>2020-06-07T09:36:35.000Z</time>
      </trkpt>
      <trkpt lat="45.86567" lon="4.84503">
        <ele>187.8</ele>
        <time>2020-06-07T09:36:36.000Z</time>
      </trkpt>
      <trkpt lat="45.8657" lon="4.84506">
        <ele>188</ele>
        <time>2020-06-07T09:36:37.000Z</time>
      </trkpt>
      <trkpt lat="45.86572" lon="4.84508">
        <ele>188.3</ele>
        <time>2020-06-07T09:36:38.000Z</time>
      </trkpt>
      <trkpt lat="45.86575" lon="4.8451">
        <ele>188.5</ele>
        <time>2020-06-07T09:36:39.000Z</time>
      </trkpt>
      <trkpt lat="45.86577" lon="4.84512">
        <ele>188.7</ele>
        <time>2020-06-07T09:36:40.000Z</time>
      </trkpt>
      <trkpt lat="45.86579" lon="4.84515">
        <ele>189</ele>
        <time>2020-06-07T09:36:41.000Z</time>
      </trkpt>
      <trkpt lat="45.86582" lon="4.84517">
        <ele>189.3</ele>
        <time>2020-06-07T09:36:42.000Z</time>
      </trkpt>
      <trkpt lat="45.86584" lon="4.84519">
        <ele>189.5</ele>
        <time>2020-06-07T09:36:43.000Z</time>
      </trkpt>
      <trkpt lat="45.86586" lon="4.84521">
        <ele>190</ele>
        <time>2020-06-07T09:36:44.000Z</time>
      </trkpt>
      <trkpt lat="45.86587" lon="4.84524">
        <ele>190.1</ele>
        <time>2020-06-07T09:36:45.000Z</time>
      </trkpt>
      <trkpt lat="45.86587" lon="4.84527">
        <ele>190.3</ele>
        <time>2020-06-07T09:36:46.000Z</time>
      </trkpt>
      <trkpt lat="45.86587" lon="4.8453">
        <ele>190.4</ele>
        <time>2020-06-07T09:36:47.000Z</time>
      </trkpt>
      <trkpt lat="45.86588" lon="4.84534">
        <ele>190.6</ele>
        <time>2020-06-07T09:36:48.000Z</time>
      </trkpt>
      <trkpt lat="45.86588" lon="4.84537">
        <ele>190.8</ele>
        <time>2020-06-07T09:36:49.000Z</time>
      </trkpt>
      <trkpt lat="45.86589" lon="4.84541">
        <ele>191</ele>
        <time>2020-06-07T09:36:50.000Z</time>
      </trkpt>
      <trkpt lat="45.8659" lon="4.84545">
        <ele>191.2</ele>
        <time>2020-06-07T09:36:51.000Z</time>
      </trkpt>
      <trkpt lat="45.8659" lon="4.8455">
        <ele>191.3</ele>
        <time>2020-06-07T09:36:52.000Z</time>
      </trkpt>
      <trkpt lat="45.8659" lon="4.84554">
        <ele>191.5</ele>
        <time>2020-06-07T09:36:53.000Z</time>
      </trkpt>
      <trkpt lat="45.8659" lon="4.84557">
        <ele>191.6</ele>
        <time>2020-06-07T09:36:54.000Z</time>
      </trkpt>
      <trkpt lat="45.86591" lon="4.84561">
        <ele>191.7</ele>
        <time>2020-06-07T09:36:55.000Z</time>
      </trkpt>
      <trkpt lat="45.86592" lon="4.84564">
        <ele>191.8</ele>
        <time>2020-06-07T09:36:56.000Z</time>
      </trkpt>
      <trkpt lat="45.86593" lon="4.84568">
        <ele>191.9</ele>
        <time>2020-06-07T09:36:57.000Z</time>
      </trkpt>
      <trkpt lat="45.86593" lon="4.84572">
        <ele>192.1</ele>
        <time>2020-06-07T09:36:58.000Z</time>
      </trkpt>
      <trkpt lat="45.86594" lon="4.84576">
        <ele>192.4</ele>
        <time>2020-06-07T09:36:59.000Z</time>
      </trkpt>
      <trkpt lat="45.86594" lon="4.8458">
        <ele>192.8</ele>
        <time>2020-06-07T09:37:00.000Z</time>
      </trkpt>
      <trkpt lat="45.86595" lon="4.84585">
        <ele>192.8</ele>
        <time>2020-06-07T09:37:01.000Z</time>
      </trkpt>
      <trkpt lat="45.86595" lon="4.8459">
        <ele>192.9</ele>
        <time>2020-06-07T09:37:02.000Z</time>
      </trkpt>
      <trkpt lat="45.86595" lon="4.84595">
        <ele>192.9</ele>
        <time>2020-06-07T09:37:03.000Z</time>
      </trkpt>
      <trkpt lat="45.86596" lon="4.846">
        <ele>193.1</ele>
        <time>2020-06-07T09:37:04.000Z</time>
      </trkpt>
      <trkpt lat="45.86597" lon="4.84605">
        <ele>193.2</ele>
        <time>2020-06-07T09:37:05.000Z</time>
      </trkpt>
      <trkpt lat="45.86597" lon="4.8461">
        <ele>193.3</ele>
        <time>2020-06-07T09:37:06.000Z</time>
      </trkpt>
      <trkpt lat="45.86598" lon="4.84615">
        <ele>193.4</ele>
        <time>2020-06-07T09:37:07.000Z</time>
      </trkpt>
      <trkpt lat="45.86598" lon="4.8462">
        <ele>193.5</ele>
        <time>2020-06-07T09:37:08.000Z</time>
      </trkpt>
      <trkpt lat="45.86598" lon="4.84625">
        <ele>193.7</ele>
        <time>2020-06-07T09:37:09.000Z</time>
      </trkpt>
      <trkpt lat="45.86598" lon="4.84629">
        <ele>193.9</ele>
        <time>2020-06-07T09:37:10.000Z</time>
      </trkpt>
      <trkpt lat="45.86598" lon="4.84633">
        <ele>194.1</ele>
        <time>2020-06-07T09:37:11.000Z</time>
      </trkpt>
      <trkpt lat="45.86599" lon="4.84638">
        <ele>194.3</ele>
        <time>2020-06-07T09:37:12.000Z</time>
      </trkpt>
      <trkpt lat="45.86599" lon="4.84643">
        <ele>194.5</ele>
        <time>2020-06-07T09:37:13.000Z</time>
      </trkpt>
      <trkpt lat="45.86599" lon="4.84647">
        <ele>194.8</ele>
        <time>2020-06-07T09:37:14.000Z</time>
      </trkpt>
      <trkpt lat="45.866" lon="4.84652">
        <ele>195</ele>
        <time>2020-06-07T09:37:15.000Z</time>
      </trkpt>
      <trkpt lat="45.866" lon="4.84656">
        <ele>195.3</ele>
        <time>2020-06-07T09:37:16.000Z</time>
      </trkpt>
      <trkpt lat="45.866" lon="4.84661">
        <ele>195.5</ele>
        <time>2020-06-07T09:37:17.000Z</time>
      </trkpt>
      <trkpt lat="45.866" lon="4.84665">
        <ele>195.8</ele>
        <time>2020-06-07T09:37:18.000Z</time>
      </trkpt>
      <trkpt lat="45.866" lon="4.84669">
        <ele>196</ele>
        <time>2020-06-07T09:37:19.000Z</time>
      </trkpt>
      <trkpt lat="45.86601" lon="4.84673">
        <ele>196.3</ele>
        <time>2020-06-07T09:37:20.000Z</time>
      </trkpt>
      <trkpt lat="45.86601" lon="4.84677">
        <ele>196.5</ele>
        <time>2020-06-07T09:37:21.000Z</time>
      </trkpt>
      <trkpt lat="45.86601" lon="4.84681">
        <ele>196.7</ele>
        <time>2020-06-07T09:37:22.000Z</time>
      </trkpt>
      <trkpt lat="45.86602" lon="4.84685">
        <ele>197</ele>
        <time>2020-06-07T09:37:23.000Z</time>
      </trkpt>
      <trkpt lat="45.86603" lon="4.84689">
        <ele>197.2</ele>
        <time>2020-06-07T09:37:24.000Z</time>
      </trkpt>
      <trkpt lat="45.86603" lon="4.84693">
        <ele>197.4</ele>
        <time>2020-06-07T09:37:25.000Z</time>
      </trkpt>
      <trkpt lat="45.86604" lon="4.84697">
        <ele>197.7</ele>
        <time>2020-06-07T09:37:26.000Z</time>
      </trkpt>
      <trkpt lat="45.86603" lon="4.84701">
        <ele>197.9</ele>
        <time>2020-06-07T09:37:27.000Z</time>
      </trkpt>
      <trkpt lat="45.86603" lon="4.84705">
        <ele>198.1</ele>
        <time>2020-06-07T09:37:28.000Z</time>
      </trkpt>
      <trkpt lat="45.86603" lon="4.8471">
        <ele>198.2</ele>
        <time>2020-06-07T09:37:29.000Z</time>
      </trkpt>
      <trkpt lat="45.86603" lon="4.84714">
        <ele>198.3</ele>
        <time>2020-06-07T09:37:30.000Z</time>
      </trkpt>
      <trkpt lat="45.86603" lon="4.84718">
        <ele>198.4</ele>
        <time>2020-06-07T09:37:31.000Z</time>
      </trkpt>
      <trkpt lat="45.86603" lon="4.84723">
        <ele>198.6</ele>
        <time>2020-06-07T09:37:32.000Z</time>
      </trkpt>
      <trkpt lat="45.86602" lon="4.84727">
        <ele>198.7</ele>
        <time>2020-06-07T09:37:33.000Z</time>
      </trkpt>
      <trkpt lat="45.86602" lon="4.84732">
        <ele>198.8</ele>
        <time>2020-06-07T09:37:34.000Z</time>
      </trkpt>
      <trkpt lat="45.86601" lon="4.84737">
        <ele>198.9</ele>
        <time>2020-06-07T09:37:35.000Z</time>
      </trkpt>
      <trkpt lat="45.86601" lon="4.84741">
        <ele>199</ele>
        <time>2020-06-07T09:37:36.000Z</time>
      </trkpt>
      <trkpt lat="45.866" lon="4.84746">
        <ele>199.2</ele>
        <time>2020-06-07T09:37:37.000Z</time>
      </trkpt>
      <trkpt lat="45.866" lon="4.84751">
        <ele>199.3</ele>
        <time>2020-06-07T09:37:38.000Z</time>
      </trkpt>
      <trkpt lat="45.86599" lon="4.84755">
        <ele>199.4</ele>
        <time>2020-06-07T09:37:39.000Z</time>
      </trkpt>
      <trkpt lat="45.86598" lon="4.84759">
        <ele>199.5</ele>
        <time>2020-06-07T09:37:40.000Z</time>
      </trkpt>
      <trkpt lat="45.86598" lon="4.84764">
        <ele>199.6</ele>
        <time>2020-06-07T09:37:41.000Z</time>
      </trkpt>
      <trkpt lat="45.86596" lon="4.84768">
        <ele>199.7</ele>
        <time>2020-06-07T09:37:42.000Z</time>
      </trkpt>
      <trkpt lat="45.86593" lon="4.84771">
        <ele>199.9</ele>
        <time>2020-06-07T09:37:43.000Z</time>
      </trkpt>
      <trkpt lat="45.86593" lon="4.84775">
        <ele>200</ele>
        <time>2020-06-07T09:37:44.000Z</time>
      </trkpt>
      <trkpt lat="45.86592" lon="4.8478">
        <ele>200.2</ele>
        <time>2020-06-07T09:37:45.000Z</time>
      </trkpt>
      <trkpt lat="45.86592" lon="4.84784">
        <ele>200.3</ele>
        <time>2020-06-07T09:37:46.000Z</time>
      </trkpt>
      <trkpt lat="45.86592" lon="4.84788">
        <ele>200.5</ele>
        <time>2020-06-07T09:37:47.000Z</time>
      </trkpt>
      <trkpt lat="45.86591" lon="4.84792">
        <ele>200.7</ele>
        <time>2020-06-07T09:37:48.000Z</time>
      </trkpt>
      <trkpt lat="45.86591" lon="4.84797">
        <ele>200.8</ele>
        <time>2020-06-07T09:37:49.000Z</time>
      </trkpt>
      <trkpt lat="45.8659" lon="4.84801">
        <ele>201</ele>
        <time>2020-06-07T09:37:50.000Z</time>
      </trkpt>
      <trkpt lat="45.86589" lon="4.84805">
        <ele>201.2</ele>
        <time>2020-06-07T09:37:51.000Z</time>
      </trkpt>
      <trkpt lat="45.86588" lon="4.8481">
        <ele>201.3</ele>
        <time>2020-06-07T09:37:52.000Z</time>
      </trkpt>
      <trkpt lat="45.86587" lon="4.84815">
        <ele>201.5</ele>
        <time>2020-06-07T09:37:53.000Z</time>
      </trkpt>
      <trkpt lat="45.86586" lon="4.84819">
        <ele>201.7</ele>
        <time>2020-06-07T09:37:54.000Z</time>
      </trkpt>
      <trkpt lat="45.86585" lon="4.84823">
        <ele>201.9</ele>
        <time>2020-06-07T09:37:55.000Z</time>
      </trkpt>
      <trkpt lat="45.86584" lon="4.84827">
        <ele>202.1</ele>
        <time>2020-06-07T09:37:56.000Z</time>
      </trkpt>
      <trkpt lat="45.86583" lon="4.84831">
        <ele>202.3</ele>
        <time>2020-06-07T09:37:57.000Z</time>
      </trkpt>
      <trkpt lat="45.86583" lon="4.84834">
        <ele>202.4</ele>
        <time>2020-06-07T09:37:58.000Z</time>
      </trkpt>
      <trkpt lat="45.86582" lon="4.84838">
        <ele>202.6</ele>
        <time>2020-06-07T09:37:59.000Z</time>
      </trkpt>
      <trkpt lat="45.86581" lon="4.84842">
        <ele>202.8</ele>
        <time>2020-06-07T09:38:00.000Z</time>
      </trkpt>
      <trkpt lat="45.8658" lon="4.84845">
        <ele>202.9</ele>
        <time>2020-06-07T09:38:01.000Z</time>
      </trkpt>
      <trkpt lat="45.86579" lon="4.84848">
        <ele>203.1</ele>
        <time>2020-06-07T09:38:02.000Z</time>
      </trkpt>
      <trkpt lat="45.86578" lon="4.84851">
        <ele>203.2</ele>
        <time>2020-06-07T09:38:03.000Z</time>
      </trkpt>
      <trkpt lat="45.86577" lon="4.84855">
        <ele>203.4</ele>
        <time>2020-06-07T09:38:04.000Z</time>
      </trkpt>
      <trkpt lat="45.86577" lon="4.84859">
        <ele>203.5</ele>
        <time>2020-06-07T09:38:05.000Z</time>
      </trkpt>
      <trkpt lat="45.86575" lon="4.84863">
        <ele>204</ele>
        <time>2020-06-07T09:38:06.000Z</time>
      </trkpt>
      <trkpt lat="45.86575" lon="4.84868">
        <ele>204.2</ele>
        <time>2020-06-07T09:38:07.000Z</time>
      </trkpt>
      <trkpt lat="45.86574" lon="4.84872">
        <ele>204.3</ele>
        <time>2020-06-07T09:38:08.000Z</time>
      </trkpt>
      <trkpt lat="45.86573" lon="4.84876">
        <ele>204.5</ele>
        <time>2020-06-07T09:38:09.000Z</time>
      </trkpt>
      <trkpt lat="45.86572" lon="4.84881">
        <ele>204.7</ele>
        <time>2020-06-07T09:38:10.000Z</time>
      </trkpt>
      <trkpt lat="45.86571" lon="4.84885">
        <ele>204.9</ele>
        <time>2020-06-07T09:38:11.000Z</time>
      </trkpt>
      <trkpt lat="45.86571" lon="4.84889">
        <ele>205</ele>
        <time>2020-06-07T09:38:12.000Z</time>
      </trkpt>
      <trkpt lat="45.86571" lon="4.84894">
        <ele>205.2</ele>
        <time>2020-06-07T09:38:13.000Z</time>
      </trkpt>
      <trkpt lat="45.8657" lon="4.84898">
        <ele>205.3</ele>
        <time>2020-06-07T09:38:14.000Z</time>
      </trkpt>
      <trkpt lat="45.8657" lon="4.84903">
        <ele>205.5</ele>
        <time>2020-06-07T09:38:15.000Z</time>
      </trkpt>
      <trkpt lat="45.8657" lon="4.84908">
        <ele>205.6</ele>
        <time>2020-06-07T09:38:16.000Z</time>
      </trkpt>
      <trkpt lat="45.8657" lon="4.84913">
        <ele>205.8</ele>
        <time>2020-06-07T09:38:17.000Z</time>
      </trkpt>
      <trkpt lat="45.86571" lon="4.84918">
        <ele>205.9</ele>
        <time>2020-06-07T09:38:18.000Z</time>
      </trkpt>
      <trkpt lat="45.8657" lon="4.84923">
        <ele>206.1</ele>
        <time>2020-06-07T09:38:19.000Z</time>
      </trkpt>
      <trkpt lat="45.8657" lon="4.84928">
        <ele>206.2</ele>
        <time>2020-06-07T09:38:20.000Z</time>
      </trkpt>
      <trkpt lat="45.86569" lon="4.84933">
        <ele>206.4</ele>
        <time>2020-06-07T09:38:21.000Z</time>
      </trkpt>
      <trkpt lat="45.86569" lon="4.84938">
        <ele>206.5</ele>
        <time>2020-06-07T09:38:22.000Z</time>
      </trkpt>
      <trkpt lat="45.86568" lon="4.84943">
        <ele>206.7</ele>
        <time>2020-06-07T09:38:23.000Z</time>
      </trkpt>
      <trkpt lat="45.86568" lon="4.84948">
        <ele>206.9</ele>
        <time>2020-06-07T09:38:24.000Z</time>
      </trkpt>
      <trkpt lat="45.86567" lon="4.84952">
        <ele>207</ele>
        <time>2020-06-07T09:38:25.000Z</time>
      </trkpt>
      <trkpt lat="45.86565" lon="4.84957">
        <ele>207.2</ele>
        <time>2020-06-07T09:38:26.000Z</time>
      </trkpt>
      <trkpt lat="45.86565" lon="4.84961">
        <ele>207.3</ele>
        <time>2020-06-07T09:38:27.000Z</time>
      </trkpt>
      <trkpt lat="45.86564" lon="4.84966">
        <ele>207.5</ele>
        <time>2020-06-07T09:38:28.000Z</time>
      </trkpt>
      <trkpt lat="45.86564" lon="4.84971">
        <ele>207.6</ele>
        <time>2020-06-07T09:38:29.000Z</time>
      </trkpt>
      <trkpt lat="45.86565" lon="4.84976">
        <ele>207.8</ele>
        <time>2020-06-07T09:38:30.000Z</time>
      </trkpt>
      <trkpt lat="45.86565" lon="4.84981">
        <ele>207.9</ele>
        <time>2020-06-07T09:38:31.000Z</time>
      </trkpt>
      <trkpt lat="45.86565" lon="4.84986">
        <ele>208.1</ele>
        <time>2020-06-07T09:38:32.000Z</time>
      </trkpt>
      <trkpt lat="45.86565" lon="4.84991">
        <ele>208.2</ele>
        <time>2020-06-07T09:38:33.000Z</time>
      </trkpt>
      <trkpt lat="45.86565" lon="4.84996">
        <ele>208.4</ele>
        <time>2020-06-07T09:38:34.000Z</time>
      </trkpt>
      <trkpt lat="45.86566" lon="4.85001">
        <ele>208.6</ele>
        <time>2020-06-07T09:38:35.000Z</time>
      </trkpt>
      <trkpt lat="45.86566" lon="4.85006">
        <ele>208.7</ele>
        <time>2020-06-07T09:38:36.000Z</time>
      </trkpt>
      <trkpt lat="45.86565" lon="4.8501">
        <ele>208.9</ele>
        <time>2020-06-07T09:38:37.000Z</time>
      </trkpt>
      <trkpt lat="45.86565" lon="4.85014">
        <ele>209</ele>
        <time>2020-06-07T09:38:38.000Z</time>
      </trkpt>
      <trkpt lat="45.86565" lon="4.85018">
        <ele>209.1</ele>
        <time>2020-06-07T09:38:39.000Z</time>
      </trkpt>
      <trkpt lat="45.86565" lon="4.85023">
        <ele>209.2</ele>
        <time>2020-06-07T09:38:40.000Z</time>
      </trkpt>
      <trkpt lat="45.86566" lon="4.85028">
        <ele>209.3</ele>
        <time>2020-06-07T09:38:41.000Z</time>
      </trkpt>
      <trkpt lat="45.86565" lon="4.85032">
        <ele>209.4</ele>
        <time>2020-06-07T09:38:42.000Z</time>
      </trkpt>
      <trkpt lat="45.86565" lon="4.85037">
        <ele>209.6</ele>
        <time>2020-06-07T09:38:43.000Z</time>
      </trkpt>
      <trkpt lat="45.86564" lon="4.85041">
        <ele>209.7</ele>
        <time>2020-06-07T09:38:44.000Z</time>
      </trkpt>
      <trkpt lat="45.86564" lon="4.85045">
        <ele>209.9</ele>
        <time>2020-06-07T09:38:45.000Z</time>
      </trkpt>
      <trkpt lat="45.86563" lon="4.8505">
        <ele>210</ele>
        <time>2020-06-07T09:38:46.000Z</time>
      </trkpt>
      <trkpt lat="45.86562" lon="4.85055">
        <ele>210.2</ele>
        <time>2020-06-07T09:38:47.000Z</time>
      </trkpt>
      <trkpt lat="45.86562" lon="4.8506">
        <ele>210.3</ele>
        <time>2020-06-07T09:38:48.000Z</time>
      </trkpt>
      <trkpt lat="45.86561" lon="4.85065">
        <ele>210.5</ele>
        <time>2020-06-07T09:38:49.000Z</time>
      </trkpt>
      <trkpt lat="45.8656" lon="4.8507">
        <ele>210.6</ele>
        <time>2020-06-07T09:38:50.000Z</time>
      </trkpt>
      <trkpt lat="45.86559" lon="4.85075">
        <ele>210.8</ele>
        <time>2020-06-07T09:38:51.000Z</time>
      </trkpt>
      <trkpt lat="45.86558" lon="4.8508">
        <ele>210.9</ele>
        <time>2020-06-07T09:38:52.000Z</time>
      </trkpt>
      <trkpt lat="45.86557" lon="4.85085">
        <ele>211.1</ele>
        <time>2020-06-07T09:38:53.000Z</time>
      </trkpt>
      <trkpt lat="45.86557" lon="4.85091">
        <ele>211.3</ele>
        <time>2020-06-07T09:38:54.000Z</time>
      </trkpt>
      <trkpt lat="45.86557" lon="4.85096">
        <ele>211.5</ele>
        <time>2020-06-07T09:38:55.000Z</time>
      </trkpt>
      <trkpt lat="45.86557" lon="4.85101">
        <ele>211.6</ele>
        <time>2020-06-07T09:38:56.000Z</time>
      </trkpt>
      <trkpt lat="45.86558" lon="4.85106">
        <ele>211.8</ele>
        <time>2020-06-07T09:38:57.000Z</time>
      </trkpt>
      <trkpt lat="45.86558" lon="4.85111">
        <ele>212</ele>
        <time>2020-06-07T09:38:58.000Z</time>
      </trkpt>
      <trkpt lat="45.86559" lon="4.85116">
        <ele>212.2</ele>
        <time>2020-06-07T09:38:59.000Z</time>
      </trkpt>
      <trkpt lat="45.8656" lon="4.85121">
        <ele>212.4</ele>
        <time>2020-06-07T09:39:00.000Z</time>
      </trkpt>
      <trkpt lat="45.8656" lon="4.85126">
        <ele>212.6</ele>
        <time>2020-06-07T09:39:01.000Z</time>
      </trkpt>
      <trkpt lat="45.86561" lon="4.85132">
        <ele>212.8</ele>
        <time>2020-06-07T09:39:02.000Z</time>
      </trkpt>
      <trkpt lat="45.86561" lon="4.85137">
        <ele>213</ele>
        <time>2020-06-07T09:39:03.000Z</time>
      </trkpt>
      <trkpt lat="45.86561" lon="4.85142">
        <ele>213.2</ele>
        <time>2020-06-07T09:39:04.000Z</time>
      </trkpt>
      <trkpt lat="45.86561" lon="4.85147">
        <ele>213.5</ele>
        <time>2020-06-07T09:39:05.000Z</time>
      </trkpt>
      <trkpt lat="45.86561" lon="4.85152">
        <ele>213.7</ele>
        <time>2020-06-07T09:39:06.000Z</time>
      </trkpt>
      <trkpt lat="45.86561" lon="4.85157">
        <ele>213.9</ele>
        <time>2020-06-07T09:39:07.000Z</time>
      </trkpt>
      <trkpt lat="45.86561" lon="4.85162">
        <ele>214.1</ele>
        <time>2020-06-07T09:39:08.000Z</time>
      </trkpt>
      <trkpt lat="45.86561" lon="4.85166">
        <ele>214.3</ele>
        <time>2020-06-07T09:39:09.000Z</time>
      </trkpt>
      <trkpt lat="45.8656" lon="4.8517">
        <ele>214.5</ele>
        <time>2020-06-07T09:39:10.000Z</time>
      </trkpt>
      <trkpt lat="45.8656" lon="4.85173">
        <ele>214.7</ele>
        <time>2020-06-07T09:39:11.000Z</time>
      </trkpt>
      <trkpt lat="45.86559" lon="4.85177">
        <ele>214.9</ele>
        <time>2020-06-07T09:39:12.000Z</time>
      </trkpt>
      <trkpt lat="45.86559" lon="4.85181">
        <ele>215.1</ele>
        <time>2020-06-07T09:39:13.000Z</time>
      </trkpt>
      <trkpt lat="45.86558" lon="4.85184">
        <ele>215.3</ele>
        <time>2020-06-07T09:39:14.000Z</time>
      </trkpt>
      <trkpt lat="45.86558" lon="4.85188">
        <ele>215.5</ele>
        <time>2020-06-07T09:39:15.000Z</time>
      </trkpt>
      <trkpt lat="45.86557" lon="4.85191">
        <ele>215.7</ele>
        <time>2020-06-07T09:39:16.000Z</time>
      </trkpt>
      <trkpt lat="45.86556" lon="4.85194">
        <ele>215.9</ele>
        <time>2020-06-07T09:39:17.000Z</time>
      </trkpt>
      <trkpt lat="45.86555" lon="4.85197">
        <ele>216.1</ele>
        <time>2020-06-07T09:39:18.000Z</time>
      </trkpt>
      <trkpt lat="45.86555" lon="4.85199">
        <ele>216.7</ele>
        <time>2020-06-07T09:39:19.000Z</time>
      </trkpt>
      <trkpt lat="45.86554" lon="4.852">
        <ele>216.7</ele>
        <time>2020-06-07T09:39:20.000Z</time>
      </trkpt>
      <trkpt lat="45.86553" lon="4.85201">
        <ele>216.8</ele>
        <time>2020-06-07T09:39:21.000Z</time>
      </trkpt>
      <trkpt lat="45.86551" lon="4.85202">
        <ele>216.9</ele>
        <time>2020-06-07T09:39:22.000Z</time>
      </trkpt>
      <trkpt lat="45.8655" lon="4.85203">
        <ele>217</ele>
        <time>2020-06-07T09:39:23.000Z</time>
      </trkpt>
      <trkpt lat="45.86548" lon="4.85204">
        <ele>217.1</ele>
        <time>2020-06-07T09:39:24.000Z</time>
      </trkpt>
      <trkpt lat="45.86545" lon="4.85205">
        <ele>217.3</ele>
        <time>2020-06-07T09:39:25.000Z</time>
      </trkpt>
      <trkpt lat="45.86543" lon="4.85206">
        <ele>217.4</ele>
        <time>2020-06-07T09:39:26.000Z</time>
      </trkpt>
      <trkpt lat="45.8654" lon="4.85206">
        <ele>217.6</ele>
        <time>2020-06-07T09:39:27.000Z</time>
      </trkpt>
      <trkpt lat="45.86538" lon="4.85207">
        <ele>217.7</ele>
        <time>2020-06-07T09:39:28.000Z</time>
      </trkpt>
      <trkpt lat="45.86535" lon="4.85207">
        <ele>217.9</ele>
        <time>2020-06-07T09:39:29.000Z</time>
      </trkpt>
      <trkpt lat="45.86532" lon="4.85208">
        <ele>218</ele>
        <time>2020-06-07T09:39:30.000Z</time>
      </trkpt>
      <trkpt lat="45.8653" lon="4.85209">
        <ele>218.2</ele>
        <time>2020-06-07T09:39:31.000Z</time>
      </trkpt>
      <trkpt lat="45.86527" lon="4.8521">
        <ele>218.3</ele>
        <time>2020-06-07T09:39:32.000Z</time>
      </trkpt>
      <trkpt lat="45.86525" lon="4.85211">
        <ele>218.5</ele>
        <time>2020-06-07T09:39:33.000Z</time>
      </trkpt>
      <trkpt lat="45.86522" lon="4.85212">
        <ele>218.6</ele>
        <time>2020-06-07T09:39:34.000Z</time>
      </trkpt>
      <trkpt lat="45.86519" lon="4.85213">
        <ele>218.8</ele>
        <time>2020-06-07T09:39:35.000Z</time>
      </trkpt>
      <trkpt lat="45.86516" lon="4.85214">
        <ele>219</ele>
        <time>2020-06-07T09:39:36.000Z</time>
      </trkpt>
      <trkpt lat="45.86513" lon="4.85216">
        <ele>219.1</ele>
        <time>2020-06-07T09:39:37.000Z</time>
      </trkpt>
      <trkpt lat="45.8651" lon="4.85217">
        <ele>219.3</ele>
        <time>2020-06-07T09:39:38.000Z</time>
      </trkpt>
      <trkpt lat="45.86508" lon="4.85218">
        <ele>219.4</ele>
        <time>2020-06-07T09:39:39.000Z</time>
      </trkpt>
      <trkpt lat="45.86505" lon="4.85219">
        <ele>219.5</ele>
        <time>2020-06-07T09:39:40.000Z</time>
      </trkpt>
      <trkpt lat="45.86503" lon="4.85221">
        <ele>219.6</ele>
        <time>2020-06-07T09:39:41.000Z</time>
      </trkpt>
      <trkpt lat="45.865" lon="4.85222">
        <ele>219.7</ele>
        <time>2020-06-07T09:39:42.000Z</time>
      </trkpt>
      <trkpt lat="45.86498" lon="4.85223">
        <ele>219.8</ele>
        <time>2020-06-07T09:39:43.000Z</time>
      </trkpt>
      <trkpt lat="45.86495" lon="4.85224">
        <ele>219.9</ele>
        <time>2020-06-07T09:39:44.000Z</time>
      </trkpt>
      <trkpt lat="45.86492" lon="4.85224">
        <ele>220</ele>
        <time>2020-06-07T09:39:45.000Z</time>
      </trkpt>
      <trkpt lat="45.86489" lon="4.85224">
        <ele>220.1</ele>
        <time>2020-06-07T09:39:46.000Z</time>
      </trkpt>
      <trkpt lat="45.86486" lon="4.85225">
        <ele>220.2</ele>
        <time>2020-06-07T09:39:47.000Z</time>
      </trkpt>
      <trkpt lat="45.86483" lon="4.85226">
        <ele>220.3</ele>
        <time>2020-06-07T09:39:48.000Z</time>
      </trkpt>
      <trkpt lat="45.8648" lon="4.85228">
        <ele>220.4</ele>
        <time>2020-06-07T09:39:49.000Z</time>
      </trkpt>
      <trkpt lat="45.86477" lon="4.85229">
        <ele>220.5</ele>
        <time>2020-06-07T09:39:50.000Z</time>
      </trkpt>
      <trkpt lat="45.86474" lon="4.8523">
        <ele>220.6</ele>
        <time>2020-06-07T09:39:51.000Z</time>
      </trkpt>
      <trkpt lat="45.86471" lon="4.85231">
        <ele>220.7</ele>
        <time>2020-06-07T09:39:52.000Z</time>
      </trkpt>
      <trkpt lat="45.86468" lon="4.85233">
        <ele>220.8</ele>
        <time>2020-06-07T09:39:53.000Z</time>
      </trkpt>
      <trkpt lat="45.86468" lon="4.85236">
        <ele>220.9</ele>
        <time>2020-06-07T09:39:54.000Z</time>
      </trkpt>
      <trkpt lat="45.86466" lon="4.85239">
        <ele>220.9</ele>
        <time>2020-06-07T09:39:55.000Z</time>
      </trkpt>
      <trkpt lat="45.86464" lon="4.85241">
        <ele>221</ele>
        <time>2020-06-07T09:39:56.000Z</time>
      </trkpt>
      <trkpt lat="45.86462" lon="4.85243">
        <ele>221.1</ele>
        <time>2020-06-07T09:39:57.000Z</time>
      </trkpt>
      <trkpt lat="45.8646" lon="4.85246">
        <ele>221.2</ele>
        <time>2020-06-07T09:39:58.000Z</time>
      </trkpt>
      <trkpt lat="45.86457" lon="4.85248">
        <ele>221.3</ele>
        <time>2020-06-07T09:39:59.000Z</time>
      </trkpt>
      <trkpt lat="45.86454" lon="4.8525">
        <ele>221.5</ele>
        <time>2020-06-07T09:40:00.000Z</time>
      </trkpt>
      <trkpt lat="45.86452" lon="4.85252">
        <ele>221.6</ele>
        <time>2020-06-07T09:40:01.000Z</time>
      </trkpt>
      <trkpt lat="45.86449" lon="4.85254">
        <ele>221.7</ele>
        <time>2020-06-07T09:40:02.000Z</time>
      </trkpt>
      <trkpt lat="45.86446" lon="4.85256">
        <ele>221.9</ele>
        <time>2020-06-07T09:40:03.000Z</time>
      </trkpt>
      <trkpt lat="45.86444" lon="4.85259">
        <ele>222</ele>
        <time>2020-06-07T09:40:04.000Z</time>
      </trkpt>
      <trkpt lat="45.86441" lon="4.85261">
        <ele>222.2</ele>
        <time>2020-06-07T09:40:05.000Z</time>
      </trkpt>
      <trkpt lat="45.86439" lon="4.85263">
        <ele>222.4</ele>
        <time>2020-06-07T09:40:06.000Z</time>
      </trkpt>
      <trkpt lat="45.86436" lon="4.85265">
        <ele>222.5</ele>
        <time>2020-06-07T09:40:07.000Z</time>
      </trkpt>
      <trkpt lat="45.86434" lon="4.85267">
        <ele>222.7</ele>
        <time>2020-06-07T09:40:08.000Z</time>
      </trkpt>
      <trkpt lat="45.86431" lon="4.8527">
        <ele>222.9</ele>
        <time>2020-06-07T09:40:09.000Z</time>
      </trkpt>
      <trkpt lat="45.86428" lon="4.85271">
        <ele>223.1</ele>
        <time>2020-06-07T09:40:10.000Z</time>
      </trkpt>
      <trkpt lat="45.86426" lon="4.85273">
        <ele>223.3</ele>
        <time>2020-06-07T09:40:11.000Z</time>
      </trkpt>
      <trkpt lat="45.86424" lon="4.85276">
        <ele>223.7</ele>
        <time>2020-06-07T09:40:12.000Z</time>
      </trkpt>
      <trkpt lat="45.86422" lon="4.85278">
        <ele>224</ele>
        <time>2020-06-07T09:40:13.000Z</time>
      </trkpt>
      <trkpt lat="45.8642" lon="4.8528">
        <ele>224.2</ele>
        <time>2020-06-07T09:40:14.000Z</time>
      </trkpt>
      <trkpt lat="45.8642" lon="4.85282">
        <ele>224.4</ele>
        <time>2020-06-07T09:40:15.000Z</time>
      </trkpt>
      <trkpt lat="45.8642" lon="4.85285">
        <ele>224.6</ele>
        <time>2020-06-07T09:40:16.000Z</time>
      </trkpt>
      <trkpt lat="45.8642" lon="4.85288">
        <ele>224.8</ele>
        <time>2020-06-07T09:40:17.000Z</time>
      </trkpt>
      <trkpt lat="45.86421" lon="4.85291">
        <ele>225</ele>
        <time>2020-06-07T09:40:18.000Z</time>
      </trkpt>
      <trkpt lat="45.86421" lon="4.85294">
        <ele>225.2</ele>
        <time>2020-06-07T09:40:19.000Z</time>
      </trkpt>
      <trkpt lat="45.86422" lon="4.85297">
        <ele>225.3</ele>
        <time>2020-06-07T09:40:20.000Z</time>
      </trkpt>
      <trkpt lat="45.86423" lon="4.85299">
        <ele>225.5</ele>
        <time>2020-06-07T09:40:21.000Z</time>
      </trkpt>
      <trkpt lat="45.86423" lon="4.85302">
        <ele>225.7</ele>
        <time>2020-06-07T09:40:22.000Z</time>
      </trkpt>
      <trkpt lat="45.86423" lon="4.85305">
        <ele>225.8</ele>
        <time>2020-06-07T09:40:23.000Z</time>
      </trkpt>
      <trkpt lat="45.86423" lon="4.85307">
        <ele>226</ele>
        <time>2020-06-07T09:40:24.000Z</time>
      </trkpt>
      <trkpt lat="45.86423" lon="4.85309">
        <ele>226.1</ele>
        <time>2020-06-07T09:40:25.000Z</time>
      </trkpt>
      <trkpt lat="45.86423" lon="4.85312">
        <ele>226.2</ele>
        <time>2020-06-07T09:40:26.000Z</time>
      </trkpt>
      <trkpt lat="45.86423" lon="4.85314">
        <ele>226.4</ele>
        <time>2020-06-07T09:40:27.000Z</time>
      </trkpt>
      <trkpt lat="45.86423" lon="4.85316">
        <ele>226.5</ele>
        <time>2020-06-07T09:40:28.000Z</time>
      </trkpt>
      <trkpt lat="45.86423" lon="4.85319">
        <ele>226.6</ele>
        <time>2020-06-07T09:40:29.000Z</time>
      </trkpt>
      <trkpt lat="45.86423" lon="4.85321">
        <ele>226.8</ele>
        <time>2020-06-07T09:40:30.000Z</time>
      </trkpt>
      <trkpt lat="45.86423" lon="4.85324">
        <ele>226.9</ele>
        <time>2020-06-07T09:40:31.000Z</time>
      </trkpt>
      <trkpt lat="45.86423" lon="4.85326">
        <ele>227</ele>
        <time>2020-06-07T09:40:32.000Z</time>
      </trkpt>
      <trkpt lat="45.86423" lon="4.85328">
        <ele>227.1</ele>
        <time>2020-06-07T09:40:33.000Z</time>
      </trkpt>
      <trkpt lat="45.86423" lon="4.8533">
        <ele>227.2</ele>
        <time>2020-06-07T09:40:34.000Z</time>
      </trkpt>
      <trkpt lat="45.86423" lon="4.85332">
        <ele>227.3</ele>
        <time>2020-06-07T09:40:35.000Z</time>
      </trkpt>
      <trkpt lat="45.86423" lon="4.85334">
        <ele>227.4</ele>
        <time>2020-06-07T09:40:36.000Z</time>
      </trkpt>
      <trkpt lat="45.86422" lon="4.85336">
        <ele>227.5</ele>
        <time>2020-06-07T09:40:37.000Z</time>
      </trkpt>
      <trkpt lat="45.86422" lon="4.85338">
        <ele>227.6</ele>
        <time>2020-06-07T09:40:38.000Z</time>
      </trkpt>
      <trkpt lat="45.86421" lon="4.85339">
        <ele>227.7</ele>
        <time>2020-06-07T09:40:39.000Z</time>
      </trkpt>
      <trkpt lat="45.8642" lon="4.85341">
        <ele>227.8</ele>
        <time>2020-06-07T09:40:40.000Z</time>
      </trkpt>
      <trkpt lat="45.86421" lon="4.85344">
        <ele>227.9</ele>
        <time>2020-06-07T09:40:41.000Z</time>
      </trkpt>
      <trkpt lat="45.86421" lon="4.85346">
        <ele>228.1</ele>
        <time>2020-06-07T09:40:42.000Z</time>
      </trkpt>
      <trkpt lat="45.86421" lon="4.85349">
        <ele>228.2</ele>
        <time>2020-06-07T09:40:43.000Z</time>
      </trkpt>
      <trkpt lat="45.8642" lon="4.85353">
        <ele>228.4</ele>
        <time>2020-06-07T09:40:44.000Z</time>
      </trkpt>
      <trkpt lat="45.8642" lon="4.85355">
        <ele>228.6</ele>
        <time>2020-06-07T09:40:45.000Z</time>
      </trkpt>
      <trkpt lat="45.86419" lon="4.85358">
        <ele>228.8</ele>
        <time>2020-06-07T09:40:46.000Z</time>
      </trkpt>
      <trkpt lat="45.86418" lon="4.85361">
        <ele>229</ele>
        <time>2020-06-07T09:40:47.000Z</time>
      </trkpt>
      <trkpt lat="45.86417" lon="4.85364">
        <ele>229.2</ele>
        <time>2020-06-07T09:40:48.000Z</time>
      </trkpt>
      <trkpt lat="45.86417" lon="4.85367">
        <ele>229.3</ele>
        <time>2020-06-07T09:40:49.000Z</time>
      </trkpt>
      <trkpt lat="45.86416" lon="4.8537">
        <ele>229.5</ele>
        <time>2020-06-07T09:40:50.000Z</time>
      </trkpt>
      <trkpt lat="45.86415" lon="4.85373">
        <ele>229.8</ele>
        <time>2020-06-07T09:40:51.000Z</time>
      </trkpt>
      <trkpt lat="45.86414" lon="4.85376">
        <ele>229.9</ele>
        <time>2020-06-07T09:40:52.000Z</time>
      </trkpt>
      <trkpt lat="45.86413" lon="4.85378">
        <ele>230.1</ele>
        <time>2020-06-07T09:40:53.000Z</time>
      </trkpt>
      <trkpt lat="45.86413" lon="4.85381">
        <ele>230.3</ele>
        <time>2020-06-07T09:40:54.000Z</time>
      </trkpt>
      <trkpt lat="45.86412" lon="4.85384">
        <ele>230.5</ele>
        <time>2020-06-07T09:40:55.000Z</time>
      </trkpt>
      <trkpt lat="45.86411" lon="4.85387">
        <ele>230.7</ele>
        <time>2020-06-07T09:40:56.000Z</time>
      </trkpt>
      <trkpt lat="45.86411" lon="4.8539">
        <ele>230.9</ele>
        <time>2020-06-07T09:40:57.000Z</time>
      </trkpt>
      <trkpt lat="45.8641" lon="4.85393">
        <ele>231.1</ele>
        <time>2020-06-07T09:40:58.000Z</time>
      </trkpt>
      <trkpt lat="45.86409" lon="4.85396">
        <ele>231.3</ele>
        <time>2020-06-07T09:40:59.000Z</time>
      </trkpt>
      <trkpt lat="45.86409" lon="4.85399">
        <ele>231.6</ele>
        <time>2020-06-07T09:41:00.000Z</time>
      </trkpt>
      <trkpt lat="45.86408" lon="4.85402">
        <ele>231.8</ele>
        <time>2020-06-07T09:41:01.000Z</time>
      </trkpt>
      <trkpt lat="45.86405" lon="4.85404">
        <ele>232.1</ele>
        <time>2020-06-07T09:41:02.000Z</time>
      </trkpt>
      <trkpt lat="45.86404" lon="4.85406">
        <ele>232.3</ele>
        <time>2020-06-07T09:41:03.000Z</time>
      </trkpt>
      <trkpt lat="45.86404" lon="4.8541">
        <ele>232.5</ele>
        <time>2020-06-07T09:41:04.000Z</time>
      </trkpt>
      <trkpt lat="45.86404" lon="4.85413">
        <ele>232.7</ele>
        <time>2020-06-07T09:41:05.000Z</time>
      </trkpt>
      <trkpt lat="45.86404" lon="4.85416">
        <ele>232.9</ele>
        <time>2020-06-07T09:41:06.000Z</time>
      </trkpt>
      <trkpt lat="45.86404" lon="4.85418">
        <ele>233.1</ele>
        <time>2020-06-07T09:41:07.000Z</time>
      </trkpt>
      <trkpt lat="45.86404" lon="4.85421">
        <ele>233.4</ele>
        <time>2020-06-07T09:41:08.000Z</time>
      </trkpt>
      <trkpt lat="45.86406" lon="4.85424">
        <ele>233.7</ele>
        <time>2020-06-07T09:41:09.000Z</time>
      </trkpt>
      <trkpt lat="45.86405" lon="4.85427">
        <ele>233.9</ele>
        <time>2020-06-07T09:41:10.000Z</time>
      </trkpt>
      <trkpt lat="45.86405" lon="4.8543">
        <ele>234.1</ele>
        <time>2020-06-07T09:41:11.000Z</time>
      </trkpt>
      <trkpt lat="45.86407" lon="4.85433">
        <ele>234.4</ele>
        <time>2020-06-07T09:41:12.000Z</time>
      </trkpt>
      <trkpt lat="45.86407" lon="4.85435">
        <ele>234.7</ele>
        <time>2020-06-07T09:41:13.000Z</time>
      </trkpt>
      <trkpt lat="45.86407" lon="4.85438">
        <ele>234.9</ele>
        <time>2020-06-07T09:41:14.000Z</time>
      </trkpt>
      <trkpt lat="45.86409" lon="4.85442">
        <ele>235.3</ele>
        <time>2020-06-07T09:41:15.000Z</time>
      </trkpt>
      <trkpt lat="45.8641" lon="4.85445">
        <ele>235.7</ele>
        <time>2020-06-07T09:41:16.000Z</time>
      </trkpt>
      <trkpt lat="45.86412" lon="4.85449">
        <ele>236.1</ele>
        <time>2020-06-07T09:41:17.000Z</time>
      </trkpt>
      <trkpt lat="45.86411" lon="4.85451">
        <ele>236.5</ele>
        <time>2020-06-07T09:41:18.000Z</time>
      </trkpt>
      <trkpt lat="45.86409" lon="4.85453">
        <ele>236.8</ele>
        <time>2020-06-07T09:41:19.000Z</time>
      </trkpt>
      <trkpt lat="45.86409" lon="4.85454">
        <ele>236.9</ele>
        <time>2020-06-07T09:41:20.000Z</time>
      </trkpt>
      <trkpt lat="45.86409" lon="4.85456">
        <ele>237.1</ele>
        <time>2020-06-07T09:41:21.000Z</time>
      </trkpt>
      <trkpt lat="45.86408" lon="4.85457">
        <ele>237.3</ele>
        <time>2020-06-07T09:41:22.000Z</time>
      </trkpt>
      <trkpt lat="45.86407" lon="4.8546">
        <ele>237.6</ele>
        <time>2020-06-07T09:41:23.000Z</time>
      </trkpt>
      <trkpt lat="45.86406" lon="4.85462">
        <ele>237.8</ele>
        <time>2020-06-07T09:41:24.000Z</time>
      </trkpt>
      <trkpt lat="45.86407" lon="4.85465">
        <ele>238.1</ele>
        <time>2020-06-07T09:41:25.000Z</time>
      </trkpt>
      <trkpt lat="45.86406" lon="4.85468">
        <ele>238.4</ele>
        <time>2020-06-07T09:41:26.000Z</time>
      </trkpt>
      <trkpt lat="45.86404" lon="4.8547">
        <ele>238.7</ele>
        <time>2020-06-07T09:41:27.000Z</time>
      </trkpt>
      <trkpt lat="45.86404" lon="4.85472">
        <ele>239</ele>
        <time>2020-06-07T09:41:28.000Z</time>
      </trkpt>
      <trkpt lat="45.86405" lon="4.85475">
        <ele>239.2</ele>
        <time>2020-06-07T09:41:29.000Z</time>
      </trkpt>
      <trkpt lat="45.86405" lon="4.85478">
        <ele>239.5</ele>
        <time>2020-06-07T09:41:30.000Z</time>
      </trkpt>
      <trkpt lat="45.86406" lon="4.85481">
        <ele>239.8</ele>
        <time>2020-06-07T09:41:31.000Z</time>
      </trkpt>
      <trkpt lat="45.86406" lon="4.85483">
        <ele>240</ele>
        <time>2020-06-07T09:41:32.000Z</time>
      </trkpt>
      <trkpt lat="45.86407" lon="4.85485">
        <ele>240.3</ele>
        <time>2020-06-07T09:41:33.000Z</time>
      </trkpt>
      <trkpt lat="45.86408" lon="4.85488">
        <ele>240.6</ele>
        <time>2020-06-07T09:41:34.000Z</time>
      </trkpt>
      <trkpt lat="45.86408" lon="4.85491">
        <ele>240.8</ele>
        <time>2020-06-07T09:41:35.000Z</time>
      </trkpt>
      <trkpt lat="45.86409" lon="4.85494">
        <ele>241.1</ele>
        <time>2020-06-07T09:41:36.000Z</time>
      </trkpt>
      <trkpt lat="45.8641" lon="4.85496">
        <ele>241.4</ele>
        <time>2020-06-07T09:41:37.000Z</time>
      </trkpt>
      <trkpt lat="45.86411" lon="4.85499">
        <ele>241.7</ele>
        <time>2020-06-07T09:41:38.000Z</time>
      </trkpt>
      <trkpt lat="45.86411" lon="4.85502">
        <ele>241.9</ele>
        <time>2020-06-07T09:41:39.000Z</time>
      </trkpt>
      <trkpt lat="45.86412" lon="4.85504">
        <ele>242.2</ele>
        <time>2020-06-07T09:41:40.000Z</time>
      </trkpt>
      <trkpt lat="45.86412" lon="4.85507">
        <ele>242.4</ele>
        <time>2020-06-07T09:41:41.000Z</time>
      </trkpt>
      <trkpt lat="45.86411" lon="4.85509">
        <ele>242.7</ele>
        <time>2020-06-07T09:41:42.000Z</time>
      </trkpt>
      <trkpt lat="45.8641" lon="4.85511">
        <ele>242.9</ele>
        <time>2020-06-07T09:41:43.000Z</time>
      </trkpt>
      <trkpt lat="45.86412" lon="4.85514">
        <ele>243.2</ele>
        <time>2020-06-07T09:41:44.000Z</time>
      </trkpt>
      <trkpt lat="45.86414" lon="4.85516">
        <ele>243.6</ele>
        <time>2020-06-07T09:41:45.000Z</time>
      </trkpt>
      <trkpt lat="45.86413" lon="4.85518">
        <ele>243.9</ele>
        <time>2020-06-07T09:41:46.000Z</time>
      </trkpt>
      <trkpt lat="45.86413" lon="4.85521">
        <ele>244.1</ele>
        <time>2020-06-07T09:41:47.000Z</time>
      </trkpt>
      <trkpt lat="45.86412" lon="4.85523">
        <ele>244.4</ele>
        <time>2020-06-07T09:41:48.000Z</time>
      </trkpt>
      <trkpt lat="45.86411" lon="4.85525">
        <ele>244.6</ele>
        <time>2020-06-07T09:41:49.000Z</time>
      </trkpt>
      <trkpt lat="45.8641" lon="4.85528">
        <ele>244.9</ele>
        <time>2020-06-07T09:41:50.000Z</time>
      </trkpt>
      <trkpt lat="45.86409" lon="4.8553">
        <ele>245.2</ele>
        <time>2020-06-07T09:41:51.000Z</time>
      </trkpt>
      <trkpt lat="45.86408" lon="4.85533">
        <ele>245.5</ele>
        <time>2020-06-07T09:41:52.000Z</time>
      </trkpt>
      <trkpt lat="45.86408" lon="4.85535">
        <ele>245.8</ele>
        <time>2020-06-07T09:41:53.000Z</time>
      </trkpt>
      <trkpt lat="45.86408" lon="4.85538">
        <ele>246</ele>
        <time>2020-06-07T09:41:54.000Z</time>
      </trkpt>
      <trkpt lat="45.86408" lon="4.8554">
        <ele>246.3</ele>
        <time>2020-06-07T09:41:55.000Z</time>
      </trkpt>
      <trkpt lat="45.86408" lon="4.85543">
        <ele>246.6</ele>
        <time>2020-06-07T09:41:56.000Z</time>
      </trkpt>
      <trkpt lat="45.86409" lon="4.85545">
        <ele>246.8</ele>
        <time>2020-06-07T09:41:57.000Z</time>
      </trkpt>
      <trkpt lat="45.8641" lon="4.85548">
        <ele>247.1</ele>
        <time>2020-06-07T09:41:58.000Z</time>
      </trkpt>
      <trkpt lat="45.8641" lon="4.8555">
        <ele>247.3</ele>
        <time>2020-06-07T09:41:59.000Z</time>
      </trkpt>
      <trkpt lat="45.86412" lon="4.85553">
        <ele>247.7</ele>
        <time>2020-06-07T09:42:00.000Z</time>
      </trkpt>
      <trkpt lat="45.86414" lon="4.85555">
        <ele>248.1</ele>
        <time>2020-06-07T09:42:01.000Z</time>
      </trkpt>
      <trkpt lat="45.86415" lon="4.85558">
        <ele>248.5</ele>
        <time>2020-06-07T09:42:02.000Z</time>
      </trkpt>
      <trkpt lat="45.86416" lon="4.8556">
        <ele>248.8</ele>
        <time>2020-06-07T09:42:03.000Z</time>
      </trkpt>
      <trkpt lat="45.86416" lon="4.85562">
        <ele>249</ele>
        <time>2020-06-07T09:42:04.000Z</time>
      </trkpt>
      <trkpt lat="45.86416" lon="4.85565">
        <ele>249.3</ele>
        <time>2020-06-07T09:42:05.000Z</time>
      </trkpt>
      <trkpt lat="45.86415" lon="4.85566">
        <ele>249.5</ele>
        <time>2020-06-07T09:42:06.000Z</time>
      </trkpt>
      <trkpt lat="45.86415" lon="4.85568">
        <ele>249.7</ele>
        <time>2020-06-07T09:42:07.000Z</time>
      </trkpt>
      <trkpt lat="45.86414" lon="4.8557">
        <ele>249.9</ele>
        <time>2020-06-07T09:42:08.000Z</time>
      </trkpt>
      <trkpt lat="45.86413" lon="4.85572">
        <ele>250.2</ele>
        <time>2020-06-07T09:42:09.000Z</time>
      </trkpt>
      <trkpt lat="45.86414" lon="4.85574">
        <ele>250.4</ele>
        <time>2020-06-07T09:42:10.000Z</time>
      </trkpt>
      <trkpt lat="45.86413" lon="4.85575">
        <ele>250.6</ele>
        <time>2020-06-07T09:42:11.000Z</time>
      </trkpt>
      <trkpt lat="45.86413" lon="4.85577">
        <ele>250.8</ele>
        <time>2020-06-07T09:42:12.000Z</time>
      </trkpt>
      <trkpt lat="45.86413" lon="4.85579">
        <ele>251.1</ele>
        <time>2020-06-07T09:42:13.000Z</time>
      </trkpt>
      <trkpt lat="45.86413" lon="4.85582">
        <ele>251.3</ele>
        <time>2020-06-07T09:42:14.000Z</time>
      </trkpt>
      <trkpt lat="45.86413" lon="4.85584">
        <ele>251.6</ele>
        <time>2020-06-07T09:42:15.000Z</time>
      </trkpt>
      <trkpt lat="45.86413" lon="4.85586">
        <ele>251.8</ele>
        <time>2020-06-07T09:42:16.000Z</time>
      </trkpt>
      <trkpt lat="45.86411" lon="4.85587">
        <ele>252.1</ele>
        <time>2020-06-07T09:42:17.000Z</time>
      </trkpt>
      <trkpt lat="45.8641" lon="4.85589">
        <ele>252.4</ele>
        <time>2020-06-07T09:42:18.000Z</time>
      </trkpt>
      <trkpt lat="45.86411" lon="4.85591">
        <ele>252.6</ele>
        <time>2020-06-07T09:42:19.000Z</time>
      </trkpt>
      <trkpt lat="45.86412" lon="4.85593">
        <ele>253</ele>
        <time>2020-06-07T09:42:20.000Z</time>
      </trkpt>
      <trkpt lat="45.86412" lon="4.85595">
        <ele>253.2</ele>
        <time>2020-06-07T09:42:21.000Z</time>
      </trkpt>
      <trkpt lat="45.86415" lon="4.85598">
        <ele>253.7</ele>
        <time>2020-06-07T09:42:22.000Z</time>
      </trkpt>
      <trkpt lat="45.86418" lon="4.85601">
        <ele>254.3</ele>
        <time>2020-06-07T09:42:23.000Z</time>
      </trkpt>
      <trkpt lat="45.86419" lon="4.85603">
        <ele>254.7</ele>
        <time>2020-06-07T09:42:24.000Z</time>
      </trkpt>
      <trkpt lat="45.8642" lon="4.85605">
        <ele>254.9</ele>
        <time>2020-06-07T09:42:25.000Z</time>
      </trkpt>
      <trkpt lat="45.8642" lon="4.85607">
        <ele>255.2</ele>
        <time>2020-06-07T09:42:26.000Z</time>
      </trkpt>
      <trkpt lat="45.86419" lon="4.85609">
        <ele>255.4</ele>
        <time>2020-06-07T09:42:27.000Z</time>
      </trkpt>
      <trkpt lat="45.86418" lon="4.85611">
        <ele>255.7</ele>
        <time>2020-06-07T09:42:28.000Z</time>
      </trkpt>
      <trkpt lat="45.86418" lon="4.85613">
        <ele>256</ele>
        <time>2020-06-07T09:42:29.000Z</time>
      </trkpt>
      <trkpt lat="45.86419" lon="4.85616">
        <ele>256.3</ele>
        <time>2020-06-07T09:42:30.000Z</time>
      </trkpt>
      <trkpt lat="45.86419" lon="4.85618">
        <ele>256.6</ele>
        <time>2020-06-07T09:42:31.000Z</time>
      </trkpt>
      <trkpt lat="45.86419" lon="4.8562">
        <ele>256.9</ele>
        <time>2020-06-07T09:42:32.000Z</time>
      </trkpt>
      <trkpt lat="45.86419" lon="4.85622">
        <ele>257.1</ele>
        <time>2020-06-07T09:42:33.000Z</time>
      </trkpt>
      <trkpt lat="45.86419" lon="4.85624">
        <ele>257.4</ele>
        <time>2020-06-07T09:42:34.000Z</time>
      </trkpt>
      <trkpt lat="45.86419" lon="4.85627">
        <ele>257.6</ele>
        <time>2020-06-07T09:42:35.000Z</time>
      </trkpt>
      <trkpt lat="45.86418" lon="4.85628">
        <ele>257.9</ele>
        <time>2020-06-07T09:42:36.000Z</time>
      </trkpt>
      <trkpt lat="45.86416" lon="4.85629">
        <ele>258.3</ele>
        <time>2020-06-07T09:42:37.000Z</time>
      </trkpt>
      <trkpt lat="45.86415" lon="4.85631">
        <ele>258.5</ele>
        <time>2020-06-07T09:42:38.000Z</time>
      </trkpt>
      <trkpt lat="45.86413" lon="4.85632">
        <ele>258.9</ele>
        <time>2020-06-07T09:42:39.000Z</time>
      </trkpt>
      <trkpt lat="45.8641" lon="4.85634">
        <ele>259.3</ele>
        <time>2020-06-07T09:42:40.000Z</time>
      </trkpt>
      <trkpt lat="45.86404" lon="4.85634">
        <ele>260.2</ele>
        <time>2020-06-07T09:42:41.000Z</time>
      </trkpt>
      <trkpt lat="45.86403" lon="4.85636">
        <ele>260.5</ele>
        <time>2020-06-07T09:42:42.000Z</time>
      </trkpt>
      <trkpt lat="45.86402" lon="4.85638">
        <ele>260.7</ele>
        <time>2020-06-07T09:42:43.000Z</time>
      </trkpt>
      <trkpt lat="45.86401" lon="4.85639">
        <ele>261</ele>
        <time>2020-06-07T09:42:44.000Z</time>
      </trkpt>
      <trkpt lat="45.864" lon="4.85641">
        <ele>261.2</ele>
        <time>2020-06-07T09:42:45.000Z</time>
      </trkpt>
      <trkpt lat="45.86399" lon="4.85642">
        <ele>261.4</ele>
        <time>2020-06-07T09:42:46.000Z</time>
      </trkpt>
      <trkpt lat="45.86398" lon="4.85644">
        <ele>261.6</ele>
        <time>2020-06-07T09:42:47.000Z</time>
      </trkpt>
      <trkpt lat="45.86398" lon="4.85646">
        <ele>261.9</ele>
        <time>2020-06-07T09:42:48.000Z</time>
      </trkpt>
      <trkpt lat="45.86398" lon="4.85648">
        <ele>262</ele>
        <time>2020-06-07T09:42:49.000Z</time>
      </trkpt>
      <trkpt lat="45.86397" lon="4.85649">
        <ele>262.3</ele>
        <time>2020-06-07T09:42:50.000Z</time>
      </trkpt>
      <trkpt lat="45.86397" lon="4.8565">
        <ele>262.4</ele>
        <time>2020-06-07T09:42:51.000Z</time>
      </trkpt>
      <trkpt lat="45.86396" lon="4.85652">
        <ele>262.6</ele>
        <time>2020-06-07T09:42:52.000Z</time>
      </trkpt>
      <trkpt lat="45.86395" lon="4.85653">
        <ele>262.8</ele>
        <time>2020-06-07T09:42:53.000Z</time>
      </trkpt>
      <trkpt lat="45.86394" lon="4.85654">
        <ele>263.1</ele>
        <time>2020-06-07T09:42:54.000Z</time>
      </trkpt>
      <trkpt lat="45.86393" lon="4.85656">
        <ele>263.3</ele>
        <time>2020-06-07T09:42:55.000Z</time>
      </trkpt>
      <trkpt lat="45.86392" lon="4.85658">
        <ele>263.6</ele>
        <time>2020-06-07T09:42:56.000Z</time>
      </trkpt>
      <trkpt lat="45.86391" lon="4.8566">
        <ele>263.8</ele>
        <time>2020-06-07T09:42:57.000Z</time>
      </trkpt>
      <trkpt lat="45.86391" lon="4.85661">
        <ele>263.9</ele>
        <time>2020-06-07T09:42:58.000Z</time>
      </trkpt>
      <trkpt lat="45.86391" lon="4.85663">
        <ele>264.1</ele>
        <time>2020-06-07T09:42:59.000Z</time>
      </trkpt>
      <trkpt lat="45.86391" lon="4.85665">
        <ele>264.3</ele>
        <time>2020-06-07T09:43:00.000Z</time>
      </trkpt>
      <trkpt lat="45.8639" lon="4.85666">
        <ele>264.5</ele>
        <time>2020-06-07T09:43:01.000Z</time>
      </trkpt>
      <trkpt lat="45.86391" lon="4.85669">
        <ele>264.8</ele>
        <time>2020-06-07T09:43:02.000Z</time>
      </trkpt>
      <trkpt lat="45.86391" lon="4.85671">
        <ele>265.1</ele>
        <time>2020-06-07T09:43:03.000Z</time>
      </trkpt>
      <trkpt lat="45.8639" lon="4.85674">
        <ele>265.3</ele>
        <time>2020-06-07T09:43:04.000Z</time>
      </trkpt>
      <trkpt lat="45.8639" lon="4.85676">
        <ele>265.6</ele>
        <time>2020-06-07T09:43:05.000Z</time>
      </trkpt>
      <trkpt lat="45.8639" lon="4.85679">
        <ele>265.8</ele>
        <time>2020-06-07T09:43:06.000Z</time>
      </trkpt>
      <trkpt lat="45.86391" lon="4.85681">
        <ele>266.1</ele>
        <time>2020-06-07T09:43:07.000Z</time>
      </trkpt>
      <trkpt lat="45.86391" lon="4.85684">
        <ele>266.4</ele>
        <time>2020-06-07T09:43:08.000Z</time>
      </trkpt>
      <trkpt lat="45.86392" lon="4.85687">
        <ele>266.7</ele>
        <time>2020-06-07T09:43:09.000Z</time>
      </trkpt>
      <trkpt lat="45.86392" lon="4.85689">
        <ele>266.9</ele>
        <time>2020-06-07T09:43:10.000Z</time>
      </trkpt>
      <trkpt lat="45.86392" lon="4.85691">
        <ele>267.1</ele>
        <time>2020-06-07T09:43:11.000Z</time>
      </trkpt>
      <trkpt lat="45.86392" lon="4.85693">
        <ele>267.3</ele>
        <time>2020-06-07T09:43:12.000Z</time>
      </trkpt>
      <trkpt lat="45.86392" lon="4.85695">
        <ele>267.5</ele>
        <time>2020-06-07T09:43:13.000Z</time>
      </trkpt>
      <trkpt lat="45.86392" lon="4.85697">
        <ele>267.8</ele>
        <time>2020-06-07T09:43:14.000Z</time>
      </trkpt>
      <trkpt lat="45.86391" lon="4.857">
        <ele>268</ele>
        <time>2020-06-07T09:43:15.000Z</time>
      </trkpt>
      <trkpt lat="45.86391" lon="4.85701">
        <ele>268.1</ele>
        <time>2020-06-07T09:43:16.000Z</time>
      </trkpt>
      <trkpt lat="45.8639" lon="4.85703">
        <ele>268.4</ele>
        <time>2020-06-07T09:43:17.000Z</time>
      </trkpt>
      <trkpt lat="45.86389" lon="4.85704">
        <ele>268.6</ele>
        <time>2020-06-07T09:43:18.000Z</time>
      </trkpt>
      <trkpt lat="45.8639" lon="4.85706">
        <ele>268.8</ele>
        <time>2020-06-07T09:43:19.000Z</time>
      </trkpt>
      <trkpt lat="45.8639" lon="4.85708">
        <ele>269</ele>
        <time>2020-06-07T09:43:20.000Z</time>
      </trkpt>
      <trkpt lat="45.8639" lon="4.85709">
        <ele>269.1</ele>
        <time>2020-06-07T09:43:21.000Z</time>
      </trkpt>
      <trkpt lat="45.8639" lon="4.85711">
        <ele>269.3</ele>
        <time>2020-06-07T09:43:22.000Z</time>
      </trkpt>
      <trkpt lat="45.8639" lon="4.85713">
        <ele>269.5</ele>
        <time>2020-06-07T09:43:23.000Z</time>
      </trkpt>
      <trkpt lat="45.8639" lon="4.85714">
        <ele>269.7</ele>
        <time>2020-06-07T09:43:24.000Z</time>
      </trkpt>
      <trkpt lat="45.86389" lon="4.85717">
        <ele>269.9</ele>
        <time>2020-06-07T09:43:25.000Z</time>
      </trkpt>
      <trkpt lat="45.8639" lon="4.85719">
        <ele>270.2</ele>
        <time>2020-06-07T09:43:26.000Z</time>
      </trkpt>
      <trkpt lat="45.8639" lon="4.85721">
        <ele>270.4</ele>
        <time>2020-06-07T09:43:27.000Z</time>
      </trkpt>
      <trkpt lat="45.86389" lon="4.85723">
        <ele>270.6</ele>
        <time>2020-06-07T09:43:28.000Z</time>
      </trkpt>
      <trkpt lat="45.86389" lon="4.85724">
        <ele>270.7</ele>
        <time>2020-06-07T09:43:29.000Z</time>
      </trkpt>
      <trkpt lat="45.8639" lon="4.85726">
        <ele>270.9</ele>
        <time>2020-06-07T09:43:30.000Z</time>
      </trkpt>
      <trkpt lat="45.8639" lon="4.85727">
        <ele>271.1</ele>
        <time>2020-06-07T09:43:31.000Z</time>
      </trkpt>
      <trkpt lat="45.86389" lon="4.85729">
        <ele>271.3</ele>
        <time>2020-06-07T09:43:32.000Z</time>
      </trkpt>
      <trkpt lat="45.86389" lon="4.85731">
        <ele>271.5</ele>
        <time>2020-06-07T09:43:33.000Z</time>
      </trkpt>
      <trkpt lat="45.86389" lon="4.85734">
        <ele>271.8</ele>
        <time>2020-06-07T09:43:34.000Z</time>
      </trkpt>
      <trkpt lat="45.86388" lon="4.85736">
        <ele>272.1</ele>
        <time>2020-06-07T09:43:35.000Z</time>
      </trkpt>
      <trkpt lat="45.86387" lon="4.85737">
        <ele>272.3</ele>
        <time>2020-06-07T09:43:36.000Z</time>
      </trkpt>
      <trkpt lat="45.86386" lon="4.85739">
        <ele>272.5</ele>
        <time>2020-06-07T09:43:37.000Z</time>
      </trkpt>
      <trkpt lat="45.86385" lon="4.8574">
        <ele>272.7</ele>
        <time>2020-06-07T09:43:38.000Z</time>
      </trkpt>
      <trkpt lat="45.86385" lon="4.85743">
        <ele>273</ele>
        <time>2020-06-07T09:43:39.000Z</time>
      </trkpt>
      <trkpt lat="45.86385" lon="4.85745">
        <ele>273.2</ele>
        <time>2020-06-07T09:43:40.000Z</time>
      </trkpt>
      <trkpt lat="45.86384" lon="4.85747">
        <ele>273.4</ele>
        <time>2020-06-07T09:43:41.000Z</time>
      </trkpt>
      <trkpt lat="45.86384" lon="4.85749">
        <ele>273.7</ele>
        <time>2020-06-07T09:43:42.000Z</time>
      </trkpt>
      <trkpt lat="45.86383" lon="4.85751">
        <ele>274</ele>
        <time>2020-06-07T09:43:43.000Z</time>
      </trkpt>
      <trkpt lat="45.86383" lon="4.85754">
        <ele>274.2</ele>
        <time>2020-06-07T09:43:44.000Z</time>
      </trkpt>
      <trkpt lat="45.86383" lon="4.85756">
        <ele>274.5</ele>
        <time>2020-06-07T09:43:45.000Z</time>
      </trkpt>
      <trkpt lat="45.86382" lon="4.85758">
        <ele>274.7</ele>
        <time>2020-06-07T09:43:46.000Z</time>
      </trkpt>
      <trkpt lat="45.86382" lon="4.8576">
        <ele>275</ele>
        <time>2020-06-07T09:43:47.000Z</time>
      </trkpt>
      <trkpt lat="45.86382" lon="4.85762">
        <ele>275.2</ele>
        <time>2020-06-07T09:43:48.000Z</time>
      </trkpt>
      <trkpt lat="45.86381" lon="4.85764">
        <ele>275.4</ele>
        <time>2020-06-07T09:43:49.000Z</time>
      </trkpt>
      <trkpt lat="45.86381" lon="4.85766">
        <ele>275.6</ele>
        <time>2020-06-07T09:43:50.000Z</time>
      </trkpt>
      <trkpt lat="45.86381" lon="4.85768">
        <ele>275.9</ele>
        <time>2020-06-07T09:43:51.000Z</time>
      </trkpt>
      <trkpt lat="45.8638" lon="4.85769">
        <ele>276.1</ele>
        <time>2020-06-07T09:43:52.000Z</time>
      </trkpt>
      <trkpt lat="45.8638" lon="4.85771">
        <ele>276.3</ele>
        <time>2020-06-07T09:43:53.000Z</time>
      </trkpt>
      <trkpt lat="45.86379" lon="4.85772">
        <ele>276.4</ele>
        <time>2020-06-07T09:43:54.000Z</time>
      </trkpt>
      <trkpt lat="45.86379" lon="4.85773">
        <ele>276.6</ele>
        <time>2020-06-07T09:43:55.000Z</time>
      </trkpt>
      <trkpt lat="45.86378" lon="4.85775">
        <ele>276.8</ele>
        <time>2020-06-07T09:43:56.000Z</time>
      </trkpt>
      <trkpt lat="45.86377" lon="4.85776">
        <ele>277</ele>
        <time>2020-06-07T09:43:57.000Z</time>
      </trkpt>
      <trkpt lat="45.86376" lon="4.85777">
        <ele>277.3</ele>
        <time>2020-06-07T09:43:58.000Z</time>
      </trkpt>
      <trkpt lat="45.86375" lon="4.85779">
        <ele>277.5</ele>
        <time>2020-06-07T09:43:59.000Z</time>
      </trkpt>
      <trkpt lat="45.86374" lon="4.85781">
        <ele>277.8</ele>
        <time>2020-06-07T09:44:00.000Z</time>
      </trkpt>
      <trkpt lat="45.86374" lon="4.85783">
        <ele>278</ele>
        <time>2020-06-07T09:44:01.000Z</time>
      </trkpt>
      <trkpt lat="45.86373" lon="4.85785">
        <ele>278.2</ele>
        <time>2020-06-07T09:44:02.000Z</time>
      </trkpt>
      <trkpt lat="45.86372" lon="4.85787">
        <ele>278.5</ele>
        <time>2020-06-07T09:44:03.000Z</time>
      </trkpt>
      <trkpt lat="45.86372" lon="4.85788">
        <ele>278.7</ele>
        <time>2020-06-07T09:44:04.000Z</time>
      </trkpt>
      <trkpt lat="45.86371" lon="4.8579">
        <ele>278.9</ele>
        <time>2020-06-07T09:44:05.000Z</time>
      </trkpt>
      <trkpt lat="45.8637" lon="4.85792">
        <ele>279.1</ele>
        <time>2020-06-07T09:44:06.000Z</time>
      </trkpt>
      <trkpt lat="45.8637" lon="4.85793">
        <ele>279.3</ele>
        <time>2020-06-07T09:44:07.000Z</time>
      </trkpt>
      <trkpt lat="45.86369" lon="4.85796">
        <ele>279.6</ele>
        <time>2020-06-07T09:44:08.000Z</time>
      </trkpt>
      <trkpt lat="45.86368" lon="4.85798">
        <ele>279.8</ele>
        <time>2020-06-07T09:44:09.000Z</time>
      </trkpt>
      <trkpt lat="45.86367" lon="4.85799">
        <ele>280</ele>
        <time>2020-06-07T09:44:10.000Z</time>
      </trkpt>
      <trkpt lat="45.86367" lon="4.85801">
        <ele>280.2</ele>
        <time>2020-06-07T09:44:11.000Z</time>
      </trkpt>
      <trkpt lat="45.86366" lon="4.85804">
        <ele>280.4</ele>
        <time>2020-06-07T09:44:12.000Z</time>
      </trkpt>
      <trkpt lat="45.86365" lon="4.85806">
        <ele>280.5</ele>
        <time>2020-06-07T09:44:13.000Z</time>
      </trkpt>
      <trkpt lat="45.86363" lon="4.85808">
        <ele>280.6</ele>
        <time>2020-06-07T09:44:14.000Z</time>
      </trkpt>
      <trkpt lat="45.86362" lon="4.85811">
        <ele>280.7</ele>
        <time>2020-06-07T09:44:15.000Z</time>
      </trkpt>
      <trkpt lat="45.86361" lon="4.85813">
        <ele>280.9</ele>
        <time>2020-06-07T09:44:16.000Z</time>
      </trkpt>
      <trkpt lat="45.86359" lon="4.85816">
        <ele>281</ele>
        <time>2020-06-07T09:44:17.000Z</time>
      </trkpt>
      <trkpt lat="45.86356" lon="4.85819">
        <ele>281.2</ele>
        <time>2020-06-07T09:44:18.000Z</time>
      </trkpt>
      <trkpt lat="45.86353" lon="4.85822">
        <ele>281.4</ele>
        <time>2020-06-07T09:44:19.000Z</time>
      </trkpt>
      <trkpt lat="45.8635" lon="4.85825">
        <ele>281.6</ele>
        <time>2020-06-07T09:44:20.000Z</time>
      </trkpt>
      <trkpt lat="45.86348" lon="4.85827">
        <ele>281.7</ele>
        <time>2020-06-07T09:44:21.000Z</time>
      </trkpt>
      <trkpt lat="45.86347" lon="4.8583">
        <ele>281.8</ele>
        <time>2020-06-07T09:44:22.000Z</time>
      </trkpt>
      <trkpt lat="45.86346" lon="4.85833">
        <ele>281.9</ele>
        <time>2020-06-07T09:44:23.000Z</time>
      </trkpt>
      <trkpt lat="45.86345" lon="4.85835">
        <ele>282</ele>
        <time>2020-06-07T09:44:24.000Z</time>
      </trkpt>
      <trkpt lat="45.86345" lon="4.85838">
        <ele>282.1</ele>
        <time>2020-06-07T09:44:25.000Z</time>
      </trkpt>
      <trkpt lat="45.86344" lon="4.8584">
        <ele>282.2</ele>
        <time>2020-06-07T09:44:26.000Z</time>
      </trkpt>
      <trkpt lat="45.86345" lon="4.85842">
        <ele>282.2</ele>
        <time>2020-06-07T09:44:27.000Z</time>
      </trkpt>
      <trkpt lat="45.86345" lon="4.85844">
        <ele>282.3</ele>
        <time>2020-06-07T09:44:28.000Z</time>
      </trkpt>
      <trkpt lat="45.86344" lon="4.85846">
        <ele>282.3</ele>
        <time>2020-06-07T09:44:29.000Z</time>
      </trkpt>
      <trkpt lat="45.86344" lon="4.85846">
        <ele>282.3</ele>
        <time>2020-06-07T09:44:30.000Z</time>
      </trkpt>
      <trkpt lat="45.86344" lon="4.85847">
        <ele>282.3</ele>
        <time>2020-06-07T09:44:31.000Z</time>
      </trkpt>
      <trkpt lat="45.86343" lon="4.85848">
        <ele>282.4</ele>
        <time>2020-06-07T09:44:32.000Z</time>
      </trkpt>
      <trkpt lat="45.86342" lon="4.85843">
        <ele>282.5</ele>
        <time>2020-06-07T09:45:00.000Z</time>
      </trkpt>
      <trkpt lat="45.86341" lon="4.8584">
        <ele>282.5</ele>
        <time>2020-06-07T09:45:01.000Z</time>
      </trkpt>
      <trkpt lat="45.86341" lon="4.85838">
        <ele>282.6</ele>
        <time>2020-06-07T09:45:02.000Z</time>
      </trkpt>
      <trkpt lat="45.8634" lon="4.85836">
        <ele>282.6</ele>
        <time>2020-06-07T09:45:03.000Z</time>
      </trkpt>
      <trkpt lat="45.86341" lon="4.85835">
        <ele>282.6</ele>
        <time>2020-06-07T09:45:04.000Z</time>
      </trkpt>
      <trkpt lat="45.86342" lon="4.85835">
        <ele>282.7</ele>
        <time>2020-06-07T09:45:05.000Z</time>
      </trkpt>
      <trkpt lat="45.86342" lon="4.85836">
        <ele>282.7</ele>
        <time>2020-06-07T09:45:06.000Z</time>
      </trkpt>
      <trkpt lat="45.86342" lon="4.85838">
        <ele>282.7</ele>
        <time>2020-06-07T09:45:07.000Z</time>
      </trkpt>
      <trkpt lat="45.86342" lon="4.85841">
        <ele>282.7</ele>
        <time>2020-06-07T09:45:08.000Z</time>
      </trkpt>
      <trkpt lat="45.86342" lon="4.85844">
        <ele>282.8</ele>
        <time>2020-06-07T09:45:09.000Z</time>
      </trkpt>
      <trkpt lat="45.86341" lon="4.85847">
        <ele>282.9</ele>
        <time>2020-06-07T09:45:10.000Z</time>
      </trkpt>
      <trkpt lat="45.86341" lon="4.8585">
        <ele>282.9</ele>
        <time>2020-06-07T09:45:11.000Z</time>
      </trkpt>
      <trkpt lat="45.86341" lon="4.85853">
        <ele>282.9</ele>
        <time>2020-06-07T09:45:12.000Z</time>
      </trkpt>
      <trkpt lat="45.86341" lon="4.85856">
        <ele>283</ele>
        <time>2020-06-07T09:45:13.000Z</time>
      </trkpt>
      <trkpt lat="45.86342" lon="4.85858">
        <ele>283</ele>
        <time>2020-06-07T09:45:14.000Z</time>
      </trkpt>
      <trkpt lat="45.86343" lon="4.85861">
        <ele>283</ele>
        <time>2020-06-07T09:45:15.000Z</time>
      </trkpt>
      <trkpt lat="45.86344" lon="4.85863">
        <ele>283</ele>
        <time>2020-06-07T09:45:16.000Z</time>
      </trkpt>
      <trkpt lat="45.86346" lon="4.85866">
        <ele>283.1</ele>
        <time>2020-06-07T09:45:17.000Z</time>
      </trkpt>
      <trkpt lat="45.86348" lon="4.85868">
        <ele>283.1</ele>
        <time>2020-06-07T09:45:18.000Z</time>
      </trkpt>
      <trkpt lat="45.8635" lon="4.85871">
        <ele>283.1</ele>
        <time>2020-06-07T09:45:19.000Z</time>
      </trkpt>
      <trkpt lat="45.86353" lon="4.85873">
        <ele>283.2</ele>
        <time>2020-06-07T09:45:20.000Z</time>
      </trkpt>
      <trkpt lat="45.86356" lon="4.85876">
        <ele>283.3</ele>
        <time>2020-06-07T09:45:21.000Z</time>
      </trkpt>
      <trkpt lat="45.86359" lon="4.85878">
        <ele>283.4</ele>
        <time>2020-06-07T09:45:22.000Z</time>
      </trkpt>
      <trkpt lat="45.86362" lon="4.8588">
        <ele>283.5</ele>
        <time>2020-06-07T09:45:23.000Z</time>
      </trkpt>
      <trkpt lat="45.86366" lon="4.85882">
        <ele>283.6</ele>
        <time>2020-06-07T09:45:24.000Z</time>
      </trkpt>
      <trkpt lat="45.8637" lon="4.85884">
        <ele>283.7</ele>
        <time>2020-06-07T09:45:25.000Z</time>
      </trkpt>
      <trkpt lat="45.86373" lon="4.85887">
        <ele>283.9</ele>
        <time>2020-06-07T09:45:26.000Z</time>
      </trkpt>
      <trkpt lat="45.86377" lon="4.85889">
        <ele>284</ele>
        <time>2020-06-07T09:45:27.000Z</time>
      </trkpt>
      <trkpt lat="45.86381" lon="4.85891">
        <ele>284.2</ele>
        <time>2020-06-07T09:45:28.000Z</time>
      </trkpt>
      <trkpt lat="45.86385" lon="4.85893">
        <ele>284.4</ele>
        <time>2020-06-07T09:45:29.000Z</time>
      </trkpt>
      <trkpt lat="45.86389" lon="4.85895">
        <ele>284.5</ele>
        <time>2020-06-07T09:45:30.000Z</time>
      </trkpt>
      <trkpt lat="45.86392" lon="4.85897">
        <ele>284.7</ele>
        <time>2020-06-07T09:45:31.000Z</time>
      </trkpt>
      <trkpt lat="45.86396" lon="4.85899">
        <ele>284.9</ele>
        <time>2020-06-07T09:45:32.000Z</time>
      </trkpt>
      <trkpt lat="45.86399" lon="4.859">
        <ele>285</ele>
        <time>2020-06-07T09:45:33.000Z</time>
      </trkpt>
      <trkpt lat="45.86402" lon="4.85902">
        <ele>285.2</ele>
        <time>2020-06-07T09:45:34.000Z</time>
      </trkpt>
      <trkpt lat="45.86405" lon="4.85904">
        <ele>285.4</ele>
        <time>2020-06-07T09:45:35.000Z</time>
      </trkpt>
      <trkpt lat="45.86408" lon="4.85906">
        <ele>285.5</ele>
        <time>2020-06-07T09:45:36.000Z</time>
      </trkpt>
      <trkpt lat="45.86411" lon="4.85908">
        <ele>285.7</ele>
        <time>2020-06-07T09:45:37.000Z</time>
      </trkpt>
      <trkpt lat="45.86414" lon="4.8591">
        <ele>286</ele>
        <time>2020-06-07T09:45:38.000Z</time>
      </trkpt>
      <trkpt lat="45.86417" lon="4.85912">
        <ele>286.1</ele>
        <time>2020-06-07T09:45:39.000Z</time>
      </trkpt>
      <trkpt lat="45.8642" lon="4.85914">
        <ele>286.4</ele>
        <time>2020-06-07T09:45:40.000Z</time>
      </trkpt>
      <trkpt lat="45.86423" lon="4.85916">
        <ele>286.6</ele>
        <time>2020-06-07T09:45:41.000Z</time>
      </trkpt>
      <trkpt lat="45.86427" lon="4.85917">
        <ele>286.9</ele>
        <time>2020-06-07T09:45:42.000Z</time>
      </trkpt>
      <trkpt lat="45.86431" lon="4.85918">
        <ele>287.5</ele>
        <time>2020-06-07T09:45:43.000Z</time>
      </trkpt>
      <trkpt lat="45.86435" lon="4.85918">
        <ele>287.8</ele>
        <time>2020-06-07T09:45:44.000Z</time>
      </trkpt>
      <trkpt lat="45.86439" lon="4.85919">
        <ele>288.1</ele>
        <time>2020-06-07T09:45:45.000Z</time>
      </trkpt>
      <trkpt lat="45.86444" lon="4.8592">
        <ele>288.5</ele>
        <time>2020-06-07T09:45:46.000Z</time>
      </trkpt>
      <trkpt lat="45.86448" lon="4.85921">
        <ele>288.8</ele>
        <time>2020-06-07T09:45:47.000Z</time>
      </trkpt>
      <trkpt lat="45.86452" lon="4.85923">
        <ele>289.1</ele>
        <time>2020-06-07T09:45:48.000Z</time>
      </trkpt>
      <trkpt lat="45.86456" lon="4.85924">
        <ele>289.4</ele>
        <time>2020-06-07T09:45:49.000Z</time>
      </trkpt>
      <trkpt lat="45.8646" lon="4.85926">
        <ele>289.6</ele>
        <time>2020-06-07T09:45:50.000Z</time>
      </trkpt>
      <trkpt lat="45.86464" lon="4.85927">
        <ele>289.9</ele>
        <time>2020-06-07T09:45:51.000Z</time>
      </trkpt>
      <trkpt lat="45.86469" lon="4.85929">
        <ele>290.2</ele>
        <time>2020-06-07T09:45:52.000Z</time>
      </trkpt>
      <trkpt lat="45.86473" lon="4.85932">
        <ele>290.5</ele>
        <time>2020-06-07T09:45:53.000Z</time>
      </trkpt>
      <trkpt lat="45.86478" lon="4.85934">
        <ele>290.7</ele>
        <time>2020-06-07T09:45:54.000Z</time>
      </trkpt>
      <trkpt lat="45.86482" lon="4.85936">
        <ele>290.9</ele>
        <time>2020-06-07T09:45:55.000Z</time>
      </trkpt>
      <trkpt lat="45.86487" lon="4.85939">
        <ele>291.2</ele>
        <time>2020-06-07T09:45:56.000Z</time>
      </trkpt>
      <trkpt lat="45.86492" lon="4.85942">
        <ele>291.4</ele>
        <time>2020-06-07T09:45:57.000Z</time>
      </trkpt>
      <trkpt lat="45.86497" lon="4.85945">
        <ele>291.6</ele>
        <time>2020-06-07T09:45:58.000Z</time>
      </trkpt>
      <trkpt lat="45.86501" lon="4.85946">
        <ele>291.7</ele>
        <time>2020-06-07T09:45:59.000Z</time>
      </trkpt>
      <trkpt lat="45.86505" lon="4.85948">
        <ele>291.9</ele>
        <time>2020-06-07T09:46:00.000Z</time>
      </trkpt>
      <trkpt lat="45.86509" lon="4.8595">
        <ele>292</ele>
        <time>2020-06-07T09:46:01.000Z</time>
      </trkpt>
      <trkpt lat="45.86514" lon="4.85952">
        <ele>292.1</ele>
        <time>2020-06-07T09:46:02.000Z</time>
      </trkpt>
      <trkpt lat="45.86518" lon="4.85954">
        <ele>292.1</ele>
        <time>2020-06-07T09:46:03.000Z</time>
      </trkpt>
      <trkpt lat="45.86521" lon="4.85956">
        <ele>292.2</ele>
        <time>2020-06-07T09:46:04.000Z</time>
      </trkpt>
      <trkpt lat="45.86525" lon="4.85958">
        <ele>292.2</ele>
        <time>2020-06-07T09:46:05.000Z</time>
      </trkpt>
      <trkpt lat="45.86528" lon="4.8596">
        <ele>292.2</ele>
        <time>2020-06-07T09:46:06.000Z</time>
      </trkpt>
      <trkpt lat="45.86532" lon="4.85962">
        <ele>292.3</ele>
        <time>2020-06-07T09:46:07.000Z</time>
      </trkpt>
      <trkpt lat="45.86536" lon="4.85965">
        <ele>292.3</ele>
        <time>2020-06-07T09:46:08.000Z</time>
      </trkpt>
      <trkpt lat="45.86539" lon="4.85967">
        <ele>292.3</ele>
        <time>2020-06-07T09:46:09.000Z</time>
      </trkpt>
      <trkpt lat="45.86543" lon="4.85969">
        <ele>292.3</ele>
        <time>2020-06-07T09:46:10.000Z</time>
      </trkpt>
      <trkpt lat="45.86546" lon="4.85972">
        <ele>292.3</ele>
        <time>2020-06-07T09:46:11.000Z</time>
      </trkpt>
      <trkpt lat="45.8655" lon="4.85974">
        <ele>292.3</ele>
        <time>2020-06-07T09:46:12.000Z</time>
      </trkpt>
      <trkpt lat="45.86553" lon="4.85977">
        <ele>292.3</ele>
        <time>2020-06-07T09:46:13.000Z</time>
      </trkpt>
      <trkpt lat="45.86557" lon="4.8598">
        <ele>292.3</ele>
        <time>2020-06-07T09:46:14.000Z</time>
      </trkpt>
      <trkpt lat="45.8656" lon="4.85983">
        <ele>292.3</ele>
        <time>2020-06-07T09:46:15.000Z</time>
      </trkpt>
      <trkpt lat="45.86564" lon="4.85986">
        <ele>292.3</ele>
        <time>2020-06-07T09:46:16.000Z</time>
      </trkpt>
      <trkpt lat="45.86567" lon="4.85989">
        <ele>292.3</ele>
        <time>2020-06-07T09:46:17.000Z</time>
      </trkpt>
      <trkpt lat="45.86571" lon="4.85991">
        <ele>292.3</ele>
        <time>2020-06-07T09:46:18.000Z</time>
      </trkpt>
      <trkpt lat="45.86575" lon="4.85993">
        <ele>292.3</ele>
        <time>2020-06-07T09:46:19.000Z</time>
      </trkpt>
      <trkpt lat="45.86579" lon="4.85994">
        <ele>292.3</ele>
        <time>2020-06-07T09:46:20.000Z</time>
      </trkpt>
      <trkpt lat="45.86582" lon="4.85995">
        <ele>292.3</ele>
        <time>2020-06-07T09:46:21.000Z</time>
      </trkpt>
      <trkpt lat="45.86587" lon="4.85995">
        <ele>292.3</ele>
        <time>2020-06-07T09:46:22.000Z</time>
      </trkpt>
      <trkpt lat="45.86591" lon="4.85996">
        <ele>292.4</ele>
        <time>2020-06-07T09:46:23.000Z</time>
      </trkpt>
      <trkpt lat="45.86595" lon="4.85997">
        <ele>292.4</ele>
        <time>2020-06-07T09:46:24.000Z</time>
      </trkpt>
      <trkpt lat="45.86599" lon="4.85998">
        <ele>292.4</ele>
        <time>2020-06-07T09:46:25.000Z</time>
      </trkpt>
      <trkpt lat="45.86603" lon="4.85999">
        <ele>292.4</ele>
        <time>2020-06-07T09:46:26.000Z</time>
      </trkpt>
      <trkpt lat="45.86607" lon="4.86">
        <ele>292.4</ele>
        <time>2020-06-07T09:46:27.000Z</time>
      </trkpt>
      <trkpt lat="45.86611" lon="4.86001">
        <ele>292.4</ele>
        <time>2020-06-07T09:46:28.000Z</time>
      </trkpt>
      <trkpt lat="45.86616" lon="4.86002">
        <ele>292.4</ele>
        <time>2020-06-07T09:46:29.000Z</time>
      </trkpt>
      <trkpt lat="45.8662" lon="4.86004">
        <ele>292.5</ele>
        <time>2020-06-07T09:46:30.000Z</time>
      </trkpt>
      <trkpt lat="45.86624" lon="4.86005">
        <ele>292.5</ele>
        <time>2020-06-07T09:46:31.000Z</time>
      </trkpt>
      <trkpt lat="45.86627" lon="4.86007">
        <ele>292.6</ele>
        <time>2020-06-07T09:46:32.000Z</time>
      </trkpt>
      <trkpt lat="45.86631" lon="4.86009">
        <ele>292.7</ele>
        <time>2020-06-07T09:46:33.000Z</time>
      </trkpt>
      <trkpt lat="45.86635" lon="4.8601">
        <ele>292.8</ele>
        <time>2020-06-07T09:46:34.000Z</time>
      </trkpt>
      <trkpt lat="45.86638" lon="4.86012">
        <ele>292.9</ele>
        <time>2020-06-07T09:46:35.000Z</time>
      </trkpt>
      <trkpt lat="45.86642" lon="4.86014">
        <ele>293</ele>
        <time>2020-06-07T09:46:36.000Z</time>
      </trkpt>
      <trkpt lat="45.86646" lon="4.86015">
        <ele>293.1</ele>
        <time>2020-06-07T09:46:37.000Z</time>
      </trkpt>
      <trkpt lat="45.86649" lon="4.86017">
        <ele>293.3</ele>
        <time>2020-06-07T09:46:38.000Z</time>
      </trkpt>
      <trkpt lat="45.86652" lon="4.86019">
        <ele>293.4</ele>
        <time>2020-06-07T09:46:39.000Z</time>
      </trkpt>
      <trkpt lat="45.86655" lon="4.86021">
        <ele>293.5</ele>
        <time>2020-06-07T09:46:40.000Z</time>
      </trkpt>
      <trkpt lat="45.86658" lon="4.86023">
        <ele>293.6</ele>
        <time>2020-06-07T09:46:41.000Z</time>
      </trkpt>
      <trkpt lat="45.86661" lon="4.86025">
        <ele>293.8</ele>
        <time>2020-06-07T09:46:42.000Z</time>
      </trkpt>
      <trkpt lat="45.86665" lon="4.86026">
        <ele>293.9</ele>
        <time>2020-06-07T09:46:43.000Z</time>
      </trkpt>
      <trkpt lat="45.86668" lon="4.86028">
        <ele>294</ele>
        <time>2020-06-07T09:46:44.000Z</time>
      </trkpt>
      <trkpt lat="45.86671" lon="4.8603">
        <ele>294.1</ele>
        <time>2020-06-07T09:46:45.000Z</time>
      </trkpt>
      <trkpt lat="45.86674" lon="4.86033">
        <ele>294.2</ele>
        <time>2020-06-07T09:46:46.000Z</time>
      </trkpt>
      <trkpt lat="45.86677" lon="4.86035">
        <ele>294.4</ele>
        <time>2020-06-07T09:46:47.000Z</time>
      </trkpt>
      <trkpt lat="45.8668" lon="4.86037">
        <ele>294.5</ele>
        <time>2020-06-07T09:46:48.000Z</time>
      </trkpt>
      <trkpt lat="45.86683" lon="4.86039">
        <ele>294.6</ele>
        <time>2020-06-07T09:46:49.000Z</time>
      </trkpt>
      <trkpt lat="45.86686" lon="4.86041">
        <ele>294.7</ele>
        <time>2020-06-07T09:46:50.000Z</time>
      </trkpt>
      <trkpt lat="45.86688" lon="4.86043">
        <ele>294.8</ele>
        <time>2020-06-07T09:46:51.000Z</time>
      </trkpt>
      <trkpt lat="45.86691" lon="4.86046">
        <ele>294.9</ele>
        <time>2020-06-07T09:46:52.000Z</time>
      </trkpt>
      <trkpt lat="45.86694" lon="4.86048">
        <ele>295.1</ele>
        <time>2020-06-07T09:46:53.000Z</time>
      </trkpt>
      <trkpt lat="45.86697" lon="4.86051">
        <ele>295.2</ele>
        <time>2020-06-07T09:46:54.000Z</time>
      </trkpt>
      <trkpt lat="45.867" lon="4.86054">
        <ele>295.2</ele>
        <time>2020-06-07T09:46:55.000Z</time>
      </trkpt>
      <trkpt lat="45.86703" lon="4.86056">
        <ele>295.3</ele>
        <time>2020-06-07T09:46:56.000Z</time>
      </trkpt>
      <trkpt lat="45.86706" lon="4.86059">
        <ele>295.4</ele>
        <time>2020-06-07T09:46:57.000Z</time>
      </trkpt>
      <trkpt lat="45.86709" lon="4.86061">
        <ele>295.5</ele>
        <time>2020-06-07T09:46:58.000Z</time>
      </trkpt>
      <trkpt lat="45.86712" lon="4.86063">
        <ele>295.6</ele>
        <time>2020-06-07T09:46:59.000Z</time>
      </trkpt>
      <trkpt lat="45.86715" lon="4.86066">
        <ele>295.7</ele>
        <time>2020-06-07T09:47:00.000Z</time>
      </trkpt>
      <trkpt lat="45.86717" lon="4.86069">
        <ele>295.7</ele>
        <time>2020-06-07T09:47:01.000Z</time>
      </trkpt>
      <trkpt lat="45.8672" lon="4.86072">
        <ele>295.8</ele>
        <time>2020-06-07T09:47:02.000Z</time>
      </trkpt>
      <trkpt lat="45.86723" lon="4.86075">
        <ele>295.9</ele>
        <time>2020-06-07T09:47:03.000Z</time>
      </trkpt>
      <trkpt lat="45.86726" lon="4.86077">
        <ele>296</ele>
        <time>2020-06-07T09:47:04.000Z</time>
      </trkpt>
      <trkpt lat="45.86729" lon="4.8608">
        <ele>296</ele>
        <time>2020-06-07T09:47:05.000Z</time>
      </trkpt>
      <trkpt lat="45.86732" lon="4.86083">
        <ele>296.1</ele>
        <time>2020-06-07T09:47:06.000Z</time>
      </trkpt>
      <trkpt lat="45.86735" lon="4.86086">
        <ele>296.1</ele>
        <time>2020-06-07T09:47:07.000Z</time>
      </trkpt>
      <trkpt lat="45.86739" lon="4.86088">
        <ele>296.2</ele>
        <time>2020-06-07T09:47:08.000Z</time>
      </trkpt>
      <trkpt lat="45.86742" lon="4.8609">
        <ele>296.2</ele>
        <time>2020-06-07T09:47:09.000Z</time>
      </trkpt>
      <trkpt lat="45.86746" lon="4.86092">
        <ele>296.2</ele>
        <time>2020-06-07T09:47:10.000Z</time>
      </trkpt>
      <trkpt lat="45.86749" lon="4.86094">
        <ele>296.2</ele>
        <time>2020-06-07T09:47:11.000Z</time>
      </trkpt>
      <trkpt lat="45.86753" lon="4.86096">
        <ele>296.2</ele>
        <time>2020-06-07T09:47:12.000Z</time>
      </trkpt>
      <trkpt lat="45.86757" lon="4.86097">
        <ele>296.2</ele>
        <time>2020-06-07T09:47:13.000Z</time>
      </trkpt>
      <trkpt lat="45.86761" lon="4.86098">
        <ele>296.2</ele>
        <time>2020-06-07T09:47:14.000Z</time>
      </trkpt>
      <trkpt lat="45.86765" lon="4.86099">
        <ele>296.2</ele>
        <time>2020-06-07T09:47:15.000Z</time>
      </trkpt>
      <trkpt lat="45.86769" lon="4.86101">
        <ele>296.2</ele>
        <time>2020-06-07T09:47:16.000Z</time>
      </trkpt>
      <trkpt lat="45.86773" lon="4.86102">
        <ele>296.1</ele>
        <time>2020-06-07T09:47:17.000Z</time>
      </trkpt>
      <trkpt lat="45.86777" lon="4.86103">
        <ele>296.1</ele>
        <time>2020-06-07T09:47:18.000Z</time>
      </trkpt>
      <trkpt lat="45.86781" lon="4.86103">
        <ele>296.1</ele>
        <time>2020-06-07T09:47:19.000Z</time>
      </trkpt>
      <trkpt lat="45.86786" lon="4.86104">
        <ele>296</ele>
        <time>2020-06-07T09:47:20.000Z</time>
      </trkpt>
      <trkpt lat="45.8679" lon="4.86104">
        <ele>295.9</ele>
        <time>2020-06-07T09:47:21.000Z</time>
      </trkpt>
      <trkpt lat="45.86794" lon="4.86104">
        <ele>295.8</ele>
        <time>2020-06-07T09:47:22.000Z</time>
      </trkpt>
      <trkpt lat="45.86798" lon="4.86104">
        <ele>295.8</ele>
        <time>2020-06-07T09:47:23.000Z</time>
      </trkpt>
      <trkpt lat="45.86802" lon="4.86104">
        <ele>295.7</ele>
        <time>2020-06-07T09:47:24.000Z</time>
      </trkpt>
      <trkpt lat="45.86807" lon="4.86104">
        <ele>295.7</ele>
        <time>2020-06-07T09:47:25.000Z</time>
      </trkpt>
      <trkpt lat="45.86812" lon="4.86104">
        <ele>295.6</ele>
        <time>2020-06-07T09:47:26.000Z</time>
      </trkpt>
      <trkpt lat="45.86817" lon="4.86104">
        <ele>295.6</ele>
        <time>2020-06-07T09:47:27.000Z</time>
      </trkpt>
      <trkpt lat="45.86822" lon="4.86103">
        <ele>295.6</ele>
        <time>2020-06-07T09:47:28.000Z</time>
      </trkpt>
      <trkpt lat="45.86827" lon="4.86103">
        <ele>295.6</ele>
        <time>2020-06-07T09:47:29.000Z</time>
      </trkpt>
      <trkpt lat="45.86832" lon="4.86102">
        <ele>295.6</ele>
        <time>2020-06-07T09:47:30.000Z</time>
      </trkpt>
      <trkpt lat="45.86837" lon="4.86102">
        <ele>295.6</ele>
        <time>2020-06-07T09:47:31.000Z</time>
      </trkpt>
      <trkpt lat="45.86842" lon="4.86102">
        <ele>295.6</ele>
        <time>2020-06-07T09:47:32.000Z</time>
      </trkpt>
      <trkpt lat="45.86847" lon="4.86102">
        <ele>295.6</ele>
        <time>2020-06-07T09:47:33.000Z</time>
      </trkpt>
      <trkpt lat="45.86852" lon="4.86102">
        <ele>295.6</ele>
        <time>2020-06-07T09:47:34.000Z</time>
      </trkpt>
      <trkpt lat="45.86857" lon="4.86102">
        <ele>295.6</ele>
        <time>2020-06-07T09:47:35.000Z</time>
      </trkpt>
      <trkpt lat="45.86862" lon="4.86102">
        <ele>295.6</ele>
        <time>2020-06-07T09:47:36.000Z</time>
      </trkpt>
      <trkpt lat="45.86866" lon="4.86102">
        <ele>295.6</ele>
        <time>2020-06-07T09:47:37.000Z</time>
      </trkpt>
      <trkpt lat="45.86871" lon="4.86102">
        <ele>295.6</ele>
        <time>2020-06-07T09:47:38.000Z</time>
      </trkpt>
      <trkpt lat="45.86876" lon="4.86102">
        <ele>295.7</ele>
        <time>2020-06-07T09:47:39.000Z</time>
      </trkpt>
      <trkpt lat="45.8688" lon="4.86102">
        <ele>295.7</ele>
        <time>2020-06-07T09:47:40.000Z</time>
      </trkpt>
      <trkpt lat="45.86885" lon="4.86103">
        <ele>295.7</ele>
        <time>2020-06-07T09:47:41.000Z</time>
      </trkpt>
      <trkpt lat="45.86889" lon="4.86103">
        <ele>295.7</ele>
        <time>2020-06-07T09:47:42.000Z</time>
      </trkpt>
      <trkpt lat="45.86894" lon="4.86104">
        <ele>295.7</ele>
        <time>2020-06-07T09:47:43.000Z</time>
      </trkpt>
      <trkpt lat="45.86899" lon="4.86105">
        <ele>295.8</ele>
        <time>2020-06-07T09:47:44.000Z</time>
      </trkpt>
      <trkpt lat="45.86904" lon="4.86107">
        <ele>295.8</ele>
        <time>2020-06-07T09:47:45.000Z</time>
      </trkpt>
      <trkpt lat="45.86909" lon="4.8611">
        <ele>295.8</ele>
        <time>2020-06-07T09:47:46.000Z</time>
      </trkpt>
      <trkpt lat="45.86914" lon="4.86113">
        <ele>295.8</ele>
        <time>2020-06-07T09:47:47.000Z</time>
      </trkpt>
      <trkpt lat="45.86919" lon="4.86116">
        <ele>295.9</ele>
        <time>2020-06-07T09:47:48.000Z</time>
      </trkpt>
      <trkpt lat="45.86923" lon="4.8612">
        <ele>296</ele>
        <time>2020-06-07T09:47:49.000Z</time>
      </trkpt>
      <trkpt lat="45.86928" lon="4.86124">
        <ele>296</ele>
        <time>2020-06-07T09:47:50.000Z</time>
      </trkpt>
      <trkpt lat="45.86932" lon="4.86128">
        <ele>296.1</ele>
        <time>2020-06-07T09:47:51.000Z</time>
      </trkpt>
      <trkpt lat="45.86935" lon="4.86133">
        <ele>296.1</ele>
        <time>2020-06-07T09:47:52.000Z</time>
      </trkpt>
      <trkpt lat="45.86939" lon="4.86138">
        <ele>296.1</ele>
        <time>2020-06-07T09:47:53.000Z</time>
      </trkpt>
      <trkpt lat="45.86942" lon="4.86144">
        <ele>296.1</ele>
        <time>2020-06-07T09:47:54.000Z</time>
      </trkpt>
      <trkpt lat="45.86945" lon="4.86149">
        <ele>296.1</ele>
        <time>2020-06-07T09:47:55.000Z</time>
      </trkpt>
      <trkpt lat="45.86948" lon="4.86154">
        <ele>296.1</ele>
        <time>2020-06-07T09:47:56.000Z</time>
      </trkpt>
      <trkpt lat="45.86951" lon="4.86159">
        <ele>296.1</ele>
        <time>2020-06-07T09:47:57.000Z</time>
      </trkpt>
      <trkpt lat="45.86954" lon="4.86163">
        <ele>296.1</ele>
        <time>2020-06-07T09:47:58.000Z</time>
      </trkpt>
      <trkpt lat="45.86957" lon="4.86169">
        <ele>296.1</ele>
        <time>2020-06-07T09:47:59.000Z</time>
      </trkpt>
      <trkpt lat="45.86961" lon="4.86173">
        <ele>296.2</ele>
        <time>2020-06-07T09:48:00.000Z</time>
      </trkpt>
      <trkpt lat="45.86964" lon="4.86177">
        <ele>296.2</ele>
        <time>2020-06-07T09:48:01.000Z</time>
      </trkpt>
      <trkpt lat="45.86969" lon="4.8618">
        <ele>296.2</ele>
        <time>2020-06-07T09:48:02.000Z</time>
      </trkpt>
      <trkpt lat="45.86973" lon="4.86181">
        <ele>296.2</ele>
        <time>2020-06-07T09:48:03.000Z</time>
      </trkpt>
      <trkpt lat="45.86978" lon="4.86182">
        <ele>296.2</ele>
        <time>2020-06-07T09:48:04.000Z</time>
      </trkpt>
      <trkpt lat="45.86982" lon="4.86182">
        <ele>296.2</ele>
        <time>2020-06-07T09:48:05.000Z</time>
      </trkpt>
      <trkpt lat="45.86987" lon="4.86183">
        <ele>296.2</ele>
        <time>2020-06-07T09:48:06.000Z</time>
      </trkpt>
      <trkpt lat="45.86992" lon="4.86182">
        <ele>296.2</ele>
        <time>2020-06-07T09:48:07.000Z</time>
      </trkpt>
      <trkpt lat="45.86997" lon="4.8618">
        <ele>296.2</ele>
        <time>2020-06-07T09:48:08.000Z</time>
      </trkpt>
      <trkpt lat="45.87001" lon="4.86177">
        <ele>296.2</ele>
        <time>2020-06-07T09:48:09.000Z</time>
      </trkpt>
      <trkpt lat="45.87006" lon="4.86175">
        <ele>296.2</ele>
        <time>2020-06-07T09:48:10.000Z</time>
      </trkpt>
      <trkpt lat="45.87011" lon="4.86172">
        <ele>296.2</ele>
        <time>2020-06-07T09:48:11.000Z</time>
      </trkpt>
      <trkpt lat="45.87015" lon="4.8617">
        <ele>296.2</ele>
        <time>2020-06-07T09:48:12.000Z</time>
      </trkpt>
      <trkpt lat="45.8702" lon="4.86168">
        <ele>296.2</ele>
        <time>2020-06-07T09:48:13.000Z</time>
      </trkpt>
      <trkpt lat="45.87025" lon="4.86166">
        <ele>296.2</ele>
        <time>2020-06-07T09:48:14.000Z</time>
      </trkpt>
      <trkpt lat="45.87029" lon="4.86163">
        <ele>296.2</ele>
        <time>2020-06-07T09:48:15.000Z</time>
      </trkpt>
      <trkpt lat="45.87033" lon="4.86161">
        <ele>296.2</ele>
        <time>2020-06-07T09:48:16.000Z</time>
      </trkpt>
      <trkpt lat="45.87038" lon="4.86158">
        <ele>296.2</ele>
        <time>2020-06-07T09:48:17.000Z</time>
      </trkpt>
      <trkpt lat="45.87042" lon="4.86156">
        <ele>296.2</ele>
        <time>2020-06-07T09:48:18.000Z</time>
      </trkpt>
      <trkpt lat="45.87045" lon="4.86153">
        <ele>296.2</ele>
        <time>2020-06-07T09:48:19.000Z</time>
      </trkpt>
      <trkpt lat="45.87049" lon="4.86151">
        <ele>296.3</ele>
        <time>2020-06-07T09:48:20.000Z</time>
      </trkpt>
      <trkpt lat="45.87053" lon="4.86149">
        <ele>296.3</ele>
        <time>2020-06-07T09:48:21.000Z</time>
      </trkpt>
      <trkpt lat="45.87057" lon="4.86147">
        <ele>296.3</ele>
        <time>2020-06-07T09:48:22.000Z</time>
      </trkpt>
      <trkpt lat="45.87061" lon="4.86145">
        <ele>296.4</ele>
        <time>2020-06-07T09:48:23.000Z</time>
      </trkpt>
      <trkpt lat="45.87065" lon="4.86143">
        <ele>296.4</ele>
        <time>2020-06-07T09:48:24.000Z</time>
      </trkpt>
      <trkpt lat="45.87069" lon="4.86142">
        <ele>296.4</ele>
        <time>2020-06-07T09:48:25.000Z</time>
      </trkpt>
      <trkpt lat="45.87074" lon="4.86141">
        <ele>296.5</ele>
        <time>2020-06-07T09:48:26.000Z</time>
      </trkpt>
      <trkpt lat="45.87078" lon="4.86139">
        <ele>296.5</ele>
        <time>2020-06-07T09:48:27.000Z</time>
      </trkpt>
      <trkpt lat="45.87082" lon="4.86137">
        <ele>296.6</ele>
        <time>2020-06-07T09:48:28.000Z</time>
      </trkpt>
      <trkpt lat="45.87086" lon="4.86134">
        <ele>296.6</ele>
        <time>2020-06-07T09:48:29.000Z</time>
      </trkpt>
      <trkpt lat="45.8709" lon="4.86133">
        <ele>296.7</ele>
        <time>2020-06-07T09:48:30.000Z</time>
      </trkpt>
      <trkpt lat="45.87094" lon="4.86131">
        <ele>296.8</ele>
        <time>2020-06-07T09:48:31.000Z</time>
      </trkpt>
      <trkpt lat="45.87099" lon="4.86129">
        <ele>296.9</ele>
        <time>2020-06-07T09:48:32.000Z</time>
      </trkpt>
      <trkpt lat="45.87103" lon="4.86127">
        <ele>297</ele>
        <time>2020-06-07T09:48:33.000Z</time>
      </trkpt>
      <trkpt lat="45.87108" lon="4.86125">
        <ele>297.1</ele>
        <time>2020-06-07T09:48:34.000Z</time>
      </trkpt>
      <trkpt lat="45.87112" lon="4.86124">
        <ele>297.2</ele>
        <time>2020-06-07T09:48:35.000Z</time>
      </trkpt>
      <trkpt lat="45.87116" lon="4.86122">
        <ele>297.3</ele>
        <time>2020-06-07T09:48:36.000Z</time>
      </trkpt>
      <trkpt lat="45.87121" lon="4.8612">
        <ele>297.4</ele>
        <time>2020-06-07T09:48:37.000Z</time>
      </trkpt>
      <trkpt lat="45.87125" lon="4.86118">
        <ele>297.5</ele>
        <time>2020-06-07T09:48:38.000Z</time>
      </trkpt>
      <trkpt lat="45.87129" lon="4.86116">
        <ele>297.6</ele>
        <time>2020-06-07T09:48:39.000Z</time>
      </trkpt>
      <trkpt lat="45.87133" lon="4.86115">
        <ele>297.7</ele>
        <time>2020-06-07T09:48:40.000Z</time>
      </trkpt>
      <trkpt lat="45.87137" lon="4.86113">
        <ele>297.8</ele>
        <time>2020-06-07T09:48:41.000Z</time>
      </trkpt>
      <trkpt lat="45.87142" lon="4.86112">
        <ele>297.8</ele>
        <time>2020-06-07T09:48:42.000Z</time>
      </trkpt>
      <trkpt lat="45.87146" lon="4.86111">
        <ele>297.9</ele>
        <time>2020-06-07T09:48:43.000Z</time>
      </trkpt>
      <trkpt lat="45.87151" lon="4.8611">
        <ele>298</ele>
        <time>2020-06-07T09:48:44.000Z</time>
      </trkpt>
      <trkpt lat="45.87155" lon="4.86109">
        <ele>298</ele>
        <time>2020-06-07T09:48:45.000Z</time>
      </trkpt>
      <trkpt lat="45.8716" lon="4.86109">
        <ele>298.1</ele>
        <time>2020-06-07T09:48:46.000Z</time>
      </trkpt>
      <trkpt lat="45.87165" lon="4.86109">
        <ele>298.2</ele>
        <time>2020-06-07T09:48:47.000Z</time>
      </trkpt>
      <trkpt lat="45.87169" lon="4.8611">
        <ele>298.2</ele>
        <time>2020-06-07T09:48:48.000Z</time>
      </trkpt>
      <trkpt lat="45.87174" lon="4.86111">
        <ele>298.2</ele>
        <time>2020-06-07T09:48:49.000Z</time>
      </trkpt>
      <trkpt lat="45.87178" lon="4.86113">
        <ele>298.3</ele>
        <time>2020-06-07T09:48:50.000Z</time>
      </trkpt>
      <trkpt lat="45.87182" lon="4.86115">
        <ele>298.3</ele>
        <time>2020-06-07T09:48:51.000Z</time>
      </trkpt>
      <trkpt lat="45.87186" lon="4.86116">
        <ele>298.4</ele>
        <time>2020-06-07T09:48:52.000Z</time>
      </trkpt>
      <trkpt lat="45.87191" lon="4.86118">
        <ele>298.5</ele>
        <time>2020-06-07T09:48:53.000Z</time>
      </trkpt>
      <trkpt lat="45.87195" lon="4.86119">
        <ele>298.6</ele>
        <time>2020-06-07T09:48:54.000Z</time>
      </trkpt>
      <trkpt lat="45.87199" lon="4.8612">
        <ele>298.7</ele>
        <time>2020-06-07T09:48:55.000Z</time>
      </trkpt>
      <trkpt lat="45.87204" lon="4.86121">
        <ele>298.7</ele>
        <time>2020-06-07T09:48:56.000Z</time>
      </trkpt>
      <trkpt lat="45.87208" lon="4.86122">
        <ele>298.7</ele>
        <time>2020-06-07T09:48:57.000Z</time>
      </trkpt>
      <trkpt lat="45.87213" lon="4.86122">
        <ele>298.7</ele>
        <time>2020-06-07T09:48:58.000Z</time>
      </trkpt>
      <trkpt lat="45.87217" lon="4.86122">
        <ele>298.6</ele>
        <time>2020-06-07T09:48:59.000Z</time>
      </trkpt>
      <trkpt lat="45.87222" lon="4.86122">
        <ele>298.6</ele>
        <time>2020-06-07T09:49:00.000Z</time>
      </trkpt>
      <trkpt lat="45.87226" lon="4.86122">
        <ele>298.5</ele>
        <time>2020-06-07T09:49:01.000Z</time>
      </trkpt>
      <trkpt lat="45.87231" lon="4.86121">
        <ele>298.4</ele>
        <time>2020-06-07T09:49:02.000Z</time>
      </trkpt>
      <trkpt lat="45.87235" lon="4.86121">
        <ele>298.3</ele>
        <time>2020-06-07T09:49:03.000Z</time>
      </trkpt>
      <trkpt lat="45.87239" lon="4.8612">
        <ele>298.2</ele>
        <time>2020-06-07T09:49:04.000Z</time>
      </trkpt>
      <trkpt lat="45.87244" lon="4.8612">
        <ele>298.1</ele>
        <time>2020-06-07T09:49:05.000Z</time>
      </trkpt>
      <trkpt lat="45.87249" lon="4.86119">
        <ele>298</ele>
        <time>2020-06-07T09:49:06.000Z</time>
      </trkpt>
      <trkpt lat="45.87254" lon="4.86119">
        <ele>298</ele>
        <time>2020-06-07T09:49:07.000Z</time>
      </trkpt>
      <trkpt lat="45.87259" lon="4.86119">
        <ele>297.9</ele>
        <time>2020-06-07T09:49:08.000Z</time>
      </trkpt>
      <trkpt lat="45.87264" lon="4.86119">
        <ele>297.8</ele>
        <time>2020-06-07T09:49:09.000Z</time>
      </trkpt>
      <trkpt lat="45.8727" lon="4.86119">
        <ele>297.7</ele>
        <time>2020-06-07T09:49:10.000Z</time>
      </trkpt>
      <trkpt lat="45.87275" lon="4.86119">
        <ele>297.6</ele>
        <time>2020-06-07T09:49:11.000Z</time>
      </trkpt>
      <trkpt lat="45.8728" lon="4.86119">
        <ele>297.5</ele>
        <time>2020-06-07T09:49:12.000Z</time>
      </trkpt>
      <trkpt lat="45.87285" lon="4.86119">
        <ele>297.4</ele>
        <time>2020-06-07T09:49:13.000Z</time>
      </trkpt>
      <trkpt lat="45.87291" lon="4.86119">
        <ele>297.3</ele>
        <time>2020-06-07T09:49:14.000Z</time>
      </trkpt>
      <trkpt lat="45.87296" lon="4.86119">
        <ele>297.2</ele>
        <time>2020-06-07T09:49:15.000Z</time>
      </trkpt>
      <trkpt lat="45.87301" lon="4.8612">
        <ele>297.1</ele>
        <time>2020-06-07T09:49:16.000Z</time>
      </trkpt>
      <trkpt lat="45.87306" lon="4.8612">
        <ele>297.1</ele>
        <time>2020-06-07T09:49:17.000Z</time>
      </trkpt>
      <trkpt lat="45.87311" lon="4.8612">
        <ele>297</ele>
        <time>2020-06-07T09:49:18.000Z</time>
      </trkpt>
      <trkpt lat="45.87316" lon="4.86121">
        <ele>297</ele>
        <time>2020-06-07T09:49:19.000Z</time>
      </trkpt>
      <trkpt lat="45.87322" lon="4.86122">
        <ele>297</ele>
        <time>2020-06-07T09:49:20.000Z</time>
      </trkpt>
      <trkpt lat="45.87327" lon="4.86124">
        <ele>297</ele>
        <time>2020-06-07T09:49:21.000Z</time>
      </trkpt>
      <trkpt lat="45.87333" lon="4.86126">
        <ele>296.9</ele>
        <time>2020-06-07T09:49:22.000Z</time>
      </trkpt>
      <trkpt lat="45.87338" lon="4.86129">
        <ele>296.9</ele>
        <time>2020-06-07T09:49:23.000Z</time>
      </trkpt>
      <trkpt lat="45.87344" lon="4.86132">
        <ele>296.8</ele>
        <time>2020-06-07T09:49:24.000Z</time>
      </trkpt>
      <trkpt lat="45.87349" lon="4.86136">
        <ele>296.8</ele>
        <time>2020-06-07T09:49:25.000Z</time>
      </trkpt>
      <trkpt lat="45.87355" lon="4.8614">
        <ele>296.7</ele>
        <time>2020-06-07T09:49:26.000Z</time>
      </trkpt>
      <trkpt lat="45.8736" lon="4.86144">
        <ele>296.6</ele>
        <time>2020-06-07T09:49:27.000Z</time>
      </trkpt>
      <trkpt lat="45.87365" lon="4.86148">
        <ele>296.6</ele>
        <time>2020-06-07T09:49:28.000Z</time>
      </trkpt>
      <trkpt lat="45.8737" lon="4.86152">
        <ele>296.5</ele>
        <time>2020-06-07T09:49:29.000Z</time>
      </trkpt>
      <trkpt lat="45.87376" lon="4.86156">
        <ele>296.5</ele>
        <time>2020-06-07T09:49:30.000Z</time>
      </trkpt>
      <trkpt lat="45.87381" lon="4.8616">
        <ele>296.5</ele>
        <time>2020-06-07T09:49:31.000Z</time>
      </trkpt>
      <trkpt lat="45.87385" lon="4.86165">
        <ele>296.5</ele>
        <time>2020-06-07T09:49:32.000Z</time>
      </trkpt>
      <trkpt lat="45.8739" lon="4.8617">
        <ele>296.5</ele>
        <time>2020-06-07T09:49:33.000Z</time>
      </trkpt>
      <trkpt lat="45.87395" lon="4.86173">
        <ele>296.6</ele>
        <time>2020-06-07T09:49:34.000Z</time>
      </trkpt>
      <trkpt lat="45.874" lon="4.86176">
        <ele>296.7</ele>
        <time>2020-06-07T09:49:35.000Z</time>
      </trkpt>
      <trkpt lat="45.87406" lon="4.86178">
        <ele>296.8</ele>
        <time>2020-06-07T09:49:36.000Z</time>
      </trkpt>
      <trkpt lat="45.87411" lon="4.8618">
        <ele>297</ele>
        <time>2020-06-07T09:49:37.000Z</time>
      </trkpt>
      <trkpt lat="45.87416" lon="4.86182">
        <ele>297.2</ele>
        <time>2020-06-07T09:49:38.000Z</time>
      </trkpt>
      <trkpt lat="45.87422" lon="4.86182">
        <ele>297.4</ele>
        <time>2020-06-07T09:49:39.000Z</time>
      </trkpt>
      <trkpt lat="45.87427" lon="4.86183">
        <ele>297.5</ele>
        <time>2020-06-07T09:49:40.000Z</time>
      </trkpt>
      <trkpt lat="45.87432" lon="4.86183">
        <ele>297.7</ele>
        <time>2020-06-07T09:49:41.000Z</time>
      </trkpt>
      <trkpt lat="45.87437" lon="4.86183">
        <ele>297.9</ele>
        <time>2020-06-07T09:49:42.000Z</time>
      </trkpt>
      <trkpt lat="45.87442" lon="4.86184">
        <ele>298</ele>
        <time>2020-06-07T09:49:43.000Z</time>
      </trkpt>
      <trkpt lat="45.87447" lon="4.86183">
        <ele>298.2</ele>
        <time>2020-06-07T09:49:44.000Z</time>
      </trkpt>
      <trkpt lat="45.87452" lon="4.86184">
        <ele>298.3</ele>
        <time>2020-06-07T09:49:45.000Z</time>
      </trkpt>
      <trkpt lat="45.87456" lon="4.86183">
        <ele>298.5</ele>
        <time>2020-06-07T09:49:46.000Z</time>
      </trkpt>
      <trkpt lat="45.87461" lon="4.86183">
        <ele>298.6</ele>
        <time>2020-06-07T09:49:47.000Z</time>
      </trkpt>
      <trkpt lat="45.87465" lon="4.86182">
        <ele>298.8</ele>
        <time>2020-06-07T09:49:48.000Z</time>
      </trkpt>
      <trkpt lat="45.8747" lon="4.86182">
        <ele>298.9</ele>
        <time>2020-06-07T09:49:49.000Z</time>
      </trkpt>
      <trkpt lat="45.87474" lon="4.86182">
        <ele>299.1</ele>
        <time>2020-06-07T09:49:50.000Z</time>
      </trkpt>
      <trkpt lat="45.87479" lon="4.86181">
        <ele>299.2</ele>
        <time>2020-06-07T09:49:51.000Z</time>
      </trkpt>
      <trkpt lat="45.87484" lon="4.86181">
        <ele>299.2</ele>
        <time>2020-06-07T09:49:52.000Z</time>
      </trkpt>
      <trkpt lat="45.87489" lon="4.8618">
        <ele>299.3</ele>
        <time>2020-06-07T09:49:53.000Z</time>
      </trkpt>
      <trkpt lat="45.87493" lon="4.86179">
        <ele>299.3</ele>
        <time>2020-06-07T09:49:54.000Z</time>
      </trkpt>
      <trkpt lat="45.87498" lon="4.86178">
        <ele>299.2</ele>
        <time>2020-06-07T09:49:55.000Z</time>
      </trkpt>
      <trkpt lat="45.87503" lon="4.86178">
        <ele>299.2</ele>
        <time>2020-06-07T09:49:56.000Z</time>
      </trkpt>
      <trkpt lat="45.87508" lon="4.86177">
        <ele>299.2</ele>
        <time>2020-06-07T09:49:57.000Z</time>
      </trkpt>
      <trkpt lat="45.87513" lon="4.86177">
        <ele>299.2</ele>
        <time>2020-06-07T09:49:58.000Z</time>
      </trkpt>
      <trkpt lat="45.87518" lon="4.86176">
        <ele>299.1</ele>
        <time>2020-06-07T09:49:59.000Z</time>
      </trkpt>
      <trkpt lat="45.87523" lon="4.86175">
        <ele>299</ele>
        <time>2020-06-07T09:50:00.000Z</time>
      </trkpt>
      <trkpt lat="45.87528" lon="4.86175">
        <ele>298.9</ele>
        <time>2020-06-07T09:50:01.000Z</time>
      </trkpt>
      <trkpt lat="45.87533" lon="4.86174">
        <ele>298.8</ele>
        <time>2020-06-07T09:50:02.000Z</time>
      </trkpt>
      <trkpt lat="45.87538" lon="4.86173">
        <ele>298.7</ele>
        <time>2020-06-07T09:50:03.000Z</time>
      </trkpt>
      <trkpt lat="45.87543" lon="4.86173">
        <ele>298.6</ele>
        <time>2020-06-07T09:50:04.000Z</time>
      </trkpt>
      <trkpt lat="45.87549" lon="4.86172">
        <ele>298.5</ele>
        <time>2020-06-07T09:50:05.000Z</time>
      </trkpt>
      <trkpt lat="45.87553" lon="4.86172">
        <ele>298.4</ele>
        <time>2020-06-07T09:50:06.000Z</time>
      </trkpt>
      <trkpt lat="45.87558" lon="4.86172">
        <ele>298.3</ele>
        <time>2020-06-07T09:50:07.000Z</time>
      </trkpt>
      <trkpt lat="45.87564" lon="4.86172">
        <ele>298.2</ele>
        <time>2020-06-07T09:50:08.000Z</time>
      </trkpt>
      <trkpt lat="45.87569" lon="4.86171">
        <ele>298.2</ele>
        <time>2020-06-07T09:50:09.000Z</time>
      </trkpt>
      <trkpt lat="45.87574" lon="4.86171">
        <ele>298.1</ele>
        <time>2020-06-07T09:50:10.000Z</time>
      </trkpt>
      <trkpt lat="45.87579" lon="4.8617">
        <ele>298</ele>
        <time>2020-06-07T09:50:11.000Z</time>
      </trkpt>
      <trkpt lat="45.87585" lon="4.86169">
        <ele>297.9</ele>
        <time>2020-06-07T09:50:12.000Z</time>
      </trkpt>
      <trkpt lat="45.8759" lon="4.86168">
        <ele>297.9</ele>
        <time>2020-06-07T09:50:13.000Z</time>
      </trkpt>
      <trkpt lat="45.87595" lon="4.86167">
        <ele>297.9</ele>
        <time>2020-06-07T09:50:14.000Z</time>
      </trkpt>
      <trkpt lat="45.876" lon="4.86166">
        <ele>297.9</ele>
        <time>2020-06-07T09:50:15.000Z</time>
      </trkpt>
      <trkpt lat="45.87605" lon="4.86166">
        <ele>297.8</ele>
        <time>2020-06-07T09:50:16.000Z</time>
      </trkpt>
      <trkpt lat="45.8761" lon="4.86165">
        <ele>297.8</ele>
        <time>2020-06-07T09:50:17.000Z</time>
      </trkpt>
      <trkpt lat="45.87615" lon="4.86164">
        <ele>297.7</ele>
        <time>2020-06-07T09:50:18.000Z</time>
      </trkpt>
      <trkpt lat="45.8762" lon="4.86164">
        <ele>297.7</ele>
        <time>2020-06-07T09:50:19.000Z</time>
      </trkpt>
      <trkpt lat="45.87624" lon="4.86165">
        <ele>297.6</ele>
        <time>2020-06-07T09:50:20.000Z</time>
      </trkpt>
      <trkpt lat="45.87629" lon="4.86165">
        <ele>297.6</ele>
        <time>2020-06-07T09:50:21.000Z</time>
      </trkpt>
      <trkpt lat="45.87634" lon="4.86165">
        <ele>297.5</ele>
        <time>2020-06-07T09:50:22.000Z</time>
      </trkpt>
      <trkpt lat="45.87639" lon="4.86167">
        <ele>297.5</ele>
        <time>2020-06-07T09:50:23.000Z</time>
      </trkpt>
      <trkpt lat="45.87642" lon="4.8617">
        <ele>297.7</ele>
        <time>2020-06-07T09:50:24.000Z</time>
      </trkpt>
      <trkpt lat="45.87644" lon="4.86176">
        <ele>297.8</ele>
        <time>2020-06-07T09:50:25.000Z</time>
      </trkpt>
      <trkpt lat="45.87646" lon="4.86182">
        <ele>298</ele>
        <time>2020-06-07T09:50:26.000Z</time>
      </trkpt>
      <trkpt lat="45.87647" lon="4.86188">
        <ele>298.2</ele>
        <time>2020-06-07T09:50:27.000Z</time>
      </trkpt>
      <trkpt lat="45.87648" lon="4.86194">
        <ele>298.4</ele>
        <time>2020-06-07T09:50:28.000Z</time>
      </trkpt>
      <trkpt lat="45.87648" lon="4.862">
        <ele>298.7</ele>
        <time>2020-06-07T09:50:29.000Z</time>
      </trkpt>
      <trkpt lat="45.87649" lon="4.86207">
        <ele>298.9</ele>
        <time>2020-06-07T09:50:30.000Z</time>
      </trkpt>
      <trkpt lat="45.87649" lon="4.86213">
        <ele>299.2</ele>
        <time>2020-06-07T09:50:31.000Z</time>
      </trkpt>
      <trkpt lat="45.8765" lon="4.8622">
        <ele>299.5</ele>
        <time>2020-06-07T09:50:32.000Z</time>
      </trkpt>
      <trkpt lat="45.8765" lon="4.86226">
        <ele>299.9</ele>
        <time>2020-06-07T09:50:33.000Z</time>
      </trkpt>
      <trkpt lat="45.8765" lon="4.86232">
        <ele>300.2</ele>
        <time>2020-06-07T09:50:34.000Z</time>
      </trkpt>
      <trkpt lat="45.87651" lon="4.86238">
        <ele>300.5</ele>
        <time>2020-06-07T09:50:35.000Z</time>
      </trkpt>
      <trkpt lat="45.87651" lon="4.86244">
        <ele>300.9</ele>
        <time>2020-06-07T09:50:36.000Z</time>
      </trkpt>
      <trkpt lat="45.87652" lon="4.8625">
        <ele>301.2</ele>
        <time>2020-06-07T09:50:37.000Z</time>
      </trkpt>
      <trkpt lat="45.87652" lon="4.86256">
        <ele>301.5</ele>
        <time>2020-06-07T09:50:38.000Z</time>
      </trkpt>
      <trkpt lat="45.87653" lon="4.86262">
        <ele>301.9</ele>
        <time>2020-06-07T09:50:39.000Z</time>
      </trkpt>
      <trkpt lat="45.87654" lon="4.86268">
        <ele>302.2</ele>
        <time>2020-06-07T09:50:40.000Z</time>
      </trkpt>
      <trkpt lat="45.87655" lon="4.86273">
        <ele>302.5</ele>
        <time>2020-06-07T09:50:41.000Z</time>
      </trkpt>
      <trkpt lat="45.87655" lon="4.86279">
        <ele>302.8</ele>
        <time>2020-06-07T09:50:42.000Z</time>
      </trkpt>
      <trkpt lat="45.87656" lon="4.86284">
        <ele>303.1</ele>
        <time>2020-06-07T09:50:43.000Z</time>
      </trkpt>
      <trkpt lat="45.87655" lon="4.86288">
        <ele>303.3</ele>
        <time>2020-06-07T09:50:44.000Z</time>
      </trkpt>
      <trkpt lat="45.87654" lon="4.86293">
        <ele>303.7</ele>
        <time>2020-06-07T09:50:45.000Z</time>
      </trkpt>
      <trkpt lat="45.87653" lon="4.86297">
        <ele>303.7</ele>
        <time>2020-06-07T09:50:46.000Z</time>
      </trkpt>
      <trkpt lat="45.87653" lon="4.86302">
        <ele>303.8</ele>
        <time>2020-06-07T09:50:47.000Z</time>
      </trkpt>
      <trkpt lat="45.87652" lon="4.86307">
        <ele>303.9</ele>
        <time>2020-06-07T09:50:48.000Z</time>
      </trkpt>
      <trkpt lat="45.87652" lon="4.86312">
        <ele>304</ele>
        <time>2020-06-07T09:50:49.000Z</time>
      </trkpt>
      <trkpt lat="45.87651" lon="4.86318">
        <ele>304.1</ele>
        <time>2020-06-07T09:50:50.000Z</time>
      </trkpt>
      <trkpt lat="45.87651" lon="4.86323">
        <ele>304.1</ele>
        <time>2020-06-07T09:50:51.000Z</time>
      </trkpt>
      <trkpt lat="45.87654" lon="4.8633">
        <ele>304.2</ele>
        <time>2020-06-07T09:50:52.000Z</time>
      </trkpt>
      <trkpt lat="45.87655" lon="4.86336">
        <ele>304.2</ele>
        <time>2020-06-07T09:50:53.000Z</time>
      </trkpt>
      <trkpt lat="45.87656" lon="4.86342">
        <ele>304.2</ele>
        <time>2020-06-07T09:50:54.000Z</time>
      </trkpt>
      <trkpt lat="45.87656" lon="4.86349">
        <ele>304.2</ele>
        <time>2020-06-07T09:50:55.000Z</time>
      </trkpt>
      <trkpt lat="45.87656" lon="4.86355">
        <ele>304.2</ele>
        <time>2020-06-07T09:50:56.000Z</time>
      </trkpt>
      <trkpt lat="45.87656" lon="4.86361">
        <ele>304.1</ele>
        <time>2020-06-07T09:50:57.000Z</time>
      </trkpt>
      <trkpt lat="45.87657" lon="4.86368">
        <ele>304.1</ele>
        <time>2020-06-07T09:50:58.000Z</time>
      </trkpt>
      <trkpt lat="45.87657" lon="4.86374">
        <ele>304</ele>
        <time>2020-06-07T09:50:59.000Z</time>
      </trkpt>
      <trkpt lat="45.87658" lon="4.86381">
        <ele>303.8</ele>
        <time>2020-06-07T09:51:00.000Z</time>
      </trkpt>
      <trkpt lat="45.87658" lon="4.86388">
        <ele>303.6</ele>
        <time>2020-06-07T09:51:01.000Z</time>
      </trkpt>
      <trkpt lat="45.87658" lon="4.86395">
        <ele>303.4</ele>
        <time>2020-06-07T09:51:02.000Z</time>
      </trkpt>
      <trkpt lat="45.87658" lon="4.86403">
        <ele>303.1</ele>
        <time>2020-06-07T09:51:03.000Z</time>
      </trkpt>
      <trkpt lat="45.87659" lon="4.86412">
        <ele>302.8</ele>
        <time>2020-06-07T09:51:04.000Z</time>
      </trkpt>
      <trkpt lat="45.8766" lon="4.8642">
        <ele>302.5</ele>
        <time>2020-06-07T09:51:05.000Z</time>
      </trkpt>
      <trkpt lat="45.87661" lon="4.86429">
        <ele>302.2</ele>
        <time>2020-06-07T09:51:06.000Z</time>
      </trkpt>
      <trkpt lat="45.87663" lon="4.86438">
        <ele>301.9</ele>
        <time>2020-06-07T09:51:07.000Z</time>
      </trkpt>
      <trkpt lat="45.87663" lon="4.86448">
        <ele>301.5</ele>
        <time>2020-06-07T09:51:08.000Z</time>
      </trkpt>
      <trkpt lat="45.87663" lon="4.86458">
        <ele>301.2</ele>
        <time>2020-06-07T09:51:09.000Z</time>
      </trkpt>
      <trkpt lat="45.87664" lon="4.86467">
        <ele>300.9</ele>
        <time>2020-06-07T09:51:10.000Z</time>
      </trkpt>
      <trkpt lat="45.87664" lon="4.86478">
        <ele>300.5</ele>
        <time>2020-06-07T09:51:11.000Z</time>
      </trkpt>
      <trkpt lat="45.87664" lon="4.86488">
        <ele>300.2</ele>
        <time>2020-06-07T09:51:12.000Z</time>
      </trkpt>
      <trkpt lat="45.87663" lon="4.86499">
        <ele>299.9</ele>
        <time>2020-06-07T09:51:13.000Z</time>
      </trkpt>
      <trkpt lat="45.87663" lon="4.8651">
        <ele>299.4</ele>
        <time>2020-06-07T09:51:14.000Z</time>
      </trkpt>
      <trkpt lat="45.87663" lon="4.8652">
        <ele>299</ele>
        <time>2020-06-07T09:51:15.000Z</time>
      </trkpt>
      <trkpt lat="45.87664" lon="4.86531">
        <ele>298.6</ele>
        <time>2020-06-07T09:51:16.000Z</time>
      </trkpt>
      <trkpt lat="45.87664" lon="4.86542">
        <ele>298.3</ele>
        <time>2020-06-07T09:51:17.000Z</time>
      </trkpt>
      <trkpt lat="45.87665" lon="4.86553">
        <ele>298</ele>
        <time>2020-06-07T09:51:18.000Z</time>
      </trkpt>
      <trkpt lat="45.87666" lon="4.86564">
        <ele>297.7</ele>
        <time>2020-06-07T09:51:19.000Z</time>
      </trkpt>
      <trkpt lat="45.87668" lon="4.86576">
        <ele>297.4</ele>
        <time>2020-06-07T09:51:20.000Z</time>
      </trkpt>
      <trkpt lat="45.87669" lon="4.86588">
        <ele>297</ele>
        <time>2020-06-07T09:51:21.000Z</time>
      </trkpt>
      <trkpt lat="45.8767" lon="4.866">
        <ele>296.4</ele>
        <time>2020-06-07T09:51:22.000Z</time>
      </trkpt>
      <trkpt lat="45.87671" lon="4.86612">
        <ele>295.9</ele>
        <time>2020-06-07T09:51:23.000Z</time>
      </trkpt>
      <trkpt lat="45.87673" lon="4.86624">
        <ele>295.5</ele>
        <time>2020-06-07T09:51:24.000Z</time>
      </trkpt>
      <trkpt lat="45.87674" lon="4.86636">
        <ele>295</ele>
        <time>2020-06-07T09:51:25.000Z</time>
      </trkpt>
      <trkpt lat="45.87677" lon="4.8665">
        <ele>294.5</ele>
        <time>2020-06-07T09:51:26.000Z</time>
      </trkpt>
      <trkpt lat="45.87681" lon="4.86663">
        <ele>294.1</ele>
        <time>2020-06-07T09:51:27.000Z</time>
      </trkpt>
      <trkpt lat="45.87685" lon="4.86675">
        <ele>293.9</ele>
        <time>2020-06-07T09:51:28.000Z</time>
      </trkpt>
      <trkpt lat="45.87689" lon="4.86687">
        <ele>293.6</ele>
        <time>2020-06-07T09:51:29.000Z</time>
      </trkpt>
      <trkpt lat="45.87692" lon="4.86699">
        <ele>293.4</ele>
        <time>2020-06-07T09:51:30.000Z</time>
      </trkpt>
      <trkpt lat="45.87695" lon="4.8671">
        <ele>293.2</ele>
        <time>2020-06-07T09:51:31.000Z</time>
      </trkpt>
      <trkpt lat="45.87699" lon="4.86722">
        <ele>293</ele>
        <time>2020-06-07T09:51:32.000Z</time>
      </trkpt>
      <trkpt lat="45.87702" lon="4.86733">
        <ele>292.8</ele>
        <time>2020-06-07T09:51:33.000Z</time>
      </trkpt>
      <trkpt lat="45.87705" lon="4.86744">
        <ele>292.6</ele>
        <time>2020-06-07T09:51:34.000Z</time>
      </trkpt>
      <trkpt lat="45.87708" lon="4.86755">
        <ele>292.5</ele>
        <time>2020-06-07T09:51:35.000Z</time>
      </trkpt>
      <trkpt lat="45.87712" lon="4.86766">
        <ele>292.3</ele>
        <time>2020-06-07T09:51:36.000Z</time>
      </trkpt>
      <trkpt lat="45.87715" lon="4.86776">
        <ele>292.2</ele>
        <time>2020-06-07T09:51:37.000Z</time>
      </trkpt>
      <trkpt lat="45.8772" lon="4.86786">
        <ele>292</ele>
        <time>2020-06-07T09:51:38.000Z</time>
      </trkpt>
      <trkpt lat="45.87724" lon="4.86795">
        <ele>291.9</ele>
        <time>2020-06-07T09:51:39.000Z</time>
      </trkpt>
      <trkpt lat="45.87729" lon="4.86803">
        <ele>291.8</ele>
        <time>2020-06-07T09:51:40.000Z</time>
      </trkpt>
      <trkpt lat="45.87733" lon="4.86811">
        <ele>291.7</ele>
        <time>2020-06-07T09:51:41.000Z</time>
      </trkpt>
      <trkpt lat="45.87737" lon="4.8682">
        <ele>291.6</ele>
        <time>2020-06-07T09:51:42.000Z</time>
      </trkpt>
      <trkpt lat="45.87741" lon="4.86827">
        <ele>291.6</ele>
        <time>2020-06-07T09:51:43.000Z</time>
      </trkpt>
      <trkpt lat="45.87745" lon="4.86834">
        <ele>291.6</ele>
        <time>2020-06-07T09:51:44.000Z</time>
      </trkpt>
      <trkpt lat="45.87749" lon="4.8684">
        <ele>291.6</ele>
        <time>2020-06-07T09:51:45.000Z</time>
      </trkpt>
      <trkpt lat="45.87752" lon="4.86846">
        <ele>291.6</ele>
        <time>2020-06-07T09:51:46.000Z</time>
      </trkpt>
      <trkpt lat="45.87755" lon="4.86851">
        <ele>291.6</ele>
        <time>2020-06-07T09:51:47.000Z</time>
      </trkpt>
      <trkpt lat="45.87759" lon="4.86856">
        <ele>291.7</ele>
        <time>2020-06-07T09:51:48.000Z</time>
      </trkpt>
      <trkpt lat="45.87763" lon="4.86861">
        <ele>291.7</ele>
        <time>2020-06-07T09:51:49.000Z</time>
      </trkpt>
      <trkpt lat="45.87766" lon="4.86865">
        <ele>291.8</ele>
        <time>2020-06-07T09:51:50.000Z</time>
      </trkpt>
      <trkpt lat="45.8777" lon="4.8687">
        <ele>291.9</ele>
        <time>2020-06-07T09:51:51.000Z</time>
      </trkpt>
      <trkpt lat="45.87774" lon="4.86875">
        <ele>291.9</ele>
        <time>2020-06-07T09:51:52.000Z</time>
      </trkpt>
      <trkpt lat="45.87777" lon="4.8688">
        <ele>292</ele>
        <time>2020-06-07T09:51:53.000Z</time>
      </trkpt>
      <trkpt lat="45.87781" lon="4.86885">
        <ele>292.1</ele>
        <time>2020-06-07T09:51:54.000Z</time>
      </trkpt>
      <trkpt lat="45.87784" lon="4.86889">
        <ele>292.2</ele>
        <time>2020-06-07T09:51:55.000Z</time>
      </trkpt>
      <trkpt lat="45.87787" lon="4.86893">
        <ele>292.3</ele>
        <time>2020-06-07T09:51:56.000Z</time>
      </trkpt>
      <trkpt lat="45.87791" lon="4.86897">
        <ele>292.4</ele>
        <time>2020-06-07T09:51:57.000Z</time>
      </trkpt>
      <trkpt lat="45.87794" lon="4.86902">
        <ele>292.5</ele>
        <time>2020-06-07T09:51:58.000Z</time>
      </trkpt>
      <trkpt lat="45.87798" lon="4.86906">
        <ele>292.6</ele>
        <time>2020-06-07T09:51:59.000Z</time>
      </trkpt>
      <trkpt lat="45.87801" lon="4.86909">
        <ele>292.6</ele>
        <time>2020-06-07T09:52:00.000Z</time>
      </trkpt>
      <trkpt lat="45.87805" lon="4.86913">
        <ele>292.7</ele>
        <time>2020-06-07T09:52:01.000Z</time>
      </trkpt>
      <trkpt lat="45.87809" lon="4.86917">
        <ele>292.7</ele>
        <time>2020-06-07T09:52:02.000Z</time>
      </trkpt>
      <trkpt lat="45.87812" lon="4.86922">
        <ele>292.8</ele>
        <time>2020-06-07T09:52:03.000Z</time>
      </trkpt>
      <trkpt lat="45.87816" lon="4.86926">
        <ele>292.8</ele>
        <time>2020-06-07T09:52:04.000Z</time>
      </trkpt>
      <trkpt lat="45.8782" lon="4.8693">
        <ele>292.8</ele>
        <time>2020-06-07T09:52:05.000Z</time>
      </trkpt>
      <trkpt lat="45.87823" lon="4.86933">
        <ele>292.9</ele>
        <time>2020-06-07T09:52:06.000Z</time>
      </trkpt>
      <trkpt lat="45.87827" lon="4.86937">
        <ele>293</ele>
        <time>2020-06-07T09:52:07.000Z</time>
      </trkpt>
      <trkpt lat="45.87831" lon="4.8694">
        <ele>293.1</ele>
        <time>2020-06-07T09:52:08.000Z</time>
      </trkpt>
      <trkpt lat="45.87834" lon="4.86944">
        <ele>293.2</ele>
        <time>2020-06-07T09:52:09.000Z</time>
      </trkpt>
      <trkpt lat="45.87838" lon="4.86947">
        <ele>293.3</ele>
        <time>2020-06-07T09:52:10.000Z</time>
      </trkpt>
      <trkpt lat="45.87842" lon="4.8695">
        <ele>293.4</ele>
        <time>2020-06-07T09:52:11.000Z</time>
      </trkpt>
      <trkpt lat="45.87845" lon="4.86954">
        <ele>293.4</ele>
        <time>2020-06-07T09:52:12.000Z</time>
      </trkpt>
      <trkpt lat="45.87849" lon="4.86958">
        <ele>293.4</ele>
        <time>2020-06-07T09:52:13.000Z</time>
      </trkpt>
      <trkpt lat="45.87853" lon="4.86961">
        <ele>293.5</ele>
        <time>2020-06-07T09:52:14.000Z</time>
      </trkpt>
      <trkpt lat="45.87857" lon="4.86964">
        <ele>293.5</ele>
        <time>2020-06-07T09:52:15.000Z</time>
      </trkpt>
      <trkpt lat="45.87861" lon="4.86967">
        <ele>293.5</ele>
        <time>2020-06-07T09:52:16.000Z</time>
      </trkpt>
      <trkpt lat="45.87866" lon="4.8697">
        <ele>293.6</ele>
        <time>2020-06-07T09:52:17.000Z</time>
      </trkpt>
      <trkpt lat="45.8787" lon="4.86974">
        <ele>293.7</ele>
        <time>2020-06-07T09:52:18.000Z</time>
      </trkpt>
      <trkpt lat="45.87873" lon="4.86978">
        <ele>293.9</ele>
        <time>2020-06-07T09:52:19.000Z</time>
      </trkpt>
      <trkpt lat="45.87876" lon="4.86982">
        <ele>294</ele>
        <time>2020-06-07T09:52:20.000Z</time>
      </trkpt>
      <trkpt lat="45.87879" lon="4.86985">
        <ele>294.1</ele>
        <time>2020-06-07T09:52:21.000Z</time>
      </trkpt>
      <trkpt lat="45.87883" lon="4.86989">
        <ele>294.3</ele>
        <time>2020-06-07T09:52:22.000Z</time>
      </trkpt>
      <trkpt lat="45.87886" lon="4.86994">
        <ele>294.4</ele>
        <time>2020-06-07T09:52:23.000Z</time>
      </trkpt>
      <trkpt lat="45.87889" lon="4.86998">
        <ele>294.6</ele>
        <time>2020-06-07T09:52:24.000Z</time>
      </trkpt>
      <trkpt lat="45.87892" lon="4.87003">
        <ele>294.7</ele>
        <time>2020-06-07T09:52:25.000Z</time>
      </trkpt>
      <trkpt lat="45.87895" lon="4.87007">
        <ele>294.9</ele>
        <time>2020-06-07T09:52:26.000Z</time>
      </trkpt>
      <trkpt lat="45.87898" lon="4.8701">
        <ele>295.1</ele>
        <time>2020-06-07T09:52:27.000Z</time>
      </trkpt>
      <trkpt lat="45.87901" lon="4.87014">
        <ele>295.2</ele>
        <time>2020-06-07T09:52:28.000Z</time>
      </trkpt>
      <trkpt lat="45.87904" lon="4.87016">
        <ele>295.4</ele>
        <time>2020-06-07T09:52:29.000Z</time>
      </trkpt>
      <trkpt lat="45.87908" lon="4.8702">
        <ele>295.6</ele>
        <time>2020-06-07T09:52:30.000Z</time>
      </trkpt>
      <trkpt lat="45.87911" lon="4.87023">
        <ele>295.8</ele>
        <time>2020-06-07T09:52:31.000Z</time>
      </trkpt>
      <trkpt lat="45.87914" lon="4.87026">
        <ele>296</ele>
        <time>2020-06-07T09:52:32.000Z</time>
      </trkpt>
      <trkpt lat="45.87917" lon="4.8703">
        <ele>296.2</ele>
        <time>2020-06-07T09:52:33.000Z</time>
      </trkpt>
      <trkpt lat="45.8792" lon="4.87033">
        <ele>296.4</ele>
        <time>2020-06-07T09:52:34.000Z</time>
      </trkpt>
      <trkpt lat="45.87923" lon="4.87037">
        <ele>296.6</ele>
        <time>2020-06-07T09:52:35.000Z</time>
      </trkpt>
      <trkpt lat="45.87926" lon="4.8704">
        <ele>296.7</ele>
        <time>2020-06-07T09:52:36.000Z</time>
      </trkpt>
      <trkpt lat="45.87929" lon="4.87043">
        <ele>296.9</ele>
        <time>2020-06-07T09:52:37.000Z</time>
      </trkpt>
      <trkpt lat="45.87933" lon="4.87047">
        <ele>297.2</ele>
        <time>2020-06-07T09:52:38.000Z</time>
      </trkpt>
      <trkpt lat="45.87937" lon="4.87051">
        <ele>297.4</ele>
        <time>2020-06-07T09:52:39.000Z</time>
      </trkpt>
      <trkpt lat="45.87941" lon="4.87055">
        <ele>297.7</ele>
        <time>2020-06-07T09:52:40.000Z</time>
      </trkpt>
      <trkpt lat="45.87944" lon="4.87059">
        <ele>297.9</ele>
        <time>2020-06-07T09:52:41.000Z</time>
      </trkpt>
      <trkpt lat="45.87946" lon="4.87063">
        <ele>298.1</ele>
        <time>2020-06-07T09:52:42.000Z</time>
      </trkpt>
      <trkpt lat="45.87949" lon="4.87067">
        <ele>298.3</ele>
        <time>2020-06-07T09:52:43.000Z</time>
      </trkpt>
      <trkpt lat="45.87952" lon="4.87071">
        <ele>298.5</ele>
        <time>2020-06-07T09:52:44.000Z</time>
      </trkpt>
      <trkpt lat="45.87955" lon="4.87074">
        <ele>298.7</ele>
        <time>2020-06-07T09:52:45.000Z</time>
      </trkpt>
      <trkpt lat="45.87957" lon="4.87078">
        <ele>298.8</ele>
        <time>2020-06-07T09:52:46.000Z</time>
      </trkpt>
      <trkpt lat="45.8796" lon="4.87081">
        <ele>299</ele>
        <time>2020-06-07T09:52:47.000Z</time>
      </trkpt>
      <trkpt lat="45.87962" lon="4.87084">
        <ele>299.1</ele>
        <time>2020-06-07T09:52:48.000Z</time>
      </trkpt>
      <trkpt lat="45.87965" lon="4.87087">
        <ele>299.3</ele>
        <time>2020-06-07T09:52:49.000Z</time>
      </trkpt>
      <trkpt lat="45.87967" lon="4.8709">
        <ele>299.4</ele>
        <time>2020-06-07T09:52:50.000Z</time>
      </trkpt>
      <trkpt lat="45.8797" lon="4.87093">
        <ele>299.5</ele>
        <time>2020-06-07T09:52:51.000Z</time>
      </trkpt>
      <trkpt lat="45.87972" lon="4.87096">
        <ele>299.6</ele>
        <time>2020-06-07T09:52:52.000Z</time>
      </trkpt>
      <trkpt lat="45.87975" lon="4.87099">
        <ele>299.7</ele>
        <time>2020-06-07T09:52:53.000Z</time>
      </trkpt>
      <trkpt lat="45.87977" lon="4.87102">
        <ele>299.9</ele>
        <time>2020-06-07T09:52:54.000Z</time>
      </trkpt>
      <trkpt lat="45.87979" lon="4.87106">
        <ele>300</ele>
        <time>2020-06-07T09:52:55.000Z</time>
      </trkpt>
      <trkpt lat="45.87981" lon="4.87111">
        <ele>300</ele>
        <time>2020-06-07T09:52:56.000Z</time>
      </trkpt>
      <trkpt lat="45.87982" lon="4.87115">
        <ele>300.1</ele>
        <time>2020-06-07T09:52:57.000Z</time>
      </trkpt>
      <trkpt lat="45.87984" lon="4.87119">
        <ele>300.1</ele>
        <time>2020-06-07T09:52:58.000Z</time>
      </trkpt>
      <trkpt lat="45.87985" lon="4.87123">
        <ele>300.2</ele>
        <time>2020-06-07T09:52:59.000Z</time>
      </trkpt>
      <trkpt lat="45.87986" lon="4.87128">
        <ele>300.2</ele>
        <time>2020-06-07T09:53:00.000Z</time>
      </trkpt>
      <trkpt lat="45.87988" lon="4.87132">
        <ele>300.2</ele>
        <time>2020-06-07T09:53:01.000Z</time>
      </trkpt>
      <trkpt lat="45.87989" lon="4.87137">
        <ele>300.2</ele>
        <time>2020-06-07T09:53:02.000Z</time>
      </trkpt>
      <trkpt lat="45.87992" lon="4.87142">
        <ele>300.2</ele>
        <time>2020-06-07T09:53:03.000Z</time>
      </trkpt>
      <trkpt lat="45.87993" lon="4.87149">
        <ele>300.1</ele>
        <time>2020-06-07T09:53:04.000Z</time>
      </trkpt>
      <trkpt lat="45.87994" lon="4.87156">
        <ele>300.1</ele>
        <time>2020-06-07T09:53:05.000Z</time>
      </trkpt>
      <trkpt lat="45.87996" lon="4.87162">
        <ele>300.1</ele>
        <time>2020-06-07T09:53:06.000Z</time>
      </trkpt>
      <trkpt lat="45.87997" lon="4.87168">
        <ele>300</ele>
        <time>2020-06-07T09:53:07.000Z</time>
      </trkpt>
      <trkpt lat="45.87998" lon="4.87175">
        <ele>300</ele>
        <time>2020-06-07T09:53:08.000Z</time>
      </trkpt>
      <trkpt lat="45.87999" lon="4.87181">
        <ele>300.1</ele>
        <time>2020-06-07T09:53:09.000Z</time>
      </trkpt>
      <trkpt lat="45.88001" lon="4.87186">
        <ele>300.2</ele>
        <time>2020-06-07T09:53:10.000Z</time>
      </trkpt>
      <trkpt lat="45.88003" lon="4.87192">
        <ele>300.2</ele>
        <time>2020-06-07T09:53:11.000Z</time>
      </trkpt>
      <trkpt lat="45.88006" lon="4.87196">
        <ele>300.2</ele>
        <time>2020-06-07T09:53:12.000Z</time>
      </trkpt>
      <trkpt lat="45.88009" lon="4.872">
        <ele>300.2</ele>
        <time>2020-06-07T09:53:13.000Z</time>
      </trkpt>
      <trkpt lat="45.88013" lon="4.87203">
        <ele>300.2</ele>
        <time>2020-06-07T09:53:14.000Z</time>
      </trkpt>
      <trkpt lat="45.88017" lon="4.87206">
        <ele>300.2</ele>
        <time>2020-06-07T09:53:15.000Z</time>
      </trkpt>
      <trkpt lat="45.8802" lon="4.87208">
        <ele>300.2</ele>
        <time>2020-06-07T09:53:16.000Z</time>
      </trkpt>
      <trkpt lat="45.88025" lon="4.87211">
        <ele>300.1</ele>
        <time>2020-06-07T09:53:17.000Z</time>
      </trkpt>
      <trkpt lat="45.88029" lon="4.87214">
        <ele>300</ele>
        <time>2020-06-07T09:53:18.000Z</time>
      </trkpt>
      <trkpt lat="45.88033" lon="4.87216">
        <ele>299.9</ele>
        <time>2020-06-07T09:53:19.000Z</time>
      </trkpt>
      <trkpt lat="45.88038" lon="4.87219">
        <ele>299.8</ele>
        <time>2020-06-07T09:53:20.000Z</time>
      </trkpt>
      <trkpt lat="45.88042" lon="4.87222">
        <ele>299.7</ele>
        <time>2020-06-07T09:53:21.000Z</time>
      </trkpt>
      <trkpt lat="45.88046" lon="4.87225">
        <ele>299.6</ele>
        <time>2020-06-07T09:53:22.000Z</time>
      </trkpt>
      <trkpt lat="45.8805" lon="4.87228">
        <ele>299.6</ele>
        <time>2020-06-07T09:53:23.000Z</time>
      </trkpt>
      <trkpt lat="45.88054" lon="4.87232">
        <ele>299.5</ele>
        <time>2020-06-07T09:53:24.000Z</time>
      </trkpt>
      <trkpt lat="45.88059" lon="4.87236">
        <ele>299.3</ele>
        <time>2020-06-07T09:53:25.000Z</time>
      </trkpt>
      <trkpt lat="45.88066" lon="4.87241">
        <ele>299.1</ele>
        <time>2020-06-07T09:53:26.000Z</time>
      </trkpt>
      <trkpt lat="45.8807" lon="4.87246">
        <ele>299</ele>
        <time>2020-06-07T09:53:27.000Z</time>
      </trkpt>
      <trkpt lat="45.88075" lon="4.87251">
        <ele>298.9</ele>
        <time>2020-06-07T09:53:28.000Z</time>
      </trkpt>
      <trkpt lat="45.88081" lon="4.87256">
        <ele>298.7</ele>
        <time>2020-06-07T09:53:29.000Z</time>
      </trkpt>
      <trkpt lat="45.88089" lon="4.8726">
        <ele>298.5</ele>
        <time>2020-06-07T09:53:30.000Z</time>
      </trkpt>
      <trkpt lat="45.88095" lon="4.87265">
        <ele>298.3</ele>
        <time>2020-06-07T09:53:31.000Z</time>
      </trkpt>
      <trkpt lat="45.88101" lon="4.8727">
        <ele>298.2</ele>
        <time>2020-06-07T09:53:32.000Z</time>
      </trkpt>
      <trkpt lat="45.88107" lon="4.87274">
        <ele>298.1</ele>
        <time>2020-06-07T09:53:33.000Z</time>
      </trkpt>
      <trkpt lat="45.88113" lon="4.87278">
        <ele>298</ele>
        <time>2020-06-07T09:53:34.000Z</time>
      </trkpt>
      <trkpt lat="45.88118" lon="4.87283">
        <ele>297.9</ele>
        <time>2020-06-07T09:53:35.000Z</time>
      </trkpt>
      <trkpt lat="45.88123" lon="4.87287">
        <ele>297.8</ele>
        <time>2020-06-07T09:53:36.000Z</time>
      </trkpt>
      <trkpt lat="45.88128" lon="4.87291">
        <ele>297.7</ele>
        <time>2020-06-07T09:53:37.000Z</time>
      </trkpt>
      <trkpt lat="45.88134" lon="4.87295">
        <ele>297.5</ele>
        <time>2020-06-07T09:53:38.000Z</time>
      </trkpt>
      <trkpt lat="45.88139" lon="4.87299">
        <ele>297.4</ele>
        <time>2020-06-07T09:53:39.000Z</time>
      </trkpt>
      <trkpt lat="45.88144" lon="4.87302">
        <ele>297.2</ele>
        <time>2020-06-07T09:53:40.000Z</time>
      </trkpt>
      <trkpt lat="45.8815" lon="4.87306">
        <ele>297.2</ele>
        <time>2020-06-07T09:53:41.000Z</time>
      </trkpt>
      <trkpt lat="45.88155" lon="4.87309">
        <ele>297.1</ele>
        <time>2020-06-07T09:53:42.000Z</time>
      </trkpt>
      <trkpt lat="45.88161" lon="4.87313">
        <ele>297</ele>
        <time>2020-06-07T09:53:43.000Z</time>
      </trkpt>
      <trkpt lat="45.88166" lon="4.87316">
        <ele>297</ele>
        <time>2020-06-07T09:53:44.000Z</time>
      </trkpt>
      <trkpt lat="45.88172" lon="4.87319">
        <ele>296.9</ele>
        <time>2020-06-07T09:53:45.000Z</time>
      </trkpt>
      <trkpt lat="45.88177" lon="4.87322">
        <ele>297</ele>
        <time>2020-06-07T09:53:46.000Z</time>
      </trkpt>
      <trkpt lat="45.88182" lon="4.87326">
        <ele>297</ele>
        <time>2020-06-07T09:53:47.000Z</time>
      </trkpt>
      <trkpt lat="45.88187" lon="4.8733">
        <ele>297.1</ele>
        <time>2020-06-07T09:53:48.000Z</time>
      </trkpt>
      <trkpt lat="45.88192" lon="4.87334">
        <ele>297.2</ele>
        <time>2020-06-07T09:53:49.000Z</time>
      </trkpt>
      <trkpt lat="45.88196" lon="4.87338">
        <ele>297.2</ele>
        <time>2020-06-07T09:53:50.000Z</time>
      </trkpt>
      <trkpt lat="45.882" lon="4.87343">
        <ele>298</ele>
        <time>2020-06-07T09:53:51.000Z</time>
      </trkpt>
      <trkpt lat="45.88205" lon="4.87347">
        <ele>297.6</ele>
        <time>2020-06-07T09:53:52.000Z</time>
      </trkpt>
      <trkpt lat="45.88209" lon="4.87351">
        <ele>297.1</ele>
        <time>2020-06-07T09:53:53.000Z</time>
      </trkpt>
      <trkpt lat="45.88213" lon="4.87355">
        <ele>296.7</ele>
        <time>2020-06-07T09:53:54.000Z</time>
      </trkpt>
      <trkpt lat="45.88217" lon="4.87355">
        <ele>296.5</ele>
        <time>2020-06-07T09:53:55.000Z</time>
      </trkpt>
      <trkpt lat="45.88222" lon="4.87354">
        <ele>296.5</ele>
        <time>2020-06-07T09:53:56.000Z</time>
      </trkpt>
      <trkpt lat="45.88226" lon="4.87353">
        <ele>296.5</ele>
        <time>2020-06-07T09:53:57.000Z</time>
      </trkpt>
      <trkpt lat="45.8823" lon="4.87351">
        <ele>296.6</ele>
        <time>2020-06-07T09:53:58.000Z</time>
      </trkpt>
      <trkpt lat="45.88235" lon="4.87349">
        <ele>296.7</ele>
        <time>2020-06-07T09:53:59.000Z</time>
      </trkpt>
      <trkpt lat="45.8824" lon="4.87349">
        <ele>296.8</ele>
        <time>2020-06-07T09:54:00.000Z</time>
      </trkpt>
      <trkpt lat="45.88245" lon="4.87349">
        <ele>296.9</ele>
        <time>2020-06-07T09:54:01.000Z</time>
      </trkpt>
      <trkpt lat="45.8825" lon="4.8735">
        <ele>297</ele>
        <time>2020-06-07T09:54:02.000Z</time>
      </trkpt>
      <trkpt lat="45.88254" lon="4.87352">
        <ele>297</ele>
        <time>2020-06-07T09:54:03.000Z</time>
      </trkpt>
      <trkpt lat="45.88258" lon="4.87354">
        <ele>297.1</ele>
        <time>2020-06-07T09:54:04.000Z</time>
      </trkpt>
      <trkpt lat="45.88262" lon="4.87357">
        <ele>297.1</ele>
        <time>2020-06-07T09:54:05.000Z</time>
      </trkpt>
      <trkpt lat="45.88265" lon="4.87361">
        <ele>297.2</ele>
        <time>2020-06-07T09:54:06.000Z</time>
      </trkpt>
      <trkpt lat="45.88268" lon="4.87365">
        <ele>297.2</ele>
        <time>2020-06-07T09:54:07.000Z</time>
      </trkpt>
    </trkseg>
  </trk>
</gpx>